<?xml version="1.0" encoding="UTF-8" standalone="no" ?>
<gpx xmlns="http://www.topografix.com/GPX/1/1" xmlns:xsi="http://www.w3.org/2001/XMLSchema-instance" xsi:schemaLocation="http://www.topografix.com/GPX/1/1 http://www.topografix.com/GPX/1/1/gpx.xsd" version="1.1" creator="VisuGPX - https://www.visugpx.com">
  <metadata>
    <name>suite voyage</name>
  </metadata>
  <trk>
    <name><![CDATA[T12]]></name>
    <trkseg>
      <trkpt lat="48.98265" lon="-1.45413">
        <ele>19.8</ele>
        <time>2020-06-12T03:33:02Z</time>
      </trkpt>
      <trkpt lat="48.98278" lon="-1.45397">
        <ele>19.5</ele>
        <time>2020-06-12T03:33:03Z</time>
      </trkpt>
      <trkpt lat="48.98295" lon="-1.45471">
        <ele>18</ele>
        <time>2020-06-12T03:33:05Z</time>
      </trkpt>
      <trkpt lat="48.98296" lon="-1.45487">
        <ele>17.8</ele>
        <time>2020-06-12T03:33:06Z</time>
      </trkpt>
      <trkpt lat="48.983" lon="-1.45496">
        <ele>17.6</ele>
        <time>2020-06-12T03:33:07Z</time>
      </trkpt>
      <trkpt lat="48.98302" lon="-1.45505">
        <ele>17.6</ele>
        <time>2020-06-12T03:33:08Z</time>
      </trkpt>
      <trkpt lat="48.98309" lon="-1.45522">
        <ele>17.4</ele>
        <time>2020-06-12T03:33:09Z</time>
      </trkpt>
      <trkpt lat="48.98313" lon="-1.4553">
        <ele>17.3</ele>
        <time>2020-06-12T03:33:10Z</time>
      </trkpt>
      <trkpt lat="48.98317" lon="-1.45539">
        <ele>17.3</ele>
        <time>2020-06-12T03:33:11Z</time>
      </trkpt>
      <trkpt lat="48.98321" lon="-1.45548">
        <ele>17.4</ele>
        <time>2020-06-12T03:33:12Z</time>
      </trkpt>
      <trkpt lat="48.98325" lon="-1.45556">
        <ele>17.4</ele>
        <time>2020-06-12T03:33:15Z</time>
      </trkpt>
      <trkpt lat="48.9833" lon="-1.45565">
        <ele>17.4</ele>
        <time>2020-06-12T03:33:16Z</time>
      </trkpt>
      <trkpt lat="48.98333" lon="-1.45572">
        <ele>17.4</ele>
        <time>2020-06-12T03:33:17Z</time>
      </trkpt>
      <trkpt lat="48.98336" lon="-1.45578">
        <ele>17.4</ele>
        <time>2020-06-12T03:33:18Z</time>
      </trkpt>
      <trkpt lat="48.98338" lon="-1.45583">
        <ele>17.4</ele>
        <time>2020-06-12T03:33:19Z</time>
      </trkpt>
      <trkpt lat="48.98343" lon="-1.45596">
        <ele>17.3</ele>
        <time>2020-06-12T03:33:20Z</time>
      </trkpt>
      <trkpt lat="48.98345" lon="-1.45601">
        <ele>17.3</ele>
        <time>2020-06-12T03:33:21Z</time>
      </trkpt>
      <trkpt lat="48.98348" lon="-1.45609">
        <ele>17.3</ele>
        <time>2020-06-12T03:33:22Z</time>
      </trkpt>
      <trkpt lat="48.9835" lon="-1.45615">
        <ele>17.3</ele>
        <time>2020-06-12T03:33:23Z</time>
      </trkpt>
      <trkpt lat="48.98352" lon="-1.45619">
        <ele>17.3</ele>
        <time>2020-06-12T03:33:24Z</time>
      </trkpt>
      <trkpt lat="48.98354" lon="-1.45625">
        <ele>17.3</ele>
        <time>2020-06-12T03:33:25Z</time>
      </trkpt>
      <trkpt lat="48.98359" lon="-1.45632">
        <ele>17.4</ele>
        <time>2020-06-12T03:33:26Z</time>
      </trkpt>
      <trkpt lat="48.98362" lon="-1.45637">
        <ele>17.4</ele>
        <time>2020-06-12T03:33:27Z</time>
      </trkpt>
      <trkpt lat="48.98365" lon="-1.45644">
        <ele>17.4</ele>
        <time>2020-06-12T03:33:28Z</time>
      </trkpt>
      <trkpt lat="48.98369" lon="-1.45648">
        <ele>17.4</ele>
        <time>2020-06-12T03:33:29Z</time>
      </trkpt>
      <trkpt lat="48.98374" lon="-1.45652">
        <ele>17.4</ele>
        <time>2020-06-12T03:33:30Z</time>
      </trkpt>
      <trkpt lat="48.98379" lon="-1.45658">
        <ele>17.4</ele>
        <time>2020-06-12T03:33:31Z</time>
      </trkpt>
      <trkpt lat="48.98383" lon="-1.45662">
        <ele>17.4</ele>
        <time>2020-06-12T03:33:32Z</time>
      </trkpt>
      <trkpt lat="48.98384" lon="-1.45669">
        <ele>17.4</ele>
        <time>2020-06-12T03:33:33Z</time>
      </trkpt>
      <trkpt lat="48.98387" lon="-1.45674">
        <ele>17.4</ele>
        <time>2020-06-12T03:33:34Z</time>
      </trkpt>
      <trkpt lat="48.98391" lon="-1.45681">
        <ele>17.4</ele>
        <time>2020-06-12T03:33:35Z</time>
      </trkpt>
      <trkpt lat="48.98395" lon="-1.45686">
        <ele>17.3</ele>
        <time>2020-06-12T03:33:36Z</time>
      </trkpt>
      <trkpt lat="48.98398" lon="-1.45691">
        <ele>17.3</ele>
        <time>2020-06-12T03:33:37Z</time>
      </trkpt>
      <trkpt lat="48.98402" lon="-1.45697">
        <ele>17.3</ele>
        <time>2020-06-12T03:33:38Z</time>
      </trkpt>
      <trkpt lat="48.98406" lon="-1.45703">
        <ele>17.3</ele>
        <time>2020-06-12T03:33:39Z</time>
      </trkpt>
      <trkpt lat="48.9841" lon="-1.4571">
        <ele>17.3</ele>
        <time>2020-06-12T03:33:40Z</time>
      </trkpt>
      <trkpt lat="48.98415" lon="-1.45714">
        <ele>17.3</ele>
        <time>2020-06-12T03:33:41Z</time>
      </trkpt>
      <trkpt lat="48.98419" lon="-1.45718">
        <ele>17.3</ele>
        <time>2020-06-12T03:33:42Z</time>
      </trkpt>
      <trkpt lat="48.98423" lon="-1.45723">
        <ele>17.2</ele>
        <time>2020-06-12T03:33:43Z</time>
      </trkpt>
      <trkpt lat="48.98427" lon="-1.45728">
        <ele>17.1</ele>
        <time>2020-06-12T03:33:44Z</time>
      </trkpt>
      <trkpt lat="48.98431" lon="-1.45733">
        <ele>17</ele>
        <time>2020-06-12T03:33:45Z</time>
      </trkpt>
      <trkpt lat="48.98435" lon="-1.45738">
        <ele>16.9</ele>
        <time>2020-06-12T03:33:46Z</time>
      </trkpt>
      <trkpt lat="48.98439" lon="-1.45743">
        <ele>16.8</ele>
        <time>2020-06-12T03:33:47Z</time>
      </trkpt>
      <trkpt lat="48.98444" lon="-1.45747">
        <ele>16.7</ele>
        <time>2020-06-12T03:33:48Z</time>
      </trkpt>
      <trkpt lat="48.98448" lon="-1.45752">
        <ele>16.6</ele>
        <time>2020-06-12T03:33:49Z</time>
      </trkpt>
      <trkpt lat="48.98452" lon="-1.45757">
        <ele>16.6</ele>
        <time>2020-06-12T03:33:50Z</time>
      </trkpt>
      <trkpt lat="48.98455" lon="-1.4576">
        <ele>16.5</ele>
        <time>2020-06-12T03:33:51Z</time>
      </trkpt>
      <trkpt lat="48.98459" lon="-1.45764">
        <ele>16.4</ele>
        <time>2020-06-12T03:33:52Z</time>
      </trkpt>
      <trkpt lat="48.98463" lon="-1.45768">
        <ele>16.3</ele>
        <time>2020-06-12T03:33:53Z</time>
      </trkpt>
      <trkpt lat="48.98467" lon="-1.45773">
        <ele>16.3</ele>
        <time>2020-06-12T03:33:54Z</time>
      </trkpt>
      <trkpt lat="48.98471" lon="-1.45777">
        <ele>16.2</ele>
        <time>2020-06-12T03:33:55Z</time>
      </trkpt>
      <trkpt lat="48.98476" lon="-1.45782">
        <ele>16.1</ele>
        <time>2020-06-12T03:33:56Z</time>
      </trkpt>
      <trkpt lat="48.9848" lon="-1.45787">
        <ele>16.1</ele>
        <time>2020-06-12T03:33:57Z</time>
      </trkpt>
      <trkpt lat="48.98483" lon="-1.45791">
        <ele>16</ele>
        <time>2020-06-12T03:33:58Z</time>
      </trkpt>
      <trkpt lat="48.98486" lon="-1.45797">
        <ele>15.9</ele>
        <time>2020-06-12T03:33:59Z</time>
      </trkpt>
      <trkpt lat="48.98491" lon="-1.45804">
        <ele>15.8</ele>
        <time>2020-06-12T03:34:00Z</time>
      </trkpt>
      <trkpt lat="48.98493" lon="-1.45811">
        <ele>15.7</ele>
        <time>2020-06-12T03:34:01Z</time>
      </trkpt>
      <trkpt lat="48.98494" lon="-1.4582">
        <ele>15.5</ele>
        <time>2020-06-12T03:34:02Z</time>
      </trkpt>
      <trkpt lat="48.98495" lon="-1.45828">
        <ele>15.4</ele>
        <time>2020-06-12T03:34:03Z</time>
      </trkpt>
      <trkpt lat="48.98495" lon="-1.45837">
        <ele>15.3</ele>
        <time>2020-06-12T03:34:04Z</time>
      </trkpt>
      <trkpt lat="48.98496" lon="-1.45845">
        <ele>15.2</ele>
        <time>2020-06-12T03:34:05Z</time>
      </trkpt>
      <trkpt lat="48.98498" lon="-1.45855">
        <ele>14.9</ele>
        <time>2020-06-12T03:34:06Z</time>
      </trkpt>
      <trkpt lat="48.985" lon="-1.45862">
        <ele>14.8</ele>
        <time>2020-06-12T03:34:07Z</time>
      </trkpt>
      <trkpt lat="48.98503" lon="-1.45866">
        <ele>14.6</ele>
        <time>2020-06-12T03:34:08Z</time>
      </trkpt>
      <trkpt lat="48.98508" lon="-1.45869">
        <ele>14.5</ele>
        <time>2020-06-12T03:34:09Z</time>
      </trkpt>
      <trkpt lat="48.98513" lon="-1.45871">
        <ele>14.3</ele>
        <time>2020-06-12T03:34:10Z</time>
      </trkpt>
      <trkpt lat="48.98519" lon="-1.45873">
        <ele>14.1</ele>
        <time>2020-06-12T03:34:11Z</time>
      </trkpt>
      <trkpt lat="48.98524" lon="-1.45875">
        <ele>13.9</ele>
        <time>2020-06-12T03:34:12Z</time>
      </trkpt>
      <trkpt lat="48.98529" lon="-1.45879">
        <ele>13.7</ele>
        <time>2020-06-12T03:34:13Z</time>
      </trkpt>
      <trkpt lat="48.98535" lon="-1.45882">
        <ele>13.5</ele>
        <time>2020-06-12T03:34:14Z</time>
      </trkpt>
      <trkpt lat="48.98541" lon="-1.45885">
        <ele>13.3</ele>
        <time>2020-06-12T03:34:15Z</time>
      </trkpt>
      <trkpt lat="48.98547" lon="-1.45887">
        <ele>13</ele>
        <time>2020-06-12T03:34:16Z</time>
      </trkpt>
      <trkpt lat="48.98553" lon="-1.4589">
        <ele>12.7</ele>
        <time>2020-06-12T03:34:17Z</time>
      </trkpt>
      <trkpt lat="48.98559" lon="-1.45893">
        <ele>12.4</ele>
        <time>2020-06-12T03:34:18Z</time>
      </trkpt>
      <trkpt lat="48.98567" lon="-1.45894">
        <ele>12.1</ele>
        <time>2020-06-12T03:34:19Z</time>
      </trkpt>
      <trkpt lat="48.98573" lon="-1.45897">
        <ele>11.8</ele>
        <time>2020-06-12T03:34:20Z</time>
      </trkpt>
      <trkpt lat="48.9858" lon="-1.45901">
        <ele>11.5</ele>
        <time>2020-06-12T03:34:21Z</time>
      </trkpt>
      <trkpt lat="48.98588" lon="-1.45903">
        <ele>11.1</ele>
        <time>2020-06-12T03:34:22Z</time>
      </trkpt>
      <trkpt lat="48.98595" lon="-1.45906">
        <ele>10.7</ele>
        <time>2020-06-12T03:34:23Z</time>
      </trkpt>
      <trkpt lat="48.98602" lon="-1.45909">
        <ele>10.3</ele>
        <time>2020-06-12T03:34:24Z</time>
      </trkpt>
      <trkpt lat="48.98609" lon="-1.45913">
        <ele>10</ele>
        <time>2020-06-12T03:34:25Z</time>
      </trkpt>
      <trkpt lat="48.98616" lon="-1.45916">
        <ele>9.8</ele>
        <time>2020-06-12T03:34:26Z</time>
      </trkpt>
      <trkpt lat="48.98624" lon="-1.4592">
        <ele>9.6</ele>
        <time>2020-06-12T03:34:27Z</time>
      </trkpt>
      <trkpt lat="48.98631" lon="-1.45923">
        <ele>9.4</ele>
        <time>2020-06-12T03:34:28Z</time>
      </trkpt>
      <trkpt lat="48.98638" lon="-1.45927">
        <ele>9.4</ele>
        <time>2020-06-12T03:34:29Z</time>
      </trkpt>
      <trkpt lat="48.98645" lon="-1.4593">
        <ele>9.3</ele>
        <time>2020-06-12T03:34:30Z</time>
      </trkpt>
      <trkpt lat="48.9865" lon="-1.45934">
        <ele>9.2</ele>
        <time>2020-06-12T03:34:31Z</time>
      </trkpt>
      <trkpt lat="48.98655" lon="-1.45939">
        <ele>9.2</ele>
        <time>2020-06-12T03:34:32Z</time>
      </trkpt>
      <trkpt lat="48.98659" lon="-1.45945">
        <ele>9.2</ele>
        <time>2020-06-12T03:34:33Z</time>
      </trkpt>
      <trkpt lat="48.98664" lon="-1.45951">
        <ele>9.2</ele>
        <time>2020-06-12T03:34:34Z</time>
      </trkpt>
      <trkpt lat="48.98668" lon="-1.45957">
        <ele>9.2</ele>
        <time>2020-06-12T03:34:35Z</time>
      </trkpt>
      <trkpt lat="48.98673" lon="-1.45963">
        <ele>9.4</ele>
        <time>2020-06-12T03:34:36Z</time>
      </trkpt>
      <trkpt lat="48.98677" lon="-1.45969">
        <ele>9.5</ele>
        <time>2020-06-12T03:34:37Z</time>
      </trkpt>
      <trkpt lat="48.98681" lon="-1.45975">
        <ele>9.7</ele>
        <time>2020-06-12T03:34:38Z</time>
      </trkpt>
      <trkpt lat="48.98686" lon="-1.4598">
        <ele>9.9</ele>
        <time>2020-06-12T03:34:39Z</time>
      </trkpt>
      <trkpt lat="48.9869" lon="-1.45986">
        <ele>10.1</ele>
        <time>2020-06-12T03:34:40Z</time>
      </trkpt>
      <trkpt lat="48.98694" lon="-1.45988">
        <ele>10.3</ele>
        <time>2020-06-12T03:34:41Z</time>
      </trkpt>
      <trkpt lat="48.98698" lon="-1.45992">
        <ele>10.4</ele>
        <time>2020-06-12T03:34:42Z</time>
      </trkpt>
      <trkpt lat="48.98701" lon="-1.45996">
        <ele>10.6</ele>
        <time>2020-06-12T03:34:43Z</time>
      </trkpt>
      <trkpt lat="48.98704" lon="-1.45998">
        <ele>10.7</ele>
        <time>2020-06-12T03:34:44Z</time>
      </trkpt>
      <trkpt lat="48.98708" lon="-1.46001">
        <ele>11</ele>
        <time>2020-06-12T03:34:45Z</time>
      </trkpt>
      <trkpt lat="48.98712" lon="-1.46005">
        <ele>11.2</ele>
        <time>2020-06-12T03:34:46Z</time>
      </trkpt>
      <trkpt lat="48.98716" lon="-1.46008">
        <ele>11.4</ele>
        <time>2020-06-12T03:34:47Z</time>
      </trkpt>
      <trkpt lat="48.9872" lon="-1.46011">
        <ele>11.7</ele>
        <time>2020-06-12T03:34:48Z</time>
      </trkpt>
      <trkpt lat="48.98724" lon="-1.46014">
        <ele>11.9</ele>
        <time>2020-06-12T03:34:49Z</time>
      </trkpt>
      <trkpt lat="48.98726" lon="-1.46017">
        <ele>12.1</ele>
        <time>2020-06-12T03:34:50Z</time>
      </trkpt>
      <trkpt lat="48.9873" lon="-1.4602">
        <ele>12.3</ele>
        <time>2020-06-12T03:34:51Z</time>
      </trkpt>
      <trkpt lat="48.98733" lon="-1.46023">
        <ele>12.5</ele>
        <time>2020-06-12T03:34:52Z</time>
      </trkpt>
      <trkpt lat="48.98738" lon="-1.46026">
        <ele>12.7</ele>
        <time>2020-06-12T03:34:53Z</time>
      </trkpt>
      <trkpt lat="48.9874" lon="-1.46029">
        <ele>12.9</ele>
        <time>2020-06-12T03:34:54Z</time>
      </trkpt>
      <trkpt lat="48.98744" lon="-1.4603">
        <ele>13</ele>
        <time>2020-06-12T03:34:55Z</time>
      </trkpt>
      <trkpt lat="48.98747" lon="-1.46033">
        <ele>13.1</ele>
        <time>2020-06-12T03:34:56Z</time>
      </trkpt>
      <trkpt lat="48.98751" lon="-1.46035">
        <ele>13.3</ele>
        <time>2020-06-12T03:34:57Z</time>
      </trkpt>
      <trkpt lat="48.98755" lon="-1.46037">
        <ele>13.4</ele>
        <time>2020-06-12T03:34:58Z</time>
      </trkpt>
      <trkpt lat="48.98759" lon="-1.4604">
        <ele>13.5</ele>
        <time>2020-06-12T03:34:59Z</time>
      </trkpt>
      <trkpt lat="48.98762" lon="-1.46043">
        <ele>13.6</ele>
        <time>2020-06-12T03:35:00Z</time>
      </trkpt>
      <trkpt lat="48.98765" lon="-1.46045">
        <ele>13.7</ele>
        <time>2020-06-12T03:35:01Z</time>
      </trkpt>
      <trkpt lat="48.98769" lon="-1.46046">
        <ele>13.8</ele>
        <time>2020-06-12T03:35:02Z</time>
      </trkpt>
      <trkpt lat="48.98773" lon="-1.46048">
        <ele>13.9</ele>
        <time>2020-06-12T03:35:03Z</time>
      </trkpt>
      <trkpt lat="48.98776" lon="-1.46051">
        <ele>14</ele>
        <time>2020-06-12T03:35:04Z</time>
      </trkpt>
      <trkpt lat="48.9878" lon="-1.46054">
        <ele>14</ele>
        <time>2020-06-12T03:35:05Z</time>
      </trkpt>
      <trkpt lat="48.98783" lon="-1.46056">
        <ele>14.1</ele>
        <time>2020-06-12T03:35:06Z</time>
      </trkpt>
      <trkpt lat="48.98784" lon="-1.46057">
        <ele>14.2</ele>
        <time>2020-06-12T03:35:07Z</time>
      </trkpt>
      <trkpt lat="48.98787" lon="-1.46059">
        <ele>14.2</ele>
        <time>2020-06-12T03:35:08Z</time>
      </trkpt>
      <trkpt lat="48.98789" lon="-1.4606">
        <ele>14.3</ele>
        <time>2020-06-12T03:35:09Z</time>
      </trkpt>
      <trkpt lat="48.98793" lon="-1.46061">
        <ele>14.4</ele>
        <time>2020-06-12T03:35:10Z</time>
      </trkpt>
      <trkpt lat="48.98797" lon="-1.46064">
        <ele>14.5</ele>
        <time>2020-06-12T03:35:11Z</time>
      </trkpt>
      <trkpt lat="48.988" lon="-1.46066">
        <ele>14.6</ele>
        <time>2020-06-12T03:35:12Z</time>
      </trkpt>
      <trkpt lat="48.98803" lon="-1.46068">
        <ele>14.6</ele>
        <time>2020-06-12T03:35:13Z</time>
      </trkpt>
      <trkpt lat="48.98805" lon="-1.4607">
        <ele>14.7</ele>
        <time>2020-06-12T03:35:14Z</time>
      </trkpt>
      <trkpt lat="48.98806" lon="-1.4607">
        <ele>14.7</ele>
        <time>2020-06-12T03:35:15Z</time>
      </trkpt>
      <trkpt lat="48.98806" lon="-1.46069">
        <ele>14.7</ele>
        <time>2020-06-12T03:35:16Z</time>
      </trkpt>
      <trkpt lat="48.98806" lon="-1.46069">
        <ele>14.7</ele>
        <time>2020-06-12T03:35:17Z</time>
      </trkpt>
      <trkpt lat="48.98806" lon="-1.46068">
        <ele>14.7</ele>
        <time>2020-06-12T03:35:18Z</time>
      </trkpt>
      <trkpt lat="48.98805" lon="-1.46067">
        <ele>14.7</ele>
        <time>2020-06-12T03:35:19Z</time>
      </trkpt>
      <trkpt lat="48.98806" lon="-1.46068">
        <ele>14.7</ele>
        <time>2020-06-12T03:35:20Z</time>
      </trkpt>
      <trkpt lat="48.98806" lon="-1.46068">
        <ele>14.7</ele>
        <time>2020-06-12T03:35:21Z</time>
      </trkpt>
      <trkpt lat="48.98806" lon="-1.46068">
        <ele>14.7</ele>
        <time>2020-06-12T03:35:22Z</time>
      </trkpt>
      <trkpt lat="48.98806" lon="-1.46069">
        <ele>14.7</ele>
        <time>2020-06-12T03:35:23Z</time>
      </trkpt>
      <trkpt lat="48.98806" lon="-1.46069">
        <ele>14.7</ele>
        <time>2020-06-12T03:35:24Z</time>
      </trkpt>
      <trkpt lat="48.98806" lon="-1.46069">
        <ele>14.7</ele>
        <time>2020-06-12T03:35:25Z</time>
      </trkpt>
      <trkpt lat="48.98806" lon="-1.46067">
        <ele>14.8</ele>
        <time>2020-06-12T03:35:26Z</time>
      </trkpt>
      <trkpt lat="48.98806" lon="-1.46067">
        <ele>14.8</ele>
        <time>2020-06-12T03:35:27Z</time>
      </trkpt>
      <trkpt lat="48.98807" lon="-1.46067">
        <ele>14.8</ele>
        <time>2020-06-12T03:35:28Z</time>
      </trkpt>
      <trkpt lat="48.98807" lon="-1.46067">
        <ele>14.8</ele>
        <time>2020-06-12T03:35:29Z</time>
      </trkpt>
      <trkpt lat="48.98808" lon="-1.46067">
        <ele>14.8</ele>
        <time>2020-06-12T03:35:30Z</time>
      </trkpt>
      <trkpt lat="48.98809" lon="-1.46067">
        <ele>14.8</ele>
        <time>2020-06-12T03:35:31Z</time>
      </trkpt>
      <trkpt lat="48.98813" lon="-1.46069">
        <ele>14.9</ele>
        <time>2020-06-12T03:35:32Z</time>
      </trkpt>
      <trkpt lat="48.98814" lon="-1.46069">
        <ele>14.9</ele>
        <time>2020-06-12T03:35:33Z</time>
      </trkpt>
      <trkpt lat="48.98816" lon="-1.46072">
        <ele>14.9</ele>
        <time>2020-06-12T03:35:34Z</time>
      </trkpt>
      <trkpt lat="48.98818" lon="-1.46073">
        <ele>14.9</ele>
        <time>2020-06-12T03:35:35Z</time>
      </trkpt>
      <trkpt lat="48.9882" lon="-1.46074">
        <ele>14.9</ele>
        <time>2020-06-12T03:35:36Z</time>
      </trkpt>
      <trkpt lat="48.98822" lon="-1.46076">
        <ele>15</ele>
        <time>2020-06-12T03:35:37Z</time>
      </trkpt>
      <trkpt lat="48.98823" lon="-1.46077">
        <ele>15</ele>
        <time>2020-06-12T03:35:38Z</time>
      </trkpt>
      <trkpt lat="48.98826" lon="-1.46077">
        <ele>15</ele>
        <time>2020-06-12T03:35:39Z</time>
      </trkpt>
      <trkpt lat="48.98827" lon="-1.46078">
        <ele>15</ele>
        <time>2020-06-12T03:35:40Z</time>
      </trkpt>
      <trkpt lat="48.98828" lon="-1.46078">
        <ele>15</ele>
        <time>2020-06-12T03:35:41Z</time>
      </trkpt>
      <trkpt lat="48.98831" lon="-1.46078">
        <ele>15</ele>
        <time>2020-06-12T03:35:42Z</time>
      </trkpt>
      <trkpt lat="48.98832" lon="-1.46078">
        <ele>15.1</ele>
        <time>2020-06-12T03:35:43Z</time>
      </trkpt>
      <trkpt lat="48.98835" lon="-1.46079">
        <ele>15.1</ele>
        <time>2020-06-12T03:35:44Z</time>
      </trkpt>
      <trkpt lat="48.98838" lon="-1.4608">
        <ele>15.1</ele>
        <time>2020-06-12T03:35:45Z</time>
      </trkpt>
      <trkpt lat="48.98842" lon="-1.46082">
        <ele>15.1</ele>
        <time>2020-06-12T03:35:46Z</time>
      </trkpt>
      <trkpt lat="48.98845" lon="-1.46084">
        <ele>15.2</ele>
        <time>2020-06-12T03:35:47Z</time>
      </trkpt>
      <trkpt lat="48.98847" lon="-1.46086">
        <ele>15.2</ele>
        <time>2020-06-12T03:35:48Z</time>
      </trkpt>
      <trkpt lat="48.98851" lon="-1.46087">
        <ele>15.2</ele>
        <time>2020-06-12T03:35:49Z</time>
      </trkpt>
      <trkpt lat="48.98854" lon="-1.4609">
        <ele>15.2</ele>
        <time>2020-06-12T03:35:50Z</time>
      </trkpt>
      <trkpt lat="48.98858" lon="-1.46092">
        <ele>15.3</ele>
        <time>2020-06-12T03:35:51Z</time>
      </trkpt>
      <trkpt lat="48.98862" lon="-1.46094">
        <ele>15.3</ele>
        <time>2020-06-12T03:35:52Z</time>
      </trkpt>
      <trkpt lat="48.98865" lon="-1.46097">
        <ele>15.3</ele>
        <time>2020-06-12T03:35:53Z</time>
      </trkpt>
      <trkpt lat="48.98869" lon="-1.46099">
        <ele>15.3</ele>
        <time>2020-06-12T03:35:54Z</time>
      </trkpt>
      <trkpt lat="48.98873" lon="-1.46101">
        <ele>15.3</ele>
        <time>2020-06-12T03:35:55Z</time>
      </trkpt>
      <trkpt lat="48.98877" lon="-1.46103">
        <ele>15.3</ele>
        <time>2020-06-12T03:35:56Z</time>
      </trkpt>
      <trkpt lat="48.98881" lon="-1.46105">
        <ele>15.3</ele>
        <time>2020-06-12T03:35:57Z</time>
      </trkpt>
      <trkpt lat="48.98886" lon="-1.46107">
        <ele>15.3</ele>
        <time>2020-06-12T03:35:58Z</time>
      </trkpt>
      <trkpt lat="48.98891" lon="-1.4611">
        <ele>15.3</ele>
        <time>2020-06-12T03:35:59Z</time>
      </trkpt>
      <trkpt lat="48.98895" lon="-1.46114">
        <ele>15.3</ele>
        <time>2020-06-12T03:36:00Z</time>
      </trkpt>
      <trkpt lat="48.98897" lon="-1.46115">
        <ele>15.3</ele>
        <time>2020-06-12T03:36:01Z</time>
      </trkpt>
      <trkpt lat="48.98901" lon="-1.46117">
        <ele>15.3</ele>
        <time>2020-06-12T03:36:02Z</time>
      </trkpt>
      <trkpt lat="48.98905" lon="-1.4612">
        <ele>15.2</ele>
        <time>2020-06-12T03:36:03Z</time>
      </trkpt>
      <trkpt lat="48.9891" lon="-1.46122">
        <ele>15.2</ele>
        <time>2020-06-12T03:36:04Z</time>
      </trkpt>
      <trkpt lat="48.98914" lon="-1.46124">
        <ele>15.1</ele>
        <time>2020-06-12T03:36:05Z</time>
      </trkpt>
      <trkpt lat="48.98919" lon="-1.46126">
        <ele>15</ele>
        <time>2020-06-12T03:36:06Z</time>
      </trkpt>
      <trkpt lat="48.98923" lon="-1.46129">
        <ele>14.9</ele>
        <time>2020-06-12T03:36:07Z</time>
      </trkpt>
      <trkpt lat="48.98926" lon="-1.46131">
        <ele>14.9</ele>
        <time>2020-06-12T03:36:08Z</time>
      </trkpt>
      <trkpt lat="48.9893" lon="-1.46135">
        <ele>14.8</ele>
        <time>2020-06-12T03:36:09Z</time>
      </trkpt>
      <trkpt lat="48.98935" lon="-1.46139">
        <ele>14.7</ele>
        <time>2020-06-12T03:36:10Z</time>
      </trkpt>
      <trkpt lat="48.98941" lon="-1.46141">
        <ele>14.6</ele>
        <time>2020-06-12T03:36:11Z</time>
      </trkpt>
      <trkpt lat="48.98947" lon="-1.46143">
        <ele>14.5</ele>
        <time>2020-06-12T03:36:12Z</time>
      </trkpt>
      <trkpt lat="48.98953" lon="-1.46144">
        <ele>14.5</ele>
        <time>2020-06-12T03:36:13Z</time>
      </trkpt>
      <trkpt lat="48.98959" lon="-1.46145">
        <ele>14.4</ele>
        <time>2020-06-12T03:36:14Z</time>
      </trkpt>
      <trkpt lat="48.98964" lon="-1.46147">
        <ele>14.4</ele>
        <time>2020-06-12T03:36:15Z</time>
      </trkpt>
      <trkpt lat="48.98969" lon="-1.46148">
        <ele>14.4</ele>
        <time>2020-06-12T03:36:16Z</time>
      </trkpt>
      <trkpt lat="48.98974" lon="-1.46148">
        <ele>14.4</ele>
        <time>2020-06-12T03:36:17Z</time>
      </trkpt>
      <trkpt lat="48.98978" lon="-1.4615">
        <ele>14.4</ele>
        <time>2020-06-12T03:36:18Z</time>
      </trkpt>
      <trkpt lat="48.98983" lon="-1.46152">
        <ele>14.3</ele>
        <time>2020-06-12T03:36:19Z</time>
      </trkpt>
      <trkpt lat="48.98989" lon="-1.46155">
        <ele>14.3</ele>
        <time>2020-06-12T03:36:20Z</time>
      </trkpt>
      <trkpt lat="48.98995" lon="-1.46156">
        <ele>14.2</ele>
        <time>2020-06-12T03:36:21Z</time>
      </trkpt>
      <trkpt lat="48.99" lon="-1.46158">
        <ele>14.2</ele>
        <time>2020-06-12T03:36:22Z</time>
      </trkpt>
      <trkpt lat="48.99006" lon="-1.46158">
        <ele>14.2</ele>
        <time>2020-06-12T03:36:23Z</time>
      </trkpt>
      <trkpt lat="48.99012" lon="-1.4616">
        <ele>14.1</ele>
        <time>2020-06-12T03:36:24Z</time>
      </trkpt>
      <trkpt lat="48.99018" lon="-1.4616">
        <ele>14.1</ele>
        <time>2020-06-12T03:36:25Z</time>
      </trkpt>
      <trkpt lat="48.99024" lon="-1.46162">
        <ele>14.1</ele>
        <time>2020-06-12T03:36:26Z</time>
      </trkpt>
      <trkpt lat="48.9903" lon="-1.46162">
        <ele>14.1</ele>
        <time>2020-06-12T03:36:27Z</time>
      </trkpt>
      <trkpt lat="48.99035" lon="-1.46163">
        <ele>14.1</ele>
        <time>2020-06-12T03:36:28Z</time>
      </trkpt>
      <trkpt lat="48.9904" lon="-1.46164">
        <ele>14.1</ele>
        <time>2020-06-12T03:36:29Z</time>
      </trkpt>
      <trkpt lat="48.99045" lon="-1.46166">
        <ele>14.1</ele>
        <time>2020-06-12T03:36:30Z</time>
      </trkpt>
      <trkpt lat="48.99051" lon="-1.46165">
        <ele>14.1</ele>
        <time>2020-06-12T03:36:31Z</time>
      </trkpt>
      <trkpt lat="48.99056" lon="-1.46168">
        <ele>14</ele>
        <time>2020-06-12T03:36:32Z</time>
      </trkpt>
      <trkpt lat="48.99061" lon="-1.46166">
        <ele>14</ele>
        <time>2020-06-12T03:36:33Z</time>
      </trkpt>
      <trkpt lat="48.99066" lon="-1.46164">
        <ele>13.9</ele>
        <time>2020-06-12T03:36:34Z</time>
      </trkpt>
      <trkpt lat="48.99071" lon="-1.46165">
        <ele>13.8</ele>
        <time>2020-06-12T03:36:35Z</time>
      </trkpt>
      <trkpt lat="48.99075" lon="-1.46163">
        <ele>13.8</ele>
        <time>2020-06-12T03:36:36Z</time>
      </trkpt>
      <trkpt lat="48.99079" lon="-1.46163">
        <ele>13.8</ele>
        <time>2020-06-12T03:36:37Z</time>
      </trkpt>
      <trkpt lat="48.99083" lon="-1.46161">
        <ele>13.9</ele>
        <time>2020-06-12T03:36:38Z</time>
      </trkpt>
      <trkpt lat="48.99088" lon="-1.46158">
        <ele>13.9</ele>
        <time>2020-06-12T03:36:39Z</time>
      </trkpt>
      <trkpt lat="48.99092" lon="-1.46157">
        <ele>13.9</ele>
        <time>2020-06-12T03:36:40Z</time>
      </trkpt>
      <trkpt lat="48.99096" lon="-1.46155">
        <ele>14</ele>
        <time>2020-06-12T03:36:41Z</time>
      </trkpt>
      <trkpt lat="48.99101" lon="-1.46152">
        <ele>14.1</ele>
        <time>2020-06-12T03:36:42Z</time>
      </trkpt>
      <trkpt lat="48.99105" lon="-1.4615">
        <ele>14.1</ele>
        <time>2020-06-12T03:36:43Z</time>
      </trkpt>
      <trkpt lat="48.9911" lon="-1.46147">
        <ele>14.3</ele>
        <time>2020-06-12T03:36:44Z</time>
      </trkpt>
      <trkpt lat="48.99115" lon="-1.46144">
        <ele>14.4</ele>
        <time>2020-06-12T03:36:45Z</time>
      </trkpt>
      <trkpt lat="48.99119" lon="-1.46141">
        <ele>14.6</ele>
        <time>2020-06-12T03:36:46Z</time>
      </trkpt>
      <trkpt lat="48.99124" lon="-1.46139">
        <ele>14.7</ele>
        <time>2020-06-12T03:36:47Z</time>
      </trkpt>
      <trkpt lat="48.99128" lon="-1.46137">
        <ele>14.9</ele>
        <time>2020-06-12T03:36:48Z</time>
      </trkpt>
      <trkpt lat="48.99132" lon="-1.46134">
        <ele>15</ele>
        <time>2020-06-12T03:36:49Z</time>
      </trkpt>
      <trkpt lat="48.99136" lon="-1.46133">
        <ele>15.2</ele>
        <time>2020-06-12T03:36:50Z</time>
      </trkpt>
      <trkpt lat="48.99141" lon="-1.4613">
        <ele>15.3</ele>
        <time>2020-06-12T03:36:51Z</time>
      </trkpt>
      <trkpt lat="48.99145" lon="-1.46128">
        <ele>15.5</ele>
        <time>2020-06-12T03:36:52Z</time>
      </trkpt>
      <trkpt lat="48.99149" lon="-1.46126">
        <ele>15.6</ele>
        <time>2020-06-12T03:36:53Z</time>
      </trkpt>
      <trkpt lat="48.99152" lon="-1.46124">
        <ele>15.8</ele>
        <time>2020-06-12T03:36:54Z</time>
      </trkpt>
      <trkpt lat="48.99157" lon="-1.46122">
        <ele>16</ele>
        <time>2020-06-12T03:36:55Z</time>
      </trkpt>
      <trkpt lat="48.9916" lon="-1.4612">
        <ele>16.1</ele>
        <time>2020-06-12T03:36:56Z</time>
      </trkpt>
      <trkpt lat="48.99163" lon="-1.46118">
        <ele>16.2</ele>
        <time>2020-06-12T03:36:57Z</time>
      </trkpt>
      <trkpt lat="48.99166" lon="-1.46117">
        <ele>16.4</ele>
        <time>2020-06-12T03:36:58Z</time>
      </trkpt>
      <trkpt lat="48.9917" lon="-1.46115">
        <ele>16.5</ele>
        <time>2020-06-12T03:36:59Z</time>
      </trkpt>
      <trkpt lat="48.99174" lon="-1.46113">
        <ele>16.6</ele>
        <time>2020-06-12T03:37:00Z</time>
      </trkpt>
      <trkpt lat="48.99178" lon="-1.46111">
        <ele>16.8</ele>
        <time>2020-06-12T03:37:01Z</time>
      </trkpt>
      <trkpt lat="48.99181" lon="-1.4611">
        <ele>16.9</ele>
        <time>2020-06-12T03:37:02Z</time>
      </trkpt>
      <trkpt lat="48.99184" lon="-1.46109">
        <ele>16.9</ele>
        <time>2020-06-12T03:37:03Z</time>
      </trkpt>
      <trkpt lat="48.99188" lon="-1.46107">
        <ele>17</ele>
        <time>2020-06-12T03:37:04Z</time>
      </trkpt>
      <trkpt lat="48.99192" lon="-1.46107">
        <ele>17.1</ele>
        <time>2020-06-12T03:37:05Z</time>
      </trkpt>
      <trkpt lat="48.99197" lon="-1.46106">
        <ele>17.2</ele>
        <time>2020-06-12T03:37:06Z</time>
      </trkpt>
      <trkpt lat="48.99201" lon="-1.46104">
        <ele>17.3</ele>
        <time>2020-06-12T03:37:07Z</time>
      </trkpt>
      <trkpt lat="48.99205" lon="-1.46102">
        <ele>17.4</ele>
        <time>2020-06-12T03:37:08Z</time>
      </trkpt>
      <trkpt lat="48.99209" lon="-1.46099">
        <ele>17.5</ele>
        <time>2020-06-12T03:37:09Z</time>
      </trkpt>
      <trkpt lat="48.99215" lon="-1.46096">
        <ele>17.6</ele>
        <time>2020-06-12T03:37:10Z</time>
      </trkpt>
      <trkpt lat="48.99218" lon="-1.46094">
        <ele>17.6</ele>
        <time>2020-06-12T03:37:11Z</time>
      </trkpt>
      <trkpt lat="48.99223" lon="-1.46088">
        <ele>17.6</ele>
        <time>2020-06-12T03:37:12Z</time>
      </trkpt>
      <trkpt lat="48.99228" lon="-1.46087">
        <ele>17.8</ele>
        <time>2020-06-12T03:37:13Z</time>
      </trkpt>
      <trkpt lat="48.99232" lon="-1.46085">
        <ele>18</ele>
        <time>2020-06-12T03:37:14Z</time>
      </trkpt>
      <trkpt lat="48.99235" lon="-1.46083">
        <ele>18.1</ele>
        <time>2020-06-12T03:37:15Z</time>
      </trkpt>
      <trkpt lat="48.99239" lon="-1.46082">
        <ele>18.2</ele>
        <time>2020-06-12T03:37:16Z</time>
      </trkpt>
      <trkpt lat="48.99243" lon="-1.4608">
        <ele>18.3</ele>
        <time>2020-06-12T03:37:17Z</time>
      </trkpt>
      <trkpt lat="48.99247" lon="-1.46078">
        <ele>18.3</ele>
        <time>2020-06-12T03:37:18Z</time>
      </trkpt>
      <trkpt lat="48.9925" lon="-1.46076">
        <ele>18.4</ele>
        <time>2020-06-12T03:37:19Z</time>
      </trkpt>
      <trkpt lat="48.99254" lon="-1.46073">
        <ele>18.5</ele>
        <time>2020-06-12T03:37:20Z</time>
      </trkpt>
      <trkpt lat="48.99257" lon="-1.46071">
        <ele>18.6</ele>
        <time>2020-06-12T03:37:21Z</time>
      </trkpt>
      <trkpt lat="48.99261" lon="-1.46069">
        <ele>18.7</ele>
        <time>2020-06-12T03:37:22Z</time>
      </trkpt>
      <trkpt lat="48.99264" lon="-1.46067">
        <ele>18.8</ele>
        <time>2020-06-12T03:37:23Z</time>
      </trkpt>
      <trkpt lat="48.99268" lon="-1.46065">
        <ele>18.9</ele>
        <time>2020-06-12T03:37:24Z</time>
      </trkpt>
      <trkpt lat="48.99272" lon="-1.46063">
        <ele>19</ele>
        <time>2020-06-12T03:37:25Z</time>
      </trkpt>
      <trkpt lat="48.99276" lon="-1.46061">
        <ele>19.1</ele>
        <time>2020-06-12T03:37:26Z</time>
      </trkpt>
      <trkpt lat="48.9928" lon="-1.46059">
        <ele>19.2</ele>
        <time>2020-06-12T03:37:27Z</time>
      </trkpt>
      <trkpt lat="48.99284" lon="-1.46058">
        <ele>19.2</ele>
        <time>2020-06-12T03:37:28Z</time>
      </trkpt>
      <trkpt lat="48.99289" lon="-1.46057">
        <ele>19.3</ele>
        <time>2020-06-12T03:37:29Z</time>
      </trkpt>
      <trkpt lat="48.99292" lon="-1.46057">
        <ele>19.4</ele>
        <time>2020-06-12T03:37:30Z</time>
      </trkpt>
      <trkpt lat="48.99295" lon="-1.46056">
        <ele>19.4</ele>
        <time>2020-06-12T03:37:31Z</time>
      </trkpt>
      <trkpt lat="48.99299" lon="-1.46056">
        <ele>19.5</ele>
        <time>2020-06-12T03:37:32Z</time>
      </trkpt>
      <trkpt lat="48.99303" lon="-1.46055">
        <ele>19.6</ele>
        <time>2020-06-12T03:37:33Z</time>
      </trkpt>
      <trkpt lat="48.99307" lon="-1.46054">
        <ele>19.6</ele>
        <time>2020-06-12T03:37:34Z</time>
      </trkpt>
      <trkpt lat="48.99311" lon="-1.46054">
        <ele>19.6</ele>
        <time>2020-06-12T03:37:35Z</time>
      </trkpt>
      <trkpt lat="48.99315" lon="-1.46054">
        <ele>19.6</ele>
        <time>2020-06-12T03:37:36Z</time>
      </trkpt>
      <trkpt lat="48.99319" lon="-1.46053">
        <ele>19.6</ele>
        <time>2020-06-12T03:37:37Z</time>
      </trkpt>
      <trkpt lat="48.99323" lon="-1.46053">
        <ele>19.6</ele>
        <time>2020-06-12T03:37:38Z</time>
      </trkpt>
      <trkpt lat="48.99328" lon="-1.46053">
        <ele>19.6</ele>
        <time>2020-06-12T03:37:39Z</time>
      </trkpt>
      <trkpt lat="48.99333" lon="-1.46054">
        <ele>19.5</ele>
        <time>2020-06-12T03:37:40Z</time>
      </trkpt>
      <trkpt lat="48.99337" lon="-1.46054">
        <ele>19.4</ele>
        <time>2020-06-12T03:37:41Z</time>
      </trkpt>
      <trkpt lat="48.99342" lon="-1.46053">
        <ele>19.4</ele>
        <time>2020-06-12T03:37:42Z</time>
      </trkpt>
      <trkpt lat="48.99347" lon="-1.46053">
        <ele>19.3</ele>
        <time>2020-06-12T03:37:43Z</time>
      </trkpt>
      <trkpt lat="48.99353" lon="-1.46054">
        <ele>19.2</ele>
        <time>2020-06-12T03:37:44Z</time>
      </trkpt>
      <trkpt lat="48.99358" lon="-1.46055">
        <ele>19.1</ele>
        <time>2020-06-12T03:37:45Z</time>
      </trkpt>
      <trkpt lat="48.99364" lon="-1.46055">
        <ele>19.1</ele>
        <time>2020-06-12T03:37:46Z</time>
      </trkpt>
      <trkpt lat="48.99368" lon="-1.46054">
        <ele>19</ele>
        <time>2020-06-12T03:37:47Z</time>
      </trkpt>
      <trkpt lat="48.99373" lon="-1.46054">
        <ele>19</ele>
        <time>2020-06-12T03:37:48Z</time>
      </trkpt>
      <trkpt lat="48.99376" lon="-1.46055">
        <ele>18.9</ele>
        <time>2020-06-12T03:37:49Z</time>
      </trkpt>
      <trkpt lat="48.99382" lon="-1.46053">
        <ele>18.9</ele>
        <time>2020-06-12T03:37:50Z</time>
      </trkpt>
      <trkpt lat="48.99387" lon="-1.46051">
        <ele>18.8</ele>
        <time>2020-06-12T03:37:51Z</time>
      </trkpt>
      <trkpt lat="48.99391" lon="-1.4605">
        <ele>18.8</ele>
        <time>2020-06-12T03:37:52Z</time>
      </trkpt>
      <trkpt lat="48.99396" lon="-1.4605">
        <ele>18.7</ele>
        <time>2020-06-12T03:37:53Z</time>
      </trkpt>
      <trkpt lat="48.99401" lon="-1.46049">
        <ele>18.7</ele>
        <time>2020-06-12T03:37:54Z</time>
      </trkpt>
      <trkpt lat="48.99406" lon="-1.46048">
        <ele>18.6</ele>
        <time>2020-06-12T03:37:55Z</time>
      </trkpt>
      <trkpt lat="48.9941" lon="-1.46047">
        <ele>18.5</ele>
        <time>2020-06-12T03:37:56Z</time>
      </trkpt>
      <trkpt lat="48.99415" lon="-1.46046">
        <ele>18.5</ele>
        <time>2020-06-12T03:37:57Z</time>
      </trkpt>
      <trkpt lat="48.9942" lon="-1.46046">
        <ele>18.4</ele>
        <time>2020-06-12T03:37:58Z</time>
      </trkpt>
      <trkpt lat="48.99425" lon="-1.46046">
        <ele>18.3</ele>
        <time>2020-06-12T03:37:59Z</time>
      </trkpt>
      <trkpt lat="48.9943" lon="-1.46047">
        <ele>18.2</ele>
        <time>2020-06-12T03:38:00Z</time>
      </trkpt>
      <trkpt lat="48.99436" lon="-1.46046">
        <ele>18.1</ele>
        <time>2020-06-12T03:38:01Z</time>
      </trkpt>
      <trkpt lat="48.99441" lon="-1.46047">
        <ele>17.9</ele>
        <time>2020-06-12T03:38:02Z</time>
      </trkpt>
      <trkpt lat="48.99446" lon="-1.46047">
        <ele>17.7</ele>
        <time>2020-06-12T03:38:03Z</time>
      </trkpt>
      <trkpt lat="48.99451" lon="-1.46046">
        <ele>17.4</ele>
        <time>2020-06-12T03:38:04Z</time>
      </trkpt>
      <trkpt lat="48.99456" lon="-1.46046">
        <ele>17.2</ele>
        <time>2020-06-12T03:38:05Z</time>
      </trkpt>
      <trkpt lat="48.9946" lon="-1.46046">
        <ele>16.9</ele>
        <time>2020-06-12T03:38:06Z</time>
      </trkpt>
      <trkpt lat="48.99466" lon="-1.46047">
        <ele>16.5</ele>
        <time>2020-06-12T03:38:07Z</time>
      </trkpt>
      <trkpt lat="48.9947" lon="-1.46049">
        <ele>16.2</ele>
        <time>2020-06-12T03:38:08Z</time>
      </trkpt>
      <trkpt lat="48.99474" lon="-1.46051">
        <ele>15.9</ele>
        <time>2020-06-12T03:38:09Z</time>
      </trkpt>
      <trkpt lat="48.99479" lon="-1.46054">
        <ele>15.4</ele>
        <time>2020-06-12T03:38:10Z</time>
      </trkpt>
      <trkpt lat="48.99483" lon="-1.46058">
        <ele>15</ele>
        <time>2020-06-12T03:38:11Z</time>
      </trkpt>
      <trkpt lat="48.99488" lon="-1.46062">
        <ele>14.5</ele>
        <time>2020-06-12T03:38:12Z</time>
      </trkpt>
      <trkpt lat="48.99492" lon="-1.46067">
        <ele>14.1</ele>
        <time>2020-06-12T03:38:13Z</time>
      </trkpt>
      <trkpt lat="48.99496" lon="-1.4607">
        <ele>13.7</ele>
        <time>2020-06-12T03:38:14Z</time>
      </trkpt>
      <trkpt lat="48.995" lon="-1.46072">
        <ele>13.3</ele>
        <time>2020-06-12T03:38:15Z</time>
      </trkpt>
      <trkpt lat="48.99503" lon="-1.46075">
        <ele>13.1</ele>
        <time>2020-06-12T03:38:16Z</time>
      </trkpt>
      <trkpt lat="48.99507" lon="-1.46077">
        <ele>12.7</ele>
        <time>2020-06-12T03:38:17Z</time>
      </trkpt>
      <trkpt lat="48.9951" lon="-1.46078">
        <ele>12.4</ele>
        <time>2020-06-12T03:38:18Z</time>
      </trkpt>
      <trkpt lat="48.99514" lon="-1.46081">
        <ele>12</ele>
        <time>2020-06-12T03:38:19Z</time>
      </trkpt>
      <trkpt lat="48.99518" lon="-1.46083">
        <ele>11.5</ele>
        <time>2020-06-12T03:38:20Z</time>
      </trkpt>
      <trkpt lat="48.99523" lon="-1.46084">
        <ele>11</ele>
        <time>2020-06-12T03:38:21Z</time>
      </trkpt>
      <trkpt lat="48.99527" lon="-1.46087">
        <ele>10.6</ele>
        <time>2020-06-12T03:38:22Z</time>
      </trkpt>
      <trkpt lat="48.99531" lon="-1.4609">
        <ele>10.4</ele>
        <time>2020-06-12T03:38:23Z</time>
      </trkpt>
      <trkpt lat="48.99534" lon="-1.46092">
        <ele>10.2</ele>
        <time>2020-06-12T03:38:24Z</time>
      </trkpt>
      <trkpt lat="48.99537" lon="-1.46095">
        <ele>9.9</ele>
        <time>2020-06-12T03:38:25Z</time>
      </trkpt>
      <trkpt lat="48.9954" lon="-1.46098">
        <ele>9.8</ele>
        <time>2020-06-12T03:38:26Z</time>
      </trkpt>
      <trkpt lat="48.99542" lon="-1.461">
        <ele>9.6</ele>
        <time>2020-06-12T03:38:27Z</time>
      </trkpt>
      <trkpt lat="48.99545" lon="-1.46101">
        <ele>9.5</ele>
        <time>2020-06-12T03:38:28Z</time>
      </trkpt>
      <trkpt lat="48.99546" lon="-1.46101">
        <ele>9.4</ele>
        <time>2020-06-12T03:38:29Z</time>
      </trkpt>
      <trkpt lat="48.99549" lon="-1.46107">
        <ele>9.2</ele>
        <time>2020-06-12T03:38:30Z</time>
      </trkpt>
      <trkpt lat="48.9955" lon="-1.4611">
        <ele>9.1</ele>
        <time>2020-06-12T03:38:31Z</time>
      </trkpt>
      <trkpt lat="48.9955" lon="-1.46115">
        <ele>8.9</ele>
        <time>2020-06-12T03:38:32Z</time>
      </trkpt>
      <trkpt lat="48.99551" lon="-1.46119">
        <ele>8.8</ele>
        <time>2020-06-12T03:38:33Z</time>
      </trkpt>
      <trkpt lat="48.99549" lon="-1.46123">
        <ele>8.7</ele>
        <time>2020-06-12T03:38:34Z</time>
      </trkpt>
      <trkpt lat="48.99547" lon="-1.46128">
        <ele>8.5</ele>
        <time>2020-06-12T03:38:35Z</time>
      </trkpt>
      <trkpt lat="48.99547" lon="-1.4613">
        <ele>8.5</ele>
        <time>2020-06-12T03:38:36Z</time>
      </trkpt>
      <trkpt lat="48.99544" lon="-1.46135">
        <ele>8.5</ele>
        <time>2020-06-12T03:38:37Z</time>
      </trkpt>
      <trkpt lat="48.99544" lon="-1.46137">
        <ele>8.5</ele>
        <time>2020-06-12T03:38:38Z</time>
      </trkpt>
      <trkpt lat="48.99542" lon="-1.46143">
        <ele>8.4</ele>
        <time>2020-06-12T03:38:39Z</time>
      </trkpt>
      <trkpt lat="48.99541" lon="-1.46149">
        <ele>8.4</ele>
        <time>2020-06-12T03:38:40Z</time>
      </trkpt>
      <trkpt lat="48.99539" lon="-1.46156">
        <ele>8.4</ele>
        <time>2020-06-12T03:38:41Z</time>
      </trkpt>
      <trkpt lat="48.99538" lon="-1.46163">
        <ele>8.4</ele>
        <time>2020-06-12T03:38:42Z</time>
      </trkpt>
      <trkpt lat="48.99537" lon="-1.4617">
        <ele>8.4</ele>
        <time>2020-06-12T03:38:43Z</time>
      </trkpt>
      <trkpt lat="48.99536" lon="-1.46179">
        <ele>8.4</ele>
        <time>2020-06-12T03:38:44Z</time>
      </trkpt>
      <trkpt lat="48.99535" lon="-1.46188">
        <ele>8.5</ele>
        <time>2020-06-12T03:38:45Z</time>
      </trkpt>
      <trkpt lat="48.99533" lon="-1.46195">
        <ele>8.5</ele>
        <time>2020-06-12T03:38:46Z</time>
      </trkpt>
      <trkpt lat="48.99532" lon="-1.46203">
        <ele>8.6</ele>
        <time>2020-06-12T03:38:47Z</time>
      </trkpt>
      <trkpt lat="48.99531" lon="-1.4621">
        <ele>8.7</ele>
        <time>2020-06-12T03:38:48Z</time>
      </trkpt>
      <trkpt lat="48.99529" lon="-1.46217">
        <ele>8.8</ele>
        <time>2020-06-12T03:38:49Z</time>
      </trkpt>
      <trkpt lat="48.99527" lon="-1.46224">
        <ele>8.8</ele>
        <time>2020-06-12T03:38:50Z</time>
      </trkpt>
      <trkpt lat="48.99526" lon="-1.46231">
        <ele>8.9</ele>
        <time>2020-06-12T03:38:51Z</time>
      </trkpt>
      <trkpt lat="48.99524" lon="-1.46238">
        <ele>9</ele>
        <time>2020-06-12T03:38:52Z</time>
      </trkpt>
      <trkpt lat="48.99522" lon="-1.46246">
        <ele>9.1</ele>
        <time>2020-06-12T03:38:53Z</time>
      </trkpt>
      <trkpt lat="48.9952" lon="-1.46253">
        <ele>9.2</ele>
        <time>2020-06-12T03:38:54Z</time>
      </trkpt>
      <trkpt lat="48.99518" lon="-1.46261">
        <ele>9.2</ele>
        <time>2020-06-12T03:38:55Z</time>
      </trkpt>
      <trkpt lat="48.99516" lon="-1.46267">
        <ele>9.3</ele>
        <time>2020-06-12T03:38:56Z</time>
      </trkpt>
      <trkpt lat="48.99513" lon="-1.46273">
        <ele>9.4</ele>
        <time>2020-06-12T03:38:57Z</time>
      </trkpt>
      <trkpt lat="48.9951" lon="-1.46277">
        <ele>9.5</ele>
        <time>2020-06-12T03:38:58Z</time>
      </trkpt>
      <trkpt lat="48.99506" lon="-1.46281">
        <ele>9.6</ele>
        <time>2020-06-12T03:38:59Z</time>
      </trkpt>
      <trkpt lat="48.99503" lon="-1.46286">
        <ele>9.6</ele>
        <time>2020-06-12T03:39:00Z</time>
      </trkpt>
      <trkpt lat="48.99501" lon="-1.46291">
        <ele>9.7</ele>
        <time>2020-06-12T03:39:01Z</time>
      </trkpt>
      <trkpt lat="48.99498" lon="-1.46296">
        <ele>9.7</ele>
        <time>2020-06-12T03:39:02Z</time>
      </trkpt>
      <trkpt lat="48.99496" lon="-1.46302">
        <ele>9.8</ele>
        <time>2020-06-12T03:39:03Z</time>
      </trkpt>
      <trkpt lat="48.99493" lon="-1.46307">
        <ele>9.9</ele>
        <time>2020-06-12T03:39:04Z</time>
      </trkpt>
      <trkpt lat="48.99489" lon="-1.46312">
        <ele>9.9</ele>
        <time>2020-06-12T03:39:05Z</time>
      </trkpt>
      <trkpt lat="48.99486" lon="-1.46318">
        <ele>10</ele>
        <time>2020-06-12T03:39:06Z</time>
      </trkpt>
      <trkpt lat="48.99483" lon="-1.46323">
        <ele>10.1</ele>
        <time>2020-06-12T03:39:07Z</time>
      </trkpt>
      <trkpt lat="48.99479" lon="-1.46327">
        <ele>10.1</ele>
        <time>2020-06-12T03:39:08Z</time>
      </trkpt>
      <trkpt lat="48.99476" lon="-1.46331">
        <ele>10.2</ele>
        <time>2020-06-12T03:39:09Z</time>
      </trkpt>
      <trkpt lat="48.99473" lon="-1.46335">
        <ele>10.2</ele>
        <time>2020-06-12T03:39:10Z</time>
      </trkpt>
      <trkpt lat="48.9947" lon="-1.4634">
        <ele>10.4</ele>
        <time>2020-06-12T03:39:11Z</time>
      </trkpt>
      <trkpt lat="48.99468" lon="-1.46344">
        <ele>10.4</ele>
        <time>2020-06-12T03:39:12Z</time>
      </trkpt>
      <trkpt lat="48.99466" lon="-1.46348">
        <ele>10.4</ele>
        <time>2020-06-12T03:39:13Z</time>
      </trkpt>
      <trkpt lat="48.99462" lon="-1.46353">
        <ele>10.4</ele>
        <time>2020-06-12T03:39:14Z</time>
      </trkpt>
      <trkpt lat="48.99461" lon="-1.46359">
        <ele>10.4</ele>
        <time>2020-06-12T03:39:15Z</time>
      </trkpt>
      <trkpt lat="48.99462" lon="-1.46362">
        <ele>10.5</ele>
        <time>2020-06-12T03:39:16Z</time>
      </trkpt>
      <trkpt lat="48.99463" lon="-1.46368">
        <ele>10.3</ele>
        <time>2020-06-12T03:39:17Z</time>
      </trkpt>
      <trkpt lat="48.99465" lon="-1.46375">
        <ele>10.2</ele>
        <time>2020-06-12T03:39:18Z</time>
      </trkpt>
      <trkpt lat="48.99466" lon="-1.46383">
        <ele>10.1</ele>
        <time>2020-06-12T03:39:19Z</time>
      </trkpt>
      <trkpt lat="48.99468" lon="-1.46389">
        <ele>10</ele>
        <time>2020-06-12T03:39:20Z</time>
      </trkpt>
      <trkpt lat="48.9947" lon="-1.46395">
        <ele>9.9</ele>
        <time>2020-06-12T03:39:21Z</time>
      </trkpt>
      <trkpt lat="48.99475" lon="-1.46401">
        <ele>9.9</ele>
        <time>2020-06-12T03:39:22Z</time>
      </trkpt>
      <trkpt lat="48.99479" lon="-1.46405">
        <ele>9.9</ele>
        <time>2020-06-12T03:39:23Z</time>
      </trkpt>
      <trkpt lat="48.99483" lon="-1.4641">
        <ele>10</ele>
        <time>2020-06-12T03:39:24Z</time>
      </trkpt>
      <trkpt lat="48.99487" lon="-1.46414">
        <ele>10.1</ele>
        <time>2020-06-12T03:39:25Z</time>
      </trkpt>
      <trkpt lat="48.99491" lon="-1.46419">
        <ele>10.2</ele>
        <time>2020-06-12T03:39:26Z</time>
      </trkpt>
      <trkpt lat="48.99495" lon="-1.46422">
        <ele>10.3</ele>
        <time>2020-06-12T03:39:27Z</time>
      </trkpt>
      <trkpt lat="48.99499" lon="-1.46425">
        <ele>10.2</ele>
        <time>2020-06-12T03:39:28Z</time>
      </trkpt>
      <trkpt lat="48.99503" lon="-1.46428">
        <ele>10.2</ele>
        <time>2020-06-12T03:39:29Z</time>
      </trkpt>
      <trkpt lat="48.99506" lon="-1.46432">
        <ele>10.2</ele>
        <time>2020-06-12T03:39:30Z</time>
      </trkpt>
      <trkpt lat="48.9951" lon="-1.46436">
        <ele>10.1</ele>
        <time>2020-06-12T03:39:31Z</time>
      </trkpt>
      <trkpt lat="48.99512" lon="-1.4644">
        <ele>10.1</ele>
        <time>2020-06-12T03:39:32Z</time>
      </trkpt>
      <trkpt lat="48.99515" lon="-1.46443">
        <ele>10.1</ele>
        <time>2020-06-12T03:39:33Z</time>
      </trkpt>
      <trkpt lat="48.99518" lon="-1.46447">
        <ele>10.2</ele>
        <time>2020-06-12T03:39:34Z</time>
      </trkpt>
      <trkpt lat="48.99521" lon="-1.46451">
        <ele>10.2</ele>
        <time>2020-06-12T03:39:35Z</time>
      </trkpt>
      <trkpt lat="48.99525" lon="-1.46456">
        <ele>10.2</ele>
        <time>2020-06-12T03:39:36Z</time>
      </trkpt>
      <trkpt lat="48.99528" lon="-1.4646">
        <ele>10.3</ele>
        <time>2020-06-12T03:39:37Z</time>
      </trkpt>
      <trkpt lat="48.99531" lon="-1.46464">
        <ele>10.3</ele>
        <time>2020-06-12T03:39:38Z</time>
      </trkpt>
      <trkpt lat="48.99534" lon="-1.46469">
        <ele>10.4</ele>
        <time>2020-06-12T03:39:39Z</time>
      </trkpt>
      <trkpt lat="48.99538" lon="-1.46476">
        <ele>10.6</ele>
        <time>2020-06-12T03:39:40Z</time>
      </trkpt>
      <trkpt lat="48.9954" lon="-1.46482">
        <ele>10.7</ele>
        <time>2020-06-12T03:39:41Z</time>
      </trkpt>
      <trkpt lat="48.99542" lon="-1.46488">
        <ele>10.8</ele>
        <time>2020-06-12T03:39:42Z</time>
      </trkpt>
      <trkpt lat="48.99544" lon="-1.46495">
        <ele>11</ele>
        <time>2020-06-12T03:39:43Z</time>
      </trkpt>
      <trkpt lat="48.99545" lon="-1.46501">
        <ele>11.1</ele>
        <time>2020-06-12T03:39:44Z</time>
      </trkpt>
      <trkpt lat="48.99546" lon="-1.46507">
        <ele>11.2</ele>
        <time>2020-06-12T03:39:45Z</time>
      </trkpt>
      <trkpt lat="48.99546" lon="-1.46513">
        <ele>11.4</ele>
        <time>2020-06-12T03:39:46Z</time>
      </trkpt>
      <trkpt lat="48.99546" lon="-1.46519">
        <ele>11.5</ele>
        <time>2020-06-12T03:39:47Z</time>
      </trkpt>
      <trkpt lat="48.99546" lon="-1.46525">
        <ele>11.7</ele>
        <time>2020-06-12T03:39:48Z</time>
      </trkpt>
      <trkpt lat="48.99547" lon="-1.46531">
        <ele>11.8</ele>
        <time>2020-06-12T03:39:49Z</time>
      </trkpt>
      <trkpt lat="48.99547" lon="-1.46537">
        <ele>12</ele>
        <time>2020-06-12T03:39:50Z</time>
      </trkpt>
      <trkpt lat="48.99547" lon="-1.46543">
        <ele>12.1</ele>
        <time>2020-06-12T03:39:51Z</time>
      </trkpt>
      <trkpt lat="48.99547" lon="-1.46549">
        <ele>12.2</ele>
        <time>2020-06-12T03:39:52Z</time>
      </trkpt>
      <trkpt lat="48.99547" lon="-1.46555">
        <ele>12.4</ele>
        <time>2020-06-12T03:39:53Z</time>
      </trkpt>
      <trkpt lat="48.99547" lon="-1.46559">
        <ele>12.5</ele>
        <time>2020-06-12T03:39:54Z</time>
      </trkpt>
      <trkpt lat="48.99547" lon="-1.46565">
        <ele>12.6</ele>
        <time>2020-06-12T03:39:55Z</time>
      </trkpt>
      <trkpt lat="48.99546" lon="-1.46569">
        <ele>12.7</ele>
        <time>2020-06-12T03:39:56Z</time>
      </trkpt>
      <trkpt lat="48.99546" lon="-1.46574">
        <ele>12.8</ele>
        <time>2020-06-12T03:39:57Z</time>
      </trkpt>
      <trkpt lat="48.99546" lon="-1.46579">
        <ele>12.9</ele>
        <time>2020-06-12T03:39:58Z</time>
      </trkpt>
      <trkpt lat="48.99547" lon="-1.46585">
        <ele>13</ele>
        <time>2020-06-12T03:39:59Z</time>
      </trkpt>
      <trkpt lat="48.99548" lon="-1.46591">
        <ele>13.1</ele>
        <time>2020-06-12T03:40:00Z</time>
      </trkpt>
      <trkpt lat="48.99549" lon="-1.46596">
        <ele>13.2</ele>
        <time>2020-06-12T03:40:01Z</time>
      </trkpt>
      <trkpt lat="48.9955" lon="-1.46601">
        <ele>13.3</ele>
        <time>2020-06-12T03:40:02Z</time>
      </trkpt>
      <trkpt lat="48.9955" lon="-1.46607">
        <ele>13.4</ele>
        <time>2020-06-12T03:40:03Z</time>
      </trkpt>
      <trkpt lat="48.99551" lon="-1.46612">
        <ele>13.5</ele>
        <time>2020-06-12T03:40:04Z</time>
      </trkpt>
      <trkpt lat="48.99553" lon="-1.46617">
        <ele>13.6</ele>
        <time>2020-06-12T03:40:05Z</time>
      </trkpt>
      <trkpt lat="48.99555" lon="-1.46623">
        <ele>13.6</ele>
        <time>2020-06-12T03:40:06Z</time>
      </trkpt>
      <trkpt lat="48.99556" lon="-1.46628">
        <ele>13.7</ele>
        <time>2020-06-12T03:40:07Z</time>
      </trkpt>
      <trkpt lat="48.99558" lon="-1.46633">
        <ele>13.8</ele>
        <time>2020-06-12T03:40:08Z</time>
      </trkpt>
      <trkpt lat="48.9956" lon="-1.46639">
        <ele>13.8</ele>
        <time>2020-06-12T03:40:09Z</time>
      </trkpt>
      <trkpt lat="48.99562" lon="-1.46644">
        <ele>13.9</ele>
        <time>2020-06-12T03:40:10Z</time>
      </trkpt>
      <trkpt lat="48.99563" lon="-1.46649">
        <ele>13.9</ele>
        <time>2020-06-12T03:40:11Z</time>
      </trkpt>
      <trkpt lat="48.99564" lon="-1.46654">
        <ele>14</ele>
        <time>2020-06-12T03:40:12Z</time>
      </trkpt>
      <trkpt lat="48.99565" lon="-1.4666">
        <ele>14</ele>
        <time>2020-06-12T03:40:13Z</time>
      </trkpt>
      <trkpt lat="48.99567" lon="-1.46667">
        <ele>14</ele>
        <time>2020-06-12T03:40:14Z</time>
      </trkpt>
      <trkpt lat="48.99568" lon="-1.46674">
        <ele>14.1</ele>
        <time>2020-06-12T03:40:15Z</time>
      </trkpt>
      <trkpt lat="48.9957" lon="-1.4668">
        <ele>14.1</ele>
        <time>2020-06-12T03:40:16Z</time>
      </trkpt>
      <trkpt lat="48.99573" lon="-1.46686">
        <ele>14.1</ele>
        <time>2020-06-12T03:40:17Z</time>
      </trkpt>
      <trkpt lat="48.99575" lon="-1.46693">
        <ele>14.1</ele>
        <time>2020-06-12T03:40:18Z</time>
      </trkpt>
      <trkpt lat="48.99577" lon="-1.46699">
        <ele>14.1</ele>
        <time>2020-06-12T03:40:19Z</time>
      </trkpt>
      <trkpt lat="48.99579" lon="-1.46704">
        <ele>14.1</ele>
        <time>2020-06-12T03:40:20Z</time>
      </trkpt>
      <trkpt lat="48.99581" lon="-1.46711">
        <ele>14.1</ele>
        <time>2020-06-12T03:40:21Z</time>
      </trkpt>
      <trkpt lat="48.99582" lon="-1.46718">
        <ele>14.1</ele>
        <time>2020-06-12T03:40:22Z</time>
      </trkpt>
      <trkpt lat="48.99584" lon="-1.46725">
        <ele>14.1</ele>
        <time>2020-06-12T03:40:23Z</time>
      </trkpt>
      <trkpt lat="48.99586" lon="-1.46732">
        <ele>14.1</ele>
        <time>2020-06-12T03:40:24Z</time>
      </trkpt>
      <trkpt lat="48.99588" lon="-1.4674">
        <ele>14.1</ele>
        <time>2020-06-12T03:40:25Z</time>
      </trkpt>
      <trkpt lat="48.9959" lon="-1.46749">
        <ele>14.1</ele>
        <time>2020-06-12T03:40:26Z</time>
      </trkpt>
      <trkpt lat="48.99592" lon="-1.46759">
        <ele>14.1</ele>
        <time>2020-06-12T03:40:27Z</time>
      </trkpt>
      <trkpt lat="48.99593" lon="-1.46767">
        <ele>14.1</ele>
        <time>2020-06-12T03:40:28Z</time>
      </trkpt>
      <trkpt lat="48.99595" lon="-1.46774">
        <ele>14.1</ele>
        <time>2020-06-12T03:40:29Z</time>
      </trkpt>
      <trkpt lat="48.99597" lon="-1.46781">
        <ele>14.1</ele>
        <time>2020-06-12T03:40:30Z</time>
      </trkpt>
      <trkpt lat="48.99599" lon="-1.46788">
        <ele>14.1</ele>
        <time>2020-06-12T03:40:31Z</time>
      </trkpt>
      <trkpt lat="48.99602" lon="-1.46796">
        <ele>14.1</ele>
        <time>2020-06-12T03:40:32Z</time>
      </trkpt>
      <trkpt lat="48.99604" lon="-1.46804">
        <ele>14.1</ele>
        <time>2020-06-12T03:40:33Z</time>
      </trkpt>
      <trkpt lat="48.99606" lon="-1.4681">
        <ele>14.1</ele>
        <time>2020-06-12T03:40:34Z</time>
      </trkpt>
      <trkpt lat="48.99608" lon="-1.46816">
        <ele>14.1</ele>
        <time>2020-06-12T03:40:35Z</time>
      </trkpt>
      <trkpt lat="48.9961" lon="-1.46824">
        <ele>14.1</ele>
        <time>2020-06-12T03:40:36Z</time>
      </trkpt>
      <trkpt lat="48.99612" lon="-1.46831">
        <ele>14.1</ele>
        <time>2020-06-12T03:40:37Z</time>
      </trkpt>
      <trkpt lat="48.99614" lon="-1.46839">
        <ele>14.1</ele>
        <time>2020-06-12T03:40:38Z</time>
      </trkpt>
      <trkpt lat="48.99616" lon="-1.46847">
        <ele>14.1</ele>
        <time>2020-06-12T03:40:39Z</time>
      </trkpt>
      <trkpt lat="48.99618" lon="-1.46854">
        <ele>14.1</ele>
        <time>2020-06-12T03:40:40Z</time>
      </trkpt>
      <trkpt lat="48.99621" lon="-1.46861">
        <ele>14.1</ele>
        <time>2020-06-12T03:40:41Z</time>
      </trkpt>
      <trkpt lat="48.99623" lon="-1.46868">
        <ele>14.1</ele>
        <time>2020-06-12T03:40:42Z</time>
      </trkpt>
      <trkpt lat="48.99625" lon="-1.46875">
        <ele>14.1</ele>
        <time>2020-06-12T03:40:43Z</time>
      </trkpt>
      <trkpt lat="48.99627" lon="-1.46883">
        <ele>14.2</ele>
        <time>2020-06-12T03:40:44Z</time>
      </trkpt>
      <trkpt lat="48.9963" lon="-1.46891">
        <ele>14.2</ele>
        <time>2020-06-12T03:40:45Z</time>
      </trkpt>
      <trkpt lat="48.99632" lon="-1.46899">
        <ele>14.2</ele>
        <time>2020-06-12T03:40:46Z</time>
      </trkpt>
      <trkpt lat="48.99633" lon="-1.46907">
        <ele>14.3</ele>
        <time>2020-06-12T03:40:47Z</time>
      </trkpt>
      <trkpt lat="48.99635" lon="-1.46915">
        <ele>14.3</ele>
        <time>2020-06-12T03:40:48Z</time>
      </trkpt>
      <trkpt lat="48.99637" lon="-1.46923">
        <ele>14.3</ele>
        <time>2020-06-12T03:40:49Z</time>
      </trkpt>
      <trkpt lat="48.9964" lon="-1.46931">
        <ele>14.3</ele>
        <time>2020-06-12T03:40:50Z</time>
      </trkpt>
      <trkpt lat="48.99641" lon="-1.46938">
        <ele>14.3</ele>
        <time>2020-06-12T03:40:51Z</time>
      </trkpt>
      <trkpt lat="48.99644" lon="-1.46946">
        <ele>14.4</ele>
        <time>2020-06-12T03:40:52Z</time>
      </trkpt>
      <trkpt lat="48.99646" lon="-1.46953">
        <ele>14.4</ele>
        <time>2020-06-12T03:40:53Z</time>
      </trkpt>
      <trkpt lat="48.99648" lon="-1.4696">
        <ele>14.4</ele>
        <time>2020-06-12T03:40:54Z</time>
      </trkpt>
      <trkpt lat="48.99651" lon="-1.46966">
        <ele>14.4</ele>
        <time>2020-06-12T03:40:55Z</time>
      </trkpt>
      <trkpt lat="48.99653" lon="-1.46972">
        <ele>14.5</ele>
        <time>2020-06-12T03:40:56Z</time>
      </trkpt>
      <trkpt lat="48.99655" lon="-1.46979">
        <ele>14.5</ele>
        <time>2020-06-12T03:40:57Z</time>
      </trkpt>
      <trkpt lat="48.99657" lon="-1.46986">
        <ele>14.5</ele>
        <time>2020-06-12T03:40:58Z</time>
      </trkpt>
      <trkpt lat="48.99659" lon="-1.46992">
        <ele>14.6</ele>
        <time>2020-06-12T03:40:59Z</time>
      </trkpt>
      <trkpt lat="48.99661" lon="-1.47">
        <ele>14.6</ele>
        <time>2020-06-12T03:41:00Z</time>
      </trkpt>
      <trkpt lat="48.99663" lon="-1.47007">
        <ele>14.7</ele>
        <time>2020-06-12T03:41:01Z</time>
      </trkpt>
      <trkpt lat="48.99664" lon="-1.47013">
        <ele>14.7</ele>
        <time>2020-06-12T03:41:02Z</time>
      </trkpt>
      <trkpt lat="48.99666" lon="-1.47019">
        <ele>14.8</ele>
        <time>2020-06-12T03:41:03Z</time>
      </trkpt>
      <trkpt lat="48.99667" lon="-1.47027">
        <ele>14.8</ele>
        <time>2020-06-12T03:41:04Z</time>
      </trkpt>
      <trkpt lat="48.99668" lon="-1.47034">
        <ele>14.9</ele>
        <time>2020-06-12T03:41:05Z</time>
      </trkpt>
      <trkpt lat="48.99669" lon="-1.47041">
        <ele>14.9</ele>
        <time>2020-06-12T03:41:06Z</time>
      </trkpt>
      <trkpt lat="48.99669" lon="-1.47048">
        <ele>15</ele>
        <time>2020-06-12T03:41:07Z</time>
      </trkpt>
      <trkpt lat="48.9967" lon="-1.47056">
        <ele>15</ele>
        <time>2020-06-12T03:41:08Z</time>
      </trkpt>
      <trkpt lat="48.99671" lon="-1.47062">
        <ele>15.1</ele>
        <time>2020-06-12T03:41:09Z</time>
      </trkpt>
      <trkpt lat="48.99672" lon="-1.47069">
        <ele>15.2</ele>
        <time>2020-06-12T03:41:10Z</time>
      </trkpt>
      <trkpt lat="48.99673" lon="-1.47076">
        <ele>15.3</ele>
        <time>2020-06-12T03:41:11Z</time>
      </trkpt>
      <trkpt lat="48.99674" lon="-1.47083">
        <ele>15.3</ele>
        <time>2020-06-12T03:41:12Z</time>
      </trkpt>
      <trkpt lat="48.99674" lon="-1.4709">
        <ele>15.4</ele>
        <time>2020-06-12T03:41:13Z</time>
      </trkpt>
      <trkpt lat="48.99674" lon="-1.47097">
        <ele>15.5</ele>
        <time>2020-06-12T03:41:14Z</time>
      </trkpt>
      <trkpt lat="48.99675" lon="-1.47104">
        <ele>15.6</ele>
        <time>2020-06-12T03:41:15Z</time>
      </trkpt>
      <trkpt lat="48.99675" lon="-1.47112">
        <ele>15.7</ele>
        <time>2020-06-12T03:41:16Z</time>
      </trkpt>
      <trkpt lat="48.99676" lon="-1.47119">
        <ele>15.8</ele>
        <time>2020-06-12T03:41:17Z</time>
      </trkpt>
      <trkpt lat="48.99676" lon="-1.47127">
        <ele>15.9</ele>
        <time>2020-06-12T03:41:18Z</time>
      </trkpt>
      <trkpt lat="48.99676" lon="-1.47134">
        <ele>16</ele>
        <time>2020-06-12T03:41:19Z</time>
      </trkpt>
      <trkpt lat="48.99677" lon="-1.47141">
        <ele>16</ele>
        <time>2020-06-12T03:41:20Z</time>
      </trkpt>
      <trkpt lat="48.99677" lon="-1.47148">
        <ele>16.1</ele>
        <time>2020-06-12T03:41:21Z</time>
      </trkpt>
      <trkpt lat="48.99676" lon="-1.47155">
        <ele>16.2</ele>
        <time>2020-06-12T03:41:22Z</time>
      </trkpt>
      <trkpt lat="48.99676" lon="-1.47161">
        <ele>16.2</ele>
        <time>2020-06-12T03:41:23Z</time>
      </trkpt>
      <trkpt lat="48.99677" lon="-1.47168">
        <ele>16.3</ele>
        <time>2020-06-12T03:41:24Z</time>
      </trkpt>
      <trkpt lat="48.99676" lon="-1.47175">
        <ele>16.4</ele>
        <time>2020-06-12T03:41:25Z</time>
      </trkpt>
      <trkpt lat="48.99675" lon="-1.47181">
        <ele>16.4</ele>
        <time>2020-06-12T03:41:26Z</time>
      </trkpt>
      <trkpt lat="48.99675" lon="-1.47187">
        <ele>16.5</ele>
        <time>2020-06-12T03:41:27Z</time>
      </trkpt>
      <trkpt lat="48.99674" lon="-1.47193">
        <ele>16.5</ele>
        <time>2020-06-12T03:41:28Z</time>
      </trkpt>
      <trkpt lat="48.99675" lon="-1.47199">
        <ele>16.5</ele>
        <time>2020-06-12T03:41:29Z</time>
      </trkpt>
      <trkpt lat="48.99675" lon="-1.47205">
        <ele>16.5</ele>
        <time>2020-06-12T03:41:30Z</time>
      </trkpt>
      <trkpt lat="48.99677" lon="-1.47213">
        <ele>16.4</ele>
        <time>2020-06-12T03:41:31Z</time>
      </trkpt>
      <trkpt lat="48.99679" lon="-1.47219">
        <ele>16.2</ele>
        <time>2020-06-12T03:41:32Z</time>
      </trkpt>
      <trkpt lat="48.99681" lon="-1.47226">
        <ele>16</ele>
        <time>2020-06-12T03:41:33Z</time>
      </trkpt>
      <trkpt lat="48.99684" lon="-1.47233">
        <ele>15.9</ele>
        <time>2020-06-12T03:41:34Z</time>
      </trkpt>
      <trkpt lat="48.99686" lon="-1.4724">
        <ele>15.7</ele>
        <time>2020-06-12T03:41:35Z</time>
      </trkpt>
      <trkpt lat="48.9969" lon="-1.47247">
        <ele>15.6</ele>
        <time>2020-06-12T03:41:36Z</time>
      </trkpt>
      <trkpt lat="48.99693" lon="-1.47254">
        <ele>15.5</ele>
        <time>2020-06-12T03:41:37Z</time>
      </trkpt>
      <trkpt lat="48.99696" lon="-1.47261">
        <ele>15.5</ele>
        <time>2020-06-12T03:41:38Z</time>
      </trkpt>
      <trkpt lat="48.997" lon="-1.47267">
        <ele>15.4</ele>
        <time>2020-06-12T03:41:39Z</time>
      </trkpt>
      <trkpt lat="48.99703" lon="-1.47274">
        <ele>15.3</ele>
        <time>2020-06-12T03:41:40Z</time>
      </trkpt>
      <trkpt lat="48.99707" lon="-1.47281">
        <ele>15.2</ele>
        <time>2020-06-12T03:41:41Z</time>
      </trkpt>
      <trkpt lat="48.9971" lon="-1.47288">
        <ele>15.1</ele>
        <time>2020-06-12T03:41:42Z</time>
      </trkpt>
      <trkpt lat="48.99714" lon="-1.47295">
        <ele>15</ele>
        <time>2020-06-12T03:41:43Z</time>
      </trkpt>
      <trkpt lat="48.99718" lon="-1.47301">
        <ele>14.9</ele>
        <time>2020-06-12T03:41:44Z</time>
      </trkpt>
      <trkpt lat="48.99722" lon="-1.47309">
        <ele>14.8</ele>
        <time>2020-06-12T03:41:45Z</time>
      </trkpt>
      <trkpt lat="48.99726" lon="-1.47315">
        <ele>14.7</ele>
        <time>2020-06-12T03:41:46Z</time>
      </trkpt>
      <trkpt lat="48.99729" lon="-1.47323">
        <ele>14.6</ele>
        <time>2020-06-12T03:41:47Z</time>
      </trkpt>
      <trkpt lat="48.99733" lon="-1.47329">
        <ele>14.5</ele>
        <time>2020-06-12T03:41:48Z</time>
      </trkpt>
      <trkpt lat="48.99736" lon="-1.47336">
        <ele>14.4</ele>
        <time>2020-06-12T03:41:49Z</time>
      </trkpt>
      <trkpt lat="48.9974" lon="-1.47343">
        <ele>14.3</ele>
        <time>2020-06-12T03:41:50Z</time>
      </trkpt>
      <trkpt lat="48.99743" lon="-1.47349">
        <ele>14.1</ele>
        <time>2020-06-12T03:41:51Z</time>
      </trkpt>
      <trkpt lat="48.99747" lon="-1.47355">
        <ele>14</ele>
        <time>2020-06-12T03:41:52Z</time>
      </trkpt>
      <trkpt lat="48.99751" lon="-1.47361">
        <ele>13.9</ele>
        <time>2020-06-12T03:41:53Z</time>
      </trkpt>
      <trkpt lat="48.99755" lon="-1.47367">
        <ele>13.9</ele>
        <time>2020-06-12T03:41:54Z</time>
      </trkpt>
      <trkpt lat="48.99759" lon="-1.47374">
        <ele>13.8</ele>
        <time>2020-06-12T03:41:55Z</time>
      </trkpt>
      <trkpt lat="48.99763" lon="-1.4738">
        <ele>13.7</ele>
        <time>2020-06-12T03:41:56Z</time>
      </trkpt>
      <trkpt lat="48.99766" lon="-1.47387">
        <ele>13.7</ele>
        <time>2020-06-12T03:41:57Z</time>
      </trkpt>
      <trkpt lat="48.9977" lon="-1.47394">
        <ele>13.6</ele>
        <time>2020-06-12T03:41:58Z</time>
      </trkpt>
      <trkpt lat="48.99773" lon="-1.47401">
        <ele>13.6</ele>
        <time>2020-06-12T03:41:59Z</time>
      </trkpt>
      <trkpt lat="48.99777" lon="-1.47408">
        <ele>13.5</ele>
        <time>2020-06-12T03:42:00Z</time>
      </trkpt>
      <trkpt lat="48.9978" lon="-1.47414">
        <ele>13.4</ele>
        <time>2020-06-12T03:42:01Z</time>
      </trkpt>
      <trkpt lat="48.99783" lon="-1.47421">
        <ele>13.3</ele>
        <time>2020-06-12T03:42:02Z</time>
      </trkpt>
      <trkpt lat="48.99787" lon="-1.47428">
        <ele>13.1</ele>
        <time>2020-06-12T03:42:03Z</time>
      </trkpt>
      <trkpt lat="48.9979" lon="-1.47435">
        <ele>13.1</ele>
        <time>2020-06-12T03:42:04Z</time>
      </trkpt>
      <trkpt lat="48.99793" lon="-1.47442">
        <ele>13</ele>
        <time>2020-06-12T03:42:05Z</time>
      </trkpt>
      <trkpt lat="48.99796" lon="-1.4745">
        <ele>12.9</ele>
        <time>2020-06-12T03:42:06Z</time>
      </trkpt>
      <trkpt lat="48.99797" lon="-1.47458">
        <ele>12.9</ele>
        <time>2020-06-12T03:42:07Z</time>
      </trkpt>
      <trkpt lat="48.99799" lon="-1.47466">
        <ele>12.9</ele>
        <time>2020-06-12T03:42:08Z</time>
      </trkpt>
      <trkpt lat="48.99801" lon="-1.47473">
        <ele>12.8</ele>
        <time>2020-06-12T03:42:09Z</time>
      </trkpt>
      <trkpt lat="48.99803" lon="-1.47481">
        <ele>12.8</ele>
        <time>2020-06-12T03:42:10Z</time>
      </trkpt>
      <trkpt lat="48.99805" lon="-1.47488">
        <ele>12.7</ele>
        <time>2020-06-12T03:42:11Z</time>
      </trkpt>
      <trkpt lat="48.99806" lon="-1.47496">
        <ele>12.7</ele>
        <time>2020-06-12T03:42:12Z</time>
      </trkpt>
      <trkpt lat="48.99808" lon="-1.47504">
        <ele>12.7</ele>
        <time>2020-06-12T03:42:13Z</time>
      </trkpt>
      <trkpt lat="48.9981" lon="-1.47511">
        <ele>12.6</ele>
        <time>2020-06-12T03:42:14Z</time>
      </trkpt>
      <trkpt lat="48.99811" lon="-1.47519">
        <ele>12.6</ele>
        <time>2020-06-12T03:42:15Z</time>
      </trkpt>
      <trkpt lat="48.99813" lon="-1.47526">
        <ele>12.6</ele>
        <time>2020-06-12T03:42:16Z</time>
      </trkpt>
      <trkpt lat="48.99815" lon="-1.47533">
        <ele>12.6</ele>
        <time>2020-06-12T03:42:17Z</time>
      </trkpt>
      <trkpt lat="48.99816" lon="-1.4754">
        <ele>12.6</ele>
        <time>2020-06-12T03:42:18Z</time>
      </trkpt>
      <trkpt lat="48.99817" lon="-1.47548">
        <ele>12.5</ele>
        <time>2020-06-12T03:42:19Z</time>
      </trkpt>
      <trkpt lat="48.99818" lon="-1.47556">
        <ele>12.5</ele>
        <time>2020-06-12T03:42:20Z</time>
      </trkpt>
      <trkpt lat="48.99819" lon="-1.47565">
        <ele>12.4</ele>
        <time>2020-06-12T03:42:21Z</time>
      </trkpt>
      <trkpt lat="48.99821" lon="-1.47573">
        <ele>12.3</ele>
        <time>2020-06-12T03:42:22Z</time>
      </trkpt>
      <trkpt lat="48.99823" lon="-1.47581">
        <ele>12.2</ele>
        <time>2020-06-12T03:42:23Z</time>
      </trkpt>
      <trkpt lat="48.99824" lon="-1.47589">
        <ele>12.2</ele>
        <time>2020-06-12T03:42:24Z</time>
      </trkpt>
      <trkpt lat="48.99826" lon="-1.47598">
        <ele>12.1</ele>
        <time>2020-06-12T03:42:25Z</time>
      </trkpt>
      <trkpt lat="48.99827" lon="-1.47606">
        <ele>12</ele>
        <time>2020-06-12T03:42:26Z</time>
      </trkpt>
      <trkpt lat="48.99829" lon="-1.47614">
        <ele>11.9</ele>
        <time>2020-06-12T03:42:27Z</time>
      </trkpt>
      <trkpt lat="48.9983" lon="-1.47623">
        <ele>11.8</ele>
        <time>2020-06-12T03:42:28Z</time>
      </trkpt>
      <trkpt lat="48.99832" lon="-1.4763">
        <ele>11.7</ele>
        <time>2020-06-12T03:42:29Z</time>
      </trkpt>
      <trkpt lat="48.99834" lon="-1.47638">
        <ele>11.6</ele>
        <time>2020-06-12T03:42:30Z</time>
      </trkpt>
      <trkpt lat="48.99836" lon="-1.47645">
        <ele>11.5</ele>
        <time>2020-06-12T03:42:31Z</time>
      </trkpt>
      <trkpt lat="48.99837" lon="-1.47652">
        <ele>11.5</ele>
        <time>2020-06-12T03:42:32Z</time>
      </trkpt>
      <trkpt lat="48.99839" lon="-1.4766">
        <ele>11.4</ele>
        <time>2020-06-12T03:42:33Z</time>
      </trkpt>
      <trkpt lat="48.99841" lon="-1.47668">
        <ele>11.3</ele>
        <time>2020-06-12T03:42:34Z</time>
      </trkpt>
      <trkpt lat="48.99843" lon="-1.47676">
        <ele>11.3</ele>
        <time>2020-06-12T03:42:35Z</time>
      </trkpt>
      <trkpt lat="48.99846" lon="-1.47685">
        <ele>11.3</ele>
        <time>2020-06-12T03:42:36Z</time>
      </trkpt>
      <trkpt lat="48.99848" lon="-1.47694">
        <ele>11.2</ele>
        <time>2020-06-12T03:42:37Z</time>
      </trkpt>
      <trkpt lat="48.9985" lon="-1.47703">
        <ele>11.1</ele>
        <time>2020-06-12T03:42:38Z</time>
      </trkpt>
      <trkpt lat="48.99853" lon="-1.47711">
        <ele>11.2</ele>
        <time>2020-06-12T03:42:39Z</time>
      </trkpt>
      <trkpt lat="48.99855" lon="-1.47719">
        <ele>11.2</ele>
        <time>2020-06-12T03:42:40Z</time>
      </trkpt>
      <trkpt lat="48.99858" lon="-1.47727">
        <ele>11.2</ele>
        <time>2020-06-12T03:42:41Z</time>
      </trkpt>
      <trkpt lat="48.99861" lon="-1.47736">
        <ele>11.1</ele>
        <time>2020-06-12T03:42:42Z</time>
      </trkpt>
      <trkpt lat="48.99863" lon="-1.47743">
        <ele>11.1</ele>
        <time>2020-06-12T03:42:43Z</time>
      </trkpt>
      <trkpt lat="48.99867" lon="-1.4775">
        <ele>11.1</ele>
        <time>2020-06-12T03:42:44Z</time>
      </trkpt>
      <trkpt lat="48.9987" lon="-1.47757">
        <ele>11</ele>
        <time>2020-06-12T03:42:45Z</time>
      </trkpt>
      <trkpt lat="48.99873" lon="-1.47765">
        <ele>11</ele>
        <time>2020-06-12T03:42:46Z</time>
      </trkpt>
      <trkpt lat="48.99876" lon="-1.47773">
        <ele>10.9</ele>
        <time>2020-06-12T03:42:47Z</time>
      </trkpt>
      <trkpt lat="48.9988" lon="-1.47781">
        <ele>10.9</ele>
        <time>2020-06-12T03:42:48Z</time>
      </trkpt>
      <trkpt lat="48.99884" lon="-1.47789">
        <ele>10.7</ele>
        <time>2020-06-12T03:42:49Z</time>
      </trkpt>
      <trkpt lat="48.99888" lon="-1.47797">
        <ele>10.6</ele>
        <time>2020-06-12T03:42:50Z</time>
      </trkpt>
      <trkpt lat="48.99892" lon="-1.47804">
        <ele>10.5</ele>
        <time>2020-06-12T03:42:51Z</time>
      </trkpt>
      <trkpt lat="48.99895" lon="-1.47811">
        <ele>10.5</ele>
        <time>2020-06-12T03:42:52Z</time>
      </trkpt>
      <trkpt lat="48.99899" lon="-1.47819">
        <ele>10.5</ele>
        <time>2020-06-12T03:42:53Z</time>
      </trkpt>
      <trkpt lat="48.99903" lon="-1.47828">
        <ele>10.6</ele>
        <time>2020-06-12T03:42:54Z</time>
      </trkpt>
      <trkpt lat="48.99907" lon="-1.47837">
        <ele>10.7</ele>
        <time>2020-06-12T03:42:55Z</time>
      </trkpt>
      <trkpt lat="48.9991" lon="-1.47845">
        <ele>10.8</ele>
        <time>2020-06-12T03:42:56Z</time>
      </trkpt>
      <trkpt lat="48.99913" lon="-1.47852">
        <ele>10.9</ele>
        <time>2020-06-12T03:42:57Z</time>
      </trkpt>
      <trkpt lat="48.99916" lon="-1.47859">
        <ele>11</ele>
        <time>2020-06-12T03:42:58Z</time>
      </trkpt>
      <trkpt lat="48.9992" lon="-1.47865">
        <ele>11</ele>
        <time>2020-06-12T03:42:59Z</time>
      </trkpt>
      <trkpt lat="48.99922" lon="-1.47871">
        <ele>11.1</ele>
        <time>2020-06-12T03:43:00Z</time>
      </trkpt>
      <trkpt lat="48.99925" lon="-1.47876">
        <ele>11.2</ele>
        <time>2020-06-12T03:43:01Z</time>
      </trkpt>
      <trkpt lat="48.99928" lon="-1.47881">
        <ele>11.3</ele>
        <time>2020-06-12T03:43:02Z</time>
      </trkpt>
      <trkpt lat="48.99931" lon="-1.47887">
        <ele>11.4</ele>
        <time>2020-06-12T03:43:03Z</time>
      </trkpt>
      <trkpt lat="48.99934" lon="-1.47894">
        <ele>11.5</ele>
        <time>2020-06-12T03:43:04Z</time>
      </trkpt>
      <trkpt lat="48.99937" lon="-1.47899">
        <ele>11.7</ele>
        <time>2020-06-12T03:43:05Z</time>
      </trkpt>
      <trkpt lat="48.9994" lon="-1.47905">
        <ele>11.8</ele>
        <time>2020-06-12T03:43:06Z</time>
      </trkpt>
      <trkpt lat="48.99943" lon="-1.47911">
        <ele>11.9</ele>
        <time>2020-06-12T03:43:07Z</time>
      </trkpt>
      <trkpt lat="48.99945" lon="-1.47916">
        <ele>12.1</ele>
        <time>2020-06-12T03:43:08Z</time>
      </trkpt>
      <trkpt lat="48.99948" lon="-1.47921">
        <ele>12.3</ele>
        <time>2020-06-12T03:43:09Z</time>
      </trkpt>
      <trkpt lat="48.9995" lon="-1.47925">
        <ele>12.4</ele>
        <time>2020-06-12T03:43:10Z</time>
      </trkpt>
      <trkpt lat="48.99953" lon="-1.47929">
        <ele>12.6</ele>
        <time>2020-06-12T03:43:11Z</time>
      </trkpt>
      <trkpt lat="48.99956" lon="-1.47933">
        <ele>12.6</ele>
        <time>2020-06-12T03:43:12Z</time>
      </trkpt>
      <trkpt lat="48.9996" lon="-1.47937">
        <ele>12.6</ele>
        <time>2020-06-12T03:43:13Z</time>
      </trkpt>
      <trkpt lat="48.99965" lon="-1.47941">
        <ele>12.7</ele>
        <time>2020-06-12T03:43:14Z</time>
      </trkpt>
      <trkpt lat="48.9997" lon="-1.47944">
        <ele>12.7</ele>
        <time>2020-06-12T03:43:15Z</time>
      </trkpt>
      <trkpt lat="48.99973" lon="-1.47947">
        <ele>12.7</ele>
        <time>2020-06-12T03:43:16Z</time>
      </trkpt>
      <trkpt lat="48.99977" lon="-1.47952">
        <ele>12.8</ele>
        <time>2020-06-12T03:43:17Z</time>
      </trkpt>
      <trkpt lat="48.99981" lon="-1.47956">
        <ele>12.8</ele>
        <time>2020-06-12T03:43:18Z</time>
      </trkpt>
      <trkpt lat="48.99985" lon="-1.4796">
        <ele>12.8</ele>
        <time>2020-06-12T03:43:19Z</time>
      </trkpt>
      <trkpt lat="48.99989" lon="-1.47964">
        <ele>12.9</ele>
        <time>2020-06-12T03:43:20Z</time>
      </trkpt>
      <trkpt lat="48.99992" lon="-1.47968">
        <ele>12.9</ele>
        <time>2020-06-12T03:43:21Z</time>
      </trkpt>
      <trkpt lat="48.99994" lon="-1.47972">
        <ele>13</ele>
        <time>2020-06-12T03:43:22Z</time>
      </trkpt>
      <trkpt lat="48.99998" lon="-1.47976">
        <ele>13</ele>
        <time>2020-06-12T03:43:23Z</time>
      </trkpt>
      <trkpt lat="49.00001" lon="-1.47981">
        <ele>13.1</ele>
        <time>2020-06-12T03:43:24Z</time>
      </trkpt>
      <trkpt lat="49.00006" lon="-1.47984">
        <ele>13.1</ele>
        <time>2020-06-12T03:43:25Z</time>
      </trkpt>
      <trkpt lat="49.00009" lon="-1.47988">
        <ele>13.2</ele>
        <time>2020-06-12T03:43:26Z</time>
      </trkpt>
      <trkpt lat="49.00013" lon="-1.47993">
        <ele>13.2</ele>
        <time>2020-06-12T03:43:27Z</time>
      </trkpt>
      <trkpt lat="49.00016" lon="-1.47997">
        <ele>13.2</ele>
        <time>2020-06-12T03:43:28Z</time>
      </trkpt>
      <trkpt lat="49.0002" lon="-1.48">
        <ele>13.3</ele>
        <time>2020-06-12T03:43:29Z</time>
      </trkpt>
      <trkpt lat="49.00024" lon="-1.48004">
        <ele>13.3</ele>
        <time>2020-06-12T03:43:30Z</time>
      </trkpt>
      <trkpt lat="49.00026" lon="-1.48007">
        <ele>13.3</ele>
        <time>2020-06-12T03:43:31Z</time>
      </trkpt>
      <trkpt lat="49.00031" lon="-1.48011">
        <ele>13.3</ele>
        <time>2020-06-12T03:43:32Z</time>
      </trkpt>
      <trkpt lat="49.00034" lon="-1.48015">
        <ele>13.4</ele>
        <time>2020-06-12T03:43:33Z</time>
      </trkpt>
      <trkpt lat="49.00038" lon="-1.48018">
        <ele>13.4</ele>
        <time>2020-06-12T03:43:34Z</time>
      </trkpt>
      <trkpt lat="49.00042" lon="-1.48022">
        <ele>13.5</ele>
        <time>2020-06-12T03:43:35Z</time>
      </trkpt>
      <trkpt lat="49.00045" lon="-1.48026">
        <ele>13.5</ele>
        <time>2020-06-12T03:43:36Z</time>
      </trkpt>
      <trkpt lat="49.00048" lon="-1.48029">
        <ele>13.5</ele>
        <time>2020-06-12T03:43:37Z</time>
      </trkpt>
      <trkpt lat="49.00052" lon="-1.48032">
        <ele>13.4</ele>
        <time>2020-06-12T03:43:38Z</time>
      </trkpt>
      <trkpt lat="49.00056" lon="-1.48035">
        <ele>13.3</ele>
        <time>2020-06-12T03:43:39Z</time>
      </trkpt>
      <trkpt lat="49.00061" lon="-1.48036">
        <ele>13.3</ele>
        <time>2020-06-12T03:43:40Z</time>
      </trkpt>
      <trkpt lat="49.00065" lon="-1.48039">
        <ele>13.2</ele>
        <time>2020-06-12T03:43:41Z</time>
      </trkpt>
      <trkpt lat="49.0007" lon="-1.48039">
        <ele>13.1</ele>
        <time>2020-06-12T03:43:42Z</time>
      </trkpt>
      <trkpt lat="49.00075" lon="-1.4804">
        <ele>13</ele>
        <time>2020-06-12T03:43:43Z</time>
      </trkpt>
      <trkpt lat="49.0008" lon="-1.4804">
        <ele>12.9</ele>
        <time>2020-06-12T03:43:44Z</time>
      </trkpt>
      <trkpt lat="49.00085" lon="-1.4804">
        <ele>12.8</ele>
        <time>2020-06-12T03:43:45Z</time>
      </trkpt>
      <trkpt lat="49.0009" lon="-1.4804">
        <ele>12.8</ele>
        <time>2020-06-12T03:43:46Z</time>
      </trkpt>
      <trkpt lat="49.00096" lon="-1.4804">
        <ele>12.7</ele>
        <time>2020-06-12T03:43:47Z</time>
      </trkpt>
      <trkpt lat="49.00101" lon="-1.4804">
        <ele>12.6</ele>
        <time>2020-06-12T03:43:48Z</time>
      </trkpt>
      <trkpt lat="49.00106" lon="-1.4804">
        <ele>12.5</ele>
        <time>2020-06-12T03:43:49Z</time>
      </trkpt>
      <trkpt lat="49.00111" lon="-1.48039">
        <ele>12.5</ele>
        <time>2020-06-12T03:43:50Z</time>
      </trkpt>
      <trkpt lat="49.00115" lon="-1.4804">
        <ele>12.4</ele>
        <time>2020-06-12T03:43:51Z</time>
      </trkpt>
      <trkpt lat="49.0012" lon="-1.4804">
        <ele>12.3</ele>
        <time>2020-06-12T03:43:52Z</time>
      </trkpt>
      <trkpt lat="49.00124" lon="-1.4804">
        <ele>12.3</ele>
        <time>2020-06-12T03:43:53Z</time>
      </trkpt>
      <trkpt lat="49.00129" lon="-1.4804">
        <ele>12.2</ele>
        <time>2020-06-12T03:43:54Z</time>
      </trkpt>
      <trkpt lat="49.00133" lon="-1.48041">
        <ele>12.1</ele>
        <time>2020-06-12T03:43:55Z</time>
      </trkpt>
      <trkpt lat="49.00138" lon="-1.4804">
        <ele>12.1</ele>
        <time>2020-06-12T03:43:56Z</time>
      </trkpt>
      <trkpt lat="49.00143" lon="-1.48041">
        <ele>12</ele>
        <time>2020-06-12T03:43:57Z</time>
      </trkpt>
      <trkpt lat="49.00148" lon="-1.48042">
        <ele>12</ele>
        <time>2020-06-12T03:43:58Z</time>
      </trkpt>
      <trkpt lat="49.00154" lon="-1.48043">
        <ele>12</ele>
        <time>2020-06-12T03:43:59Z</time>
      </trkpt>
      <trkpt lat="49.0016" lon="-1.48044">
        <ele>12</ele>
        <time>2020-06-12T03:44:00Z</time>
      </trkpt>
      <trkpt lat="49.00166" lon="-1.48045">
        <ele>12</ele>
        <time>2020-06-12T03:44:01Z</time>
      </trkpt>
      <trkpt lat="49.00171" lon="-1.48048">
        <ele>12</ele>
        <time>2020-06-12T03:44:02Z</time>
      </trkpt>
      <trkpt lat="49.00176" lon="-1.48053">
        <ele>11.9</ele>
        <time>2020-06-12T03:44:03Z</time>
      </trkpt>
      <trkpt lat="49.0018" lon="-1.48058">
        <ele>11.9</ele>
        <time>2020-06-12T03:44:04Z</time>
      </trkpt>
      <trkpt lat="49.00185" lon="-1.48064">
        <ele>11.8</ele>
        <time>2020-06-12T03:44:05Z</time>
      </trkpt>
      <trkpt lat="49.00189" lon="-1.48071">
        <ele>11.7</ele>
        <time>2020-06-12T03:44:06Z</time>
      </trkpt>
      <trkpt lat="49.00193" lon="-1.48075">
        <ele>11.7</ele>
        <time>2020-06-12T03:44:07Z</time>
      </trkpt>
      <trkpt lat="49.00197" lon="-1.48081">
        <ele>11.6</ele>
        <time>2020-06-12T03:44:08Z</time>
      </trkpt>
      <trkpt lat="49.00199" lon="-1.48088">
        <ele>11.6</ele>
        <time>2020-06-12T03:44:09Z</time>
      </trkpt>
      <trkpt lat="49.00202" lon="-1.48093">
        <ele>11.6</ele>
        <time>2020-06-12T03:44:10Z</time>
      </trkpt>
      <trkpt lat="49.00204" lon="-1.48099">
        <ele>11.6</ele>
        <time>2020-06-12T03:44:11Z</time>
      </trkpt>
      <trkpt lat="49.00207" lon="-1.48106">
        <ele>11.6</ele>
        <time>2020-06-12T03:44:12Z</time>
      </trkpt>
      <trkpt lat="49.0021" lon="-1.48112">
        <ele>11.6</ele>
        <time>2020-06-12T03:44:13Z</time>
      </trkpt>
      <trkpt lat="49.00213" lon="-1.48119">
        <ele>11.6</ele>
        <time>2020-06-12T03:44:14Z</time>
      </trkpt>
      <trkpt lat="49.00216" lon="-1.48125">
        <ele>11.7</ele>
        <time>2020-06-12T03:44:15Z</time>
      </trkpt>
      <trkpt lat="49.00219" lon="-1.4813">
        <ele>11.7</ele>
        <time>2020-06-12T03:44:16Z</time>
      </trkpt>
      <trkpt lat="49.00221" lon="-1.48136">
        <ele>11.7</ele>
        <time>2020-06-12T03:44:17Z</time>
      </trkpt>
      <trkpt lat="49.00224" lon="-1.48142">
        <ele>11.8</ele>
        <time>2020-06-12T03:44:18Z</time>
      </trkpt>
      <trkpt lat="49.00228" lon="-1.48149">
        <ele>11.9</ele>
        <time>2020-06-12T03:44:19Z</time>
      </trkpt>
      <trkpt lat="49.00232" lon="-1.48155">
        <ele>12</ele>
        <time>2020-06-12T03:44:20Z</time>
      </trkpt>
      <trkpt lat="49.00234" lon="-1.48161">
        <ele>12.1</ele>
        <time>2020-06-12T03:44:21Z</time>
      </trkpt>
      <trkpt lat="49.00237" lon="-1.48168">
        <ele>12.2</ele>
        <time>2020-06-12T03:44:22Z</time>
      </trkpt>
      <trkpt lat="49.0024" lon="-1.48174">
        <ele>12.3</ele>
        <time>2020-06-12T03:44:23Z</time>
      </trkpt>
      <trkpt lat="49.00242" lon="-1.48181">
        <ele>12.4</ele>
        <time>2020-06-12T03:44:24Z</time>
      </trkpt>
      <trkpt lat="49.00244" lon="-1.48187">
        <ele>12.5</ele>
        <time>2020-06-12T03:44:25Z</time>
      </trkpt>
      <trkpt lat="49.00246" lon="-1.48193">
        <ele>12.6</ele>
        <time>2020-06-12T03:44:26Z</time>
      </trkpt>
      <trkpt lat="49.00248" lon="-1.482">
        <ele>12.7</ele>
        <time>2020-06-12T03:44:27Z</time>
      </trkpt>
      <trkpt lat="49.00249" lon="-1.48207">
        <ele>12.8</ele>
        <time>2020-06-12T03:44:28Z</time>
      </trkpt>
      <trkpt lat="49.0025" lon="-1.48213">
        <ele>12.9</ele>
        <time>2020-06-12T03:44:29Z</time>
      </trkpt>
      <trkpt lat="49.00251" lon="-1.48221">
        <ele>13</ele>
        <time>2020-06-12T03:44:30Z</time>
      </trkpt>
      <trkpt lat="49.00251" lon="-1.48227">
        <ele>13</ele>
        <time>2020-06-12T03:44:31Z</time>
      </trkpt>
      <trkpt lat="49.00251" lon="-1.48234">
        <ele>13.1</ele>
        <time>2020-06-12T03:44:32Z</time>
      </trkpt>
      <trkpt lat="49.00252" lon="-1.48241">
        <ele>13.2</ele>
        <time>2020-06-12T03:44:33Z</time>
      </trkpt>
      <trkpt lat="49.00253" lon="-1.48247">
        <ele>13.3</ele>
        <time>2020-06-12T03:44:34Z</time>
      </trkpt>
      <trkpt lat="49.00253" lon="-1.48253">
        <ele>13.5</ele>
        <time>2020-06-12T03:44:35Z</time>
      </trkpt>
      <trkpt lat="49.00253" lon="-1.48259">
        <ele>13.6</ele>
        <time>2020-06-12T03:44:36Z</time>
      </trkpt>
      <trkpt lat="49.00254" lon="-1.48264">
        <ele>13.7</ele>
        <time>2020-06-12T03:44:37Z</time>
      </trkpt>
      <trkpt lat="49.00254" lon="-1.4827">
        <ele>13.8</ele>
        <time>2020-06-12T03:44:38Z</time>
      </trkpt>
      <trkpt lat="49.00255" lon="-1.48277">
        <ele>14</ele>
        <time>2020-06-12T03:44:39Z</time>
      </trkpt>
      <trkpt lat="49.00256" lon="-1.48283">
        <ele>14.1</ele>
        <time>2020-06-12T03:44:40Z</time>
      </trkpt>
      <trkpt lat="49.00257" lon="-1.48289">
        <ele>14.2</ele>
        <time>2020-06-12T03:44:41Z</time>
      </trkpt>
      <trkpt lat="49.00258" lon="-1.48295">
        <ele>14.4</ele>
        <time>2020-06-12T03:44:42Z</time>
      </trkpt>
      <trkpt lat="49.00258" lon="-1.48303">
        <ele>14.5</ele>
        <time>2020-06-12T03:44:43Z</time>
      </trkpt>
      <trkpt lat="49.00259" lon="-1.4831">
        <ele>14.7</ele>
        <time>2020-06-12T03:44:44Z</time>
      </trkpt>
      <trkpt lat="49.0026" lon="-1.48317">
        <ele>14.8</ele>
        <time>2020-06-12T03:44:45Z</time>
      </trkpt>
      <trkpt lat="49.00261" lon="-1.48324">
        <ele>15</ele>
        <time>2020-06-12T03:44:46Z</time>
      </trkpt>
      <trkpt lat="49.00262" lon="-1.4833">
        <ele>15.2</ele>
        <time>2020-06-12T03:44:47Z</time>
      </trkpt>
      <trkpt lat="49.00262" lon="-1.48335">
        <ele>15.4</ele>
        <time>2020-06-12T03:44:48Z</time>
      </trkpt>
      <trkpt lat="49.00263" lon="-1.48341">
        <ele>15.5</ele>
        <time>2020-06-12T03:44:49Z</time>
      </trkpt>
      <trkpt lat="49.00263" lon="-1.48345">
        <ele>15.7</ele>
        <time>2020-06-12T03:44:50Z</time>
      </trkpt>
      <trkpt lat="49.00263" lon="-1.48352">
        <ele>15.9</ele>
        <time>2020-06-12T03:44:51Z</time>
      </trkpt>
      <trkpt lat="49.00264" lon="-1.48358">
        <ele>16.1</ele>
        <time>2020-06-12T03:44:52Z</time>
      </trkpt>
      <trkpt lat="49.00265" lon="-1.48364">
        <ele>16.2</ele>
        <time>2020-06-12T03:44:53Z</time>
      </trkpt>
      <trkpt lat="49.00265" lon="-1.48369">
        <ele>16.4</ele>
        <time>2020-06-12T03:44:54Z</time>
      </trkpt>
      <trkpt lat="49.00266" lon="-1.48374">
        <ele>16.6</ele>
        <time>2020-06-12T03:44:55Z</time>
      </trkpt>
      <trkpt lat="49.00267" lon="-1.4838">
        <ele>16.7</ele>
        <time>2020-06-12T03:44:56Z</time>
      </trkpt>
      <trkpt lat="49.00268" lon="-1.48385">
        <ele>16.9</ele>
        <time>2020-06-12T03:44:57Z</time>
      </trkpt>
      <trkpt lat="49.00268" lon="-1.4839">
        <ele>17.1</ele>
        <time>2020-06-12T03:44:58Z</time>
      </trkpt>
      <trkpt lat="49.00269" lon="-1.48394">
        <ele>17.2</ele>
        <time>2020-06-12T03:44:59Z</time>
      </trkpt>
      <trkpt lat="49.0027" lon="-1.48399">
        <ele>17.4</ele>
        <time>2020-06-12T03:45:00Z</time>
      </trkpt>
      <trkpt lat="49.00271" lon="-1.48403">
        <ele>17.6</ele>
        <time>2020-06-12T03:45:01Z</time>
      </trkpt>
      <trkpt lat="49.00271" lon="-1.48408">
        <ele>17.7</ele>
        <time>2020-06-12T03:45:02Z</time>
      </trkpt>
      <trkpt lat="49.00272" lon="-1.48414">
        <ele>17.9</ele>
        <time>2020-06-12T03:45:03Z</time>
      </trkpt>
      <trkpt lat="49.00273" lon="-1.48417">
        <ele>18</ele>
        <time>2020-06-12T03:45:04Z</time>
      </trkpt>
      <trkpt lat="49.00274" lon="-1.48422">
        <ele>18.2</ele>
        <time>2020-06-12T03:45:05Z</time>
      </trkpt>
      <trkpt lat="49.00275" lon="-1.48425">
        <ele>18.3</ele>
        <time>2020-06-12T03:45:06Z</time>
      </trkpt>
      <trkpt lat="49.00275" lon="-1.48429">
        <ele>18.4</ele>
        <time>2020-06-12T03:45:07Z</time>
      </trkpt>
      <trkpt lat="49.00276" lon="-1.48435">
        <ele>18.6</ele>
        <time>2020-06-12T03:45:08Z</time>
      </trkpt>
      <trkpt lat="49.00277" lon="-1.4844">
        <ele>18.8</ele>
        <time>2020-06-12T03:45:09Z</time>
      </trkpt>
      <trkpt lat="49.00277" lon="-1.48445">
        <ele>18.9</ele>
        <time>2020-06-12T03:45:10Z</time>
      </trkpt>
      <trkpt lat="49.00278" lon="-1.48451">
        <ele>19.1</ele>
        <time>2020-06-12T03:45:11Z</time>
      </trkpt>
      <trkpt lat="49.00278" lon="-1.48457">
        <ele>19.3</ele>
        <time>2020-06-12T03:45:12Z</time>
      </trkpt>
      <trkpt lat="49.00279" lon="-1.48462">
        <ele>19.5</ele>
        <time>2020-06-12T03:45:13Z</time>
      </trkpt>
      <trkpt lat="49.0028" lon="-1.48466">
        <ele>19.6</ele>
        <time>2020-06-12T03:45:14Z</time>
      </trkpt>
      <trkpt lat="49.00281" lon="-1.48471">
        <ele>19.8</ele>
        <time>2020-06-12T03:45:15Z</time>
      </trkpt>
      <trkpt lat="49.00281" lon="-1.48476">
        <ele>20</ele>
        <time>2020-06-12T03:45:16Z</time>
      </trkpt>
      <trkpt lat="49.00281" lon="-1.48481">
        <ele>20.2</ele>
        <time>2020-06-12T03:45:17Z</time>
      </trkpt>
      <trkpt lat="49.00282" lon="-1.48488">
        <ele>20.4</ele>
        <time>2020-06-12T03:45:18Z</time>
      </trkpt>
      <trkpt lat="49.00282" lon="-1.4849">
        <ele>20.5</ele>
        <time>2020-06-12T03:45:19Z</time>
      </trkpt>
      <trkpt lat="49.00282" lon="-1.48494">
        <ele>20.6</ele>
        <time>2020-06-12T03:45:20Z</time>
      </trkpt>
      <trkpt lat="49.00283" lon="-1.48499">
        <ele>20.8</ele>
        <time>2020-06-12T03:45:21Z</time>
      </trkpt>
      <trkpt lat="49.00283" lon="-1.48505">
        <ele>21</ele>
        <time>2020-06-12T03:45:22Z</time>
      </trkpt>
      <trkpt lat="49.00284" lon="-1.48507">
        <ele>21</ele>
        <time>2020-06-12T03:45:23Z</time>
      </trkpt>
      <trkpt lat="49.00284" lon="-1.48511">
        <ele>21.2</ele>
        <time>2020-06-12T03:45:24Z</time>
      </trkpt>
      <trkpt lat="49.00285" lon="-1.48515">
        <ele>21.3</ele>
        <time>2020-06-12T03:45:25Z</time>
      </trkpt>
      <trkpt lat="49.00287" lon="-1.4852">
        <ele>21.5</ele>
        <time>2020-06-12T03:45:26Z</time>
      </trkpt>
      <trkpt lat="49.00287" lon="-1.48524">
        <ele>21.6</ele>
        <time>2020-06-12T03:45:27Z</time>
      </trkpt>
      <trkpt lat="49.00287" lon="-1.48529">
        <ele>21.8</ele>
        <time>2020-06-12T03:45:28Z</time>
      </trkpt>
      <trkpt lat="49.00288" lon="-1.48534">
        <ele>22</ele>
        <time>2020-06-12T03:45:29Z</time>
      </trkpt>
      <trkpt lat="49.00289" lon="-1.4854">
        <ele>22.2</ele>
        <time>2020-06-12T03:45:30Z</time>
      </trkpt>
      <trkpt lat="49.0029" lon="-1.48544">
        <ele>22.4</ele>
        <time>2020-06-12T03:45:31Z</time>
      </trkpt>
      <trkpt lat="49.00291" lon="-1.48549">
        <ele>22.5</ele>
        <time>2020-06-12T03:45:32Z</time>
      </trkpt>
      <trkpt lat="49.00291" lon="-1.48553">
        <ele>22.7</ele>
        <time>2020-06-12T03:45:33Z</time>
      </trkpt>
      <trkpt lat="49.00291" lon="-1.48558">
        <ele>22.9</ele>
        <time>2020-06-12T03:45:34Z</time>
      </trkpt>
      <trkpt lat="49.00292" lon="-1.48563">
        <ele>23.1</ele>
        <time>2020-06-12T03:45:35Z</time>
      </trkpt>
      <trkpt lat="49.00292" lon="-1.48566">
        <ele>23.2</ele>
        <time>2020-06-12T03:45:36Z</time>
      </trkpt>
      <trkpt lat="49.00294" lon="-1.48571">
        <ele>23.4</ele>
        <time>2020-06-12T03:45:37Z</time>
      </trkpt>
      <trkpt lat="49.00294" lon="-1.48577">
        <ele>23.6</ele>
        <time>2020-06-12T03:45:38Z</time>
      </trkpt>
      <trkpt lat="49.00294" lon="-1.48581">
        <ele>23.7</ele>
        <time>2020-06-12T03:45:39Z</time>
      </trkpt>
      <trkpt lat="49.00295" lon="-1.48587">
        <ele>24</ele>
        <time>2020-06-12T03:45:40Z</time>
      </trkpt>
      <trkpt lat="49.00296" lon="-1.48591">
        <ele>24.1</ele>
        <time>2020-06-12T03:45:41Z</time>
      </trkpt>
      <trkpt lat="49.00296" lon="-1.48596">
        <ele>24.3</ele>
        <time>2020-06-12T03:45:42Z</time>
      </trkpt>
      <trkpt lat="49.00297" lon="-1.48602">
        <ele>24.6</ele>
        <time>2020-06-12T03:45:43Z</time>
      </trkpt>
      <trkpt lat="49.00298" lon="-1.48607">
        <ele>24.8</ele>
        <time>2020-06-12T03:45:44Z</time>
      </trkpt>
      <trkpt lat="49.00299" lon="-1.48613">
        <ele>25</ele>
        <time>2020-06-12T03:45:45Z</time>
      </trkpt>
      <trkpt lat="49.00299" lon="-1.48619">
        <ele>25.2</ele>
        <time>2020-06-12T03:45:46Z</time>
      </trkpt>
      <trkpt lat="49.003" lon="-1.48625">
        <ele>25.4</ele>
        <time>2020-06-12T03:45:47Z</time>
      </trkpt>
      <trkpt lat="49.003" lon="-1.48631">
        <ele>25.5</ele>
        <time>2020-06-12T03:45:48Z</time>
      </trkpt>
      <trkpt lat="49.00301" lon="-1.48637">
        <ele>25.6</ele>
        <time>2020-06-12T03:45:49Z</time>
      </trkpt>
      <trkpt lat="49.00302" lon="-1.48643">
        <ele>25.9</ele>
        <time>2020-06-12T03:45:50Z</time>
      </trkpt>
      <trkpt lat="49.00303" lon="-1.48648">
        <ele>26.1</ele>
        <time>2020-06-12T03:45:51Z</time>
      </trkpt>
      <trkpt lat="49.00304" lon="-1.48654">
        <ele>26.3</ele>
        <time>2020-06-12T03:45:52Z</time>
      </trkpt>
      <trkpt lat="49.00305" lon="-1.4866">
        <ele>26.5</ele>
        <time>2020-06-12T03:45:53Z</time>
      </trkpt>
      <trkpt lat="49.00305" lon="-1.48665">
        <ele>26.6</ele>
        <time>2020-06-12T03:45:54Z</time>
      </trkpt>
      <trkpt lat="49.00306" lon="-1.48671">
        <ele>26.8</ele>
        <time>2020-06-12T03:45:55Z</time>
      </trkpt>
      <trkpt lat="49.00307" lon="-1.48676">
        <ele>27</ele>
        <time>2020-06-12T03:45:56Z</time>
      </trkpt>
      <trkpt lat="49.00307" lon="-1.48682">
        <ele>27.2</ele>
        <time>2020-06-12T03:45:57Z</time>
      </trkpt>
      <trkpt lat="49.00308" lon="-1.48689">
        <ele>27.4</ele>
        <time>2020-06-12T03:45:58Z</time>
      </trkpt>
      <trkpt lat="49.00309" lon="-1.48694">
        <ele>27.6</ele>
        <time>2020-06-12T03:45:59Z</time>
      </trkpt>
      <trkpt lat="49.0031" lon="-1.48701">
        <ele>27.9</ele>
        <time>2020-06-12T03:46:00Z</time>
      </trkpt>
      <trkpt lat="49.0031" lon="-1.48707">
        <ele>28.1</ele>
        <time>2020-06-12T03:46:01Z</time>
      </trkpt>
      <trkpt lat="49.00311" lon="-1.48713">
        <ele>28.3</ele>
        <time>2020-06-12T03:46:02Z</time>
      </trkpt>
      <trkpt lat="49.00311" lon="-1.4872">
        <ele>28.6</ele>
        <time>2020-06-12T03:46:03Z</time>
      </trkpt>
      <trkpt lat="49.00312" lon="-1.48726">
        <ele>28.8</ele>
        <time>2020-06-12T03:46:04Z</time>
      </trkpt>
      <trkpt lat="49.00314" lon="-1.48731">
        <ele>29.2</ele>
        <time>2020-06-12T03:46:05Z</time>
      </trkpt>
      <trkpt lat="49.00316" lon="-1.48735">
        <ele>29.4</ele>
        <time>2020-06-12T03:46:06Z</time>
      </trkpt>
      <trkpt lat="49.00318" lon="-1.48739">
        <ele>29.5</ele>
        <time>2020-06-12T03:46:07Z</time>
      </trkpt>
      <trkpt lat="49.00321" lon="-1.48743">
        <ele>29.7</ele>
        <time>2020-06-12T03:46:08Z</time>
      </trkpt>
      <trkpt lat="49.00323" lon="-1.48747">
        <ele>29.9</ele>
        <time>2020-06-12T03:46:09Z</time>
      </trkpt>
      <trkpt lat="49.00325" lon="-1.48751">
        <ele>30.2</ele>
        <time>2020-06-12T03:46:10Z</time>
      </trkpt>
      <trkpt lat="49.00327" lon="-1.48754">
        <ele>30.3</ele>
        <time>2020-06-12T03:46:11Z</time>
      </trkpt>
      <trkpt lat="49.0033" lon="-1.48755">
        <ele>30.5</ele>
        <time>2020-06-12T03:46:12Z</time>
      </trkpt>
      <trkpt lat="49.00333" lon="-1.48758">
        <ele>30.7</ele>
        <time>2020-06-12T03:46:13Z</time>
      </trkpt>
      <trkpt lat="49.00335" lon="-1.4876">
        <ele>30.9</ele>
        <time>2020-06-12T03:46:14Z</time>
      </trkpt>
      <trkpt lat="49.00338" lon="-1.48763">
        <ele>31.2</ele>
        <time>2020-06-12T03:46:15Z</time>
      </trkpt>
      <trkpt lat="49.00339" lon="-1.48764">
        <ele>31.2</ele>
        <time>2020-06-12T03:46:16Z</time>
      </trkpt>
      <trkpt lat="49.00342" lon="-1.48767">
        <ele>31.5</ele>
        <time>2020-06-12T03:46:17Z</time>
      </trkpt>
      <trkpt lat="49.00344" lon="-1.48768">
        <ele>31.6</ele>
        <time>2020-06-12T03:46:18Z</time>
      </trkpt>
      <trkpt lat="49.00347" lon="-1.4877">
        <ele>31.8</ele>
        <time>2020-06-12T03:46:19Z</time>
      </trkpt>
      <trkpt lat="49.0035" lon="-1.48772">
        <ele>32.1</ele>
        <time>2020-06-12T03:46:20Z</time>
      </trkpt>
      <trkpt lat="49.00351" lon="-1.48773">
        <ele>32.2</ele>
        <time>2020-06-12T03:46:21Z</time>
      </trkpt>
      <trkpt lat="49.00355" lon="-1.48774">
        <ele>32.5</ele>
        <time>2020-06-12T03:46:22Z</time>
      </trkpt>
      <trkpt lat="49.00357" lon="-1.48775">
        <ele>32.6</ele>
        <time>2020-06-12T03:46:23Z</time>
      </trkpt>
      <trkpt lat="49.0036" lon="-1.48777">
        <ele>32.8</ele>
        <time>2020-06-12T03:46:24Z</time>
      </trkpt>
      <trkpt lat="49.00362" lon="-1.4878">
        <ele>33</ele>
        <time>2020-06-12T03:46:25Z</time>
      </trkpt>
      <trkpt lat="49.00366" lon="-1.48782">
        <ele>33.3</ele>
        <time>2020-06-12T03:46:26Z</time>
      </trkpt>
      <trkpt lat="49.00367" lon="-1.48783">
        <ele>33.4</ele>
        <time>2020-06-12T03:46:27Z</time>
      </trkpt>
      <trkpt lat="49.0037" lon="-1.48784">
        <ele>33.6</ele>
        <time>2020-06-12T03:46:28Z</time>
      </trkpt>
      <trkpt lat="49.00371" lon="-1.48785">
        <ele>33.7</ele>
        <time>2020-06-12T03:46:29Z</time>
      </trkpt>
      <trkpt lat="49.00374" lon="-1.48787">
        <ele>33.9</ele>
        <time>2020-06-12T03:46:30Z</time>
      </trkpt>
      <trkpt lat="49.00376" lon="-1.48789">
        <ele>34.1</ele>
        <time>2020-06-12T03:46:31Z</time>
      </trkpt>
      <trkpt lat="49.00379" lon="-1.48791">
        <ele>34.3</ele>
        <time>2020-06-12T03:46:32Z</time>
      </trkpt>
      <trkpt lat="49.00382" lon="-1.48793">
        <ele>34.5</ele>
        <time>2020-06-12T03:46:33Z</time>
      </trkpt>
      <trkpt lat="49.00385" lon="-1.48794">
        <ele>34.7</ele>
        <time>2020-06-12T03:46:34Z</time>
      </trkpt>
      <trkpt lat="49.00387" lon="-1.48795">
        <ele>35</ele>
        <time>2020-06-12T03:46:35Z</time>
      </trkpt>
      <trkpt lat="49.0039" lon="-1.48797">
        <ele>35.2</ele>
        <time>2020-06-12T03:46:36Z</time>
      </trkpt>
      <trkpt lat="49.00394" lon="-1.48798">
        <ele>35.5</ele>
        <time>2020-06-12T03:46:37Z</time>
      </trkpt>
      <trkpt lat="49.00395" lon="-1.48799">
        <ele>35.5</ele>
        <time>2020-06-12T03:46:38Z</time>
      </trkpt>
      <trkpt lat="49.00398" lon="-1.488">
        <ele>35.8</ele>
        <time>2020-06-12T03:46:39Z</time>
      </trkpt>
      <trkpt lat="49.00399" lon="-1.48801">
        <ele>35.8</ele>
        <time>2020-06-12T03:46:40Z</time>
      </trkpt>
      <trkpt lat="49.00402" lon="-1.48803">
        <ele>36.1</ele>
        <time>2020-06-12T03:46:41Z</time>
      </trkpt>
      <trkpt lat="49.00403" lon="-1.48804">
        <ele>36.1</ele>
        <time>2020-06-12T03:46:42Z</time>
      </trkpt>
      <trkpt lat="49.00405" lon="-1.48806">
        <ele>36.3</ele>
        <time>2020-06-12T03:46:43Z</time>
      </trkpt>
      <trkpt lat="49.00406" lon="-1.48806">
        <ele>36.4</ele>
        <time>2020-06-12T03:46:44Z</time>
      </trkpt>
      <trkpt lat="49.00409" lon="-1.4881">
        <ele>36.6</ele>
        <time>2020-06-12T03:46:45Z</time>
      </trkpt>
      <trkpt lat="49.00411" lon="-1.48813">
        <ele>36.9</ele>
        <time>2020-06-12T03:46:46Z</time>
      </trkpt>
      <trkpt lat="49.00414" lon="-1.48816">
        <ele>37.1</ele>
        <time>2020-06-12T03:46:47Z</time>
      </trkpt>
      <trkpt lat="49.00416" lon="-1.48819">
        <ele>37.3</ele>
        <time>2020-06-12T03:46:48Z</time>
      </trkpt>
      <trkpt lat="49.00419" lon="-1.48822">
        <ele>37.6</ele>
        <time>2020-06-12T03:46:49Z</time>
      </trkpt>
      <trkpt lat="49.0042" lon="-1.48823">
        <ele>37.7</ele>
        <time>2020-06-12T03:46:50Z</time>
      </trkpt>
      <trkpt lat="49.00423" lon="-1.48825">
        <ele>37.9</ele>
        <time>2020-06-12T03:46:51Z</time>
      </trkpt>
      <trkpt lat="49.00425" lon="-1.48828">
        <ele>38.1</ele>
        <time>2020-06-12T03:46:52Z</time>
      </trkpt>
      <trkpt lat="49.00428" lon="-1.48831">
        <ele>38.3</ele>
        <time>2020-06-12T03:46:53Z</time>
      </trkpt>
      <trkpt lat="49.00429" lon="-1.48832">
        <ele>38.4</ele>
        <time>2020-06-12T03:46:54Z</time>
      </trkpt>
      <trkpt lat="49.00432" lon="-1.48834">
        <ele>38.6</ele>
        <time>2020-06-12T03:46:55Z</time>
      </trkpt>
      <trkpt lat="49.00433" lon="-1.48835">
        <ele>38.7</ele>
        <time>2020-06-12T03:46:56Z</time>
      </trkpt>
      <trkpt lat="49.00435" lon="-1.48837">
        <ele>38.9</ele>
        <time>2020-06-12T03:46:57Z</time>
      </trkpt>
      <trkpt lat="49.00437" lon="-1.48837">
        <ele>39</ele>
        <time>2020-06-12T03:46:58Z</time>
      </trkpt>
      <trkpt lat="49.0044" lon="-1.4884">
        <ele>39.3</ele>
        <time>2020-06-12T03:46:59Z</time>
      </trkpt>
      <trkpt lat="49.00441" lon="-1.48841">
        <ele>39.3</ele>
        <time>2020-06-12T03:47:00Z</time>
      </trkpt>
      <trkpt lat="49.00444" lon="-1.48843">
        <ele>39.6</ele>
        <time>2020-06-12T03:47:01Z</time>
      </trkpt>
      <trkpt lat="49.00445" lon="-1.48843">
        <ele>39.6</ele>
        <time>2020-06-12T03:47:02Z</time>
      </trkpt>
      <trkpt lat="49.00448" lon="-1.48845">
        <ele>39.8</ele>
        <time>2020-06-12T03:47:03Z</time>
      </trkpt>
      <trkpt lat="49.0045" lon="-1.48848">
        <ele>40</ele>
        <time>2020-06-12T03:47:04Z</time>
      </trkpt>
      <trkpt lat="49.00453" lon="-1.4885">
        <ele>40.2</ele>
        <time>2020-06-12T03:47:05Z</time>
      </trkpt>
      <trkpt lat="49.00455" lon="-1.48854">
        <ele>40.4</ele>
        <time>2020-06-12T03:47:06Z</time>
      </trkpt>
      <trkpt lat="49.00457" lon="-1.48856">
        <ele>40.6</ele>
        <time>2020-06-12T03:47:07Z</time>
      </trkpt>
      <trkpt lat="49.0046" lon="-1.48859">
        <ele>40.8</ele>
        <time>2020-06-12T03:47:08Z</time>
      </trkpt>
      <trkpt lat="49.00463" lon="-1.48863">
        <ele>41</ele>
        <time>2020-06-12T03:47:09Z</time>
      </trkpt>
      <trkpt lat="49.00465" lon="-1.48866">
        <ele>41.2</ele>
        <time>2020-06-12T03:47:10Z</time>
      </trkpt>
      <trkpt lat="49.00468" lon="-1.4887">
        <ele>41.5</ele>
        <time>2020-06-12T03:47:11Z</time>
      </trkpt>
      <trkpt lat="49.0047" lon="-1.48873">
        <ele>41.7</ele>
        <time>2020-06-12T03:47:12Z</time>
      </trkpt>
      <trkpt lat="49.00471" lon="-1.48874">
        <ele>41.8</ele>
        <time>2020-06-12T03:47:13Z</time>
      </trkpt>
      <trkpt lat="49.00474" lon="-1.48877">
        <ele>42</ele>
        <time>2020-06-12T03:47:14Z</time>
      </trkpt>
      <trkpt lat="49.00476" lon="-1.4888">
        <ele>42.1</ele>
        <time>2020-06-12T03:47:15Z</time>
      </trkpt>
      <trkpt lat="49.00478" lon="-1.48883">
        <ele>42.3</ele>
        <time>2020-06-12T03:47:16Z</time>
      </trkpt>
      <trkpt lat="49.00479" lon="-1.48885">
        <ele>42.4</ele>
        <time>2020-06-12T03:47:17Z</time>
      </trkpt>
      <trkpt lat="49.00481" lon="-1.48889">
        <ele>42.6</ele>
        <time>2020-06-12T03:47:18Z</time>
      </trkpt>
      <trkpt lat="49.00481" lon="-1.48891">
        <ele>42.7</ele>
        <time>2020-06-12T03:47:19Z</time>
      </trkpt>
      <trkpt lat="49.00484" lon="-1.48896">
        <ele>42.9</ele>
        <time>2020-06-12T03:47:20Z</time>
      </trkpt>
      <trkpt lat="49.00484" lon="-1.48898">
        <ele>43</ele>
        <time>2020-06-12T03:47:21Z</time>
      </trkpt>
      <trkpt lat="49.00486" lon="-1.48901">
        <ele>43.1</ele>
        <time>2020-06-12T03:47:22Z</time>
      </trkpt>
      <trkpt lat="49.00488" lon="-1.48905">
        <ele>43.3</ele>
        <time>2020-06-12T03:47:23Z</time>
      </trkpt>
      <trkpt lat="49.0049" lon="-1.48909">
        <ele>43.5</ele>
        <time>2020-06-12T03:47:24Z</time>
      </trkpt>
      <trkpt lat="49.00493" lon="-1.48913">
        <ele>43.7</ele>
        <time>2020-06-12T03:47:25Z</time>
      </trkpt>
      <trkpt lat="49.00493" lon="-1.48914">
        <ele>43.7</ele>
        <time>2020-06-12T03:47:26Z</time>
      </trkpt>
      <trkpt lat="49.00495" lon="-1.48919">
        <ele>43.9</ele>
        <time>2020-06-12T03:47:27Z</time>
      </trkpt>
      <trkpt lat="49.00496" lon="-1.48924">
        <ele>44.1</ele>
        <time>2020-06-12T03:47:28Z</time>
      </trkpt>
      <trkpt lat="49.00498" lon="-1.48928">
        <ele>44.2</ele>
        <time>2020-06-12T03:47:29Z</time>
      </trkpt>
      <trkpt lat="49.00501" lon="-1.48932">
        <ele>44.4</ele>
        <time>2020-06-12T03:47:30Z</time>
      </trkpt>
      <trkpt lat="49.00503" lon="-1.48936">
        <ele>44.6</ele>
        <time>2020-06-12T03:47:31Z</time>
      </trkpt>
      <trkpt lat="49.00504" lon="-1.48941">
        <ele>44.8</ele>
        <time>2020-06-12T03:47:32Z</time>
      </trkpt>
      <trkpt lat="49.00507" lon="-1.48945">
        <ele>45</ele>
        <time>2020-06-12T03:47:33Z</time>
      </trkpt>
      <trkpt lat="49.00509" lon="-1.48949">
        <ele>45.2</ele>
        <time>2020-06-12T03:47:34Z</time>
      </trkpt>
      <trkpt lat="49.00511" lon="-1.48953">
        <ele>45.3</ele>
        <time>2020-06-12T03:47:35Z</time>
      </trkpt>
      <trkpt lat="49.00513" lon="-1.48957">
        <ele>45.6</ele>
        <time>2020-06-12T03:47:36Z</time>
      </trkpt>
      <trkpt lat="49.00515" lon="-1.4896">
        <ele>45.8</ele>
        <time>2020-06-12T03:47:37Z</time>
      </trkpt>
      <trkpt lat="49.00518" lon="-1.48964">
        <ele>46</ele>
        <time>2020-06-12T03:47:38Z</time>
      </trkpt>
      <trkpt lat="49.0052" lon="-1.48969">
        <ele>46.1</ele>
        <time>2020-06-12T03:47:39Z</time>
      </trkpt>
      <trkpt lat="49.00522" lon="-1.48973">
        <ele>46.3</ele>
        <time>2020-06-12T03:47:40Z</time>
      </trkpt>
      <trkpt lat="49.00525" lon="-1.48977">
        <ele>46.4</ele>
        <time>2020-06-12T03:47:41Z</time>
      </trkpt>
      <trkpt lat="49.00527" lon="-1.48981">
        <ele>46.6</ele>
        <time>2020-06-12T03:47:42Z</time>
      </trkpt>
      <trkpt lat="49.0053" lon="-1.48985">
        <ele>46.8</ele>
        <time>2020-06-12T03:47:43Z</time>
      </trkpt>
      <trkpt lat="49.00531" lon="-1.48986">
        <ele>46.8</ele>
        <time>2020-06-12T03:47:44Z</time>
      </trkpt>
      <trkpt lat="49.00534" lon="-1.48991">
        <ele>47</ele>
        <time>2020-06-12T03:47:45Z</time>
      </trkpt>
      <trkpt lat="49.00535" lon="-1.48993">
        <ele>47.1</ele>
        <time>2020-06-12T03:47:46Z</time>
      </trkpt>
      <trkpt lat="49.00537" lon="-1.48997">
        <ele>47.3</ele>
        <time>2020-06-12T03:47:47Z</time>
      </trkpt>
      <trkpt lat="49.00539" lon="-1.49001">
        <ele>47.4</ele>
        <time>2020-06-12T03:47:48Z</time>
      </trkpt>
      <trkpt lat="49.00541" lon="-1.49005">
        <ele>47.6</ele>
        <time>2020-06-12T03:47:49Z</time>
      </trkpt>
      <trkpt lat="49.00543" lon="-1.49009">
        <ele>47.7</ele>
        <time>2020-06-12T03:47:50Z</time>
      </trkpt>
      <trkpt lat="49.00544" lon="-1.49014">
        <ele>47.9</ele>
        <time>2020-06-12T03:47:51Z</time>
      </trkpt>
      <trkpt lat="49.00546" lon="-1.49019">
        <ele>48</ele>
        <time>2020-06-12T03:47:52Z</time>
      </trkpt>
      <trkpt lat="49.00547" lon="-1.49024">
        <ele>48.2</ele>
        <time>2020-06-12T03:47:53Z</time>
      </trkpt>
      <trkpt lat="49.00549" lon="-1.49029">
        <ele>48.3</ele>
        <time>2020-06-12T03:47:54Z</time>
      </trkpt>
      <trkpt lat="49.0055" lon="-1.49034">
        <ele>48.4</ele>
        <time>2020-06-12T03:47:55Z</time>
      </trkpt>
      <trkpt lat="49.00552" lon="-1.4904">
        <ele>48.5</ele>
        <time>2020-06-12T03:47:56Z</time>
      </trkpt>
      <trkpt lat="49.00554" lon="-1.49046">
        <ele>48.7</ele>
        <time>2020-06-12T03:47:57Z</time>
      </trkpt>
      <trkpt lat="49.00555" lon="-1.49052">
        <ele>48.8</ele>
        <time>2020-06-12T03:47:58Z</time>
      </trkpt>
      <trkpt lat="49.00557" lon="-1.49058">
        <ele>49</ele>
        <time>2020-06-12T03:47:59Z</time>
      </trkpt>
      <trkpt lat="49.00558" lon="-1.49064">
        <ele>49.1</ele>
        <time>2020-06-12T03:48:00Z</time>
      </trkpt>
      <trkpt lat="49.00559" lon="-1.49069">
        <ele>49.2</ele>
        <time>2020-06-12T03:48:01Z</time>
      </trkpt>
      <trkpt lat="49.0056" lon="-1.49074">
        <ele>49.3</ele>
        <time>2020-06-12T03:48:02Z</time>
      </trkpt>
      <trkpt lat="49.00561" lon="-1.4908">
        <ele>49.4</ele>
        <time>2020-06-12T03:48:03Z</time>
      </trkpt>
      <trkpt lat="49.00562" lon="-1.49085">
        <ele>49.5</ele>
        <time>2020-06-12T03:48:04Z</time>
      </trkpt>
      <trkpt lat="49.00563" lon="-1.49091">
        <ele>49.6</ele>
        <time>2020-06-12T03:48:05Z</time>
      </trkpt>
      <trkpt lat="49.00564" lon="-1.49097">
        <ele>49.7</ele>
        <time>2020-06-12T03:48:06Z</time>
      </trkpt>
      <trkpt lat="49.00565" lon="-1.49102">
        <ele>49.8</ele>
        <time>2020-06-12T03:48:07Z</time>
      </trkpt>
      <trkpt lat="49.00566" lon="-1.49106">
        <ele>49.9</ele>
        <time>2020-06-12T03:48:08Z</time>
      </trkpt>
      <trkpt lat="49.00567" lon="-1.4911">
        <ele>50</ele>
        <time>2020-06-12T03:48:09Z</time>
      </trkpt>
      <trkpt lat="49.00568" lon="-1.49115">
        <ele>50.1</ele>
        <time>2020-06-12T03:48:10Z</time>
      </trkpt>
      <trkpt lat="49.00569" lon="-1.4912">
        <ele>50.2</ele>
        <time>2020-06-12T03:48:11Z</time>
      </trkpt>
      <trkpt lat="49.0057" lon="-1.49125">
        <ele>50.3</ele>
        <time>2020-06-12T03:48:12Z</time>
      </trkpt>
      <trkpt lat="49.00571" lon="-1.49131">
        <ele>50.4</ele>
        <time>2020-06-12T03:48:13Z</time>
      </trkpt>
      <trkpt lat="49.00573" lon="-1.49136">
        <ele>50.5</ele>
        <time>2020-06-12T03:48:14Z</time>
      </trkpt>
      <trkpt lat="49.00573" lon="-1.49141">
        <ele>50.6</ele>
        <time>2020-06-12T03:48:15Z</time>
      </trkpt>
      <trkpt lat="49.00574" lon="-1.49146">
        <ele>50.7</ele>
        <time>2020-06-12T03:48:16Z</time>
      </trkpt>
      <trkpt lat="49.00576" lon="-1.49151">
        <ele>50.8</ele>
        <time>2020-06-12T03:48:17Z</time>
      </trkpt>
      <trkpt lat="49.00577" lon="-1.49156">
        <ele>50.9</ele>
        <time>2020-06-12T03:48:18Z</time>
      </trkpt>
      <trkpt lat="49.00579" lon="-1.49161">
        <ele>51</ele>
        <time>2020-06-12T03:48:19Z</time>
      </trkpt>
      <trkpt lat="49.00581" lon="-1.49166">
        <ele>51</ele>
        <time>2020-06-12T03:48:20Z</time>
      </trkpt>
      <trkpt lat="49.00582" lon="-1.49171">
        <ele>51.1</ele>
        <time>2020-06-12T03:48:21Z</time>
      </trkpt>
      <trkpt lat="49.00584" lon="-1.49176">
        <ele>51.1</ele>
        <time>2020-06-12T03:48:22Z</time>
      </trkpt>
      <trkpt lat="49.00585" lon="-1.4918">
        <ele>51.1</ele>
        <time>2020-06-12T03:48:23Z</time>
      </trkpt>
      <trkpt lat="49.00586" lon="-1.49186">
        <ele>51.1</ele>
        <time>2020-06-12T03:48:24Z</time>
      </trkpt>
      <trkpt lat="49.00587" lon="-1.49191">
        <ele>51.3</ele>
        <time>2020-06-12T03:48:25Z</time>
      </trkpt>
      <trkpt lat="49.00589" lon="-1.49197">
        <ele>51.3</ele>
        <time>2020-06-12T03:48:26Z</time>
      </trkpt>
      <trkpt lat="49.0059" lon="-1.49203">
        <ele>51.4</ele>
        <time>2020-06-12T03:48:27Z</time>
      </trkpt>
      <trkpt lat="49.00591" lon="-1.49209">
        <ele>51.4</ele>
        <time>2020-06-12T03:48:28Z</time>
      </trkpt>
      <trkpt lat="49.00593" lon="-1.49215">
        <ele>51.5</ele>
        <time>2020-06-12T03:48:29Z</time>
      </trkpt>
      <trkpt lat="49.00594" lon="-1.49221">
        <ele>51.5</ele>
        <time>2020-06-12T03:48:30Z</time>
      </trkpt>
      <trkpt lat="49.00595" lon="-1.49226">
        <ele>51.6</ele>
        <time>2020-06-12T03:48:31Z</time>
      </trkpt>
      <trkpt lat="49.00596" lon="-1.49232">
        <ele>51.6</ele>
        <time>2020-06-12T03:48:32Z</time>
      </trkpt>
      <trkpt lat="49.00598" lon="-1.49238">
        <ele>51.6</ele>
        <time>2020-06-12T03:48:33Z</time>
      </trkpt>
      <trkpt lat="49.00599" lon="-1.49244">
        <ele>51.6</ele>
        <time>2020-06-12T03:48:34Z</time>
      </trkpt>
      <trkpt lat="49.00601" lon="-1.49251">
        <ele>51.7</ele>
        <time>2020-06-12T03:48:35Z</time>
      </trkpt>
      <trkpt lat="49.00602" lon="-1.49258">
        <ele>51.7</ele>
        <time>2020-06-12T03:48:36Z</time>
      </trkpt>
      <trkpt lat="49.00604" lon="-1.49264">
        <ele>51.7</ele>
        <time>2020-06-12T03:48:37Z</time>
      </trkpt>
      <trkpt lat="49.00605" lon="-1.4927">
        <ele>51.7</ele>
        <time>2020-06-12T03:48:38Z</time>
      </trkpt>
      <trkpt lat="49.00607" lon="-1.49277">
        <ele>51.7</ele>
        <time>2020-06-12T03:48:39Z</time>
      </trkpt>
      <trkpt lat="49.00609" lon="-1.49283">
        <ele>51.7</ele>
        <time>2020-06-12T03:48:40Z</time>
      </trkpt>
      <trkpt lat="49.0061" lon="-1.49289">
        <ele>51.7</ele>
        <time>2020-06-12T03:48:41Z</time>
      </trkpt>
      <trkpt lat="49.00612" lon="-1.49295">
        <ele>51.7</ele>
        <time>2020-06-12T03:48:42Z</time>
      </trkpt>
      <trkpt lat="49.00613" lon="-1.49302">
        <ele>51.7</ele>
        <time>2020-06-12T03:48:43Z</time>
      </trkpt>
      <trkpt lat="49.00614" lon="-1.49308">
        <ele>51.7</ele>
        <time>2020-06-12T03:48:44Z</time>
      </trkpt>
      <trkpt lat="49.00615" lon="-1.49315">
        <ele>51.7</ele>
        <time>2020-06-12T03:48:45Z</time>
      </trkpt>
      <trkpt lat="49.00617" lon="-1.49322">
        <ele>51.7</ele>
        <time>2020-06-12T03:48:46Z</time>
      </trkpt>
      <trkpt lat="49.00618" lon="-1.49329">
        <ele>51.7</ele>
        <time>2020-06-12T03:48:47Z</time>
      </trkpt>
      <trkpt lat="49.00619" lon="-1.49336">
        <ele>51.6</ele>
        <time>2020-06-12T03:48:48Z</time>
      </trkpt>
      <trkpt lat="49.00621" lon="-1.49344">
        <ele>51.6</ele>
        <time>2020-06-12T03:48:49Z</time>
      </trkpt>
      <trkpt lat="49.00622" lon="-1.49351">
        <ele>51.5</ele>
        <time>2020-06-12T03:48:50Z</time>
      </trkpt>
      <trkpt lat="49.00624" lon="-1.49358">
        <ele>51.5</ele>
        <time>2020-06-12T03:48:51Z</time>
      </trkpt>
      <trkpt lat="49.00626" lon="-1.49366">
        <ele>51.5</ele>
        <time>2020-06-12T03:48:52Z</time>
      </trkpt>
      <trkpt lat="49.00628" lon="-1.49372">
        <ele>51.4</ele>
        <time>2020-06-12T03:48:53Z</time>
      </trkpt>
      <trkpt lat="49.0063" lon="-1.49379">
        <ele>51.4</ele>
        <time>2020-06-12T03:48:54Z</time>
      </trkpt>
      <trkpt lat="49.00632" lon="-1.49386">
        <ele>51.4</ele>
        <time>2020-06-12T03:48:55Z</time>
      </trkpt>
      <trkpt lat="49.00634" lon="-1.49392">
        <ele>51.3</ele>
        <time>2020-06-12T03:48:56Z</time>
      </trkpt>
      <trkpt lat="49.00636" lon="-1.49398">
        <ele>51.3</ele>
        <time>2020-06-12T03:48:57Z</time>
      </trkpt>
      <trkpt lat="49.00638" lon="-1.49406">
        <ele>51.3</ele>
        <time>2020-06-12T03:48:58Z</time>
      </trkpt>
      <trkpt lat="49.0064" lon="-1.49414">
        <ele>51.2</ele>
        <time>2020-06-12T03:48:59Z</time>
      </trkpt>
      <trkpt lat="49.00642" lon="-1.49422">
        <ele>51.2</ele>
        <time>2020-06-12T03:49:00Z</time>
      </trkpt>
      <trkpt lat="49.00644" lon="-1.4943">
        <ele>51.2</ele>
        <time>2020-06-12T03:49:01Z</time>
      </trkpt>
      <trkpt lat="49.00647" lon="-1.49438">
        <ele>51.2</ele>
        <time>2020-06-12T03:49:02Z</time>
      </trkpt>
      <trkpt lat="49.0065" lon="-1.49446">
        <ele>51.2</ele>
        <time>2020-06-12T03:49:03Z</time>
      </trkpt>
      <trkpt lat="49.00651" lon="-1.49454">
        <ele>51.2</ele>
        <time>2020-06-12T03:49:04Z</time>
      </trkpt>
      <trkpt lat="49.00653" lon="-1.49462">
        <ele>51.2</ele>
        <time>2020-06-12T03:49:05Z</time>
      </trkpt>
      <trkpt lat="49.00656" lon="-1.4947">
        <ele>51.2</ele>
        <time>2020-06-12T03:49:06Z</time>
      </trkpt>
      <trkpt lat="49.00658" lon="-1.49479">
        <ele>51.1</ele>
        <time>2020-06-12T03:49:07Z</time>
      </trkpt>
      <trkpt lat="49.00661" lon="-1.49487">
        <ele>51.1</ele>
        <time>2020-06-12T03:49:08Z</time>
      </trkpt>
      <trkpt lat="49.00663" lon="-1.49495">
        <ele>51</ele>
        <time>2020-06-12T03:49:09Z</time>
      </trkpt>
      <trkpt lat="49.00667" lon="-1.49504">
        <ele>51</ele>
        <time>2020-06-12T03:49:10Z</time>
      </trkpt>
      <trkpt lat="49.0067" lon="-1.49512">
        <ele>50.9</ele>
        <time>2020-06-12T03:49:11Z</time>
      </trkpt>
      <trkpt lat="49.00672" lon="-1.4952">
        <ele>50.9</ele>
        <time>2020-06-12T03:49:12Z</time>
      </trkpt>
      <trkpt lat="49.00676" lon="-1.49528">
        <ele>50.8</ele>
        <time>2020-06-12T03:49:13Z</time>
      </trkpt>
      <trkpt lat="49.0068" lon="-1.49537">
        <ele>50.8</ele>
        <time>2020-06-12T03:49:14Z</time>
      </trkpt>
      <trkpt lat="49.00683" lon="-1.49544">
        <ele>50.7</ele>
        <time>2020-06-12T03:49:15Z</time>
      </trkpt>
      <trkpt lat="49.00687" lon="-1.49552">
        <ele>50.6</ele>
        <time>2020-06-12T03:49:16Z</time>
      </trkpt>
      <trkpt lat="49.0069" lon="-1.49559">
        <ele>50.6</ele>
        <time>2020-06-12T03:49:17Z</time>
      </trkpt>
      <trkpt lat="49.00694" lon="-1.49567">
        <ele>50.5</ele>
        <time>2020-06-12T03:49:18Z</time>
      </trkpt>
      <trkpt lat="49.00698" lon="-1.49575">
        <ele>50.4</ele>
        <time>2020-06-12T03:49:19Z</time>
      </trkpt>
      <trkpt lat="49.00702" lon="-1.49584">
        <ele>50.3</ele>
        <time>2020-06-12T03:49:20Z</time>
      </trkpt>
      <trkpt lat="49.00705" lon="-1.49592">
        <ele>50.3</ele>
        <time>2020-06-12T03:49:21Z</time>
      </trkpt>
      <trkpt lat="49.00709" lon="-1.496">
        <ele>50.2</ele>
        <time>2020-06-12T03:49:22Z</time>
      </trkpt>
      <trkpt lat="49.00713" lon="-1.49608">
        <ele>50.1</ele>
        <time>2020-06-12T03:49:23Z</time>
      </trkpt>
      <trkpt lat="49.00717" lon="-1.49615">
        <ele>50</ele>
        <time>2020-06-12T03:49:24Z</time>
      </trkpt>
      <trkpt lat="49.00721" lon="-1.49624">
        <ele>50</ele>
        <time>2020-06-12T03:49:25Z</time>
      </trkpt>
      <trkpt lat="49.00725" lon="-1.49632">
        <ele>49.9</ele>
        <time>2020-06-12T03:49:26Z</time>
      </trkpt>
      <trkpt lat="49.00728" lon="-1.49639">
        <ele>49.9</ele>
        <time>2020-06-12T03:49:27Z</time>
      </trkpt>
      <trkpt lat="49.00732" lon="-1.49648">
        <ele>49.9</ele>
        <time>2020-06-12T03:49:28Z</time>
      </trkpt>
      <trkpt lat="49.00737" lon="-1.49656">
        <ele>49.8</ele>
        <time>2020-06-12T03:49:29Z</time>
      </trkpt>
      <trkpt lat="49.00741" lon="-1.49663">
        <ele>49.8</ele>
        <time>2020-06-12T03:49:30Z</time>
      </trkpt>
      <trkpt lat="49.00745" lon="-1.4967">
        <ele>49.7</ele>
        <time>2020-06-12T03:49:31Z</time>
      </trkpt>
      <trkpt lat="49.00749" lon="-1.49678">
        <ele>49.7</ele>
        <time>2020-06-12T03:49:32Z</time>
      </trkpt>
      <trkpt lat="49.00753" lon="-1.49685">
        <ele>49.7</ele>
        <time>2020-06-12T03:49:33Z</time>
      </trkpt>
      <trkpt lat="49.00757" lon="-1.49693">
        <ele>49.6</ele>
        <time>2020-06-12T03:49:34Z</time>
      </trkpt>
      <trkpt lat="49.00761" lon="-1.497">
        <ele>49.6</ele>
        <time>2020-06-12T03:49:35Z</time>
      </trkpt>
      <trkpt lat="49.00765" lon="-1.49709">
        <ele>49.6</ele>
        <time>2020-06-12T03:49:36Z</time>
      </trkpt>
      <trkpt lat="49.00769" lon="-1.49716">
        <ele>49.5</ele>
        <time>2020-06-12T03:49:37Z</time>
      </trkpt>
      <trkpt lat="49.00772" lon="-1.49724">
        <ele>49.5</ele>
        <time>2020-06-12T03:49:38Z</time>
      </trkpt>
      <trkpt lat="49.00776" lon="-1.49731">
        <ele>49.5</ele>
        <time>2020-06-12T03:49:39Z</time>
      </trkpt>
      <trkpt lat="49.0078" lon="-1.49739">
        <ele>49.4</ele>
        <time>2020-06-12T03:49:40Z</time>
      </trkpt>
      <trkpt lat="49.00783" lon="-1.49746">
        <ele>49.3</ele>
        <time>2020-06-12T03:49:41Z</time>
      </trkpt>
      <trkpt lat="49.00787" lon="-1.49754">
        <ele>49.1</ele>
        <time>2020-06-12T03:49:42Z</time>
      </trkpt>
      <trkpt lat="49.00791" lon="-1.4976">
        <ele>49</ele>
        <time>2020-06-12T03:49:43Z</time>
      </trkpt>
      <trkpt lat="49.00794" lon="-1.49766">
        <ele>49</ele>
        <time>2020-06-12T03:49:44Z</time>
      </trkpt>
      <trkpt lat="49.00799" lon="-1.49773">
        <ele>48.8</ele>
        <time>2020-06-12T03:49:45Z</time>
      </trkpt>
      <trkpt lat="49.00803" lon="-1.4978">
        <ele>48.8</ele>
        <time>2020-06-12T03:49:46Z</time>
      </trkpt>
      <trkpt lat="49.00808" lon="-1.49785">
        <ele>48.8</ele>
        <time>2020-06-12T03:49:47Z</time>
      </trkpt>
      <trkpt lat="49.00811" lon="-1.49789">
        <ele>48.7</ele>
        <time>2020-06-12T03:49:48Z</time>
      </trkpt>
      <trkpt lat="49.00816" lon="-1.49795">
        <ele>48.7</ele>
        <time>2020-06-12T03:49:49Z</time>
      </trkpt>
      <trkpt lat="49.0082" lon="-1.49802">
        <ele>48.6</ele>
        <time>2020-06-12T03:49:50Z</time>
      </trkpt>
      <trkpt lat="49.00824" lon="-1.49808">
        <ele>48.5</ele>
        <time>2020-06-12T03:49:51Z</time>
      </trkpt>
      <trkpt lat="49.00828" lon="-1.49814">
        <ele>48.5</ele>
        <time>2020-06-12T03:49:52Z</time>
      </trkpt>
      <trkpt lat="49.00832" lon="-1.4982">
        <ele>48.4</ele>
        <time>2020-06-12T03:49:53Z</time>
      </trkpt>
      <trkpt lat="49.00837" lon="-1.49825">
        <ele>48.3</ele>
        <time>2020-06-12T03:49:54Z</time>
      </trkpt>
      <trkpt lat="49.00842" lon="-1.49831">
        <ele>48.2</ele>
        <time>2020-06-12T03:49:55Z</time>
      </trkpt>
      <trkpt lat="49.00846" lon="-1.49837">
        <ele>48.1</ele>
        <time>2020-06-12T03:49:56Z</time>
      </trkpt>
      <trkpt lat="49.0085" lon="-1.49845">
        <ele>47.9</ele>
        <time>2020-06-12T03:49:57Z</time>
      </trkpt>
      <trkpt lat="49.00855" lon="-1.49852">
        <ele>47.6</ele>
        <time>2020-06-12T03:49:58Z</time>
      </trkpt>
      <trkpt lat="49.00859" lon="-1.49858">
        <ele>47.4</ele>
        <time>2020-06-12T03:49:59Z</time>
      </trkpt>
      <trkpt lat="49.00863" lon="-1.49864">
        <ele>47.1</ele>
        <time>2020-06-12T03:50:00Z</time>
      </trkpt>
      <trkpt lat="49.00868" lon="-1.4987">
        <ele>46.9</ele>
        <time>2020-06-12T03:50:01Z</time>
      </trkpt>
      <trkpt lat="49.00873" lon="-1.49876">
        <ele>46.6</ele>
        <time>2020-06-12T03:50:02Z</time>
      </trkpt>
      <trkpt lat="49.00878" lon="-1.49882">
        <ele>46.3</ele>
        <time>2020-06-12T03:50:03Z</time>
      </trkpt>
      <trkpt lat="49.00883" lon="-1.49888">
        <ele>46.1</ele>
        <time>2020-06-12T03:50:04Z</time>
      </trkpt>
      <trkpt lat="49.00888" lon="-1.49895">
        <ele>45.8</ele>
        <time>2020-06-12T03:50:05Z</time>
      </trkpt>
      <trkpt lat="49.00894" lon="-1.49902">
        <ele>45.4</ele>
        <time>2020-06-12T03:50:06Z</time>
      </trkpt>
      <trkpt lat="49.009" lon="-1.49909">
        <ele>45.1</ele>
        <time>2020-06-12T03:50:07Z</time>
      </trkpt>
      <trkpt lat="49.00905" lon="-1.49916">
        <ele>44.7</ele>
        <time>2020-06-12T03:50:08Z</time>
      </trkpt>
      <trkpt lat="49.00911" lon="-1.49923">
        <ele>44.4</ele>
        <time>2020-06-12T03:50:09Z</time>
      </trkpt>
      <trkpt lat="49.00916" lon="-1.49929">
        <ele>44</ele>
        <time>2020-06-12T03:50:10Z</time>
      </trkpt>
      <trkpt lat="49.00922" lon="-1.49936">
        <ele>43.7</ele>
        <time>2020-06-12T03:50:11Z</time>
      </trkpt>
      <trkpt lat="49.00929" lon="-1.49943">
        <ele>43.4</ele>
        <time>2020-06-12T03:50:12Z</time>
      </trkpt>
      <trkpt lat="49.00935" lon="-1.4995">
        <ele>43.1</ele>
        <time>2020-06-12T03:50:13Z</time>
      </trkpt>
      <trkpt lat="49.00942" lon="-1.49958">
        <ele>42.7</ele>
        <time>2020-06-12T03:50:14Z</time>
      </trkpt>
      <trkpt lat="49.00948" lon="-1.49966">
        <ele>42.3</ele>
        <time>2020-06-12T03:50:15Z</time>
      </trkpt>
      <trkpt lat="49.00953" lon="-1.49975">
        <ele>41.8</ele>
        <time>2020-06-12T03:50:16Z</time>
      </trkpt>
      <trkpt lat="49.0096" lon="-1.49982">
        <ele>41.4</ele>
        <time>2020-06-12T03:50:17Z</time>
      </trkpt>
      <trkpt lat="49.00966" lon="-1.4999">
        <ele>41</ele>
        <time>2020-06-12T03:50:18Z</time>
      </trkpt>
      <trkpt lat="49.00973" lon="-1.49997">
        <ele>40.6</ele>
        <time>2020-06-12T03:50:19Z</time>
      </trkpt>
      <trkpt lat="49.00979" lon="-1.50005">
        <ele>40.1</ele>
        <time>2020-06-12T03:50:20Z</time>
      </trkpt>
      <trkpt lat="49.00987" lon="-1.50013">
        <ele>39.7</ele>
        <time>2020-06-12T03:50:21Z</time>
      </trkpt>
      <trkpt lat="49.00993" lon="-1.5002">
        <ele>39.3</ele>
        <time>2020-06-12T03:50:22Z</time>
      </trkpt>
      <trkpt lat="49.01" lon="-1.50028">
        <ele>38.8</ele>
        <time>2020-06-12T03:50:23Z</time>
      </trkpt>
      <trkpt lat="49.01006" lon="-1.50036">
        <ele>38.4</ele>
        <time>2020-06-12T03:50:24Z</time>
      </trkpt>
      <trkpt lat="49.01013" lon="-1.50043">
        <ele>37.9</ele>
        <time>2020-06-12T03:50:25Z</time>
      </trkpt>
      <trkpt lat="49.01019" lon="-1.5005">
        <ele>37.5</ele>
        <time>2020-06-12T03:50:26Z</time>
      </trkpt>
      <trkpt lat="49.01027" lon="-1.50054">
        <ele>37</ele>
        <time>2020-06-12T03:50:27Z</time>
      </trkpt>
      <trkpt lat="49.01035" lon="-1.50057">
        <ele>36.5</ele>
        <time>2020-06-12T03:50:28Z</time>
      </trkpt>
      <trkpt lat="49.01042" lon="-1.50062">
        <ele>36</ele>
        <time>2020-06-12T03:50:29Z</time>
      </trkpt>
      <trkpt lat="49.0105" lon="-1.50066">
        <ele>35.5</ele>
        <time>2020-06-12T03:50:30Z</time>
      </trkpt>
      <trkpt lat="49.01057" lon="-1.50071">
        <ele>35.1</ele>
        <time>2020-06-12T03:50:31Z</time>
      </trkpt>
      <trkpt lat="49.01065" lon="-1.50074">
        <ele>34.6</ele>
        <time>2020-06-12T03:50:32Z</time>
      </trkpt>
      <trkpt lat="49.01073" lon="-1.50077">
        <ele>34.2</ele>
        <time>2020-06-12T03:50:33Z</time>
      </trkpt>
      <trkpt lat="49.0108" lon="-1.50081">
        <ele>33.8</ele>
        <time>2020-06-12T03:50:34Z</time>
      </trkpt>
      <trkpt lat="49.01087" lon="-1.50085">
        <ele>33.4</ele>
        <time>2020-06-12T03:50:35Z</time>
      </trkpt>
      <trkpt lat="49.01095" lon="-1.50089">
        <ele>33.1</ele>
        <time>2020-06-12T03:50:36Z</time>
      </trkpt>
      <trkpt lat="49.01102" lon="-1.50092">
        <ele>32.7</ele>
        <time>2020-06-12T03:50:37Z</time>
      </trkpt>
      <trkpt lat="49.0111" lon="-1.50096">
        <ele>32.3</ele>
        <time>2020-06-12T03:50:38Z</time>
      </trkpt>
      <trkpt lat="49.01117" lon="-1.50101">
        <ele>31.9</ele>
        <time>2020-06-12T03:50:39Z</time>
      </trkpt>
      <trkpt lat="49.01124" lon="-1.50107">
        <ele>31.4</ele>
        <time>2020-06-12T03:50:40Z</time>
      </trkpt>
      <trkpt lat="49.0113" lon="-1.50115">
        <ele>30.8</ele>
        <time>2020-06-12T03:50:41Z</time>
      </trkpt>
      <trkpt lat="49.01137" lon="-1.50123">
        <ele>30.3</ele>
        <time>2020-06-12T03:50:42Z</time>
      </trkpt>
      <trkpt lat="49.01142" lon="-1.50132">
        <ele>29.8</ele>
        <time>2020-06-12T03:50:43Z</time>
      </trkpt>
      <trkpt lat="49.01147" lon="-1.50143">
        <ele>29.3</ele>
        <time>2020-06-12T03:50:44Z</time>
      </trkpt>
      <trkpt lat="49.01151" lon="-1.50154">
        <ele>28.8</ele>
        <time>2020-06-12T03:50:45Z</time>
      </trkpt>
      <trkpt lat="49.01154" lon="-1.50166">
        <ele>28.3</ele>
        <time>2020-06-12T03:50:46Z</time>
      </trkpt>
      <trkpt lat="49.01157" lon="-1.50178">
        <ele>27.8</ele>
        <time>2020-06-12T03:50:47Z</time>
      </trkpt>
      <trkpt lat="49.01161" lon="-1.50191">
        <ele>27.3</ele>
        <time>2020-06-12T03:50:48Z</time>
      </trkpt>
      <trkpt lat="49.01163" lon="-1.50204">
        <ele>26.8</ele>
        <time>2020-06-12T03:50:49Z</time>
      </trkpt>
      <trkpt lat="49.01166" lon="-1.50217">
        <ele>26.3</ele>
        <time>2020-06-12T03:50:50Z</time>
      </trkpt>
      <trkpt lat="49.01169" lon="-1.50231">
        <ele>25.7</ele>
        <time>2020-06-12T03:50:51Z</time>
      </trkpt>
      <trkpt lat="49.01172" lon="-1.50244">
        <ele>25.3</ele>
        <time>2020-06-12T03:50:52Z</time>
      </trkpt>
      <trkpt lat="49.01174" lon="-1.50258">
        <ele>24.8</ele>
        <time>2020-06-12T03:50:53Z</time>
      </trkpt>
      <trkpt lat="49.01177" lon="-1.50272">
        <ele>24.3</ele>
        <time>2020-06-12T03:50:54Z</time>
      </trkpt>
      <trkpt lat="49.0118" lon="-1.50286">
        <ele>23.8</ele>
        <time>2020-06-12T03:50:55Z</time>
      </trkpt>
      <trkpt lat="49.01182" lon="-1.503">
        <ele>23.4</ele>
        <time>2020-06-12T03:50:56Z</time>
      </trkpt>
      <trkpt lat="49.01185" lon="-1.50314">
        <ele>23</ele>
        <time>2020-06-12T03:50:57Z</time>
      </trkpt>
      <trkpt lat="49.01188" lon="-1.50328">
        <ele>22.7</ele>
        <time>2020-06-12T03:50:58Z</time>
      </trkpt>
      <trkpt lat="49.01192" lon="-1.50342">
        <ele>22.4</ele>
        <time>2020-06-12T03:50:59Z</time>
      </trkpt>
      <trkpt lat="49.01196" lon="-1.50355">
        <ele>22.2</ele>
        <time>2020-06-12T03:51:00Z</time>
      </trkpt>
      <trkpt lat="49.012" lon="-1.50368">
        <ele>21.8</ele>
        <time>2020-06-12T03:51:01Z</time>
      </trkpt>
      <trkpt lat="49.01204" lon="-1.50381">
        <ele>21.6</ele>
        <time>2020-06-12T03:51:02Z</time>
      </trkpt>
      <trkpt lat="49.01209" lon="-1.50393">
        <ele>21.4</ele>
        <time>2020-06-12T03:51:03Z</time>
      </trkpt>
      <trkpt lat="49.01214" lon="-1.50404">
        <ele>21.2</ele>
        <time>2020-06-12T03:51:04Z</time>
      </trkpt>
      <trkpt lat="49.01218" lon="-1.50416">
        <ele>21.1</ele>
        <time>2020-06-12T03:51:05Z</time>
      </trkpt>
      <trkpt lat="49.01223" lon="-1.50427">
        <ele>20.9</ele>
        <time>2020-06-12T03:51:06Z</time>
      </trkpt>
      <trkpt lat="49.01227" lon="-1.50438">
        <ele>20.8</ele>
        <time>2020-06-12T03:51:07Z</time>
      </trkpt>
      <trkpt lat="49.01232" lon="-1.50448">
        <ele>20.7</ele>
        <time>2020-06-12T03:51:08Z</time>
      </trkpt>
      <trkpt lat="49.01236" lon="-1.50459">
        <ele>20.6</ele>
        <time>2020-06-12T03:51:09Z</time>
      </trkpt>
      <trkpt lat="49.01241" lon="-1.50468">
        <ele>20.5</ele>
        <time>2020-06-12T03:51:10Z</time>
      </trkpt>
      <trkpt lat="49.01245" lon="-1.50478">
        <ele>20.4</ele>
        <time>2020-06-12T03:51:11Z</time>
      </trkpt>
      <trkpt lat="49.01249" lon="-1.50487">
        <ele>20.3</ele>
        <time>2020-06-12T03:51:12Z</time>
      </trkpt>
      <trkpt lat="49.01254" lon="-1.50496">
        <ele>20.3</ele>
        <time>2020-06-12T03:51:13Z</time>
      </trkpt>
      <trkpt lat="49.01258" lon="-1.50505">
        <ele>20.2</ele>
        <time>2020-06-12T03:51:14Z</time>
      </trkpt>
      <trkpt lat="49.01263" lon="-1.50513">
        <ele>20.1</ele>
        <time>2020-06-12T03:51:15Z</time>
      </trkpt>
      <trkpt lat="49.01268" lon="-1.50522">
        <ele>20.1</ele>
        <time>2020-06-12T03:51:16Z</time>
      </trkpt>
      <trkpt lat="49.01272" lon="-1.5053">
        <ele>20.1</ele>
        <time>2020-06-12T03:51:17Z</time>
      </trkpt>
      <trkpt lat="49.01275" lon="-1.50538">
        <ele>20</ele>
        <time>2020-06-12T03:51:18Z</time>
      </trkpt>
      <trkpt lat="49.01279" lon="-1.50546">
        <ele>20</ele>
        <time>2020-06-12T03:51:19Z</time>
      </trkpt>
      <trkpt lat="49.01283" lon="-1.50553">
        <ele>19.9</ele>
        <time>2020-06-12T03:51:20Z</time>
      </trkpt>
      <trkpt lat="49.01288" lon="-1.50561">
        <ele>19.9</ele>
        <time>2020-06-12T03:51:21Z</time>
      </trkpt>
      <trkpt lat="49.01292" lon="-1.50568">
        <ele>19.8</ele>
        <time>2020-06-12T03:51:22Z</time>
      </trkpt>
      <trkpt lat="49.01296" lon="-1.50575">
        <ele>19.7</ele>
        <time>2020-06-12T03:51:23Z</time>
      </trkpt>
      <trkpt lat="49.01299" lon="-1.50583">
        <ele>19.7</ele>
        <time>2020-06-12T03:51:24Z</time>
      </trkpt>
      <trkpt lat="49.01301" lon="-1.50592">
        <ele>19.6</ele>
        <time>2020-06-12T03:51:25Z</time>
      </trkpt>
      <trkpt lat="49.01305" lon="-1.506">
        <ele>19.5</ele>
        <time>2020-06-12T03:51:26Z</time>
      </trkpt>
      <trkpt lat="49.01308" lon="-1.50608">
        <ele>19.5</ele>
        <time>2020-06-12T03:51:27Z</time>
      </trkpt>
      <trkpt lat="49.01312" lon="-1.50615">
        <ele>19.4</ele>
        <time>2020-06-12T03:51:28Z</time>
      </trkpt>
      <trkpt lat="49.01315" lon="-1.50623">
        <ele>19.4</ele>
        <time>2020-06-12T03:51:29Z</time>
      </trkpt>
      <trkpt lat="49.01319" lon="-1.5063">
        <ele>19.3</ele>
        <time>2020-06-12T03:51:30Z</time>
      </trkpt>
      <trkpt lat="49.01323" lon="-1.50638">
        <ele>19.2</ele>
        <time>2020-06-12T03:51:31Z</time>
      </trkpt>
      <trkpt lat="49.01326" lon="-1.50647">
        <ele>19</ele>
        <time>2020-06-12T03:51:32Z</time>
      </trkpt>
      <trkpt lat="49.01332" lon="-1.50652">
        <ele>18.9</ele>
        <time>2020-06-12T03:51:33Z</time>
      </trkpt>
      <trkpt lat="49.01337" lon="-1.5066">
        <ele>18.8</ele>
        <time>2020-06-12T03:51:34Z</time>
      </trkpt>
      <trkpt lat="49.01343" lon="-1.50666">
        <ele>18.6</ele>
        <time>2020-06-12T03:51:35Z</time>
      </trkpt>
      <trkpt lat="49.01349" lon="-1.50671">
        <ele>18.5</ele>
        <time>2020-06-12T03:51:36Z</time>
      </trkpt>
      <trkpt lat="49.01355" lon="-1.50676">
        <ele>18.3</ele>
        <time>2020-06-12T03:51:37Z</time>
      </trkpt>
      <trkpt lat="49.01361" lon="-1.50682">
        <ele>18.1</ele>
        <time>2020-06-12T03:51:38Z</time>
      </trkpt>
      <trkpt lat="49.01368" lon="-1.50688">
        <ele>17.9</ele>
        <time>2020-06-12T03:51:39Z</time>
      </trkpt>
      <trkpt lat="49.01374" lon="-1.50691">
        <ele>17.7</ele>
        <time>2020-06-12T03:51:40Z</time>
      </trkpt>
      <trkpt lat="49.01381" lon="-1.50696">
        <ele>17.5</ele>
        <time>2020-06-12T03:51:41Z</time>
      </trkpt>
      <trkpt lat="49.01388" lon="-1.507">
        <ele>17.2</ele>
        <time>2020-06-12T03:51:42Z</time>
      </trkpt>
      <trkpt lat="49.01394" lon="-1.50704">
        <ele>17</ele>
        <time>2020-06-12T03:51:43Z</time>
      </trkpt>
      <trkpt lat="49.01399" lon="-1.50709">
        <ele>16.8</ele>
        <time>2020-06-12T03:51:44Z</time>
      </trkpt>
      <trkpt lat="49.01405" lon="-1.50713">
        <ele>16.6</ele>
        <time>2020-06-12T03:51:45Z</time>
      </trkpt>
      <trkpt lat="49.0141" lon="-1.50716">
        <ele>16.5</ele>
        <time>2020-06-12T03:51:46Z</time>
      </trkpt>
      <trkpt lat="49.01415" lon="-1.5072">
        <ele>16.4</ele>
        <time>2020-06-12T03:51:47Z</time>
      </trkpt>
      <trkpt lat="49.01421" lon="-1.50724">
        <ele>16.2</ele>
        <time>2020-06-12T03:51:48Z</time>
      </trkpt>
      <trkpt lat="49.01426" lon="-1.50728">
        <ele>16.1</ele>
        <time>2020-06-12T03:51:49Z</time>
      </trkpt>
      <trkpt lat="49.01431" lon="-1.50732">
        <ele>16</ele>
        <time>2020-06-12T03:51:50Z</time>
      </trkpt>
      <trkpt lat="49.01436" lon="-1.50735">
        <ele>16</ele>
        <time>2020-06-12T03:51:51Z</time>
      </trkpt>
      <trkpt lat="49.01442" lon="-1.50739">
        <ele>15.9</ele>
        <time>2020-06-12T03:51:52Z</time>
      </trkpt>
      <trkpt lat="49.01447" lon="-1.50742">
        <ele>15.8</ele>
        <time>2020-06-12T03:51:53Z</time>
      </trkpt>
      <trkpt lat="49.0145" lon="-1.50745">
        <ele>15.7</ele>
        <time>2020-06-12T03:51:54Z</time>
      </trkpt>
      <trkpt lat="49.01455" lon="-1.50748">
        <ele>15.7</ele>
        <time>2020-06-12T03:51:55Z</time>
      </trkpt>
      <trkpt lat="49.01458" lon="-1.50752">
        <ele>15.6</ele>
        <time>2020-06-12T03:51:56Z</time>
      </trkpt>
      <trkpt lat="49.01462" lon="-1.50754">
        <ele>15.6</ele>
        <time>2020-06-12T03:51:57Z</time>
      </trkpt>
      <trkpt lat="49.01466" lon="-1.50756">
        <ele>15.5</ele>
        <time>2020-06-12T03:51:58Z</time>
      </trkpt>
      <trkpt lat="49.0147" lon="-1.50757">
        <ele>15.5</ele>
        <time>2020-06-12T03:51:59Z</time>
      </trkpt>
      <trkpt lat="49.01475" lon="-1.50758">
        <ele>15.4</ele>
        <time>2020-06-12T03:52:00Z</time>
      </trkpt>
      <trkpt lat="49.0148" lon="-1.50759">
        <ele>15.4</ele>
        <time>2020-06-12T03:52:01Z</time>
      </trkpt>
      <trkpt lat="49.01485" lon="-1.50759">
        <ele>15.3</ele>
        <time>2020-06-12T03:52:02Z</time>
      </trkpt>
      <trkpt lat="49.0149" lon="-1.50759">
        <ele>15.3</ele>
        <time>2020-06-12T03:52:03Z</time>
      </trkpt>
      <trkpt lat="49.01495" lon="-1.50759">
        <ele>15.3</ele>
        <time>2020-06-12T03:52:04Z</time>
      </trkpt>
      <trkpt lat="49.01499" lon="-1.5076">
        <ele>15.3</ele>
        <time>2020-06-12T03:52:05Z</time>
      </trkpt>
      <trkpt lat="49.01504" lon="-1.50761">
        <ele>15.2</ele>
        <time>2020-06-12T03:52:06Z</time>
      </trkpt>
      <trkpt lat="49.01509" lon="-1.50762">
        <ele>15.2</ele>
        <time>2020-06-12T03:52:07Z</time>
      </trkpt>
      <trkpt lat="49.01513" lon="-1.50763">
        <ele>15.2</ele>
        <time>2020-06-12T03:52:08Z</time>
      </trkpt>
      <trkpt lat="49.01518" lon="-1.50764">
        <ele>15.2</ele>
        <time>2020-06-12T03:52:09Z</time>
      </trkpt>
      <trkpt lat="49.01523" lon="-1.50764">
        <ele>15.2</ele>
        <time>2020-06-12T03:52:10Z</time>
      </trkpt>
      <trkpt lat="49.01527" lon="-1.50765">
        <ele>15.2</ele>
        <time>2020-06-12T03:52:11Z</time>
      </trkpt>
      <trkpt lat="49.01531" lon="-1.50766">
        <ele>15.2</ele>
        <time>2020-06-12T03:52:12Z</time>
      </trkpt>
      <trkpt lat="49.01534" lon="-1.50768">
        <ele>15.2</ele>
        <time>2020-06-12T03:52:13Z</time>
      </trkpt>
      <trkpt lat="49.01539" lon="-1.50769">
        <ele>15.2</ele>
        <time>2020-06-12T03:52:14Z</time>
      </trkpt>
      <trkpt lat="49.01542" lon="-1.50779">
        <ele>15.1</ele>
        <time>2020-06-12T03:52:15Z</time>
      </trkpt>
      <trkpt lat="49.01546" lon="-1.5078">
        <ele>15.1</ele>
        <time>2020-06-12T03:52:16Z</time>
      </trkpt>
      <trkpt lat="49.01551" lon="-1.50786">
        <ele>15.1</ele>
        <time>2020-06-12T03:52:17Z</time>
      </trkpt>
      <trkpt lat="49.01556" lon="-1.50796">
        <ele>15.2</ele>
        <time>2020-06-12T03:52:18Z</time>
      </trkpt>
      <trkpt lat="49.01562" lon="-1.50804">
        <ele>15.3</ele>
        <time>2020-06-12T03:52:19Z</time>
      </trkpt>
      <trkpt lat="49.01566" lon="-1.50811">
        <ele>15.5</ele>
        <time>2020-06-12T03:52:20Z</time>
      </trkpt>
      <trkpt lat="49.01571" lon="-1.50818">
        <ele>15.7</ele>
        <time>2020-06-12T03:52:21Z</time>
      </trkpt>
      <trkpt lat="49.01576" lon="-1.50821">
        <ele>15.8</ele>
        <time>2020-06-12T03:52:22Z</time>
      </trkpt>
      <trkpt lat="49.01581" lon="-1.50825">
        <ele>16</ele>
        <time>2020-06-12T03:52:23Z</time>
      </trkpt>
      <trkpt lat="49.01585" lon="-1.50826">
        <ele>16.1</ele>
        <time>2020-06-12T03:52:24Z</time>
      </trkpt>
      <trkpt lat="49.01592" lon="-1.50831">
        <ele>16.3</ele>
        <time>2020-06-12T03:52:25Z</time>
      </trkpt>
      <trkpt lat="49.01598" lon="-1.50833">
        <ele>16.5</ele>
        <time>2020-06-12T03:52:26Z</time>
      </trkpt>
      <trkpt lat="49.01602" lon="-1.50833">
        <ele>16.5</ele>
        <time>2020-06-12T03:52:27Z</time>
      </trkpt>
      <trkpt lat="49.01607" lon="-1.5083">
        <ele>16</ele>
        <time>2020-06-12T03:52:28Z</time>
      </trkpt>
      <trkpt lat="49.01612" lon="-1.50823">
        <ele>15.5</ele>
        <time>2020-06-12T03:52:29Z</time>
      </trkpt>
      <trkpt lat="49.01617" lon="-1.50817">
        <ele>15</ele>
        <time>2020-06-12T03:52:30Z</time>
      </trkpt>
      <trkpt lat="49.01621" lon="-1.5081">
        <ele>14.6</ele>
        <time>2020-06-12T03:52:31Z</time>
      </trkpt>
      <trkpt lat="49.01625" lon="-1.50804">
        <ele>14.2</ele>
        <time>2020-06-12T03:52:32Z</time>
      </trkpt>
      <trkpt lat="49.01631" lon="-1.50798">
        <ele>13.7</ele>
        <time>2020-06-12T03:52:33Z</time>
      </trkpt>
      <trkpt lat="49.01636" lon="-1.50791">
        <ele>13.3</ele>
        <time>2020-06-12T03:52:34Z</time>
      </trkpt>
      <trkpt lat="49.01642" lon="-1.50787">
        <ele>12.9</ele>
        <time>2020-06-12T03:52:35Z</time>
      </trkpt>
      <trkpt lat="49.01648" lon="-1.5078">
        <ele>12.4</ele>
        <time>2020-06-12T03:52:36Z</time>
      </trkpt>
      <trkpt lat="49.01654" lon="-1.50774">
        <ele>12</ele>
        <time>2020-06-12T03:52:37Z</time>
      </trkpt>
      <trkpt lat="49.0166" lon="-1.50768">
        <ele>11.6</ele>
        <time>2020-06-12T03:52:38Z</time>
      </trkpt>
      <trkpt lat="49.01666" lon="-1.50762">
        <ele>11.3</ele>
        <time>2020-06-12T03:52:39Z</time>
      </trkpt>
      <trkpt lat="49.01673" lon="-1.50755">
        <ele>10.9</ele>
        <time>2020-06-12T03:52:40Z</time>
      </trkpt>
      <trkpt lat="49.01679" lon="-1.50749">
        <ele>10.5</ele>
        <time>2020-06-12T03:52:41Z</time>
      </trkpt>
      <trkpt lat="49.01686" lon="-1.50742">
        <ele>10.2</ele>
        <time>2020-06-12T03:52:42Z</time>
      </trkpt>
      <trkpt lat="49.01692" lon="-1.50736">
        <ele>9.9</ele>
        <time>2020-06-12T03:52:43Z</time>
      </trkpt>
      <trkpt lat="49.01697" lon="-1.5073">
        <ele>9.7</ele>
        <time>2020-06-12T03:52:44Z</time>
      </trkpt>
      <trkpt lat="49.01704" lon="-1.50723">
        <ele>9.4</ele>
        <time>2020-06-12T03:52:45Z</time>
      </trkpt>
      <trkpt lat="49.01709" lon="-1.50717">
        <ele>9.2</ele>
        <time>2020-06-12T03:52:46Z</time>
      </trkpt>
      <trkpt lat="49.01714" lon="-1.50711">
        <ele>9</ele>
        <time>2020-06-12T03:52:47Z</time>
      </trkpt>
      <trkpt lat="49.0172" lon="-1.50705">
        <ele>8.9</ele>
        <time>2020-06-12T03:52:48Z</time>
      </trkpt>
      <trkpt lat="49.01726" lon="-1.507">
        <ele>8.7</ele>
        <time>2020-06-12T03:52:49Z</time>
      </trkpt>
      <trkpt lat="49.01732" lon="-1.50694">
        <ele>8.6</ele>
        <time>2020-06-12T03:52:50Z</time>
      </trkpt>
      <trkpt lat="49.01738" lon="-1.5069">
        <ele>8.5</ele>
        <time>2020-06-12T03:52:51Z</time>
      </trkpt>
      <trkpt lat="49.01745" lon="-1.50686">
        <ele>8.3</ele>
        <time>2020-06-12T03:52:52Z</time>
      </trkpt>
      <trkpt lat="49.01752" lon="-1.50681">
        <ele>8.1</ele>
        <time>2020-06-12T03:52:53Z</time>
      </trkpt>
      <trkpt lat="49.01758" lon="-1.50677">
        <ele>8</ele>
        <time>2020-06-12T03:52:54Z</time>
      </trkpt>
      <trkpt lat="49.01763" lon="-1.50672">
        <ele>7.9</ele>
        <time>2020-06-12T03:52:55Z</time>
      </trkpt>
      <trkpt lat="49.01769" lon="-1.50667">
        <ele>7.8</ele>
        <time>2020-06-12T03:52:56Z</time>
      </trkpt>
      <trkpt lat="49.01775" lon="-1.50662">
        <ele>7.7</ele>
        <time>2020-06-12T03:52:57Z</time>
      </trkpt>
      <trkpt lat="49.01781" lon="-1.50657">
        <ele>7.5</ele>
        <time>2020-06-12T03:52:58Z</time>
      </trkpt>
      <trkpt lat="49.01786" lon="-1.5065">
        <ele>7.4</ele>
        <time>2020-06-12T03:52:59Z</time>
      </trkpt>
      <trkpt lat="49.01791" lon="-1.50645">
        <ele>7.4</ele>
        <time>2020-06-12T03:53:00Z</time>
      </trkpt>
      <trkpt lat="49.01797" lon="-1.5064">
        <ele>7.4</ele>
        <time>2020-06-12T03:53:01Z</time>
      </trkpt>
      <trkpt lat="49.01803" lon="-1.50634">
        <ele>7.4</ele>
        <time>2020-06-12T03:53:02Z</time>
      </trkpt>
      <trkpt lat="49.01809" lon="-1.50629">
        <ele>7.4</ele>
        <time>2020-06-12T03:53:03Z</time>
      </trkpt>
      <trkpt lat="49.01814" lon="-1.50624">
        <ele>7.4</ele>
        <time>2020-06-12T03:53:04Z</time>
      </trkpt>
      <trkpt lat="49.0182" lon="-1.5062">
        <ele>7.4</ele>
        <time>2020-06-12T03:53:05Z</time>
      </trkpt>
      <trkpt lat="49.01826" lon="-1.50616">
        <ele>7.5</ele>
        <time>2020-06-12T03:53:06Z</time>
      </trkpt>
      <trkpt lat="49.01831" lon="-1.50609">
        <ele>7.5</ele>
        <time>2020-06-12T03:53:07Z</time>
      </trkpt>
      <trkpt lat="49.01836" lon="-1.50604">
        <ele>7.5</ele>
        <time>2020-06-12T03:53:08Z</time>
      </trkpt>
      <trkpt lat="49.01841" lon="-1.50599">
        <ele>7.6</ele>
        <time>2020-06-12T03:53:09Z</time>
      </trkpt>
      <trkpt lat="49.01847" lon="-1.50595">
        <ele>7.6</ele>
        <time>2020-06-12T03:53:10Z</time>
      </trkpt>
      <trkpt lat="49.01852" lon="-1.50589">
        <ele>7.7</ele>
        <time>2020-06-12T03:53:11Z</time>
      </trkpt>
      <trkpt lat="49.01857" lon="-1.50586">
        <ele>7.7</ele>
        <time>2020-06-12T03:53:12Z</time>
      </trkpt>
      <trkpt lat="49.01863" lon="-1.50581">
        <ele>7.8</ele>
        <time>2020-06-12T03:53:13Z</time>
      </trkpt>
      <trkpt lat="49.01868" lon="-1.50576">
        <ele>7.9</ele>
        <time>2020-06-12T03:53:14Z</time>
      </trkpt>
      <trkpt lat="49.01873" lon="-1.50571">
        <ele>7.9</ele>
        <time>2020-06-12T03:53:15Z</time>
      </trkpt>
      <trkpt lat="49.01878" lon="-1.50569">
        <ele>7.9</ele>
        <time>2020-06-12T03:53:16Z</time>
      </trkpt>
      <trkpt lat="49.01883" lon="-1.50566">
        <ele>8</ele>
        <time>2020-06-12T03:53:17Z</time>
      </trkpt>
      <trkpt lat="49.0189" lon="-1.5056">
        <ele>8</ele>
        <time>2020-06-12T03:53:18Z</time>
      </trkpt>
      <trkpt lat="49.01896" lon="-1.50556">
        <ele>8</ele>
        <time>2020-06-12T03:53:19Z</time>
      </trkpt>
      <trkpt lat="49.01901" lon="-1.50553">
        <ele>8</ele>
        <time>2020-06-12T03:53:20Z</time>
      </trkpt>
      <trkpt lat="49.01906" lon="-1.5055">
        <ele>8</ele>
        <time>2020-06-12T03:53:21Z</time>
      </trkpt>
      <trkpt lat="49.01911" lon="-1.50549">
        <ele>8.1</ele>
        <time>2020-06-12T03:53:22Z</time>
      </trkpt>
      <trkpt lat="49.01917" lon="-1.50546">
        <ele>8.1</ele>
        <time>2020-06-12T03:53:23Z</time>
      </trkpt>
      <trkpt lat="49.01922" lon="-1.50543">
        <ele>8.1</ele>
        <time>2020-06-12T03:53:24Z</time>
      </trkpt>
      <trkpt lat="49.01926" lon="-1.50539">
        <ele>8.1</ele>
        <time>2020-06-12T03:53:25Z</time>
      </trkpt>
      <trkpt lat="49.0193" lon="-1.50534">
        <ele>8.2</ele>
        <time>2020-06-12T03:53:26Z</time>
      </trkpt>
      <trkpt lat="49.01935" lon="-1.5053">
        <ele>8.2</ele>
        <time>2020-06-12T03:53:27Z</time>
      </trkpt>
      <trkpt lat="49.0194" lon="-1.50527">
        <ele>8.2</ele>
        <time>2020-06-12T03:53:28Z</time>
      </trkpt>
      <trkpt lat="49.01944" lon="-1.50523">
        <ele>8.3</ele>
        <time>2020-06-12T03:53:29Z</time>
      </trkpt>
      <trkpt lat="49.01948" lon="-1.5052">
        <ele>8.3</ele>
        <time>2020-06-12T03:53:30Z</time>
      </trkpt>
      <trkpt lat="49.01954" lon="-1.50515">
        <ele>8.4</ele>
        <time>2020-06-12T03:53:31Z</time>
      </trkpt>
      <trkpt lat="49.01959" lon="-1.50511">
        <ele>8.5</ele>
        <time>2020-06-12T03:53:32Z</time>
      </trkpt>
      <trkpt lat="49.01963" lon="-1.50509">
        <ele>8.5</ele>
        <time>2020-06-12T03:53:33Z</time>
      </trkpt>
      <trkpt lat="49.01968" lon="-1.50507">
        <ele>8.6</ele>
        <time>2020-06-12T03:53:34Z</time>
      </trkpt>
      <trkpt lat="49.01973" lon="-1.50503">
        <ele>8.7</ele>
        <time>2020-06-12T03:53:35Z</time>
      </trkpt>
      <trkpt lat="49.01979" lon="-1.505">
        <ele>8.8</ele>
        <time>2020-06-12T03:53:36Z</time>
      </trkpt>
      <trkpt lat="49.01984" lon="-1.50496">
        <ele>8.9</ele>
        <time>2020-06-12T03:53:37Z</time>
      </trkpt>
      <trkpt lat="49.01989" lon="-1.50493">
        <ele>9</ele>
        <time>2020-06-12T03:53:38Z</time>
      </trkpt>
      <trkpt lat="49.01993" lon="-1.5049">
        <ele>9</ele>
        <time>2020-06-12T03:53:39Z</time>
      </trkpt>
      <trkpt lat="49.01998" lon="-1.50487">
        <ele>9.1</ele>
        <time>2020-06-12T03:53:40Z</time>
      </trkpt>
      <trkpt lat="49.02004" lon="-1.50484">
        <ele>9.2</ele>
        <time>2020-06-12T03:53:41Z</time>
      </trkpt>
      <trkpt lat="49.02009" lon="-1.50479">
        <ele>9.1</ele>
        <time>2020-06-12T03:53:42Z</time>
      </trkpt>
      <trkpt lat="49.02014" lon="-1.50476">
        <ele>9.1</ele>
        <time>2020-06-12T03:53:43Z</time>
      </trkpt>
      <trkpt lat="49.02019" lon="-1.50472">
        <ele>9.1</ele>
        <time>2020-06-12T03:53:44Z</time>
      </trkpt>
      <trkpt lat="49.02024" lon="-1.50469">
        <ele>9.2</ele>
        <time>2020-06-12T03:53:45Z</time>
      </trkpt>
      <trkpt lat="49.02028" lon="-1.50465">
        <ele>9.2</ele>
        <time>2020-06-12T03:53:46Z</time>
      </trkpt>
      <trkpt lat="49.02033" lon="-1.50463">
        <ele>9.2</ele>
        <time>2020-06-12T03:53:47Z</time>
      </trkpt>
      <trkpt lat="49.02037" lon="-1.50459">
        <ele>9.3</ele>
        <time>2020-06-12T03:53:48Z</time>
      </trkpt>
      <trkpt lat="49.02041" lon="-1.50456">
        <ele>9.4</ele>
        <time>2020-06-12T03:53:49Z</time>
      </trkpt>
      <trkpt lat="49.02046" lon="-1.50454">
        <ele>9.5</ele>
        <time>2020-06-12T03:53:50Z</time>
      </trkpt>
      <trkpt lat="49.0205" lon="-1.5045">
        <ele>9.6</ele>
        <time>2020-06-12T03:53:51Z</time>
      </trkpt>
      <trkpt lat="49.02054" lon="-1.50446">
        <ele>9.7</ele>
        <time>2020-06-12T03:53:52Z</time>
      </trkpt>
      <trkpt lat="49.02058" lon="-1.50442">
        <ele>9.8</ele>
        <time>2020-06-12T03:53:53Z</time>
      </trkpt>
      <trkpt lat="49.02062" lon="-1.50438">
        <ele>9.9</ele>
        <time>2020-06-12T03:53:54Z</time>
      </trkpt>
      <trkpt lat="49.02067" lon="-1.50435">
        <ele>10.1</ele>
        <time>2020-06-12T03:53:55Z</time>
      </trkpt>
      <trkpt lat="49.02071" lon="-1.50432">
        <ele>10.2</ele>
        <time>2020-06-12T03:53:56Z</time>
      </trkpt>
      <trkpt lat="49.02075" lon="-1.5043">
        <ele>10.4</ele>
        <time>2020-06-12T03:53:57Z</time>
      </trkpt>
      <trkpt lat="49.0208" lon="-1.50428">
        <ele>10.5</ele>
        <time>2020-06-12T03:53:58Z</time>
      </trkpt>
      <trkpt lat="49.02084" lon="-1.50425">
        <ele>10.7</ele>
        <time>2020-06-12T03:53:59Z</time>
      </trkpt>
      <trkpt lat="49.02087" lon="-1.50424">
        <ele>10.8</ele>
        <time>2020-06-12T03:54:00Z</time>
      </trkpt>
      <trkpt lat="49.02091" lon="-1.50422">
        <ele>11</ele>
        <time>2020-06-12T03:54:01Z</time>
      </trkpt>
      <trkpt lat="49.02095" lon="-1.5042">
        <ele>11.1</ele>
        <time>2020-06-12T03:54:02Z</time>
      </trkpt>
      <trkpt lat="49.02099" lon="-1.50417">
        <ele>11.2</ele>
        <time>2020-06-12T03:54:03Z</time>
      </trkpt>
      <trkpt lat="49.02102" lon="-1.50415">
        <ele>11.4</ele>
        <time>2020-06-12T03:54:04Z</time>
      </trkpt>
      <trkpt lat="49.02106" lon="-1.50411">
        <ele>11.5</ele>
        <time>2020-06-12T03:54:05Z</time>
      </trkpt>
      <trkpt lat="49.0211" lon="-1.50409">
        <ele>11.7</ele>
        <time>2020-06-12T03:54:06Z</time>
      </trkpt>
      <trkpt lat="49.02114" lon="-1.50406">
        <ele>11.8</ele>
        <time>2020-06-12T03:54:07Z</time>
      </trkpt>
      <trkpt lat="49.02117" lon="-1.50405">
        <ele>12</ele>
        <time>2020-06-12T03:54:08Z</time>
      </trkpt>
      <trkpt lat="49.02122" lon="-1.50404">
        <ele>12.3</ele>
        <time>2020-06-12T03:54:09Z</time>
      </trkpt>
      <trkpt lat="49.02125" lon="-1.50402">
        <ele>12.4</ele>
        <time>2020-06-12T03:54:10Z</time>
      </trkpt>
      <trkpt lat="49.02129" lon="-1.504">
        <ele>12.5</ele>
        <time>2020-06-12T03:54:11Z</time>
      </trkpt>
      <trkpt lat="49.02133" lon="-1.504">
        <ele>12.6</ele>
        <time>2020-06-12T03:54:12Z</time>
      </trkpt>
      <trkpt lat="49.02134" lon="-1.50399">
        <ele>12.7</ele>
        <time>2020-06-12T03:54:13Z</time>
      </trkpt>
      <trkpt lat="49.02138" lon="-1.50399">
        <ele>12.8</ele>
        <time>2020-06-12T03:54:14Z</time>
      </trkpt>
      <trkpt lat="49.02141" lon="-1.50397">
        <ele>12.9</ele>
        <time>2020-06-12T03:54:15Z</time>
      </trkpt>
      <trkpt lat="49.02144" lon="-1.50397">
        <ele>13</ele>
        <time>2020-06-12T03:54:16Z</time>
      </trkpt>
      <trkpt lat="49.02147" lon="-1.50396">
        <ele>13.1</ele>
        <time>2020-06-12T03:54:17Z</time>
      </trkpt>
      <trkpt lat="49.0215" lon="-1.50396">
        <ele>13.2</ele>
        <time>2020-06-12T03:54:18Z</time>
      </trkpt>
      <trkpt lat="49.02155" lon="-1.50397">
        <ele>13.4</ele>
        <time>2020-06-12T03:54:19Z</time>
      </trkpt>
      <trkpt lat="49.02159" lon="-1.50396">
        <ele>13.5</ele>
        <time>2020-06-12T03:54:20Z</time>
      </trkpt>
      <trkpt lat="49.02163" lon="-1.50396">
        <ele>13.6</ele>
        <time>2020-06-12T03:54:21Z</time>
      </trkpt>
      <trkpt lat="49.02167" lon="-1.50393">
        <ele>13.7</ele>
        <time>2020-06-12T03:54:22Z</time>
      </trkpt>
      <trkpt lat="49.02171" lon="-1.50394">
        <ele>13.8</ele>
        <time>2020-06-12T03:54:23Z</time>
      </trkpt>
      <trkpt lat="49.02176" lon="-1.50393">
        <ele>14</ele>
        <time>2020-06-12T03:54:24Z</time>
      </trkpt>
      <trkpt lat="49.0218" lon="-1.5039">
        <ele>14.1</ele>
        <time>2020-06-12T03:54:25Z</time>
      </trkpt>
      <trkpt lat="49.02184" lon="-1.50387">
        <ele>14.2</ele>
        <time>2020-06-12T03:54:26Z</time>
      </trkpt>
      <trkpt lat="49.02188" lon="-1.50385">
        <ele>14.3</ele>
        <time>2020-06-12T03:54:27Z</time>
      </trkpt>
      <trkpt lat="49.02193" lon="-1.50384">
        <ele>14.4</ele>
        <time>2020-06-12T03:54:28Z</time>
      </trkpt>
      <trkpt lat="49.02197" lon="-1.50383">
        <ele>14.4</ele>
        <time>2020-06-12T03:54:29Z</time>
      </trkpt>
      <trkpt lat="49.02201" lon="-1.50381">
        <ele>14.5</ele>
        <time>2020-06-12T03:54:30Z</time>
      </trkpt>
      <trkpt lat="49.02205" lon="-1.5038">
        <ele>14.5</ele>
        <time>2020-06-12T03:54:31Z</time>
      </trkpt>
      <trkpt lat="49.02209" lon="-1.5038">
        <ele>14.6</ele>
        <time>2020-06-12T03:54:32Z</time>
      </trkpt>
      <trkpt lat="49.02213" lon="-1.50381">
        <ele>14.6</ele>
        <time>2020-06-12T03:54:33Z</time>
      </trkpt>
      <trkpt lat="49.02217" lon="-1.50383">
        <ele>14.7</ele>
        <time>2020-06-12T03:54:34Z</time>
      </trkpt>
      <trkpt lat="49.02221" lon="-1.50386">
        <ele>14.8</ele>
        <time>2020-06-12T03:54:35Z</time>
      </trkpt>
      <trkpt lat="49.02224" lon="-1.50389">
        <ele>14.8</ele>
        <time>2020-06-12T03:54:36Z</time>
      </trkpt>
      <trkpt lat="49.02229" lon="-1.5039">
        <ele>14.8</ele>
        <time>2020-06-12T03:54:37Z</time>
      </trkpt>
      <trkpt lat="49.02233" lon="-1.50393">
        <ele>14.8</ele>
        <time>2020-06-12T03:54:38Z</time>
      </trkpt>
      <trkpt lat="49.02236" lon="-1.50393">
        <ele>14.9</ele>
        <time>2020-06-12T03:54:39Z</time>
      </trkpt>
      <trkpt lat="49.0224" lon="-1.50394">
        <ele>14.9</ele>
        <time>2020-06-12T03:54:40Z</time>
      </trkpt>
      <trkpt lat="49.02244" lon="-1.50396">
        <ele>15</ele>
        <time>2020-06-12T03:54:41Z</time>
      </trkpt>
      <trkpt lat="49.02248" lon="-1.50397">
        <ele>15.1</ele>
        <time>2020-06-12T03:54:42Z</time>
      </trkpt>
      <trkpt lat="49.02251" lon="-1.50399">
        <ele>15.2</ele>
        <time>2020-06-12T03:54:43Z</time>
      </trkpt>
      <trkpt lat="49.02254" lon="-1.50401">
        <ele>15.2</ele>
        <time>2020-06-12T03:54:44Z</time>
      </trkpt>
      <trkpt lat="49.02258" lon="-1.50403">
        <ele>15.3</ele>
        <time>2020-06-12T03:54:45Z</time>
      </trkpt>
      <trkpt lat="49.02261" lon="-1.50405">
        <ele>15.4</ele>
        <time>2020-06-12T03:54:46Z</time>
      </trkpt>
      <trkpt lat="49.02265" lon="-1.50407">
        <ele>15.5</ele>
        <time>2020-06-12T03:54:47Z</time>
      </trkpt>
      <trkpt lat="49.02268" lon="-1.50409">
        <ele>15.6</ele>
        <time>2020-06-12T03:54:48Z</time>
      </trkpt>
      <trkpt lat="49.02271" lon="-1.50411">
        <ele>15.6</ele>
        <time>2020-06-12T03:54:49Z</time>
      </trkpt>
      <trkpt lat="49.02275" lon="-1.50413">
        <ele>15.7</ele>
        <time>2020-06-12T03:54:50Z</time>
      </trkpt>
      <trkpt lat="49.02279" lon="-1.50415">
        <ele>15.8</ele>
        <time>2020-06-12T03:54:51Z</time>
      </trkpt>
      <trkpt lat="49.02282" lon="-1.50417">
        <ele>15.8</ele>
        <time>2020-06-12T03:54:52Z</time>
      </trkpt>
      <trkpt lat="49.02286" lon="-1.50419">
        <ele>15.9</ele>
        <time>2020-06-12T03:54:53Z</time>
      </trkpt>
      <trkpt lat="49.02289" lon="-1.50421">
        <ele>16</ele>
        <time>2020-06-12T03:54:54Z</time>
      </trkpt>
      <trkpt lat="49.02293" lon="-1.50423">
        <ele>16</ele>
        <time>2020-06-12T03:54:55Z</time>
      </trkpt>
      <trkpt lat="49.02297" lon="-1.50425">
        <ele>16.1</ele>
        <time>2020-06-12T03:54:56Z</time>
      </trkpt>
      <trkpt lat="49.02301" lon="-1.50427">
        <ele>16.2</ele>
        <time>2020-06-12T03:54:57Z</time>
      </trkpt>
      <trkpt lat="49.02306" lon="-1.5043">
        <ele>16.3</ele>
        <time>2020-06-12T03:54:58Z</time>
      </trkpt>
      <trkpt lat="49.02309" lon="-1.50432">
        <ele>16.3</ele>
        <time>2020-06-12T03:54:59Z</time>
      </trkpt>
      <trkpt lat="49.02314" lon="-1.50435">
        <ele>16.4</ele>
        <time>2020-06-12T03:55:00Z</time>
      </trkpt>
      <trkpt lat="49.02318" lon="-1.50438">
        <ele>16.4</ele>
        <time>2020-06-12T03:55:01Z</time>
      </trkpt>
      <trkpt lat="49.02322" lon="-1.50442">
        <ele>16.5</ele>
        <time>2020-06-12T03:55:02Z</time>
      </trkpt>
      <trkpt lat="49.02327" lon="-1.50444">
        <ele>16.5</ele>
        <time>2020-06-12T03:55:03Z</time>
      </trkpt>
      <trkpt lat="49.02331" lon="-1.50449">
        <ele>16.5</ele>
        <time>2020-06-12T03:55:04Z</time>
      </trkpt>
      <trkpt lat="49.02336" lon="-1.50452">
        <ele>16.5</ele>
        <time>2020-06-12T03:55:05Z</time>
      </trkpt>
      <trkpt lat="49.0234" lon="-1.50456">
        <ele>16.6</ele>
        <time>2020-06-12T03:55:06Z</time>
      </trkpt>
      <trkpt lat="49.02344" lon="-1.5046">
        <ele>16.6</ele>
        <time>2020-06-12T03:55:07Z</time>
      </trkpt>
      <trkpt lat="49.02349" lon="-1.50464">
        <ele>16.6</ele>
        <time>2020-06-12T03:55:08Z</time>
      </trkpt>
      <trkpt lat="49.02353" lon="-1.50467">
        <ele>16.6</ele>
        <time>2020-06-12T03:55:09Z</time>
      </trkpt>
      <trkpt lat="49.02357" lon="-1.5047">
        <ele>16.6</ele>
        <time>2020-06-12T03:55:10Z</time>
      </trkpt>
      <trkpt lat="49.02361" lon="-1.50475">
        <ele>16.6</ele>
        <time>2020-06-12T03:55:11Z</time>
      </trkpt>
      <trkpt lat="49.02366" lon="-1.50479">
        <ele>16.6</ele>
        <time>2020-06-12T03:55:12Z</time>
      </trkpt>
      <trkpt lat="49.02371" lon="-1.50482">
        <ele>16.7</ele>
        <time>2020-06-12T03:55:13Z</time>
      </trkpt>
      <trkpt lat="49.02374" lon="-1.50486">
        <ele>16.7</ele>
        <time>2020-06-12T03:55:14Z</time>
      </trkpt>
      <trkpt lat="49.02378" lon="-1.50489">
        <ele>16.7</ele>
        <time>2020-06-12T03:55:15Z</time>
      </trkpt>
      <trkpt lat="49.02382" lon="-1.50493">
        <ele>16.7</ele>
        <time>2020-06-12T03:55:16Z</time>
      </trkpt>
      <trkpt lat="49.02386" lon="-1.50497">
        <ele>16.6</ele>
        <time>2020-06-12T03:55:17Z</time>
      </trkpt>
      <trkpt lat="49.02391" lon="-1.50501">
        <ele>16.6</ele>
        <time>2020-06-12T03:55:18Z</time>
      </trkpt>
      <trkpt lat="49.02395" lon="-1.50505">
        <ele>16.6</ele>
        <time>2020-06-12T03:55:19Z</time>
      </trkpt>
      <trkpt lat="49.02399" lon="-1.50508">
        <ele>16.6</ele>
        <time>2020-06-12T03:55:20Z</time>
      </trkpt>
      <trkpt lat="49.02403" lon="-1.50511">
        <ele>16.5</ele>
        <time>2020-06-12T03:55:21Z</time>
      </trkpt>
      <trkpt lat="49.02408" lon="-1.50515">
        <ele>16.5</ele>
        <time>2020-06-12T03:55:22Z</time>
      </trkpt>
      <trkpt lat="49.02412" lon="-1.50519">
        <ele>16.5</ele>
        <time>2020-06-12T03:55:23Z</time>
      </trkpt>
      <trkpt lat="49.02416" lon="-1.50523">
        <ele>16.5</ele>
        <time>2020-06-12T03:55:24Z</time>
      </trkpt>
      <trkpt lat="49.0242" lon="-1.50527">
        <ele>16.5</ele>
        <time>2020-06-12T03:55:25Z</time>
      </trkpt>
      <trkpt lat="49.02425" lon="-1.50531">
        <ele>16.5</ele>
        <time>2020-06-12T03:55:26Z</time>
      </trkpt>
      <trkpt lat="49.02429" lon="-1.50535">
        <ele>16.5</ele>
        <time>2020-06-12T03:55:27Z</time>
      </trkpt>
      <trkpt lat="49.02433" lon="-1.5054">
        <ele>16.5</ele>
        <time>2020-06-12T03:55:28Z</time>
      </trkpt>
      <trkpt lat="49.02437" lon="-1.50543">
        <ele>16.5</ele>
        <time>2020-06-12T03:55:29Z</time>
      </trkpt>
      <trkpt lat="49.02441" lon="-1.50547">
        <ele>16.5</ele>
        <time>2020-06-12T03:55:30Z</time>
      </trkpt>
      <trkpt lat="49.02445" lon="-1.50551">
        <ele>16.4</ele>
        <time>2020-06-12T03:55:31Z</time>
      </trkpt>
      <trkpt lat="49.0245" lon="-1.50555">
        <ele>16.4</ele>
        <time>2020-06-12T03:55:32Z</time>
      </trkpt>
      <trkpt lat="49.02454" lon="-1.5056">
        <ele>16.3</ele>
        <time>2020-06-12T03:55:33Z</time>
      </trkpt>
      <trkpt lat="49.02458" lon="-1.50563">
        <ele>16.2</ele>
        <time>2020-06-12T03:55:34Z</time>
      </trkpt>
      <trkpt lat="49.02462" lon="-1.50567">
        <ele>16.1</ele>
        <time>2020-06-12T03:55:35Z</time>
      </trkpt>
      <trkpt lat="49.02467" lon="-1.50569">
        <ele>16.1</ele>
        <time>2020-06-12T03:55:36Z</time>
      </trkpt>
      <trkpt lat="49.02471" lon="-1.50573">
        <ele>16</ele>
        <time>2020-06-12T03:55:37Z</time>
      </trkpt>
      <trkpt lat="49.02475" lon="-1.50577">
        <ele>15.9</ele>
        <time>2020-06-12T03:55:38Z</time>
      </trkpt>
      <trkpt lat="49.0248" lon="-1.50581">
        <ele>15.9</ele>
        <time>2020-06-12T03:55:39Z</time>
      </trkpt>
      <trkpt lat="49.02484" lon="-1.50586">
        <ele>15.8</ele>
        <time>2020-06-12T03:55:40Z</time>
      </trkpt>
      <trkpt lat="49.02489" lon="-1.5059">
        <ele>15.7</ele>
        <time>2020-06-12T03:55:41Z</time>
      </trkpt>
      <trkpt lat="49.02494" lon="-1.50594">
        <ele>15.6</ele>
        <time>2020-06-12T03:55:42Z</time>
      </trkpt>
      <trkpt lat="49.02499" lon="-1.50598">
        <ele>15.5</ele>
        <time>2020-06-12T03:55:43Z</time>
      </trkpt>
      <trkpt lat="49.02504" lon="-1.50603">
        <ele>15.4</ele>
        <time>2020-06-12T03:55:44Z</time>
      </trkpt>
      <trkpt lat="49.02508" lon="-1.50607">
        <ele>15.3</ele>
        <time>2020-06-12T03:55:45Z</time>
      </trkpt>
      <trkpt lat="49.02514" lon="-1.50611">
        <ele>15.2</ele>
        <time>2020-06-12T03:55:46Z</time>
      </trkpt>
      <trkpt lat="49.02519" lon="-1.50616">
        <ele>15.1</ele>
        <time>2020-06-12T03:55:47Z</time>
      </trkpt>
      <trkpt lat="49.02524" lon="-1.50621">
        <ele>14.9</ele>
        <time>2020-06-12T03:55:48Z</time>
      </trkpt>
      <trkpt lat="49.02531" lon="-1.50625">
        <ele>14.8</ele>
        <time>2020-06-12T03:55:49Z</time>
      </trkpt>
      <trkpt lat="49.02535" lon="-1.5063">
        <ele>14.7</ele>
        <time>2020-06-12T03:55:50Z</time>
      </trkpt>
      <trkpt lat="49.0254" lon="-1.50635">
        <ele>14.6</ele>
        <time>2020-06-12T03:55:51Z</time>
      </trkpt>
      <trkpt lat="49.02543" lon="-1.5064">
        <ele>14.5</ele>
        <time>2020-06-12T03:55:52Z</time>
      </trkpt>
      <trkpt lat="49.02548" lon="-1.50644">
        <ele>14.4</ele>
        <time>2020-06-12T03:55:53Z</time>
      </trkpt>
      <trkpt lat="49.02552" lon="-1.50649">
        <ele>14.2</ele>
        <time>2020-06-12T03:55:54Z</time>
      </trkpt>
      <trkpt lat="49.02557" lon="-1.50654">
        <ele>14.1</ele>
        <time>2020-06-12T03:55:55Z</time>
      </trkpt>
      <trkpt lat="49.02562" lon="-1.5066">
        <ele>14</ele>
        <time>2020-06-12T03:55:56Z</time>
      </trkpt>
      <trkpt lat="49.02567" lon="-1.50666">
        <ele>13.9</ele>
        <time>2020-06-12T03:55:57Z</time>
      </trkpt>
      <trkpt lat="49.02571" lon="-1.5067">
        <ele>13.9</ele>
        <time>2020-06-12T03:55:58Z</time>
      </trkpt>
      <trkpt lat="49.02577" lon="-1.50676">
        <ele>13.8</ele>
        <time>2020-06-12T03:55:59Z</time>
      </trkpt>
      <trkpt lat="49.02582" lon="-1.50681">
        <ele>13.8</ele>
        <time>2020-06-12T03:56:00Z</time>
      </trkpt>
      <trkpt lat="49.02586" lon="-1.50687">
        <ele>13.8</ele>
        <time>2020-06-12T03:56:01Z</time>
      </trkpt>
      <trkpt lat="49.02591" lon="-1.50692">
        <ele>13.8</ele>
        <time>2020-06-12T03:56:02Z</time>
      </trkpt>
      <trkpt lat="49.02595" lon="-1.50697">
        <ele>13.7</ele>
        <time>2020-06-12T03:56:03Z</time>
      </trkpt>
      <trkpt lat="49.02599" lon="-1.50701">
        <ele>13.7</ele>
        <time>2020-06-12T03:56:04Z</time>
      </trkpt>
      <trkpt lat="49.02602" lon="-1.50708">
        <ele>13.6</ele>
        <time>2020-06-12T03:56:05Z</time>
      </trkpt>
      <trkpt lat="49.02607" lon="-1.50715">
        <ele>13.4</ele>
        <time>2020-06-12T03:56:06Z</time>
      </trkpt>
      <trkpt lat="49.02613" lon="-1.50722">
        <ele>13.3</ele>
        <time>2020-06-12T03:56:07Z</time>
      </trkpt>
      <trkpt lat="49.02618" lon="-1.50728">
        <ele>13.1</ele>
        <time>2020-06-12T03:56:08Z</time>
      </trkpt>
      <trkpt lat="49.02623" lon="-1.50734">
        <ele>13</ele>
        <time>2020-06-12T03:56:09Z</time>
      </trkpt>
      <trkpt lat="49.02628" lon="-1.5074">
        <ele>12.8</ele>
        <time>2020-06-12T03:56:10Z</time>
      </trkpt>
      <trkpt lat="49.02632" lon="-1.50747">
        <ele>12.7</ele>
        <time>2020-06-12T03:56:11Z</time>
      </trkpt>
      <trkpt lat="49.02636" lon="-1.50752">
        <ele>12.6</ele>
        <time>2020-06-12T03:56:12Z</time>
      </trkpt>
      <trkpt lat="49.02641" lon="-1.50758">
        <ele>12.5</ele>
        <time>2020-06-12T03:56:13Z</time>
      </trkpt>
      <trkpt lat="49.02645" lon="-1.50764">
        <ele>12.4</ele>
        <time>2020-06-12T03:56:14Z</time>
      </trkpt>
      <trkpt lat="49.02651" lon="-1.5077">
        <ele>12.4</ele>
        <time>2020-06-12T03:56:15Z</time>
      </trkpt>
      <trkpt lat="49.02655" lon="-1.50776">
        <ele>12.3</ele>
        <time>2020-06-12T03:56:16Z</time>
      </trkpt>
      <trkpt lat="49.02659" lon="-1.50783">
        <ele>12.3</ele>
        <time>2020-06-12T03:56:17Z</time>
      </trkpt>
      <trkpt lat="49.02663" lon="-1.5079">
        <ele>12.2</ele>
        <time>2020-06-12T03:56:18Z</time>
      </trkpt>
      <trkpt lat="49.02668" lon="-1.50797">
        <ele>12.2</ele>
        <time>2020-06-12T03:56:19Z</time>
      </trkpt>
      <trkpt lat="49.02673" lon="-1.50803">
        <ele>12.2</ele>
        <time>2020-06-12T03:56:20Z</time>
      </trkpt>
      <trkpt lat="49.02678" lon="-1.50809">
        <ele>12.3</ele>
        <time>2020-06-12T03:56:21Z</time>
      </trkpt>
      <trkpt lat="49.02684" lon="-1.50817">
        <ele>12.2</ele>
        <time>2020-06-12T03:56:22Z</time>
      </trkpt>
      <trkpt lat="49.02688" lon="-1.50823">
        <ele>12.2</ele>
        <time>2020-06-12T03:56:23Z</time>
      </trkpt>
      <trkpt lat="49.02692" lon="-1.5083">
        <ele>12.1</ele>
        <time>2020-06-12T03:56:24Z</time>
      </trkpt>
      <trkpt lat="49.02696" lon="-1.50835">
        <ele>12.1</ele>
        <time>2020-06-12T03:56:25Z</time>
      </trkpt>
      <trkpt lat="49.027" lon="-1.50842">
        <ele>12</ele>
        <time>2020-06-12T03:56:26Z</time>
      </trkpt>
      <trkpt lat="49.02703" lon="-1.50849">
        <ele>12</ele>
        <time>2020-06-12T03:56:27Z</time>
      </trkpt>
      <trkpt lat="49.02709" lon="-1.50857">
        <ele>11.9</ele>
        <time>2020-06-12T03:56:28Z</time>
      </trkpt>
      <trkpt lat="49.02712" lon="-1.50863">
        <ele>11.9</ele>
        <time>2020-06-12T03:56:29Z</time>
      </trkpt>
      <trkpt lat="49.02715" lon="-1.50869">
        <ele>11.9</ele>
        <time>2020-06-12T03:56:30Z</time>
      </trkpt>
      <trkpt lat="49.02719" lon="-1.50876">
        <ele>11.9</ele>
        <time>2020-06-12T03:56:31Z</time>
      </trkpt>
      <trkpt lat="49.02721" lon="-1.50883">
        <ele>11.9</ele>
        <time>2020-06-12T03:56:32Z</time>
      </trkpt>
      <trkpt lat="49.02725" lon="-1.50889">
        <ele>11.9</ele>
        <time>2020-06-12T03:56:33Z</time>
      </trkpt>
      <trkpt lat="49.02728" lon="-1.50894">
        <ele>11.9</ele>
        <time>2020-06-12T03:56:34Z</time>
      </trkpt>
      <trkpt lat="49.02732" lon="-1.50901">
        <ele>11.9</ele>
        <time>2020-06-12T03:56:35Z</time>
      </trkpt>
      <trkpt lat="49.02735" lon="-1.50905">
        <ele>11.9</ele>
        <time>2020-06-12T03:56:36Z</time>
      </trkpt>
      <trkpt lat="49.02736" lon="-1.50905">
        <ele>11.9</ele>
        <time>2020-06-12T03:56:37Z</time>
      </trkpt>
      <trkpt lat="49.02737" lon="-1.50909">
        <ele>12</ele>
        <time>2020-06-12T03:56:38Z</time>
      </trkpt>
      <trkpt lat="49.0274" lon="-1.50913">
        <ele>11.9</ele>
        <time>2020-06-12T03:56:39Z</time>
      </trkpt>
      <trkpt lat="49.02741" lon="-1.50914">
        <ele>11.9</ele>
        <time>2020-06-12T03:56:40Z</time>
      </trkpt>
      <trkpt lat="49.02743" lon="-1.5092">
        <ele>11.9</ele>
        <time>2020-06-12T03:56:41Z</time>
      </trkpt>
      <trkpt lat="49.02745" lon="-1.50922">
        <ele>11.9</ele>
        <time>2020-06-12T03:56:42Z</time>
      </trkpt>
      <trkpt lat="49.02747" lon="-1.50926">
        <ele>11.9</ele>
        <time>2020-06-12T03:56:43Z</time>
      </trkpt>
      <trkpt lat="49.02748" lon="-1.50927">
        <ele>11.9</ele>
        <time>2020-06-12T03:56:44Z</time>
      </trkpt>
      <trkpt lat="49.02751" lon="-1.5093">
        <ele>11.9</ele>
        <time>2020-06-12T03:56:45Z</time>
      </trkpt>
      <trkpt lat="49.02752" lon="-1.50932">
        <ele>11.9</ele>
        <time>2020-06-12T03:56:46Z</time>
      </trkpt>
      <trkpt lat="49.02754" lon="-1.50934">
        <ele>11.9</ele>
        <time>2020-06-12T03:56:47Z</time>
      </trkpt>
      <trkpt lat="49.02755" lon="-1.50936">
        <ele>11.9</ele>
        <time>2020-06-12T03:56:48Z</time>
      </trkpt>
      <trkpt lat="49.02756" lon="-1.50937">
        <ele>11.9</ele>
        <time>2020-06-12T03:56:49Z</time>
      </trkpt>
      <trkpt lat="49.02758" lon="-1.50939">
        <ele>11.9</ele>
        <time>2020-06-12T03:56:50Z</time>
      </trkpt>
      <trkpt lat="49.02759" lon="-1.5094">
        <ele>11.9</ele>
        <time>2020-06-12T03:56:51Z</time>
      </trkpt>
      <trkpt lat="49.02761" lon="-1.50941">
        <ele>11.9</ele>
        <time>2020-06-12T03:56:52Z</time>
      </trkpt>
      <trkpt lat="49.02762" lon="-1.50944">
        <ele>11.9</ele>
        <time>2020-06-12T03:56:53Z</time>
      </trkpt>
      <trkpt lat="49.02763" lon="-1.50945">
        <ele>11.9</ele>
        <time>2020-06-12T03:56:54Z</time>
      </trkpt>
      <trkpt lat="49.02763" lon="-1.50947">
        <ele>11.9</ele>
        <time>2020-06-12T03:56:55Z</time>
      </trkpt>
      <trkpt lat="49.02763" lon="-1.50947">
        <ele>11.9</ele>
        <time>2020-06-12T03:56:56Z</time>
      </trkpt>
      <trkpt lat="49.02762" lon="-1.50948">
        <ele>11.9</ele>
        <time>2020-06-12T03:56:57Z</time>
      </trkpt>
      <trkpt lat="49.02761" lon="-1.50947">
        <ele>11.9</ele>
        <time>2020-06-12T03:56:58Z</time>
      </trkpt>
      <trkpt lat="49.02761" lon="-1.50946">
        <ele>11.9</ele>
        <time>2020-06-12T03:56:59Z</time>
      </trkpt>
      <trkpt lat="49.02761" lon="-1.50946">
        <ele>11.9</ele>
        <time>2020-06-12T03:57:00Z</time>
      </trkpt>
      <trkpt lat="49.0276" lon="-1.50946">
        <ele>11.9</ele>
        <time>2020-06-12T03:57:01Z</time>
      </trkpt>
      <trkpt lat="49.0276" lon="-1.50946">
        <ele>11.9</ele>
        <time>2020-06-12T03:57:02Z</time>
      </trkpt>
      <trkpt lat="49.0276" lon="-1.50947">
        <ele>11.9</ele>
        <time>2020-06-12T03:57:03Z</time>
      </trkpt>
      <trkpt lat="49.0276" lon="-1.50947">
        <ele>11.9</ele>
        <time>2020-06-12T03:57:04Z</time>
      </trkpt>
      <trkpt lat="49.0276" lon="-1.50948">
        <ele>11.9</ele>
        <time>2020-06-12T03:57:05Z</time>
      </trkpt>
      <trkpt lat="49.02764" lon="-1.50949">
        <ele>11.9</ele>
        <time>2020-06-12T03:58:02Z</time>
      </trkpt>
      <trkpt lat="49.02765" lon="-1.5095">
        <ele>11.9</ele>
        <time>2020-06-12T03:58:03Z</time>
      </trkpt>
      <trkpt lat="49.02766" lon="-1.50951">
        <ele>11.9</ele>
        <time>2020-06-12T03:58:04Z</time>
      </trkpt>
      <trkpt lat="49.02767" lon="-1.50951">
        <ele>11.9</ele>
        <time>2020-06-12T03:58:05Z</time>
      </trkpt>
      <trkpt lat="49.02767" lon="-1.5095">
        <ele>11.9</ele>
        <time>2020-06-12T03:58:06Z</time>
      </trkpt>
      <trkpt lat="49.02767" lon="-1.5095">
        <ele>11.9</ele>
        <time>2020-06-12T03:58:07Z</time>
      </trkpt>
      <trkpt lat="49.02768" lon="-1.5095">
        <ele>11.9</ele>
        <time>2020-06-12T03:58:08Z</time>
      </trkpt>
      <trkpt lat="49.02768" lon="-1.50949">
        <ele>11.9</ele>
        <time>2020-06-12T03:58:09Z</time>
      </trkpt>
      <trkpt lat="49.02769" lon="-1.50949">
        <ele>11.9</ele>
        <time>2020-06-12T03:58:10Z</time>
      </trkpt>
      <trkpt lat="49.02769" lon="-1.50949">
        <ele>11.9</ele>
        <time>2020-06-12T03:58:11Z</time>
      </trkpt>
      <trkpt lat="49.0277" lon="-1.50948">
        <ele>11.9</ele>
        <time>2020-06-12T03:58:12Z</time>
      </trkpt>
      <trkpt lat="49.0277" lon="-1.50948">
        <ele>11.9</ele>
        <time>2020-06-12T03:58:13Z</time>
      </trkpt>
      <trkpt lat="49.0277" lon="-1.50948">
        <ele>11.9</ele>
        <time>2020-06-12T03:58:14Z</time>
      </trkpt>
      <trkpt lat="49.02771" lon="-1.50947">
        <ele>11.9</ele>
        <time>2020-06-12T03:59:06Z</time>
      </trkpt>
      <trkpt lat="49.02771" lon="-1.50947">
        <ele>11.9</ele>
        <time>2020-06-12T03:59:07Z</time>
      </trkpt>
      <trkpt lat="49.02772" lon="-1.50947">
        <ele>11.8</ele>
        <time>2020-06-12T03:59:08Z</time>
      </trkpt>
      <trkpt lat="49.02772" lon="-1.50946">
        <ele>11.8</ele>
        <time>2020-06-12T03:59:09Z</time>
      </trkpt>
      <trkpt lat="49.02772" lon="-1.50946">
        <ele>11.8</ele>
        <time>2020-06-12T03:59:10Z</time>
      </trkpt>
      <trkpt lat="49.02773" lon="-1.50946">
        <ele>11.8</ele>
        <time>2020-06-12T03:59:11Z</time>
      </trkpt>
      <trkpt lat="49.02773" lon="-1.50945">
        <ele>11.8</ele>
        <time>2020-06-12T03:59:12Z</time>
      </trkpt>
      <trkpt lat="49.02774" lon="-1.50945">
        <ele>11.8</ele>
        <time>2020-06-12T03:59:13Z</time>
      </trkpt>
      <trkpt lat="49.02774" lon="-1.50945">
        <ele>11.8</ele>
        <time>2020-06-12T03:59:14Z</time>
      </trkpt>
      <trkpt lat="49.02774" lon="-1.50944">
        <ele>11.8</ele>
        <time>2020-06-12T03:59:15Z</time>
      </trkpt>
      <trkpt lat="49.02775" lon="-1.50944">
        <ele>11.8</ele>
        <time>2020-06-12T03:59:16Z</time>
      </trkpt>
      <trkpt lat="49.02775" lon="-1.50944">
        <ele>11.8</ele>
        <time>2020-06-12T03:59:17Z</time>
      </trkpt>
      <trkpt lat="49.02776" lon="-1.50943">
        <ele>11.8</ele>
        <time>2020-06-12T04:04:26Z</time>
      </trkpt>
      <trkpt lat="49.02776" lon="-1.50943">
        <ele>11.8</ele>
        <time>2020-06-12T04:04:27Z</time>
      </trkpt>
      <trkpt lat="49.0278" lon="-1.50943">
        <ele>11.7</ele>
        <time>2020-06-12T04:04:28Z</time>
      </trkpt>
      <trkpt lat="49.02783" lon="-1.50943">
        <ele>11.7</ele>
        <time>2020-06-12T04:04:29Z</time>
      </trkpt>
      <trkpt lat="49.02786" lon="-1.50944">
        <ele>11.6</ele>
        <time>2020-06-12T04:04:30Z</time>
      </trkpt>
      <trkpt lat="49.0279" lon="-1.50946">
        <ele>11.5</ele>
        <time>2020-06-12T04:04:31Z</time>
      </trkpt>
      <trkpt lat="49.02794" lon="-1.50945">
        <ele>11.4</ele>
        <time>2020-06-12T04:04:32Z</time>
      </trkpt>
      <trkpt lat="49.02798" lon="-1.50948">
        <ele>11.3</ele>
        <time>2020-06-12T04:04:33Z</time>
      </trkpt>
      <trkpt lat="49.02803" lon="-1.50951">
        <ele>11.1</ele>
        <time>2020-06-12T04:04:34Z</time>
      </trkpt>
      <trkpt lat="49.02807" lon="-1.50955">
        <ele>11</ele>
        <time>2020-06-12T04:04:35Z</time>
      </trkpt>
      <trkpt lat="49.02811" lon="-1.50959">
        <ele>10.9</ele>
        <time>2020-06-12T04:04:36Z</time>
      </trkpt>
      <trkpt lat="49.02816" lon="-1.50965">
        <ele>10.8</ele>
        <time>2020-06-12T04:04:37Z</time>
      </trkpt>
      <trkpt lat="49.02821" lon="-1.50969">
        <ele>10.7</ele>
        <time>2020-06-12T04:04:38Z</time>
      </trkpt>
      <trkpt lat="49.02826" lon="-1.50974">
        <ele>10.7</ele>
        <time>2020-06-12T04:04:39Z</time>
      </trkpt>
      <trkpt lat="49.0283" lon="-1.50979">
        <ele>10.7</ele>
        <time>2020-06-12T04:04:40Z</time>
      </trkpt>
      <trkpt lat="49.02834" lon="-1.50983">
        <ele>10.7</ele>
        <time>2020-06-12T04:04:41Z</time>
      </trkpt>
      <trkpt lat="49.02837" lon="-1.50988">
        <ele>10.8</ele>
        <time>2020-06-12T04:04:42Z</time>
      </trkpt>
      <trkpt lat="49.0284" lon="-1.50993">
        <ele>10.8</ele>
        <time>2020-06-12T04:04:43Z</time>
      </trkpt>
      <trkpt lat="49.02843" lon="-1.50996">
        <ele>10.9</ele>
        <time>2020-06-12T04:04:44Z</time>
      </trkpt>
      <trkpt lat="49.02847" lon="-1.51">
        <ele>11</ele>
        <time>2020-06-12T04:04:45Z</time>
      </trkpt>
      <trkpt lat="49.02849" lon="-1.51004">
        <ele>11.1</ele>
        <time>2020-06-12T04:04:46Z</time>
      </trkpt>
      <trkpt lat="49.02853" lon="-1.51007">
        <ele>11.2</ele>
        <time>2020-06-12T04:04:47Z</time>
      </trkpt>
      <trkpt lat="49.02856" lon="-1.5101">
        <ele>11.3</ele>
        <time>2020-06-12T04:04:48Z</time>
      </trkpt>
      <trkpt lat="49.02859" lon="-1.51014">
        <ele>11.4</ele>
        <time>2020-06-12T04:04:49Z</time>
      </trkpt>
      <trkpt lat="49.02863" lon="-1.51017">
        <ele>11.5</ele>
        <time>2020-06-12T04:04:50Z</time>
      </trkpt>
      <trkpt lat="49.02865" lon="-1.51024">
        <ele>11.6</ele>
        <time>2020-06-12T04:04:51Z</time>
      </trkpt>
      <trkpt lat="49.02868" lon="-1.51028">
        <ele>11.7</ele>
        <time>2020-06-12T04:04:52Z</time>
      </trkpt>
      <trkpt lat="49.02871" lon="-1.51032">
        <ele>11.9</ele>
        <time>2020-06-12T04:04:53Z</time>
      </trkpt>
      <trkpt lat="49.02873" lon="-1.51036">
        <ele>12</ele>
        <time>2020-06-12T04:04:54Z</time>
      </trkpt>
      <trkpt lat="49.02876" lon="-1.51039">
        <ele>12.2</ele>
        <time>2020-06-12T04:04:55Z</time>
      </trkpt>
      <trkpt lat="49.02878" lon="-1.51042">
        <ele>12.3</ele>
        <time>2020-06-12T04:04:56Z</time>
      </trkpt>
      <trkpt lat="49.02881" lon="-1.51046">
        <ele>12.4</ele>
        <time>2020-06-12T04:04:57Z</time>
      </trkpt>
      <trkpt lat="49.02884" lon="-1.51048">
        <ele>12.5</ele>
        <time>2020-06-12T04:04:58Z</time>
      </trkpt>
      <trkpt lat="49.02887" lon="-1.51052">
        <ele>12.6</ele>
        <time>2020-06-12T04:04:59Z</time>
      </trkpt>
      <trkpt lat="49.0289" lon="-1.51055">
        <ele>12.8</ele>
        <time>2020-06-12T04:05:00Z</time>
      </trkpt>
      <trkpt lat="49.02893" lon="-1.51058">
        <ele>12.9</ele>
        <time>2020-06-12T04:05:01Z</time>
      </trkpt>
      <trkpt lat="49.02896" lon="-1.51061">
        <ele>13.1</ele>
        <time>2020-06-12T04:05:02Z</time>
      </trkpt>
      <trkpt lat="49.02898" lon="-1.51063">
        <ele>13.2</ele>
        <time>2020-06-12T04:05:03Z</time>
      </trkpt>
      <trkpt lat="49.02901" lon="-1.51066">
        <ele>13.4</ele>
        <time>2020-06-12T04:05:04Z</time>
      </trkpt>
      <trkpt lat="49.02905" lon="-1.51069">
        <ele>13.6</ele>
        <time>2020-06-12T04:05:05Z</time>
      </trkpt>
      <trkpt lat="49.02906" lon="-1.51071">
        <ele>13.7</ele>
        <time>2020-06-12T04:05:06Z</time>
      </trkpt>
      <trkpt lat="49.02908" lon="-1.51074">
        <ele>13.8</ele>
        <time>2020-06-12T04:05:07Z</time>
      </trkpt>
      <trkpt lat="49.02911" lon="-1.51077">
        <ele>14</ele>
        <time>2020-06-12T04:05:08Z</time>
      </trkpt>
      <trkpt lat="49.02913" lon="-1.51081">
        <ele>14.2</ele>
        <time>2020-06-12T04:05:09Z</time>
      </trkpt>
      <trkpt lat="49.02916" lon="-1.51086">
        <ele>14.4</ele>
        <time>2020-06-12T04:05:10Z</time>
      </trkpt>
      <trkpt lat="49.02918" lon="-1.51089">
        <ele>14.5</ele>
        <time>2020-06-12T04:05:11Z</time>
      </trkpt>
      <trkpt lat="49.02921" lon="-1.51093">
        <ele>14.7</ele>
        <time>2020-06-12T04:05:12Z</time>
      </trkpt>
      <trkpt lat="49.02923" lon="-1.51096">
        <ele>14.9</ele>
        <time>2020-06-12T04:05:13Z</time>
      </trkpt>
      <trkpt lat="49.02926" lon="-1.511">
        <ele>15</ele>
        <time>2020-06-12T04:05:14Z</time>
      </trkpt>
      <trkpt lat="49.02928" lon="-1.51103">
        <ele>15.2</ele>
        <time>2020-06-12T04:05:15Z</time>
      </trkpt>
      <trkpt lat="49.02931" lon="-1.51107">
        <ele>15.3</ele>
        <time>2020-06-12T04:05:16Z</time>
      </trkpt>
      <trkpt lat="49.02934" lon="-1.51109">
        <ele>15.5</ele>
        <time>2020-06-12T04:05:17Z</time>
      </trkpt>
      <trkpt lat="49.02936" lon="-1.51111">
        <ele>15.6</ele>
        <time>2020-06-12T04:05:18Z</time>
      </trkpt>
      <trkpt lat="49.02939" lon="-1.51114">
        <ele>15.7</ele>
        <time>2020-06-12T04:05:19Z</time>
      </trkpt>
      <trkpt lat="49.02942" lon="-1.51116">
        <ele>15.9</ele>
        <time>2020-06-12T04:05:20Z</time>
      </trkpt>
      <trkpt lat="49.02946" lon="-1.51118">
        <ele>16</ele>
        <time>2020-06-12T04:05:21Z</time>
      </trkpt>
      <trkpt lat="49.02949" lon="-1.5112">
        <ele>16.2</ele>
        <time>2020-06-12T04:05:22Z</time>
      </trkpt>
      <trkpt lat="49.02953" lon="-1.51122">
        <ele>16.3</ele>
        <time>2020-06-12T04:05:23Z</time>
      </trkpt>
      <trkpt lat="49.02954" lon="-1.51128">
        <ele>16.5</ele>
        <time>2020-06-12T04:05:24Z</time>
      </trkpt>
      <trkpt lat="49.02957" lon="-1.5113">
        <ele>16.6</ele>
        <time>2020-06-12T04:05:25Z</time>
      </trkpt>
      <trkpt lat="49.02958" lon="-1.51131">
        <ele>16.7</ele>
        <time>2020-06-12T04:05:26Z</time>
      </trkpt>
      <trkpt lat="49.0296" lon="-1.51135">
        <ele>16.8</ele>
        <time>2020-06-12T04:05:27Z</time>
      </trkpt>
      <trkpt lat="49.02963" lon="-1.51138">
        <ele>17</ele>
        <time>2020-06-12T04:05:28Z</time>
      </trkpt>
      <trkpt lat="49.02966" lon="-1.51142">
        <ele>17.1</ele>
        <time>2020-06-12T04:05:29Z</time>
      </trkpt>
      <trkpt lat="49.02969" lon="-1.51145">
        <ele>17.2</ele>
        <time>2020-06-12T04:05:30Z</time>
      </trkpt>
      <trkpt lat="49.02972" lon="-1.51148">
        <ele>17.3</ele>
        <time>2020-06-12T04:05:31Z</time>
      </trkpt>
      <trkpt lat="49.02975" lon="-1.51152">
        <ele>17.5</ele>
        <time>2020-06-12T04:05:32Z</time>
      </trkpt>
      <trkpt lat="49.02978" lon="-1.51157">
        <ele>17.6</ele>
        <time>2020-06-12T04:05:33Z</time>
      </trkpt>
      <trkpt lat="49.02981" lon="-1.51162">
        <ele>17.7</ele>
        <time>2020-06-12T04:05:34Z</time>
      </trkpt>
      <trkpt lat="49.02984" lon="-1.51166">
        <ele>17.8</ele>
        <time>2020-06-12T04:05:35Z</time>
      </trkpt>
      <trkpt lat="49.02986" lon="-1.51169">
        <ele>17.8</ele>
        <time>2020-06-12T04:05:36Z</time>
      </trkpt>
      <trkpt lat="49.02989" lon="-1.51174">
        <ele>17.9</ele>
        <time>2020-06-12T04:05:37Z</time>
      </trkpt>
      <trkpt lat="49.02992" lon="-1.51178">
        <ele>18</ele>
        <time>2020-06-12T04:05:38Z</time>
      </trkpt>
      <trkpt lat="49.02996" lon="-1.51181">
        <ele>18</ele>
        <time>2020-06-12T04:05:39Z</time>
      </trkpt>
      <trkpt lat="49.02999" lon="-1.51185">
        <ele>18.1</ele>
        <time>2020-06-12T04:05:40Z</time>
      </trkpt>
      <trkpt lat="49.03002" lon="-1.51189">
        <ele>18.1</ele>
        <time>2020-06-12T04:05:41Z</time>
      </trkpt>
      <trkpt lat="49.03006" lon="-1.51193">
        <ele>18.2</ele>
        <time>2020-06-12T04:05:42Z</time>
      </trkpt>
      <trkpt lat="49.03009" lon="-1.51197">
        <ele>18.2</ele>
        <time>2020-06-12T04:05:43Z</time>
      </trkpt>
      <trkpt lat="49.03012" lon="-1.512">
        <ele>18.2</ele>
        <time>2020-06-12T04:05:44Z</time>
      </trkpt>
      <trkpt lat="49.03015" lon="-1.51205">
        <ele>18.3</ele>
        <time>2020-06-12T04:05:45Z</time>
      </trkpt>
      <trkpt lat="49.03018" lon="-1.51209">
        <ele>18.3</ele>
        <time>2020-06-12T04:05:46Z</time>
      </trkpt>
      <trkpt lat="49.03021" lon="-1.51213">
        <ele>18.4</ele>
        <time>2020-06-12T04:05:47Z</time>
      </trkpt>
      <trkpt lat="49.03024" lon="-1.51218">
        <ele>18.4</ele>
        <time>2020-06-12T04:05:48Z</time>
      </trkpt>
      <trkpt lat="49.03027" lon="-1.51222">
        <ele>18.5</ele>
        <time>2020-06-12T04:05:49Z</time>
      </trkpt>
      <trkpt lat="49.0303" lon="-1.51227">
        <ele>18.5</ele>
        <time>2020-06-12T04:05:50Z</time>
      </trkpt>
      <trkpt lat="49.03033" lon="-1.51231">
        <ele>18.5</ele>
        <time>2020-06-12T04:05:51Z</time>
      </trkpt>
      <trkpt lat="49.03035" lon="-1.51235">
        <ele>18.6</ele>
        <time>2020-06-12T04:05:52Z</time>
      </trkpt>
      <trkpt lat="49.03039" lon="-1.5124">
        <ele>18.6</ele>
        <time>2020-06-12T04:05:53Z</time>
      </trkpt>
      <trkpt lat="49.03043" lon="-1.51246">
        <ele>18.9</ele>
        <time>2020-06-12T04:05:54Z</time>
      </trkpt>
      <trkpt lat="49.03045" lon="-1.51251">
        <ele>19</ele>
        <time>2020-06-12T04:05:55Z</time>
      </trkpt>
      <trkpt lat="49.03048" lon="-1.51256">
        <ele>19</ele>
        <time>2020-06-12T04:05:56Z</time>
      </trkpt>
      <trkpt lat="49.03051" lon="-1.51261">
        <ele>19</ele>
        <time>2020-06-12T04:05:57Z</time>
      </trkpt>
      <trkpt lat="49.03053" lon="-1.51268">
        <ele>19</ele>
        <time>2020-06-12T04:05:58Z</time>
      </trkpt>
      <trkpt lat="49.03056" lon="-1.51274">
        <ele>18.9</ele>
        <time>2020-06-12T04:05:59Z</time>
      </trkpt>
      <trkpt lat="49.03059" lon="-1.51281">
        <ele>18.9</ele>
        <time>2020-06-12T04:06:00Z</time>
      </trkpt>
      <trkpt lat="49.03063" lon="-1.51286">
        <ele>18.8</ele>
        <time>2020-06-12T04:06:01Z</time>
      </trkpt>
      <trkpt lat="49.03066" lon="-1.51292">
        <ele>18.8</ele>
        <time>2020-06-12T04:06:02Z</time>
      </trkpt>
      <trkpt lat="49.0307" lon="-1.51298">
        <ele>18.8</ele>
        <time>2020-06-12T04:06:03Z</time>
      </trkpt>
      <trkpt lat="49.03073" lon="-1.51304">
        <ele>18.7</ele>
        <time>2020-06-12T04:06:04Z</time>
      </trkpt>
      <trkpt lat="49.03076" lon="-1.5131">
        <ele>18.7</ele>
        <time>2020-06-12T04:06:05Z</time>
      </trkpt>
      <trkpt lat="49.03078" lon="-1.51315">
        <ele>18.7</ele>
        <time>2020-06-12T04:06:06Z</time>
      </trkpt>
      <trkpt lat="49.03081" lon="-1.51321">
        <ele>18.6</ele>
        <time>2020-06-12T04:06:07Z</time>
      </trkpt>
      <trkpt lat="49.03085" lon="-1.51326">
        <ele>18.6</ele>
        <time>2020-06-12T04:06:08Z</time>
      </trkpt>
      <trkpt lat="49.03088" lon="-1.51332">
        <ele>18.5</ele>
        <time>2020-06-12T04:06:09Z</time>
      </trkpt>
      <trkpt lat="49.03092" lon="-1.51338">
        <ele>18.4</ele>
        <time>2020-06-12T04:06:10Z</time>
      </trkpt>
      <trkpt lat="49.03096" lon="-1.51344">
        <ele>18.3</ele>
        <time>2020-06-12T04:06:11Z</time>
      </trkpt>
      <trkpt lat="49.03099" lon="-1.5135">
        <ele>18.2</ele>
        <time>2020-06-12T04:06:12Z</time>
      </trkpt>
      <trkpt lat="49.03102" lon="-1.51357">
        <ele>18.2</ele>
        <time>2020-06-12T04:06:13Z</time>
      </trkpt>
      <trkpt lat="49.03106" lon="-1.51364">
        <ele>18.2</ele>
        <time>2020-06-12T04:06:14Z</time>
      </trkpt>
      <trkpt lat="49.03108" lon="-1.5137">
        <ele>18.1</ele>
        <time>2020-06-12T04:06:15Z</time>
      </trkpt>
      <trkpt lat="49.03111" lon="-1.51376">
        <ele>18.1</ele>
        <time>2020-06-12T04:06:16Z</time>
      </trkpt>
      <trkpt lat="49.03114" lon="-1.51381">
        <ele>18.1</ele>
        <time>2020-06-12T04:06:17Z</time>
      </trkpt>
      <trkpt lat="49.03116" lon="-1.51386">
        <ele>18.1</ele>
        <time>2020-06-12T04:06:18Z</time>
      </trkpt>
      <trkpt lat="49.03118" lon="-1.51391">
        <ele>18.1</ele>
        <time>2020-06-12T04:06:19Z</time>
      </trkpt>
      <trkpt lat="49.03121" lon="-1.51398">
        <ele>18</ele>
        <time>2020-06-12T04:06:20Z</time>
      </trkpt>
      <trkpt lat="49.03123" lon="-1.51404">
        <ele>18</ele>
        <time>2020-06-12T04:06:21Z</time>
      </trkpt>
      <trkpt lat="49.03126" lon="-1.5141">
        <ele>18</ele>
        <time>2020-06-12T04:06:22Z</time>
      </trkpt>
      <trkpt lat="49.0313" lon="-1.51416">
        <ele>17.9</ele>
        <time>2020-06-12T04:06:23Z</time>
      </trkpt>
      <trkpt lat="49.03132" lon="-1.51423">
        <ele>17.8</ele>
        <time>2020-06-12T04:06:24Z</time>
      </trkpt>
      <trkpt lat="49.03135" lon="-1.51431">
        <ele>17.7</ele>
        <time>2020-06-12T04:06:25Z</time>
      </trkpt>
      <trkpt lat="49.03138" lon="-1.51439">
        <ele>17.6</ele>
        <time>2020-06-12T04:06:26Z</time>
      </trkpt>
      <trkpt lat="49.0314" lon="-1.51446">
        <ele>17.5</ele>
        <time>2020-06-12T04:06:27Z</time>
      </trkpt>
      <trkpt lat="49.03141" lon="-1.51452">
        <ele>17.4</ele>
        <time>2020-06-12T04:06:28Z</time>
      </trkpt>
      <trkpt lat="49.03143" lon="-1.51459">
        <ele>17.3</ele>
        <time>2020-06-12T04:06:29Z</time>
      </trkpt>
      <trkpt lat="49.03145" lon="-1.51465">
        <ele>17.1</ele>
        <time>2020-06-12T04:06:30Z</time>
      </trkpt>
      <trkpt lat="49.03147" lon="-1.51472">
        <ele>17</ele>
        <time>2020-06-12T04:06:31Z</time>
      </trkpt>
      <trkpt lat="49.0315" lon="-1.51479">
        <ele>16.8</ele>
        <time>2020-06-12T04:06:32Z</time>
      </trkpt>
      <trkpt lat="49.03152" lon="-1.51486">
        <ele>16.7</ele>
        <time>2020-06-12T04:06:33Z</time>
      </trkpt>
      <trkpt lat="49.03155" lon="-1.51493">
        <ele>16.5</ele>
        <time>2020-06-12T04:06:34Z</time>
      </trkpt>
      <trkpt lat="49.03158" lon="-1.515">
        <ele>16.5</ele>
        <time>2020-06-12T04:06:35Z</time>
      </trkpt>
      <trkpt lat="49.0316" lon="-1.51507">
        <ele>16.4</ele>
        <time>2020-06-12T04:06:36Z</time>
      </trkpt>
      <trkpt lat="49.03163" lon="-1.51515">
        <ele>16.3</ele>
        <time>2020-06-12T04:06:37Z</time>
      </trkpt>
      <trkpt lat="49.03167" lon="-1.51523">
        <ele>16.2</ele>
        <time>2020-06-12T04:06:38Z</time>
      </trkpt>
      <trkpt lat="49.0317" lon="-1.5153">
        <ele>16.1</ele>
        <time>2020-06-12T04:06:39Z</time>
      </trkpt>
      <trkpt lat="49.03174" lon="-1.51537">
        <ele>16</ele>
        <time>2020-06-12T04:06:40Z</time>
      </trkpt>
      <trkpt lat="49.03179" lon="-1.51544">
        <ele>15.9</ele>
        <time>2020-06-12T04:06:41Z</time>
      </trkpt>
      <trkpt lat="49.03183" lon="-1.51551">
        <ele>15.8</ele>
        <time>2020-06-12T04:06:42Z</time>
      </trkpt>
      <trkpt lat="49.03188" lon="-1.51558">
        <ele>15.8</ele>
        <time>2020-06-12T04:06:43Z</time>
      </trkpt>
      <trkpt lat="49.03192" lon="-1.51565">
        <ele>15.8</ele>
        <time>2020-06-12T04:06:44Z</time>
      </trkpt>
      <trkpt lat="49.03195" lon="-1.51571">
        <ele>15.8</ele>
        <time>2020-06-12T04:06:45Z</time>
      </trkpt>
      <trkpt lat="49.03198" lon="-1.51577">
        <ele>15.8</ele>
        <time>2020-06-12T04:06:46Z</time>
      </trkpt>
      <trkpt lat="49.03201" lon="-1.51583">
        <ele>15.8</ele>
        <time>2020-06-12T04:06:47Z</time>
      </trkpt>
      <trkpt lat="49.03204" lon="-1.5159">
        <ele>15.8</ele>
        <time>2020-06-12T04:06:48Z</time>
      </trkpt>
      <trkpt lat="49.03208" lon="-1.51596">
        <ele>15.9</ele>
        <time>2020-06-12T04:06:49Z</time>
      </trkpt>
      <trkpt lat="49.03212" lon="-1.51603">
        <ele>15.9</ele>
        <time>2020-06-12T04:06:50Z</time>
      </trkpt>
      <trkpt lat="49.03215" lon="-1.51608">
        <ele>15.9</ele>
        <time>2020-06-12T04:06:51Z</time>
      </trkpt>
      <trkpt lat="49.03218" lon="-1.51615">
        <ele>15.9</ele>
        <time>2020-06-12T04:06:52Z</time>
      </trkpt>
      <trkpt lat="49.03222" lon="-1.51619">
        <ele>15.8</ele>
        <time>2020-06-12T04:06:53Z</time>
      </trkpt>
      <trkpt lat="49.03226" lon="-1.51624">
        <ele>15.8</ele>
        <time>2020-06-12T04:06:54Z</time>
      </trkpt>
      <trkpt lat="49.0323" lon="-1.51629">
        <ele>15.8</ele>
        <time>2020-06-12T04:06:55Z</time>
      </trkpt>
      <trkpt lat="49.03233" lon="-1.51635">
        <ele>15.7</ele>
        <time>2020-06-12T04:06:56Z</time>
      </trkpt>
      <trkpt lat="49.03236" lon="-1.51641">
        <ele>15.6</ele>
        <time>2020-06-12T04:06:57Z</time>
      </trkpt>
      <trkpt lat="49.03239" lon="-1.51647">
        <ele>15.6</ele>
        <time>2020-06-12T04:06:58Z</time>
      </trkpt>
      <trkpt lat="49.03243" lon="-1.51653">
        <ele>15.5</ele>
        <time>2020-06-12T04:06:59Z</time>
      </trkpt>
      <trkpt lat="49.03247" lon="-1.51659">
        <ele>15.4</ele>
        <time>2020-06-12T04:07:00Z</time>
      </trkpt>
      <trkpt lat="49.03251" lon="-1.51665">
        <ele>15.3</ele>
        <time>2020-06-12T04:07:01Z</time>
      </trkpt>
      <trkpt lat="49.03255" lon="-1.51671">
        <ele>15.3</ele>
        <time>2020-06-12T04:07:02Z</time>
      </trkpt>
      <trkpt lat="49.03259" lon="-1.51676">
        <ele>15.2</ele>
        <time>2020-06-12T04:07:03Z</time>
      </trkpt>
      <trkpt lat="49.03263" lon="-1.51682">
        <ele>15.1</ele>
        <time>2020-06-12T04:07:04Z</time>
      </trkpt>
      <trkpt lat="49.03267" lon="-1.51689">
        <ele>15.1</ele>
        <time>2020-06-12T04:07:05Z</time>
      </trkpt>
      <trkpt lat="49.0327" lon="-1.51694">
        <ele>15</ele>
        <time>2020-06-12T04:07:06Z</time>
      </trkpt>
      <trkpt lat="49.03274" lon="-1.517">
        <ele>14.9</ele>
        <time>2020-06-12T04:07:07Z</time>
      </trkpt>
      <trkpt lat="49.03278" lon="-1.51706">
        <ele>14.8</ele>
        <time>2020-06-12T04:07:08Z</time>
      </trkpt>
      <trkpt lat="49.03282" lon="-1.51712">
        <ele>14.7</ele>
        <time>2020-06-12T04:07:09Z</time>
      </trkpt>
      <trkpt lat="49.03287" lon="-1.51718">
        <ele>14.5</ele>
        <time>2020-06-12T04:07:10Z</time>
      </trkpt>
      <trkpt lat="49.03292" lon="-1.51725">
        <ele>14.3</ele>
        <time>2020-06-12T04:07:11Z</time>
      </trkpt>
      <trkpt lat="49.03296" lon="-1.51732">
        <ele>14.1</ele>
        <time>2020-06-12T04:07:12Z</time>
      </trkpt>
      <trkpt lat="49.033" lon="-1.51738">
        <ele>14</ele>
        <time>2020-06-12T04:07:13Z</time>
      </trkpt>
      <trkpt lat="49.03303" lon="-1.51744">
        <ele>13.8</ele>
        <time>2020-06-12T04:07:14Z</time>
      </trkpt>
      <trkpt lat="49.03307" lon="-1.51751">
        <ele>13.6</ele>
        <time>2020-06-12T04:07:15Z</time>
      </trkpt>
      <trkpt lat="49.03311" lon="-1.51757">
        <ele>13.4</ele>
        <time>2020-06-12T04:07:16Z</time>
      </trkpt>
      <trkpt lat="49.03314" lon="-1.51764">
        <ele>13.2</ele>
        <time>2020-06-12T04:07:17Z</time>
      </trkpt>
      <trkpt lat="49.03317" lon="-1.5177">
        <ele>13.1</ele>
        <time>2020-06-12T04:07:18Z</time>
      </trkpt>
      <trkpt lat="49.03321" lon="-1.51777">
        <ele>12.9</ele>
        <time>2020-06-12T04:07:19Z</time>
      </trkpt>
      <trkpt lat="49.03324" lon="-1.51783">
        <ele>12.7</ele>
        <time>2020-06-12T04:07:20Z</time>
      </trkpt>
      <trkpt lat="49.03329" lon="-1.51789">
        <ele>12.5</ele>
        <time>2020-06-12T04:07:21Z</time>
      </trkpt>
      <trkpt lat="49.03333" lon="-1.51795">
        <ele>12.3</ele>
        <time>2020-06-12T04:07:22Z</time>
      </trkpt>
      <trkpt lat="49.03336" lon="-1.51801">
        <ele>12.1</ele>
        <time>2020-06-12T04:07:23Z</time>
      </trkpt>
      <trkpt lat="49.0334" lon="-1.51809">
        <ele>11.9</ele>
        <time>2020-06-12T04:07:24Z</time>
      </trkpt>
      <trkpt lat="49.03344" lon="-1.51816">
        <ele>11.7</ele>
        <time>2020-06-12T04:07:25Z</time>
      </trkpt>
      <trkpt lat="49.03348" lon="-1.51824">
        <ele>11.4</ele>
        <time>2020-06-12T04:07:26Z</time>
      </trkpt>
      <trkpt lat="49.03353" lon="-1.51832">
        <ele>11.1</ele>
        <time>2020-06-12T04:07:27Z</time>
      </trkpt>
      <trkpt lat="49.0336" lon="-1.5184">
        <ele>10.9</ele>
        <time>2020-06-12T04:07:28Z</time>
      </trkpt>
      <trkpt lat="49.03365" lon="-1.51849">
        <ele>10.8</ele>
        <time>2020-06-12T04:07:29Z</time>
      </trkpt>
      <trkpt lat="49.0337" lon="-1.51858">
        <ele>10.6</ele>
        <time>2020-06-12T04:07:30Z</time>
      </trkpt>
      <trkpt lat="49.03375" lon="-1.51867">
        <ele>10.5</ele>
        <time>2020-06-12T04:07:31Z</time>
      </trkpt>
      <trkpt lat="49.03379" lon="-1.51876">
        <ele>10.5</ele>
        <time>2020-06-12T04:07:32Z</time>
      </trkpt>
      <trkpt lat="49.03383" lon="-1.51884">
        <ele>10.5</ele>
        <time>2020-06-12T04:07:33Z</time>
      </trkpt>
      <trkpt lat="49.03387" lon="-1.51891">
        <ele>10.5</ele>
        <time>2020-06-12T04:07:34Z</time>
      </trkpt>
      <trkpt lat="49.03391" lon="-1.51898">
        <ele>10.5</ele>
        <time>2020-06-12T04:07:35Z</time>
      </trkpt>
      <trkpt lat="49.03394" lon="-1.51906">
        <ele>10.7</ele>
        <time>2020-06-12T04:07:36Z</time>
      </trkpt>
      <trkpt lat="49.03397" lon="-1.51913">
        <ele>10.9</ele>
        <time>2020-06-12T04:07:37Z</time>
      </trkpt>
      <trkpt lat="49.03399" lon="-1.51919">
        <ele>11</ele>
        <time>2020-06-12T04:07:38Z</time>
      </trkpt>
      <trkpt lat="49.03401" lon="-1.51925">
        <ele>11.1</ele>
        <time>2020-06-12T04:07:39Z</time>
      </trkpt>
      <trkpt lat="49.03403" lon="-1.51931">
        <ele>11.3</ele>
        <time>2020-06-12T04:07:40Z</time>
      </trkpt>
      <trkpt lat="49.03405" lon="-1.51937">
        <ele>11.4</ele>
        <time>2020-06-12T04:07:41Z</time>
      </trkpt>
      <trkpt lat="49.03408" lon="-1.51943">
        <ele>11.6</ele>
        <time>2020-06-12T04:07:42Z</time>
      </trkpt>
      <trkpt lat="49.0341" lon="-1.51949">
        <ele>11.7</ele>
        <time>2020-06-12T04:07:43Z</time>
      </trkpt>
      <trkpt lat="49.03412" lon="-1.51955">
        <ele>11.9</ele>
        <time>2020-06-12T04:07:44Z</time>
      </trkpt>
      <trkpt lat="49.03415" lon="-1.51961">
        <ele>12</ele>
        <time>2020-06-12T04:07:45Z</time>
      </trkpt>
      <trkpt lat="49.03417" lon="-1.51967">
        <ele>12.2</ele>
        <time>2020-06-12T04:07:46Z</time>
      </trkpt>
      <trkpt lat="49.03418" lon="-1.51973">
        <ele>12.3</ele>
        <time>2020-06-12T04:07:47Z</time>
      </trkpt>
      <trkpt lat="49.0342" lon="-1.51979">
        <ele>12.5</ele>
        <time>2020-06-12T04:07:48Z</time>
      </trkpt>
      <trkpt lat="49.03422" lon="-1.51984">
        <ele>12.7</ele>
        <time>2020-06-12T04:07:49Z</time>
      </trkpt>
      <trkpt lat="49.03423" lon="-1.5199">
        <ele>12.8</ele>
        <time>2020-06-12T04:07:50Z</time>
      </trkpt>
      <trkpt lat="49.03425" lon="-1.51995">
        <ele>13</ele>
        <time>2020-06-12T04:07:51Z</time>
      </trkpt>
      <trkpt lat="49.03427" lon="-1.52">
        <ele>13.1</ele>
        <time>2020-06-12T04:07:52Z</time>
      </trkpt>
      <trkpt lat="49.03428" lon="-1.52006">
        <ele>13.3</ele>
        <time>2020-06-12T04:07:53Z</time>
      </trkpt>
      <trkpt lat="49.03429" lon="-1.52011">
        <ele>13.4</ele>
        <time>2020-06-12T04:07:54Z</time>
      </trkpt>
      <trkpt lat="49.0343" lon="-1.52017">
        <ele>13.5</ele>
        <time>2020-06-12T04:07:55Z</time>
      </trkpt>
      <trkpt lat="49.03432" lon="-1.52024">
        <ele>13.6</ele>
        <time>2020-06-12T04:07:56Z</time>
      </trkpt>
      <trkpt lat="49.03434" lon="-1.5203">
        <ele>13.7</ele>
        <time>2020-06-12T04:07:57Z</time>
      </trkpt>
      <trkpt lat="49.03436" lon="-1.52036">
        <ele>13.8</ele>
        <time>2020-06-12T04:07:58Z</time>
      </trkpt>
      <trkpt lat="49.03437" lon="-1.5204">
        <ele>13.8</ele>
        <time>2020-06-12T04:07:59Z</time>
      </trkpt>
      <trkpt lat="49.03439" lon="-1.52045">
        <ele>13.9</ele>
        <time>2020-06-12T04:08:00Z</time>
      </trkpt>
      <trkpt lat="49.0344" lon="-1.52047">
        <ele>13.9</ele>
        <time>2020-06-12T04:08:01Z</time>
      </trkpt>
      <trkpt lat="49.03442" lon="-1.52053">
        <ele>14</ele>
        <time>2020-06-12T04:08:02Z</time>
      </trkpt>
      <trkpt lat="49.03444" lon="-1.52057">
        <ele>14</ele>
        <time>2020-06-12T04:08:03Z</time>
      </trkpt>
      <trkpt lat="49.03446" lon="-1.52063">
        <ele>14.1</ele>
        <time>2020-06-12T04:08:04Z</time>
      </trkpt>
      <trkpt lat="49.03446" lon="-1.52065">
        <ele>14.1</ele>
        <time>2020-06-12T04:08:05Z</time>
      </trkpt>
      <trkpt lat="49.03448" lon="-1.52071">
        <ele>14.2</ele>
        <time>2020-06-12T04:08:06Z</time>
      </trkpt>
      <trkpt lat="49.03449" lon="-1.52077">
        <ele>14.3</ele>
        <time>2020-06-12T04:08:07Z</time>
      </trkpt>
      <trkpt lat="49.03451" lon="-1.52083">
        <ele>14.3</ele>
        <time>2020-06-12T04:08:08Z</time>
      </trkpt>
      <trkpt lat="49.03452" lon="-1.52089">
        <ele>14.4</ele>
        <time>2020-06-12T04:08:09Z</time>
      </trkpt>
      <trkpt lat="49.03454" lon="-1.52095">
        <ele>14.4</ele>
        <time>2020-06-12T04:08:10Z</time>
      </trkpt>
      <trkpt lat="49.03456" lon="-1.521">
        <ele>14.5</ele>
        <time>2020-06-12T04:08:11Z</time>
      </trkpt>
      <trkpt lat="49.03458" lon="-1.52105">
        <ele>14.5</ele>
        <time>2020-06-12T04:08:12Z</time>
      </trkpt>
      <trkpt lat="49.0346" lon="-1.52109">
        <ele>14.5</ele>
        <time>2020-06-12T04:08:13Z</time>
      </trkpt>
      <trkpt lat="49.03461" lon="-1.52115">
        <ele>14.5</ele>
        <time>2020-06-12T04:08:14Z</time>
      </trkpt>
      <trkpt lat="49.03463" lon="-1.5212">
        <ele>14.4</ele>
        <time>2020-06-12T04:08:15Z</time>
      </trkpt>
      <trkpt lat="49.03464" lon="-1.52127">
        <ele>14.4</ele>
        <time>2020-06-12T04:08:16Z</time>
      </trkpt>
      <trkpt lat="49.03467" lon="-1.52133">
        <ele>14.3</ele>
        <time>2020-06-12T04:08:17Z</time>
      </trkpt>
      <trkpt lat="49.03469" lon="-1.5214">
        <ele>14.3</ele>
        <time>2020-06-12T04:08:18Z</time>
      </trkpt>
      <trkpt lat="49.03471" lon="-1.52146">
        <ele>14.2</ele>
        <time>2020-06-12T04:08:19Z</time>
      </trkpt>
      <trkpt lat="49.03473" lon="-1.52153">
        <ele>14.1</ele>
        <time>2020-06-12T04:08:20Z</time>
      </trkpt>
      <trkpt lat="49.03476" lon="-1.5216">
        <ele>14</ele>
        <time>2020-06-12T04:08:21Z</time>
      </trkpt>
      <trkpt lat="49.03479" lon="-1.52167">
        <ele>13.9</ele>
        <time>2020-06-12T04:08:22Z</time>
      </trkpt>
      <trkpt lat="49.03481" lon="-1.52174">
        <ele>13.7</ele>
        <time>2020-06-12T04:08:23Z</time>
      </trkpt>
      <trkpt lat="49.03483" lon="-1.52182">
        <ele>13.5</ele>
        <time>2020-06-12T04:08:24Z</time>
      </trkpt>
      <trkpt lat="49.03485" lon="-1.5219">
        <ele>13.3</ele>
        <time>2020-06-12T04:08:25Z</time>
      </trkpt>
      <trkpt lat="49.03487" lon="-1.52198">
        <ele>13.2</ele>
        <time>2020-06-12T04:08:26Z</time>
      </trkpt>
      <trkpt lat="49.03488" lon="-1.52207">
        <ele>13</ele>
        <time>2020-06-12T04:08:27Z</time>
      </trkpt>
      <trkpt lat="49.0349" lon="-1.52216">
        <ele>12.8</ele>
        <time>2020-06-12T04:08:28Z</time>
      </trkpt>
      <trkpt lat="49.0349" lon="-1.52225">
        <ele>12.7</ele>
        <time>2020-06-12T04:08:29Z</time>
      </trkpt>
      <trkpt lat="49.03493" lon="-1.52234">
        <ele>12.5</ele>
        <time>2020-06-12T04:08:30Z</time>
      </trkpt>
      <trkpt lat="49.03495" lon="-1.52243">
        <ele>12.3</ele>
        <time>2020-06-12T04:08:31Z</time>
      </trkpt>
      <trkpt lat="49.03497" lon="-1.52252">
        <ele>12.2</ele>
        <time>2020-06-12T04:08:32Z</time>
      </trkpt>
      <trkpt lat="49.03497" lon="-1.5226">
        <ele>12</ele>
        <time>2020-06-12T04:08:33Z</time>
      </trkpt>
      <trkpt lat="49.03499" lon="-1.52268">
        <ele>11.8</ele>
        <time>2020-06-12T04:08:34Z</time>
      </trkpt>
      <trkpt lat="49.03501" lon="-1.52276">
        <ele>11.6</ele>
        <time>2020-06-12T04:08:35Z</time>
      </trkpt>
      <trkpt lat="49.03503" lon="-1.52287">
        <ele>11.4</ele>
        <time>2020-06-12T04:08:36Z</time>
      </trkpt>
      <trkpt lat="49.03504" lon="-1.52297">
        <ele>11.2</ele>
        <time>2020-06-12T04:08:37Z</time>
      </trkpt>
      <trkpt lat="49.03506" lon="-1.52307">
        <ele>11</ele>
        <time>2020-06-12T04:08:38Z</time>
      </trkpt>
      <trkpt lat="49.03508" lon="-1.52316">
        <ele>10.9</ele>
        <time>2020-06-12T04:08:39Z</time>
      </trkpt>
      <trkpt lat="49.03509" lon="-1.52325">
        <ele>10.8</ele>
        <time>2020-06-12T04:08:40Z</time>
      </trkpt>
      <trkpt lat="49.03511" lon="-1.52334">
        <ele>10.7</ele>
        <time>2020-06-12T04:08:41Z</time>
      </trkpt>
      <trkpt lat="49.03513" lon="-1.52343">
        <ele>10.6</ele>
        <time>2020-06-12T04:08:42Z</time>
      </trkpt>
      <trkpt lat="49.03516" lon="-1.52352">
        <ele>10.5</ele>
        <time>2020-06-12T04:08:43Z</time>
      </trkpt>
      <trkpt lat="49.03519" lon="-1.5236">
        <ele>10.5</ele>
        <time>2020-06-12T04:08:44Z</time>
      </trkpt>
      <trkpt lat="49.03523" lon="-1.5237">
        <ele>10.6</ele>
        <time>2020-06-12T04:08:45Z</time>
      </trkpt>
      <trkpt lat="49.03527" lon="-1.52378">
        <ele>10.6</ele>
        <time>2020-06-12T04:08:46Z</time>
      </trkpt>
      <trkpt lat="49.03531" lon="-1.52385">
        <ele>10.4</ele>
        <time>2020-06-12T04:08:47Z</time>
      </trkpt>
      <trkpt lat="49.03534" lon="-1.52391">
        <ele>10.3</ele>
        <time>2020-06-12T04:08:48Z</time>
      </trkpt>
      <trkpt lat="49.03538" lon="-1.52396">
        <ele>10.2</ele>
        <time>2020-06-12T04:08:49Z</time>
      </trkpt>
      <trkpt lat="49.03541" lon="-1.52403">
        <ele>10.1</ele>
        <time>2020-06-12T04:08:50Z</time>
      </trkpt>
      <trkpt lat="49.03545" lon="-1.5241">
        <ele>9.9</ele>
        <time>2020-06-12T04:08:51Z</time>
      </trkpt>
      <trkpt lat="49.03549" lon="-1.52415">
        <ele>9.8</ele>
        <time>2020-06-12T04:08:52Z</time>
      </trkpt>
      <trkpt lat="49.03553" lon="-1.52421">
        <ele>9.6</ele>
        <time>2020-06-12T04:08:53Z</time>
      </trkpt>
      <trkpt lat="49.03558" lon="-1.52427">
        <ele>9.5</ele>
        <time>2020-06-12T04:08:54Z</time>
      </trkpt>
      <trkpt lat="49.03561" lon="-1.52433">
        <ele>9.4</ele>
        <time>2020-06-12T04:08:55Z</time>
      </trkpt>
      <trkpt lat="49.03565" lon="-1.5244">
        <ele>9.3</ele>
        <time>2020-06-12T04:08:56Z</time>
      </trkpt>
      <trkpt lat="49.03569" lon="-1.52448">
        <ele>9.2</ele>
        <time>2020-06-12T04:08:57Z</time>
      </trkpt>
      <trkpt lat="49.03573" lon="-1.52456">
        <ele>9.2</ele>
        <time>2020-06-12T04:08:58Z</time>
      </trkpt>
      <trkpt lat="49.03577" lon="-1.52464">
        <ele>9.1</ele>
        <time>2020-06-12T04:08:59Z</time>
      </trkpt>
      <trkpt lat="49.03579" lon="-1.52474">
        <ele>9</ele>
        <time>2020-06-12T04:09:00Z</time>
      </trkpt>
      <trkpt lat="49.0358" lon="-1.52483">
        <ele>8.9</ele>
        <time>2020-06-12T04:09:01Z</time>
      </trkpt>
      <trkpt lat="49.03582" lon="-1.52491">
        <ele>8.9</ele>
        <time>2020-06-12T04:09:02Z</time>
      </trkpt>
      <trkpt lat="49.03582" lon="-1.52498">
        <ele>8.9</ele>
        <time>2020-06-12T04:09:03Z</time>
      </trkpt>
      <trkpt lat="49.03584" lon="-1.52507">
        <ele>8.8</ele>
        <time>2020-06-12T04:09:04Z</time>
      </trkpt>
      <trkpt lat="49.03585" lon="-1.52514">
        <ele>8.8</ele>
        <time>2020-06-12T04:09:05Z</time>
      </trkpt>
      <trkpt lat="49.03586" lon="-1.52521">
        <ele>8.8</ele>
        <time>2020-06-12T04:09:06Z</time>
      </trkpt>
      <trkpt lat="49.03586" lon="-1.52528">
        <ele>8.8</ele>
        <time>2020-06-12T04:09:07Z</time>
      </trkpt>
      <trkpt lat="49.03587" lon="-1.52536">
        <ele>8.9</ele>
        <time>2020-06-12T04:09:08Z</time>
      </trkpt>
      <trkpt lat="49.03588" lon="-1.52544">
        <ele>8.9</ele>
        <time>2020-06-12T04:09:09Z</time>
      </trkpt>
      <trkpt lat="49.0359" lon="-1.52554">
        <ele>8.9</ele>
        <time>2020-06-12T04:09:10Z</time>
      </trkpt>
      <trkpt lat="49.03591" lon="-1.52561">
        <ele>9</ele>
        <time>2020-06-12T04:09:11Z</time>
      </trkpt>
      <trkpt lat="49.03592" lon="-1.52569">
        <ele>9</ele>
        <time>2020-06-12T04:09:12Z</time>
      </trkpt>
      <trkpt lat="49.03594" lon="-1.52575">
        <ele>9</ele>
        <time>2020-06-12T04:09:13Z</time>
      </trkpt>
      <trkpt lat="49.03595" lon="-1.52582">
        <ele>9</ele>
        <time>2020-06-12T04:09:14Z</time>
      </trkpt>
      <trkpt lat="49.03596" lon="-1.52587">
        <ele>9</ele>
        <time>2020-06-12T04:09:15Z</time>
      </trkpt>
      <trkpt lat="49.03598" lon="-1.52592">
        <ele>9</ele>
        <time>2020-06-12T04:09:16Z</time>
      </trkpt>
      <trkpt lat="49.036" lon="-1.52598">
        <ele>9</ele>
        <time>2020-06-12T04:09:17Z</time>
      </trkpt>
      <trkpt lat="49.03603" lon="-1.52604">
        <ele>9.1</ele>
        <time>2020-06-12T04:09:18Z</time>
      </trkpt>
      <trkpt lat="49.03604" lon="-1.52611">
        <ele>9.1</ele>
        <time>2020-06-12T04:09:19Z</time>
      </trkpt>
      <trkpt lat="49.03606" lon="-1.52617">
        <ele>9.2</ele>
        <time>2020-06-12T04:09:20Z</time>
      </trkpt>
      <trkpt lat="49.03608" lon="-1.52624">
        <ele>9.2</ele>
        <time>2020-06-12T04:09:21Z</time>
      </trkpt>
      <trkpt lat="49.0361" lon="-1.52631">
        <ele>9.3</ele>
        <time>2020-06-12T04:09:22Z</time>
      </trkpt>
      <trkpt lat="49.03611" lon="-1.52638">
        <ele>9.3</ele>
        <time>2020-06-12T04:09:23Z</time>
      </trkpt>
      <trkpt lat="49.03613" lon="-1.52644">
        <ele>9.4</ele>
        <time>2020-06-12T04:09:24Z</time>
      </trkpt>
      <trkpt lat="49.03614" lon="-1.5265">
        <ele>9.4</ele>
        <time>2020-06-12T04:09:25Z</time>
      </trkpt>
      <trkpt lat="49.03616" lon="-1.52656">
        <ele>9.4</ele>
        <time>2020-06-12T04:09:26Z</time>
      </trkpt>
      <trkpt lat="49.03618" lon="-1.52663">
        <ele>9.5</ele>
        <time>2020-06-12T04:09:27Z</time>
      </trkpt>
      <trkpt lat="49.03619" lon="-1.52669">
        <ele>9.5</ele>
        <time>2020-06-12T04:09:28Z</time>
      </trkpt>
      <trkpt lat="49.03621" lon="-1.52676">
        <ele>9.5</ele>
        <time>2020-06-12T04:09:29Z</time>
      </trkpt>
      <trkpt lat="49.03623" lon="-1.52683">
        <ele>9.5</ele>
        <time>2020-06-12T04:09:30Z</time>
      </trkpt>
      <trkpt lat="49.03624" lon="-1.52688">
        <ele>9.5</ele>
        <time>2020-06-12T04:09:31Z</time>
      </trkpt>
      <trkpt lat="49.03626" lon="-1.52694">
        <ele>9.5</ele>
        <time>2020-06-12T04:09:32Z</time>
      </trkpt>
      <trkpt lat="49.03627" lon="-1.527">
        <ele>9.5</ele>
        <time>2020-06-12T04:09:33Z</time>
      </trkpt>
      <trkpt lat="49.03629" lon="-1.52706">
        <ele>9.5</ele>
        <time>2020-06-12T04:09:34Z</time>
      </trkpt>
      <trkpt lat="49.03631" lon="-1.52713">
        <ele>9.5</ele>
        <time>2020-06-12T04:09:35Z</time>
      </trkpt>
      <trkpt lat="49.03632" lon="-1.52718">
        <ele>9.5</ele>
        <time>2020-06-12T04:09:36Z</time>
      </trkpt>
      <trkpt lat="49.03633" lon="-1.52725">
        <ele>9.5</ele>
        <time>2020-06-12T04:09:37Z</time>
      </trkpt>
      <trkpt lat="49.03634" lon="-1.52733">
        <ele>9.5</ele>
        <time>2020-06-12T04:09:38Z</time>
      </trkpt>
      <trkpt lat="49.03636" lon="-1.52739">
        <ele>9.5</ele>
        <time>2020-06-12T04:09:39Z</time>
      </trkpt>
      <trkpt lat="49.03637" lon="-1.52745">
        <ele>9.6</ele>
        <time>2020-06-12T04:09:40Z</time>
      </trkpt>
      <trkpt lat="49.03639" lon="-1.52752">
        <ele>9.6</ele>
        <time>2020-06-12T04:09:41Z</time>
      </trkpt>
      <trkpt lat="49.03641" lon="-1.52757">
        <ele>9.7</ele>
        <time>2020-06-12T04:09:42Z</time>
      </trkpt>
      <trkpt lat="49.03642" lon="-1.52763">
        <ele>9.7</ele>
        <time>2020-06-12T04:09:43Z</time>
      </trkpt>
      <trkpt lat="49.03643" lon="-1.52769">
        <ele>9.7</ele>
        <time>2020-06-12T04:09:44Z</time>
      </trkpt>
      <trkpt lat="49.03645" lon="-1.52774">
        <ele>9.7</ele>
        <time>2020-06-12T04:09:45Z</time>
      </trkpt>
      <trkpt lat="49.03646" lon="-1.5278">
        <ele>9.7</ele>
        <time>2020-06-12T04:09:46Z</time>
      </trkpt>
      <trkpt lat="49.03647" lon="-1.52787">
        <ele>9.7</ele>
        <time>2020-06-12T04:09:47Z</time>
      </trkpt>
      <trkpt lat="49.03648" lon="-1.52793">
        <ele>9.8</ele>
        <time>2020-06-12T04:09:48Z</time>
      </trkpt>
      <trkpt lat="49.03649" lon="-1.528">
        <ele>9.8</ele>
        <time>2020-06-12T04:09:49Z</time>
      </trkpt>
      <trkpt lat="49.0365" lon="-1.52807">
        <ele>9.9</ele>
        <time>2020-06-12T04:09:50Z</time>
      </trkpt>
      <trkpt lat="49.0365" lon="-1.52813">
        <ele>10</ele>
        <time>2020-06-12T04:09:51Z</time>
      </trkpt>
      <trkpt lat="49.03649" lon="-1.52819">
        <ele>10.1</ele>
        <time>2020-06-12T04:09:52Z</time>
      </trkpt>
      <trkpt lat="49.03649" lon="-1.52826">
        <ele>10.2</ele>
        <time>2020-06-12T04:09:53Z</time>
      </trkpt>
      <trkpt lat="49.03646" lon="-1.5283">
        <ele>10.3</ele>
        <time>2020-06-12T04:09:54Z</time>
      </trkpt>
      <trkpt lat="49.03643" lon="-1.52835">
        <ele>10.4</ele>
        <time>2020-06-12T04:09:55Z</time>
      </trkpt>
      <trkpt lat="49.03642" lon="-1.52839">
        <ele>10.5</ele>
        <time>2020-06-12T04:09:56Z</time>
      </trkpt>
      <trkpt lat="49.0364" lon="-1.52844">
        <ele>10.5</ele>
        <time>2020-06-12T04:09:57Z</time>
      </trkpt>
      <trkpt lat="49.03639" lon="-1.52849">
        <ele>10.7</ele>
        <time>2020-06-12T04:09:58Z</time>
      </trkpt>
      <trkpt lat="49.03641" lon="-1.52855">
        <ele>10.7</ele>
        <time>2020-06-12T04:09:59Z</time>
      </trkpt>
      <trkpt lat="49.03643" lon="-1.5286">
        <ele>10.7</ele>
        <time>2020-06-12T04:10:00Z</time>
      </trkpt>
      <trkpt lat="49.03645" lon="-1.52865">
        <ele>10.7</ele>
        <time>2020-06-12T04:10:01Z</time>
      </trkpt>
      <trkpt lat="49.03647" lon="-1.5287">
        <ele>10.7</ele>
        <time>2020-06-12T04:10:02Z</time>
      </trkpt>
      <trkpt lat="49.03649" lon="-1.52875">
        <ele>10.7</ele>
        <time>2020-06-12T04:10:03Z</time>
      </trkpt>
      <trkpt lat="49.03651" lon="-1.52881">
        <ele>10.8</ele>
        <time>2020-06-12T04:10:04Z</time>
      </trkpt>
      <trkpt lat="49.03653" lon="-1.52886">
        <ele>10.8</ele>
        <time>2020-06-12T04:10:05Z</time>
      </trkpt>
      <trkpt lat="49.03656" lon="-1.52892">
        <ele>10.8</ele>
        <time>2020-06-12T04:10:06Z</time>
      </trkpt>
      <trkpt lat="49.03658" lon="-1.52897">
        <ele>10.9</ele>
        <time>2020-06-12T04:10:07Z</time>
      </trkpt>
      <trkpt lat="49.0366" lon="-1.52903">
        <ele>10.9</ele>
        <time>2020-06-12T04:10:08Z</time>
      </trkpt>
      <trkpt lat="49.03662" lon="-1.52909">
        <ele>10.9</ele>
        <time>2020-06-12T04:10:09Z</time>
      </trkpt>
      <trkpt lat="49.03664" lon="-1.52914">
        <ele>10.9</ele>
        <time>2020-06-12T04:10:10Z</time>
      </trkpt>
      <trkpt lat="49.03667" lon="-1.52919">
        <ele>10.9</ele>
        <time>2020-06-12T04:10:11Z</time>
      </trkpt>
      <trkpt lat="49.03669" lon="-1.52925">
        <ele>11</ele>
        <time>2020-06-12T04:10:12Z</time>
      </trkpt>
      <trkpt lat="49.03671" lon="-1.52931">
        <ele>11</ele>
        <time>2020-06-12T04:10:13Z</time>
      </trkpt>
      <trkpt lat="49.03674" lon="-1.52936">
        <ele>11</ele>
        <time>2020-06-12T04:10:14Z</time>
      </trkpt>
      <trkpt lat="49.03676" lon="-1.52942">
        <ele>11.1</ele>
        <time>2020-06-12T04:10:15Z</time>
      </trkpt>
      <trkpt lat="49.03678" lon="-1.52948">
        <ele>11.1</ele>
        <time>2020-06-12T04:10:16Z</time>
      </trkpt>
      <trkpt lat="49.03681" lon="-1.52953">
        <ele>11.2</ele>
        <time>2020-06-12T04:10:17Z</time>
      </trkpt>
      <trkpt lat="49.03683" lon="-1.52959">
        <ele>11.3</ele>
        <time>2020-06-12T04:10:18Z</time>
      </trkpt>
      <trkpt lat="49.03685" lon="-1.52964">
        <ele>11.3</ele>
        <time>2020-06-12T04:10:19Z</time>
      </trkpt>
      <trkpt lat="49.03687" lon="-1.5297">
        <ele>11.4</ele>
        <time>2020-06-12T04:10:20Z</time>
      </trkpt>
      <trkpt lat="49.03689" lon="-1.52976">
        <ele>11.4</ele>
        <time>2020-06-12T04:10:21Z</time>
      </trkpt>
      <trkpt lat="49.03692" lon="-1.52982">
        <ele>11.5</ele>
        <time>2020-06-12T04:10:22Z</time>
      </trkpt>
      <trkpt lat="49.03695" lon="-1.52987">
        <ele>11.6</ele>
        <time>2020-06-12T04:10:23Z</time>
      </trkpt>
      <trkpt lat="49.03697" lon="-1.52994">
        <ele>11.6</ele>
        <time>2020-06-12T04:10:24Z</time>
      </trkpt>
      <trkpt lat="49.037" lon="-1.53">
        <ele>11.7</ele>
        <time>2020-06-12T04:10:25Z</time>
      </trkpt>
      <trkpt lat="49.03702" lon="-1.53006">
        <ele>11.8</ele>
        <time>2020-06-12T04:10:26Z</time>
      </trkpt>
      <trkpt lat="49.03704" lon="-1.53012">
        <ele>11.8</ele>
        <time>2020-06-12T04:10:27Z</time>
      </trkpt>
      <trkpt lat="49.03707" lon="-1.53018">
        <ele>11.9</ele>
        <time>2020-06-12T04:10:28Z</time>
      </trkpt>
      <trkpt lat="49.03709" lon="-1.53025">
        <ele>12</ele>
        <time>2020-06-12T04:10:29Z</time>
      </trkpt>
      <trkpt lat="49.03712" lon="-1.53032">
        <ele>12</ele>
        <time>2020-06-12T04:10:30Z</time>
      </trkpt>
      <trkpt lat="49.03714" lon="-1.53038">
        <ele>12.1</ele>
        <time>2020-06-12T04:10:31Z</time>
      </trkpt>
      <trkpt lat="49.03716" lon="-1.53044">
        <ele>12.1</ele>
        <time>2020-06-12T04:10:32Z</time>
      </trkpt>
      <trkpt lat="49.03719" lon="-1.5305">
        <ele>12.1</ele>
        <time>2020-06-12T04:10:33Z</time>
      </trkpt>
      <trkpt lat="49.03722" lon="-1.53056">
        <ele>12.2</ele>
        <time>2020-06-12T04:10:34Z</time>
      </trkpt>
      <trkpt lat="49.03724" lon="-1.53061">
        <ele>12.2</ele>
        <time>2020-06-12T04:10:35Z</time>
      </trkpt>
      <trkpt lat="49.03727" lon="-1.53067">
        <ele>12.3</ele>
        <time>2020-06-12T04:10:36Z</time>
      </trkpt>
      <trkpt lat="49.0373" lon="-1.53072">
        <ele>12.4</ele>
        <time>2020-06-12T04:10:37Z</time>
      </trkpt>
      <trkpt lat="49.03732" lon="-1.53078">
        <ele>12.4</ele>
        <time>2020-06-12T04:10:38Z</time>
      </trkpt>
      <trkpt lat="49.03734" lon="-1.53084">
        <ele>12.5</ele>
        <time>2020-06-12T04:10:39Z</time>
      </trkpt>
      <trkpt lat="49.03736" lon="-1.5309">
        <ele>12.5</ele>
        <time>2020-06-12T04:10:40Z</time>
      </trkpt>
      <trkpt lat="49.03739" lon="-1.53097">
        <ele>12.6</ele>
        <time>2020-06-12T04:10:41Z</time>
      </trkpt>
      <trkpt lat="49.03741" lon="-1.53103">
        <ele>12.6</ele>
        <time>2020-06-12T04:10:42Z</time>
      </trkpt>
      <trkpt lat="49.03744" lon="-1.5311">
        <ele>12.7</ele>
        <time>2020-06-12T04:10:43Z</time>
      </trkpt>
      <trkpt lat="49.03747" lon="-1.53116">
        <ele>12.8</ele>
        <time>2020-06-12T04:10:44Z</time>
      </trkpt>
      <trkpt lat="49.03749" lon="-1.53122">
        <ele>12.8</ele>
        <time>2020-06-12T04:10:45Z</time>
      </trkpt>
      <trkpt lat="49.03751" lon="-1.53128">
        <ele>12.9</ele>
        <time>2020-06-12T04:10:46Z</time>
      </trkpt>
      <trkpt lat="49.03754" lon="-1.53134">
        <ele>12.9</ele>
        <time>2020-06-12T04:10:47Z</time>
      </trkpt>
      <trkpt lat="49.03756" lon="-1.5314">
        <ele>12.9</ele>
        <time>2020-06-12T04:10:48Z</time>
      </trkpt>
      <trkpt lat="49.03758" lon="-1.53146">
        <ele>13</ele>
        <time>2020-06-12T04:10:49Z</time>
      </trkpt>
      <trkpt lat="49.0376" lon="-1.53152">
        <ele>13</ele>
        <time>2020-06-12T04:10:50Z</time>
      </trkpt>
      <trkpt lat="49.03762" lon="-1.53158">
        <ele>13</ele>
        <time>2020-06-12T04:10:51Z</time>
      </trkpt>
      <trkpt lat="49.03764" lon="-1.53164">
        <ele>13.1</ele>
        <time>2020-06-12T04:10:52Z</time>
      </trkpt>
      <trkpt lat="49.03766" lon="-1.53171">
        <ele>13.1</ele>
        <time>2020-06-12T04:10:53Z</time>
      </trkpt>
      <trkpt lat="49.03769" lon="-1.53177">
        <ele>13.2</ele>
        <time>2020-06-12T04:10:54Z</time>
      </trkpt>
      <trkpt lat="49.03771" lon="-1.53183">
        <ele>13.3</ele>
        <time>2020-06-12T04:10:55Z</time>
      </trkpt>
      <trkpt lat="49.03774" lon="-1.53189">
        <ele>13.3</ele>
        <time>2020-06-12T04:10:56Z</time>
      </trkpt>
      <trkpt lat="49.03777" lon="-1.53194">
        <ele>13.4</ele>
        <time>2020-06-12T04:10:57Z</time>
      </trkpt>
      <trkpt lat="49.03778" lon="-1.53199">
        <ele>13.4</ele>
        <time>2020-06-12T04:10:58Z</time>
      </trkpt>
      <trkpt lat="49.0378" lon="-1.53204">
        <ele>13.5</ele>
        <time>2020-06-12T04:10:59Z</time>
      </trkpt>
      <trkpt lat="49.03782" lon="-1.53209">
        <ele>13.5</ele>
        <time>2020-06-12T04:11:00Z</time>
      </trkpt>
      <trkpt lat="49.03785" lon="-1.53215">
        <ele>13.6</ele>
        <time>2020-06-12T04:11:01Z</time>
      </trkpt>
      <trkpt lat="49.03787" lon="-1.53221">
        <ele>13.6</ele>
        <time>2020-06-12T04:11:02Z</time>
      </trkpt>
      <trkpt lat="49.0379" lon="-1.53226">
        <ele>13.6</ele>
        <time>2020-06-12T04:11:03Z</time>
      </trkpt>
      <trkpt lat="49.03792" lon="-1.53232">
        <ele>13.7</ele>
        <time>2020-06-12T04:11:04Z</time>
      </trkpt>
      <trkpt lat="49.03793" lon="-1.53237">
        <ele>13.7</ele>
        <time>2020-06-12T04:11:05Z</time>
      </trkpt>
      <trkpt lat="49.03795" lon="-1.53242">
        <ele>13.8</ele>
        <time>2020-06-12T04:11:06Z</time>
      </trkpt>
      <trkpt lat="49.03798" lon="-1.53247">
        <ele>13.8</ele>
        <time>2020-06-12T04:11:07Z</time>
      </trkpt>
      <trkpt lat="49.038" lon="-1.53254">
        <ele>13.9</ele>
        <time>2020-06-12T04:11:08Z</time>
      </trkpt>
      <trkpt lat="49.03803" lon="-1.5326">
        <ele>13.9</ele>
        <time>2020-06-12T04:11:09Z</time>
      </trkpt>
      <trkpt lat="49.03806" lon="-1.53265">
        <ele>14</ele>
        <time>2020-06-12T04:11:10Z</time>
      </trkpt>
      <trkpt lat="49.03808" lon="-1.53271">
        <ele>14</ele>
        <time>2020-06-12T04:11:11Z</time>
      </trkpt>
      <trkpt lat="49.0381" lon="-1.53277">
        <ele>14.1</ele>
        <time>2020-06-12T04:11:12Z</time>
      </trkpt>
      <trkpt lat="49.03812" lon="-1.53283">
        <ele>14.1</ele>
        <time>2020-06-12T04:11:13Z</time>
      </trkpt>
      <trkpt lat="49.03815" lon="-1.53288">
        <ele>14.2</ele>
        <time>2020-06-12T04:11:14Z</time>
      </trkpt>
      <trkpt lat="49.03818" lon="-1.53293">
        <ele>14.2</ele>
        <time>2020-06-12T04:11:15Z</time>
      </trkpt>
      <trkpt lat="49.0382" lon="-1.53298">
        <ele>14.3</ele>
        <time>2020-06-12T04:11:16Z</time>
      </trkpt>
      <trkpt lat="49.03822" lon="-1.53303">
        <ele>14.3</ele>
        <time>2020-06-12T04:11:17Z</time>
      </trkpt>
      <trkpt lat="49.03824" lon="-1.53309">
        <ele>14.4</ele>
        <time>2020-06-12T04:11:18Z</time>
      </trkpt>
      <trkpt lat="49.03826" lon="-1.53314">
        <ele>14.4</ele>
        <time>2020-06-12T04:11:19Z</time>
      </trkpt>
      <trkpt lat="49.03828" lon="-1.5332">
        <ele>14.5</ele>
        <time>2020-06-12T04:11:20Z</time>
      </trkpt>
      <trkpt lat="49.0383" lon="-1.53325">
        <ele>14.5</ele>
        <time>2020-06-12T04:11:21Z</time>
      </trkpt>
      <trkpt lat="49.03832" lon="-1.53331">
        <ele>14.6</ele>
        <time>2020-06-12T04:11:22Z</time>
      </trkpt>
      <trkpt lat="49.03834" lon="-1.53336">
        <ele>14.6</ele>
        <time>2020-06-12T04:11:23Z</time>
      </trkpt>
      <trkpt lat="49.03836" lon="-1.53342">
        <ele>14.7</ele>
        <time>2020-06-12T04:11:24Z</time>
      </trkpt>
      <trkpt lat="49.03838" lon="-1.53349">
        <ele>14.7</ele>
        <time>2020-06-12T04:11:25Z</time>
      </trkpt>
      <trkpt lat="49.0384" lon="-1.53355">
        <ele>14.8</ele>
        <time>2020-06-12T04:11:26Z</time>
      </trkpt>
      <trkpt lat="49.03842" lon="-1.53361">
        <ele>14.8</ele>
        <time>2020-06-12T04:11:27Z</time>
      </trkpt>
      <trkpt lat="49.03845" lon="-1.53367">
        <ele>14.9</ele>
        <time>2020-06-12T04:11:28Z</time>
      </trkpt>
      <trkpt lat="49.03847" lon="-1.53373">
        <ele>14.9</ele>
        <time>2020-06-12T04:11:29Z</time>
      </trkpt>
      <trkpt lat="49.03849" lon="-1.5338">
        <ele>15</ele>
        <time>2020-06-12T04:11:30Z</time>
      </trkpt>
      <trkpt lat="49.03851" lon="-1.53386">
        <ele>15</ele>
        <time>2020-06-12T04:11:31Z</time>
      </trkpt>
      <trkpt lat="49.03854" lon="-1.53393">
        <ele>15.1</ele>
        <time>2020-06-12T04:11:32Z</time>
      </trkpt>
      <trkpt lat="49.03857" lon="-1.53399">
        <ele>15.1</ele>
        <time>2020-06-12T04:11:33Z</time>
      </trkpt>
      <trkpt lat="49.0386" lon="-1.53405">
        <ele>15.2</ele>
        <time>2020-06-12T04:11:34Z</time>
      </trkpt>
      <trkpt lat="49.03862" lon="-1.53411">
        <ele>15.2</ele>
        <time>2020-06-12T04:11:35Z</time>
      </trkpt>
      <trkpt lat="49.03864" lon="-1.53416">
        <ele>15.3</ele>
        <time>2020-06-12T04:11:36Z</time>
      </trkpt>
      <trkpt lat="49.03866" lon="-1.53422">
        <ele>15.3</ele>
        <time>2020-06-12T04:11:37Z</time>
      </trkpt>
      <trkpt lat="49.03868" lon="-1.53427">
        <ele>15.4</ele>
        <time>2020-06-12T04:11:38Z</time>
      </trkpt>
      <trkpt lat="49.03871" lon="-1.53433">
        <ele>15.4</ele>
        <time>2020-06-12T04:11:39Z</time>
      </trkpt>
      <trkpt lat="49.03872" lon="-1.53438">
        <ele>15.5</ele>
        <time>2020-06-12T04:11:40Z</time>
      </trkpt>
      <trkpt lat="49.03874" lon="-1.53444">
        <ele>15.5</ele>
        <time>2020-06-12T04:11:41Z</time>
      </trkpt>
      <trkpt lat="49.03877" lon="-1.5345">
        <ele>15.5</ele>
        <time>2020-06-12T04:11:42Z</time>
      </trkpt>
      <trkpt lat="49.03879" lon="-1.53456">
        <ele>15.6</ele>
        <time>2020-06-12T04:11:43Z</time>
      </trkpt>
      <trkpt lat="49.03881" lon="-1.53461">
        <ele>15.6</ele>
        <time>2020-06-12T04:11:44Z</time>
      </trkpt>
      <trkpt lat="49.03883" lon="-1.53467">
        <ele>15.6</ele>
        <time>2020-06-12T04:11:45Z</time>
      </trkpt>
      <trkpt lat="49.03884" lon="-1.53474">
        <ele>15.6</ele>
        <time>2020-06-12T04:11:46Z</time>
      </trkpt>
      <trkpt lat="49.03886" lon="-1.53479">
        <ele>15.7</ele>
        <time>2020-06-12T04:11:47Z</time>
      </trkpt>
      <trkpt lat="49.03888" lon="-1.53485">
        <ele>15.7</ele>
        <time>2020-06-12T04:11:48Z</time>
      </trkpt>
      <trkpt lat="49.03889" lon="-1.5349">
        <ele>15.7</ele>
        <time>2020-06-12T04:11:49Z</time>
      </trkpt>
      <trkpt lat="49.03892" lon="-1.53496">
        <ele>15.8</ele>
        <time>2020-06-12T04:11:50Z</time>
      </trkpt>
      <trkpt lat="49.03894" lon="-1.53502">
        <ele>15.8</ele>
        <time>2020-06-12T04:11:51Z</time>
      </trkpt>
      <trkpt lat="49.03897" lon="-1.53508">
        <ele>15.9</ele>
        <time>2020-06-12T04:11:52Z</time>
      </trkpt>
      <trkpt lat="49.03899" lon="-1.53513">
        <ele>16</ele>
        <time>2020-06-12T04:11:53Z</time>
      </trkpt>
      <trkpt lat="49.03901" lon="-1.5352">
        <ele>16</ele>
        <time>2020-06-12T04:11:54Z</time>
      </trkpt>
      <trkpt lat="49.03903" lon="-1.53525">
        <ele>16.1</ele>
        <time>2020-06-12T04:11:55Z</time>
      </trkpt>
      <trkpt lat="49.03905" lon="-1.5353">
        <ele>16.1</ele>
        <time>2020-06-12T04:11:56Z</time>
      </trkpt>
      <trkpt lat="49.03908" lon="-1.53535">
        <ele>16.2</ele>
        <time>2020-06-12T04:11:57Z</time>
      </trkpt>
      <trkpt lat="49.0391" lon="-1.5354">
        <ele>16.2</ele>
        <time>2020-06-12T04:11:58Z</time>
      </trkpt>
      <trkpt lat="49.03912" lon="-1.53547">
        <ele>16.3</ele>
        <time>2020-06-12T04:11:59Z</time>
      </trkpt>
      <trkpt lat="49.03914" lon="-1.53553">
        <ele>16.4</ele>
        <time>2020-06-12T04:12:00Z</time>
      </trkpt>
      <trkpt lat="49.03917" lon="-1.53559">
        <ele>16.4</ele>
        <time>2020-06-12T04:12:01Z</time>
      </trkpt>
      <trkpt lat="49.03919" lon="-1.53566">
        <ele>16.5</ele>
        <time>2020-06-12T04:12:02Z</time>
      </trkpt>
      <trkpt lat="49.03921" lon="-1.53571">
        <ele>16.5</ele>
        <time>2020-06-12T04:12:03Z</time>
      </trkpt>
      <trkpt lat="49.03923" lon="-1.53578">
        <ele>16.6</ele>
        <time>2020-06-12T04:12:04Z</time>
      </trkpt>
      <trkpt lat="49.03924" lon="-1.53584">
        <ele>16.7</ele>
        <time>2020-06-12T04:12:05Z</time>
      </trkpt>
      <trkpt lat="49.03926" lon="-1.53588">
        <ele>16.7</ele>
        <time>2020-06-12T04:12:06Z</time>
      </trkpt>
      <trkpt lat="49.03927" lon="-1.53594">
        <ele>16.8</ele>
        <time>2020-06-12T04:12:07Z</time>
      </trkpt>
      <trkpt lat="49.03928" lon="-1.53599">
        <ele>16.9</ele>
        <time>2020-06-12T04:12:08Z</time>
      </trkpt>
      <trkpt lat="49.0393" lon="-1.53604">
        <ele>17</ele>
        <time>2020-06-12T04:12:09Z</time>
      </trkpt>
      <trkpt lat="49.03932" lon="-1.5361">
        <ele>17.1</ele>
        <time>2020-06-12T04:12:10Z</time>
      </trkpt>
      <trkpt lat="49.03934" lon="-1.53616">
        <ele>17.2</ele>
        <time>2020-06-12T04:12:11Z</time>
      </trkpt>
      <trkpt lat="49.03936" lon="-1.53621">
        <ele>17.3</ele>
        <time>2020-06-12T04:12:12Z</time>
      </trkpt>
      <trkpt lat="49.03939" lon="-1.53626">
        <ele>17.3</ele>
        <time>2020-06-12T04:12:13Z</time>
      </trkpt>
      <trkpt lat="49.03941" lon="-1.53631">
        <ele>17.4</ele>
        <time>2020-06-12T04:12:14Z</time>
      </trkpt>
      <trkpt lat="49.03943" lon="-1.53636">
        <ele>17.5</ele>
        <time>2020-06-12T04:12:15Z</time>
      </trkpt>
      <trkpt lat="49.03945" lon="-1.53643">
        <ele>17.5</ele>
        <time>2020-06-12T04:12:16Z</time>
      </trkpt>
      <trkpt lat="49.03947" lon="-1.53648">
        <ele>17.6</ele>
        <time>2020-06-12T04:12:17Z</time>
      </trkpt>
      <trkpt lat="49.03948" lon="-1.53654">
        <ele>17.7</ele>
        <time>2020-06-12T04:12:18Z</time>
      </trkpt>
      <trkpt lat="49.03949" lon="-1.5366">
        <ele>17.8</ele>
        <time>2020-06-12T04:12:19Z</time>
      </trkpt>
      <trkpt lat="49.03951" lon="-1.53665">
        <ele>17.9</ele>
        <time>2020-06-12T04:12:20Z</time>
      </trkpt>
      <trkpt lat="49.03953" lon="-1.5367">
        <ele>18</ele>
        <time>2020-06-12T04:12:21Z</time>
      </trkpt>
      <trkpt lat="49.03955" lon="-1.53675">
        <ele>18.1</ele>
        <time>2020-06-12T04:12:22Z</time>
      </trkpt>
      <trkpt lat="49.03957" lon="-1.5368">
        <ele>18.1</ele>
        <time>2020-06-12T04:12:23Z</time>
      </trkpt>
      <trkpt lat="49.03958" lon="-1.53685">
        <ele>18.2</ele>
        <time>2020-06-12T04:12:24Z</time>
      </trkpt>
      <trkpt lat="49.0396" lon="-1.5369">
        <ele>18.3</ele>
        <time>2020-06-12T04:12:25Z</time>
      </trkpt>
      <trkpt lat="49.03962" lon="-1.53695">
        <ele>18.3</ele>
        <time>2020-06-12T04:12:26Z</time>
      </trkpt>
      <trkpt lat="49.03964" lon="-1.53699">
        <ele>18.4</ele>
        <time>2020-06-12T04:12:27Z</time>
      </trkpt>
      <trkpt lat="49.03966" lon="-1.53703">
        <ele>18.4</ele>
        <time>2020-06-12T04:12:28Z</time>
      </trkpt>
      <trkpt lat="49.03968" lon="-1.53709">
        <ele>18.5</ele>
        <time>2020-06-12T04:12:29Z</time>
      </trkpt>
      <trkpt lat="49.0397" lon="-1.53713">
        <ele>18.5</ele>
        <time>2020-06-12T04:12:30Z</time>
      </trkpt>
      <trkpt lat="49.03972" lon="-1.53718">
        <ele>18.6</ele>
        <time>2020-06-12T04:12:31Z</time>
      </trkpt>
      <trkpt lat="49.03973" lon="-1.53724">
        <ele>18.6</ele>
        <time>2020-06-12T04:12:32Z</time>
      </trkpt>
      <trkpt lat="49.03975" lon="-1.5373">
        <ele>18.7</ele>
        <time>2020-06-12T04:12:33Z</time>
      </trkpt>
      <trkpt lat="49.03977" lon="-1.53735">
        <ele>18.7</ele>
        <time>2020-06-12T04:12:34Z</time>
      </trkpt>
      <trkpt lat="49.03979" lon="-1.53741">
        <ele>18.8</ele>
        <time>2020-06-12T04:12:35Z</time>
      </trkpt>
      <trkpt lat="49.0398" lon="-1.53747">
        <ele>18.8</ele>
        <time>2020-06-12T04:12:36Z</time>
      </trkpt>
      <trkpt lat="49.03981" lon="-1.53752">
        <ele>18.8</ele>
        <time>2020-06-12T04:12:37Z</time>
      </trkpt>
      <trkpt lat="49.03983" lon="-1.53758">
        <ele>18.9</ele>
        <time>2020-06-12T04:12:38Z</time>
      </trkpt>
      <trkpt lat="49.03985" lon="-1.53764">
        <ele>18.9</ele>
        <time>2020-06-12T04:12:39Z</time>
      </trkpt>
      <trkpt lat="49.03987" lon="-1.5377">
        <ele>19</ele>
        <time>2020-06-12T04:12:40Z</time>
      </trkpt>
      <trkpt lat="49.0399" lon="-1.53776">
        <ele>19</ele>
        <time>2020-06-12T04:12:41Z</time>
      </trkpt>
      <trkpt lat="49.03992" lon="-1.53782">
        <ele>19</ele>
        <time>2020-06-12T04:12:42Z</time>
      </trkpt>
      <trkpt lat="49.03994" lon="-1.53787">
        <ele>19</ele>
        <time>2020-06-12T04:12:43Z</time>
      </trkpt>
      <trkpt lat="49.03996" lon="-1.53793">
        <ele>19</ele>
        <time>2020-06-12T04:12:44Z</time>
      </trkpt>
      <trkpt lat="49.03998" lon="-1.53798">
        <ele>19</ele>
        <time>2020-06-12T04:12:45Z</time>
      </trkpt>
      <trkpt lat="49.04" lon="-1.53804">
        <ele>19</ele>
        <time>2020-06-12T04:12:46Z</time>
      </trkpt>
      <trkpt lat="49.04001" lon="-1.53809">
        <ele>19</ele>
        <time>2020-06-12T04:12:47Z</time>
      </trkpt>
      <trkpt lat="49.04003" lon="-1.53815">
        <ele>19</ele>
        <time>2020-06-12T04:12:48Z</time>
      </trkpt>
      <trkpt lat="49.04006" lon="-1.53821">
        <ele>18.9</ele>
        <time>2020-06-12T04:12:49Z</time>
      </trkpt>
      <trkpt lat="49.04008" lon="-1.53827">
        <ele>18.9</ele>
        <time>2020-06-12T04:12:50Z</time>
      </trkpt>
      <trkpt lat="49.0401" lon="-1.53833">
        <ele>18.9</ele>
        <time>2020-06-12T04:12:51Z</time>
      </trkpt>
      <trkpt lat="49.04012" lon="-1.5384">
        <ele>18.9</ele>
        <time>2020-06-12T04:12:52Z</time>
      </trkpt>
      <trkpt lat="49.04014" lon="-1.53846">
        <ele>18.8</ele>
        <time>2020-06-12T04:12:53Z</time>
      </trkpt>
      <trkpt lat="49.04016" lon="-1.53853">
        <ele>18.8</ele>
        <time>2020-06-12T04:12:54Z</time>
      </trkpt>
      <trkpt lat="49.04018" lon="-1.53859">
        <ele>18.7</ele>
        <time>2020-06-12T04:12:55Z</time>
      </trkpt>
      <trkpt lat="49.04021" lon="-1.53867">
        <ele>18.6</ele>
        <time>2020-06-12T04:12:56Z</time>
      </trkpt>
      <trkpt lat="49.04023" lon="-1.53874">
        <ele>18.6</ele>
        <time>2020-06-12T04:12:57Z</time>
      </trkpt>
      <trkpt lat="49.04026" lon="-1.53881">
        <ele>18.5</ele>
        <time>2020-06-12T04:12:58Z</time>
      </trkpt>
      <trkpt lat="49.04028" lon="-1.53888">
        <ele>18.4</ele>
        <time>2020-06-12T04:12:59Z</time>
      </trkpt>
      <trkpt lat="49.04031" lon="-1.53896">
        <ele>18.3</ele>
        <time>2020-06-12T04:13:00Z</time>
      </trkpt>
      <trkpt lat="49.04034" lon="-1.53902">
        <ele>18.2</ele>
        <time>2020-06-12T04:13:01Z</time>
      </trkpt>
      <trkpt lat="49.04036" lon="-1.53909">
        <ele>18.2</ele>
        <time>2020-06-12T04:13:02Z</time>
      </trkpt>
      <trkpt lat="49.04038" lon="-1.53916">
        <ele>18.1</ele>
        <time>2020-06-12T04:13:03Z</time>
      </trkpt>
      <trkpt lat="49.0404" lon="-1.53923">
        <ele>18</ele>
        <time>2020-06-12T04:13:04Z</time>
      </trkpt>
      <trkpt lat="49.04042" lon="-1.5393">
        <ele>17.9</ele>
        <time>2020-06-12T04:13:05Z</time>
      </trkpt>
      <trkpt lat="49.04044" lon="-1.53937">
        <ele>17.8</ele>
        <time>2020-06-12T04:13:06Z</time>
      </trkpt>
      <trkpt lat="49.04048" lon="-1.53944">
        <ele>17.7</ele>
        <time>2020-06-12T04:13:07Z</time>
      </trkpt>
      <trkpt lat="49.0405" lon="-1.5395">
        <ele>17.5</ele>
        <time>2020-06-12T04:13:08Z</time>
      </trkpt>
      <trkpt lat="49.04053" lon="-1.53957">
        <ele>17.4</ele>
        <time>2020-06-12T04:13:09Z</time>
      </trkpt>
      <trkpt lat="49.04055" lon="-1.53964">
        <ele>17.3</ele>
        <time>2020-06-12T04:13:10Z</time>
      </trkpt>
      <trkpt lat="49.04058" lon="-1.53971">
        <ele>17.1</ele>
        <time>2020-06-12T04:13:11Z</time>
      </trkpt>
      <trkpt lat="49.0406" lon="-1.53978">
        <ele>17</ele>
        <time>2020-06-12T04:13:12Z</time>
      </trkpt>
      <trkpt lat="49.04062" lon="-1.53985">
        <ele>16.9</ele>
        <time>2020-06-12T04:13:13Z</time>
      </trkpt>
      <trkpt lat="49.04065" lon="-1.53992">
        <ele>16.7</ele>
        <time>2020-06-12T04:13:14Z</time>
      </trkpt>
      <trkpt lat="49.04068" lon="-1.54">
        <ele>16.5</ele>
        <time>2020-06-12T04:13:15Z</time>
      </trkpt>
      <trkpt lat="49.0407" lon="-1.54007">
        <ele>16.3</ele>
        <time>2020-06-12T04:13:16Z</time>
      </trkpt>
      <trkpt lat="49.04073" lon="-1.54015">
        <ele>16.1</ele>
        <time>2020-06-12T04:13:17Z</time>
      </trkpt>
      <trkpt lat="49.04075" lon="-1.54023">
        <ele>15.9</ele>
        <time>2020-06-12T04:13:18Z</time>
      </trkpt>
      <trkpt lat="49.04078" lon="-1.5403">
        <ele>15.7</ele>
        <time>2020-06-12T04:13:19Z</time>
      </trkpt>
      <trkpt lat="49.0408" lon="-1.54038">
        <ele>15.4</ele>
        <time>2020-06-12T04:13:20Z</time>
      </trkpt>
      <trkpt lat="49.04082" lon="-1.54045">
        <ele>15.2</ele>
        <time>2020-06-12T04:13:21Z</time>
      </trkpt>
      <trkpt lat="49.04085" lon="-1.54053">
        <ele>15</ele>
        <time>2020-06-12T04:13:22Z</time>
      </trkpt>
      <trkpt lat="49.04088" lon="-1.54061">
        <ele>14.7</ele>
        <time>2020-06-12T04:13:23Z</time>
      </trkpt>
      <trkpt lat="49.04091" lon="-1.54067">
        <ele>14.5</ele>
        <time>2020-06-12T04:13:24Z</time>
      </trkpt>
      <trkpt lat="49.04094" lon="-1.54075">
        <ele>14.2</ele>
        <time>2020-06-12T04:13:25Z</time>
      </trkpt>
      <trkpt lat="49.04097" lon="-1.54084">
        <ele>14</ele>
        <time>2020-06-12T04:13:26Z</time>
      </trkpt>
      <trkpt lat="49.041" lon="-1.54094">
        <ele>13.6</ele>
        <time>2020-06-12T04:13:27Z</time>
      </trkpt>
      <trkpt lat="49.04102" lon="-1.54103">
        <ele>13.4</ele>
        <time>2020-06-12T04:13:28Z</time>
      </trkpt>
      <trkpt lat="49.04105" lon="-1.54111">
        <ele>13.1</ele>
        <time>2020-06-12T04:13:29Z</time>
      </trkpt>
      <trkpt lat="49.04108" lon="-1.54121">
        <ele>12.8</ele>
        <time>2020-06-12T04:13:30Z</time>
      </trkpt>
      <trkpt lat="49.04112" lon="-1.5413">
        <ele>12.5</ele>
        <time>2020-06-12T04:13:31Z</time>
      </trkpt>
      <trkpt lat="49.04114" lon="-1.5414">
        <ele>12.2</ele>
        <time>2020-06-12T04:13:32Z</time>
      </trkpt>
      <trkpt lat="49.04117" lon="-1.54149">
        <ele>11.9</ele>
        <time>2020-06-12T04:13:33Z</time>
      </trkpt>
      <trkpt lat="49.04121" lon="-1.54159">
        <ele>11.6</ele>
        <time>2020-06-12T04:13:34Z</time>
      </trkpt>
      <trkpt lat="49.04124" lon="-1.54169">
        <ele>11.3</ele>
        <time>2020-06-12T04:13:35Z</time>
      </trkpt>
      <trkpt lat="49.04127" lon="-1.54179">
        <ele>11</ele>
        <time>2020-06-12T04:13:36Z</time>
      </trkpt>
      <trkpt lat="49.0413" lon="-1.54189">
        <ele>10.6</ele>
        <time>2020-06-12T04:13:37Z</time>
      </trkpt>
      <trkpt lat="49.04133" lon="-1.54199">
        <ele>10.3</ele>
        <time>2020-06-12T04:13:38Z</time>
      </trkpt>
      <trkpt lat="49.04136" lon="-1.54209">
        <ele>10</ele>
        <time>2020-06-12T04:13:39Z</time>
      </trkpt>
      <trkpt lat="49.04139" lon="-1.5422">
        <ele>9.7</ele>
        <time>2020-06-12T04:13:40Z</time>
      </trkpt>
      <trkpt lat="49.04142" lon="-1.5423">
        <ele>9.6</ele>
        <time>2020-06-12T04:13:41Z</time>
      </trkpt>
      <trkpt lat="49.04144" lon="-1.54241">
        <ele>9.4</ele>
        <time>2020-06-12T04:13:42Z</time>
      </trkpt>
      <trkpt lat="49.04147" lon="-1.54251">
        <ele>9.4</ele>
        <time>2020-06-12T04:13:43Z</time>
      </trkpt>
      <trkpt lat="49.0415" lon="-1.54261">
        <ele>9.3</ele>
        <time>2020-06-12T04:13:44Z</time>
      </trkpt>
      <trkpt lat="49.04151" lon="-1.54272">
        <ele>9.2</ele>
        <time>2020-06-12T04:13:45Z</time>
      </trkpt>
      <trkpt lat="49.04153" lon="-1.54282">
        <ele>9.2</ele>
        <time>2020-06-12T04:13:46Z</time>
      </trkpt>
      <trkpt lat="49.04155" lon="-1.54291">
        <ele>9.2</ele>
        <time>2020-06-12T04:13:47Z</time>
      </trkpt>
      <trkpt lat="49.04157" lon="-1.54301">
        <ele>9.2</ele>
        <time>2020-06-12T04:13:48Z</time>
      </trkpt>
      <trkpt lat="49.0416" lon="-1.5431">
        <ele>9.3</ele>
        <time>2020-06-12T04:13:49Z</time>
      </trkpt>
      <trkpt lat="49.04161" lon="-1.54319">
        <ele>9.4</ele>
        <time>2020-06-12T04:13:50Z</time>
      </trkpt>
      <trkpt lat="49.04163" lon="-1.54328">
        <ele>9.5</ele>
        <time>2020-06-12T04:13:51Z</time>
      </trkpt>
      <trkpt lat="49.04165" lon="-1.54336">
        <ele>9.5</ele>
        <time>2020-06-12T04:13:52Z</time>
      </trkpt>
      <trkpt lat="49.04167" lon="-1.54344">
        <ele>9.6</ele>
        <time>2020-06-12T04:13:53Z</time>
      </trkpt>
      <trkpt lat="49.04168" lon="-1.54353">
        <ele>9.7</ele>
        <time>2020-06-12T04:13:54Z</time>
      </trkpt>
      <trkpt lat="49.04169" lon="-1.54361">
        <ele>9.8</ele>
        <time>2020-06-12T04:13:55Z</time>
      </trkpt>
      <trkpt lat="49.04171" lon="-1.54369">
        <ele>9.9</ele>
        <time>2020-06-12T04:13:56Z</time>
      </trkpt>
      <trkpt lat="49.04172" lon="-1.54376">
        <ele>10</ele>
        <time>2020-06-12T04:13:57Z</time>
      </trkpt>
      <trkpt lat="49.04173" lon="-1.54383">
        <ele>10.1</ele>
        <time>2020-06-12T04:13:58Z</time>
      </trkpt>
      <trkpt lat="49.04175" lon="-1.5439">
        <ele>10.2</ele>
        <time>2020-06-12T04:13:59Z</time>
      </trkpt>
      <trkpt lat="49.04175" lon="-1.54397">
        <ele>10.4</ele>
        <time>2020-06-12T04:14:00Z</time>
      </trkpt>
      <trkpt lat="49.04176" lon="-1.54404">
        <ele>10.5</ele>
        <time>2020-06-12T04:14:01Z</time>
      </trkpt>
      <trkpt lat="49.04177" lon="-1.54411">
        <ele>10.6</ele>
        <time>2020-06-12T04:14:02Z</time>
      </trkpt>
      <trkpt lat="49.04178" lon="-1.54418">
        <ele>10.8</ele>
        <time>2020-06-12T04:14:03Z</time>
      </trkpt>
      <trkpt lat="49.04179" lon="-1.54425">
        <ele>10.9</ele>
        <time>2020-06-12T04:14:04Z</time>
      </trkpt>
      <trkpt lat="49.04181" lon="-1.54432">
        <ele>11</ele>
        <time>2020-06-12T04:14:05Z</time>
      </trkpt>
      <trkpt lat="49.04182" lon="-1.5444">
        <ele>11.1</ele>
        <time>2020-06-12T04:14:06Z</time>
      </trkpt>
      <trkpt lat="49.04183" lon="-1.54446">
        <ele>11.2</ele>
        <time>2020-06-12T04:14:07Z</time>
      </trkpt>
      <trkpt lat="49.04184" lon="-1.54454">
        <ele>11.3</ele>
        <time>2020-06-12T04:14:08Z</time>
      </trkpt>
      <trkpt lat="49.04185" lon="-1.54461">
        <ele>11.4</ele>
        <time>2020-06-12T04:14:09Z</time>
      </trkpt>
      <trkpt lat="49.04187" lon="-1.54467">
        <ele>11.6</ele>
        <time>2020-06-12T04:14:10Z</time>
      </trkpt>
      <trkpt lat="49.04187" lon="-1.54472">
        <ele>11.6</ele>
        <time>2020-06-12T04:14:11Z</time>
      </trkpt>
      <trkpt lat="49.04188" lon="-1.54479">
        <ele>11.7</ele>
        <time>2020-06-12T04:14:12Z</time>
      </trkpt>
      <trkpt lat="49.04189" lon="-1.54485">
        <ele>11.8</ele>
        <time>2020-06-12T04:14:13Z</time>
      </trkpt>
      <trkpt lat="49.0419" lon="-1.54491">
        <ele>11.9</ele>
        <time>2020-06-12T04:14:14Z</time>
      </trkpt>
      <trkpt lat="49.04191" lon="-1.54497">
        <ele>12</ele>
        <time>2020-06-12T04:14:15Z</time>
      </trkpt>
      <trkpt lat="49.04193" lon="-1.54505">
        <ele>12.1</ele>
        <time>2020-06-12T04:14:16Z</time>
      </trkpt>
      <trkpt lat="49.04193" lon="-1.54511">
        <ele>12.2</ele>
        <time>2020-06-12T04:14:17Z</time>
      </trkpt>
      <trkpt lat="49.04194" lon="-1.54518">
        <ele>12.3</ele>
        <time>2020-06-12T04:14:18Z</time>
      </trkpt>
      <trkpt lat="49.04196" lon="-1.54526">
        <ele>12.4</ele>
        <time>2020-06-12T04:14:19Z</time>
      </trkpt>
      <trkpt lat="49.04197" lon="-1.54533">
        <ele>12.5</ele>
        <time>2020-06-12T04:14:20Z</time>
      </trkpt>
      <trkpt lat="49.04197" lon="-1.5454">
        <ele>12.6</ele>
        <time>2020-06-12T04:14:21Z</time>
      </trkpt>
      <trkpt lat="49.04198" lon="-1.54546">
        <ele>12.7</ele>
        <time>2020-06-12T04:14:22Z</time>
      </trkpt>
      <trkpt lat="49.04199" lon="-1.54552">
        <ele>12.8</ele>
        <time>2020-06-12T04:14:23Z</time>
      </trkpt>
      <trkpt lat="49.042" lon="-1.54557">
        <ele>12.8</ele>
        <time>2020-06-12T04:14:24Z</time>
      </trkpt>
      <trkpt lat="49.042" lon="-1.54564">
        <ele>12.9</ele>
        <time>2020-06-12T04:14:25Z</time>
      </trkpt>
      <trkpt lat="49.04201" lon="-1.54568">
        <ele>13</ele>
        <time>2020-06-12T04:14:26Z</time>
      </trkpt>
      <trkpt lat="49.04202" lon="-1.54574">
        <ele>13</ele>
        <time>2020-06-12T04:14:27Z</time>
      </trkpt>
      <trkpt lat="49.04203" lon="-1.5458">
        <ele>13.1</ele>
        <time>2020-06-12T04:14:28Z</time>
      </trkpt>
      <trkpt lat="49.04204" lon="-1.54585">
        <ele>13.2</ele>
        <time>2020-06-12T04:14:29Z</time>
      </trkpt>
      <trkpt lat="49.04204" lon="-1.54591">
        <ele>13.2</ele>
        <time>2020-06-12T04:14:30Z</time>
      </trkpt>
      <trkpt lat="49.04205" lon="-1.54597">
        <ele>13.3</ele>
        <time>2020-06-12T04:14:31Z</time>
      </trkpt>
      <trkpt lat="49.04206" lon="-1.54602">
        <ele>13.4</ele>
        <time>2020-06-12T04:14:32Z</time>
      </trkpt>
      <trkpt lat="49.04207" lon="-1.54608">
        <ele>13.5</ele>
        <time>2020-06-12T04:14:33Z</time>
      </trkpt>
      <trkpt lat="49.04207" lon="-1.54613">
        <ele>13.6</ele>
        <time>2020-06-12T04:14:34Z</time>
      </trkpt>
      <trkpt lat="49.04208" lon="-1.54618">
        <ele>13.7</ele>
        <time>2020-06-12T04:14:35Z</time>
      </trkpt>
      <trkpt lat="49.04209" lon="-1.54623">
        <ele>13.8</ele>
        <time>2020-06-12T04:14:36Z</time>
      </trkpt>
      <trkpt lat="49.0421" lon="-1.54629">
        <ele>13.9</ele>
        <time>2020-06-12T04:14:37Z</time>
      </trkpt>
      <trkpt lat="49.0421" lon="-1.54634">
        <ele>14</ele>
        <time>2020-06-12T04:14:38Z</time>
      </trkpt>
      <trkpt lat="49.0421" lon="-1.54641">
        <ele>14.1</ele>
        <time>2020-06-12T04:14:39Z</time>
      </trkpt>
      <trkpt lat="49.04211" lon="-1.54647">
        <ele>14.2</ele>
        <time>2020-06-12T04:14:40Z</time>
      </trkpt>
      <trkpt lat="49.04212" lon="-1.54652">
        <ele>14.3</ele>
        <time>2020-06-12T04:14:41Z</time>
      </trkpt>
      <trkpt lat="49.04213" lon="-1.54658">
        <ele>14.3</ele>
        <time>2020-06-12T04:14:42Z</time>
      </trkpt>
      <trkpt lat="49.04214" lon="-1.54664">
        <ele>14.4</ele>
        <time>2020-06-12T04:14:43Z</time>
      </trkpt>
      <trkpt lat="49.04215" lon="-1.5467">
        <ele>14.5</ele>
        <time>2020-06-12T04:14:44Z</time>
      </trkpt>
      <trkpt lat="49.04216" lon="-1.54675">
        <ele>14.6</ele>
        <time>2020-06-12T04:14:45Z</time>
      </trkpt>
      <trkpt lat="49.04217" lon="-1.5468">
        <ele>14.7</ele>
        <time>2020-06-12T04:14:46Z</time>
      </trkpt>
      <trkpt lat="49.04218" lon="-1.54685">
        <ele>14.7</ele>
        <time>2020-06-12T04:14:47Z</time>
      </trkpt>
      <trkpt lat="49.04218" lon="-1.54691">
        <ele>14.8</ele>
        <time>2020-06-12T04:14:48Z</time>
      </trkpt>
      <trkpt lat="49.04219" lon="-1.54697">
        <ele>14.9</ele>
        <time>2020-06-12T04:14:49Z</time>
      </trkpt>
      <trkpt lat="49.0422" lon="-1.54702">
        <ele>14.9</ele>
        <time>2020-06-12T04:14:50Z</time>
      </trkpt>
      <trkpt lat="49.0422" lon="-1.54707">
        <ele>15</ele>
        <time>2020-06-12T04:14:51Z</time>
      </trkpt>
      <trkpt lat="49.0422" lon="-1.54713">
        <ele>15.1</ele>
        <time>2020-06-12T04:14:52Z</time>
      </trkpt>
      <trkpt lat="49.04221" lon="-1.54719">
        <ele>15.2</ele>
        <time>2020-06-12T04:14:53Z</time>
      </trkpt>
      <trkpt lat="49.04222" lon="-1.54725">
        <ele>15.3</ele>
        <time>2020-06-12T04:14:54Z</time>
      </trkpt>
      <trkpt lat="49.04222" lon="-1.54731">
        <ele>15.4</ele>
        <time>2020-06-12T04:14:55Z</time>
      </trkpt>
      <trkpt lat="49.04223" lon="-1.54736">
        <ele>15.4</ele>
        <time>2020-06-12T04:14:56Z</time>
      </trkpt>
      <trkpt lat="49.04224" lon="-1.54741">
        <ele>15.5</ele>
        <time>2020-06-12T04:14:57Z</time>
      </trkpt>
      <trkpt lat="49.04224" lon="-1.54746">
        <ele>15.6</ele>
        <time>2020-06-12T04:14:58Z</time>
      </trkpt>
      <trkpt lat="49.04225" lon="-1.54751">
        <ele>15.7</ele>
        <time>2020-06-12T04:14:59Z</time>
      </trkpt>
      <trkpt lat="49.04225" lon="-1.54757">
        <ele>15.8</ele>
        <time>2020-06-12T04:15:00Z</time>
      </trkpt>
      <trkpt lat="49.04227" lon="-1.54763">
        <ele>15.9</ele>
        <time>2020-06-12T04:15:01Z</time>
      </trkpt>
      <trkpt lat="49.04228" lon="-1.54769">
        <ele>16</ele>
        <time>2020-06-12T04:15:02Z</time>
      </trkpt>
      <trkpt lat="49.04229" lon="-1.54774">
        <ele>16.1</ele>
        <time>2020-06-12T04:15:03Z</time>
      </trkpt>
      <trkpt lat="49.04229" lon="-1.5478">
        <ele>16.2</ele>
        <time>2020-06-12T04:15:04Z</time>
      </trkpt>
      <trkpt lat="49.0423" lon="-1.54785">
        <ele>16.3</ele>
        <time>2020-06-12T04:15:05Z</time>
      </trkpt>
      <trkpt lat="49.04231" lon="-1.5479">
        <ele>16.4</ele>
        <time>2020-06-12T04:15:06Z</time>
      </trkpt>
      <trkpt lat="49.04232" lon="-1.54796">
        <ele>16.5</ele>
        <time>2020-06-12T04:15:07Z</time>
      </trkpt>
      <trkpt lat="49.04234" lon="-1.54799">
        <ele>16.6</ele>
        <time>2020-06-12T04:15:08Z</time>
      </trkpt>
      <trkpt lat="49.04235" lon="-1.54803">
        <ele>16.6</ele>
        <time>2020-06-12T04:15:09Z</time>
      </trkpt>
      <trkpt lat="49.04237" lon="-1.54807">
        <ele>16.7</ele>
        <time>2020-06-12T04:15:10Z</time>
      </trkpt>
      <trkpt lat="49.0424" lon="-1.5481">
        <ele>16.8</ele>
        <time>2020-06-12T04:15:11Z</time>
      </trkpt>
      <trkpt lat="49.04244" lon="-1.54812">
        <ele>18.2</ele>
        <time>2020-06-12T04:15:12Z</time>
      </trkpt>
      <trkpt lat="49.04245" lon="-1.54813">
        <ele>18.3</ele>
        <time>2020-06-12T04:15:13Z</time>
      </trkpt>
      <trkpt lat="49.04248" lon="-1.54814">
        <ele>18.7</ele>
        <time>2020-06-12T04:15:14Z</time>
      </trkpt>
      <trkpt lat="49.04249" lon="-1.54814">
        <ele>18.7</ele>
        <time>2020-06-12T04:15:15Z</time>
      </trkpt>
      <trkpt lat="49.04251" lon="-1.54813">
        <ele>18.9</ele>
        <time>2020-06-12T04:15:16Z</time>
      </trkpt>
      <trkpt lat="49.04252" lon="-1.54812">
        <ele>19</ele>
        <time>2020-06-12T04:15:17Z</time>
      </trkpt>
      <trkpt lat="49.04254" lon="-1.54812">
        <ele>19.1</ele>
        <time>2020-06-12T04:15:18Z</time>
      </trkpt>
      <trkpt lat="49.04255" lon="-1.54812">
        <ele>19.2</ele>
        <time>2020-06-12T04:15:19Z</time>
      </trkpt>
      <trkpt lat="49.04256" lon="-1.54814">
        <ele>19.3</ele>
        <time>2020-06-12T04:15:20Z</time>
      </trkpt>
      <trkpt lat="49.04257" lon="-1.54815">
        <ele>19.4</ele>
        <time>2020-06-12T04:15:21Z</time>
      </trkpt>
      <trkpt lat="49.04259" lon="-1.54818">
        <ele>19.6</ele>
        <time>2020-06-12T04:15:22Z</time>
      </trkpt>
      <trkpt lat="49.0426" lon="-1.54819">
        <ele>19.6</ele>
        <time>2020-06-12T04:15:23Z</time>
      </trkpt>
      <trkpt lat="49.04262" lon="-1.54822">
        <ele>19.8</ele>
        <time>2020-06-12T04:15:24Z</time>
      </trkpt>
      <trkpt lat="49.04263" lon="-1.54822">
        <ele>19.9</ele>
        <time>2020-06-12T04:15:25Z</time>
      </trkpt>
      <trkpt lat="49.04264" lon="-1.54823">
        <ele>20</ele>
        <time>2020-06-12T04:15:26Z</time>
      </trkpt>
      <trkpt lat="49.04265" lon="-1.54823">
        <ele>20</ele>
        <time>2020-06-12T04:15:27Z</time>
      </trkpt>
      <trkpt lat="49.04266" lon="-1.54824">
        <ele>20.1</ele>
        <time>2020-06-12T04:15:28Z</time>
      </trkpt>
      <trkpt lat="49.04268" lon="-1.54826">
        <ele>20.2</ele>
        <time>2020-06-12T04:15:29Z</time>
      </trkpt>
      <trkpt lat="49.04269" lon="-1.54826">
        <ele>20.3</ele>
        <time>2020-06-12T04:15:30Z</time>
      </trkpt>
      <trkpt lat="49.0427" lon="-1.54826">
        <ele>20.3</ele>
        <time>2020-06-12T04:15:31Z</time>
      </trkpt>
      <trkpt lat="49.0427" lon="-1.54824">
        <ele>20.4</ele>
        <time>2020-06-12T04:15:32Z</time>
      </trkpt>
      <trkpt lat="49.04271" lon="-1.54823">
        <ele>20.4</ele>
        <time>2020-06-12T04:15:33Z</time>
      </trkpt>
      <trkpt lat="49.04271" lon="-1.54822">
        <ele>20.5</ele>
        <time>2020-06-12T04:15:34Z</time>
      </trkpt>
      <trkpt lat="49.04274" lon="-1.54821">
        <ele>20.7</ele>
        <time>2020-06-12T04:15:35Z</time>
      </trkpt>
      <trkpt lat="49.04275" lon="-1.54819">
        <ele>20.7</ele>
        <time>2020-06-12T04:15:36Z</time>
      </trkpt>
      <trkpt lat="49.04277" lon="-1.54817">
        <ele>20.9</ele>
        <time>2020-06-12T04:15:37Z</time>
      </trkpt>
      <trkpt lat="49.04279" lon="-1.54814">
        <ele>21.1</ele>
        <time>2020-06-12T04:15:38Z</time>
      </trkpt>
      <trkpt lat="49.0428" lon="-1.54813">
        <ele>21.2</ele>
        <time>2020-06-12T04:15:39Z</time>
      </trkpt>
      <trkpt lat="49.04282" lon="-1.54811">
        <ele>21.3</ele>
        <time>2020-06-12T04:15:40Z</time>
      </trkpt>
      <trkpt lat="49.04283" lon="-1.5481">
        <ele>21.4</ele>
        <time>2020-06-12T04:15:41Z</time>
      </trkpt>
      <trkpt lat="49.04286" lon="-1.54807">
        <ele>21.6</ele>
        <time>2020-06-12T04:15:42Z</time>
      </trkpt>
      <trkpt lat="49.04287" lon="-1.54806">
        <ele>21.7</ele>
        <time>2020-06-12T04:15:43Z</time>
      </trkpt>
      <trkpt lat="49.04288" lon="-1.54805">
        <ele>21.8</ele>
        <time>2020-06-12T04:15:44Z</time>
      </trkpt>
      <trkpt lat="49.04289" lon="-1.54803">
        <ele>21.9</ele>
        <time>2020-06-12T04:15:45Z</time>
      </trkpt>
      <trkpt lat="49.04292" lon="-1.54801">
        <ele>22.1</ele>
        <time>2020-06-12T04:15:46Z</time>
      </trkpt>
      <trkpt lat="49.04293" lon="-1.548">
        <ele>22.1</ele>
        <time>2020-06-12T04:15:47Z</time>
      </trkpt>
      <trkpt lat="49.04296" lon="-1.54798">
        <ele>22.3</ele>
        <time>2020-06-12T04:15:48Z</time>
      </trkpt>
      <trkpt lat="49.04296" lon="-1.54797">
        <ele>22.4</ele>
        <time>2020-06-12T04:15:49Z</time>
      </trkpt>
      <trkpt lat="49.043" lon="-1.54795">
        <ele>22.6</ele>
        <time>2020-06-12T04:15:50Z</time>
      </trkpt>
      <trkpt lat="49.04301" lon="-1.54794">
        <ele>22.7</ele>
        <time>2020-06-12T04:15:51Z</time>
      </trkpt>
      <trkpt lat="49.04302" lon="-1.54793">
        <ele>22.8</ele>
        <time>2020-06-12T04:15:52Z</time>
      </trkpt>
      <trkpt lat="49.04303" lon="-1.54792">
        <ele>22.9</ele>
        <time>2020-06-12T04:15:53Z</time>
      </trkpt>
      <trkpt lat="49.04306" lon="-1.54789">
        <ele>23.2</ele>
        <time>2020-06-12T04:15:54Z</time>
      </trkpt>
      <trkpt lat="49.04307" lon="-1.54789">
        <ele>23.3</ele>
        <time>2020-06-12T04:15:55Z</time>
      </trkpt>
      <trkpt lat="49.0431" lon="-1.54788">
        <ele>23.5</ele>
        <time>2020-06-12T04:15:56Z</time>
      </trkpt>
      <trkpt lat="49.04311" lon="-1.54787">
        <ele>23.5</ele>
        <time>2020-06-12T04:15:57Z</time>
      </trkpt>
      <trkpt lat="49.04313" lon="-1.54784">
        <ele>23.7</ele>
        <time>2020-06-12T04:15:58Z</time>
      </trkpt>
      <trkpt lat="49.04313" lon="-1.54782">
        <ele>23.8</ele>
        <time>2020-06-12T04:15:59Z</time>
      </trkpt>
      <trkpt lat="49.04316" lon="-1.5478">
        <ele>24.1</ele>
        <time>2020-06-12T04:16:00Z</time>
      </trkpt>
      <trkpt lat="49.04317" lon="-1.54779">
        <ele>24.1</ele>
        <time>2020-06-12T04:16:01Z</time>
      </trkpt>
      <trkpt lat="49.0432" lon="-1.54775">
        <ele>24.4</ele>
        <time>2020-06-12T04:16:02Z</time>
      </trkpt>
      <trkpt lat="49.04321" lon="-1.54773">
        <ele>24.5</ele>
        <time>2020-06-12T04:16:03Z</time>
      </trkpt>
      <trkpt lat="49.04323" lon="-1.54771">
        <ele>24.7</ele>
        <time>2020-06-12T04:16:04Z</time>
      </trkpt>
      <trkpt lat="49.04324" lon="-1.5477">
        <ele>24.8</ele>
        <time>2020-06-12T04:16:05Z</time>
      </trkpt>
      <trkpt lat="49.04326" lon="-1.54768">
        <ele>24.9</ele>
        <time>2020-06-12T04:16:06Z</time>
      </trkpt>
      <trkpt lat="49.04327" lon="-1.54768">
        <ele>25</ele>
        <time>2020-06-12T04:16:07Z</time>
      </trkpt>
      <trkpt lat="49.0433" lon="-1.54764">
        <ele>25.3</ele>
        <time>2020-06-12T04:16:08Z</time>
      </trkpt>
      <trkpt lat="49.04331" lon="-1.54763">
        <ele>25.4</ele>
        <time>2020-06-12T04:16:09Z</time>
      </trkpt>
      <trkpt lat="49.04332" lon="-1.54762">
        <ele>25.5</ele>
        <time>2020-06-12T04:16:10Z</time>
      </trkpt>
      <trkpt lat="49.04333" lon="-1.54762">
        <ele>25.5</ele>
        <time>2020-06-12T04:16:11Z</time>
      </trkpt>
      <trkpt lat="49.04333" lon="-1.54761">
        <ele>25.6</ele>
        <time>2020-06-12T04:16:12Z</time>
      </trkpt>
      <trkpt lat="49.04335" lon="-1.5476">
        <ele>25.7</ele>
        <time>2020-06-12T04:16:13Z</time>
      </trkpt>
      <trkpt lat="49.04336" lon="-1.54759">
        <ele>25.9</ele>
        <time>2020-06-12T04:16:14Z</time>
      </trkpt>
      <trkpt lat="49.04337" lon="-1.54758">
        <ele>25.9</ele>
        <time>2020-06-12T04:16:15Z</time>
      </trkpt>
      <trkpt lat="49.04339" lon="-1.54758">
        <ele>26.1</ele>
        <time>2020-06-12T04:16:16Z</time>
      </trkpt>
      <trkpt lat="49.04339" lon="-1.54758">
        <ele>26.1</ele>
        <time>2020-06-12T04:16:17Z</time>
      </trkpt>
      <trkpt lat="49.04341" lon="-1.54755">
        <ele>26.3</ele>
        <time>2020-06-12T04:16:18Z</time>
      </trkpt>
      <trkpt lat="49.04342" lon="-1.54754">
        <ele>26.4</ele>
        <time>2020-06-12T04:16:19Z</time>
      </trkpt>
      <trkpt lat="49.04343" lon="-1.54753">
        <ele>26.5</ele>
        <time>2020-06-12T04:16:20Z</time>
      </trkpt>
      <trkpt lat="49.04345" lon="-1.5475">
        <ele>26.7</ele>
        <time>2020-06-12T04:16:21Z</time>
      </trkpt>
      <trkpt lat="49.04346" lon="-1.5475">
        <ele>26.8</ele>
        <time>2020-06-12T04:16:22Z</time>
      </trkpt>
      <trkpt lat="49.04349" lon="-1.54748">
        <ele>27.1</ele>
        <time>2020-06-12T04:16:23Z</time>
      </trkpt>
      <trkpt lat="49.0435" lon="-1.54747">
        <ele>27.2</ele>
        <time>2020-06-12T04:16:24Z</time>
      </trkpt>
      <trkpt lat="49.04353" lon="-1.54745">
        <ele>27.4</ele>
        <time>2020-06-12T04:16:25Z</time>
      </trkpt>
      <trkpt lat="49.04354" lon="-1.54745">
        <ele>27.5</ele>
        <time>2020-06-12T04:16:26Z</time>
      </trkpt>
      <trkpt lat="49.04356" lon="-1.54745">
        <ele>27.6</ele>
        <time>2020-06-12T04:16:27Z</time>
      </trkpt>
      <trkpt lat="49.04358" lon="-1.54744">
        <ele>27.7</ele>
        <time>2020-06-12T04:16:28Z</time>
      </trkpt>
      <trkpt lat="49.04359" lon="-1.54743">
        <ele>27.9</ele>
        <time>2020-06-12T04:16:29Z</time>
      </trkpt>
      <trkpt lat="49.04361" lon="-1.54743">
        <ele>28</ele>
        <time>2020-06-12T04:16:30Z</time>
      </trkpt>
      <trkpt lat="49.04364" lon="-1.54741">
        <ele>28.2</ele>
        <time>2020-06-12T04:16:31Z</time>
      </trkpt>
      <trkpt lat="49.04365" lon="-1.54741">
        <ele>28.3</ele>
        <time>2020-06-12T04:16:32Z</time>
      </trkpt>
      <trkpt lat="49.04368" lon="-1.5474">
        <ele>28.5</ele>
        <time>2020-06-12T04:16:33Z</time>
      </trkpt>
      <trkpt lat="49.04371" lon="-1.5474">
        <ele>28.7</ele>
        <time>2020-06-12T04:16:34Z</time>
      </trkpt>
      <trkpt lat="49.04373" lon="-1.54741">
        <ele>28.8</ele>
        <time>2020-06-12T04:16:35Z</time>
      </trkpt>
      <trkpt lat="49.04374" lon="-1.54741">
        <ele>28.9</ele>
        <time>2020-06-12T04:16:36Z</time>
      </trkpt>
      <trkpt lat="49.04376" lon="-1.54742">
        <ele>29</ele>
        <time>2020-06-12T04:16:37Z</time>
      </trkpt>
      <trkpt lat="49.04378" lon="-1.54743">
        <ele>29.2</ele>
        <time>2020-06-12T04:16:38Z</time>
      </trkpt>
      <trkpt lat="49.04379" lon="-1.54743">
        <ele>29.2</ele>
        <time>2020-06-12T04:16:39Z</time>
      </trkpt>
      <trkpt lat="49.0438" lon="-1.54744">
        <ele>29.3</ele>
        <time>2020-06-12T04:16:40Z</time>
      </trkpt>
      <trkpt lat="49.04382" lon="-1.54745">
        <ele>29.5</ele>
        <time>2020-06-12T04:16:41Z</time>
      </trkpt>
      <trkpt lat="49.04385" lon="-1.54746">
        <ele>29.6</ele>
        <time>2020-06-12T04:16:42Z</time>
      </trkpt>
      <trkpt lat="49.04386" lon="-1.54747">
        <ele>29.7</ele>
        <time>2020-06-12T04:16:43Z</time>
      </trkpt>
      <trkpt lat="49.04389" lon="-1.54747">
        <ele>29.9</ele>
        <time>2020-06-12T04:16:44Z</time>
      </trkpt>
      <trkpt lat="49.0439" lon="-1.54747">
        <ele>29.9</ele>
        <time>2020-06-12T04:16:45Z</time>
      </trkpt>
      <trkpt lat="49.04392" lon="-1.54748">
        <ele>30.1</ele>
        <time>2020-06-12T04:16:46Z</time>
      </trkpt>
      <trkpt lat="49.04393" lon="-1.54748">
        <ele>30.2</ele>
        <time>2020-06-12T04:16:47Z</time>
      </trkpt>
      <trkpt lat="49.04397" lon="-1.54749">
        <ele>30.4</ele>
        <time>2020-06-12T04:16:48Z</time>
      </trkpt>
      <trkpt lat="49.04398" lon="-1.54749">
        <ele>30.5</ele>
        <time>2020-06-12T04:16:49Z</time>
      </trkpt>
      <trkpt lat="49.04401" lon="-1.54751">
        <ele>30.7</ele>
        <time>2020-06-12T04:16:50Z</time>
      </trkpt>
      <trkpt lat="49.04402" lon="-1.54751">
        <ele>30.7</ele>
        <time>2020-06-12T04:16:51Z</time>
      </trkpt>
      <trkpt lat="49.04404" lon="-1.54752">
        <ele>30.9</ele>
        <time>2020-06-12T04:16:52Z</time>
      </trkpt>
      <trkpt lat="49.04405" lon="-1.54752">
        <ele>31</ele>
        <time>2020-06-12T04:16:53Z</time>
      </trkpt>
      <trkpt lat="49.04408" lon="-1.54754">
        <ele>31.1</ele>
        <time>2020-06-12T04:16:54Z</time>
      </trkpt>
      <trkpt lat="49.04409" lon="-1.54755">
        <ele>31.2</ele>
        <time>2020-06-12T04:16:55Z</time>
      </trkpt>
      <trkpt lat="49.04412" lon="-1.54757">
        <ele>31.4</ele>
        <time>2020-06-12T04:16:56Z</time>
      </trkpt>
      <trkpt lat="49.04413" lon="-1.54758">
        <ele>31.5</ele>
        <time>2020-06-12T04:16:57Z</time>
      </trkpt>
      <trkpt lat="49.04416" lon="-1.5476">
        <ele>31.7</ele>
        <time>2020-06-12T04:16:58Z</time>
      </trkpt>
      <trkpt lat="49.04417" lon="-1.5476">
        <ele>31.7</ele>
        <time>2020-06-12T04:16:59Z</time>
      </trkpt>
      <trkpt lat="49.04419" lon="-1.54761">
        <ele>31.9</ele>
        <time>2020-06-12T04:17:00Z</time>
      </trkpt>
      <trkpt lat="49.0442" lon="-1.54762">
        <ele>31.9</ele>
        <time>2020-06-12T04:17:01Z</time>
      </trkpt>
      <trkpt lat="49.04421" lon="-1.54763">
        <ele>32</ele>
        <time>2020-06-12T04:17:02Z</time>
      </trkpt>
      <trkpt lat="49.04423" lon="-1.54763">
        <ele>32.1</ele>
        <time>2020-06-12T04:17:03Z</time>
      </trkpt>
      <trkpt lat="49.04426" lon="-1.54765">
        <ele>32.3</ele>
        <time>2020-06-12T04:17:04Z</time>
      </trkpt>
      <trkpt lat="49.04427" lon="-1.54765">
        <ele>32.4</ele>
        <time>2020-06-12T04:17:05Z</time>
      </trkpt>
      <trkpt lat="49.04428" lon="-1.54766">
        <ele>32.5</ele>
        <time>2020-06-12T04:17:06Z</time>
      </trkpt>
      <trkpt lat="49.0443" lon="-1.54767">
        <ele>32.6</ele>
        <time>2020-06-12T04:17:07Z</time>
      </trkpt>
      <trkpt lat="49.04431" lon="-1.54768">
        <ele>32.7</ele>
        <time>2020-06-12T04:17:08Z</time>
      </trkpt>
      <trkpt lat="49.04433" lon="-1.54769">
        <ele>32.8</ele>
        <time>2020-06-12T04:17:09Z</time>
      </trkpt>
      <trkpt lat="49.04435" lon="-1.5477">
        <ele>33</ele>
        <time>2020-06-12T04:17:10Z</time>
      </trkpt>
      <trkpt lat="49.04436" lon="-1.54771">
        <ele>33</ele>
        <time>2020-06-12T04:17:11Z</time>
      </trkpt>
      <trkpt lat="49.04439" lon="-1.54773">
        <ele>33.2</ele>
        <time>2020-06-12T04:17:12Z</time>
      </trkpt>
      <trkpt lat="49.0444" lon="-1.54774">
        <ele>33.3</ele>
        <time>2020-06-12T04:17:13Z</time>
      </trkpt>
      <trkpt lat="49.04442" lon="-1.54777">
        <ele>33.5</ele>
        <time>2020-06-12T04:17:14Z</time>
      </trkpt>
      <trkpt lat="49.04443" lon="-1.54778">
        <ele>33.6</ele>
        <time>2020-06-12T04:17:15Z</time>
      </trkpt>
      <trkpt lat="49.04446" lon="-1.54779">
        <ele>33.8</ele>
        <time>2020-06-12T04:17:16Z</time>
      </trkpt>
      <trkpt lat="49.04447" lon="-1.54779">
        <ele>33.8</ele>
        <time>2020-06-12T04:17:17Z</time>
      </trkpt>
      <trkpt lat="49.0445" lon="-1.54779">
        <ele>34</ele>
        <time>2020-06-12T04:17:18Z</time>
      </trkpt>
      <trkpt lat="49.04452" lon="-1.54779">
        <ele>34.1</ele>
        <time>2020-06-12T04:17:19Z</time>
      </trkpt>
      <trkpt lat="49.04454" lon="-1.54781">
        <ele>34.3</ele>
        <time>2020-06-12T04:17:20Z</time>
      </trkpt>
      <trkpt lat="49.04455" lon="-1.54781">
        <ele>34.3</ele>
        <time>2020-06-12T04:17:21Z</time>
      </trkpt>
      <trkpt lat="49.04458" lon="-1.54782">
        <ele>34.5</ele>
        <time>2020-06-12T04:17:22Z</time>
      </trkpt>
      <trkpt lat="49.04459" lon="-1.54782">
        <ele>34.5</ele>
        <time>2020-06-12T04:17:23Z</time>
      </trkpt>
      <trkpt lat="49.04462" lon="-1.54783">
        <ele>34.7</ele>
        <time>2020-06-12T04:17:24Z</time>
      </trkpt>
      <trkpt lat="49.04463" lon="-1.54784">
        <ele>34.7</ele>
        <time>2020-06-12T04:17:25Z</time>
      </trkpt>
      <trkpt lat="49.04465" lon="-1.54785">
        <ele>34.9</ele>
        <time>2020-06-12T04:17:26Z</time>
      </trkpt>
      <trkpt lat="49.04466" lon="-1.54786">
        <ele>35</ele>
        <time>2020-06-12T04:17:27Z</time>
      </trkpt>
      <trkpt lat="49.04467" lon="-1.54788">
        <ele>35.1</ele>
        <time>2020-06-12T04:17:28Z</time>
      </trkpt>
      <trkpt lat="49.04468" lon="-1.54789">
        <ele>35.2</ele>
        <time>2020-06-12T04:17:29Z</time>
      </trkpt>
      <trkpt lat="49.04469" lon="-1.5479">
        <ele>35.3</ele>
        <time>2020-06-12T04:17:30Z</time>
      </trkpt>
      <trkpt lat="49.04471" lon="-1.54791">
        <ele>35.5</ele>
        <time>2020-06-12T04:17:31Z</time>
      </trkpt>
      <trkpt lat="49.04474" lon="-1.54792">
        <ele>35.7</ele>
        <time>2020-06-12T04:17:32Z</time>
      </trkpt>
      <trkpt lat="49.04475" lon="-1.54792">
        <ele>35.8</ele>
        <time>2020-06-12T04:17:33Z</time>
      </trkpt>
      <trkpt lat="49.04477" lon="-1.54793">
        <ele>35.9</ele>
        <time>2020-06-12T04:17:34Z</time>
      </trkpt>
      <trkpt lat="49.04478" lon="-1.54795">
        <ele>36</ele>
        <time>2020-06-12T04:17:35Z</time>
      </trkpt>
      <trkpt lat="49.04482" lon="-1.54795">
        <ele>36.3</ele>
        <time>2020-06-12T04:17:36Z</time>
      </trkpt>
      <trkpt lat="49.04483" lon="-1.54795">
        <ele>36.3</ele>
        <time>2020-06-12T04:17:37Z</time>
      </trkpt>
      <trkpt lat="49.04486" lon="-1.54796">
        <ele>36.6</ele>
        <time>2020-06-12T04:17:38Z</time>
      </trkpt>
      <trkpt lat="49.04487" lon="-1.54797">
        <ele>36.7</ele>
        <time>2020-06-12T04:17:39Z</time>
      </trkpt>
      <trkpt lat="49.04489" lon="-1.54799">
        <ele>36.9</ele>
        <time>2020-06-12T04:17:40Z</time>
      </trkpt>
      <trkpt lat="49.0449" lon="-1.54799">
        <ele>36.9</ele>
        <time>2020-06-12T04:17:41Z</time>
      </trkpt>
      <trkpt lat="49.04492" lon="-1.548">
        <ele>37.1</ele>
        <time>2020-06-12T04:17:42Z</time>
      </trkpt>
      <trkpt lat="49.04493" lon="-1.54801">
        <ele>37.2</ele>
        <time>2020-06-12T04:17:43Z</time>
      </trkpt>
      <trkpt lat="49.04496" lon="-1.54801">
        <ele>37.4</ele>
        <time>2020-06-12T04:17:44Z</time>
      </trkpt>
      <trkpt lat="49.04497" lon="-1.54802">
        <ele>37.5</ele>
        <time>2020-06-12T04:17:45Z</time>
      </trkpt>
      <trkpt lat="49.045" lon="-1.54804">
        <ele>37.8</ele>
        <time>2020-06-12T04:17:46Z</time>
      </trkpt>
      <trkpt lat="49.04501" lon="-1.54804">
        <ele>37.8</ele>
        <time>2020-06-12T04:17:47Z</time>
      </trkpt>
      <trkpt lat="49.04504" lon="-1.54805">
        <ele>38.1</ele>
        <time>2020-06-12T04:17:48Z</time>
      </trkpt>
      <trkpt lat="49.04505" lon="-1.54806">
        <ele>38.2</ele>
        <time>2020-06-12T04:17:49Z</time>
      </trkpt>
      <trkpt lat="49.04508" lon="-1.54807">
        <ele>38.4</ele>
        <time>2020-06-12T04:17:50Z</time>
      </trkpt>
      <trkpt lat="49.04509" lon="-1.54807">
        <ele>38.5</ele>
        <time>2020-06-12T04:17:51Z</time>
      </trkpt>
      <trkpt lat="49.04511" lon="-1.54808">
        <ele>38.7</ele>
        <time>2020-06-12T04:17:52Z</time>
      </trkpt>
      <trkpt lat="49.04512" lon="-1.5481">
        <ele>38.8</ele>
        <time>2020-06-12T04:17:53Z</time>
      </trkpt>
      <trkpt lat="49.04515" lon="-1.54812">
        <ele>39.1</ele>
        <time>2020-06-12T04:17:54Z</time>
      </trkpt>
      <trkpt lat="49.04516" lon="-1.54813">
        <ele>39.2</ele>
        <time>2020-06-12T04:17:55Z</time>
      </trkpt>
      <trkpt lat="49.04519" lon="-1.54815">
        <ele>39.5</ele>
        <time>2020-06-12T04:17:56Z</time>
      </trkpt>
      <trkpt lat="49.0452" lon="-1.54816">
        <ele>39.6</ele>
        <time>2020-06-12T04:17:57Z</time>
      </trkpt>
      <trkpt lat="49.04523" lon="-1.54818">
        <ele>39.9</ele>
        <time>2020-06-12T04:17:58Z</time>
      </trkpt>
      <trkpt lat="49.04524" lon="-1.54819">
        <ele>40</ele>
        <time>2020-06-12T04:17:59Z</time>
      </trkpt>
      <trkpt lat="49.04526" lon="-1.5482">
        <ele>40.1</ele>
        <time>2020-06-12T04:18:00Z</time>
      </trkpt>
      <trkpt lat="49.04527" lon="-1.54821">
        <ele>40.2</ele>
        <time>2020-06-12T04:18:01Z</time>
      </trkpt>
      <trkpt lat="49.04529" lon="-1.54822">
        <ele>40.4</ele>
        <time>2020-06-12T04:18:02Z</time>
      </trkpt>
      <trkpt lat="49.0453" lon="-1.54823">
        <ele>40.5</ele>
        <time>2020-06-12T04:18:03Z</time>
      </trkpt>
      <trkpt lat="49.0453" lon="-1.54824">
        <ele>40.6</ele>
        <time>2020-06-12T04:18:04Z</time>
      </trkpt>
      <trkpt lat="49.04532" lon="-1.54825">
        <ele>40.7</ele>
        <time>2020-06-12T04:18:05Z</time>
      </trkpt>
      <trkpt lat="49.04534" lon="-1.54826">
        <ele>40.9</ele>
        <time>2020-06-12T04:18:06Z</time>
      </trkpt>
      <trkpt lat="49.04536" lon="-1.54828">
        <ele>41.1</ele>
        <time>2020-06-12T04:18:07Z</time>
      </trkpt>
      <trkpt lat="49.04537" lon="-1.54829">
        <ele>41.2</ele>
        <time>2020-06-12T04:18:08Z</time>
      </trkpt>
      <trkpt lat="49.0454" lon="-1.54829">
        <ele>41.4</ele>
        <time>2020-06-12T04:18:09Z</time>
      </trkpt>
      <trkpt lat="49.04541" lon="-1.5483">
        <ele>41.5</ele>
        <time>2020-06-12T04:18:10Z</time>
      </trkpt>
      <trkpt lat="49.04544" lon="-1.54831">
        <ele>41.7</ele>
        <time>2020-06-12T04:18:11Z</time>
      </trkpt>
      <trkpt lat="49.04544" lon="-1.54832">
        <ele>41.8</ele>
        <time>2020-06-12T04:18:12Z</time>
      </trkpt>
      <trkpt lat="49.04546" lon="-1.54833">
        <ele>42</ele>
        <time>2020-06-12T04:18:13Z</time>
      </trkpt>
      <trkpt lat="49.04547" lon="-1.54833">
        <ele>42.1</ele>
        <time>2020-06-12T04:18:14Z</time>
      </trkpt>
      <trkpt lat="49.04548" lon="-1.54833">
        <ele>42.1</ele>
        <time>2020-06-12T04:18:15Z</time>
      </trkpt>
      <trkpt lat="49.0455" lon="-1.54834">
        <ele>42.3</ele>
        <time>2020-06-12T04:18:16Z</time>
      </trkpt>
      <trkpt lat="49.04551" lon="-1.54834">
        <ele>42.4</ele>
        <time>2020-06-12T04:18:17Z</time>
      </trkpt>
      <trkpt lat="49.04554" lon="-1.54836">
        <ele>42.7</ele>
        <time>2020-06-12T04:18:18Z</time>
      </trkpt>
      <trkpt lat="49.04555" lon="-1.54836">
        <ele>42.8</ele>
        <time>2020-06-12T04:18:19Z</time>
      </trkpt>
      <trkpt lat="49.04559" lon="-1.54838">
        <ele>43.1</ele>
        <time>2020-06-12T04:18:20Z</time>
      </trkpt>
      <trkpt lat="49.0456" lon="-1.54838">
        <ele>43.2</ele>
        <time>2020-06-12T04:18:21Z</time>
      </trkpt>
      <trkpt lat="49.04562" lon="-1.54838">
        <ele>43.4</ele>
        <time>2020-06-12T04:18:22Z</time>
      </trkpt>
      <trkpt lat="49.04563" lon="-1.54839">
        <ele>43.5</ele>
        <time>2020-06-12T04:18:23Z</time>
      </trkpt>
      <trkpt lat="49.04564" lon="-1.54842">
        <ele>43.7</ele>
        <time>2020-06-12T04:18:24Z</time>
      </trkpt>
      <trkpt lat="49.04565" lon="-1.54843">
        <ele>43.8</ele>
        <time>2020-06-12T04:18:25Z</time>
      </trkpt>
      <trkpt lat="49.04567" lon="-1.54844">
        <ele>44</ele>
        <time>2020-06-12T04:18:26Z</time>
      </trkpt>
      <trkpt lat="49.04568" lon="-1.54846">
        <ele>44.1</ele>
        <time>2020-06-12T04:18:27Z</time>
      </trkpt>
      <trkpt lat="49.04569" lon="-1.54847">
        <ele>44.3</ele>
        <time>2020-06-12T04:18:28Z</time>
      </trkpt>
      <trkpt lat="49.04571" lon="-1.54848">
        <ele>44.4</ele>
        <time>2020-06-12T04:18:29Z</time>
      </trkpt>
      <trkpt lat="49.04573" lon="-1.54849">
        <ele>44.7</ele>
        <time>2020-06-12T04:18:30Z</time>
      </trkpt>
      <trkpt lat="49.04574" lon="-1.54849">
        <ele>44.7</ele>
        <time>2020-06-12T04:18:31Z</time>
      </trkpt>
      <trkpt lat="49.04577" lon="-1.54852">
        <ele>45.1</ele>
        <time>2020-06-12T04:18:32Z</time>
      </trkpt>
      <trkpt lat="49.04578" lon="-1.54853">
        <ele>45.1</ele>
        <time>2020-06-12T04:18:33Z</time>
      </trkpt>
      <trkpt lat="49.04581" lon="-1.54853">
        <ele>45.4</ele>
        <time>2020-06-12T04:18:34Z</time>
      </trkpt>
      <trkpt lat="49.04583" lon="-1.54853">
        <ele>45.5</ele>
        <time>2020-06-12T04:18:35Z</time>
      </trkpt>
      <trkpt lat="49.04584" lon="-1.54854">
        <ele>45.6</ele>
        <time>2020-06-12T04:18:36Z</time>
      </trkpt>
      <trkpt lat="49.04585" lon="-1.54855">
        <ele>45.6</ele>
        <time>2020-06-12T04:18:37Z</time>
      </trkpt>
      <trkpt lat="49.04586" lon="-1.54855">
        <ele>45.7</ele>
        <time>2020-06-12T04:18:38Z</time>
      </trkpt>
      <trkpt lat="49.04587" lon="-1.54855">
        <ele>45.8</ele>
        <time>2020-06-12T04:18:39Z</time>
      </trkpt>
      <trkpt lat="49.04589" lon="-1.54853">
        <ele>45.9</ele>
        <time>2020-06-12T04:18:40Z</time>
      </trkpt>
      <trkpt lat="49.04591" lon="-1.54851">
        <ele>46.1</ele>
        <time>2020-06-12T04:18:41Z</time>
      </trkpt>
      <trkpt lat="49.04592" lon="-1.5485">
        <ele>46.1</ele>
        <time>2020-06-12T04:18:42Z</time>
      </trkpt>
      <trkpt lat="49.04594" lon="-1.54846">
        <ele>46.2</ele>
        <time>2020-06-12T04:18:43Z</time>
      </trkpt>
      <trkpt lat="49.04595" lon="-1.54845">
        <ele>46.2</ele>
        <time>2020-06-12T04:18:44Z</time>
      </trkpt>
      <trkpt lat="49.04596" lon="-1.54843">
        <ele>46.2</ele>
        <time>2020-06-12T04:18:45Z</time>
      </trkpt>
      <trkpt lat="49.04596" lon="-1.54841">
        <ele>46.3</ele>
        <time>2020-06-12T04:18:46Z</time>
      </trkpt>
      <trkpt lat="49.04597" lon="-1.5484">
        <ele>46.3</ele>
        <time>2020-06-12T04:18:47Z</time>
      </trkpt>
      <trkpt lat="49.04599" lon="-1.54838">
        <ele>46.4</ele>
        <time>2020-06-12T04:18:48Z</time>
      </trkpt>
      <trkpt lat="49.04601" lon="-1.54838">
        <ele>46.4</ele>
        <time>2020-06-12T04:18:49Z</time>
      </trkpt>
      <trkpt lat="49.04602" lon="-1.54839">
        <ele>46.4</ele>
        <time>2020-06-12T04:18:50Z</time>
      </trkpt>
      <trkpt lat="49.04604" lon="-1.54839">
        <ele>46.4</ele>
        <time>2020-06-12T04:18:51Z</time>
      </trkpt>
      <trkpt lat="49.04605" lon="-1.5484">
        <ele>46.5</ele>
        <time>2020-06-12T04:18:52Z</time>
      </trkpt>
      <trkpt lat="49.04607" lon="-1.5484">
        <ele>46.5</ele>
        <time>2020-06-12T04:18:53Z</time>
      </trkpt>
      <trkpt lat="49.04609" lon="-1.54841">
        <ele>46.5</ele>
        <time>2020-06-12T04:18:54Z</time>
      </trkpt>
      <trkpt lat="49.04612" lon="-1.54841">
        <ele>46.6</ele>
        <time>2020-06-12T04:18:55Z</time>
      </trkpt>
      <trkpt lat="49.04614" lon="-1.54841">
        <ele>46.6</ele>
        <time>2020-06-12T04:18:56Z</time>
      </trkpt>
      <trkpt lat="49.04617" lon="-1.5484">
        <ele>46.6</ele>
        <time>2020-06-12T04:18:57Z</time>
      </trkpt>
      <trkpt lat="49.04619" lon="-1.54838">
        <ele>46.7</ele>
        <time>2020-06-12T04:18:58Z</time>
      </trkpt>
      <trkpt lat="49.04623" lon="-1.54837">
        <ele>46.7</ele>
        <time>2020-06-12T04:18:59Z</time>
      </trkpt>
      <trkpt lat="49.04624" lon="-1.54836">
        <ele>46.7</ele>
        <time>2020-06-12T04:19:00Z</time>
      </trkpt>
      <trkpt lat="49.04628" lon="-1.54835">
        <ele>46.8</ele>
        <time>2020-06-12T04:19:01Z</time>
      </trkpt>
      <trkpt lat="49.04629" lon="-1.54835">
        <ele>46.8</ele>
        <time>2020-06-12T04:19:02Z</time>
      </trkpt>
      <trkpt lat="49.04632" lon="-1.54834">
        <ele>46.9</ele>
        <time>2020-06-12T04:19:03Z</time>
      </trkpt>
      <trkpt lat="49.04633" lon="-1.54834">
        <ele>46.9</ele>
        <time>2020-06-12T04:19:04Z</time>
      </trkpt>
      <trkpt lat="49.04637" lon="-1.54835">
        <ele>47</ele>
        <time>2020-06-12T04:19:05Z</time>
      </trkpt>
      <trkpt lat="49.04638" lon="-1.54835">
        <ele>47</ele>
        <time>2020-06-12T04:19:06Z</time>
      </trkpt>
      <trkpt lat="49.04642" lon="-1.54835">
        <ele>47.1</ele>
        <time>2020-06-12T04:19:07Z</time>
      </trkpt>
      <trkpt lat="49.04643" lon="-1.54836">
        <ele>47.1</ele>
        <time>2020-06-12T04:19:08Z</time>
      </trkpt>
      <trkpt lat="49.04646" lon="-1.54836">
        <ele>47.2</ele>
        <time>2020-06-12T04:19:09Z</time>
      </trkpt>
      <trkpt lat="49.04647" lon="-1.54836">
        <ele>47.2</ele>
        <time>2020-06-12T04:19:10Z</time>
      </trkpt>
      <trkpt lat="49.04651" lon="-1.54836">
        <ele>47.3</ele>
        <time>2020-06-12T04:19:11Z</time>
      </trkpt>
      <trkpt lat="49.04652" lon="-1.54836">
        <ele>47.4</ele>
        <time>2020-06-12T04:19:12Z</time>
      </trkpt>
      <trkpt lat="49.04655" lon="-1.54836">
        <ele>47.5</ele>
        <time>2020-06-12T04:19:13Z</time>
      </trkpt>
      <trkpt lat="49.04656" lon="-1.54835">
        <ele>47.5</ele>
        <time>2020-06-12T04:19:14Z</time>
      </trkpt>
      <trkpt lat="49.04658" lon="-1.54836">
        <ele>47.5</ele>
        <time>2020-06-12T04:19:15Z</time>
      </trkpt>
      <trkpt lat="49.0466" lon="-1.54837">
        <ele>47.6</ele>
        <time>2020-06-12T04:19:16Z</time>
      </trkpt>
      <trkpt lat="49.04663" lon="-1.54838">
        <ele>47.7</ele>
        <time>2020-06-12T04:19:17Z</time>
      </trkpt>
      <trkpt lat="49.04664" lon="-1.54839">
        <ele>47.7</ele>
        <time>2020-06-12T04:19:18Z</time>
      </trkpt>
      <trkpt lat="49.04667" lon="-1.54839">
        <ele>47.8</ele>
        <time>2020-06-12T04:19:19Z</time>
      </trkpt>
      <trkpt lat="49.0467" lon="-1.5484">
        <ele>47.9</ele>
        <time>2020-06-12T04:19:20Z</time>
      </trkpt>
      <trkpt lat="49.04672" lon="-1.54841">
        <ele>47.9</ele>
        <time>2020-06-12T04:19:21Z</time>
      </trkpt>
      <trkpt lat="49.04673" lon="-1.54842">
        <ele>47.9</ele>
        <time>2020-06-12T04:19:22Z</time>
      </trkpt>
      <trkpt lat="49.04676" lon="-1.54843">
        <ele>48</ele>
        <time>2020-06-12T04:19:23Z</time>
      </trkpt>
      <trkpt lat="49.04677" lon="-1.54843">
        <ele>48</ele>
        <time>2020-06-12T04:19:24Z</time>
      </trkpt>
      <trkpt lat="49.04679" lon="-1.54843">
        <ele>48.1</ele>
        <time>2020-06-12T04:19:25Z</time>
      </trkpt>
      <trkpt lat="49.04681" lon="-1.54843">
        <ele>48.1</ele>
        <time>2020-06-12T04:19:26Z</time>
      </trkpt>
      <trkpt lat="49.04683" lon="-1.54844">
        <ele>48.2</ele>
        <time>2020-06-12T04:19:27Z</time>
      </trkpt>
      <trkpt lat="49.04687" lon="-1.54845">
        <ele>48.2</ele>
        <time>2020-06-12T04:19:28Z</time>
      </trkpt>
      <trkpt lat="49.04692" lon="-1.54845">
        <ele>48.3</ele>
        <time>2020-06-12T04:19:29Z</time>
      </trkpt>
      <trkpt lat="49.04695" lon="-1.54845">
        <ele>48.3</ele>
        <time>2020-06-12T04:19:30Z</time>
      </trkpt>
      <trkpt lat="49.04699" lon="-1.54845">
        <ele>48.4</ele>
        <time>2020-06-12T04:19:31Z</time>
      </trkpt>
      <trkpt lat="49.04703" lon="-1.54845">
        <ele>48.4</ele>
        <time>2020-06-12T04:19:32Z</time>
      </trkpt>
      <trkpt lat="49.04707" lon="-1.54844">
        <ele>48.4</ele>
        <time>2020-06-12T04:19:33Z</time>
      </trkpt>
      <trkpt lat="49.04711" lon="-1.54844">
        <ele>48.4</ele>
        <time>2020-06-12T04:19:34Z</time>
      </trkpt>
      <trkpt lat="49.04715" lon="-1.54845">
        <ele>48.4</ele>
        <time>2020-06-12T04:19:35Z</time>
      </trkpt>
      <trkpt lat="49.04718" lon="-1.54845">
        <ele>48.4</ele>
        <time>2020-06-12T04:19:36Z</time>
      </trkpt>
      <trkpt lat="49.04722" lon="-1.54846">
        <ele>48.4</ele>
        <time>2020-06-12T04:19:37Z</time>
      </trkpt>
      <trkpt lat="49.04723" lon="-1.54846">
        <ele>48.4</ele>
        <time>2020-06-12T04:19:38Z</time>
      </trkpt>
      <trkpt lat="49.04726" lon="-1.54846">
        <ele>48.3</ele>
        <time>2020-06-12T04:19:39Z</time>
      </trkpt>
      <trkpt lat="49.0473" lon="-1.54846">
        <ele>48.3</ele>
        <time>2020-06-12T04:19:40Z</time>
      </trkpt>
      <trkpt lat="49.04732" lon="-1.54847">
        <ele>48.2</ele>
        <time>2020-06-12T04:19:41Z</time>
      </trkpt>
      <trkpt lat="49.04736" lon="-1.54849">
        <ele>48.2</ele>
        <time>2020-06-12T04:19:42Z</time>
      </trkpt>
      <trkpt lat="49.04739" lon="-1.54851">
        <ele>48.2</ele>
        <time>2020-06-12T04:19:43Z</time>
      </trkpt>
      <trkpt lat="49.04742" lon="-1.54854">
        <ele>48.1</ele>
        <time>2020-06-12T04:19:44Z</time>
      </trkpt>
      <trkpt lat="49.04745" lon="-1.54856">
        <ele>48.1</ele>
        <time>2020-06-12T04:19:45Z</time>
      </trkpt>
      <trkpt lat="49.04749" lon="-1.54857">
        <ele>48</ele>
        <time>2020-06-12T04:19:46Z</time>
      </trkpt>
      <trkpt lat="49.04752" lon="-1.54858">
        <ele>47.9</ele>
        <time>2020-06-12T04:19:47Z</time>
      </trkpt>
      <trkpt lat="49.04755" lon="-1.54861">
        <ele>47.9</ele>
        <time>2020-06-12T04:19:48Z</time>
      </trkpt>
      <trkpt lat="49.04757" lon="-1.54865">
        <ele>47.7</ele>
        <time>2020-06-12T04:19:49Z</time>
      </trkpt>
      <trkpt lat="49.04758" lon="-1.54867">
        <ele>47.7</ele>
        <time>2020-06-12T04:19:50Z</time>
      </trkpt>
      <trkpt lat="49.0476" lon="-1.54871">
        <ele>47.6</ele>
        <time>2020-06-12T04:19:51Z</time>
      </trkpt>
      <trkpt lat="49.04766" lon="-1.54875">
        <ele>47.4</ele>
        <time>2020-06-12T04:19:52Z</time>
      </trkpt>
      <trkpt lat="49.04771" lon="-1.5488">
        <ele>47.2</ele>
        <time>2020-06-12T04:19:53Z</time>
      </trkpt>
      <trkpt lat="49.04775" lon="-1.54885">
        <ele>47</ele>
        <time>2020-06-12T04:19:54Z</time>
      </trkpt>
      <trkpt lat="49.04779" lon="-1.5489">
        <ele>46.8</ele>
        <time>2020-06-12T04:19:55Z</time>
      </trkpt>
      <trkpt lat="49.04784" lon="-1.54897">
        <ele>46.5</ele>
        <time>2020-06-12T04:19:56Z</time>
      </trkpt>
      <trkpt lat="49.04789" lon="-1.54903">
        <ele>46.2</ele>
        <time>2020-06-12T04:19:57Z</time>
      </trkpt>
      <trkpt lat="49.04794" lon="-1.54909">
        <ele>46</ele>
        <time>2020-06-12T04:19:58Z</time>
      </trkpt>
      <trkpt lat="49.04799" lon="-1.54914">
        <ele>45.7</ele>
        <time>2020-06-12T04:19:59Z</time>
      </trkpt>
      <trkpt lat="49.04804" lon="-1.54918">
        <ele>45.5</ele>
        <time>2020-06-12T04:20:00Z</time>
      </trkpt>
      <trkpt lat="49.04809" lon="-1.54924">
        <ele>45.3</ele>
        <time>2020-06-12T04:20:01Z</time>
      </trkpt>
      <trkpt lat="49.04815" lon="-1.54929">
        <ele>45</ele>
        <time>2020-06-12T04:20:02Z</time>
      </trkpt>
      <trkpt lat="49.0482" lon="-1.54935">
        <ele>44.8</ele>
        <time>2020-06-12T04:20:03Z</time>
      </trkpt>
      <trkpt lat="49.04825" lon="-1.54941">
        <ele>44.5</ele>
        <time>2020-06-12T04:20:04Z</time>
      </trkpt>
      <trkpt lat="49.0483" lon="-1.54947">
        <ele>44.3</ele>
        <time>2020-06-12T04:20:05Z</time>
      </trkpt>
      <trkpt lat="49.04834" lon="-1.54952">
        <ele>44.1</ele>
        <time>2020-06-12T04:20:06Z</time>
      </trkpt>
      <trkpt lat="49.04841" lon="-1.54957">
        <ele>43.9</ele>
        <time>2020-06-12T04:20:07Z</time>
      </trkpt>
      <trkpt lat="49.04846" lon="-1.54963">
        <ele>43.6</ele>
        <time>2020-06-12T04:20:08Z</time>
      </trkpt>
      <trkpt lat="49.04851" lon="-1.54968">
        <ele>43.4</ele>
        <time>2020-06-12T04:20:09Z</time>
      </trkpt>
      <trkpt lat="49.04856" lon="-1.54972">
        <ele>43.2</ele>
        <time>2020-06-12T04:20:10Z</time>
      </trkpt>
      <trkpt lat="49.04862" lon="-1.54977">
        <ele>42.9</ele>
        <time>2020-06-12T04:20:11Z</time>
      </trkpt>
      <trkpt lat="49.04869" lon="-1.54983">
        <ele>42.5</ele>
        <time>2020-06-12T04:20:12Z</time>
      </trkpt>
      <trkpt lat="49.04875" lon="-1.54988">
        <ele>42.3</ele>
        <time>2020-06-12T04:20:13Z</time>
      </trkpt>
      <trkpt lat="49.04881" lon="-1.54993">
        <ele>41.9</ele>
        <time>2020-06-12T04:20:14Z</time>
      </trkpt>
      <trkpt lat="49.04887" lon="-1.54999">
        <ele>41.7</ele>
        <time>2020-06-12T04:20:15Z</time>
      </trkpt>
      <trkpt lat="49.04892" lon="-1.55005">
        <ele>41.4</ele>
        <time>2020-06-12T04:20:16Z</time>
      </trkpt>
      <trkpt lat="49.04898" lon="-1.55008">
        <ele>41.1</ele>
        <time>2020-06-12T04:20:17Z</time>
      </trkpt>
      <trkpt lat="49.04904" lon="-1.55015">
        <ele>40.8</ele>
        <time>2020-06-12T04:20:18Z</time>
      </trkpt>
      <trkpt lat="49.0491" lon="-1.5502">
        <ele>40.6</ele>
        <time>2020-06-12T04:20:19Z</time>
      </trkpt>
      <trkpt lat="49.04916" lon="-1.55024">
        <ele>40.4</ele>
        <time>2020-06-12T04:20:20Z</time>
      </trkpt>
      <trkpt lat="49.04921" lon="-1.55028">
        <ele>40.2</ele>
        <time>2020-06-12T04:20:21Z</time>
      </trkpt>
      <trkpt lat="49.04927" lon="-1.55033">
        <ele>39.9</ele>
        <time>2020-06-12T04:20:22Z</time>
      </trkpt>
      <trkpt lat="49.04932" lon="-1.55038">
        <ele>39.6</ele>
        <time>2020-06-12T04:20:23Z</time>
      </trkpt>
      <trkpt lat="49.04937" lon="-1.55043">
        <ele>39.3</ele>
        <time>2020-06-12T04:20:24Z</time>
      </trkpt>
      <trkpt lat="49.04942" lon="-1.55047">
        <ele>39</ele>
        <time>2020-06-12T04:20:25Z</time>
      </trkpt>
      <trkpt lat="49.04947" lon="-1.55053">
        <ele>38.6</ele>
        <time>2020-06-12T04:20:26Z</time>
      </trkpt>
      <trkpt lat="49.04951" lon="-1.55057">
        <ele>38.4</ele>
        <time>2020-06-12T04:20:27Z</time>
      </trkpt>
      <trkpt lat="49.04954" lon="-1.55062">
        <ele>38.1</ele>
        <time>2020-06-12T04:20:28Z</time>
      </trkpt>
      <trkpt lat="49.04959" lon="-1.55065">
        <ele>37.8</ele>
        <time>2020-06-12T04:20:29Z</time>
      </trkpt>
      <trkpt lat="49.04963" lon="-1.5507">
        <ele>37.5</ele>
        <time>2020-06-12T04:20:30Z</time>
      </trkpt>
      <trkpt lat="49.04966" lon="-1.55077">
        <ele>37.1</ele>
        <time>2020-06-12T04:20:31Z</time>
      </trkpt>
      <trkpt lat="49.0497" lon="-1.55083">
        <ele>36.7</ele>
        <time>2020-06-12T04:20:32Z</time>
      </trkpt>
      <trkpt lat="49.04975" lon="-1.55088">
        <ele>36.4</ele>
        <time>2020-06-12T04:20:33Z</time>
      </trkpt>
      <trkpt lat="49.04979" lon="-1.55093">
        <ele>36</ele>
        <time>2020-06-12T04:20:34Z</time>
      </trkpt>
      <trkpt lat="49.04982" lon="-1.55097">
        <ele>35.6</ele>
        <time>2020-06-12T04:20:35Z</time>
      </trkpt>
      <trkpt lat="49.04986" lon="-1.55102">
        <ele>35.2</ele>
        <time>2020-06-12T04:20:36Z</time>
      </trkpt>
      <trkpt lat="49.0499" lon="-1.55107">
        <ele>34.8</ele>
        <time>2020-06-12T04:20:37Z</time>
      </trkpt>
      <trkpt lat="49.04994" lon="-1.55113">
        <ele>34.4</ele>
        <time>2020-06-12T04:20:38Z</time>
      </trkpt>
      <trkpt lat="49.04998" lon="-1.55117">
        <ele>34.1</ele>
        <time>2020-06-12T04:20:39Z</time>
      </trkpt>
      <trkpt lat="49.05003" lon="-1.55121">
        <ele>33.7</ele>
        <time>2020-06-12T04:20:40Z</time>
      </trkpt>
      <trkpt lat="49.05007" lon="-1.55125">
        <ele>33.3</ele>
        <time>2020-06-12T04:20:41Z</time>
      </trkpt>
      <trkpt lat="49.05012" lon="-1.5513">
        <ele>32.8</ele>
        <time>2020-06-12T04:20:42Z</time>
      </trkpt>
      <trkpt lat="49.05017" lon="-1.55134">
        <ele>32.4</ele>
        <time>2020-06-12T04:20:43Z</time>
      </trkpt>
      <trkpt lat="49.05021" lon="-1.55139">
        <ele>31.9</ele>
        <time>2020-06-12T04:20:44Z</time>
      </trkpt>
      <trkpt lat="49.05024" lon="-1.55144">
        <ele>31.5</ele>
        <time>2020-06-12T04:20:45Z</time>
      </trkpt>
      <trkpt lat="49.05029" lon="-1.5515">
        <ele>31.1</ele>
        <time>2020-06-12T04:20:46Z</time>
      </trkpt>
      <trkpt lat="49.05034" lon="-1.55156">
        <ele>30.5</ele>
        <time>2020-06-12T04:20:47Z</time>
      </trkpt>
      <trkpt lat="49.05038" lon="-1.55162">
        <ele>30</ele>
        <time>2020-06-12T04:20:48Z</time>
      </trkpt>
      <trkpt lat="49.05043" lon="-1.55168">
        <ele>29.5</ele>
        <time>2020-06-12T04:20:49Z</time>
      </trkpt>
      <trkpt lat="49.05047" lon="-1.55174">
        <ele>29</ele>
        <time>2020-06-12T04:20:50Z</time>
      </trkpt>
      <trkpt lat="49.05053" lon="-1.5518">
        <ele>28.4</ele>
        <time>2020-06-12T04:20:51Z</time>
      </trkpt>
      <trkpt lat="49.05061" lon="-1.55187">
        <ele>27.7</ele>
        <time>2020-06-12T04:20:52Z</time>
      </trkpt>
      <trkpt lat="49.0507" lon="-1.55193">
        <ele>26.8</ele>
        <time>2020-06-12T04:20:53Z</time>
      </trkpt>
      <trkpt lat="49.05079" lon="-1.55201">
        <ele>25.9</ele>
        <time>2020-06-12T04:20:54Z</time>
      </trkpt>
      <trkpt lat="49.05086" lon="-1.55209">
        <ele>25.1</ele>
        <time>2020-06-12T04:20:55Z</time>
      </trkpt>
      <trkpt lat="49.05094" lon="-1.55217">
        <ele>24.2</ele>
        <time>2020-06-12T04:20:56Z</time>
      </trkpt>
      <trkpt lat="49.05103" lon="-1.55225">
        <ele>23.3</ele>
        <time>2020-06-12T04:20:57Z</time>
      </trkpt>
      <trkpt lat="49.05111" lon="-1.55234">
        <ele>22.5</ele>
        <time>2020-06-12T04:20:58Z</time>
      </trkpt>
      <trkpt lat="49.05119" lon="-1.55241">
        <ele>21.8</ele>
        <time>2020-06-12T04:20:59Z</time>
      </trkpt>
      <trkpt lat="49.05126" lon="-1.55249">
        <ele>21.1</ele>
        <time>2020-06-12T04:21:00Z</time>
      </trkpt>
      <trkpt lat="49.05134" lon="-1.55257">
        <ele>20.4</ele>
        <time>2020-06-12T04:21:01Z</time>
      </trkpt>
      <trkpt lat="49.05143" lon="-1.55264">
        <ele>19.8</ele>
        <time>2020-06-12T04:21:02Z</time>
      </trkpt>
      <trkpt lat="49.05151" lon="-1.55272">
        <ele>19.3</ele>
        <time>2020-06-12T04:21:03Z</time>
      </trkpt>
      <trkpt lat="49.05158" lon="-1.5528">
        <ele>19</ele>
        <time>2020-06-12T04:21:04Z</time>
      </trkpt>
      <trkpt lat="49.05166" lon="-1.55287">
        <ele>18.8</ele>
        <time>2020-06-12T04:21:05Z</time>
      </trkpt>
      <trkpt lat="49.05174" lon="-1.55292">
        <ele>18.7</ele>
        <time>2020-06-12T04:21:06Z</time>
      </trkpt>
      <trkpt lat="49.05181" lon="-1.55296">
        <ele>18.7</ele>
        <time>2020-06-12T04:21:07Z</time>
      </trkpt>
      <trkpt lat="49.05189" lon="-1.55299">
        <ele>18.7</ele>
        <time>2020-06-12T04:21:08Z</time>
      </trkpt>
      <trkpt lat="49.05196" lon="-1.553">
        <ele>17.9</ele>
        <time>2020-06-12T04:21:09Z</time>
      </trkpt>
      <trkpt lat="49.05203" lon="-1.553">
        <ele>17.6</ele>
        <time>2020-06-12T04:21:10Z</time>
      </trkpt>
      <trkpt lat="49.0521" lon="-1.55298">
        <ele>17.3</ele>
        <time>2020-06-12T04:21:11Z</time>
      </trkpt>
      <trkpt lat="49.05215" lon="-1.55295">
        <ele>17.2</ele>
        <time>2020-06-12T04:21:12Z</time>
      </trkpt>
      <trkpt lat="49.0522" lon="-1.55291">
        <ele>17.2</ele>
        <time>2020-06-12T04:21:13Z</time>
      </trkpt>
      <trkpt lat="49.05224" lon="-1.55287">
        <ele>17.3</ele>
        <time>2020-06-12T04:21:14Z</time>
      </trkpt>
      <trkpt lat="49.05228" lon="-1.55282">
        <ele>17.4</ele>
        <time>2020-06-12T04:21:15Z</time>
      </trkpt>
      <trkpt lat="49.05231" lon="-1.55277">
        <ele>17.5</ele>
        <time>2020-06-12T04:21:16Z</time>
      </trkpt>
      <trkpt lat="49.05234" lon="-1.55272">
        <ele>17.6</ele>
        <time>2020-06-12T04:21:17Z</time>
      </trkpt>
      <trkpt lat="49.05237" lon="-1.55268">
        <ele>17.7</ele>
        <time>2020-06-12T04:21:18Z</time>
      </trkpt>
      <trkpt lat="49.0524" lon="-1.55265">
        <ele>17.8</ele>
        <time>2020-06-12T04:21:19Z</time>
      </trkpt>
      <trkpt lat="49.05242" lon="-1.5526">
        <ele>17.9</ele>
        <time>2020-06-12T04:21:20Z</time>
      </trkpt>
      <trkpt lat="49.05244" lon="-1.55256">
        <ele>18</ele>
        <time>2020-06-12T04:21:21Z</time>
      </trkpt>
      <trkpt lat="49.05248" lon="-1.55253">
        <ele>18.2</ele>
        <time>2020-06-12T04:21:22Z</time>
      </trkpt>
      <trkpt lat="49.05251" lon="-1.55249">
        <ele>18.4</ele>
        <time>2020-06-12T04:21:23Z</time>
      </trkpt>
      <trkpt lat="49.05253" lon="-1.55246">
        <ele>18.5</ele>
        <time>2020-06-12T04:21:24Z</time>
      </trkpt>
      <trkpt lat="49.05255" lon="-1.55242">
        <ele>18.6</ele>
        <time>2020-06-12T04:21:25Z</time>
      </trkpt>
      <trkpt lat="49.05257" lon="-1.55238">
        <ele>18.8</ele>
        <time>2020-06-12T04:21:26Z</time>
      </trkpt>
      <trkpt lat="49.05258" lon="-1.55234">
        <ele>19</ele>
        <time>2020-06-12T04:21:27Z</time>
      </trkpt>
      <trkpt lat="49.0526" lon="-1.55229">
        <ele>19.2</ele>
        <time>2020-06-12T04:21:28Z</time>
      </trkpt>
      <trkpt lat="49.05261" lon="-1.55226">
        <ele>19.3</ele>
        <time>2020-06-12T04:21:29Z</time>
      </trkpt>
      <trkpt lat="49.05263" lon="-1.55222">
        <ele>19.5</ele>
        <time>2020-06-12T04:21:30Z</time>
      </trkpt>
      <trkpt lat="49.05265" lon="-1.55219">
        <ele>19.6</ele>
        <time>2020-06-12T04:21:31Z</time>
      </trkpt>
      <trkpt lat="49.05267" lon="-1.55215">
        <ele>19.8</ele>
        <time>2020-06-12T04:21:32Z</time>
      </trkpt>
      <trkpt lat="49.05269" lon="-1.55211">
        <ele>20</ele>
        <time>2020-06-12T04:21:33Z</time>
      </trkpt>
      <trkpt lat="49.05271" lon="-1.55206">
        <ele>20.2</ele>
        <time>2020-06-12T04:21:34Z</time>
      </trkpt>
      <trkpt lat="49.05272" lon="-1.55201">
        <ele>20.5</ele>
        <time>2020-06-12T04:21:35Z</time>
      </trkpt>
      <trkpt lat="49.05274" lon="-1.55196">
        <ele>20.7</ele>
        <time>2020-06-12T04:21:36Z</time>
      </trkpt>
      <trkpt lat="49.05276" lon="-1.55191">
        <ele>20.9</ele>
        <time>2020-06-12T04:21:37Z</time>
      </trkpt>
      <trkpt lat="49.05278" lon="-1.55187">
        <ele>21.2</ele>
        <time>2020-06-12T04:21:38Z</time>
      </trkpt>
      <trkpt lat="49.05279" lon="-1.55185">
        <ele>21.3</ele>
        <time>2020-06-12T04:21:39Z</time>
      </trkpt>
      <trkpt lat="49.0528" lon="-1.55181">
        <ele>21.5</ele>
        <time>2020-06-12T04:21:40Z</time>
      </trkpt>
      <trkpt lat="49.05281" lon="-1.55177">
        <ele>21.7</ele>
        <time>2020-06-12T04:21:41Z</time>
      </trkpt>
      <trkpt lat="49.05283" lon="-1.55172">
        <ele>22.1</ele>
        <time>2020-06-12T04:21:42Z</time>
      </trkpt>
      <trkpt lat="49.05283" lon="-1.5517">
        <ele>22.2</ele>
        <time>2020-06-12T04:21:43Z</time>
      </trkpt>
      <trkpt lat="49.05284" lon="-1.55165">
        <ele>22.4</ele>
        <time>2020-06-12T04:21:44Z</time>
      </trkpt>
      <trkpt lat="49.05284" lon="-1.55164">
        <ele>22.5</ele>
        <time>2020-06-12T04:21:45Z</time>
      </trkpt>
      <trkpt lat="49.05286" lon="-1.5516">
        <ele>22.8</ele>
        <time>2020-06-12T04:21:46Z</time>
      </trkpt>
      <trkpt lat="49.05286" lon="-1.55159">
        <ele>22.8</ele>
        <time>2020-06-12T04:21:47Z</time>
      </trkpt>
      <trkpt lat="49.05288" lon="-1.55155">
        <ele>23.1</ele>
        <time>2020-06-12T04:21:48Z</time>
      </trkpt>
      <trkpt lat="49.05289" lon="-1.55154">
        <ele>23.2</ele>
        <time>2020-06-12T04:21:49Z</time>
      </trkpt>
      <trkpt lat="49.05291" lon="-1.5515">
        <ele>23.5</ele>
        <time>2020-06-12T04:21:50Z</time>
      </trkpt>
      <trkpt lat="49.05292" lon="-1.55149">
        <ele>23.6</ele>
        <time>2020-06-12T04:21:51Z</time>
      </trkpt>
      <trkpt lat="49.05293" lon="-1.55148">
        <ele>23.7</ele>
        <time>2020-06-12T04:21:52Z</time>
      </trkpt>
      <trkpt lat="49.05294" lon="-1.55146">
        <ele>23.8</ele>
        <time>2020-06-12T04:21:53Z</time>
      </trkpt>
      <trkpt lat="49.05296" lon="-1.55141">
        <ele>24</ele>
        <time>2020-06-12T04:21:54Z</time>
      </trkpt>
      <trkpt lat="49.05297" lon="-1.55139">
        <ele>24.1</ele>
        <time>2020-06-12T04:21:55Z</time>
      </trkpt>
      <trkpt lat="49.05298" lon="-1.55135">
        <ele>24.3</ele>
        <time>2020-06-12T04:21:56Z</time>
      </trkpt>
      <trkpt lat="49.05299" lon="-1.55133">
        <ele>24.4</ele>
        <time>2020-06-12T04:21:57Z</time>
      </trkpt>
      <trkpt lat="49.05301" lon="-1.55131">
        <ele>24.6</ele>
        <time>2020-06-12T04:21:58Z</time>
      </trkpt>
      <trkpt lat="49.05305" lon="-1.55128">
        <ele>24.9</ele>
        <time>2020-06-12T04:21:59Z</time>
      </trkpt>
      <trkpt lat="49.05306" lon="-1.55127">
        <ele>25</ele>
        <time>2020-06-12T04:22:00Z</time>
      </trkpt>
      <trkpt lat="49.0531" lon="-1.55125">
        <ele>25.2</ele>
        <time>2020-06-12T04:22:01Z</time>
      </trkpt>
      <trkpt lat="49.05311" lon="-1.55124">
        <ele>25.3</ele>
        <time>2020-06-12T04:22:02Z</time>
      </trkpt>
      <trkpt lat="49.05313" lon="-1.55123">
        <ele>25.4</ele>
        <time>2020-06-12T04:22:03Z</time>
      </trkpt>
      <trkpt lat="49.05314" lon="-1.55123">
        <ele>25.4</ele>
        <time>2020-06-12T04:22:04Z</time>
      </trkpt>
      <trkpt lat="49.05317" lon="-1.55121">
        <ele>25.6</ele>
        <time>2020-06-12T04:22:05Z</time>
      </trkpt>
      <trkpt lat="49.05318" lon="-1.5512">
        <ele>25.7</ele>
        <time>2020-06-12T04:22:06Z</time>
      </trkpt>
      <trkpt lat="49.05321" lon="-1.55119">
        <ele>25.9</ele>
        <time>2020-06-12T04:22:07Z</time>
      </trkpt>
      <trkpt lat="49.05322" lon="-1.55118">
        <ele>25.9</ele>
        <time>2020-06-12T04:22:08Z</time>
      </trkpt>
      <trkpt lat="49.05325" lon="-1.55117">
        <ele>26.1</ele>
        <time>2020-06-12T04:22:09Z</time>
      </trkpt>
      <trkpt lat="49.05326" lon="-1.55117">
        <ele>26.2</ele>
        <time>2020-06-12T04:22:10Z</time>
      </trkpt>
      <trkpt lat="49.05327" lon="-1.55116">
        <ele>26.2</ele>
        <time>2020-06-12T04:22:11Z</time>
      </trkpt>
      <trkpt lat="49.05329" lon="-1.55115">
        <ele>26.4</ele>
        <time>2020-06-12T04:22:12Z</time>
      </trkpt>
      <trkpt lat="49.0533" lon="-1.55115">
        <ele>26.4</ele>
        <time>2020-06-12T04:22:13Z</time>
      </trkpt>
      <trkpt lat="49.05332" lon="-1.55114">
        <ele>26.5</ele>
        <time>2020-06-12T04:22:14Z</time>
      </trkpt>
      <trkpt lat="49.05334" lon="-1.55114">
        <ele>26.7</ele>
        <time>2020-06-12T04:22:15Z</time>
      </trkpt>
      <trkpt lat="49.05335" lon="-1.55114">
        <ele>26.8</ele>
        <time>2020-06-12T04:22:16Z</time>
      </trkpt>
      <trkpt lat="49.05337" lon="-1.55113">
        <ele>26.9</ele>
        <time>2020-06-12T04:22:17Z</time>
      </trkpt>
      <trkpt lat="49.05339" lon="-1.55112">
        <ele>27</ele>
        <time>2020-06-12T04:22:18Z</time>
      </trkpt>
      <trkpt lat="49.05341" lon="-1.5511">
        <ele>27.2</ele>
        <time>2020-06-12T04:22:19Z</time>
      </trkpt>
      <trkpt lat="49.05345" lon="-1.5511">
        <ele>27.4</ele>
        <time>2020-06-12T04:22:20Z</time>
      </trkpt>
      <trkpt lat="49.05346" lon="-1.55109">
        <ele>27.5</ele>
        <time>2020-06-12T04:22:21Z</time>
      </trkpt>
      <trkpt lat="49.05349" lon="-1.55109">
        <ele>27.7</ele>
        <time>2020-06-12T04:22:22Z</time>
      </trkpt>
      <trkpt lat="49.0535" lon="-1.55108">
        <ele>27.8</ele>
        <time>2020-06-12T04:22:23Z</time>
      </trkpt>
      <trkpt lat="49.05353" lon="-1.55108">
        <ele>28</ele>
        <time>2020-06-12T04:22:24Z</time>
      </trkpt>
      <trkpt lat="49.05354" lon="-1.55108">
        <ele>28.1</ele>
        <time>2020-06-12T04:22:25Z</time>
      </trkpt>
      <trkpt lat="49.05357" lon="-1.55107">
        <ele>28.3</ele>
        <time>2020-06-12T04:22:26Z</time>
      </trkpt>
      <trkpt lat="49.05358" lon="-1.55107">
        <ele>28.3</ele>
        <time>2020-06-12T04:22:27Z</time>
      </trkpt>
      <trkpt lat="49.05362" lon="-1.55107">
        <ele>28.5</ele>
        <time>2020-06-12T04:22:28Z</time>
      </trkpt>
      <trkpt lat="49.05363" lon="-1.55107">
        <ele>28.6</ele>
        <time>2020-06-12T04:22:29Z</time>
      </trkpt>
      <trkpt lat="49.05367" lon="-1.55108">
        <ele>28.9</ele>
        <time>2020-06-12T04:22:30Z</time>
      </trkpt>
      <trkpt lat="49.05368" lon="-1.55108">
        <ele>28.9</ele>
        <time>2020-06-12T04:22:31Z</time>
      </trkpt>
      <trkpt lat="49.05371" lon="-1.55107">
        <ele>29.1</ele>
        <time>2020-06-12T04:22:32Z</time>
      </trkpt>
      <trkpt lat="49.05372" lon="-1.55106">
        <ele>29.2</ele>
        <time>2020-06-12T04:22:33Z</time>
      </trkpt>
      <trkpt lat="49.05374" lon="-1.55105">
        <ele>29.4</ele>
        <time>2020-06-12T04:22:34Z</time>
      </trkpt>
      <trkpt lat="49.05376" lon="-1.55104">
        <ele>29.5</ele>
        <time>2020-06-12T04:22:35Z</time>
      </trkpt>
      <trkpt lat="49.05379" lon="-1.55104">
        <ele>29.7</ele>
        <time>2020-06-12T04:22:36Z</time>
      </trkpt>
      <trkpt lat="49.0538" lon="-1.55104">
        <ele>29.8</ele>
        <time>2020-06-12T04:22:37Z</time>
      </trkpt>
      <trkpt lat="49.05382" lon="-1.55104">
        <ele>29.9</ele>
        <time>2020-06-12T04:22:38Z</time>
      </trkpt>
      <trkpt lat="49.05383" lon="-1.55104">
        <ele>30</ele>
        <time>2020-06-12T04:22:39Z</time>
      </trkpt>
      <trkpt lat="49.05386" lon="-1.55105">
        <ele>30.2</ele>
        <time>2020-06-12T04:22:40Z</time>
      </trkpt>
      <trkpt lat="49.05387" lon="-1.55105">
        <ele>30.3</ele>
        <time>2020-06-12T04:22:41Z</time>
      </trkpt>
      <trkpt lat="49.05389" lon="-1.55105">
        <ele>30.4</ele>
        <time>2020-06-12T04:22:42Z</time>
      </trkpt>
      <trkpt lat="49.05391" lon="-1.55105">
        <ele>30.5</ele>
        <time>2020-06-12T04:22:43Z</time>
      </trkpt>
      <trkpt lat="49.05394" lon="-1.55104">
        <ele>30.7</ele>
        <time>2020-06-12T04:22:44Z</time>
      </trkpt>
      <trkpt lat="49.05394" lon="-1.55104">
        <ele>30.7</ele>
        <time>2020-06-12T04:22:45Z</time>
      </trkpt>
      <trkpt lat="49.05397" lon="-1.55104">
        <ele>30.5</ele>
        <time>2020-06-12T04:22:46Z</time>
      </trkpt>
      <trkpt lat="49.05398" lon="-1.55103">
        <ele>30.5</ele>
        <time>2020-06-12T04:22:47Z</time>
      </trkpt>
      <trkpt lat="49.054" lon="-1.55102">
        <ele>30.3</ele>
        <time>2020-06-12T04:22:48Z</time>
      </trkpt>
      <trkpt lat="49.05401" lon="-1.55102">
        <ele>30.3</ele>
        <time>2020-06-12T04:22:49Z</time>
      </trkpt>
      <trkpt lat="49.05403" lon="-1.55104">
        <ele>30.1</ele>
        <time>2020-06-12T04:22:50Z</time>
      </trkpt>
      <trkpt lat="49.05403" lon="-1.55104">
        <ele>30.1</ele>
        <time>2020-06-12T04:22:51Z</time>
      </trkpt>
      <trkpt lat="49.05405" lon="-1.55104">
        <ele>30</ele>
        <time>2020-06-12T04:22:52Z</time>
      </trkpt>
      <trkpt lat="49.05404" lon="-1.55104">
        <ele>30</ele>
        <time>2020-06-12T04:22:53Z</time>
      </trkpt>
      <trkpt lat="49.05403" lon="-1.55104">
        <ele>29.9</ele>
        <time>2020-06-12T04:22:54Z</time>
      </trkpt>
      <trkpt lat="49.05401" lon="-1.55104">
        <ele>29.8</ele>
        <time>2020-06-12T04:22:55Z</time>
      </trkpt>
      <trkpt lat="49.054" lon="-1.55104">
        <ele>29.8</ele>
        <time>2020-06-12T04:22:56Z</time>
      </trkpt>
      <trkpt lat="49.05399" lon="-1.55104">
        <ele>29.7</ele>
        <time>2020-06-12T04:22:57Z</time>
      </trkpt>
      <trkpt lat="49.05398" lon="-1.55104">
        <ele>29.6</ele>
        <time>2020-06-12T04:22:58Z</time>
      </trkpt>
      <trkpt lat="49.05396" lon="-1.55104">
        <ele>29.6</ele>
        <time>2020-06-12T04:22:59Z</time>
      </trkpt>
      <trkpt lat="49.05395" lon="-1.55104">
        <ele>29.5</ele>
        <time>2020-06-12T04:23:00Z</time>
      </trkpt>
      <trkpt lat="49.05394" lon="-1.55104">
        <ele>29.4</ele>
        <time>2020-06-12T04:23:01Z</time>
      </trkpt>
      <trkpt lat="49.05393" lon="-1.55105">
        <ele>29.3</ele>
        <time>2020-06-12T04:23:12Z</time>
      </trkpt>
      <trkpt lat="49.05391" lon="-1.55105">
        <ele>29.3</ele>
        <time>2020-06-12T04:23:13Z</time>
      </trkpt>
      <trkpt lat="49.05386" lon="-1.55105">
        <ele>29</ele>
        <time>2020-06-12T04:23:14Z</time>
      </trkpt>
      <trkpt lat="49.05381" lon="-1.55105">
        <ele>28.7</ele>
        <time>2020-06-12T04:23:15Z</time>
      </trkpt>
      <trkpt lat="49.05375" lon="-1.55106">
        <ele>28.4</ele>
        <time>2020-06-12T04:23:16Z</time>
      </trkpt>
      <trkpt lat="49.05369" lon="-1.55107">
        <ele>28</ele>
        <time>2020-06-12T04:23:17Z</time>
      </trkpt>
      <trkpt lat="49.05364" lon="-1.55107">
        <ele>27.8</ele>
        <time>2020-06-12T04:23:18Z</time>
      </trkpt>
      <trkpt lat="49.05357" lon="-1.55107">
        <ele>27.4</ele>
        <time>2020-06-12T04:23:19Z</time>
      </trkpt>
      <trkpt lat="49.0535" lon="-1.55109">
        <ele>27</ele>
        <time>2020-06-12T04:23:20Z</time>
      </trkpt>
      <trkpt lat="49.05343" lon="-1.55111">
        <ele>26.6</ele>
        <time>2020-06-12T04:23:21Z</time>
      </trkpt>
      <trkpt lat="49.05336" lon="-1.55115">
        <ele>26.2</ele>
        <time>2020-06-12T04:23:22Z</time>
      </trkpt>
      <trkpt lat="49.05329" lon="-1.55118">
        <ele>25.9</ele>
        <time>2020-06-12T04:23:23Z</time>
      </trkpt>
      <trkpt lat="49.05324" lon="-1.55121">
        <ele>25.6</ele>
        <time>2020-06-12T04:23:24Z</time>
      </trkpt>
      <trkpt lat="49.05318" lon="-1.55125">
        <ele>25.3</ele>
        <time>2020-06-12T04:23:25Z</time>
      </trkpt>
      <trkpt lat="49.05314" lon="-1.55131">
        <ele>25</ele>
        <time>2020-06-12T04:23:26Z</time>
      </trkpt>
      <trkpt lat="49.05311" lon="-1.55134">
        <ele>24.9</ele>
        <time>2020-06-12T04:23:27Z</time>
      </trkpt>
      <trkpt lat="49.05309" lon="-1.55138">
        <ele>24.7</ele>
        <time>2020-06-12T04:23:28Z</time>
      </trkpt>
      <trkpt lat="49.05306" lon="-1.55142">
        <ele>24.5</ele>
        <time>2020-06-12T04:23:29Z</time>
      </trkpt>
      <trkpt lat="49.05304" lon="-1.55146">
        <ele>24.2</ele>
        <time>2020-06-12T04:23:30Z</time>
      </trkpt>
      <trkpt lat="49.05302" lon="-1.5515">
        <ele>23.9</ele>
        <time>2020-06-12T04:23:31Z</time>
      </trkpt>
      <trkpt lat="49.05301" lon="-1.55151">
        <ele>23.8</ele>
        <time>2020-06-12T04:23:32Z</time>
      </trkpt>
      <trkpt lat="49.05301" lon="-1.55153">
        <ele>23.7</ele>
        <time>2020-06-12T04:23:33Z</time>
      </trkpt>
      <trkpt lat="49.05301" lon="-1.55152">
        <ele>23.7</ele>
        <time>2020-06-12T04:23:34Z</time>
      </trkpt>
      <trkpt lat="49.053" lon="-1.55153">
        <ele>23.6</ele>
        <time>2020-06-12T04:23:35Z</time>
      </trkpt>
      <trkpt lat="49.053" lon="-1.55154">
        <ele>23.6</ele>
        <time>2020-06-12T04:23:36Z</time>
      </trkpt>
      <trkpt lat="49.053" lon="-1.55155">
        <ele>23.5</ele>
        <time>2020-06-12T04:23:37Z</time>
      </trkpt>
      <trkpt lat="49.053" lon="-1.55156">
        <ele>23.4</ele>
        <time>2020-06-12T04:23:38Z</time>
      </trkpt>
      <trkpt lat="49.05299" lon="-1.55157">
        <ele>23.4</ele>
        <time>2020-06-12T04:23:39Z</time>
      </trkpt>
      <trkpt lat="49.05299" lon="-1.55158">
        <ele>23.3</ele>
        <time>2020-06-12T04:23:40Z</time>
      </trkpt>
      <trkpt lat="49.05298" lon="-1.55159">
        <ele>23.2</ele>
        <time>2020-06-12T04:23:41Z</time>
      </trkpt>
      <trkpt lat="49.05297" lon="-1.5516">
        <ele>23.1</ele>
        <time>2020-06-12T04:23:42Z</time>
      </trkpt>
      <trkpt lat="49.05297" lon="-1.55161">
        <ele>23.1</ele>
        <time>2020-06-12T04:23:43Z</time>
      </trkpt>
      <trkpt lat="49.05296" lon="-1.55162">
        <ele>23</ele>
        <time>2020-06-12T04:25:18Z</time>
      </trkpt>
      <trkpt lat="49.05296" lon="-1.55163">
        <ele>22.9</ele>
        <time>2020-06-12T04:25:19Z</time>
      </trkpt>
      <trkpt lat="49.05295" lon="-1.55167">
        <ele>22.7</ele>
        <time>2020-06-12T04:25:20Z</time>
      </trkpt>
      <trkpt lat="49.05294" lon="-1.55168">
        <ele>22.6</ele>
        <time>2020-06-12T04:25:21Z</time>
      </trkpt>
      <trkpt lat="49.05292" lon="-1.55172">
        <ele>22.4</ele>
        <time>2020-06-12T04:25:22Z</time>
      </trkpt>
      <trkpt lat="49.0529" lon="-1.55176">
        <ele>22.1</ele>
        <time>2020-06-12T04:25:23Z</time>
      </trkpt>
      <trkpt lat="49.05288" lon="-1.5518">
        <ele>21.9</ele>
        <time>2020-06-12T04:25:24Z</time>
      </trkpt>
      <trkpt lat="49.05287" lon="-1.55186">
        <ele>21.6</ele>
        <time>2020-06-12T04:25:25Z</time>
      </trkpt>
      <trkpt lat="49.05285" lon="-1.55191">
        <ele>21.3</ele>
        <time>2020-06-12T04:25:26Z</time>
      </trkpt>
      <trkpt lat="49.05282" lon="-1.55197">
        <ele>21</ele>
        <time>2020-06-12T04:25:27Z</time>
      </trkpt>
      <trkpt lat="49.0528" lon="-1.55202">
        <ele>20.7</ele>
        <time>2020-06-12T04:25:28Z</time>
      </trkpt>
      <trkpt lat="49.05276" lon="-1.55209">
        <ele>20.3</ele>
        <time>2020-06-12T04:25:29Z</time>
      </trkpt>
      <trkpt lat="49.05273" lon="-1.55216">
        <ele>20</ele>
        <time>2020-06-12T04:25:30Z</time>
      </trkpt>
      <trkpt lat="49.0527" lon="-1.55224">
        <ele>19.7</ele>
        <time>2020-06-12T04:25:31Z</time>
      </trkpt>
      <trkpt lat="49.05266" lon="-1.55231">
        <ele>19.3</ele>
        <time>2020-06-12T04:25:32Z</time>
      </trkpt>
      <trkpt lat="49.05263" lon="-1.5524">
        <ele>19</ele>
        <time>2020-06-12T04:25:33Z</time>
      </trkpt>
      <trkpt lat="49.0526" lon="-1.5525">
        <ele>18.6</ele>
        <time>2020-06-12T04:25:34Z</time>
      </trkpt>
      <trkpt lat="49.05256" lon="-1.55259">
        <ele>18.3</ele>
        <time>2020-06-12T04:25:35Z</time>
      </trkpt>
      <trkpt lat="49.05252" lon="-1.55269">
        <ele>18</ele>
        <time>2020-06-12T04:25:36Z</time>
      </trkpt>
      <trkpt lat="49.05247" lon="-1.55278">
        <ele>17.8</ele>
        <time>2020-06-12T04:25:37Z</time>
      </trkpt>
      <trkpt lat="49.05241" lon="-1.55286">
        <ele>17.6</ele>
        <time>2020-06-12T04:25:38Z</time>
      </trkpt>
      <trkpt lat="49.05234" lon="-1.55293">
        <ele>17.4</ele>
        <time>2020-06-12T04:25:39Z</time>
      </trkpt>
      <trkpt lat="49.05227" lon="-1.55298">
        <ele>17.2</ele>
        <time>2020-06-12T04:25:40Z</time>
      </trkpt>
      <trkpt lat="49.05219" lon="-1.553">
        <ele>17.2</ele>
        <time>2020-06-12T04:25:41Z</time>
      </trkpt>
      <trkpt lat="49.05212" lon="-1.553">
        <ele>17.3</ele>
        <time>2020-06-12T04:25:42Z</time>
      </trkpt>
      <trkpt lat="49.05205" lon="-1.55299">
        <ele>17.6</ele>
        <time>2020-06-12T04:25:43Z</time>
      </trkpt>
      <trkpt lat="49.05198" lon="-1.55298">
        <ele>17.9</ele>
        <time>2020-06-12T04:25:44Z</time>
      </trkpt>
      <trkpt lat="49.0519" lon="-1.55297">
        <ele>18.4</ele>
        <time>2020-06-12T04:25:45Z</time>
      </trkpt>
      <trkpt lat="49.05184" lon="-1.55293">
        <ele>18.7</ele>
        <time>2020-06-12T04:25:46Z</time>
      </trkpt>
      <trkpt lat="49.05179" lon="-1.55289">
        <ele>18.7</ele>
        <time>2020-06-12T04:25:47Z</time>
      </trkpt>
      <trkpt lat="49.05173" lon="-1.55285">
        <ele>18.8</ele>
        <time>2020-06-12T04:25:48Z</time>
      </trkpt>
      <trkpt lat="49.05168" lon="-1.5528">
        <ele>18.8</ele>
        <time>2020-06-12T04:25:49Z</time>
      </trkpt>
      <trkpt lat="49.05164" lon="-1.55275">
        <ele>19</ele>
        <time>2020-06-12T04:25:50Z</time>
      </trkpt>
      <trkpt lat="49.05159" lon="-1.55271">
        <ele>19.2</ele>
        <time>2020-06-12T04:25:51Z</time>
      </trkpt>
      <trkpt lat="49.05156" lon="-1.55267">
        <ele>19.4</ele>
        <time>2020-06-12T04:25:52Z</time>
      </trkpt>
      <trkpt lat="49.05152" lon="-1.55264">
        <ele>19.6</ele>
        <time>2020-06-12T04:25:53Z</time>
      </trkpt>
      <trkpt lat="49.05149" lon="-1.55261">
        <ele>19.8</ele>
        <time>2020-06-12T04:25:54Z</time>
      </trkpt>
      <trkpt lat="49.05146" lon="-1.55258">
        <ele>20</ele>
        <time>2020-06-12T04:25:55Z</time>
      </trkpt>
      <trkpt lat="49.05143" lon="-1.55254">
        <ele>20.3</ele>
        <time>2020-06-12T04:25:56Z</time>
      </trkpt>
      <trkpt lat="49.0514" lon="-1.55251">
        <ele>20.5</ele>
        <time>2020-06-12T04:25:57Z</time>
      </trkpt>
      <trkpt lat="49.05137" lon="-1.55248">
        <ele>20.8</ele>
        <time>2020-06-12T04:25:58Z</time>
      </trkpt>
      <trkpt lat="49.05135" lon="-1.55245">
        <ele>21</ele>
        <time>2020-06-12T04:25:59Z</time>
      </trkpt>
      <trkpt lat="49.05132" lon="-1.55243">
        <ele>21.2</ele>
        <time>2020-06-12T04:26:00Z</time>
      </trkpt>
      <trkpt lat="49.05129" lon="-1.55241">
        <ele>21.5</ele>
        <time>2020-06-12T04:26:01Z</time>
      </trkpt>
      <trkpt lat="49.05125" lon="-1.55238">
        <ele>21.7</ele>
        <time>2020-06-12T04:26:02Z</time>
      </trkpt>
      <trkpt lat="49.05123" lon="-1.55235">
        <ele>21.9</ele>
        <time>2020-06-12T04:26:03Z</time>
      </trkpt>
      <trkpt lat="49.05119" lon="-1.55233">
        <ele>22.3</ele>
        <time>2020-06-12T04:26:04Z</time>
      </trkpt>
      <trkpt lat="49.05116" lon="-1.55229">
        <ele>22.6</ele>
        <time>2020-06-12T04:26:05Z</time>
      </trkpt>
      <trkpt lat="49.05113" lon="-1.55228">
        <ele>22.8</ele>
        <time>2020-06-12T04:26:06Z</time>
      </trkpt>
      <trkpt lat="49.0511" lon="-1.55224">
        <ele>23.1</ele>
        <time>2020-06-12T04:26:07Z</time>
      </trkpt>
      <trkpt lat="49.05109" lon="-1.55223">
        <ele>23.3</ele>
        <time>2020-06-12T04:26:08Z</time>
      </trkpt>
      <trkpt lat="49.05105" lon="-1.55221">
        <ele>23.6</ele>
        <time>2020-06-12T04:26:09Z</time>
      </trkpt>
      <trkpt lat="49.05104" lon="-1.5522">
        <ele>23.7</ele>
        <time>2020-06-12T04:26:10Z</time>
      </trkpt>
      <trkpt lat="49.05101" lon="-1.55216">
        <ele>24</ele>
        <time>2020-06-12T04:26:11Z</time>
      </trkpt>
      <trkpt lat="49.051" lon="-1.55215">
        <ele>24.1</ele>
        <time>2020-06-12T04:26:12Z</time>
      </trkpt>
      <trkpt lat="49.05098" lon="-1.55213">
        <ele>24.4</ele>
        <time>2020-06-12T04:26:13Z</time>
      </trkpt>
      <trkpt lat="49.05095" lon="-1.5521">
        <ele>24.6</ele>
        <time>2020-06-12T04:26:14Z</time>
      </trkpt>
      <trkpt lat="49.05093" lon="-1.55207">
        <ele>24.9</ele>
        <time>2020-06-12T04:26:15Z</time>
      </trkpt>
      <trkpt lat="49.05092" lon="-1.55205">
        <ele>25</ele>
        <time>2020-06-12T04:26:16Z</time>
      </trkpt>
      <trkpt lat="49.05089" lon="-1.55202">
        <ele>25.3</ele>
        <time>2020-06-12T04:26:17Z</time>
      </trkpt>
      <trkpt lat="49.05086" lon="-1.55199">
        <ele>25.6</ele>
        <time>2020-06-12T04:26:18Z</time>
      </trkpt>
      <trkpt lat="49.05086" lon="-1.55199">
        <ele>25.6</ele>
        <time>2020-06-12T04:26:19Z</time>
      </trkpt>
      <trkpt lat="49.05083" lon="-1.55196">
        <ele>25.9</ele>
        <time>2020-06-12T04:26:20Z</time>
      </trkpt>
      <trkpt lat="49.05082" lon="-1.55195">
        <ele>26</ele>
        <time>2020-06-12T04:26:21Z</time>
      </trkpt>
      <trkpt lat="49.05079" lon="-1.55192">
        <ele>26.3</ele>
        <time>2020-06-12T04:26:22Z</time>
      </trkpt>
      <trkpt lat="49.05078" lon="-1.55191">
        <ele>26.5</ele>
        <time>2020-06-12T04:26:23Z</time>
      </trkpt>
      <trkpt lat="49.05075" lon="-1.55188">
        <ele>26.7</ele>
        <time>2020-06-12T04:26:24Z</time>
      </trkpt>
      <trkpt lat="49.05072" lon="-1.55186">
        <ele>27</ele>
        <time>2020-06-12T04:26:25Z</time>
      </trkpt>
      <trkpt lat="49.05071" lon="-1.55185">
        <ele>27.1</ele>
        <time>2020-06-12T04:26:26Z</time>
      </trkpt>
      <trkpt lat="49.05068" lon="-1.55183">
        <ele>27.4</ele>
        <time>2020-06-12T04:26:27Z</time>
      </trkpt>
      <trkpt lat="49.05065" lon="-1.5518">
        <ele>27.7</ele>
        <time>2020-06-12T04:26:28Z</time>
      </trkpt>
      <trkpt lat="49.05063" lon="-1.55178">
        <ele>27.9</ele>
        <time>2020-06-12T04:26:29Z</time>
      </trkpt>
      <trkpt lat="49.05061" lon="-1.55175">
        <ele>28.2</ele>
        <time>2020-06-12T04:26:30Z</time>
      </trkpt>
      <trkpt lat="49.0506" lon="-1.55174">
        <ele>28.3</ele>
        <time>2020-06-12T04:26:31Z</time>
      </trkpt>
      <trkpt lat="49.05057" lon="-1.55172">
        <ele>28.6</ele>
        <time>2020-06-12T04:26:32Z</time>
      </trkpt>
      <trkpt lat="49.05054" lon="-1.55169">
        <ele>28.8</ele>
        <time>2020-06-12T04:26:33Z</time>
      </trkpt>
      <trkpt lat="49.05053" lon="-1.55168">
        <ele>28.9</ele>
        <time>2020-06-12T04:26:34Z</time>
      </trkpt>
      <trkpt lat="49.05051" lon="-1.55165">
        <ele>29.2</ele>
        <time>2020-06-12T04:26:35Z</time>
      </trkpt>
      <trkpt lat="49.0505" lon="-1.55164">
        <ele>29.3</ele>
        <time>2020-06-12T04:26:36Z</time>
      </trkpt>
      <trkpt lat="49.05047" lon="-1.55162">
        <ele>29.5</ele>
        <time>2020-06-12T04:26:37Z</time>
      </trkpt>
      <trkpt lat="49.05046" lon="-1.55161">
        <ele>29.6</ele>
        <time>2020-06-12T04:26:38Z</time>
      </trkpt>
      <trkpt lat="49.05044" lon="-1.55159">
        <ele>29.8</ele>
        <time>2020-06-12T04:26:39Z</time>
      </trkpt>
      <trkpt lat="49.05043" lon="-1.55158">
        <ele>29.9</ele>
        <time>2020-06-12T04:26:40Z</time>
      </trkpt>
      <trkpt lat="49.05039" lon="-1.55155">
        <ele>30.2</ele>
        <time>2020-06-12T04:26:41Z</time>
      </trkpt>
      <trkpt lat="49.05038" lon="-1.55154">
        <ele>30.4</ele>
        <time>2020-06-12T04:26:42Z</time>
      </trkpt>
      <trkpt lat="49.05035" lon="-1.55152">
        <ele>30.6</ele>
        <time>2020-06-12T04:26:43Z</time>
      </trkpt>
      <trkpt lat="49.05032" lon="-1.55149">
        <ele>30.9</ele>
        <time>2020-06-12T04:26:44Z</time>
      </trkpt>
      <trkpt lat="49.05031" lon="-1.55149">
        <ele>31</ele>
        <time>2020-06-12T04:26:45Z</time>
      </trkpt>
      <trkpt lat="49.05028" lon="-1.55147">
        <ele>31.2</ele>
        <time>2020-06-12T04:26:46Z</time>
      </trkpt>
      <trkpt lat="49.05027" lon="-1.55146">
        <ele>31.3</ele>
        <time>2020-06-12T04:26:47Z</time>
      </trkpt>
      <trkpt lat="49.05024" lon="-1.55144">
        <ele>31.6</ele>
        <time>2020-06-12T04:26:48Z</time>
      </trkpt>
      <trkpt lat="49.05023" lon="-1.55143">
        <ele>31.7</ele>
        <time>2020-06-12T04:26:49Z</time>
      </trkpt>
      <trkpt lat="49.05021" lon="-1.5514">
        <ele>31.9</ele>
        <time>2020-06-12T04:26:50Z</time>
      </trkpt>
      <trkpt lat="49.05021" lon="-1.55139">
        <ele>32</ele>
        <time>2020-06-12T04:26:51Z</time>
      </trkpt>
      <trkpt lat="49.05018" lon="-1.55137">
        <ele>32.2</ele>
        <time>2020-06-12T04:26:52Z</time>
      </trkpt>
      <trkpt lat="49.05015" lon="-1.55133">
        <ele>32.5</ele>
        <time>2020-06-12T04:26:53Z</time>
      </trkpt>
      <trkpt lat="49.05014" lon="-1.55132">
        <ele>32.6</ele>
        <time>2020-06-12T04:26:54Z</time>
      </trkpt>
      <trkpt lat="49.05012" lon="-1.55129">
        <ele>32.9</ele>
        <time>2020-06-12T04:26:55Z</time>
      </trkpt>
      <trkpt lat="49.05009" lon="-1.55126">
        <ele>33.1</ele>
        <time>2020-06-12T04:26:56Z</time>
      </trkpt>
      <trkpt lat="49.05008" lon="-1.55125">
        <ele>33.2</ele>
        <time>2020-06-12T04:26:57Z</time>
      </trkpt>
      <trkpt lat="49.05005" lon="-1.55124">
        <ele>33.5</ele>
        <time>2020-06-12T04:26:58Z</time>
      </trkpt>
      <trkpt lat="49.05004" lon="-1.55123">
        <ele>33.6</ele>
        <time>2020-06-12T04:26:59Z</time>
      </trkpt>
      <trkpt lat="49.05002" lon="-1.55122">
        <ele>33.7</ele>
        <time>2020-06-12T04:27:00Z</time>
      </trkpt>
      <trkpt lat="49.05001" lon="-1.55121">
        <ele>33.8</ele>
        <time>2020-06-12T04:27:01Z</time>
      </trkpt>
      <trkpt lat="49.04998" lon="-1.5512">
        <ele>34.1</ele>
        <time>2020-06-12T04:27:02Z</time>
      </trkpt>
      <trkpt lat="49.04997" lon="-1.55119">
        <ele>34.1</ele>
        <time>2020-06-12T04:27:03Z</time>
      </trkpt>
      <trkpt lat="49.04995" lon="-1.55117">
        <ele>34.3</ele>
        <time>2020-06-12T04:27:04Z</time>
      </trkpt>
      <trkpt lat="49.04994" lon="-1.55117">
        <ele>34.4</ele>
        <time>2020-06-12T04:27:05Z</time>
      </trkpt>
      <trkpt lat="49.04991" lon="-1.55113">
        <ele>34.6</ele>
        <time>2020-06-12T04:27:06Z</time>
      </trkpt>
      <trkpt lat="49.0499" lon="-1.55112">
        <ele>34.7</ele>
        <time>2020-06-12T04:27:07Z</time>
      </trkpt>
      <trkpt lat="49.04987" lon="-1.55109">
        <ele>35</ele>
        <time>2020-06-12T04:27:08Z</time>
      </trkpt>
      <trkpt lat="49.04986" lon="-1.55108">
        <ele>35.1</ele>
        <time>2020-06-12T04:27:09Z</time>
      </trkpt>
      <trkpt lat="49.04983" lon="-1.55106">
        <ele>35.3</ele>
        <time>2020-06-12T04:27:10Z</time>
      </trkpt>
      <trkpt lat="49.04982" lon="-1.55105">
        <ele>35.4</ele>
        <time>2020-06-12T04:27:11Z</time>
      </trkpt>
      <trkpt lat="49.04979" lon="-1.55102">
        <ele>35.7</ele>
        <time>2020-06-12T04:27:12Z</time>
      </trkpt>
      <trkpt lat="49.04979" lon="-1.55101">
        <ele>35.7</ele>
        <time>2020-06-12T04:27:13Z</time>
      </trkpt>
      <trkpt lat="49.04976" lon="-1.55097">
        <ele>36</ele>
        <time>2020-06-12T04:27:14Z</time>
      </trkpt>
      <trkpt lat="49.04975" lon="-1.55096">
        <ele>36.1</ele>
        <time>2020-06-12T04:27:15Z</time>
      </trkpt>
      <trkpt lat="49.04973" lon="-1.55092">
        <ele>36.3</ele>
        <time>2020-06-12T04:27:16Z</time>
      </trkpt>
      <trkpt lat="49.04972" lon="-1.55091">
        <ele>36.4</ele>
        <time>2020-06-12T04:27:17Z</time>
      </trkpt>
      <trkpt lat="49.04969" lon="-1.55089">
        <ele>36.6</ele>
        <time>2020-06-12T04:27:18Z</time>
      </trkpt>
      <trkpt lat="49.04969" lon="-1.55087">
        <ele>36.7</ele>
        <time>2020-06-12T04:27:19Z</time>
      </trkpt>
      <trkpt lat="49.04965" lon="-1.55086">
        <ele>36.9</ele>
        <time>2020-06-12T04:27:20Z</time>
      </trkpt>
      <trkpt lat="49.04964" lon="-1.55085">
        <ele>37</ele>
        <time>2020-06-12T04:27:21Z</time>
      </trkpt>
      <trkpt lat="49.04963" lon="-1.55084">
        <ele>37.1</ele>
        <time>2020-06-12T04:27:22Z</time>
      </trkpt>
      <trkpt lat="49.04961" lon="-1.55083">
        <ele>37.2</ele>
        <time>2020-06-12T04:27:23Z</time>
      </trkpt>
      <trkpt lat="49.0496" lon="-1.55082">
        <ele>37.3</ele>
        <time>2020-06-12T04:27:24Z</time>
      </trkpt>
      <trkpt lat="49.04958" lon="-1.55079">
        <ele>37.5</ele>
        <time>2020-06-12T04:27:25Z</time>
      </trkpt>
      <trkpt lat="49.04957" lon="-1.55078">
        <ele>37.6</ele>
        <time>2020-06-12T04:27:26Z</time>
      </trkpt>
      <trkpt lat="49.04956" lon="-1.55073">
        <ele>37.7</ele>
        <time>2020-06-12T04:27:27Z</time>
      </trkpt>
      <trkpt lat="49.04955" lon="-1.55072">
        <ele>37.8</ele>
        <time>2020-06-12T04:27:28Z</time>
      </trkpt>
      <trkpt lat="49.04953" lon="-1.55067">
        <ele>38</ele>
        <time>2020-06-12T04:27:29Z</time>
      </trkpt>
      <trkpt lat="49.04953" lon="-1.55065">
        <ele>38.1</ele>
        <time>2020-06-12T04:27:30Z</time>
      </trkpt>
      <trkpt lat="49.04951" lon="-1.55061">
        <ele>38.3</ele>
        <time>2020-06-12T04:27:31Z</time>
      </trkpt>
      <trkpt lat="49.04949" lon="-1.55058">
        <ele>38.5</ele>
        <time>2020-06-12T04:27:32Z</time>
      </trkpt>
      <trkpt lat="49.04946" lon="-1.55055">
        <ele>38.7</ele>
        <time>2020-06-12T04:27:33Z</time>
      </trkpt>
      <trkpt lat="49.04943" lon="-1.55052">
        <ele>38.9</ele>
        <time>2020-06-12T04:27:34Z</time>
      </trkpt>
      <trkpt lat="49.0494" lon="-1.5505">
        <ele>39</ele>
        <time>2020-06-12T04:27:35Z</time>
      </trkpt>
      <trkpt lat="49.04938" lon="-1.55046">
        <ele>39.2</ele>
        <time>2020-06-12T04:27:36Z</time>
      </trkpt>
      <trkpt lat="49.04937" lon="-1.55045">
        <ele>39.3</ele>
        <time>2020-06-12T04:27:37Z</time>
      </trkpt>
      <trkpt lat="49.04935" lon="-1.55042">
        <ele>39.4</ele>
        <time>2020-06-12T04:27:38Z</time>
      </trkpt>
      <trkpt lat="49.04934" lon="-1.55041">
        <ele>39.5</ele>
        <time>2020-06-12T04:27:39Z</time>
      </trkpt>
      <trkpt lat="49.04931" lon="-1.55037">
        <ele>39.7</ele>
        <time>2020-06-12T04:27:40Z</time>
      </trkpt>
      <trkpt lat="49.04929" lon="-1.55036">
        <ele>39.8</ele>
        <time>2020-06-12T04:27:41Z</time>
      </trkpt>
      <trkpt lat="49.04926" lon="-1.55034">
        <ele>39.9</ele>
        <time>2020-06-12T04:27:42Z</time>
      </trkpt>
      <trkpt lat="49.04924" lon="-1.55032">
        <ele>40.1</ele>
        <time>2020-06-12T04:27:43Z</time>
      </trkpt>
      <trkpt lat="49.04921" lon="-1.55029">
        <ele>40.2</ele>
        <time>2020-06-12T04:27:44Z</time>
      </trkpt>
      <trkpt lat="49.0492" lon="-1.55027">
        <ele>40.3</ele>
        <time>2020-06-12T04:27:45Z</time>
      </trkpt>
      <trkpt lat="49.04917" lon="-1.55023">
        <ele>40.4</ele>
        <time>2020-06-12T04:27:46Z</time>
      </trkpt>
      <trkpt lat="49.04916" lon="-1.55022">
        <ele>40.5</ele>
        <time>2020-06-12T04:27:47Z</time>
      </trkpt>
      <trkpt lat="49.04912" lon="-1.5502">
        <ele>40.6</ele>
        <time>2020-06-12T04:27:48Z</time>
      </trkpt>
      <trkpt lat="49.0491" lon="-1.55018">
        <ele>40.6</ele>
        <time>2020-06-12T04:27:49Z</time>
      </trkpt>
      <trkpt lat="49.04907" lon="-1.55016">
        <ele>40.7</ele>
        <time>2020-06-12T04:27:50Z</time>
      </trkpt>
      <trkpt lat="49.04903" lon="-1.55015">
        <ele>40.9</ele>
        <time>2020-06-12T04:27:51Z</time>
      </trkpt>
      <trkpt lat="49.04902" lon="-1.55014">
        <ele>40.9</ele>
        <time>2020-06-12T04:27:52Z</time>
      </trkpt>
      <trkpt lat="49.04898" lon="-1.55012">
        <ele>41.1</ele>
        <time>2020-06-12T04:27:53Z</time>
      </trkpt>
      <trkpt lat="49.04897" lon="-1.55011">
        <ele>41.1</ele>
        <time>2020-06-12T04:27:54Z</time>
      </trkpt>
      <trkpt lat="49.04894" lon="-1.55009">
        <ele>41.2</ele>
        <time>2020-06-12T04:27:55Z</time>
      </trkpt>
      <trkpt lat="49.04891" lon="-1.55006">
        <ele>41.4</ele>
        <time>2020-06-12T04:27:56Z</time>
      </trkpt>
      <trkpt lat="49.04889" lon="-1.55005">
        <ele>41.5</ele>
        <time>2020-06-12T04:27:57Z</time>
      </trkpt>
      <trkpt lat="49.04886" lon="-1.55002">
        <ele>41.6</ele>
        <time>2020-06-12T04:27:58Z</time>
      </trkpt>
      <trkpt lat="49.04885" lon="-1.55001">
        <ele>41.7</ele>
        <time>2020-06-12T04:27:59Z</time>
      </trkpt>
      <trkpt lat="49.04883" lon="-1.54999">
        <ele>41.8</ele>
        <time>2020-06-12T04:28:00Z</time>
      </trkpt>
      <trkpt lat="49.0488" lon="-1.54995">
        <ele>41.9</ele>
        <time>2020-06-12T04:28:01Z</time>
      </trkpt>
      <trkpt lat="49.04879" lon="-1.54994">
        <ele>42</ele>
        <time>2020-06-12T04:28:02Z</time>
      </trkpt>
      <trkpt lat="49.04876" lon="-1.54991">
        <ele>42.1</ele>
        <time>2020-06-12T04:28:03Z</time>
      </trkpt>
      <trkpt lat="49.04875" lon="-1.5499">
        <ele>42.2</ele>
        <time>2020-06-12T04:28:04Z</time>
      </trkpt>
      <trkpt lat="49.04871" lon="-1.54986">
        <ele>42.4</ele>
        <time>2020-06-12T04:28:05Z</time>
      </trkpt>
      <trkpt lat="49.0487" lon="-1.54985">
        <ele>42.4</ele>
        <time>2020-06-12T04:28:06Z</time>
      </trkpt>
      <trkpt lat="49.04867" lon="-1.54984">
        <ele>42.5</ele>
        <time>2020-06-12T04:28:07Z</time>
      </trkpt>
      <trkpt lat="49.04865" lon="-1.54982">
        <ele>42.7</ele>
        <time>2020-06-12T04:28:08Z</time>
      </trkpt>
      <trkpt lat="49.04862" lon="-1.54979">
        <ele>42.8</ele>
        <time>2020-06-12T04:28:09Z</time>
      </trkpt>
      <trkpt lat="49.04861" lon="-1.54977">
        <ele>42.9</ele>
        <time>2020-06-12T04:28:10Z</time>
      </trkpt>
      <trkpt lat="49.04858" lon="-1.54974">
        <ele>43</ele>
        <time>2020-06-12T04:28:11Z</time>
      </trkpt>
      <trkpt lat="49.04857" lon="-1.54973">
        <ele>43.1</ele>
        <time>2020-06-12T04:28:12Z</time>
      </trkpt>
      <trkpt lat="49.04854" lon="-1.54969">
        <ele>43.2</ele>
        <time>2020-06-12T04:28:13Z</time>
      </trkpt>
      <trkpt lat="49.04853" lon="-1.54968">
        <ele>43.3</ele>
        <time>2020-06-12T04:28:14Z</time>
      </trkpt>
      <trkpt lat="49.04851" lon="-1.54966">
        <ele>43.4</ele>
        <time>2020-06-12T04:28:15Z</time>
      </trkpt>
      <trkpt lat="49.0485" lon="-1.54965">
        <ele>43.4</ele>
        <time>2020-06-12T04:28:16Z</time>
      </trkpt>
      <trkpt lat="49.04848" lon="-1.54963">
        <ele>43.5</ele>
        <time>2020-06-12T04:28:17Z</time>
      </trkpt>
      <trkpt lat="49.04847" lon="-1.54962">
        <ele>43.5</ele>
        <time>2020-06-12T04:28:18Z</time>
      </trkpt>
      <trkpt lat="49.04844" lon="-1.54959">
        <ele>43.7</ele>
        <time>2020-06-12T04:28:19Z</time>
      </trkpt>
      <trkpt lat="49.04842" lon="-1.54956">
        <ele>43.8</ele>
        <time>2020-06-12T04:28:20Z</time>
      </trkpt>
      <trkpt lat="49.04839" lon="-1.54953">
        <ele>43.9</ele>
        <time>2020-06-12T04:28:21Z</time>
      </trkpt>
      <trkpt lat="49.04837" lon="-1.54951">
        <ele>44.1</ele>
        <time>2020-06-12T04:28:22Z</time>
      </trkpt>
      <trkpt lat="49.04836" lon="-1.5495">
        <ele>44.1</ele>
        <time>2020-06-12T04:28:23Z</time>
      </trkpt>
      <trkpt lat="49.04834" lon="-1.54947">
        <ele>44.2</ele>
        <time>2020-06-12T04:28:24Z</time>
      </trkpt>
      <trkpt lat="49.0483" lon="-1.54943">
        <ele>44.3</ele>
        <time>2020-06-12T04:28:25Z</time>
      </trkpt>
      <trkpt lat="49.04829" lon="-1.54942">
        <ele>44.4</ele>
        <time>2020-06-12T04:28:26Z</time>
      </trkpt>
      <trkpt lat="49.04826" lon="-1.54938">
        <ele>44.5</ele>
        <time>2020-06-12T04:28:27Z</time>
      </trkpt>
      <trkpt lat="49.04825" lon="-1.54937">
        <ele>44.6</ele>
        <time>2020-06-12T04:28:28Z</time>
      </trkpt>
      <trkpt lat="49.04822" lon="-1.54935">
        <ele>44.7</ele>
        <time>2020-06-12T04:28:29Z</time>
      </trkpt>
      <trkpt lat="49.04822" lon="-1.54935">
        <ele>44.7</ele>
        <time>2020-06-12T04:28:30Z</time>
      </trkpt>
      <trkpt lat="49.04818" lon="-1.54933">
        <ele>44.8</ele>
        <time>2020-06-12T04:28:31Z</time>
      </trkpt>
      <trkpt lat="49.04817" lon="-1.54933">
        <ele>44.9</ele>
        <time>2020-06-12T04:28:32Z</time>
      </trkpt>
      <trkpt lat="49.04813" lon="-1.5493">
        <ele>45</ele>
        <time>2020-06-12T04:28:33Z</time>
      </trkpt>
      <trkpt lat="49.04812" lon="-1.54928">
        <ele>45.1</ele>
        <time>2020-06-12T04:28:34Z</time>
      </trkpt>
      <trkpt lat="49.04809" lon="-1.54924">
        <ele>45.3</ele>
        <time>2020-06-12T04:28:35Z</time>
      </trkpt>
      <trkpt lat="49.04808" lon="-1.54922">
        <ele>45.4</ele>
        <time>2020-06-12T04:28:36Z</time>
      </trkpt>
      <trkpt lat="49.04805" lon="-1.54918">
        <ele>45.5</ele>
        <time>2020-06-12T04:28:37Z</time>
      </trkpt>
      <trkpt lat="49.04802" lon="-1.54916">
        <ele>45.6</ele>
        <time>2020-06-12T04:28:38Z</time>
      </trkpt>
      <trkpt lat="49.04799" lon="-1.54913">
        <ele>45.7</ele>
        <time>2020-06-12T04:28:39Z</time>
      </trkpt>
      <trkpt lat="49.04797" lon="-1.54911">
        <ele>45.9</ele>
        <time>2020-06-12T04:28:40Z</time>
      </trkpt>
      <trkpt lat="49.04794" lon="-1.54908">
        <ele>46</ele>
        <time>2020-06-12T04:28:41Z</time>
      </trkpt>
      <trkpt lat="49.0479" lon="-1.54906">
        <ele>46.2</ele>
        <time>2020-06-12T04:28:42Z</time>
      </trkpt>
      <trkpt lat="49.04789" lon="-1.54905">
        <ele>46.2</ele>
        <time>2020-06-12T04:28:43Z</time>
      </trkpt>
      <trkpt lat="49.04786" lon="-1.54903">
        <ele>46.4</ele>
        <time>2020-06-12T04:28:44Z</time>
      </trkpt>
      <trkpt lat="49.04783" lon="-1.54901">
        <ele>46.5</ele>
        <time>2020-06-12T04:28:45Z</time>
      </trkpt>
      <trkpt lat="49.04781" lon="-1.54899">
        <ele>46.6</ele>
        <time>2020-06-12T04:28:46Z</time>
      </trkpt>
      <trkpt lat="49.04778" lon="-1.54898">
        <ele>46.7</ele>
        <time>2020-06-12T04:28:47Z</time>
      </trkpt>
      <trkpt lat="49.04776" lon="-1.54896">
        <ele>46.9</ele>
        <time>2020-06-12T04:28:48Z</time>
      </trkpt>
      <trkpt lat="49.04773" lon="-1.54893">
        <ele>47</ele>
        <time>2020-06-12T04:28:49Z</time>
      </trkpt>
      <trkpt lat="49.04771" lon="-1.5489">
        <ele>47.1</ele>
        <time>2020-06-12T04:28:50Z</time>
      </trkpt>
      <trkpt lat="49.04769" lon="-1.54886">
        <ele>47.2</ele>
        <time>2020-06-12T04:28:51Z</time>
      </trkpt>
      <trkpt lat="49.04767" lon="-1.54881">
        <ele>47.3</ele>
        <time>2020-06-12T04:28:52Z</time>
      </trkpt>
      <trkpt lat="49.04766" lon="-1.5488">
        <ele>47.4</ele>
        <time>2020-06-12T04:28:53Z</time>
      </trkpt>
      <trkpt lat="49.04764" lon="-1.54878">
        <ele>47.5</ele>
        <time>2020-06-12T04:28:54Z</time>
      </trkpt>
      <trkpt lat="49.04761" lon="-1.54875">
        <ele>47.6</ele>
        <time>2020-06-12T04:28:55Z</time>
      </trkpt>
      <trkpt lat="49.04758" lon="-1.54871">
        <ele>47.7</ele>
        <time>2020-06-12T04:28:56Z</time>
      </trkpt>
      <trkpt lat="49.04757" lon="-1.5487">
        <ele>47.7</ele>
        <time>2020-06-12T04:28:57Z</time>
      </trkpt>
      <trkpt lat="49.04754" lon="-1.54868">
        <ele>47.8</ele>
        <time>2020-06-12T04:28:58Z</time>
      </trkpt>
      <trkpt lat="49.04753" lon="-1.54867">
        <ele>47.8</ele>
        <time>2020-06-12T04:28:59Z</time>
      </trkpt>
      <trkpt lat="49.0475" lon="-1.54866">
        <ele>47.9</ele>
        <time>2020-06-12T04:29:00Z</time>
      </trkpt>
      <trkpt lat="49.04748" lon="-1.54865">
        <ele>48</ele>
        <time>2020-06-12T04:29:01Z</time>
      </trkpt>
      <trkpt lat="49.04745" lon="-1.54862">
        <ele>48.1</ele>
        <time>2020-06-12T04:29:02Z</time>
      </trkpt>
      <trkpt lat="49.04745" lon="-1.54861">
        <ele>48.1</ele>
        <time>2020-06-12T04:29:03Z</time>
      </trkpt>
      <trkpt lat="49.04741" lon="-1.5486">
        <ele>48.1</ele>
        <time>2020-06-12T04:29:04Z</time>
      </trkpt>
      <trkpt lat="49.04738" lon="-1.54858">
        <ele>48.2</ele>
        <time>2020-06-12T04:29:05Z</time>
      </trkpt>
      <trkpt lat="49.04735" lon="-1.54856">
        <ele>48.2</ele>
        <time>2020-06-12T04:29:06Z</time>
      </trkpt>
      <trkpt lat="49.04734" lon="-1.54855">
        <ele>48.2</ele>
        <time>2020-06-12T04:29:07Z</time>
      </trkpt>
      <trkpt lat="49.0473" lon="-1.54853">
        <ele>48.3</ele>
        <time>2020-06-12T04:29:08Z</time>
      </trkpt>
      <trkpt lat="49.04728" lon="-1.54852">
        <ele>48.3</ele>
        <time>2020-06-12T04:29:09Z</time>
      </trkpt>
      <trkpt lat="49.04725" lon="-1.5485">
        <ele>48.3</ele>
        <time>2020-06-12T04:29:10Z</time>
      </trkpt>
      <trkpt lat="49.04722" lon="-1.54849">
        <ele>48.4</ele>
        <time>2020-06-12T04:29:11Z</time>
      </trkpt>
      <trkpt lat="49.0472" lon="-1.54848">
        <ele>48.4</ele>
        <time>2020-06-12T04:29:12Z</time>
      </trkpt>
      <trkpt lat="49.04717" lon="-1.54847">
        <ele>48.4</ele>
        <time>2020-06-12T04:29:13Z</time>
      </trkpt>
      <trkpt lat="49.04715" lon="-1.54846">
        <ele>48.4</ele>
        <time>2020-06-12T04:29:14Z</time>
      </trkpt>
      <trkpt lat="49.04712" lon="-1.54843">
        <ele>48.4</ele>
        <time>2020-06-12T04:29:15Z</time>
      </trkpt>
      <trkpt lat="49.04709" lon="-1.54842">
        <ele>48.4</ele>
        <time>2020-06-12T04:29:16Z</time>
      </trkpt>
      <trkpt lat="49.04705" lon="-1.54842">
        <ele>48.4</ele>
        <time>2020-06-12T04:29:17Z</time>
      </trkpt>
      <trkpt lat="49.04702" lon="-1.54842">
        <ele>48.4</ele>
        <time>2020-06-12T04:29:18Z</time>
      </trkpt>
      <trkpt lat="49.04699" lon="-1.54842">
        <ele>48.4</ele>
        <time>2020-06-12T04:29:19Z</time>
      </trkpt>
      <trkpt lat="49.04695" lon="-1.54842">
        <ele>48.3</ele>
        <time>2020-06-12T04:29:20Z</time>
      </trkpt>
      <trkpt lat="49.04692" lon="-1.54842">
        <ele>48.3</ele>
        <time>2020-06-12T04:29:21Z</time>
      </trkpt>
      <trkpt lat="49.04689" lon="-1.54842">
        <ele>48.3</ele>
        <time>2020-06-12T04:29:22Z</time>
      </trkpt>
      <trkpt lat="49.04686" lon="-1.54843">
        <ele>48.2</ele>
        <time>2020-06-12T04:29:23Z</time>
      </trkpt>
      <trkpt lat="49.04683" lon="-1.54845">
        <ele>48.1</ele>
        <time>2020-06-12T04:29:24Z</time>
      </trkpt>
      <trkpt lat="49.04679" lon="-1.54845">
        <ele>48.1</ele>
        <time>2020-06-12T04:29:25Z</time>
      </trkpt>
      <trkpt lat="49.04675" lon="-1.54843">
        <ele>48</ele>
        <time>2020-06-12T04:29:26Z</time>
      </trkpt>
      <trkpt lat="49.04671" lon="-1.54843">
        <ele>47.9</ele>
        <time>2020-06-12T04:29:27Z</time>
      </trkpt>
      <trkpt lat="49.04666" lon="-1.54842">
        <ele>47.8</ele>
        <time>2020-06-12T04:29:28Z</time>
      </trkpt>
      <trkpt lat="49.04662" lon="-1.54841">
        <ele>47.6</ele>
        <time>2020-06-12T04:29:29Z</time>
      </trkpt>
      <trkpt lat="49.04656" lon="-1.54839">
        <ele>47.5</ele>
        <time>2020-06-12T04:29:30Z</time>
      </trkpt>
      <trkpt lat="49.04652" lon="-1.54838">
        <ele>47.4</ele>
        <time>2020-06-12T04:29:31Z</time>
      </trkpt>
      <trkpt lat="49.04647" lon="-1.54837">
        <ele>47.2</ele>
        <time>2020-06-12T04:29:32Z</time>
      </trkpt>
      <trkpt lat="49.04641" lon="-1.54836">
        <ele>47.1</ele>
        <time>2020-06-12T04:29:33Z</time>
      </trkpt>
      <trkpt lat="49.04636" lon="-1.54836">
        <ele>47</ele>
        <time>2020-06-12T04:29:34Z</time>
      </trkpt>
      <trkpt lat="49.0463" lon="-1.54836">
        <ele>46.9</ele>
        <time>2020-06-12T04:29:35Z</time>
      </trkpt>
      <trkpt lat="49.04625" lon="-1.54837">
        <ele>46.8</ele>
        <time>2020-06-12T04:29:36Z</time>
      </trkpt>
      <trkpt lat="49.04621" lon="-1.54835">
        <ele>46.7</ele>
        <time>2020-06-12T04:29:37Z</time>
      </trkpt>
      <trkpt lat="49.04616" lon="-1.54835">
        <ele>46.6</ele>
        <time>2020-06-12T04:29:38Z</time>
      </trkpt>
      <trkpt lat="49.04612" lon="-1.54835">
        <ele>46.6</ele>
        <time>2020-06-12T04:29:39Z</time>
      </trkpt>
      <trkpt lat="49.04607" lon="-1.54837">
        <ele>46.5</ele>
        <time>2020-06-12T04:29:40Z</time>
      </trkpt>
      <trkpt lat="49.04603" lon="-1.54837">
        <ele>46.3</ele>
        <time>2020-06-12T04:29:41Z</time>
      </trkpt>
      <trkpt lat="49.04601" lon="-1.54838">
        <ele>46.3</ele>
        <time>2020-06-12T04:29:42Z</time>
      </trkpt>
      <trkpt lat="49.046" lon="-1.54839">
        <ele>46.3</ele>
        <time>2020-06-12T04:29:43Z</time>
      </trkpt>
      <trkpt lat="49.04599" lon="-1.54847">
        <ele>46.2</ele>
        <time>2020-06-12T04:29:44Z</time>
      </trkpt>
      <trkpt lat="49.04598" lon="-1.54855">
        <ele>46.1</ele>
        <time>2020-06-12T04:29:45Z</time>
      </trkpt>
      <trkpt lat="49.04595" lon="-1.54862">
        <ele>46</ele>
        <time>2020-06-12T04:29:46Z</time>
      </trkpt>
      <trkpt lat="49.04592" lon="-1.54867">
        <ele>45.9</ele>
        <time>2020-06-12T04:29:47Z</time>
      </trkpt>
      <trkpt lat="49.04589" lon="-1.54872">
        <ele>45.9</ele>
        <time>2020-06-12T04:29:48Z</time>
      </trkpt>
      <trkpt lat="49.04587" lon="-1.54876">
        <ele>45.9</ele>
        <time>2020-06-12T04:29:49Z</time>
      </trkpt>
      <trkpt lat="49.04585" lon="-1.5488">
        <ele>45.8</ele>
        <time>2020-06-12T04:29:50Z</time>
      </trkpt>
      <trkpt lat="49.04583" lon="-1.54884">
        <ele>45.8</ele>
        <time>2020-06-12T04:29:51Z</time>
      </trkpt>
      <trkpt lat="49.0458" lon="-1.54889">
        <ele>45.7</ele>
        <time>2020-06-12T04:29:52Z</time>
      </trkpt>
      <trkpt lat="49.04578" lon="-1.54893">
        <ele>45.7</ele>
        <time>2020-06-12T04:29:53Z</time>
      </trkpt>
      <trkpt lat="49.04576" lon="-1.54897">
        <ele>45.6</ele>
        <time>2020-06-12T04:29:54Z</time>
      </trkpt>
      <trkpt lat="49.04574" lon="-1.54901">
        <ele>45.5</ele>
        <time>2020-06-12T04:29:55Z</time>
      </trkpt>
      <trkpt lat="49.04571" lon="-1.54906">
        <ele>45.5</ele>
        <time>2020-06-12T04:29:56Z</time>
      </trkpt>
      <trkpt lat="49.04569" lon="-1.5491">
        <ele>45.4</ele>
        <time>2020-06-12T04:29:57Z</time>
      </trkpt>
      <trkpt lat="49.04567" lon="-1.54914">
        <ele>45.3</ele>
        <time>2020-06-12T04:29:58Z</time>
      </trkpt>
      <trkpt lat="49.04564" lon="-1.54921">
        <ele>45.2</ele>
        <time>2020-06-12T04:29:59Z</time>
      </trkpt>
      <trkpt lat="49.04559" lon="-1.54926">
        <ele>45.1</ele>
        <time>2020-06-12T04:30:00Z</time>
      </trkpt>
      <trkpt lat="49.04556" lon="-1.54934">
        <ele>45</ele>
        <time>2020-06-12T04:30:01Z</time>
      </trkpt>
      <trkpt lat="49.04552" lon="-1.54943">
        <ele>44.8</ele>
        <time>2020-06-12T04:30:02Z</time>
      </trkpt>
      <trkpt lat="49.04548" lon="-1.54951">
        <ele>44.6</ele>
        <time>2020-06-12T04:30:03Z</time>
      </trkpt>
      <trkpt lat="49.04545" lon="-1.54959">
        <ele>44.4</ele>
        <time>2020-06-12T04:30:04Z</time>
      </trkpt>
      <trkpt lat="49.0454" lon="-1.54967">
        <ele>44.2</ele>
        <time>2020-06-12T04:30:05Z</time>
      </trkpt>
      <trkpt lat="49.04536" lon="-1.54974">
        <ele>44</ele>
        <time>2020-06-12T04:30:06Z</time>
      </trkpt>
      <trkpt lat="49.04532" lon="-1.54981">
        <ele>43.8</ele>
        <time>2020-06-12T04:30:07Z</time>
      </trkpt>
      <trkpt lat="49.04528" lon="-1.5499">
        <ele>43.6</ele>
        <time>2020-06-12T04:30:08Z</time>
      </trkpt>
      <trkpt lat="49.04523" lon="-1.54996">
        <ele>43.4</ele>
        <time>2020-06-12T04:30:09Z</time>
      </trkpt>
      <trkpt lat="49.04519" lon="-1.55004">
        <ele>43.2</ele>
        <time>2020-06-12T04:30:10Z</time>
      </trkpt>
      <trkpt lat="49.04516" lon="-1.55012">
        <ele>43</ele>
        <time>2020-06-12T04:30:11Z</time>
      </trkpt>
      <trkpt lat="49.04511" lon="-1.55021">
        <ele>42.8</ele>
        <time>2020-06-12T04:30:12Z</time>
      </trkpt>
      <trkpt lat="49.04507" lon="-1.55029">
        <ele>42.6</ele>
        <time>2020-06-12T04:30:13Z</time>
      </trkpt>
      <trkpt lat="49.04504" lon="-1.55037">
        <ele>42.3</ele>
        <time>2020-06-12T04:30:14Z</time>
      </trkpt>
      <trkpt lat="49.045" lon="-1.55047">
        <ele>42</ele>
        <time>2020-06-12T04:30:15Z</time>
      </trkpt>
      <trkpt lat="49.04495" lon="-1.55057">
        <ele>41.7</ele>
        <time>2020-06-12T04:30:16Z</time>
      </trkpt>
      <trkpt lat="49.0449" lon="-1.55064">
        <ele>41.4</ele>
        <time>2020-06-12T04:30:17Z</time>
      </trkpt>
      <trkpt lat="49.04485" lon="-1.55074">
        <ele>41.1</ele>
        <time>2020-06-12T04:30:18Z</time>
      </trkpt>
      <trkpt lat="49.0448" lon="-1.55082">
        <ele>40.8</ele>
        <time>2020-06-12T04:30:19Z</time>
      </trkpt>
      <trkpt lat="49.04475" lon="-1.55091">
        <ele>40.5</ele>
        <time>2020-06-12T04:30:20Z</time>
      </trkpt>
      <trkpt lat="49.04469" lon="-1.55099">
        <ele>40.2</ele>
        <time>2020-06-12T04:30:21Z</time>
      </trkpt>
      <trkpt lat="49.04463" lon="-1.55108">
        <ele>39.8</ele>
        <time>2020-06-12T04:30:22Z</time>
      </trkpt>
      <trkpt lat="49.04457" lon="-1.55117">
        <ele>39.5</ele>
        <time>2020-06-12T04:30:23Z</time>
      </trkpt>
      <trkpt lat="49.04451" lon="-1.55125">
        <ele>39.1</ele>
        <time>2020-06-12T04:30:24Z</time>
      </trkpt>
      <trkpt lat="49.04444" lon="-1.55135">
        <ele>38.9</ele>
        <time>2020-06-12T04:30:25Z</time>
      </trkpt>
      <trkpt lat="49.04438" lon="-1.55144">
        <ele>38.6</ele>
        <time>2020-06-12T04:30:26Z</time>
      </trkpt>
      <trkpt lat="49.04432" lon="-1.55154">
        <ele>38.3</ele>
        <time>2020-06-12T04:30:27Z</time>
      </trkpt>
      <trkpt lat="49.04427" lon="-1.55163">
        <ele>37.9</ele>
        <time>2020-06-12T04:30:28Z</time>
      </trkpt>
      <trkpt lat="49.04422" lon="-1.55172">
        <ele>37.6</ele>
        <time>2020-06-12T04:30:29Z</time>
      </trkpt>
      <trkpt lat="49.04418" lon="-1.55181">
        <ele>37.4</ele>
        <time>2020-06-12T04:30:30Z</time>
      </trkpt>
      <trkpt lat="49.04415" lon="-1.55192">
        <ele>36.4</ele>
        <time>2020-06-12T04:30:31Z</time>
      </trkpt>
      <trkpt lat="49.04413" lon="-1.55205">
        <ele>35.7</ele>
        <time>2020-06-12T04:30:32Z</time>
      </trkpt>
      <trkpt lat="49.04411" lon="-1.55218">
        <ele>35.3</ele>
        <time>2020-06-12T04:30:33Z</time>
      </trkpt>
      <trkpt lat="49.04411" lon="-1.5523">
        <ele>35.1</ele>
        <time>2020-06-12T04:30:34Z</time>
      </trkpt>
      <trkpt lat="49.04411" lon="-1.55242">
        <ele>35</ele>
        <time>2020-06-12T04:30:35Z</time>
      </trkpt>
      <trkpt lat="49.04412" lon="-1.55256">
        <ele>34.9</ele>
        <time>2020-06-12T04:30:36Z</time>
      </trkpt>
      <trkpt lat="49.04412" lon="-1.55268">
        <ele>35</ele>
        <time>2020-06-12T04:30:37Z</time>
      </trkpt>
      <trkpt lat="49.04413" lon="-1.55279">
        <ele>35.1</ele>
        <time>2020-06-12T04:30:38Z</time>
      </trkpt>
      <trkpt lat="49.04414" lon="-1.5529">
        <ele>35.1</ele>
        <time>2020-06-12T04:30:39Z</time>
      </trkpt>
      <trkpt lat="49.04414" lon="-1.55301">
        <ele>35.1</ele>
        <time>2020-06-12T04:30:40Z</time>
      </trkpt>
      <trkpt lat="49.04414" lon="-1.55312">
        <ele>35</ele>
        <time>2020-06-12T04:30:41Z</time>
      </trkpt>
      <trkpt lat="49.04414" lon="-1.55321">
        <ele>35.1</ele>
        <time>2020-06-12T04:30:42Z</time>
      </trkpt>
      <trkpt lat="49.04414" lon="-1.5533">
        <ele>35.1</ele>
        <time>2020-06-12T04:30:43Z</time>
      </trkpt>
      <trkpt lat="49.04414" lon="-1.55339">
        <ele>35.2</ele>
        <time>2020-06-12T04:30:44Z</time>
      </trkpt>
      <trkpt lat="49.04415" lon="-1.55347">
        <ele>35.2</ele>
        <time>2020-06-12T04:30:45Z</time>
      </trkpt>
      <trkpt lat="49.04415" lon="-1.55354">
        <ele>35.3</ele>
        <time>2020-06-12T04:30:46Z</time>
      </trkpt>
      <trkpt lat="49.04416" lon="-1.55363">
        <ele>35.4</ele>
        <time>2020-06-12T04:30:47Z</time>
      </trkpt>
      <trkpt lat="49.04417" lon="-1.55371">
        <ele>35.4</ele>
        <time>2020-06-12T04:30:48Z</time>
      </trkpt>
      <trkpt lat="49.04418" lon="-1.55378">
        <ele>35.5</ele>
        <time>2020-06-12T04:30:49Z</time>
      </trkpt>
      <trkpt lat="49.04419" lon="-1.55385">
        <ele>35.5</ele>
        <time>2020-06-12T04:30:50Z</time>
      </trkpt>
      <trkpt lat="49.0442" lon="-1.55393">
        <ele>35.6</ele>
        <time>2020-06-12T04:30:51Z</time>
      </trkpt>
      <trkpt lat="49.04423" lon="-1.55398">
        <ele>35.6</ele>
        <time>2020-06-12T04:30:52Z</time>
      </trkpt>
      <trkpt lat="49.04424" lon="-1.55404">
        <ele>35.6</ele>
        <time>2020-06-12T04:30:53Z</time>
      </trkpt>
      <trkpt lat="49.04427" lon="-1.5541">
        <ele>35.7</ele>
        <time>2020-06-12T04:30:54Z</time>
      </trkpt>
      <trkpt lat="49.0443" lon="-1.55416">
        <ele>35.8</ele>
        <time>2020-06-12T04:30:55Z</time>
      </trkpt>
      <trkpt lat="49.04434" lon="-1.5542">
        <ele>36</ele>
        <time>2020-06-12T04:30:56Z</time>
      </trkpt>
      <trkpt lat="49.04438" lon="-1.55424">
        <ele>36.1</ele>
        <time>2020-06-12T04:30:57Z</time>
      </trkpt>
      <trkpt lat="49.04442" lon="-1.55429">
        <ele>36.3</ele>
        <time>2020-06-12T04:30:58Z</time>
      </trkpt>
      <trkpt lat="49.04445" lon="-1.55433">
        <ele>36.5</ele>
        <time>2020-06-12T04:30:59Z</time>
      </trkpt>
      <trkpt lat="49.04449" lon="-1.55438">
        <ele>36.6</ele>
        <time>2020-06-12T04:31:00Z</time>
      </trkpt>
      <trkpt lat="49.04452" lon="-1.55442">
        <ele>36.7</ele>
        <time>2020-06-12T04:31:01Z</time>
      </trkpt>
      <trkpt lat="49.04457" lon="-1.55447">
        <ele>36.7</ele>
        <time>2020-06-12T04:31:02Z</time>
      </trkpt>
      <trkpt lat="49.04461" lon="-1.55452">
        <ele>36.8</ele>
        <time>2020-06-12T04:31:03Z</time>
      </trkpt>
      <trkpt lat="49.04466" lon="-1.55455">
        <ele>36.8</ele>
        <time>2020-06-12T04:31:04Z</time>
      </trkpt>
      <trkpt lat="49.04472" lon="-1.55459">
        <ele>36.8</ele>
        <time>2020-06-12T04:31:05Z</time>
      </trkpt>
      <trkpt lat="49.04477" lon="-1.55462">
        <ele>36.8</ele>
        <time>2020-06-12T04:31:06Z</time>
      </trkpt>
      <trkpt lat="49.0448" lon="-1.55465">
        <ele>36.8</ele>
        <time>2020-06-12T04:31:07Z</time>
      </trkpt>
      <trkpt lat="49.04484" lon="-1.55468">
        <ele>36.8</ele>
        <time>2020-06-12T04:31:08Z</time>
      </trkpt>
      <trkpt lat="49.04488" lon="-1.55471">
        <ele>36.8</ele>
        <time>2020-06-12T04:31:09Z</time>
      </trkpt>
      <trkpt lat="49.04491" lon="-1.55474">
        <ele>36.8</ele>
        <time>2020-06-12T04:31:10Z</time>
      </trkpt>
      <trkpt lat="49.04496" lon="-1.55479">
        <ele>36.8</ele>
        <time>2020-06-12T04:31:11Z</time>
      </trkpt>
      <trkpt lat="49.045" lon="-1.55481">
        <ele>36.8</ele>
        <time>2020-06-12T04:31:12Z</time>
      </trkpt>
      <trkpt lat="49.04505" lon="-1.55484">
        <ele>36.8</ele>
        <time>2020-06-12T04:31:13Z</time>
      </trkpt>
      <trkpt lat="49.04509" lon="-1.55488">
        <ele>36.8</ele>
        <time>2020-06-12T04:31:14Z</time>
      </trkpt>
      <trkpt lat="49.04512" lon="-1.5549">
        <ele>36.8</ele>
        <time>2020-06-12T04:31:15Z</time>
      </trkpt>
      <trkpt lat="49.04516" lon="-1.55493">
        <ele>36.8</ele>
        <time>2020-06-12T04:31:16Z</time>
      </trkpt>
      <trkpt lat="49.0452" lon="-1.55496">
        <ele>36.7</ele>
        <time>2020-06-12T04:31:17Z</time>
      </trkpt>
      <trkpt lat="49.04525" lon="-1.55499">
        <ele>36.7</ele>
        <time>2020-06-12T04:31:18Z</time>
      </trkpt>
      <trkpt lat="49.04531" lon="-1.55503">
        <ele>36.7</ele>
        <time>2020-06-12T04:31:19Z</time>
      </trkpt>
      <trkpt lat="49.04536" lon="-1.55505">
        <ele>36.6</ele>
        <time>2020-06-12T04:31:20Z</time>
      </trkpt>
      <trkpt lat="49.0454" lon="-1.55508">
        <ele>36.6</ele>
        <time>2020-06-12T04:31:21Z</time>
      </trkpt>
      <trkpt lat="49.04544" lon="-1.5551">
        <ele>36.5</ele>
        <time>2020-06-12T04:31:22Z</time>
      </trkpt>
      <trkpt lat="49.04549" lon="-1.55512">
        <ele>36.5</ele>
        <time>2020-06-12T04:31:23Z</time>
      </trkpt>
      <trkpt lat="49.04552" lon="-1.55515">
        <ele>36.5</ele>
        <time>2020-06-12T04:31:24Z</time>
      </trkpt>
      <trkpt lat="49.04557" lon="-1.55517">
        <ele>36.4</ele>
        <time>2020-06-12T04:31:25Z</time>
      </trkpt>
      <trkpt lat="49.04562" lon="-1.55519">
        <ele>36.4</ele>
        <time>2020-06-12T04:31:26Z</time>
      </trkpt>
      <trkpt lat="49.04566" lon="-1.55523">
        <ele>36.4</ele>
        <time>2020-06-12T04:31:27Z</time>
      </trkpt>
      <trkpt lat="49.04571" lon="-1.55525">
        <ele>36.3</ele>
        <time>2020-06-12T04:31:28Z</time>
      </trkpt>
      <trkpt lat="49.04575" lon="-1.55527">
        <ele>36.3</ele>
        <time>2020-06-12T04:31:29Z</time>
      </trkpt>
      <trkpt lat="49.04581" lon="-1.5553">
        <ele>36.2</ele>
        <time>2020-06-12T04:31:30Z</time>
      </trkpt>
      <trkpt lat="49.04587" lon="-1.55534">
        <ele>36.1</ele>
        <time>2020-06-12T04:31:31Z</time>
      </trkpt>
      <trkpt lat="49.04593" lon="-1.55537">
        <ele>36.1</ele>
        <time>2020-06-12T04:31:32Z</time>
      </trkpt>
      <trkpt lat="49.04597" lon="-1.55539">
        <ele>36</ele>
        <time>2020-06-12T04:31:33Z</time>
      </trkpt>
      <trkpt lat="49.04601" lon="-1.55542">
        <ele>35.9</ele>
        <time>2020-06-12T04:31:34Z</time>
      </trkpt>
      <trkpt lat="49.04606" lon="-1.55545">
        <ele>35.9</ele>
        <time>2020-06-12T04:31:35Z</time>
      </trkpt>
      <trkpt lat="49.0461" lon="-1.55548">
        <ele>35.8</ele>
        <time>2020-06-12T04:31:36Z</time>
      </trkpt>
      <trkpt lat="49.04614" lon="-1.5555">
        <ele>35.7</ele>
        <time>2020-06-12T04:31:37Z</time>
      </trkpt>
      <trkpt lat="49.04618" lon="-1.55552">
        <ele>35.7</ele>
        <time>2020-06-12T04:31:38Z</time>
      </trkpt>
      <trkpt lat="49.04622" lon="-1.55556">
        <ele>35.6</ele>
        <time>2020-06-12T04:31:39Z</time>
      </trkpt>
      <trkpt lat="49.04627" lon="-1.55557">
        <ele>35.5</ele>
        <time>2020-06-12T04:31:40Z</time>
      </trkpt>
      <trkpt lat="49.04632" lon="-1.5556">
        <ele>35.5</ele>
        <time>2020-06-12T04:31:41Z</time>
      </trkpt>
      <trkpt lat="49.04637" lon="-1.55562">
        <ele>35.3</ele>
        <time>2020-06-12T04:31:42Z</time>
      </trkpt>
      <trkpt lat="49.04642" lon="-1.55566">
        <ele>35.2</ele>
        <time>2020-06-12T04:31:43Z</time>
      </trkpt>
      <trkpt lat="49.04647" lon="-1.55568">
        <ele>35.1</ele>
        <time>2020-06-12T04:31:44Z</time>
      </trkpt>
      <trkpt lat="49.04652" lon="-1.5557">
        <ele>35</ele>
        <time>2020-06-12T04:31:45Z</time>
      </trkpt>
      <trkpt lat="49.04657" lon="-1.55572">
        <ele>34.9</ele>
        <time>2020-06-12T04:31:46Z</time>
      </trkpt>
      <trkpt lat="49.04661" lon="-1.55574">
        <ele>34.8</ele>
        <time>2020-06-12T04:31:47Z</time>
      </trkpt>
      <trkpt lat="49.04667" lon="-1.55575">
        <ele>34.6</ele>
        <time>2020-06-12T04:31:48Z</time>
      </trkpt>
      <trkpt lat="49.04671" lon="-1.55578">
        <ele>34.5</ele>
        <time>2020-06-12T04:31:49Z</time>
      </trkpt>
      <trkpt lat="49.04676" lon="-1.55581">
        <ele>34.4</ele>
        <time>2020-06-12T04:31:50Z</time>
      </trkpt>
      <trkpt lat="49.0468" lon="-1.55584">
        <ele>34.3</ele>
        <time>2020-06-12T04:31:51Z</time>
      </trkpt>
      <trkpt lat="49.04685" lon="-1.55586">
        <ele>34.1</ele>
        <time>2020-06-12T04:31:52Z</time>
      </trkpt>
      <trkpt lat="49.0469" lon="-1.55588">
        <ele>34</ele>
        <time>2020-06-12T04:31:53Z</time>
      </trkpt>
      <trkpt lat="49.04695" lon="-1.5559">
        <ele>33.8</ele>
        <time>2020-06-12T04:31:54Z</time>
      </trkpt>
      <trkpt lat="49.04699" lon="-1.55593">
        <ele>33.6</ele>
        <time>2020-06-12T04:31:55Z</time>
      </trkpt>
      <trkpt lat="49.04704" lon="-1.55596">
        <ele>33.5</ele>
        <time>2020-06-12T04:31:56Z</time>
      </trkpt>
      <trkpt lat="49.04709" lon="-1.556">
        <ele>33.3</ele>
        <time>2020-06-12T04:31:57Z</time>
      </trkpt>
      <trkpt lat="49.04714" lon="-1.55605">
        <ele>33</ele>
        <time>2020-06-12T04:31:58Z</time>
      </trkpt>
      <trkpt lat="49.04719" lon="-1.5561">
        <ele>32.8</ele>
        <time>2020-06-12T04:31:59Z</time>
      </trkpt>
      <trkpt lat="49.04724" lon="-1.55614">
        <ele>32.6</ele>
        <time>2020-06-12T04:32:00Z</time>
      </trkpt>
      <trkpt lat="49.04729" lon="-1.55618">
        <ele>32.3</ele>
        <time>2020-06-12T04:32:01Z</time>
      </trkpt>
      <trkpt lat="49.04734" lon="-1.55622">
        <ele>32.1</ele>
        <time>2020-06-12T04:32:02Z</time>
      </trkpt>
      <trkpt lat="49.04739" lon="-1.55626">
        <ele>31.9</ele>
        <time>2020-06-12T04:32:03Z</time>
      </trkpt>
      <trkpt lat="49.04744" lon="-1.5563">
        <ele>31.7</ele>
        <time>2020-06-12T04:32:04Z</time>
      </trkpt>
      <trkpt lat="49.04749" lon="-1.55635">
        <ele>31.5</ele>
        <time>2020-06-12T04:32:05Z</time>
      </trkpt>
      <trkpt lat="49.04755" lon="-1.5564">
        <ele>31.2</ele>
        <time>2020-06-12T04:32:06Z</time>
      </trkpt>
      <trkpt lat="49.04761" lon="-1.55645">
        <ele>30.6</ele>
        <time>2020-06-12T04:32:07Z</time>
      </trkpt>
      <trkpt lat="49.04767" lon="-1.5565">
        <ele>30.3</ele>
        <time>2020-06-12T04:32:08Z</time>
      </trkpt>
      <trkpt lat="49.04773" lon="-1.55655">
        <ele>29.9</ele>
        <time>2020-06-12T04:32:09Z</time>
      </trkpt>
      <trkpt lat="49.04778" lon="-1.55661">
        <ele>29.6</ele>
        <time>2020-06-12T04:32:10Z</time>
      </trkpt>
      <trkpt lat="49.04784" lon="-1.55667">
        <ele>29.2</ele>
        <time>2020-06-12T04:32:11Z</time>
      </trkpt>
      <trkpt lat="49.04789" lon="-1.55672">
        <ele>28.9</ele>
        <time>2020-06-12T04:32:12Z</time>
      </trkpt>
      <trkpt lat="49.04795" lon="-1.55679">
        <ele>28.5</ele>
        <time>2020-06-12T04:32:13Z</time>
      </trkpt>
      <trkpt lat="49.04801" lon="-1.55685">
        <ele>28.2</ele>
        <time>2020-06-12T04:32:14Z</time>
      </trkpt>
      <trkpt lat="49.04807" lon="-1.55692">
        <ele>27.8</ele>
        <time>2020-06-12T04:32:15Z</time>
      </trkpt>
      <trkpt lat="49.04814" lon="-1.557">
        <ele>27.4</ele>
        <time>2020-06-12T04:32:16Z</time>
      </trkpt>
      <trkpt lat="49.0482" lon="-1.55708">
        <ele>27</ele>
        <time>2020-06-12T04:32:17Z</time>
      </trkpt>
      <trkpt lat="49.04826" lon="-1.55715">
        <ele>26.5</ele>
        <time>2020-06-12T04:32:18Z</time>
      </trkpt>
      <trkpt lat="49.04832" lon="-1.55723">
        <ele>26</ele>
        <time>2020-06-12T04:32:19Z</time>
      </trkpt>
      <trkpt lat="49.04839" lon="-1.55731">
        <ele>25.5</ele>
        <time>2020-06-12T04:32:20Z</time>
      </trkpt>
      <trkpt lat="49.04846" lon="-1.55739">
        <ele>25</ele>
        <time>2020-06-12T04:32:21Z</time>
      </trkpt>
      <trkpt lat="49.04852" lon="-1.55747">
        <ele>24.4</ele>
        <time>2020-06-12T04:32:22Z</time>
      </trkpt>
      <trkpt lat="49.04859" lon="-1.55756">
        <ele>23.8</ele>
        <time>2020-06-12T04:32:23Z</time>
      </trkpt>
      <trkpt lat="49.04864" lon="-1.55765">
        <ele>23.2</ele>
        <time>2020-06-12T04:32:24Z</time>
      </trkpt>
      <trkpt lat="49.0487" lon="-1.55775">
        <ele>22.5</ele>
        <time>2020-06-12T04:32:25Z</time>
      </trkpt>
      <trkpt lat="49.04876" lon="-1.55785">
        <ele>21.8</ele>
        <time>2020-06-12T04:32:26Z</time>
      </trkpt>
      <trkpt lat="49.04883" lon="-1.55795">
        <ele>21.1</ele>
        <time>2020-06-12T04:32:27Z</time>
      </trkpt>
      <trkpt lat="49.04889" lon="-1.55806">
        <ele>20.4</ele>
        <time>2020-06-12T04:32:28Z</time>
      </trkpt>
      <trkpt lat="49.04896" lon="-1.55816">
        <ele>19.8</ele>
        <time>2020-06-12T04:32:29Z</time>
      </trkpt>
      <trkpt lat="49.04902" lon="-1.55826">
        <ele>19.2</ele>
        <time>2020-06-12T04:32:30Z</time>
      </trkpt>
      <trkpt lat="49.04909" lon="-1.55837">
        <ele>18.6</ele>
        <time>2020-06-12T04:32:31Z</time>
      </trkpt>
      <trkpt lat="49.04915" lon="-1.55849">
        <ele>18</ele>
        <time>2020-06-12T04:32:32Z</time>
      </trkpt>
      <trkpt lat="49.04922" lon="-1.5586">
        <ele>17.3</ele>
        <time>2020-06-12T04:32:33Z</time>
      </trkpt>
      <trkpt lat="49.04929" lon="-1.55872">
        <ele>16.7</ele>
        <time>2020-06-12T04:32:34Z</time>
      </trkpt>
      <trkpt lat="49.04936" lon="-1.55883">
        <ele>16.2</ele>
        <time>2020-06-12T04:32:35Z</time>
      </trkpt>
      <trkpt lat="49.04944" lon="-1.55894">
        <ele>15.8</ele>
        <time>2020-06-12T04:32:36Z</time>
      </trkpt>
      <trkpt lat="49.0495" lon="-1.55906">
        <ele>15.4</ele>
        <time>2020-06-12T04:32:37Z</time>
      </trkpt>
      <trkpt lat="49.04957" lon="-1.55916">
        <ele>15.1</ele>
        <time>2020-06-12T04:32:38Z</time>
      </trkpt>
      <trkpt lat="49.04963" lon="-1.55926">
        <ele>15</ele>
        <time>2020-06-12T04:32:39Z</time>
      </trkpt>
      <trkpt lat="49.04969" lon="-1.55937">
        <ele>14.9</ele>
        <time>2020-06-12T04:32:40Z</time>
      </trkpt>
      <trkpt lat="49.04974" lon="-1.55947">
        <ele>14.9</ele>
        <time>2020-06-12T04:32:41Z</time>
      </trkpt>
      <trkpt lat="49.0498" lon="-1.55955">
        <ele>14.9</ele>
        <time>2020-06-12T04:32:42Z</time>
      </trkpt>
      <trkpt lat="49.04985" lon="-1.55963">
        <ele>15</ele>
        <time>2020-06-12T04:32:43Z</time>
      </trkpt>
      <trkpt lat="49.04991" lon="-1.55971">
        <ele>15.2</ele>
        <time>2020-06-12T04:32:44Z</time>
      </trkpt>
      <trkpt lat="49.04996" lon="-1.55979">
        <ele>15.4</ele>
        <time>2020-06-12T04:32:45Z</time>
      </trkpt>
      <trkpt lat="49.05001" lon="-1.55987">
        <ele>15.7</ele>
        <time>2020-06-12T04:32:46Z</time>
      </trkpt>
      <trkpt lat="49.05005" lon="-1.55995">
        <ele>15.9</ele>
        <time>2020-06-12T04:32:47Z</time>
      </trkpt>
      <trkpt lat="49.05011" lon="-1.56001">
        <ele>16.2</ele>
        <time>2020-06-12T04:32:48Z</time>
      </trkpt>
      <trkpt lat="49.05015" lon="-1.56008">
        <ele>16.6</ele>
        <time>2020-06-12T04:32:49Z</time>
      </trkpt>
      <trkpt lat="49.0502" lon="-1.56013">
        <ele>16.9</ele>
        <time>2020-06-12T04:32:50Z</time>
      </trkpt>
      <trkpt lat="49.05023" lon="-1.5602">
        <ele>17.3</ele>
        <time>2020-06-12T04:32:51Z</time>
      </trkpt>
      <trkpt lat="49.05027" lon="-1.56024">
        <ele>17.6</ele>
        <time>2020-06-12T04:32:52Z</time>
      </trkpt>
      <trkpt lat="49.0503" lon="-1.5603">
        <ele>17.9</ele>
        <time>2020-06-12T04:32:53Z</time>
      </trkpt>
      <trkpt lat="49.05032" lon="-1.56035">
        <ele>18.3</ele>
        <time>2020-06-12T04:32:54Z</time>
      </trkpt>
      <trkpt lat="49.05034" lon="-1.5604">
        <ele>18.6</ele>
        <time>2020-06-12T04:32:55Z</time>
      </trkpt>
      <trkpt lat="49.05037" lon="-1.56044">
        <ele>18.8</ele>
        <time>2020-06-12T04:32:56Z</time>
      </trkpt>
      <trkpt lat="49.0504" lon="-1.56047">
        <ele>19.1</ele>
        <time>2020-06-12T04:32:57Z</time>
      </trkpt>
      <trkpt lat="49.05042" lon="-1.56051">
        <ele>19.4</ele>
        <time>2020-06-12T04:32:58Z</time>
      </trkpt>
      <trkpt lat="49.05044" lon="-1.56055">
        <ele>19.7</ele>
        <time>2020-06-12T04:32:59Z</time>
      </trkpt>
      <trkpt lat="49.05047" lon="-1.56059">
        <ele>19.9</ele>
        <time>2020-06-12T04:33:00Z</time>
      </trkpt>
      <trkpt lat="49.05049" lon="-1.56063">
        <ele>20.2</ele>
        <time>2020-06-12T04:33:01Z</time>
      </trkpt>
      <trkpt lat="49.05051" lon="-1.56067">
        <ele>20.5</ele>
        <time>2020-06-12T04:33:02Z</time>
      </trkpt>
      <trkpt lat="49.05053" lon="-1.5607">
        <ele>20.8</ele>
        <time>2020-06-12T04:33:03Z</time>
      </trkpt>
      <trkpt lat="49.05055" lon="-1.56073">
        <ele>21.1</ele>
        <time>2020-06-12T04:33:04Z</time>
      </trkpt>
      <trkpt lat="49.05057" lon="-1.56076">
        <ele>21.4</ele>
        <time>2020-06-12T04:33:05Z</time>
      </trkpt>
      <trkpt lat="49.0506" lon="-1.56078">
        <ele>21.6</ele>
        <time>2020-06-12T04:33:06Z</time>
      </trkpt>
      <trkpt lat="49.05062" lon="-1.56082">
        <ele>21.9</ele>
        <time>2020-06-12T04:33:07Z</time>
      </trkpt>
      <trkpt lat="49.05064" lon="-1.56086">
        <ele>22.2</ele>
        <time>2020-06-12T04:33:08Z</time>
      </trkpt>
      <trkpt lat="49.05066" lon="-1.5609">
        <ele>22.5</ele>
        <time>2020-06-12T04:33:09Z</time>
      </trkpt>
      <trkpt lat="49.05068" lon="-1.56092">
        <ele>22.7</ele>
        <time>2020-06-12T04:33:10Z</time>
      </trkpt>
      <trkpt lat="49.05071" lon="-1.56096">
        <ele>23</ele>
        <time>2020-06-12T04:33:11Z</time>
      </trkpt>
      <trkpt lat="49.05072" lon="-1.56098">
        <ele>23.1</ele>
        <time>2020-06-12T04:33:12Z</time>
      </trkpt>
      <trkpt lat="49.05074" lon="-1.56102">
        <ele>23.4</ele>
        <time>2020-06-12T04:33:13Z</time>
      </trkpt>
      <trkpt lat="49.05075" lon="-1.56104">
        <ele>23.6</ele>
        <time>2020-06-12T04:33:14Z</time>
      </trkpt>
      <trkpt lat="49.05076" lon="-1.56106">
        <ele>23.7</ele>
        <time>2020-06-12T04:33:15Z</time>
      </trkpt>
      <trkpt lat="49.05078" lon="-1.5611">
        <ele>23.9</ele>
        <time>2020-06-12T04:33:16Z</time>
      </trkpt>
      <trkpt lat="49.05079" lon="-1.5611">
        <ele>23.9</ele>
        <time>2020-06-12T04:33:17Z</time>
      </trkpt>
      <trkpt lat="49.05082" lon="-1.56115">
        <ele>24.2</ele>
        <time>2020-06-12T04:33:18Z</time>
      </trkpt>
      <trkpt lat="49.05083" lon="-1.56117">
        <ele>24.3</ele>
        <time>2020-06-12T04:33:19Z</time>
      </trkpt>
      <trkpt lat="49.05085" lon="-1.5612">
        <ele>24.5</ele>
        <time>2020-06-12T04:33:20Z</time>
      </trkpt>
      <trkpt lat="49.05088" lon="-1.56123">
        <ele>24.7</ele>
        <time>2020-06-12T04:33:21Z</time>
      </trkpt>
      <trkpt lat="49.05089" lon="-1.56124">
        <ele>24.8</ele>
        <time>2020-06-12T04:33:22Z</time>
      </trkpt>
      <trkpt lat="49.05091" lon="-1.56126">
        <ele>25</ele>
        <time>2020-06-12T04:33:23Z</time>
      </trkpt>
      <trkpt lat="49.05092" lon="-1.56127">
        <ele>25</ele>
        <time>2020-06-12T04:33:24Z</time>
      </trkpt>
      <trkpt lat="49.05094" lon="-1.56129">
        <ele>25.2</ele>
        <time>2020-06-12T04:33:25Z</time>
      </trkpt>
      <trkpt lat="49.05097" lon="-1.56132">
        <ele>25.5</ele>
        <time>2020-06-12T04:33:26Z</time>
      </trkpt>
      <trkpt lat="49.05099" lon="-1.56135">
        <ele>25.7</ele>
        <time>2020-06-12T04:33:27Z</time>
      </trkpt>
      <trkpt lat="49.05102" lon="-1.56139">
        <ele>25.9</ele>
        <time>2020-06-12T04:33:28Z</time>
      </trkpt>
      <trkpt lat="49.05103" lon="-1.56141">
        <ele>26.1</ele>
        <time>2020-06-12T04:33:29Z</time>
      </trkpt>
      <trkpt lat="49.05106" lon="-1.56144">
        <ele>26.3</ele>
        <time>2020-06-12T04:33:30Z</time>
      </trkpt>
      <trkpt lat="49.05107" lon="-1.56146">
        <ele>26.4</ele>
        <time>2020-06-12T04:33:31Z</time>
      </trkpt>
      <trkpt lat="49.05109" lon="-1.56149">
        <ele>26.6</ele>
        <time>2020-06-12T04:33:32Z</time>
      </trkpt>
      <trkpt lat="49.0511" lon="-1.5615">
        <ele>26.6</ele>
        <time>2020-06-12T04:33:33Z</time>
      </trkpt>
      <trkpt lat="49.05112" lon="-1.56154">
        <ele>26.8</ele>
        <time>2020-06-12T04:33:34Z</time>
      </trkpt>
      <trkpt lat="49.05113" lon="-1.56155">
        <ele>26.9</ele>
        <time>2020-06-12T04:33:35Z</time>
      </trkpt>
      <trkpt lat="49.05115" lon="-1.56159">
        <ele>27.1</ele>
        <time>2020-06-12T04:33:36Z</time>
      </trkpt>
      <trkpt lat="49.05116" lon="-1.5616">
        <ele>27.2</ele>
        <time>2020-06-12T04:33:37Z</time>
      </trkpt>
      <trkpt lat="49.05119" lon="-1.56163">
        <ele>27.4</ele>
        <time>2020-06-12T04:33:38Z</time>
      </trkpt>
      <trkpt lat="49.0512" lon="-1.56164">
        <ele>27.4</ele>
        <time>2020-06-12T04:33:39Z</time>
      </trkpt>
      <trkpt lat="49.05123" lon="-1.56168">
        <ele>27.6</ele>
        <time>2020-06-12T04:33:40Z</time>
      </trkpt>
      <trkpt lat="49.05123" lon="-1.56169">
        <ele>27.7</ele>
        <time>2020-06-12T04:33:41Z</time>
      </trkpt>
      <trkpt lat="49.05126" lon="-1.56172">
        <ele>27.9</ele>
        <time>2020-06-12T04:33:42Z</time>
      </trkpt>
      <trkpt lat="49.05127" lon="-1.56174">
        <ele>28</ele>
        <time>2020-06-12T04:33:43Z</time>
      </trkpt>
      <trkpt lat="49.05129" lon="-1.56177">
        <ele>28.1</ele>
        <time>2020-06-12T04:33:44Z</time>
      </trkpt>
      <trkpt lat="49.05132" lon="-1.5618">
        <ele>28.3</ele>
        <time>2020-06-12T04:33:45Z</time>
      </trkpt>
      <trkpt lat="49.05133" lon="-1.56181">
        <ele>28.4</ele>
        <time>2020-06-12T04:33:46Z</time>
      </trkpt>
      <trkpt lat="49.05137" lon="-1.56184">
        <ele>28.6</ele>
        <time>2020-06-12T04:33:47Z</time>
      </trkpt>
      <trkpt lat="49.05138" lon="-1.56184">
        <ele>28.7</ele>
        <time>2020-06-12T04:33:48Z</time>
      </trkpt>
      <trkpt lat="49.0514" lon="-1.56186">
        <ele>28.8</ele>
        <time>2020-06-12T04:33:49Z</time>
      </trkpt>
      <trkpt lat="49.05143" lon="-1.5619">
        <ele>29</ele>
        <time>2020-06-12T04:33:50Z</time>
      </trkpt>
      <trkpt lat="49.05146" lon="-1.56193">
        <ele>29.2</ele>
        <time>2020-06-12T04:33:51Z</time>
      </trkpt>
      <trkpt lat="49.05147" lon="-1.56194">
        <ele>29.3</ele>
        <time>2020-06-12T04:33:52Z</time>
      </trkpt>
      <trkpt lat="49.05149" lon="-1.56198">
        <ele>29.5</ele>
        <time>2020-06-12T04:33:53Z</time>
      </trkpt>
      <trkpt lat="49.05151" lon="-1.56199">
        <ele>29.6</ele>
        <time>2020-06-12T04:33:54Z</time>
      </trkpt>
      <trkpt lat="49.05153" lon="-1.56202">
        <ele>29.8</ele>
        <time>2020-06-12T04:33:55Z</time>
      </trkpt>
      <trkpt lat="49.05156" lon="-1.56204">
        <ele>30</ele>
        <time>2020-06-12T04:33:56Z</time>
      </trkpt>
      <trkpt lat="49.05157" lon="-1.56205">
        <ele>30.1</ele>
        <time>2020-06-12T04:33:57Z</time>
      </trkpt>
      <trkpt lat="49.05161" lon="-1.56208">
        <ele>30.3</ele>
        <time>2020-06-12T04:33:58Z</time>
      </trkpt>
      <trkpt lat="49.05162" lon="-1.56209">
        <ele>30.3</ele>
        <time>2020-06-12T04:33:59Z</time>
      </trkpt>
      <trkpt lat="49.05164" lon="-1.56211">
        <ele>30.5</ele>
        <time>2020-06-12T04:34:00Z</time>
      </trkpt>
      <trkpt lat="49.05168" lon="-1.56214">
        <ele>30.9</ele>
        <time>2020-06-12T04:34:01Z</time>
      </trkpt>
      <trkpt lat="49.05169" lon="-1.56215">
        <ele>30.9</ele>
        <time>2020-06-12T04:34:02Z</time>
      </trkpt>
      <trkpt lat="49.05172" lon="-1.56219">
        <ele>31.1</ele>
        <time>2020-06-12T04:34:03Z</time>
      </trkpt>
      <trkpt lat="49.05172" lon="-1.56219">
        <ele>31.2</ele>
        <time>2020-06-12T04:34:04Z</time>
      </trkpt>
      <trkpt lat="49.05175" lon="-1.56223">
        <ele>31.3</ele>
        <time>2020-06-12T04:34:05Z</time>
      </trkpt>
      <trkpt lat="49.05176" lon="-1.56224">
        <ele>31.4</ele>
        <time>2020-06-12T04:34:06Z</time>
      </trkpt>
      <trkpt lat="49.05179" lon="-1.56227">
        <ele>31.6</ele>
        <time>2020-06-12T04:34:07Z</time>
      </trkpt>
      <trkpt lat="49.0518" lon="-1.56228">
        <ele>31.6</ele>
        <time>2020-06-12T04:34:08Z</time>
      </trkpt>
      <trkpt lat="49.05182" lon="-1.56232">
        <ele>31.8</ele>
        <time>2020-06-12T04:34:09Z</time>
      </trkpt>
      <trkpt lat="49.05183" lon="-1.56233">
        <ele>31.8</ele>
        <time>2020-06-12T04:34:10Z</time>
      </trkpt>
      <trkpt lat="49.05186" lon="-1.56235">
        <ele>32</ele>
        <time>2020-06-12T04:34:11Z</time>
      </trkpt>
      <trkpt lat="49.05187" lon="-1.56235">
        <ele>32</ele>
        <time>2020-06-12T04:34:12Z</time>
      </trkpt>
      <trkpt lat="49.05189" lon="-1.56238">
        <ele>32.2</ele>
        <time>2020-06-12T04:34:13Z</time>
      </trkpt>
      <trkpt lat="49.05192" lon="-1.5624">
        <ele>32.3</ele>
        <time>2020-06-12T04:34:14Z</time>
      </trkpt>
      <trkpt lat="49.05195" lon="-1.56242">
        <ele>32.5</ele>
        <time>2020-06-12T04:34:15Z</time>
      </trkpt>
      <trkpt lat="49.05196" lon="-1.56243">
        <ele>32.5</ele>
        <time>2020-06-12T04:34:16Z</time>
      </trkpt>
      <trkpt lat="49.05199" lon="-1.56244">
        <ele>32.7</ele>
        <time>2020-06-12T04:34:17Z</time>
      </trkpt>
      <trkpt lat="49.052" lon="-1.56245">
        <ele>32.8</ele>
        <time>2020-06-12T04:34:18Z</time>
      </trkpt>
      <trkpt lat="49.05203" lon="-1.56249">
        <ele>33</ele>
        <time>2020-06-12T04:34:19Z</time>
      </trkpt>
      <trkpt lat="49.05204" lon="-1.5625">
        <ele>33</ele>
        <time>2020-06-12T04:34:20Z</time>
      </trkpt>
      <trkpt lat="49.05208" lon="-1.56253">
        <ele>33.2</ele>
        <time>2020-06-12T04:34:21Z</time>
      </trkpt>
      <trkpt lat="49.05209" lon="-1.56255">
        <ele>33.3</ele>
        <time>2020-06-12T04:34:22Z</time>
      </trkpt>
      <trkpt lat="49.05212" lon="-1.56258">
        <ele>33.4</ele>
        <time>2020-06-12T04:34:23Z</time>
      </trkpt>
      <trkpt lat="49.05213" lon="-1.56259">
        <ele>33.5</ele>
        <time>2020-06-12T04:34:24Z</time>
      </trkpt>
      <trkpt lat="49.05216" lon="-1.56262">
        <ele>33.7</ele>
        <time>2020-06-12T04:34:25Z</time>
      </trkpt>
      <trkpt lat="49.05218" lon="-1.56264">
        <ele>33.8</ele>
        <time>2020-06-12T04:34:26Z</time>
      </trkpt>
      <trkpt lat="49.05222" lon="-1.56267">
        <ele>34</ele>
        <time>2020-06-12T04:34:27Z</time>
      </trkpt>
      <trkpt lat="49.05223" lon="-1.56268">
        <ele>34</ele>
        <time>2020-06-12T04:34:28Z</time>
      </trkpt>
      <trkpt lat="49.05226" lon="-1.5627">
        <ele>34.2</ele>
        <time>2020-06-12T04:34:29Z</time>
      </trkpt>
      <trkpt lat="49.05228" lon="-1.5627">
        <ele>34.3</ele>
        <time>2020-06-12T04:34:30Z</time>
      </trkpt>
      <trkpt lat="49.05231" lon="-1.56273">
        <ele>34.5</ele>
        <time>2020-06-12T04:34:31Z</time>
      </trkpt>
      <trkpt lat="49.05233" lon="-1.56275">
        <ele>34.6</ele>
        <time>2020-06-12T04:34:32Z</time>
      </trkpt>
      <trkpt lat="49.05236" lon="-1.56278">
        <ele>34.7</ele>
        <time>2020-06-12T04:34:33Z</time>
      </trkpt>
      <trkpt lat="49.05237" lon="-1.56279">
        <ele>34.8</ele>
        <time>2020-06-12T04:34:34Z</time>
      </trkpt>
      <trkpt lat="49.0524" lon="-1.56282">
        <ele>34.9</ele>
        <time>2020-06-12T04:34:35Z</time>
      </trkpt>
      <trkpt lat="49.05241" lon="-1.56283">
        <ele>35</ele>
        <time>2020-06-12T04:34:36Z</time>
      </trkpt>
      <trkpt lat="49.05244" lon="-1.56284">
        <ele>35.2</ele>
        <time>2020-06-12T04:34:37Z</time>
      </trkpt>
      <trkpt lat="49.05249" lon="-1.56286">
        <ele>35.3</ele>
        <time>2020-06-12T04:34:38Z</time>
      </trkpt>
      <trkpt lat="49.0525" lon="-1.56287">
        <ele>35.4</ele>
        <time>2020-06-12T04:34:39Z</time>
      </trkpt>
      <trkpt lat="49.05253" lon="-1.56289">
        <ele>35.5</ele>
        <time>2020-06-12T04:34:40Z</time>
      </trkpt>
      <trkpt lat="49.05256" lon="-1.56293">
        <ele>35.7</ele>
        <time>2020-06-12T04:34:41Z</time>
      </trkpt>
      <trkpt lat="49.05257" lon="-1.56294">
        <ele>35.8</ele>
        <time>2020-06-12T04:34:42Z</time>
      </trkpt>
      <trkpt lat="49.0526" lon="-1.56296">
        <ele>35.9</ele>
        <time>2020-06-12T04:34:43Z</time>
      </trkpt>
      <trkpt lat="49.05262" lon="-1.56296">
        <ele>36</ele>
        <time>2020-06-12T04:34:44Z</time>
      </trkpt>
      <trkpt lat="49.05265" lon="-1.56298">
        <ele>36.1</ele>
        <time>2020-06-12T04:34:45Z</time>
      </trkpt>
      <trkpt lat="49.05266" lon="-1.56299">
        <ele>36.2</ele>
        <time>2020-06-12T04:34:46Z</time>
      </trkpt>
      <trkpt lat="49.05269" lon="-1.56302">
        <ele>36.3</ele>
        <time>2020-06-12T04:34:47Z</time>
      </trkpt>
      <trkpt lat="49.0527" lon="-1.56303">
        <ele>36.4</ele>
        <time>2020-06-12T04:34:48Z</time>
      </trkpt>
      <trkpt lat="49.05272" lon="-1.56305">
        <ele>36.5</ele>
        <time>2020-06-12T04:34:49Z</time>
      </trkpt>
      <trkpt lat="49.05274" lon="-1.56308">
        <ele>36.6</ele>
        <time>2020-06-12T04:34:50Z</time>
      </trkpt>
      <trkpt lat="49.05277" lon="-1.5631">
        <ele>36.7</ele>
        <time>2020-06-12T04:34:51Z</time>
      </trkpt>
      <trkpt lat="49.05279" lon="-1.56313">
        <ele>36.8</ele>
        <time>2020-06-12T04:34:52Z</time>
      </trkpt>
      <trkpt lat="49.05282" lon="-1.56314">
        <ele>36.9</ele>
        <time>2020-06-12T04:34:53Z</time>
      </trkpt>
      <trkpt lat="49.05285" lon="-1.56317">
        <ele>37.1</ele>
        <time>2020-06-12T04:34:54Z</time>
      </trkpt>
      <trkpt lat="49.05286" lon="-1.56319">
        <ele>37.2</ele>
        <time>2020-06-12T04:34:55Z</time>
      </trkpt>
      <trkpt lat="49.0529" lon="-1.56321">
        <ele>37.3</ele>
        <time>2020-06-12T04:34:56Z</time>
      </trkpt>
      <trkpt lat="49.05291" lon="-1.56322">
        <ele>37.4</ele>
        <time>2020-06-12T04:34:57Z</time>
      </trkpt>
      <trkpt lat="49.05293" lon="-1.56325">
        <ele>37.5</ele>
        <time>2020-06-12T04:34:58Z</time>
      </trkpt>
      <trkpt lat="49.05296" lon="-1.56327">
        <ele>37.6</ele>
        <time>2020-06-12T04:34:59Z</time>
      </trkpt>
      <trkpt lat="49.05299" lon="-1.56329">
        <ele>37.7</ele>
        <time>2020-06-12T04:35:00Z</time>
      </trkpt>
      <trkpt lat="49.05302" lon="-1.56331">
        <ele>37.8</ele>
        <time>2020-06-12T04:35:01Z</time>
      </trkpt>
      <trkpt lat="49.05306" lon="-1.56334">
        <ele>38</ele>
        <time>2020-06-12T04:35:02Z</time>
      </trkpt>
      <trkpt lat="49.05307" lon="-1.56336">
        <ele>38.1</ele>
        <time>2020-06-12T04:35:03Z</time>
      </trkpt>
      <trkpt lat="49.0531" lon="-1.56338">
        <ele>38.2</ele>
        <time>2020-06-12T04:35:04Z</time>
      </trkpt>
      <trkpt lat="49.05313" lon="-1.56341">
        <ele>38.3</ele>
        <time>2020-06-12T04:35:05Z</time>
      </trkpt>
      <trkpt lat="49.05314" lon="-1.56342">
        <ele>38.4</ele>
        <time>2020-06-12T04:35:06Z</time>
      </trkpt>
      <trkpt lat="49.05317" lon="-1.56344">
        <ele>38.5</ele>
        <time>2020-06-12T04:35:07Z</time>
      </trkpt>
      <trkpt lat="49.0532" lon="-1.56347">
        <ele>38.6</ele>
        <time>2020-06-12T04:35:08Z</time>
      </trkpt>
      <trkpt lat="49.05321" lon="-1.56347">
        <ele>38.6</ele>
        <time>2020-06-12T04:35:09Z</time>
      </trkpt>
      <trkpt lat="49.05324" lon="-1.5635">
        <ele>38.8</ele>
        <time>2020-06-12T04:35:10Z</time>
      </trkpt>
      <trkpt lat="49.05326" lon="-1.56351">
        <ele>38.8</ele>
        <time>2020-06-12T04:35:11Z</time>
      </trkpt>
      <trkpt lat="49.05329" lon="-1.56355">
        <ele>39</ele>
        <time>2020-06-12T04:35:12Z</time>
      </trkpt>
      <trkpt lat="49.0533" lon="-1.56356">
        <ele>39</ele>
        <time>2020-06-12T04:35:13Z</time>
      </trkpt>
      <trkpt lat="49.05333" lon="-1.56358">
        <ele>39.1</ele>
        <time>2020-06-12T04:35:14Z</time>
      </trkpt>
      <trkpt lat="49.05336" lon="-1.5636">
        <ele>39.3</ele>
        <time>2020-06-12T04:35:15Z</time>
      </trkpt>
      <trkpt lat="49.05339" lon="-1.56363">
        <ele>39.4</ele>
        <time>2020-06-12T04:35:16Z</time>
      </trkpt>
      <trkpt lat="49.05341" lon="-1.56365">
        <ele>39.5</ele>
        <time>2020-06-12T04:35:17Z</time>
      </trkpt>
      <trkpt lat="49.05344" lon="-1.56368">
        <ele>39.6</ele>
        <time>2020-06-12T04:35:18Z</time>
      </trkpt>
      <trkpt lat="49.05347" lon="-1.5637">
        <ele>39.8</ele>
        <time>2020-06-12T04:35:19Z</time>
      </trkpt>
      <trkpt lat="49.05349" lon="-1.56371">
        <ele>39.8</ele>
        <time>2020-06-12T04:35:20Z</time>
      </trkpt>
      <trkpt lat="49.05352" lon="-1.56374">
        <ele>39.9</ele>
        <time>2020-06-12T04:35:21Z</time>
      </trkpt>
      <trkpt lat="49.05355" lon="-1.56375">
        <ele>40</ele>
        <time>2020-06-12T04:35:22Z</time>
      </trkpt>
      <trkpt lat="49.05358" lon="-1.56377">
        <ele>40.1</ele>
        <time>2020-06-12T04:35:23Z</time>
      </trkpt>
      <trkpt lat="49.05361" lon="-1.56379">
        <ele>40.2</ele>
        <time>2020-06-12T04:35:24Z</time>
      </trkpt>
      <trkpt lat="49.05363" lon="-1.56382">
        <ele>40.3</ele>
        <time>2020-06-12T04:35:25Z</time>
      </trkpt>
      <trkpt lat="49.05366" lon="-1.56384">
        <ele>40.4</ele>
        <time>2020-06-12T04:35:26Z</time>
      </trkpt>
      <trkpt lat="49.05369" lon="-1.56386">
        <ele>40.5</ele>
        <time>2020-06-12T04:35:27Z</time>
      </trkpt>
      <trkpt lat="49.05371" lon="-1.56388">
        <ele>40.6</ele>
        <time>2020-06-12T04:35:28Z</time>
      </trkpt>
      <trkpt lat="49.05374" lon="-1.56391">
        <ele>40.6</ele>
        <time>2020-06-12T04:35:29Z</time>
      </trkpt>
      <trkpt lat="49.05378" lon="-1.56393">
        <ele>40.7</ele>
        <time>2020-06-12T04:35:30Z</time>
      </trkpt>
      <trkpt lat="49.05379" lon="-1.56394">
        <ele>40.7</ele>
        <time>2020-06-12T04:35:31Z</time>
      </trkpt>
      <trkpt lat="49.05382" lon="-1.56396">
        <ele>40.8</ele>
        <time>2020-06-12T04:35:32Z</time>
      </trkpt>
      <trkpt lat="49.05386" lon="-1.56399">
        <ele>40.8</ele>
        <time>2020-06-12T04:35:33Z</time>
      </trkpt>
      <trkpt lat="49.05387" lon="-1.56401">
        <ele>40.8</ele>
        <time>2020-06-12T04:35:34Z</time>
      </trkpt>
      <trkpt lat="49.0539" lon="-1.56402">
        <ele>40.9</ele>
        <time>2020-06-12T04:35:35Z</time>
      </trkpt>
      <trkpt lat="49.05393" lon="-1.56405">
        <ele>40.9</ele>
        <time>2020-06-12T04:35:36Z</time>
      </trkpt>
      <trkpt lat="49.05396" lon="-1.56407">
        <ele>40.9</ele>
        <time>2020-06-12T04:35:37Z</time>
      </trkpt>
      <trkpt lat="49.05399" lon="-1.5641">
        <ele>40.9</ele>
        <time>2020-06-12T04:35:38Z</time>
      </trkpt>
      <trkpt lat="49.05402" lon="-1.56413">
        <ele>41</ele>
        <time>2020-06-12T04:35:39Z</time>
      </trkpt>
      <trkpt lat="49.05405" lon="-1.56416">
        <ele>41.1</ele>
        <time>2020-06-12T04:35:40Z</time>
      </trkpt>
      <trkpt lat="49.05408" lon="-1.56418">
        <ele>41.2</ele>
        <time>2020-06-12T04:35:41Z</time>
      </trkpt>
      <trkpt lat="49.0541" lon="-1.56421">
        <ele>41.2</ele>
        <time>2020-06-12T04:35:42Z</time>
      </trkpt>
      <trkpt lat="49.05413" lon="-1.56423">
        <ele>41.3</ele>
        <time>2020-06-12T04:35:43Z</time>
      </trkpt>
      <trkpt lat="49.05416" lon="-1.56426">
        <ele>41.3</ele>
        <time>2020-06-12T04:35:44Z</time>
      </trkpt>
      <trkpt lat="49.0542" lon="-1.56427">
        <ele>41.4</ele>
        <time>2020-06-12T04:35:45Z</time>
      </trkpt>
      <trkpt lat="49.05423" lon="-1.5643">
        <ele>41.5</ele>
        <time>2020-06-12T04:35:46Z</time>
      </trkpt>
      <trkpt lat="49.05425" lon="-1.56433">
        <ele>41.5</ele>
        <time>2020-06-12T04:35:47Z</time>
      </trkpt>
      <trkpt lat="49.05428" lon="-1.56436">
        <ele>41.6</ele>
        <time>2020-06-12T04:35:48Z</time>
      </trkpt>
      <trkpt lat="49.0543" lon="-1.56437">
        <ele>41.7</ele>
        <time>2020-06-12T04:35:49Z</time>
      </trkpt>
      <trkpt lat="49.05432" lon="-1.5644">
        <ele>41.7</ele>
        <time>2020-06-12T04:35:50Z</time>
      </trkpt>
      <trkpt lat="49.05435" lon="-1.56444">
        <ele>41.8</ele>
        <time>2020-06-12T04:35:51Z</time>
      </trkpt>
      <trkpt lat="49.05438" lon="-1.56447">
        <ele>41.9</ele>
        <time>2020-06-12T04:35:52Z</time>
      </trkpt>
      <trkpt lat="49.0544" lon="-1.56449">
        <ele>42</ele>
        <time>2020-06-12T04:35:53Z</time>
      </trkpt>
      <trkpt lat="49.05443" lon="-1.56451">
        <ele>42</ele>
        <time>2020-06-12T04:35:54Z</time>
      </trkpt>
      <trkpt lat="49.05447" lon="-1.56453">
        <ele>42.1</ele>
        <time>2020-06-12T04:35:55Z</time>
      </trkpt>
      <trkpt lat="49.05448" lon="-1.56454">
        <ele>42.2</ele>
        <time>2020-06-12T04:35:56Z</time>
      </trkpt>
      <trkpt lat="49.0545" lon="-1.56456">
        <ele>42.2</ele>
        <time>2020-06-12T04:35:57Z</time>
      </trkpt>
      <trkpt lat="49.05453" lon="-1.56459">
        <ele>42.3</ele>
        <time>2020-06-12T04:35:58Z</time>
      </trkpt>
      <trkpt lat="49.05456" lon="-1.56461">
        <ele>42.4</ele>
        <time>2020-06-12T04:35:59Z</time>
      </trkpt>
      <trkpt lat="49.05459" lon="-1.56463">
        <ele>42.5</ele>
        <time>2020-06-12T04:36:00Z</time>
      </trkpt>
      <trkpt lat="49.05463" lon="-1.56466">
        <ele>42.6</ele>
        <time>2020-06-12T04:36:01Z</time>
      </trkpt>
      <trkpt lat="49.05465" lon="-1.56469">
        <ele>42.7</ele>
        <time>2020-06-12T04:36:02Z</time>
      </trkpt>
      <trkpt lat="49.05468" lon="-1.56471">
        <ele>42.8</ele>
        <time>2020-06-12T04:36:03Z</time>
      </trkpt>
      <trkpt lat="49.05471" lon="-1.56473">
        <ele>42.8</ele>
        <time>2020-06-12T04:36:04Z</time>
      </trkpt>
      <trkpt lat="49.05474" lon="-1.56476">
        <ele>42.9</ele>
        <time>2020-06-12T04:36:05Z</time>
      </trkpt>
      <trkpt lat="49.05477" lon="-1.56478">
        <ele>43</ele>
        <time>2020-06-12T04:36:06Z</time>
      </trkpt>
      <trkpt lat="49.0548" lon="-1.5648">
        <ele>43.1</ele>
        <time>2020-06-12T04:36:07Z</time>
      </trkpt>
      <trkpt lat="49.05482" lon="-1.56482">
        <ele>43.1</ele>
        <time>2020-06-12T04:36:08Z</time>
      </trkpt>
      <trkpt lat="49.05485" lon="-1.56484">
        <ele>43.2</ele>
        <time>2020-06-12T04:36:09Z</time>
      </trkpt>
      <trkpt lat="49.05488" lon="-1.56485">
        <ele>43.3</ele>
        <time>2020-06-12T04:36:10Z</time>
      </trkpt>
      <trkpt lat="49.05491" lon="-1.56488">
        <ele>43.3</ele>
        <time>2020-06-12T04:36:11Z</time>
      </trkpt>
      <trkpt lat="49.05494" lon="-1.56491">
        <ele>43.4</ele>
        <time>2020-06-12T04:36:12Z</time>
      </trkpt>
      <trkpt lat="49.05497" lon="-1.56493">
        <ele>43.5</ele>
        <time>2020-06-12T04:36:13Z</time>
      </trkpt>
      <trkpt lat="49.055" lon="-1.56497">
        <ele>43.5</ele>
        <time>2020-06-12T04:36:14Z</time>
      </trkpt>
      <trkpt lat="49.05503" lon="-1.56498">
        <ele>43.6</ele>
        <time>2020-06-12T04:36:15Z</time>
      </trkpt>
      <trkpt lat="49.05506" lon="-1.565">
        <ele>43.6</ele>
        <time>2020-06-12T04:36:16Z</time>
      </trkpt>
      <trkpt lat="49.05509" lon="-1.56503">
        <ele>43.7</ele>
        <time>2020-06-12T04:36:17Z</time>
      </trkpt>
      <trkpt lat="49.05512" lon="-1.56506">
        <ele>43.8</ele>
        <time>2020-06-12T04:36:18Z</time>
      </trkpt>
      <trkpt lat="49.05515" lon="-1.56508">
        <ele>43.9</ele>
        <time>2020-06-12T04:36:19Z</time>
      </trkpt>
      <trkpt lat="49.05518" lon="-1.56511">
        <ele>43.9</ele>
        <time>2020-06-12T04:36:20Z</time>
      </trkpt>
      <trkpt lat="49.0552" lon="-1.56514">
        <ele>44</ele>
        <time>2020-06-12T04:36:21Z</time>
      </trkpt>
      <trkpt lat="49.05523" lon="-1.56516">
        <ele>44</ele>
        <time>2020-06-12T04:36:22Z</time>
      </trkpt>
      <trkpt lat="49.05526" lon="-1.56518">
        <ele>44.1</ele>
        <time>2020-06-12T04:36:23Z</time>
      </trkpt>
      <trkpt lat="49.05529" lon="-1.56521">
        <ele>44.2</ele>
        <time>2020-06-12T04:36:24Z</time>
      </trkpt>
      <trkpt lat="49.05532" lon="-1.56523">
        <ele>44.2</ele>
        <time>2020-06-12T04:36:25Z</time>
      </trkpt>
      <trkpt lat="49.05534" lon="-1.56525">
        <ele>44.3</ele>
        <time>2020-06-12T04:36:26Z</time>
      </trkpt>
      <trkpt lat="49.05537" lon="-1.56527">
        <ele>44.3</ele>
        <time>2020-06-12T04:36:27Z</time>
      </trkpt>
      <trkpt lat="49.0554" lon="-1.56529">
        <ele>44.4</ele>
        <time>2020-06-12T04:36:28Z</time>
      </trkpt>
      <trkpt lat="49.05543" lon="-1.56532">
        <ele>44.4</ele>
        <time>2020-06-12T04:36:29Z</time>
      </trkpt>
      <trkpt lat="49.05545" lon="-1.56535">
        <ele>44.5</ele>
        <time>2020-06-12T04:36:30Z</time>
      </trkpt>
      <trkpt lat="49.05548" lon="-1.56537">
        <ele>44.5</ele>
        <time>2020-06-12T04:36:31Z</time>
      </trkpt>
      <trkpt lat="49.05551" lon="-1.5654">
        <ele>44.6</ele>
        <time>2020-06-12T04:36:32Z</time>
      </trkpt>
      <trkpt lat="49.05553" lon="-1.56542">
        <ele>44.6</ele>
        <time>2020-06-12T04:36:33Z</time>
      </trkpt>
      <trkpt lat="49.05556" lon="-1.56544">
        <ele>44.7</ele>
        <time>2020-06-12T04:36:34Z</time>
      </trkpt>
      <trkpt lat="49.05558" lon="-1.56547">
        <ele>44.8</ele>
        <time>2020-06-12T04:36:35Z</time>
      </trkpt>
      <trkpt lat="49.05561" lon="-1.56549">
        <ele>44.8</ele>
        <time>2020-06-12T04:36:36Z</time>
      </trkpt>
      <trkpt lat="49.05564" lon="-1.56551">
        <ele>44.9</ele>
        <time>2020-06-12T04:36:37Z</time>
      </trkpt>
      <trkpt lat="49.05567" lon="-1.56553">
        <ele>45</ele>
        <time>2020-06-12T04:36:38Z</time>
      </trkpt>
      <trkpt lat="49.0557" lon="-1.56556">
        <ele>45.1</ele>
        <time>2020-06-12T04:36:39Z</time>
      </trkpt>
      <trkpt lat="49.05573" lon="-1.56559">
        <ele>45.1</ele>
        <time>2020-06-12T04:36:40Z</time>
      </trkpt>
      <trkpt lat="49.05576" lon="-1.56561">
        <ele>45.2</ele>
        <time>2020-06-12T04:36:41Z</time>
      </trkpt>
      <trkpt lat="49.05579" lon="-1.56564">
        <ele>45.2</ele>
        <time>2020-06-12T04:36:42Z</time>
      </trkpt>
      <trkpt lat="49.05583" lon="-1.56566">
        <ele>45.1</ele>
        <time>2020-06-12T04:36:43Z</time>
      </trkpt>
      <trkpt lat="49.05587" lon="-1.56569">
        <ele>45.1</ele>
        <time>2020-06-12T04:36:44Z</time>
      </trkpt>
      <trkpt lat="49.0559" lon="-1.56572">
        <ele>45.1</ele>
        <time>2020-06-12T04:36:45Z</time>
      </trkpt>
      <trkpt lat="49.05593" lon="-1.56575">
        <ele>45.1</ele>
        <time>2020-06-12T04:36:46Z</time>
      </trkpt>
      <trkpt lat="49.05596" lon="-1.56576">
        <ele>45.2</ele>
        <time>2020-06-12T04:36:47Z</time>
      </trkpt>
      <trkpt lat="49.056" lon="-1.56579">
        <ele>45.2</ele>
        <time>2020-06-12T04:36:48Z</time>
      </trkpt>
      <trkpt lat="49.05603" lon="-1.56582">
        <ele>45.2</ele>
        <time>2020-06-12T04:36:49Z</time>
      </trkpt>
      <trkpt lat="49.05606" lon="-1.56585">
        <ele>45.2</ele>
        <time>2020-06-12T04:36:50Z</time>
      </trkpt>
      <trkpt lat="49.05609" lon="-1.56588">
        <ele>45.3</ele>
        <time>2020-06-12T04:36:51Z</time>
      </trkpt>
      <trkpt lat="49.05612" lon="-1.56591">
        <ele>45.3</ele>
        <time>2020-06-12T04:36:52Z</time>
      </trkpt>
      <trkpt lat="49.05615" lon="-1.56593">
        <ele>45.3</ele>
        <time>2020-06-12T04:36:53Z</time>
      </trkpt>
      <trkpt lat="49.05619" lon="-1.56595">
        <ele>45.4</ele>
        <time>2020-06-12T04:36:54Z</time>
      </trkpt>
      <trkpt lat="49.05622" lon="-1.56597">
        <ele>45.4</ele>
        <time>2020-06-12T04:36:55Z</time>
      </trkpt>
      <trkpt lat="49.05625" lon="-1.566">
        <ele>45.4</ele>
        <time>2020-06-12T04:36:56Z</time>
      </trkpt>
      <trkpt lat="49.05629" lon="-1.56603">
        <ele>45.5</ele>
        <time>2020-06-12T04:36:57Z</time>
      </trkpt>
      <trkpt lat="49.05632" lon="-1.56606">
        <ele>45.5</ele>
        <time>2020-06-12T04:36:58Z</time>
      </trkpt>
      <trkpt lat="49.05635" lon="-1.56609">
        <ele>45.6</ele>
        <time>2020-06-12T04:36:59Z</time>
      </trkpt>
      <trkpt lat="49.05638" lon="-1.56611">
        <ele>45.6</ele>
        <time>2020-06-12T04:37:00Z</time>
      </trkpt>
      <trkpt lat="49.05641" lon="-1.56615">
        <ele>45.6</ele>
        <time>2020-06-12T04:37:01Z</time>
      </trkpt>
      <trkpt lat="49.05644" lon="-1.56617">
        <ele>45.6</ele>
        <time>2020-06-12T04:37:02Z</time>
      </trkpt>
      <trkpt lat="49.05647" lon="-1.5662">
        <ele>45.7</ele>
        <time>2020-06-12T04:37:03Z</time>
      </trkpt>
      <trkpt lat="49.0565" lon="-1.56622">
        <ele>45.7</ele>
        <time>2020-06-12T04:37:04Z</time>
      </trkpt>
      <trkpt lat="49.05654" lon="-1.56624">
        <ele>45.7</ele>
        <time>2020-06-12T04:37:05Z</time>
      </trkpt>
      <trkpt lat="49.05657" lon="-1.56627">
        <ele>45.7</ele>
        <time>2020-06-12T04:37:06Z</time>
      </trkpt>
      <trkpt lat="49.0566" lon="-1.5663">
        <ele>45.7</ele>
        <time>2020-06-12T04:37:07Z</time>
      </trkpt>
      <trkpt lat="49.05664" lon="-1.56633">
        <ele>45.8</ele>
        <time>2020-06-12T04:37:08Z</time>
      </trkpt>
      <trkpt lat="49.05667" lon="-1.56635">
        <ele>45.8</ele>
        <time>2020-06-12T04:37:09Z</time>
      </trkpt>
      <trkpt lat="49.05671" lon="-1.56638">
        <ele>45.8</ele>
        <time>2020-06-12T04:37:10Z</time>
      </trkpt>
      <trkpt lat="49.05674" lon="-1.56641">
        <ele>45.8</ele>
        <time>2020-06-12T04:37:11Z</time>
      </trkpt>
      <trkpt lat="49.05677" lon="-1.56644">
        <ele>45.9</ele>
        <time>2020-06-12T04:37:12Z</time>
      </trkpt>
      <trkpt lat="49.05681" lon="-1.56647">
        <ele>45.9</ele>
        <time>2020-06-12T04:37:13Z</time>
      </trkpt>
      <trkpt lat="49.05684" lon="-1.5665">
        <ele>45.9</ele>
        <time>2020-06-12T04:37:14Z</time>
      </trkpt>
      <trkpt lat="49.05688" lon="-1.56653">
        <ele>46</ele>
        <time>2020-06-12T04:37:15Z</time>
      </trkpt>
      <trkpt lat="49.05691" lon="-1.56656">
        <ele>46</ele>
        <time>2020-06-12T04:37:16Z</time>
      </trkpt>
      <trkpt lat="49.05695" lon="-1.56659">
        <ele>46</ele>
        <time>2020-06-12T04:37:17Z</time>
      </trkpt>
      <trkpt lat="49.05698" lon="-1.56663">
        <ele>46.1</ele>
        <time>2020-06-12T04:37:18Z</time>
      </trkpt>
      <trkpt lat="49.05702" lon="-1.56666">
        <ele>46.1</ele>
        <time>2020-06-12T04:37:19Z</time>
      </trkpt>
      <trkpt lat="49.05705" lon="-1.56669">
        <ele>46.1</ele>
        <time>2020-06-12T04:37:20Z</time>
      </trkpt>
      <trkpt lat="49.05709" lon="-1.56672">
        <ele>46.2</ele>
        <time>2020-06-12T04:37:21Z</time>
      </trkpt>
      <trkpt lat="49.05713" lon="-1.56674">
        <ele>46.2</ele>
        <time>2020-06-12T04:37:22Z</time>
      </trkpt>
      <trkpt lat="49.05716" lon="-1.56677">
        <ele>46.2</ele>
        <time>2020-06-12T04:37:23Z</time>
      </trkpt>
      <trkpt lat="49.0572" lon="-1.56679">
        <ele>46.3</ele>
        <time>2020-06-12T04:37:24Z</time>
      </trkpt>
      <trkpt lat="49.05723" lon="-1.56683">
        <ele>46.3</ele>
        <time>2020-06-12T04:37:25Z</time>
      </trkpt>
      <trkpt lat="49.05727" lon="-1.56685">
        <ele>46.3</ele>
        <time>2020-06-12T04:37:26Z</time>
      </trkpt>
      <trkpt lat="49.0573" lon="-1.56687">
        <ele>46.4</ele>
        <time>2020-06-12T04:37:27Z</time>
      </trkpt>
      <trkpt lat="49.05733" lon="-1.5669">
        <ele>46.4</ele>
        <time>2020-06-12T04:37:28Z</time>
      </trkpt>
      <trkpt lat="49.05737" lon="-1.56693">
        <ele>46.4</ele>
        <time>2020-06-12T04:37:29Z</time>
      </trkpt>
      <trkpt lat="49.0574" lon="-1.56696">
        <ele>46.4</ele>
        <time>2020-06-12T04:37:30Z</time>
      </trkpt>
      <trkpt lat="49.05743" lon="-1.56699">
        <ele>46.4</ele>
        <time>2020-06-12T04:37:31Z</time>
      </trkpt>
      <trkpt lat="49.05746" lon="-1.56702">
        <ele>46.4</ele>
        <time>2020-06-12T04:37:32Z</time>
      </trkpt>
      <trkpt lat="49.05749" lon="-1.56705">
        <ele>46.4</ele>
        <time>2020-06-12T04:37:33Z</time>
      </trkpt>
      <trkpt lat="49.05753" lon="-1.56707">
        <ele>46.5</ele>
        <time>2020-06-12T04:37:34Z</time>
      </trkpt>
      <trkpt lat="49.05756" lon="-1.5671">
        <ele>46.5</ele>
        <time>2020-06-12T04:37:35Z</time>
      </trkpt>
      <trkpt lat="49.05759" lon="-1.56713">
        <ele>46.5</ele>
        <time>2020-06-12T04:37:36Z</time>
      </trkpt>
      <trkpt lat="49.05762" lon="-1.56716">
        <ele>46.5</ele>
        <time>2020-06-12T04:37:37Z</time>
      </trkpt>
      <trkpt lat="49.05765" lon="-1.56718">
        <ele>46.6</ele>
        <time>2020-06-12T04:37:38Z</time>
      </trkpt>
      <trkpt lat="49.05769" lon="-1.5672">
        <ele>46.6</ele>
        <time>2020-06-12T04:37:39Z</time>
      </trkpt>
      <trkpt lat="49.05772" lon="-1.56723">
        <ele>46.6</ele>
        <time>2020-06-12T04:37:40Z</time>
      </trkpt>
      <trkpt lat="49.05776" lon="-1.56726">
        <ele>46.7</ele>
        <time>2020-06-12T04:37:41Z</time>
      </trkpt>
      <trkpt lat="49.05779" lon="-1.5673">
        <ele>46.7</ele>
        <time>2020-06-12T04:37:42Z</time>
      </trkpt>
      <trkpt lat="49.05783" lon="-1.56733">
        <ele>46.7</ele>
        <time>2020-06-12T04:37:43Z</time>
      </trkpt>
      <trkpt lat="49.05786" lon="-1.56735">
        <ele>46.7</ele>
        <time>2020-06-12T04:37:44Z</time>
      </trkpt>
      <trkpt lat="49.0579" lon="-1.56738">
        <ele>46.8</ele>
        <time>2020-06-12T04:37:45Z</time>
      </trkpt>
      <trkpt lat="49.05793" lon="-1.5674">
        <ele>46.8</ele>
        <time>2020-06-12T04:37:46Z</time>
      </trkpt>
      <trkpt lat="49.05797" lon="-1.56743">
        <ele>46.8</ele>
        <time>2020-06-12T04:37:47Z</time>
      </trkpt>
      <trkpt lat="49.058" lon="-1.56745">
        <ele>46.8</ele>
        <time>2020-06-12T04:37:48Z</time>
      </trkpt>
      <trkpt lat="49.05803" lon="-1.56748">
        <ele>46.8</ele>
        <time>2020-06-12T04:37:49Z</time>
      </trkpt>
      <trkpt lat="49.05806" lon="-1.56751">
        <ele>46.9</ele>
        <time>2020-06-12T04:37:50Z</time>
      </trkpt>
      <trkpt lat="49.05809" lon="-1.56754">
        <ele>46.9</ele>
        <time>2020-06-12T04:37:51Z</time>
      </trkpt>
      <trkpt lat="49.05813" lon="-1.56757">
        <ele>46.9</ele>
        <time>2020-06-12T04:37:52Z</time>
      </trkpt>
      <trkpt lat="49.05816" lon="-1.56761">
        <ele>46.9</ele>
        <time>2020-06-12T04:37:53Z</time>
      </trkpt>
      <trkpt lat="49.05819" lon="-1.56764">
        <ele>47</ele>
        <time>2020-06-12T04:37:54Z</time>
      </trkpt>
      <trkpt lat="49.05822" lon="-1.56767">
        <ele>47</ele>
        <time>2020-06-12T04:37:55Z</time>
      </trkpt>
      <trkpt lat="49.05825" lon="-1.5677">
        <ele>47</ele>
        <time>2020-06-12T04:37:56Z</time>
      </trkpt>
      <trkpt lat="49.05827" lon="-1.56772">
        <ele>47</ele>
        <time>2020-06-12T04:37:57Z</time>
      </trkpt>
      <trkpt lat="49.05831" lon="-1.56774">
        <ele>47</ele>
        <time>2020-06-12T04:37:58Z</time>
      </trkpt>
      <trkpt lat="49.05834" lon="-1.56776">
        <ele>47</ele>
        <time>2020-06-12T04:37:59Z</time>
      </trkpt>
      <trkpt lat="49.05836" lon="-1.56779">
        <ele>47.1</ele>
        <time>2020-06-12T04:38:00Z</time>
      </trkpt>
      <trkpt lat="49.05839" lon="-1.5678">
        <ele>47.1</ele>
        <time>2020-06-12T04:38:01Z</time>
      </trkpt>
      <trkpt lat="49.05842" lon="-1.56782">
        <ele>47.1</ele>
        <time>2020-06-12T04:38:02Z</time>
      </trkpt>
      <trkpt lat="49.05844" lon="-1.56785">
        <ele>47.1</ele>
        <time>2020-06-12T04:38:03Z</time>
      </trkpt>
      <trkpt lat="49.05847" lon="-1.56789">
        <ele>47</ele>
        <time>2020-06-12T04:38:04Z</time>
      </trkpt>
      <trkpt lat="49.05849" lon="-1.5679">
        <ele>47</ele>
        <time>2020-06-12T04:38:05Z</time>
      </trkpt>
      <trkpt lat="49.05851" lon="-1.56792">
        <ele>47</ele>
        <time>2020-06-12T04:38:06Z</time>
      </trkpt>
      <trkpt lat="49.05855" lon="-1.56794">
        <ele>46.9</ele>
        <time>2020-06-12T04:38:07Z</time>
      </trkpt>
      <trkpt lat="49.05856" lon="-1.56794">
        <ele>46.9</ele>
        <time>2020-06-12T04:38:08Z</time>
      </trkpt>
      <trkpt lat="49.05859" lon="-1.56796">
        <ele>46.8</ele>
        <time>2020-06-12T04:38:09Z</time>
      </trkpt>
      <trkpt lat="49.0586" lon="-1.56797">
        <ele>46.8</ele>
        <time>2020-06-12T04:38:10Z</time>
      </trkpt>
      <trkpt lat="49.05861" lon="-1.56797">
        <ele>46.8</ele>
        <time>2020-06-12T04:38:11Z</time>
      </trkpt>
      <trkpt lat="49.05862" lon="-1.56797">
        <ele>46.8</ele>
        <time>2020-06-12T04:38:12Z</time>
      </trkpt>
      <trkpt lat="49.05863" lon="-1.56797">
        <ele>46.7</ele>
        <time>2020-06-12T04:38:13Z</time>
      </trkpt>
      <trkpt lat="49.05865" lon="-1.56798">
        <ele>46.7</ele>
        <time>2020-06-12T04:38:14Z</time>
      </trkpt>
      <trkpt lat="49.05866" lon="-1.56799">
        <ele>46.7</ele>
        <time>2020-06-12T04:38:15Z</time>
      </trkpt>
      <trkpt lat="49.05867" lon="-1.568">
        <ele>46.7</ele>
        <time>2020-06-12T04:38:16Z</time>
      </trkpt>
      <trkpt lat="49.05869" lon="-1.56801">
        <ele>46.6</ele>
        <time>2020-06-12T04:38:17Z</time>
      </trkpt>
      <trkpt lat="49.0587" lon="-1.56802">
        <ele>46.6</ele>
        <time>2020-06-12T04:38:18Z</time>
      </trkpt>
      <trkpt lat="49.05871" lon="-1.56803">
        <ele>46.6</ele>
        <time>2020-06-12T04:38:19Z</time>
      </trkpt>
      <trkpt lat="49.05873" lon="-1.56804">
        <ele>46.6</ele>
        <time>2020-06-12T04:38:20Z</time>
      </trkpt>
      <trkpt lat="49.05874" lon="-1.56805">
        <ele>46.6</ele>
        <time>2020-06-12T04:38:21Z</time>
      </trkpt>
      <trkpt lat="49.05875" lon="-1.56806">
        <ele>46.5</ele>
        <time>2020-06-12T04:40:37Z</time>
      </trkpt>
      <trkpt lat="49.05877" lon="-1.56807">
        <ele>46.5</ele>
        <time>2020-06-12T04:40:38Z</time>
      </trkpt>
      <trkpt lat="49.05879" lon="-1.5681">
        <ele>46.5</ele>
        <time>2020-06-12T04:40:39Z</time>
      </trkpt>
      <trkpt lat="49.05882" lon="-1.56812">
        <ele>46.4</ele>
        <time>2020-06-12T04:40:40Z</time>
      </trkpt>
      <trkpt lat="49.05886" lon="-1.56814">
        <ele>46.4</ele>
        <time>2020-06-12T04:40:41Z</time>
      </trkpt>
      <trkpt lat="49.05889" lon="-1.56815">
        <ele>46.4</ele>
        <time>2020-06-12T04:40:42Z</time>
      </trkpt>
      <trkpt lat="49.05892" lon="-1.56818">
        <ele>46.4</ele>
        <time>2020-06-12T04:40:43Z</time>
      </trkpt>
      <trkpt lat="49.05896" lon="-1.56821">
        <ele>46.4</ele>
        <time>2020-06-12T04:40:44Z</time>
      </trkpt>
      <trkpt lat="49.059" lon="-1.56823">
        <ele>46.4</ele>
        <time>2020-06-12T04:40:45Z</time>
      </trkpt>
      <trkpt lat="49.05903" lon="-1.56827">
        <ele>46.4</ele>
        <time>2020-06-12T04:40:46Z</time>
      </trkpt>
      <trkpt lat="49.05908" lon="-1.5683">
        <ele>46.4</ele>
        <time>2020-06-12T04:40:47Z</time>
      </trkpt>
      <trkpt lat="49.05911" lon="-1.56834">
        <ele>46.4</ele>
        <time>2020-06-12T04:40:48Z</time>
      </trkpt>
      <trkpt lat="49.05915" lon="-1.56839">
        <ele>46.4</ele>
        <time>2020-06-12T04:40:49Z</time>
      </trkpt>
      <trkpt lat="49.05919" lon="-1.56844">
        <ele>46.4</ele>
        <time>2020-06-12T04:40:50Z</time>
      </trkpt>
      <trkpt lat="49.05923" lon="-1.56848">
        <ele>46.4</ele>
        <time>2020-06-12T04:40:51Z</time>
      </trkpt>
      <trkpt lat="49.05927" lon="-1.56853">
        <ele>46.4</ele>
        <time>2020-06-12T04:40:52Z</time>
      </trkpt>
      <trkpt lat="49.05931" lon="-1.56855">
        <ele>46.4</ele>
        <time>2020-06-12T04:40:53Z</time>
      </trkpt>
      <trkpt lat="49.05935" lon="-1.56858">
        <ele>46.4</ele>
        <time>2020-06-12T04:40:54Z</time>
      </trkpt>
      <trkpt lat="49.05939" lon="-1.56862">
        <ele>46.3</ele>
        <time>2020-06-12T04:40:55Z</time>
      </trkpt>
      <trkpt lat="49.05943" lon="-1.56865">
        <ele>46.3</ele>
        <time>2020-06-12T04:40:56Z</time>
      </trkpt>
      <trkpt lat="49.05947" lon="-1.56869">
        <ele>46.3</ele>
        <time>2020-06-12T04:40:57Z</time>
      </trkpt>
      <trkpt lat="49.0595" lon="-1.56872">
        <ele>46.3</ele>
        <time>2020-06-12T04:40:58Z</time>
      </trkpt>
      <trkpt lat="49.05955" lon="-1.56876">
        <ele>46.3</ele>
        <time>2020-06-12T04:40:59Z</time>
      </trkpt>
      <trkpt lat="49.05959" lon="-1.56879">
        <ele>46.2</ele>
        <time>2020-06-12T04:41:00Z</time>
      </trkpt>
      <trkpt lat="49.05963" lon="-1.56883">
        <ele>46.2</ele>
        <time>2020-06-12T04:41:01Z</time>
      </trkpt>
      <trkpt lat="49.05967" lon="-1.56887">
        <ele>46.2</ele>
        <time>2020-06-12T04:41:02Z</time>
      </trkpt>
      <trkpt lat="49.05971" lon="-1.5689">
        <ele>46.2</ele>
        <time>2020-06-12T04:41:03Z</time>
      </trkpt>
      <trkpt lat="49.05976" lon="-1.56893">
        <ele>46.1</ele>
        <time>2020-06-12T04:41:04Z</time>
      </trkpt>
      <trkpt lat="49.05981" lon="-1.56899">
        <ele>46.1</ele>
        <time>2020-06-12T04:41:05Z</time>
      </trkpt>
      <trkpt lat="49.05985" lon="-1.56902">
        <ele>46.1</ele>
        <time>2020-06-12T04:41:06Z</time>
      </trkpt>
      <trkpt lat="49.05988" lon="-1.56905">
        <ele>46.1</ele>
        <time>2020-06-12T04:41:07Z</time>
      </trkpt>
      <trkpt lat="49.05993" lon="-1.56908">
        <ele>46.1</ele>
        <time>2020-06-12T04:41:08Z</time>
      </trkpt>
      <trkpt lat="49.05997" lon="-1.56911">
        <ele>46.1</ele>
        <time>2020-06-12T04:41:09Z</time>
      </trkpt>
      <trkpt lat="49.06002" lon="-1.56915">
        <ele>46</ele>
        <time>2020-06-12T04:41:10Z</time>
      </trkpt>
      <trkpt lat="49.06007" lon="-1.56918">
        <ele>46</ele>
        <time>2020-06-12T04:41:11Z</time>
      </trkpt>
      <trkpt lat="49.06012" lon="-1.56923">
        <ele>45.9</ele>
        <time>2020-06-12T04:41:12Z</time>
      </trkpt>
      <trkpt lat="49.06017" lon="-1.56927">
        <ele>45.9</ele>
        <time>2020-06-12T04:41:13Z</time>
      </trkpt>
      <trkpt lat="49.06022" lon="-1.56931">
        <ele>45.8</ele>
        <time>2020-06-12T04:41:14Z</time>
      </trkpt>
      <trkpt lat="49.06028" lon="-1.56935">
        <ele>45.8</ele>
        <time>2020-06-12T04:41:15Z</time>
      </trkpt>
      <trkpt lat="49.06032" lon="-1.5694">
        <ele>45.8</ele>
        <time>2020-06-12T04:41:16Z</time>
      </trkpt>
      <trkpt lat="49.06037" lon="-1.56944">
        <ele>45.8</ele>
        <time>2020-06-12T04:41:17Z</time>
      </trkpt>
      <trkpt lat="49.06042" lon="-1.56948">
        <ele>45.8</ele>
        <time>2020-06-12T04:41:18Z</time>
      </trkpt>
      <trkpt lat="49.06047" lon="-1.56952">
        <ele>45.8</ele>
        <time>2020-06-12T04:41:19Z</time>
      </trkpt>
      <trkpt lat="49.06052" lon="-1.56957">
        <ele>45.8</ele>
        <time>2020-06-12T04:41:20Z</time>
      </trkpt>
      <trkpt lat="49.06057" lon="-1.56962">
        <ele>45.8</ele>
        <time>2020-06-12T04:41:21Z</time>
      </trkpt>
      <trkpt lat="49.06062" lon="-1.56966">
        <ele>45.9</ele>
        <time>2020-06-12T04:41:22Z</time>
      </trkpt>
      <trkpt lat="49.06068" lon="-1.56969">
        <ele>45.9</ele>
        <time>2020-06-12T04:41:23Z</time>
      </trkpt>
      <trkpt lat="49.06072" lon="-1.56974">
        <ele>46</ele>
        <time>2020-06-12T04:41:24Z</time>
      </trkpt>
      <trkpt lat="49.06077" lon="-1.56979">
        <ele>46.1</ele>
        <time>2020-06-12T04:41:25Z</time>
      </trkpt>
      <trkpt lat="49.06083" lon="-1.56984">
        <ele>45.9</ele>
        <time>2020-06-12T04:41:26Z</time>
      </trkpt>
      <trkpt lat="49.06088" lon="-1.56989">
        <ele>45.8</ele>
        <time>2020-06-12T04:41:27Z</time>
      </trkpt>
      <trkpt lat="49.06093" lon="-1.56993">
        <ele>45.7</ele>
        <time>2020-06-12T04:41:28Z</time>
      </trkpt>
      <trkpt lat="49.06098" lon="-1.56998">
        <ele>45.6</ele>
        <time>2020-06-12T04:41:29Z</time>
      </trkpt>
      <trkpt lat="49.06103" lon="-1.57001">
        <ele>45.6</ele>
        <time>2020-06-12T04:41:30Z</time>
      </trkpt>
      <trkpt lat="49.06108" lon="-1.57005">
        <ele>45.5</ele>
        <time>2020-06-12T04:41:31Z</time>
      </trkpt>
      <trkpt lat="49.06113" lon="-1.57011">
        <ele>45.4</ele>
        <time>2020-06-12T04:41:32Z</time>
      </trkpt>
      <trkpt lat="49.06118" lon="-1.57015">
        <ele>45.4</ele>
        <time>2020-06-12T04:41:33Z</time>
      </trkpt>
      <trkpt lat="49.06123" lon="-1.57018">
        <ele>45.3</ele>
        <time>2020-06-12T04:41:34Z</time>
      </trkpt>
      <trkpt lat="49.06128" lon="-1.57021">
        <ele>45.3</ele>
        <time>2020-06-12T04:41:35Z</time>
      </trkpt>
      <trkpt lat="49.06133" lon="-1.57024">
        <ele>45.2</ele>
        <time>2020-06-12T04:41:36Z</time>
      </trkpt>
      <trkpt lat="49.06138" lon="-1.5703">
        <ele>45.2</ele>
        <time>2020-06-12T04:41:37Z</time>
      </trkpt>
      <trkpt lat="49.06143" lon="-1.57034">
        <ele>45.1</ele>
        <time>2020-06-12T04:41:38Z</time>
      </trkpt>
      <trkpt lat="49.06149" lon="-1.57039">
        <ele>45</ele>
        <time>2020-06-12T04:41:39Z</time>
      </trkpt>
      <trkpt lat="49.06155" lon="-1.57044">
        <ele>44.9</ele>
        <time>2020-06-12T04:41:40Z</time>
      </trkpt>
      <trkpt lat="49.0616" lon="-1.57049">
        <ele>44.8</ele>
        <time>2020-06-12T04:41:41Z</time>
      </trkpt>
      <trkpt lat="49.06166" lon="-1.57053">
        <ele>44.7</ele>
        <time>2020-06-12T04:41:42Z</time>
      </trkpt>
      <trkpt lat="49.06172" lon="-1.57057">
        <ele>44.6</ele>
        <time>2020-06-12T04:41:43Z</time>
      </trkpt>
      <trkpt lat="49.06179" lon="-1.57063">
        <ele>44.6</ele>
        <time>2020-06-12T04:41:44Z</time>
      </trkpt>
      <trkpt lat="49.06184" lon="-1.57068">
        <ele>44.6</ele>
        <time>2020-06-12T04:41:45Z</time>
      </trkpt>
      <trkpt lat="49.0619" lon="-1.57072">
        <ele>44.5</ele>
        <time>2020-06-12T04:41:46Z</time>
      </trkpt>
      <trkpt lat="49.06195" lon="-1.57077">
        <ele>44.5</ele>
        <time>2020-06-12T04:41:47Z</time>
      </trkpt>
      <trkpt lat="49.06202" lon="-1.57081">
        <ele>44.4</ele>
        <time>2020-06-12T04:41:48Z</time>
      </trkpt>
      <trkpt lat="49.06208" lon="-1.57086">
        <ele>44.2</ele>
        <time>2020-06-12T04:41:49Z</time>
      </trkpt>
      <trkpt lat="49.06214" lon="-1.57092">
        <ele>44.1</ele>
        <time>2020-06-12T04:41:50Z</time>
      </trkpt>
      <trkpt lat="49.0622" lon="-1.57096">
        <ele>44</ele>
        <time>2020-06-12T04:41:51Z</time>
      </trkpt>
      <trkpt lat="49.06226" lon="-1.57101">
        <ele>44</ele>
        <time>2020-06-12T04:41:52Z</time>
      </trkpt>
      <trkpt lat="49.06231" lon="-1.57106">
        <ele>44</ele>
        <time>2020-06-12T04:41:53Z</time>
      </trkpt>
      <trkpt lat="49.06236" lon="-1.5711">
        <ele>43.9</ele>
        <time>2020-06-12T04:41:54Z</time>
      </trkpt>
      <trkpt lat="49.06241" lon="-1.57115">
        <ele>43.9</ele>
        <time>2020-06-12T04:41:55Z</time>
      </trkpt>
      <trkpt lat="49.06246" lon="-1.5712">
        <ele>43.8</ele>
        <time>2020-06-12T04:41:56Z</time>
      </trkpt>
      <trkpt lat="49.0625" lon="-1.57123">
        <ele>43.8</ele>
        <time>2020-06-12T04:41:57Z</time>
      </trkpt>
      <trkpt lat="49.06254" lon="-1.57127">
        <ele>43.7</ele>
        <time>2020-06-12T04:41:58Z</time>
      </trkpt>
      <trkpt lat="49.06259" lon="-1.57131">
        <ele>43.7</ele>
        <time>2020-06-12T04:41:59Z</time>
      </trkpt>
      <trkpt lat="49.06264" lon="-1.57134">
        <ele>43.6</ele>
        <time>2020-06-12T04:42:00Z</time>
      </trkpt>
      <trkpt lat="49.06269" lon="-1.57139">
        <ele>43.5</ele>
        <time>2020-06-12T04:42:01Z</time>
      </trkpt>
      <trkpt lat="49.06274" lon="-1.57143">
        <ele>43.5</ele>
        <time>2020-06-12T04:42:02Z</time>
      </trkpt>
      <trkpt lat="49.06279" lon="-1.57147">
        <ele>43.4</ele>
        <time>2020-06-12T04:42:03Z</time>
      </trkpt>
      <trkpt lat="49.06285" lon="-1.57152">
        <ele>43.4</ele>
        <time>2020-06-12T04:42:04Z</time>
      </trkpt>
      <trkpt lat="49.06292" lon="-1.57157">
        <ele>43.2</ele>
        <time>2020-06-12T04:42:05Z</time>
      </trkpt>
      <trkpt lat="49.06298" lon="-1.57162">
        <ele>43.1</ele>
        <time>2020-06-12T04:42:06Z</time>
      </trkpt>
      <trkpt lat="49.06304" lon="-1.57167">
        <ele>43</ele>
        <time>2020-06-12T04:42:07Z</time>
      </trkpt>
      <trkpt lat="49.06309" lon="-1.57172">
        <ele>42.9</ele>
        <time>2020-06-12T04:42:08Z</time>
      </trkpt>
      <trkpt lat="49.06315" lon="-1.57176">
        <ele>42.9</ele>
        <time>2020-06-12T04:42:09Z</time>
      </trkpt>
      <trkpt lat="49.06321" lon="-1.5718">
        <ele>42.8</ele>
        <time>2020-06-12T04:42:10Z</time>
      </trkpt>
      <trkpt lat="49.06328" lon="-1.57186">
        <ele>42.8</ele>
        <time>2020-06-12T04:42:11Z</time>
      </trkpt>
      <trkpt lat="49.06334" lon="-1.57191">
        <ele>42.7</ele>
        <time>2020-06-12T04:42:12Z</time>
      </trkpt>
      <trkpt lat="49.06339" lon="-1.57195">
        <ele>42.7</ele>
        <time>2020-06-12T04:42:13Z</time>
      </trkpt>
      <trkpt lat="49.06344" lon="-1.572">
        <ele>42.6</ele>
        <time>2020-06-12T04:42:14Z</time>
      </trkpt>
      <trkpt lat="49.0635" lon="-1.57203">
        <ele>42.5</ele>
        <time>2020-06-12T04:42:15Z</time>
      </trkpt>
      <trkpt lat="49.06355" lon="-1.57207">
        <ele>42.5</ele>
        <time>2020-06-12T04:42:16Z</time>
      </trkpt>
      <trkpt lat="49.0636" lon="-1.57212">
        <ele>42.4</ele>
        <time>2020-06-12T04:42:17Z</time>
      </trkpt>
      <trkpt lat="49.06365" lon="-1.57216">
        <ele>42.3</ele>
        <time>2020-06-12T04:42:18Z</time>
      </trkpt>
      <trkpt lat="49.06371" lon="-1.57221">
        <ele>42.2</ele>
        <time>2020-06-12T04:42:19Z</time>
      </trkpt>
      <trkpt lat="49.06375" lon="-1.57226">
        <ele>42.1</ele>
        <time>2020-06-12T04:42:20Z</time>
      </trkpt>
      <trkpt lat="49.06381" lon="-1.57229">
        <ele>42.1</ele>
        <time>2020-06-12T04:42:21Z</time>
      </trkpt>
      <trkpt lat="49.06387" lon="-1.57233">
        <ele>42</ele>
        <time>2020-06-12T04:42:22Z</time>
      </trkpt>
      <trkpt lat="49.06392" lon="-1.57238">
        <ele>42</ele>
        <time>2020-06-12T04:42:23Z</time>
      </trkpt>
      <trkpt lat="49.06396" lon="-1.57242">
        <ele>41.9</ele>
        <time>2020-06-12T04:42:24Z</time>
      </trkpt>
      <trkpt lat="49.06402" lon="-1.57246">
        <ele>41.9</ele>
        <time>2020-06-12T04:42:25Z</time>
      </trkpt>
      <trkpt lat="49.06407" lon="-1.5725">
        <ele>41.9</ele>
        <time>2020-06-12T04:42:26Z</time>
      </trkpt>
      <trkpt lat="49.06412" lon="-1.57255">
        <ele>41.9</ele>
        <time>2020-06-12T04:42:27Z</time>
      </trkpt>
      <trkpt lat="49.06417" lon="-1.5726">
        <ele>41.8</ele>
        <time>2020-06-12T04:42:28Z</time>
      </trkpt>
      <trkpt lat="49.06422" lon="-1.57264">
        <ele>41.8</ele>
        <time>2020-06-12T04:42:29Z</time>
      </trkpt>
      <trkpt lat="49.06427" lon="-1.57268">
        <ele>41.7</ele>
        <time>2020-06-12T04:42:30Z</time>
      </trkpt>
      <trkpt lat="49.06432" lon="-1.57272">
        <ele>41.7</ele>
        <time>2020-06-12T04:42:31Z</time>
      </trkpt>
      <trkpt lat="49.06439" lon="-1.57277">
        <ele>41.6</ele>
        <time>2020-06-12T04:42:32Z</time>
      </trkpt>
      <trkpt lat="49.06443" lon="-1.57282">
        <ele>41.5</ele>
        <time>2020-06-12T04:42:33Z</time>
      </trkpt>
      <trkpt lat="49.06449" lon="-1.57287">
        <ele>41.5</ele>
        <time>2020-06-12T04:42:34Z</time>
      </trkpt>
      <trkpt lat="49.06453" lon="-1.57292">
        <ele>41.4</ele>
        <time>2020-06-12T04:42:35Z</time>
      </trkpt>
      <trkpt lat="49.06457" lon="-1.57296">
        <ele>41.3</ele>
        <time>2020-06-12T04:42:36Z</time>
      </trkpt>
      <trkpt lat="49.06463" lon="-1.573">
        <ele>41.3</ele>
        <time>2020-06-12T04:42:37Z</time>
      </trkpt>
      <trkpt lat="49.06468" lon="-1.57305">
        <ele>41.2</ele>
        <time>2020-06-12T04:42:38Z</time>
      </trkpt>
      <trkpt lat="49.06474" lon="-1.5731">
        <ele>41.2</ele>
        <time>2020-06-12T04:42:39Z</time>
      </trkpt>
      <trkpt lat="49.0648" lon="-1.57313">
        <ele>41.3</ele>
        <time>2020-06-12T04:42:40Z</time>
      </trkpt>
      <trkpt lat="49.06486" lon="-1.57318">
        <ele>41.3</ele>
        <time>2020-06-12T04:42:41Z</time>
      </trkpt>
      <trkpt lat="49.0649" lon="-1.57323">
        <ele>41.3</ele>
        <time>2020-06-12T04:42:42Z</time>
      </trkpt>
      <trkpt lat="49.06496" lon="-1.57326">
        <ele>41.1</ele>
        <time>2020-06-12T04:42:43Z</time>
      </trkpt>
      <trkpt lat="49.065" lon="-1.57331">
        <ele>40.9</ele>
        <time>2020-06-12T04:42:44Z</time>
      </trkpt>
      <trkpt lat="49.06506" lon="-1.57334">
        <ele>40.8</ele>
        <time>2020-06-12T04:42:45Z</time>
      </trkpt>
      <trkpt lat="49.06511" lon="-1.57339">
        <ele>40.7</ele>
        <time>2020-06-12T04:42:46Z</time>
      </trkpt>
      <trkpt lat="49.06515" lon="-1.57343">
        <ele>40.6</ele>
        <time>2020-06-12T04:42:47Z</time>
      </trkpt>
      <trkpt lat="49.0652" lon="-1.57347">
        <ele>40.5</ele>
        <time>2020-06-12T04:42:48Z</time>
      </trkpt>
      <trkpt lat="49.06525" lon="-1.57351">
        <ele>40.4</ele>
        <time>2020-06-12T04:42:49Z</time>
      </trkpt>
      <trkpt lat="49.06531" lon="-1.57355">
        <ele>40.3</ele>
        <time>2020-06-12T04:42:50Z</time>
      </trkpt>
      <trkpt lat="49.06537" lon="-1.57359">
        <ele>40.2</ele>
        <time>2020-06-12T04:42:51Z</time>
      </trkpt>
      <trkpt lat="49.06543" lon="-1.57364">
        <ele>40.1</ele>
        <time>2020-06-12T04:42:52Z</time>
      </trkpt>
      <trkpt lat="49.06548" lon="-1.57368">
        <ele>40</ele>
        <time>2020-06-12T04:42:53Z</time>
      </trkpt>
      <trkpt lat="49.06553" lon="-1.57372">
        <ele>39.9</ele>
        <time>2020-06-12T04:42:54Z</time>
      </trkpt>
      <trkpt lat="49.06557" lon="-1.57376">
        <ele>39.8</ele>
        <time>2020-06-12T04:42:55Z</time>
      </trkpt>
      <trkpt lat="49.06562" lon="-1.5738">
        <ele>39.7</ele>
        <time>2020-06-12T04:42:56Z</time>
      </trkpt>
      <trkpt lat="49.06567" lon="-1.57384">
        <ele>39.6</ele>
        <time>2020-06-12T04:42:57Z</time>
      </trkpt>
      <trkpt lat="49.06572" lon="-1.57388">
        <ele>39.5</ele>
        <time>2020-06-12T04:42:58Z</time>
      </trkpt>
      <trkpt lat="49.06577" lon="-1.57393">
        <ele>39.3</ele>
        <time>2020-06-12T04:42:59Z</time>
      </trkpt>
      <trkpt lat="49.06582" lon="-1.57398">
        <ele>39.2</ele>
        <time>2020-06-12T04:43:00Z</time>
      </trkpt>
      <trkpt lat="49.06587" lon="-1.57404">
        <ele>39.1</ele>
        <time>2020-06-12T04:43:01Z</time>
      </trkpt>
      <trkpt lat="49.06593" lon="-1.57408">
        <ele>39</ele>
        <time>2020-06-12T04:43:02Z</time>
      </trkpt>
      <trkpt lat="49.06598" lon="-1.57413">
        <ele>38.9</ele>
        <time>2020-06-12T04:43:03Z</time>
      </trkpt>
      <trkpt lat="49.06603" lon="-1.57417">
        <ele>38.8</ele>
        <time>2020-06-12T04:43:04Z</time>
      </trkpt>
      <trkpt lat="49.06608" lon="-1.57421">
        <ele>38.7</ele>
        <time>2020-06-12T04:43:05Z</time>
      </trkpt>
      <trkpt lat="49.06613" lon="-1.57426">
        <ele>38.5</ele>
        <time>2020-06-12T04:43:06Z</time>
      </trkpt>
      <trkpt lat="49.06618" lon="-1.5743">
        <ele>38.4</ele>
        <time>2020-06-12T04:43:07Z</time>
      </trkpt>
      <trkpt lat="49.06623" lon="-1.57433">
        <ele>38.3</ele>
        <time>2020-06-12T04:43:08Z</time>
      </trkpt>
      <trkpt lat="49.06628" lon="-1.57437">
        <ele>38.2</ele>
        <time>2020-06-12T04:43:09Z</time>
      </trkpt>
      <trkpt lat="49.06633" lon="-1.57442">
        <ele>38.1</ele>
        <time>2020-06-12T04:43:10Z</time>
      </trkpt>
      <trkpt lat="49.06638" lon="-1.57447">
        <ele>38</ele>
        <time>2020-06-12T04:43:11Z</time>
      </trkpt>
      <trkpt lat="49.06642" lon="-1.57451">
        <ele>37.9</ele>
        <time>2020-06-12T04:43:12Z</time>
      </trkpt>
      <trkpt lat="49.06648" lon="-1.57455">
        <ele>37.8</ele>
        <time>2020-06-12T04:43:13Z</time>
      </trkpt>
      <trkpt lat="49.06654" lon="-1.57459">
        <ele>37.7</ele>
        <time>2020-06-12T04:43:14Z</time>
      </trkpt>
      <trkpt lat="49.06661" lon="-1.57463">
        <ele>37.5</ele>
        <time>2020-06-12T04:43:15Z</time>
      </trkpt>
      <trkpt lat="49.06666" lon="-1.57467">
        <ele>37.4</ele>
        <time>2020-06-12T04:43:16Z</time>
      </trkpt>
      <trkpt lat="49.06672" lon="-1.57473">
        <ele>37.3</ele>
        <time>2020-06-12T04:43:17Z</time>
      </trkpt>
      <trkpt lat="49.06677" lon="-1.57477">
        <ele>37.2</ele>
        <time>2020-06-12T04:43:18Z</time>
      </trkpt>
      <trkpt lat="49.06682" lon="-1.57482">
        <ele>37.2</ele>
        <time>2020-06-12T04:43:19Z</time>
      </trkpt>
      <trkpt lat="49.06688" lon="-1.57487">
        <ele>37</ele>
        <time>2020-06-12T04:43:20Z</time>
      </trkpt>
      <trkpt lat="49.06694" lon="-1.57493">
        <ele>36.9</ele>
        <time>2020-06-12T04:43:21Z</time>
      </trkpt>
      <trkpt lat="49.06698" lon="-1.57498">
        <ele>36.8</ele>
        <time>2020-06-12T04:43:22Z</time>
      </trkpt>
      <trkpt lat="49.06704" lon="-1.57502">
        <ele>36.7</ele>
        <time>2020-06-12T04:43:23Z</time>
      </trkpt>
      <trkpt lat="49.06709" lon="-1.57506">
        <ele>36.6</ele>
        <time>2020-06-12T04:43:24Z</time>
      </trkpt>
      <trkpt lat="49.06714" lon="-1.5751">
        <ele>36.5</ele>
        <time>2020-06-12T04:43:25Z</time>
      </trkpt>
      <trkpt lat="49.06719" lon="-1.57515">
        <ele>36.4</ele>
        <time>2020-06-12T04:43:26Z</time>
      </trkpt>
      <trkpt lat="49.06726" lon="-1.57519">
        <ele>36.3</ele>
        <time>2020-06-12T04:43:27Z</time>
      </trkpt>
      <trkpt lat="49.06732" lon="-1.57522">
        <ele>36.2</ele>
        <time>2020-06-12T04:43:28Z</time>
      </trkpt>
      <trkpt lat="49.0674" lon="-1.57525">
        <ele>36.1</ele>
        <time>2020-06-12T04:43:29Z</time>
      </trkpt>
      <trkpt lat="49.06746" lon="-1.57526">
        <ele>36.1</ele>
        <time>2020-06-12T04:43:30Z</time>
      </trkpt>
      <trkpt lat="49.06753" lon="-1.57525">
        <ele>36.1</ele>
        <time>2020-06-12T04:43:31Z</time>
      </trkpt>
      <trkpt lat="49.06758" lon="-1.57526">
        <ele>36.1</ele>
        <time>2020-06-12T04:43:32Z</time>
      </trkpt>
      <trkpt lat="49.06764" lon="-1.5753">
        <ele>36</ele>
        <time>2020-06-12T04:43:33Z</time>
      </trkpt>
      <trkpt lat="49.06768" lon="-1.57535">
        <ele>35.9</ele>
        <time>2020-06-12T04:43:34Z</time>
      </trkpt>
      <trkpt lat="49.06771" lon="-1.57545">
        <ele>35.8</ele>
        <time>2020-06-12T04:43:35Z</time>
      </trkpt>
      <trkpt lat="49.06775" lon="-1.57553">
        <ele>35.6</ele>
        <time>2020-06-12T04:43:36Z</time>
      </trkpt>
      <trkpt lat="49.0678" lon="-1.57559">
        <ele>35.5</ele>
        <time>2020-06-12T04:43:37Z</time>
      </trkpt>
      <trkpt lat="49.06784" lon="-1.57565">
        <ele>35.3</ele>
        <time>2020-06-12T04:43:38Z</time>
      </trkpt>
      <trkpt lat="49.06789" lon="-1.57569">
        <ele>35.2</ele>
        <time>2020-06-12T04:43:39Z</time>
      </trkpt>
      <trkpt lat="49.06795" lon="-1.57573">
        <ele>35</ele>
        <time>2020-06-12T04:43:40Z</time>
      </trkpt>
      <trkpt lat="49.068" lon="-1.57577">
        <ele>34.9</ele>
        <time>2020-06-12T04:43:41Z</time>
      </trkpt>
      <trkpt lat="49.06805" lon="-1.5758">
        <ele>34.8</ele>
        <time>2020-06-12T04:43:42Z</time>
      </trkpt>
      <trkpt lat="49.0681" lon="-1.57584">
        <ele>34.6</ele>
        <time>2020-06-12T04:43:43Z</time>
      </trkpt>
      <trkpt lat="49.06814" lon="-1.57589">
        <ele>34.5</ele>
        <time>2020-06-12T04:43:44Z</time>
      </trkpt>
      <trkpt lat="49.0682" lon="-1.57593">
        <ele>34.4</ele>
        <time>2020-06-12T04:43:45Z</time>
      </trkpt>
      <trkpt lat="49.06825" lon="-1.57597">
        <ele>34.3</ele>
        <time>2020-06-12T04:43:46Z</time>
      </trkpt>
      <trkpt lat="49.06829" lon="-1.57601">
        <ele>34.2</ele>
        <time>2020-06-12T04:43:47Z</time>
      </trkpt>
      <trkpt lat="49.06834" lon="-1.57605">
        <ele>34.1</ele>
        <time>2020-06-12T04:43:48Z</time>
      </trkpt>
      <trkpt lat="49.06839" lon="-1.57609">
        <ele>34</ele>
        <time>2020-06-12T04:43:49Z</time>
      </trkpt>
      <trkpt lat="49.06844" lon="-1.57613">
        <ele>33.8</ele>
        <time>2020-06-12T04:43:50Z</time>
      </trkpt>
      <trkpt lat="49.06849" lon="-1.57618">
        <ele>33.7</ele>
        <time>2020-06-12T04:43:51Z</time>
      </trkpt>
      <trkpt lat="49.06854" lon="-1.57623">
        <ele>33.6</ele>
        <time>2020-06-12T04:43:52Z</time>
      </trkpt>
      <trkpt lat="49.06859" lon="-1.57628">
        <ele>33.4</ele>
        <time>2020-06-12T04:43:53Z</time>
      </trkpt>
      <trkpt lat="49.06864" lon="-1.57634">
        <ele>33.3</ele>
        <time>2020-06-12T04:43:54Z</time>
      </trkpt>
      <trkpt lat="49.06869" lon="-1.5764">
        <ele>33.1</ele>
        <time>2020-06-12T04:43:55Z</time>
      </trkpt>
      <trkpt lat="49.06875" lon="-1.57646">
        <ele>33</ele>
        <time>2020-06-12T04:43:56Z</time>
      </trkpt>
      <trkpt lat="49.0688" lon="-1.57651">
        <ele>32.9</ele>
        <time>2020-06-12T04:43:57Z</time>
      </trkpt>
      <trkpt lat="49.06886" lon="-1.57658">
        <ele>32.7</ele>
        <time>2020-06-12T04:43:58Z</time>
      </trkpt>
      <trkpt lat="49.06891" lon="-1.57662">
        <ele>32.6</ele>
        <time>2020-06-12T04:43:59Z</time>
      </trkpt>
      <trkpt lat="49.06898" lon="-1.57668">
        <ele>32.5</ele>
        <time>2020-06-12T04:44:00Z</time>
      </trkpt>
      <trkpt lat="49.06903" lon="-1.57673">
        <ele>32.4</ele>
        <time>2020-06-12T04:44:01Z</time>
      </trkpt>
      <trkpt lat="49.06909" lon="-1.5768">
        <ele>32.2</ele>
        <time>2020-06-12T04:44:02Z</time>
      </trkpt>
      <trkpt lat="49.06914" lon="-1.57689">
        <ele>32</ele>
        <time>2020-06-12T04:44:03Z</time>
      </trkpt>
      <trkpt lat="49.06919" lon="-1.57695">
        <ele>31.8</ele>
        <time>2020-06-12T04:44:04Z</time>
      </trkpt>
      <trkpt lat="49.06924" lon="-1.57701">
        <ele>31.6</ele>
        <time>2020-06-12T04:44:05Z</time>
      </trkpt>
      <trkpt lat="49.06928" lon="-1.57708">
        <ele>31.5</ele>
        <time>2020-06-12T04:44:06Z</time>
      </trkpt>
      <trkpt lat="49.06933" lon="-1.57715">
        <ele>31.3</ele>
        <time>2020-06-12T04:44:07Z</time>
      </trkpt>
      <trkpt lat="49.06938" lon="-1.5772">
        <ele>31.1</ele>
        <time>2020-06-12T04:44:08Z</time>
      </trkpt>
      <trkpt lat="49.06943" lon="-1.57726">
        <ele>30.9</ele>
        <time>2020-06-12T04:44:09Z</time>
      </trkpt>
      <trkpt lat="49.06949" lon="-1.57734">
        <ele>30.6</ele>
        <time>2020-06-12T04:44:10Z</time>
      </trkpt>
      <trkpt lat="49.06954" lon="-1.57741">
        <ele>30.3</ele>
        <time>2020-06-12T04:44:11Z</time>
      </trkpt>
      <trkpt lat="49.0696" lon="-1.57749">
        <ele>30</ele>
        <time>2020-06-12T04:44:12Z</time>
      </trkpt>
      <trkpt lat="49.06965" lon="-1.57756">
        <ele>29.7</ele>
        <time>2020-06-12T04:44:13Z</time>
      </trkpt>
      <trkpt lat="49.06971" lon="-1.57764">
        <ele>29.5</ele>
        <time>2020-06-12T04:44:14Z</time>
      </trkpt>
      <trkpt lat="49.06977" lon="-1.57771">
        <ele>29.2</ele>
        <time>2020-06-12T04:44:15Z</time>
      </trkpt>
      <trkpt lat="49.06983" lon="-1.57778">
        <ele>28.9</ele>
        <time>2020-06-12T04:44:16Z</time>
      </trkpt>
      <trkpt lat="49.06989" lon="-1.57786">
        <ele>28.6</ele>
        <time>2020-06-12T04:44:17Z</time>
      </trkpt>
      <trkpt lat="49.06995" lon="-1.57794">
        <ele>28.4</ele>
        <time>2020-06-12T04:44:18Z</time>
      </trkpt>
      <trkpt lat="49.07001" lon="-1.57802">
        <ele>28.1</ele>
        <time>2020-06-12T04:44:19Z</time>
      </trkpt>
      <trkpt lat="49.07007" lon="-1.57809">
        <ele>27.9</ele>
        <time>2020-06-12T04:44:20Z</time>
      </trkpt>
      <trkpt lat="49.07013" lon="-1.57817">
        <ele>27.5</ele>
        <time>2020-06-12T04:44:21Z</time>
      </trkpt>
      <trkpt lat="49.07019" lon="-1.57826">
        <ele>27.2</ele>
        <time>2020-06-12T04:44:22Z</time>
      </trkpt>
      <trkpt lat="49.07026" lon="-1.57833">
        <ele>26.8</ele>
        <time>2020-06-12T04:44:23Z</time>
      </trkpt>
      <trkpt lat="49.07031" lon="-1.57841">
        <ele>26.5</ele>
        <time>2020-06-12T04:44:24Z</time>
      </trkpt>
      <trkpt lat="49.07037" lon="-1.57849">
        <ele>26.1</ele>
        <time>2020-06-12T04:44:25Z</time>
      </trkpt>
      <trkpt lat="49.07043" lon="-1.57858">
        <ele>25.7</ele>
        <time>2020-06-12T04:44:26Z</time>
      </trkpt>
      <trkpt lat="49.07049" lon="-1.57867">
        <ele>25.3</ele>
        <time>2020-06-12T04:44:27Z</time>
      </trkpt>
      <trkpt lat="49.07055" lon="-1.57875">
        <ele>24.9</ele>
        <time>2020-06-12T04:44:28Z</time>
      </trkpt>
      <trkpt lat="49.07062" lon="-1.57884">
        <ele>24.5</ele>
        <time>2020-06-12T04:44:29Z</time>
      </trkpt>
      <trkpt lat="49.07069" lon="-1.57892">
        <ele>24</ele>
        <time>2020-06-12T04:44:30Z</time>
      </trkpt>
      <trkpt lat="49.07076" lon="-1.57901">
        <ele>23.5</ele>
        <time>2020-06-12T04:44:31Z</time>
      </trkpt>
      <trkpt lat="49.07084" lon="-1.57911">
        <ele>22.9</ele>
        <time>2020-06-12T04:44:32Z</time>
      </trkpt>
      <trkpt lat="49.07092" lon="-1.5792">
        <ele>22.3</ele>
        <time>2020-06-12T04:44:33Z</time>
      </trkpt>
      <trkpt lat="49.07099" lon="-1.5793">
        <ele>21.8</ele>
        <time>2020-06-12T04:44:34Z</time>
      </trkpt>
      <trkpt lat="49.07106" lon="-1.57939">
        <ele>21.2</ele>
        <time>2020-06-12T04:44:35Z</time>
      </trkpt>
      <trkpt lat="49.07113" lon="-1.57949">
        <ele>20.7</ele>
        <time>2020-06-12T04:44:36Z</time>
      </trkpt>
      <trkpt lat="49.0712" lon="-1.57959">
        <ele>20.2</ele>
        <time>2020-06-12T04:44:37Z</time>
      </trkpt>
      <trkpt lat="49.07128" lon="-1.57969">
        <ele>19.5</ele>
        <time>2020-06-12T04:44:38Z</time>
      </trkpt>
      <trkpt lat="49.07135" lon="-1.57979">
        <ele>18.5</ele>
        <time>2020-06-12T04:44:39Z</time>
      </trkpt>
      <trkpt lat="49.07143" lon="-1.57988">
        <ele>18.1</ele>
        <time>2020-06-12T04:44:40Z</time>
      </trkpt>
      <trkpt lat="49.0715" lon="-1.57998">
        <ele>17.6</ele>
        <time>2020-06-12T04:44:41Z</time>
      </trkpt>
      <trkpt lat="49.07158" lon="-1.58007">
        <ele>16.9</ele>
        <time>2020-06-12T04:44:42Z</time>
      </trkpt>
      <trkpt lat="49.07166" lon="-1.58017">
        <ele>16.4</ele>
        <time>2020-06-12T04:44:43Z</time>
      </trkpt>
      <trkpt lat="49.07174" lon="-1.58028">
        <ele>15.9</ele>
        <time>2020-06-12T04:44:44Z</time>
      </trkpt>
      <trkpt lat="49.07181" lon="-1.58038">
        <ele>15.4</ele>
        <time>2020-06-12T04:44:45Z</time>
      </trkpt>
      <trkpt lat="49.07189" lon="-1.58048">
        <ele>15</ele>
        <time>2020-06-12T04:44:46Z</time>
      </trkpt>
      <trkpt lat="49.07197" lon="-1.58058">
        <ele>14.7</ele>
        <time>2020-06-12T04:44:47Z</time>
      </trkpt>
      <trkpt lat="49.07205" lon="-1.58067">
        <ele>14.3</ele>
        <time>2020-06-12T04:44:48Z</time>
      </trkpt>
      <trkpt lat="49.07212" lon="-1.58076">
        <ele>13.9</ele>
        <time>2020-06-12T04:44:49Z</time>
      </trkpt>
      <trkpt lat="49.0722" lon="-1.58086">
        <ele>13.6</ele>
        <time>2020-06-12T04:44:50Z</time>
      </trkpt>
      <trkpt lat="49.07227" lon="-1.58096">
        <ele>13.3</ele>
        <time>2020-06-12T04:44:51Z</time>
      </trkpt>
      <trkpt lat="49.07234" lon="-1.58105">
        <ele>13.1</ele>
        <time>2020-06-12T04:44:52Z</time>
      </trkpt>
      <trkpt lat="49.07241" lon="-1.58115">
        <ele>12.8</ele>
        <time>2020-06-12T04:44:53Z</time>
      </trkpt>
      <trkpt lat="49.07248" lon="-1.58124">
        <ele>12.6</ele>
        <time>2020-06-12T04:44:54Z</time>
      </trkpt>
      <trkpt lat="49.07255" lon="-1.58132">
        <ele>12.5</ele>
        <time>2020-06-12T04:44:55Z</time>
      </trkpt>
      <trkpt lat="49.07261" lon="-1.5814">
        <ele>12.5</ele>
        <time>2020-06-12T04:44:56Z</time>
      </trkpt>
      <trkpt lat="49.07268" lon="-1.5815">
        <ele>12.4</ele>
        <time>2020-06-12T04:44:57Z</time>
      </trkpt>
      <trkpt lat="49.07274" lon="-1.58159">
        <ele>12.4</ele>
        <time>2020-06-12T04:44:58Z</time>
      </trkpt>
      <trkpt lat="49.0728" lon="-1.58167">
        <ele>12.4</ele>
        <time>2020-06-12T04:44:59Z</time>
      </trkpt>
      <trkpt lat="49.07287" lon="-1.58176">
        <ele>12.3</ele>
        <time>2020-06-12T04:45:00Z</time>
      </trkpt>
      <trkpt lat="49.07293" lon="-1.58184">
        <ele>12.3</ele>
        <time>2020-06-12T04:45:01Z</time>
      </trkpt>
      <trkpt lat="49.07299" lon="-1.58192">
        <ele>12.3</ele>
        <time>2020-06-12T04:45:02Z</time>
      </trkpt>
      <trkpt lat="49.07306" lon="-1.582">
        <ele>12.3</ele>
        <time>2020-06-12T04:45:03Z</time>
      </trkpt>
      <trkpt lat="49.07312" lon="-1.58208">
        <ele>12.3</ele>
        <time>2020-06-12T04:45:04Z</time>
      </trkpt>
      <trkpt lat="49.07318" lon="-1.58215">
        <ele>12.3</ele>
        <time>2020-06-12T04:45:05Z</time>
      </trkpt>
      <trkpt lat="49.07324" lon="-1.58223">
        <ele>12.4</ele>
        <time>2020-06-12T04:45:06Z</time>
      </trkpt>
      <trkpt lat="49.0733" lon="-1.58231">
        <ele>12.1</ele>
        <time>2020-06-12T04:45:07Z</time>
      </trkpt>
      <trkpt lat="49.07335" lon="-1.58238">
        <ele>12</ele>
        <time>2020-06-12T04:45:08Z</time>
      </trkpt>
      <trkpt lat="49.07341" lon="-1.58245">
        <ele>11.9</ele>
        <time>2020-06-12T04:45:09Z</time>
      </trkpt>
      <trkpt lat="49.07347" lon="-1.58251">
        <ele>11.9</ele>
        <time>2020-06-12T04:45:10Z</time>
      </trkpt>
      <trkpt lat="49.07353" lon="-1.58258">
        <ele>11.9</ele>
        <time>2020-06-12T04:45:11Z</time>
      </trkpt>
      <trkpt lat="49.07358" lon="-1.58264">
        <ele>11.9</ele>
        <time>2020-06-12T04:45:12Z</time>
      </trkpt>
      <trkpt lat="49.07364" lon="-1.58271">
        <ele>11.9</ele>
        <time>2020-06-12T04:45:13Z</time>
      </trkpt>
      <trkpt lat="49.07369" lon="-1.58278">
        <ele>11.9</ele>
        <time>2020-06-12T04:45:14Z</time>
      </trkpt>
      <trkpt lat="49.07374" lon="-1.58285">
        <ele>12</ele>
        <time>2020-06-12T04:45:15Z</time>
      </trkpt>
      <trkpt lat="49.07379" lon="-1.58292">
        <ele>12</ele>
        <time>2020-06-12T04:45:16Z</time>
      </trkpt>
      <trkpt lat="49.07385" lon="-1.58298">
        <ele>12</ele>
        <time>2020-06-12T04:45:17Z</time>
      </trkpt>
      <trkpt lat="49.07391" lon="-1.58303">
        <ele>12</ele>
        <time>2020-06-12T04:45:18Z</time>
      </trkpt>
      <trkpt lat="49.07396" lon="-1.58309">
        <ele>12</ele>
        <time>2020-06-12T04:45:19Z</time>
      </trkpt>
      <trkpt lat="49.07401" lon="-1.58315">
        <ele>12</ele>
        <time>2020-06-12T04:45:20Z</time>
      </trkpt>
      <trkpt lat="49.07406" lon="-1.58319">
        <ele>11.9</ele>
        <time>2020-06-12T04:45:21Z</time>
      </trkpt>
      <trkpt lat="49.07411" lon="-1.58325">
        <ele>11.9</ele>
        <time>2020-06-12T04:45:22Z</time>
      </trkpt>
      <trkpt lat="49.07416" lon="-1.58331">
        <ele>11.8</ele>
        <time>2020-06-12T04:45:23Z</time>
      </trkpt>
      <trkpt lat="49.07422" lon="-1.58336">
        <ele>11.7</ele>
        <time>2020-06-12T04:45:24Z</time>
      </trkpt>
      <trkpt lat="49.07427" lon="-1.58341">
        <ele>11.6</ele>
        <time>2020-06-12T04:45:25Z</time>
      </trkpt>
      <trkpt lat="49.07433" lon="-1.58346">
        <ele>11.6</ele>
        <time>2020-06-12T04:45:26Z</time>
      </trkpt>
      <trkpt lat="49.07438" lon="-1.58353">
        <ele>11.5</ele>
        <time>2020-06-12T04:45:27Z</time>
      </trkpt>
      <trkpt lat="49.07443" lon="-1.58359">
        <ele>11.5</ele>
        <time>2020-06-12T04:45:28Z</time>
      </trkpt>
      <trkpt lat="49.07448" lon="-1.58365">
        <ele>11.5</ele>
        <time>2020-06-12T04:45:29Z</time>
      </trkpt>
      <trkpt lat="49.07454" lon="-1.58372">
        <ele>11.5</ele>
        <time>2020-06-12T04:45:30Z</time>
      </trkpt>
      <trkpt lat="49.07459" lon="-1.58378">
        <ele>11.5</ele>
        <time>2020-06-12T04:45:31Z</time>
      </trkpt>
      <trkpt lat="49.07465" lon="-1.58382">
        <ele>11.5</ele>
        <time>2020-06-12T04:45:32Z</time>
      </trkpt>
      <trkpt lat="49.0747" lon="-1.58387">
        <ele>11.4</ele>
        <time>2020-06-12T04:45:33Z</time>
      </trkpt>
      <trkpt lat="49.07474" lon="-1.58392">
        <ele>11.4</ele>
        <time>2020-06-12T04:45:34Z</time>
      </trkpt>
      <trkpt lat="49.0748" lon="-1.58398">
        <ele>11.4</ele>
        <time>2020-06-12T04:45:35Z</time>
      </trkpt>
      <trkpt lat="49.07486" lon="-1.58402">
        <ele>11.3</ele>
        <time>2020-06-12T04:45:36Z</time>
      </trkpt>
      <trkpt lat="49.07491" lon="-1.58409">
        <ele>11.3</ele>
        <time>2020-06-12T04:45:37Z</time>
      </trkpt>
      <trkpt lat="49.07498" lon="-1.58416">
        <ele>11.3</ele>
        <time>2020-06-12T04:45:38Z</time>
      </trkpt>
      <trkpt lat="49.07503" lon="-1.58421">
        <ele>11.3</ele>
        <time>2020-06-12T04:45:39Z</time>
      </trkpt>
      <trkpt lat="49.07508" lon="-1.58427">
        <ele>11.2</ele>
        <time>2020-06-12T04:45:40Z</time>
      </trkpt>
      <trkpt lat="49.07514" lon="-1.58433">
        <ele>11</ele>
        <time>2020-06-12T04:45:41Z</time>
      </trkpt>
      <trkpt lat="49.07519" lon="-1.58439">
        <ele>10.9</ele>
        <time>2020-06-12T04:45:42Z</time>
      </trkpt>
      <trkpt lat="49.07524" lon="-1.58444">
        <ele>10.8</ele>
        <time>2020-06-12T04:45:43Z</time>
      </trkpt>
      <trkpt lat="49.0753" lon="-1.5845">
        <ele>10.7</ele>
        <time>2020-06-12T04:45:44Z</time>
      </trkpt>
      <trkpt lat="49.07535" lon="-1.58456">
        <ele>10.6</ele>
        <time>2020-06-12T04:45:45Z</time>
      </trkpt>
      <trkpt lat="49.07539" lon="-1.58461">
        <ele>10.6</ele>
        <time>2020-06-12T04:45:46Z</time>
      </trkpt>
      <trkpt lat="49.07544" lon="-1.58466">
        <ele>10.6</ele>
        <time>2020-06-12T04:45:47Z</time>
      </trkpt>
      <trkpt lat="49.0755" lon="-1.58471">
        <ele>10.6</ele>
        <time>2020-06-12T04:45:48Z</time>
      </trkpt>
      <trkpt lat="49.07555" lon="-1.58477">
        <ele>10.6</ele>
        <time>2020-06-12T04:45:49Z</time>
      </trkpt>
      <trkpt lat="49.0756" lon="-1.58482">
        <ele>10.6</ele>
        <time>2020-06-12T04:45:50Z</time>
      </trkpt>
      <trkpt lat="49.07566" lon="-1.58488">
        <ele>10.6</ele>
        <time>2020-06-12T04:45:51Z</time>
      </trkpt>
      <trkpt lat="49.0757" lon="-1.58494">
        <ele>10.6</ele>
        <time>2020-06-12T04:45:52Z</time>
      </trkpt>
      <trkpt lat="49.07575" lon="-1.585">
        <ele>10.5</ele>
        <time>2020-06-12T04:45:53Z</time>
      </trkpt>
      <trkpt lat="49.0758" lon="-1.58505">
        <ele>10.5</ele>
        <time>2020-06-12T04:45:54Z</time>
      </trkpt>
      <trkpt lat="49.07584" lon="-1.5851">
        <ele>10.5</ele>
        <time>2020-06-12T04:45:55Z</time>
      </trkpt>
      <trkpt lat="49.0759" lon="-1.58516">
        <ele>10.5</ele>
        <time>2020-06-12T04:45:56Z</time>
      </trkpt>
      <trkpt lat="49.07596" lon="-1.58522">
        <ele>10.5</ele>
        <time>2020-06-12T04:45:57Z</time>
      </trkpt>
      <trkpt lat="49.07602" lon="-1.58528">
        <ele>10.5</ele>
        <time>2020-06-12T04:45:58Z</time>
      </trkpt>
      <trkpt lat="49.07607" lon="-1.58534">
        <ele>10.5</ele>
        <time>2020-06-12T04:45:59Z</time>
      </trkpt>
      <trkpt lat="49.07611" lon="-1.58539">
        <ele>10.5</ele>
        <time>2020-06-12T04:46:00Z</time>
      </trkpt>
      <trkpt lat="49.07616" lon="-1.58544">
        <ele>10.5</ele>
        <time>2020-06-12T04:46:01Z</time>
      </trkpt>
      <trkpt lat="49.0762" lon="-1.5855">
        <ele>10.5</ele>
        <time>2020-06-12T04:46:02Z</time>
      </trkpt>
      <trkpt lat="49.07625" lon="-1.58554">
        <ele>10.5</ele>
        <time>2020-06-12T04:46:03Z</time>
      </trkpt>
      <trkpt lat="49.0763" lon="-1.58559">
        <ele>10.5</ele>
        <time>2020-06-12T04:46:04Z</time>
      </trkpt>
      <trkpt lat="49.07636" lon="-1.58565">
        <ele>10.5</ele>
        <time>2020-06-12T04:46:05Z</time>
      </trkpt>
      <trkpt lat="49.07641" lon="-1.58572">
        <ele>10.6</ele>
        <time>2020-06-12T04:46:06Z</time>
      </trkpt>
      <trkpt lat="49.07647" lon="-1.58577">
        <ele>10.7</ele>
        <time>2020-06-12T04:46:07Z</time>
      </trkpt>
      <trkpt lat="49.07652" lon="-1.58581">
        <ele>10.5</ele>
        <time>2020-06-12T04:46:08Z</time>
      </trkpt>
      <trkpt lat="49.07657" lon="-1.58586">
        <ele>10.3</ele>
        <time>2020-06-12T04:46:09Z</time>
      </trkpt>
      <trkpt lat="49.07662" lon="-1.58591">
        <ele>10.2</ele>
        <time>2020-06-12T04:46:10Z</time>
      </trkpt>
      <trkpt lat="49.07667" lon="-1.58597">
        <ele>10</ele>
        <time>2020-06-12T04:46:11Z</time>
      </trkpt>
      <trkpt lat="49.07672" lon="-1.58603">
        <ele>9.9</ele>
        <time>2020-06-12T04:46:12Z</time>
      </trkpt>
      <trkpt lat="49.07676" lon="-1.58607">
        <ele>9.8</ele>
        <time>2020-06-12T04:46:13Z</time>
      </trkpt>
      <trkpt lat="49.07681" lon="-1.58612">
        <ele>9.8</ele>
        <time>2020-06-12T04:46:14Z</time>
      </trkpt>
      <trkpt lat="49.07686" lon="-1.58618">
        <ele>9.7</ele>
        <time>2020-06-12T04:46:15Z</time>
      </trkpt>
      <trkpt lat="49.07692" lon="-1.58624">
        <ele>9.6</ele>
        <time>2020-06-12T04:46:16Z</time>
      </trkpt>
      <trkpt lat="49.07697" lon="-1.58629">
        <ele>9.5</ele>
        <time>2020-06-12T04:46:17Z</time>
      </trkpt>
      <trkpt lat="49.07701" lon="-1.58635">
        <ele>9.4</ele>
        <time>2020-06-12T04:46:18Z</time>
      </trkpt>
      <trkpt lat="49.07706" lon="-1.5864">
        <ele>9.4</ele>
        <time>2020-06-12T04:46:19Z</time>
      </trkpt>
      <trkpt lat="49.0771" lon="-1.58645">
        <ele>9.3</ele>
        <time>2020-06-12T04:46:20Z</time>
      </trkpt>
      <trkpt lat="49.07715" lon="-1.58651">
        <ele>9.3</ele>
        <time>2020-06-12T04:46:21Z</time>
      </trkpt>
      <trkpt lat="49.07721" lon="-1.58656">
        <ele>9.3</ele>
        <time>2020-06-12T04:46:22Z</time>
      </trkpt>
      <trkpt lat="49.07725" lon="-1.5866">
        <ele>9.2</ele>
        <time>2020-06-12T04:46:23Z</time>
      </trkpt>
      <trkpt lat="49.07729" lon="-1.58666">
        <ele>9.2</ele>
        <time>2020-06-12T04:46:24Z</time>
      </trkpt>
      <trkpt lat="49.07736" lon="-1.5867">
        <ele>9.2</ele>
        <time>2020-06-12T04:46:25Z</time>
      </trkpt>
      <trkpt lat="49.07741" lon="-1.58676">
        <ele>9.2</ele>
        <time>2020-06-12T04:46:26Z</time>
      </trkpt>
      <trkpt lat="49.07747" lon="-1.58681">
        <ele>9.2</ele>
        <time>2020-06-12T04:46:27Z</time>
      </trkpt>
      <trkpt lat="49.07753" lon="-1.58688">
        <ele>9.1</ele>
        <time>2020-06-12T04:46:28Z</time>
      </trkpt>
      <trkpt lat="49.07758" lon="-1.58693">
        <ele>9.1</ele>
        <time>2020-06-12T04:46:29Z</time>
      </trkpt>
      <trkpt lat="49.07763" lon="-1.58698">
        <ele>9</ele>
        <time>2020-06-12T04:46:30Z</time>
      </trkpt>
      <trkpt lat="49.07769" lon="-1.58703">
        <ele>9</ele>
        <time>2020-06-12T04:46:31Z</time>
      </trkpt>
      <trkpt lat="49.07774" lon="-1.58708">
        <ele>8.9</ele>
        <time>2020-06-12T04:46:32Z</time>
      </trkpt>
      <trkpt lat="49.07779" lon="-1.58712">
        <ele>8.9</ele>
        <time>2020-06-12T04:46:33Z</time>
      </trkpt>
      <trkpt lat="49.07784" lon="-1.58717">
        <ele>8.9</ele>
        <time>2020-06-12T04:46:34Z</time>
      </trkpt>
      <trkpt lat="49.07789" lon="-1.58723">
        <ele>9</ele>
        <time>2020-06-12T04:46:35Z</time>
      </trkpt>
      <trkpt lat="49.07794" lon="-1.58729">
        <ele>9.3</ele>
        <time>2020-06-12T04:46:36Z</time>
      </trkpt>
      <trkpt lat="49.07798" lon="-1.58734">
        <ele>9.1</ele>
        <time>2020-06-12T04:46:37Z</time>
      </trkpt>
      <trkpt lat="49.07803" lon="-1.58739">
        <ele>9</ele>
        <time>2020-06-12T04:46:38Z</time>
      </trkpt>
      <trkpt lat="49.07809" lon="-1.58745">
        <ele>8.9</ele>
        <time>2020-06-12T04:46:39Z</time>
      </trkpt>
      <trkpt lat="49.07814" lon="-1.58751">
        <ele>8.9</ele>
        <time>2020-06-12T04:46:40Z</time>
      </trkpt>
      <trkpt lat="49.07819" lon="-1.58757">
        <ele>8.8</ele>
        <time>2020-06-12T04:46:41Z</time>
      </trkpt>
      <trkpt lat="49.07822" lon="-1.58761">
        <ele>8.8</ele>
        <time>2020-06-12T04:46:42Z</time>
      </trkpt>
      <trkpt lat="49.07826" lon="-1.58766">
        <ele>8.8</ele>
        <time>2020-06-12T04:46:43Z</time>
      </trkpt>
      <trkpt lat="49.0783" lon="-1.5877">
        <ele>8.8</ele>
        <time>2020-06-12T04:46:44Z</time>
      </trkpt>
      <trkpt lat="49.07834" lon="-1.58775">
        <ele>8.7</ele>
        <time>2020-06-12T04:46:45Z</time>
      </trkpt>
      <trkpt lat="49.07839" lon="-1.58779">
        <ele>8.7</ele>
        <time>2020-06-12T04:46:46Z</time>
      </trkpt>
      <trkpt lat="49.07843" lon="-1.58785">
        <ele>8.7</ele>
        <time>2020-06-12T04:46:47Z</time>
      </trkpt>
      <trkpt lat="49.07848" lon="-1.5879">
        <ele>8.7</ele>
        <time>2020-06-12T04:46:48Z</time>
      </trkpt>
      <trkpt lat="49.07852" lon="-1.58795">
        <ele>8.6</ele>
        <time>2020-06-12T04:46:49Z</time>
      </trkpt>
      <trkpt lat="49.07857" lon="-1.588">
        <ele>8.6</ele>
        <time>2020-06-12T04:46:50Z</time>
      </trkpt>
      <trkpt lat="49.07862" lon="-1.58806">
        <ele>8.6</ele>
        <time>2020-06-12T04:46:51Z</time>
      </trkpt>
      <trkpt lat="49.07868" lon="-1.58811">
        <ele>8.5</ele>
        <time>2020-06-12T04:46:52Z</time>
      </trkpt>
      <trkpt lat="49.07872" lon="-1.58816">
        <ele>8.5</ele>
        <time>2020-06-12T04:46:53Z</time>
      </trkpt>
      <trkpt lat="49.07876" lon="-1.58822">
        <ele>8.5</ele>
        <time>2020-06-12T04:46:54Z</time>
      </trkpt>
      <trkpt lat="49.07881" lon="-1.58826">
        <ele>8.4</ele>
        <time>2020-06-12T04:46:55Z</time>
      </trkpt>
      <trkpt lat="49.07886" lon="-1.5883">
        <ele>8.4</ele>
        <time>2020-06-12T04:46:56Z</time>
      </trkpt>
      <trkpt lat="49.07891" lon="-1.58835">
        <ele>8.4</ele>
        <time>2020-06-12T04:46:57Z</time>
      </trkpt>
      <trkpt lat="49.07895" lon="-1.5884">
        <ele>8.3</ele>
        <time>2020-06-12T04:46:58Z</time>
      </trkpt>
      <trkpt lat="49.079" lon="-1.58845">
        <ele>8.3</ele>
        <time>2020-06-12T04:46:59Z</time>
      </trkpt>
      <trkpt lat="49.07905" lon="-1.5885">
        <ele>8.3</ele>
        <time>2020-06-12T04:47:00Z</time>
      </trkpt>
      <trkpt lat="49.07909" lon="-1.58854">
        <ele>8.2</ele>
        <time>2020-06-12T04:47:01Z</time>
      </trkpt>
      <trkpt lat="49.07914" lon="-1.58859">
        <ele>8.2</ele>
        <time>2020-06-12T04:47:02Z</time>
      </trkpt>
      <trkpt lat="49.07918" lon="-1.58864">
        <ele>8.2</ele>
        <time>2020-06-12T04:47:03Z</time>
      </trkpt>
      <trkpt lat="49.07922" lon="-1.58868">
        <ele>8.2</ele>
        <time>2020-06-12T04:47:04Z</time>
      </trkpt>
      <trkpt lat="49.07926" lon="-1.58874">
        <ele>8.1</ele>
        <time>2020-06-12T04:47:05Z</time>
      </trkpt>
      <trkpt lat="49.07931" lon="-1.5888">
        <ele>8.1</ele>
        <time>2020-06-12T04:47:06Z</time>
      </trkpt>
      <trkpt lat="49.07936" lon="-1.58884">
        <ele>8.1</ele>
        <time>2020-06-12T04:47:07Z</time>
      </trkpt>
      <trkpt lat="49.07941" lon="-1.58889">
        <ele>8.1</ele>
        <time>2020-06-12T04:47:08Z</time>
      </trkpt>
      <trkpt lat="49.07946" lon="-1.58894">
        <ele>8.2</ele>
        <time>2020-06-12T04:47:09Z</time>
      </trkpt>
      <trkpt lat="49.07951" lon="-1.58898">
        <ele>8.3</ele>
        <time>2020-06-12T04:47:10Z</time>
      </trkpt>
      <trkpt lat="49.07955" lon="-1.58904">
        <ele>8.4</ele>
        <time>2020-06-12T04:47:11Z</time>
      </trkpt>
      <trkpt lat="49.0796" lon="-1.58911">
        <ele>8.5</ele>
        <time>2020-06-12T04:47:12Z</time>
      </trkpt>
      <trkpt lat="49.07965" lon="-1.58917">
        <ele>8.4</ele>
        <time>2020-06-12T04:47:13Z</time>
      </trkpt>
      <trkpt lat="49.0797" lon="-1.58924">
        <ele>8.3</ele>
        <time>2020-06-12T04:47:14Z</time>
      </trkpt>
      <trkpt lat="49.07974" lon="-1.5893">
        <ele>8.2</ele>
        <time>2020-06-12T04:47:15Z</time>
      </trkpt>
      <trkpt lat="49.07979" lon="-1.58936">
        <ele>8.2</ele>
        <time>2020-06-12T04:47:16Z</time>
      </trkpt>
      <trkpt lat="49.07983" lon="-1.58942">
        <ele>8.1</ele>
        <time>2020-06-12T04:47:17Z</time>
      </trkpt>
      <trkpt lat="49.07988" lon="-1.58948">
        <ele>8.1</ele>
        <time>2020-06-12T04:47:18Z</time>
      </trkpt>
      <trkpt lat="49.07992" lon="-1.58954">
        <ele>8.1</ele>
        <time>2020-06-12T04:47:19Z</time>
      </trkpt>
      <trkpt lat="49.07996" lon="-1.5896">
        <ele>8.1</ele>
        <time>2020-06-12T04:47:20Z</time>
      </trkpt>
      <trkpt lat="49.08001" lon="-1.58967">
        <ele>8.1</ele>
        <time>2020-06-12T04:47:21Z</time>
      </trkpt>
      <trkpt lat="49.08005" lon="-1.58973">
        <ele>8.1</ele>
        <time>2020-06-12T04:47:22Z</time>
      </trkpt>
      <trkpt lat="49.0801" lon="-1.58979">
        <ele>8</ele>
        <time>2020-06-12T04:47:23Z</time>
      </trkpt>
      <trkpt lat="49.08015" lon="-1.58984">
        <ele>8</ele>
        <time>2020-06-12T04:47:24Z</time>
      </trkpt>
      <trkpt lat="49.08019" lon="-1.58991">
        <ele>8</ele>
        <time>2020-06-12T04:47:25Z</time>
      </trkpt>
      <trkpt lat="49.08023" lon="-1.58998">
        <ele>8</ele>
        <time>2020-06-12T04:47:26Z</time>
      </trkpt>
      <trkpt lat="49.08027" lon="-1.59004">
        <ele>8</ele>
        <time>2020-06-12T04:47:27Z</time>
      </trkpt>
      <trkpt lat="49.08032" lon="-1.5901">
        <ele>8</ele>
        <time>2020-06-12T04:47:28Z</time>
      </trkpt>
      <trkpt lat="49.08036" lon="-1.59015">
        <ele>8</ele>
        <time>2020-06-12T04:47:29Z</time>
      </trkpt>
      <trkpt lat="49.08041" lon="-1.5902">
        <ele>8</ele>
        <time>2020-06-12T04:47:30Z</time>
      </trkpt>
      <trkpt lat="49.08045" lon="-1.59026">
        <ele>8</ele>
        <time>2020-06-12T04:47:31Z</time>
      </trkpt>
      <trkpt lat="49.0805" lon="-1.59032">
        <ele>8</ele>
        <time>2020-06-12T04:47:32Z</time>
      </trkpt>
      <trkpt lat="49.08054" lon="-1.59038">
        <ele>8</ele>
        <time>2020-06-12T04:47:33Z</time>
      </trkpt>
      <trkpt lat="49.08058" lon="-1.59044">
        <ele>8</ele>
        <time>2020-06-12T04:47:34Z</time>
      </trkpt>
      <trkpt lat="49.08062" lon="-1.59049">
        <ele>8</ele>
        <time>2020-06-12T04:47:35Z</time>
      </trkpt>
      <trkpt lat="49.08066" lon="-1.59054">
        <ele>8.1</ele>
        <time>2020-06-12T04:47:36Z</time>
      </trkpt>
      <trkpt lat="49.08071" lon="-1.59059">
        <ele>8.1</ele>
        <time>2020-06-12T04:47:37Z</time>
      </trkpt>
      <trkpt lat="49.08076" lon="-1.59063">
        <ele>8.1</ele>
        <time>2020-06-12T04:47:38Z</time>
      </trkpt>
      <trkpt lat="49.0808" lon="-1.59068">
        <ele>8.1</ele>
        <time>2020-06-12T04:47:39Z</time>
      </trkpt>
      <trkpt lat="49.08084" lon="-1.59073">
        <ele>8.1</ele>
        <time>2020-06-12T04:47:40Z</time>
      </trkpt>
      <trkpt lat="49.08088" lon="-1.59079">
        <ele>8.2</ele>
        <time>2020-06-12T04:47:41Z</time>
      </trkpt>
      <trkpt lat="49.08092" lon="-1.59083">
        <ele>8.2</ele>
        <time>2020-06-12T04:47:42Z</time>
      </trkpt>
      <trkpt lat="49.08096" lon="-1.59089">
        <ele>8.2</ele>
        <time>2020-06-12T04:47:43Z</time>
      </trkpt>
      <trkpt lat="49.081" lon="-1.59095">
        <ele>8.3</ele>
        <time>2020-06-12T04:47:44Z</time>
      </trkpt>
      <trkpt lat="49.08104" lon="-1.591">
        <ele>8.4</ele>
        <time>2020-06-12T04:47:45Z</time>
      </trkpt>
      <trkpt lat="49.08108" lon="-1.59105">
        <ele>8.4</ele>
        <time>2020-06-12T04:47:46Z</time>
      </trkpt>
      <trkpt lat="49.08112" lon="-1.59111">
        <ele>8.5</ele>
        <time>2020-06-12T04:47:47Z</time>
      </trkpt>
      <trkpt lat="49.08116" lon="-1.59116">
        <ele>8.5</ele>
        <time>2020-06-12T04:47:48Z</time>
      </trkpt>
      <trkpt lat="49.08119" lon="-1.59121">
        <ele>8.5</ele>
        <time>2020-06-12T04:47:49Z</time>
      </trkpt>
      <trkpt lat="49.08123" lon="-1.59127">
        <ele>8.5</ele>
        <time>2020-06-12T04:47:50Z</time>
      </trkpt>
      <trkpt lat="49.08128" lon="-1.59132">
        <ele>8.6</ele>
        <time>2020-06-12T04:47:51Z</time>
      </trkpt>
      <trkpt lat="49.08132" lon="-1.59138">
        <ele>8.6</ele>
        <time>2020-06-12T04:47:52Z</time>
      </trkpt>
      <trkpt lat="49.08136" lon="-1.59144">
        <ele>8.6</ele>
        <time>2020-06-12T04:47:53Z</time>
      </trkpt>
      <trkpt lat="49.0814" lon="-1.59149">
        <ele>8.6</ele>
        <time>2020-06-12T04:47:54Z</time>
      </trkpt>
      <trkpt lat="49.08145" lon="-1.59154">
        <ele>8.6</ele>
        <time>2020-06-12T04:47:55Z</time>
      </trkpt>
      <trkpt lat="49.08148" lon="-1.5916">
        <ele>8.6</ele>
        <time>2020-06-12T04:47:56Z</time>
      </trkpt>
      <trkpt lat="49.08152" lon="-1.59166">
        <ele>8.6</ele>
        <time>2020-06-12T04:47:57Z</time>
      </trkpt>
      <trkpt lat="49.08155" lon="-1.5917">
        <ele>8.6</ele>
        <time>2020-06-12T04:47:58Z</time>
      </trkpt>
      <trkpt lat="49.08159" lon="-1.59175">
        <ele>8.6</ele>
        <time>2020-06-12T04:47:59Z</time>
      </trkpt>
      <trkpt lat="49.08162" lon="-1.59179">
        <ele>8.6</ele>
        <time>2020-06-12T04:48:00Z</time>
      </trkpt>
      <trkpt lat="49.08166" lon="-1.59184">
        <ele>8.6</ele>
        <time>2020-06-12T04:48:01Z</time>
      </trkpt>
      <trkpt lat="49.08171" lon="-1.5919">
        <ele>8.7</ele>
        <time>2020-06-12T04:48:02Z</time>
      </trkpt>
      <trkpt lat="49.08175" lon="-1.59195">
        <ele>8.7</ele>
        <time>2020-06-12T04:48:03Z</time>
      </trkpt>
      <trkpt lat="49.08179" lon="-1.59202">
        <ele>8.8</ele>
        <time>2020-06-12T04:48:04Z</time>
      </trkpt>
      <trkpt lat="49.08184" lon="-1.59206">
        <ele>8.8</ele>
        <time>2020-06-12T04:48:05Z</time>
      </trkpt>
      <trkpt lat="49.08188" lon="-1.59211">
        <ele>8.8</ele>
        <time>2020-06-12T04:48:06Z</time>
      </trkpt>
      <trkpt lat="49.08192" lon="-1.59217">
        <ele>8.9</ele>
        <time>2020-06-12T04:48:07Z</time>
      </trkpt>
      <trkpt lat="49.08196" lon="-1.59222">
        <ele>8.9</ele>
        <time>2020-06-12T04:48:08Z</time>
      </trkpt>
      <trkpt lat="49.082" lon="-1.59226">
        <ele>8.9</ele>
        <time>2020-06-12T04:48:09Z</time>
      </trkpt>
      <trkpt lat="49.08204" lon="-1.59231">
        <ele>8.9</ele>
        <time>2020-06-12T04:48:10Z</time>
      </trkpt>
      <trkpt lat="49.08208" lon="-1.59237">
        <ele>8.9</ele>
        <time>2020-06-12T04:48:11Z</time>
      </trkpt>
      <trkpt lat="49.08212" lon="-1.59242">
        <ele>8.9</ele>
        <time>2020-06-12T04:48:12Z</time>
      </trkpt>
      <trkpt lat="49.08216" lon="-1.59247">
        <ele>8.9</ele>
        <time>2020-06-12T04:48:13Z</time>
      </trkpt>
      <trkpt lat="49.08219" lon="-1.59252">
        <ele>8.9</ele>
        <time>2020-06-12T04:48:14Z</time>
      </trkpt>
      <trkpt lat="49.08223" lon="-1.59257">
        <ele>8.9</ele>
        <time>2020-06-12T04:48:15Z</time>
      </trkpt>
      <trkpt lat="49.08228" lon="-1.59263">
        <ele>8.9</ele>
        <time>2020-06-12T04:48:16Z</time>
      </trkpt>
      <trkpt lat="49.08232" lon="-1.59268">
        <ele>9</ele>
        <time>2020-06-12T04:48:17Z</time>
      </trkpt>
      <trkpt lat="49.08235" lon="-1.59274">
        <ele>9</ele>
        <time>2020-06-12T04:48:18Z</time>
      </trkpt>
      <trkpt lat="49.0824" lon="-1.5928">
        <ele>9</ele>
        <time>2020-06-12T04:48:19Z</time>
      </trkpt>
      <trkpt lat="49.08244" lon="-1.59286">
        <ele>9</ele>
        <time>2020-06-12T04:48:20Z</time>
      </trkpt>
      <trkpt lat="49.08248" lon="-1.59291">
        <ele>9.1</ele>
        <time>2020-06-12T04:48:21Z</time>
      </trkpt>
      <trkpt lat="49.08252" lon="-1.59296">
        <ele>9.1</ele>
        <time>2020-06-12T04:48:22Z</time>
      </trkpt>
      <trkpt lat="49.08256" lon="-1.59301">
        <ele>9.1</ele>
        <time>2020-06-12T04:48:23Z</time>
      </trkpt>
      <trkpt lat="49.0826" lon="-1.59305">
        <ele>9</ele>
        <time>2020-06-12T04:48:24Z</time>
      </trkpt>
      <trkpt lat="49.08263" lon="-1.59311">
        <ele>9</ele>
        <time>2020-06-12T04:48:25Z</time>
      </trkpt>
      <trkpt lat="49.08267" lon="-1.59316">
        <ele>8.9</ele>
        <time>2020-06-12T04:48:26Z</time>
      </trkpt>
      <trkpt lat="49.08271" lon="-1.59322">
        <ele>8.7</ele>
        <time>2020-06-12T04:48:27Z</time>
      </trkpt>
      <trkpt lat="49.08275" lon="-1.59327">
        <ele>8.5</ele>
        <time>2020-06-12T04:48:28Z</time>
      </trkpt>
      <trkpt lat="49.08279" lon="-1.59332">
        <ele>8.2</ele>
        <time>2020-06-12T04:48:29Z</time>
      </trkpt>
      <trkpt lat="49.08282" lon="-1.59337">
        <ele>8</ele>
        <time>2020-06-12T04:48:30Z</time>
      </trkpt>
      <trkpt lat="49.08286" lon="-1.59341">
        <ele>7.8</ele>
        <time>2020-06-12T04:48:31Z</time>
      </trkpt>
      <trkpt lat="49.0829" lon="-1.59345">
        <ele>7.7</ele>
        <time>2020-06-12T04:48:32Z</time>
      </trkpt>
      <trkpt lat="49.08294" lon="-1.5935">
        <ele>7.6</ele>
        <time>2020-06-12T04:48:33Z</time>
      </trkpt>
      <trkpt lat="49.08298" lon="-1.59356">
        <ele>7.5</ele>
        <time>2020-06-12T04:48:34Z</time>
      </trkpt>
      <trkpt lat="49.08302" lon="-1.59361">
        <ele>7.5</ele>
        <time>2020-06-12T04:48:35Z</time>
      </trkpt>
      <trkpt lat="49.08306" lon="-1.59366">
        <ele>7.4</ele>
        <time>2020-06-12T04:48:36Z</time>
      </trkpt>
      <trkpt lat="49.0831" lon="-1.59371">
        <ele>7.4</ele>
        <time>2020-06-12T04:48:37Z</time>
      </trkpt>
      <trkpt lat="49.08313" lon="-1.59375">
        <ele>7.4</ele>
        <time>2020-06-12T04:48:38Z</time>
      </trkpt>
      <trkpt lat="49.08317" lon="-1.5938">
        <ele>7.4</ele>
        <time>2020-06-12T04:48:39Z</time>
      </trkpt>
      <trkpt lat="49.08321" lon="-1.59385">
        <ele>7.4</ele>
        <time>2020-06-12T04:48:40Z</time>
      </trkpt>
      <trkpt lat="49.08325" lon="-1.5939">
        <ele>7.4</ele>
        <time>2020-06-12T04:48:41Z</time>
      </trkpt>
      <trkpt lat="49.08329" lon="-1.59395">
        <ele>7.3</ele>
        <time>2020-06-12T04:48:42Z</time>
      </trkpt>
      <trkpt lat="49.08333" lon="-1.59401">
        <ele>7.3</ele>
        <time>2020-06-12T04:48:43Z</time>
      </trkpt>
      <trkpt lat="49.08337" lon="-1.59406">
        <ele>7.3</ele>
        <time>2020-06-12T04:48:44Z</time>
      </trkpt>
      <trkpt lat="49.08341" lon="-1.59411">
        <ele>7.3</ele>
        <time>2020-06-12T04:48:45Z</time>
      </trkpt>
      <trkpt lat="49.08345" lon="-1.59416">
        <ele>7.3</ele>
        <time>2020-06-12T04:48:46Z</time>
      </trkpt>
      <trkpt lat="49.08349" lon="-1.59421">
        <ele>7.3</ele>
        <time>2020-06-12T04:48:47Z</time>
      </trkpt>
      <trkpt lat="49.08353" lon="-1.59427">
        <ele>7.3</ele>
        <time>2020-06-12T04:48:48Z</time>
      </trkpt>
      <trkpt lat="49.08356" lon="-1.59431">
        <ele>7.3</ele>
        <time>2020-06-12T04:48:49Z</time>
      </trkpt>
      <trkpt lat="49.0836" lon="-1.59436">
        <ele>7.3</ele>
        <time>2020-06-12T04:48:50Z</time>
      </trkpt>
      <trkpt lat="49.08363" lon="-1.5944">
        <ele>7.3</ele>
        <time>2020-06-12T04:48:51Z</time>
      </trkpt>
      <trkpt lat="49.08367" lon="-1.59446">
        <ele>7.3</ele>
        <time>2020-06-12T04:48:52Z</time>
      </trkpt>
      <trkpt lat="49.0837" lon="-1.59451">
        <ele>7.3</ele>
        <time>2020-06-12T04:48:53Z</time>
      </trkpt>
      <trkpt lat="49.08373" lon="-1.59457">
        <ele>7.3</ele>
        <time>2020-06-12T04:48:54Z</time>
      </trkpt>
      <trkpt lat="49.08377" lon="-1.59463">
        <ele>7.3</ele>
        <time>2020-06-12T04:48:55Z</time>
      </trkpt>
      <trkpt lat="49.08381" lon="-1.59469">
        <ele>7.3</ele>
        <time>2020-06-12T04:48:56Z</time>
      </trkpt>
      <trkpt lat="49.08385" lon="-1.59472">
        <ele>7.3</ele>
        <time>2020-06-12T04:48:57Z</time>
      </trkpt>
      <trkpt lat="49.08389" lon="-1.59478">
        <ele>7.3</ele>
        <time>2020-06-12T04:48:58Z</time>
      </trkpt>
      <trkpt lat="49.08393" lon="-1.59484">
        <ele>7.3</ele>
        <time>2020-06-12T04:48:59Z</time>
      </trkpt>
      <trkpt lat="49.08397" lon="-1.5949">
        <ele>7.3</ele>
        <time>2020-06-12T04:49:00Z</time>
      </trkpt>
      <trkpt lat="49.084" lon="-1.59496">
        <ele>7.3</ele>
        <time>2020-06-12T04:49:01Z</time>
      </trkpt>
      <trkpt lat="49.08404" lon="-1.59501">
        <ele>7.3</ele>
        <time>2020-06-12T04:49:02Z</time>
      </trkpt>
      <trkpt lat="49.08408" lon="-1.59507">
        <ele>7.3</ele>
        <time>2020-06-12T04:49:03Z</time>
      </trkpt>
      <trkpt lat="49.08412" lon="-1.59512">
        <ele>7.3</ele>
        <time>2020-06-12T04:49:04Z</time>
      </trkpt>
      <trkpt lat="49.08416" lon="-1.59518">
        <ele>7.3</ele>
        <time>2020-06-12T04:49:05Z</time>
      </trkpt>
      <trkpt lat="49.08421" lon="-1.59524">
        <ele>7.3</ele>
        <time>2020-06-12T04:49:06Z</time>
      </trkpt>
      <trkpt lat="49.08425" lon="-1.5953">
        <ele>7.4</ele>
        <time>2020-06-12T04:49:07Z</time>
      </trkpt>
      <trkpt lat="49.08429" lon="-1.59536">
        <ele>7.5</ele>
        <time>2020-06-12T04:49:08Z</time>
      </trkpt>
      <trkpt lat="49.08434" lon="-1.59541">
        <ele>7.7</ele>
        <time>2020-06-12T04:49:09Z</time>
      </trkpt>
      <trkpt lat="49.08439" lon="-1.59547">
        <ele>8</ele>
        <time>2020-06-12T04:49:10Z</time>
      </trkpt>
      <trkpt lat="49.08444" lon="-1.59552">
        <ele>7.8</ele>
        <time>2020-06-12T04:49:11Z</time>
      </trkpt>
      <trkpt lat="49.08448" lon="-1.59557">
        <ele>7.7</ele>
        <time>2020-06-12T04:49:12Z</time>
      </trkpt>
      <trkpt lat="49.08452" lon="-1.59563">
        <ele>7.6</ele>
        <time>2020-06-12T04:49:13Z</time>
      </trkpt>
      <trkpt lat="49.08456" lon="-1.59568">
        <ele>7.6</ele>
        <time>2020-06-12T04:49:14Z</time>
      </trkpt>
      <trkpt lat="49.0846" lon="-1.59573">
        <ele>7.6</ele>
        <time>2020-06-12T04:49:15Z</time>
      </trkpt>
      <trkpt lat="49.08464" lon="-1.59579">
        <ele>7.6</ele>
        <time>2020-06-12T04:49:16Z</time>
      </trkpt>
      <trkpt lat="49.08468" lon="-1.59585">
        <ele>7.6</ele>
        <time>2020-06-12T04:49:17Z</time>
      </trkpt>
      <trkpt lat="49.08472" lon="-1.5959">
        <ele>7.6</ele>
        <time>2020-06-12T04:49:18Z</time>
      </trkpt>
      <trkpt lat="49.08475" lon="-1.59595">
        <ele>7.6</ele>
        <time>2020-06-12T04:49:19Z</time>
      </trkpt>
      <trkpt lat="49.08479" lon="-1.596">
        <ele>7.6</ele>
        <time>2020-06-12T04:49:20Z</time>
      </trkpt>
      <trkpt lat="49.08483" lon="-1.59604">
        <ele>7.6</ele>
        <time>2020-06-12T04:49:21Z</time>
      </trkpt>
      <trkpt lat="49.08487" lon="-1.5961">
        <ele>7.6</ele>
        <time>2020-06-12T04:49:22Z</time>
      </trkpt>
      <trkpt lat="49.08491" lon="-1.59614">
        <ele>7.6</ele>
        <time>2020-06-12T04:49:23Z</time>
      </trkpt>
      <trkpt lat="49.08495" lon="-1.59619">
        <ele>7.7</ele>
        <time>2020-06-12T04:49:24Z</time>
      </trkpt>
      <trkpt lat="49.08499" lon="-1.59625">
        <ele>7.7</ele>
        <time>2020-06-12T04:49:25Z</time>
      </trkpt>
      <trkpt lat="49.08503" lon="-1.59629">
        <ele>7.8</ele>
        <time>2020-06-12T04:49:26Z</time>
      </trkpt>
      <trkpt lat="49.08506" lon="-1.59634">
        <ele>7.8</ele>
        <time>2020-06-12T04:49:27Z</time>
      </trkpt>
      <trkpt lat="49.08509" lon="-1.59639">
        <ele>7.8</ele>
        <time>2020-06-12T04:49:28Z</time>
      </trkpt>
      <trkpt lat="49.08512" lon="-1.59643">
        <ele>7.9</ele>
        <time>2020-06-12T04:49:29Z</time>
      </trkpt>
      <trkpt lat="49.08516" lon="-1.59648">
        <ele>7.9</ele>
        <time>2020-06-12T04:49:30Z</time>
      </trkpt>
      <trkpt lat="49.08519" lon="-1.59654">
        <ele>7.9</ele>
        <time>2020-06-12T04:49:31Z</time>
      </trkpt>
      <trkpt lat="49.08523" lon="-1.5966">
        <ele>8</ele>
        <time>2020-06-12T04:49:32Z</time>
      </trkpt>
      <trkpt lat="49.08528" lon="-1.59666">
        <ele>8</ele>
        <time>2020-06-12T04:49:33Z</time>
      </trkpt>
      <trkpt lat="49.08532" lon="-1.59672">
        <ele>8</ele>
        <time>2020-06-12T04:49:34Z</time>
      </trkpt>
      <trkpt lat="49.08536" lon="-1.59678">
        <ele>8</ele>
        <time>2020-06-12T04:49:35Z</time>
      </trkpt>
      <trkpt lat="49.0854" lon="-1.59684">
        <ele>8.1</ele>
        <time>2020-06-12T04:49:36Z</time>
      </trkpt>
      <trkpt lat="49.08545" lon="-1.59689">
        <ele>8.1</ele>
        <time>2020-06-12T04:49:37Z</time>
      </trkpt>
      <trkpt lat="49.0855" lon="-1.59695">
        <ele>8.2</ele>
        <time>2020-06-12T04:49:38Z</time>
      </trkpt>
      <trkpt lat="49.08555" lon="-1.597">
        <ele>8.2</ele>
        <time>2020-06-12T04:49:39Z</time>
      </trkpt>
      <trkpt lat="49.08559" lon="-1.59705">
        <ele>8.3</ele>
        <time>2020-06-12T04:49:40Z</time>
      </trkpt>
      <trkpt lat="49.08563" lon="-1.5971">
        <ele>8.4</ele>
        <time>2020-06-12T04:49:41Z</time>
      </trkpt>
      <trkpt lat="49.08568" lon="-1.59716">
        <ele>8.4</ele>
        <time>2020-06-12T04:49:42Z</time>
      </trkpt>
      <trkpt lat="49.08572" lon="-1.59721">
        <ele>8.3</ele>
        <time>2020-06-12T04:49:43Z</time>
      </trkpt>
      <trkpt lat="49.08576" lon="-1.59725">
        <ele>8.1</ele>
        <time>2020-06-12T04:49:44Z</time>
      </trkpt>
      <trkpt lat="49.0858" lon="-1.59731">
        <ele>7.7</ele>
        <time>2020-06-12T04:49:45Z</time>
      </trkpt>
      <trkpt lat="49.08584" lon="-1.59737">
        <ele>7.5</ele>
        <time>2020-06-12T04:49:46Z</time>
      </trkpt>
      <trkpt lat="49.0859" lon="-1.59742">
        <ele>7.4</ele>
        <time>2020-06-12T04:49:47Z</time>
      </trkpt>
      <trkpt lat="49.08594" lon="-1.59747">
        <ele>7.2</ele>
        <time>2020-06-12T04:49:48Z</time>
      </trkpt>
      <trkpt lat="49.08599" lon="-1.59751">
        <ele>7.2</ele>
        <time>2020-06-12T04:49:49Z</time>
      </trkpt>
      <trkpt lat="49.08603" lon="-1.59756">
        <ele>7.1</ele>
        <time>2020-06-12T04:49:50Z</time>
      </trkpt>
      <trkpt lat="49.08607" lon="-1.59761">
        <ele>7.1</ele>
        <time>2020-06-12T04:49:51Z</time>
      </trkpt>
      <trkpt lat="49.08611" lon="-1.59766">
        <ele>7</ele>
        <time>2020-06-12T04:49:52Z</time>
      </trkpt>
      <trkpt lat="49.08614" lon="-1.59771">
        <ele>7</ele>
        <time>2020-06-12T04:49:53Z</time>
      </trkpt>
      <trkpt lat="49.08618" lon="-1.59776">
        <ele>7</ele>
        <time>2020-06-12T04:49:54Z</time>
      </trkpt>
      <trkpt lat="49.08623" lon="-1.59781">
        <ele>7</ele>
        <time>2020-06-12T04:49:55Z</time>
      </trkpt>
      <trkpt lat="49.08628" lon="-1.59786">
        <ele>6.9</ele>
        <time>2020-06-12T04:49:56Z</time>
      </trkpt>
      <trkpt lat="49.08632" lon="-1.59792">
        <ele>6.9</ele>
        <time>2020-06-12T04:49:57Z</time>
      </trkpt>
      <trkpt lat="49.08638" lon="-1.59797">
        <ele>6.9</ele>
        <time>2020-06-12T04:49:58Z</time>
      </trkpt>
      <trkpt lat="49.08644" lon="-1.59802">
        <ele>6.9</ele>
        <time>2020-06-12T04:49:59Z</time>
      </trkpt>
      <trkpt lat="49.08648" lon="-1.59807">
        <ele>6.9</ele>
        <time>2020-06-12T04:50:00Z</time>
      </trkpt>
      <trkpt lat="49.08653" lon="-1.59811">
        <ele>6.9</ele>
        <time>2020-06-12T04:50:01Z</time>
      </trkpt>
      <trkpt lat="49.08657" lon="-1.59815">
        <ele>6.9</ele>
        <time>2020-06-12T04:50:02Z</time>
      </trkpt>
      <trkpt lat="49.08662" lon="-1.59818">
        <ele>6.9</ele>
        <time>2020-06-12T04:50:03Z</time>
      </trkpt>
      <trkpt lat="49.08667" lon="-1.59822">
        <ele>6.9</ele>
        <time>2020-06-12T04:50:04Z</time>
      </trkpt>
      <trkpt lat="49.08672" lon="-1.59826">
        <ele>6.9</ele>
        <time>2020-06-12T04:50:05Z</time>
      </trkpt>
      <trkpt lat="49.08677" lon="-1.59831">
        <ele>6.9</ele>
        <time>2020-06-12T04:50:06Z</time>
      </trkpt>
      <trkpt lat="49.08681" lon="-1.59834">
        <ele>6.9</ele>
        <time>2020-06-12T04:50:07Z</time>
      </trkpt>
      <trkpt lat="49.08686" lon="-1.59838">
        <ele>6.9</ele>
        <time>2020-06-12T04:50:08Z</time>
      </trkpt>
      <trkpt lat="49.08691" lon="-1.59841">
        <ele>6.9</ele>
        <time>2020-06-12T04:50:09Z</time>
      </trkpt>
      <trkpt lat="49.08696" lon="-1.59847">
        <ele>6.9</ele>
        <time>2020-06-12T04:50:10Z</time>
      </trkpt>
      <trkpt lat="49.08701" lon="-1.59851">
        <ele>6.9</ele>
        <time>2020-06-12T04:50:11Z</time>
      </trkpt>
      <trkpt lat="49.08706" lon="-1.59854">
        <ele>6.9</ele>
        <time>2020-06-12T04:50:12Z</time>
      </trkpt>
      <trkpt lat="49.0871" lon="-1.59858">
        <ele>6.9</ele>
        <time>2020-06-12T04:50:13Z</time>
      </trkpt>
      <trkpt lat="49.08713" lon="-1.59862">
        <ele>7</ele>
        <time>2020-06-12T04:50:14Z</time>
      </trkpt>
      <trkpt lat="49.08716" lon="-1.59864">
        <ele>7</ele>
        <time>2020-06-12T04:50:15Z</time>
      </trkpt>
      <trkpt lat="49.08719" lon="-1.59869">
        <ele>7</ele>
        <time>2020-06-12T04:50:16Z</time>
      </trkpt>
      <trkpt lat="49.08723" lon="-1.59872">
        <ele>7</ele>
        <time>2020-06-12T04:50:17Z</time>
      </trkpt>
      <trkpt lat="49.08726" lon="-1.59877">
        <ele>7.1</ele>
        <time>2020-06-12T04:50:18Z</time>
      </trkpt>
      <trkpt lat="49.0873" lon="-1.59879">
        <ele>7.1</ele>
        <time>2020-06-12T04:50:19Z</time>
      </trkpt>
      <trkpt lat="49.08734" lon="-1.59881">
        <ele>7.1</ele>
        <time>2020-06-12T04:50:20Z</time>
      </trkpt>
      <trkpt lat="49.08738" lon="-1.59883">
        <ele>7.1</ele>
        <time>2020-06-12T04:50:21Z</time>
      </trkpt>
      <trkpt lat="49.08742" lon="-1.59887">
        <ele>7.2</ele>
        <time>2020-06-12T04:50:22Z</time>
      </trkpt>
      <trkpt lat="49.08746" lon="-1.5989">
        <ele>7.3</ele>
        <time>2020-06-12T04:50:23Z</time>
      </trkpt>
      <trkpt lat="49.08751" lon="-1.59893">
        <ele>7.3</ele>
        <time>2020-06-12T04:50:24Z</time>
      </trkpt>
      <trkpt lat="49.08756" lon="-1.59895">
        <ele>7.4</ele>
        <time>2020-06-12T04:50:25Z</time>
      </trkpt>
      <trkpt lat="49.0876" lon="-1.59898">
        <ele>7.6</ele>
        <time>2020-06-12T04:50:26Z</time>
      </trkpt>
      <trkpt lat="49.08764" lon="-1.59901">
        <ele>7.7</ele>
        <time>2020-06-12T04:50:27Z</time>
      </trkpt>
      <trkpt lat="49.08768" lon="-1.59903">
        <ele>7.8</ele>
        <time>2020-06-12T04:50:28Z</time>
      </trkpt>
      <trkpt lat="49.08773" lon="-1.59905">
        <ele>7.8</ele>
        <time>2020-06-12T04:50:29Z</time>
      </trkpt>
      <trkpt lat="49.08777" lon="-1.59906">
        <ele>7.8</ele>
        <time>2020-06-12T04:50:30Z</time>
      </trkpt>
      <trkpt lat="49.08782" lon="-1.5991">
        <ele>7.9</ele>
        <time>2020-06-12T04:50:31Z</time>
      </trkpt>
      <trkpt lat="49.08787" lon="-1.59913">
        <ele>7.9</ele>
        <time>2020-06-12T04:50:32Z</time>
      </trkpt>
      <trkpt lat="49.08791" lon="-1.59915">
        <ele>7.9</ele>
        <time>2020-06-12T04:50:33Z</time>
      </trkpt>
      <trkpt lat="49.08795" lon="-1.59917">
        <ele>7.9</ele>
        <time>2020-06-12T04:50:34Z</time>
      </trkpt>
      <trkpt lat="49.08799" lon="-1.59918">
        <ele>8</ele>
        <time>2020-06-12T04:50:35Z</time>
      </trkpt>
      <trkpt lat="49.08803" lon="-1.5992">
        <ele>8</ele>
        <time>2020-06-12T04:50:36Z</time>
      </trkpt>
      <trkpt lat="49.08807" lon="-1.59921">
        <ele>8.1</ele>
        <time>2020-06-12T04:50:37Z</time>
      </trkpt>
      <trkpt lat="49.0881" lon="-1.59924">
        <ele>8.1</ele>
        <time>2020-06-12T04:50:38Z</time>
      </trkpt>
      <trkpt lat="49.08812" lon="-1.59926">
        <ele>8.2</ele>
        <time>2020-06-12T04:50:39Z</time>
      </trkpt>
      <trkpt lat="49.08815" lon="-1.59928">
        <ele>8.2</ele>
        <time>2020-06-12T04:50:40Z</time>
      </trkpt>
      <trkpt lat="49.08817" lon="-1.59932">
        <ele>8.2</ele>
        <time>2020-06-12T04:50:41Z</time>
      </trkpt>
      <trkpt lat="49.08818" lon="-1.59934">
        <ele>8.2</ele>
        <time>2020-06-12T04:50:42Z</time>
      </trkpt>
      <trkpt lat="49.08818" lon="-1.59939">
        <ele>8.1</ele>
        <time>2020-06-12T04:50:43Z</time>
      </trkpt>
      <trkpt lat="49.08818" lon="-1.5994">
        <ele>8.1</ele>
        <time>2020-06-12T04:50:44Z</time>
      </trkpt>
      <trkpt lat="49.08817" lon="-1.59945">
        <ele>8.1</ele>
        <time>2020-06-12T04:50:45Z</time>
      </trkpt>
      <trkpt lat="49.08815" lon="-1.59949">
        <ele>8</ele>
        <time>2020-06-12T04:50:46Z</time>
      </trkpt>
      <trkpt lat="49.08814" lon="-1.59954">
        <ele>7.9</ele>
        <time>2020-06-12T04:50:47Z</time>
      </trkpt>
      <trkpt lat="49.08811" lon="-1.59958">
        <ele>7.9</ele>
        <time>2020-06-12T04:50:48Z</time>
      </trkpt>
      <trkpt lat="49.08809" lon="-1.59961">
        <ele>7.9</ele>
        <time>2020-06-12T04:50:49Z</time>
      </trkpt>
      <trkpt lat="49.08807" lon="-1.59964">
        <ele>7.9</ele>
        <time>2020-06-12T04:50:50Z</time>
      </trkpt>
      <trkpt lat="49.08805" lon="-1.59968">
        <ele>8</ele>
        <time>2020-06-12T04:50:51Z</time>
      </trkpt>
      <trkpt lat="49.08803" lon="-1.59971">
        <ele>8</ele>
        <time>2020-06-12T04:50:52Z</time>
      </trkpt>
      <trkpt lat="49.08802" lon="-1.59973">
        <ele>8</ele>
        <time>2020-06-12T04:50:53Z</time>
      </trkpt>
      <trkpt lat="49.08801" lon="-1.59975">
        <ele>8.1</ele>
        <time>2020-06-12T04:50:54Z</time>
      </trkpt>
      <trkpt lat="49.08801" lon="-1.59976">
        <ele>8.1</ele>
        <time>2020-06-12T04:50:55Z</time>
      </trkpt>
      <trkpt lat="49.08801" lon="-1.59975">
        <ele>8.1</ele>
        <time>2020-06-12T04:50:56Z</time>
      </trkpt>
      <trkpt lat="49.08801" lon="-1.59975">
        <ele>8.1</ele>
        <time>2020-06-12T04:50:57Z</time>
      </trkpt>
      <trkpt lat="49.08802" lon="-1.59975">
        <ele>8.1</ele>
        <time>2020-06-12T04:50:58Z</time>
      </trkpt>
      <trkpt lat="49.08803" lon="-1.59974">
        <ele>8.1</ele>
        <time>2020-06-12T04:50:59Z</time>
      </trkpt>
      <trkpt lat="49.08803" lon="-1.59974">
        <ele>8.1</ele>
        <time>2020-06-12T04:51:00Z</time>
      </trkpt>
      <trkpt lat="49.08804" lon="-1.59974">
        <ele>8.1</ele>
        <time>2020-06-12T04:51:01Z</time>
      </trkpt>
      <trkpt lat="49.08805" lon="-1.59973">
        <ele>8.1</ele>
        <time>2020-06-12T04:51:02Z</time>
      </trkpt>
      <trkpt lat="49.08805" lon="-1.59973">
        <ele>8.1</ele>
        <time>2020-06-12T04:51:03Z</time>
      </trkpt>
      <trkpt lat="49.08805" lon="-1.59973">
        <ele>8.1</ele>
        <time>2020-06-12T04:51:04Z</time>
      </trkpt>
      <trkpt lat="49.08805" lon="-1.59973">
        <ele>8.1</ele>
        <time>2020-06-12T04:51:05Z</time>
      </trkpt>
      <trkpt lat="49.08789" lon="-1.6">
        <ele>6.4</ele>
        <time>2020-06-12T04:56:09Z</time>
      </trkpt>
      <trkpt lat="49.08789" lon="-1.6">
        <ele>6.4</ele>
        <time>2020-06-12T04:56:10Z</time>
      </trkpt>
      <trkpt lat="49.08789" lon="-1.6">
        <ele>6.4</ele>
        <time>2020-06-12T04:56:11Z</time>
      </trkpt>
      <trkpt lat="49.08789" lon="-1.6">
        <ele>6.4</ele>
        <time>2020-06-12T04:56:12Z</time>
      </trkpt>
      <trkpt lat="49.08789" lon="-1.6">
        <ele>6.4</ele>
        <time>2020-06-12T04:56:13Z</time>
      </trkpt>
      <trkpt lat="49.08789" lon="-1.6">
        <ele>6.4</ele>
        <time>2020-06-12T04:56:14Z</time>
      </trkpt>
      <trkpt lat="49.08789" lon="-1.6">
        <ele>6.4</ele>
        <time>2020-06-12T04:56:15Z</time>
      </trkpt>
      <trkpt lat="49.08789" lon="-1.6">
        <ele>6.4</ele>
        <time>2020-06-12T04:56:16Z</time>
      </trkpt>
      <trkpt lat="49.08789" lon="-1.6">
        <ele>6.4</ele>
        <time>2020-06-12T04:56:17Z</time>
      </trkpt>
      <trkpt lat="49.08789" lon="-1.6">
        <ele>6.4</ele>
        <time>2020-06-12T04:56:18Z</time>
      </trkpt>
      <trkpt lat="49.08789" lon="-1.6">
        <ele>6.4</ele>
        <time>2020-06-12T04:56:19Z</time>
      </trkpt>
      <trkpt lat="49.08789" lon="-1.6">
        <ele>6.4</ele>
        <time>2020-06-12T04:56:20Z</time>
      </trkpt>
      <trkpt lat="49.08789" lon="-1.6">
        <ele>6.4</ele>
        <time>2020-06-12T04:56:21Z</time>
      </trkpt>
      <trkpt lat="49.08789" lon="-1.60001">
        <ele>6.4</ele>
        <time>2020-06-12T04:56:22Z</time>
      </trkpt>
      <trkpt lat="49.08789" lon="-1.60001">
        <ele>6.4</ele>
        <time>2020-06-12T04:56:23Z</time>
      </trkpt>
      <trkpt lat="49.088" lon="-1.60008">
        <ele>6.3</ele>
        <time>2020-06-12T04:58:59Z</time>
      </trkpt>
      <trkpt lat="49.08801" lon="-1.60007">
        <ele>6.3</ele>
        <time>2020-06-12T04:59:00Z</time>
      </trkpt>
      <trkpt lat="49.08801" lon="-1.60007">
        <ele>6.4</ele>
        <time>2020-06-12T04:59:01Z</time>
      </trkpt>
      <trkpt lat="49.08802" lon="-1.60007">
        <ele>6.4</ele>
        <time>2020-06-12T04:59:02Z</time>
      </trkpt>
      <trkpt lat="49.08802" lon="-1.60006">
        <ele>6.4</ele>
        <time>2020-06-12T04:59:03Z</time>
      </trkpt>
      <trkpt lat="49.08803" lon="-1.60005">
        <ele>6.5</ele>
        <time>2020-06-12T04:59:04Z</time>
      </trkpt>
      <trkpt lat="49.08802" lon="-1.60005">
        <ele>6.6</ele>
        <time>2020-06-12T04:59:05Z</time>
      </trkpt>
      <trkpt lat="49.088" lon="-1.60003">
        <ele>6.7</ele>
        <time>2020-06-12T04:59:06Z</time>
      </trkpt>
      <trkpt lat="49.088" lon="-1.59998">
        <ele>6.9</ele>
        <time>2020-06-12T04:59:07Z</time>
      </trkpt>
      <trkpt lat="49.088" lon="-1.59995">
        <ele>7</ele>
        <time>2020-06-12T04:59:08Z</time>
      </trkpt>
      <trkpt lat="49.088" lon="-1.59994">
        <ele>7</ele>
        <time>2020-06-12T04:59:09Z</time>
      </trkpt>
      <trkpt lat="49.088" lon="-1.59994">
        <ele>7</ele>
        <time>2020-06-12T04:59:10Z</time>
      </trkpt>
      <trkpt lat="49.088" lon="-1.59993">
        <ele>7.1</ele>
        <time>2020-06-12T04:59:11Z</time>
      </trkpt>
      <trkpt lat="49.088" lon="-1.5999">
        <ele>7.2</ele>
        <time>2020-06-12T04:59:12Z</time>
      </trkpt>
      <trkpt lat="49.088" lon="-1.59988">
        <ele>7.3</ele>
        <time>2020-06-12T04:59:13Z</time>
      </trkpt>
      <trkpt lat="49.088" lon="-1.59986">
        <ele>7.4</ele>
        <time>2020-06-12T04:59:14Z</time>
      </trkpt>
      <trkpt lat="49.088" lon="-1.59984">
        <ele>7.4</ele>
        <time>2020-06-12T04:59:15Z</time>
      </trkpt>
      <trkpt lat="49.088" lon="-1.59984">
        <ele>7.4</ele>
        <time>2020-06-12T04:59:16Z</time>
      </trkpt>
      <trkpt lat="49.088" lon="-1.59983">
        <ele>7.5</ele>
        <time>2020-06-12T04:59:17Z</time>
      </trkpt>
      <trkpt lat="49.088" lon="-1.59969">
        <ele>7.9</ele>
        <time>2020-06-12T05:01:06Z</time>
      </trkpt>
      <trkpt lat="49.08799" lon="-1.59965">
        <ele>8</ele>
        <time>2020-06-12T05:01:07Z</time>
      </trkpt>
      <trkpt lat="49.08799" lon="-1.59962">
        <ele>8.1</ele>
        <time>2020-06-12T05:01:08Z</time>
      </trkpt>
      <trkpt lat="49.08799" lon="-1.5996">
        <ele>8.2</ele>
        <time>2020-06-12T05:01:09Z</time>
      </trkpt>
      <trkpt lat="49.08799" lon="-1.59958">
        <ele>8.3</ele>
        <time>2020-06-12T05:01:10Z</time>
      </trkpt>
      <trkpt lat="49.08799" lon="-1.59953">
        <ele>7.9</ele>
        <time>2020-06-12T05:01:11Z</time>
      </trkpt>
      <trkpt lat="49.088" lon="-1.59952">
        <ele>7.9</ele>
        <time>2020-06-12T05:01:12Z</time>
      </trkpt>
      <trkpt lat="49.08801" lon="-1.59946">
        <ele>8</ele>
        <time>2020-06-12T05:01:13Z</time>
      </trkpt>
      <trkpt lat="49.08802" lon="-1.59942">
        <ele>8.1</ele>
        <time>2020-06-12T05:01:14Z</time>
      </trkpt>
      <trkpt lat="49.08804" lon="-1.59939">
        <ele>8.1</ele>
        <time>2020-06-12T05:01:15Z</time>
      </trkpt>
      <trkpt lat="49.08807" lon="-1.59934">
        <ele>8.2</ele>
        <time>2020-06-12T05:01:16Z</time>
      </trkpt>
      <trkpt lat="49.08807" lon="-1.59932">
        <ele>8.2</ele>
        <time>2020-06-12T05:01:17Z</time>
      </trkpt>
      <trkpt lat="49.08809" lon="-1.59928">
        <ele>8.2</ele>
        <time>2020-06-12T05:01:18Z</time>
      </trkpt>
      <trkpt lat="49.0881" lon="-1.59924">
        <ele>8.2</ele>
        <time>2020-06-12T05:01:19Z</time>
      </trkpt>
      <trkpt lat="49.08813" lon="-1.59918">
        <ele>8.2</ele>
        <time>2020-06-12T05:01:20Z</time>
      </trkpt>
      <trkpt lat="49.08814" lon="-1.59916">
        <ele>8.2</ele>
        <time>2020-06-12T05:01:21Z</time>
      </trkpt>
      <trkpt lat="49.08817" lon="-1.59909">
        <ele>8.2</ele>
        <time>2020-06-12T05:01:22Z</time>
      </trkpt>
      <trkpt lat="49.08819" lon="-1.59903">
        <ele>8.2</ele>
        <time>2020-06-12T05:01:23Z</time>
      </trkpt>
      <trkpt lat="49.08821" lon="-1.59896">
        <ele>8.2</ele>
        <time>2020-06-12T05:01:24Z</time>
      </trkpt>
      <trkpt lat="49.08823" lon="-1.5989">
        <ele>8.1</ele>
        <time>2020-06-12T05:01:25Z</time>
      </trkpt>
      <trkpt lat="49.08825" lon="-1.59884">
        <ele>8</ele>
        <time>2020-06-12T05:01:26Z</time>
      </trkpt>
      <trkpt lat="49.08826" lon="-1.59876">
        <ele>7.9</ele>
        <time>2020-06-12T05:01:27Z</time>
      </trkpt>
      <trkpt lat="49.08829" lon="-1.59869">
        <ele>7.7</ele>
        <time>2020-06-12T05:01:28Z</time>
      </trkpt>
      <trkpt lat="49.08833" lon="-1.59859">
        <ele>7.5</ele>
        <time>2020-06-12T05:01:29Z</time>
      </trkpt>
      <trkpt lat="49.08836" lon="-1.59849">
        <ele>7.3</ele>
        <time>2020-06-12T05:01:30Z</time>
      </trkpt>
      <trkpt lat="49.08839" lon="-1.59839">
        <ele>7.1</ele>
        <time>2020-06-12T05:01:31Z</time>
      </trkpt>
      <trkpt lat="49.08841" lon="-1.59831">
        <ele>7.1</ele>
        <time>2020-06-12T05:01:32Z</time>
      </trkpt>
      <trkpt lat="49.08844" lon="-1.59823">
        <ele>7</ele>
        <time>2020-06-12T05:01:33Z</time>
      </trkpt>
      <trkpt lat="49.08847" lon="-1.59816">
        <ele>6.6</ele>
        <time>2020-06-12T05:01:34Z</time>
      </trkpt>
      <trkpt lat="49.08849" lon="-1.59809">
        <ele>6.4</ele>
        <time>2020-06-12T05:01:35Z</time>
      </trkpt>
      <trkpt lat="49.08852" lon="-1.59802">
        <ele>6.3</ele>
        <time>2020-06-12T05:01:36Z</time>
      </trkpt>
      <trkpt lat="49.08856" lon="-1.59796">
        <ele>6.4</ele>
        <time>2020-06-12T05:01:37Z</time>
      </trkpt>
      <trkpt lat="49.08858" lon="-1.5979">
        <ele>6.5</ele>
        <time>2020-06-12T05:01:38Z</time>
      </trkpt>
      <trkpt lat="49.0886" lon="-1.59786">
        <ele>6.6</ele>
        <time>2020-06-12T05:01:39Z</time>
      </trkpt>
      <trkpt lat="49.08861" lon="-1.59781">
        <ele>6.8</ele>
        <time>2020-06-12T05:01:40Z</time>
      </trkpt>
      <trkpt lat="49.08861" lon="-1.5978">
        <ele>6.8</ele>
        <time>2020-06-12T05:01:41Z</time>
      </trkpt>
      <trkpt lat="49.08862" lon="-1.59775">
        <ele>6.9</ele>
        <time>2020-06-12T05:01:42Z</time>
      </trkpt>
      <trkpt lat="49.08862" lon="-1.59771">
        <ele>7</ele>
        <time>2020-06-12T05:01:43Z</time>
      </trkpt>
      <trkpt lat="49.08864" lon="-1.59764">
        <ele>7.1</ele>
        <time>2020-06-12T05:01:44Z</time>
      </trkpt>
      <trkpt lat="49.08864" lon="-1.59758">
        <ele>7.2</ele>
        <time>2020-06-12T05:01:45Z</time>
      </trkpt>
      <trkpt lat="49.08865" lon="-1.59753">
        <ele>7.3</ele>
        <time>2020-06-12T05:01:46Z</time>
      </trkpt>
      <trkpt lat="49.08866" lon="-1.59747">
        <ele>7.5</ele>
        <time>2020-06-12T05:01:47Z</time>
      </trkpt>
      <trkpt lat="49.08868" lon="-1.59741">
        <ele>7.6</ele>
        <time>2020-06-12T05:01:48Z</time>
      </trkpt>
      <trkpt lat="49.08869" lon="-1.59736">
        <ele>7.7</ele>
        <time>2020-06-12T05:01:49Z</time>
      </trkpt>
      <trkpt lat="49.0887" lon="-1.5973">
        <ele>7.8</ele>
        <time>2020-06-12T05:01:50Z</time>
      </trkpt>
      <trkpt lat="49.08871" lon="-1.59725">
        <ele>7.9</ele>
        <time>2020-06-12T05:01:51Z</time>
      </trkpt>
      <trkpt lat="49.08872" lon="-1.59719">
        <ele>8</ele>
        <time>2020-06-12T05:01:52Z</time>
      </trkpt>
      <trkpt lat="49.08873" lon="-1.59715">
        <ele>8.1</ele>
        <time>2020-06-12T05:01:53Z</time>
      </trkpt>
      <trkpt lat="49.08874" lon="-1.59711">
        <ele>8.2</ele>
        <time>2020-06-12T05:01:54Z</time>
      </trkpt>
      <trkpt lat="49.08875" lon="-1.59705">
        <ele>8.1</ele>
        <time>2020-06-12T05:01:55Z</time>
      </trkpt>
      <trkpt lat="49.08875" lon="-1.59703">
        <ele>7.9</ele>
        <time>2020-06-12T05:01:56Z</time>
      </trkpt>
      <trkpt lat="49.08876" lon="-1.59697">
        <ele>7.8</ele>
        <time>2020-06-12T05:01:57Z</time>
      </trkpt>
      <trkpt lat="49.08876" lon="-1.59688">
        <ele>7.7</ele>
        <time>2020-06-12T05:01:58Z</time>
      </trkpt>
      <trkpt lat="49.08879" lon="-1.59683">
        <ele>7.5</ele>
        <time>2020-06-12T05:01:59Z</time>
      </trkpt>
      <trkpt lat="49.08882" lon="-1.59681">
        <ele>7.4</ele>
        <time>2020-06-12T05:02:00Z</time>
      </trkpt>
      <trkpt lat="49.08885" lon="-1.5968">
        <ele>7.3</ele>
        <time>2020-06-12T05:02:01Z</time>
      </trkpt>
      <trkpt lat="49.08888" lon="-1.59676">
        <ele>7.2</ele>
        <time>2020-06-12T05:02:02Z</time>
      </trkpt>
      <trkpt lat="49.08892" lon="-1.59673">
        <ele>7.1</ele>
        <time>2020-06-12T05:02:03Z</time>
      </trkpt>
      <trkpt lat="49.08896" lon="-1.5967">
        <ele>7</ele>
        <time>2020-06-12T05:02:04Z</time>
      </trkpt>
      <trkpt lat="49.08899" lon="-1.5967">
        <ele>6.9</ele>
        <time>2020-06-12T05:02:05Z</time>
      </trkpt>
      <trkpt lat="49.08903" lon="-1.5967">
        <ele>6.8</ele>
        <time>2020-06-12T05:02:06Z</time>
      </trkpt>
      <trkpt lat="49.08907" lon="-1.59669">
        <ele>6.8</ele>
        <time>2020-06-12T05:02:07Z</time>
      </trkpt>
      <trkpt lat="49.08911" lon="-1.5967">
        <ele>6.8</ele>
        <time>2020-06-12T05:02:08Z</time>
      </trkpt>
      <trkpt lat="49.08916" lon="-1.5967">
        <ele>6.8</ele>
        <time>2020-06-12T05:02:09Z</time>
      </trkpt>
      <trkpt lat="49.0892" lon="-1.59671">
        <ele>6.9</ele>
        <time>2020-06-12T05:02:10Z</time>
      </trkpt>
      <trkpt lat="49.08924" lon="-1.59672">
        <ele>7</ele>
        <time>2020-06-12T05:02:11Z</time>
      </trkpt>
      <trkpt lat="49.08928" lon="-1.59673">
        <ele>7.1</ele>
        <time>2020-06-12T05:02:12Z</time>
      </trkpt>
      <trkpt lat="49.08931" lon="-1.59674">
        <ele>7.2</ele>
        <time>2020-06-12T05:02:13Z</time>
      </trkpt>
      <trkpt lat="49.08936" lon="-1.59674">
        <ele>7.3</ele>
        <time>2020-06-12T05:02:14Z</time>
      </trkpt>
      <trkpt lat="49.08941" lon="-1.59671">
        <ele>7.4</ele>
        <time>2020-06-12T05:02:15Z</time>
      </trkpt>
      <trkpt lat="49.08946" lon="-1.59672">
        <ele>7.5</ele>
        <time>2020-06-12T05:02:16Z</time>
      </trkpt>
      <trkpt lat="49.0895" lon="-1.59672">
        <ele>7.6</ele>
        <time>2020-06-12T05:02:17Z</time>
      </trkpt>
      <trkpt lat="49.08953" lon="-1.59675">
        <ele>7.6</ele>
        <time>2020-06-12T05:02:18Z</time>
      </trkpt>
      <trkpt lat="49.08957" lon="-1.59676">
        <ele>7.7</ele>
        <time>2020-06-12T05:02:19Z</time>
      </trkpt>
      <trkpt lat="49.08962" lon="-1.59676">
        <ele>7.7</ele>
        <time>2020-06-12T05:02:20Z</time>
      </trkpt>
      <trkpt lat="49.08966" lon="-1.59676">
        <ele>7.8</ele>
        <time>2020-06-12T05:02:21Z</time>
      </trkpt>
      <trkpt lat="49.08971" lon="-1.59676">
        <ele>7.8</ele>
        <time>2020-06-12T05:02:22Z</time>
      </trkpt>
      <trkpt lat="49.08975" lon="-1.59675">
        <ele>7.9</ele>
        <time>2020-06-12T05:02:23Z</time>
      </trkpt>
      <trkpt lat="49.0898" lon="-1.59676">
        <ele>7.9</ele>
        <time>2020-06-12T05:02:24Z</time>
      </trkpt>
      <trkpt lat="49.08985" lon="-1.59675">
        <ele>8</ele>
        <time>2020-06-12T05:02:25Z</time>
      </trkpt>
      <trkpt lat="49.08989" lon="-1.59675">
        <ele>8.1</ele>
        <time>2020-06-12T05:02:26Z</time>
      </trkpt>
      <trkpt lat="49.08993" lon="-1.59674">
        <ele>8.3</ele>
        <time>2020-06-12T05:02:27Z</time>
      </trkpt>
      <trkpt lat="49.08996" lon="-1.59674">
        <ele>8.4</ele>
        <time>2020-06-12T05:02:28Z</time>
      </trkpt>
      <trkpt lat="49.09" lon="-1.59674">
        <ele>8.5</ele>
        <time>2020-06-12T05:02:29Z</time>
      </trkpt>
      <trkpt lat="49.09004" lon="-1.59672">
        <ele>8.6</ele>
        <time>2020-06-12T05:02:30Z</time>
      </trkpt>
      <trkpt lat="49.09008" lon="-1.5967">
        <ele>8.7</ele>
        <time>2020-06-12T05:02:31Z</time>
      </trkpt>
      <trkpt lat="49.09012" lon="-1.59669">
        <ele>8.8</ele>
        <time>2020-06-12T05:02:32Z</time>
      </trkpt>
      <trkpt lat="49.09016" lon="-1.59666">
        <ele>8.9</ele>
        <time>2020-06-12T05:02:33Z</time>
      </trkpt>
      <trkpt lat="49.09018" lon="-1.59664">
        <ele>8.8</ele>
        <time>2020-06-12T05:02:34Z</time>
      </trkpt>
      <trkpt lat="49.0902" lon="-1.5966">
        <ele>8.6</ele>
        <time>2020-06-12T05:02:35Z</time>
      </trkpt>
      <trkpt lat="49.0902" lon="-1.59655">
        <ele>8.4</ele>
        <time>2020-06-12T05:02:36Z</time>
      </trkpt>
      <trkpt lat="49.09019" lon="-1.5965">
        <ele>8.2</ele>
        <time>2020-06-12T05:02:37Z</time>
      </trkpt>
      <trkpt lat="49.09018" lon="-1.59645">
        <ele>8.1</ele>
        <time>2020-06-12T05:02:38Z</time>
      </trkpt>
      <trkpt lat="49.09017" lon="-1.59639">
        <ele>7.9</ele>
        <time>2020-06-12T05:02:39Z</time>
      </trkpt>
      <trkpt lat="49.09015" lon="-1.59633">
        <ele>7.7</ele>
        <time>2020-06-12T05:02:40Z</time>
      </trkpt>
      <trkpt lat="49.09014" lon="-1.59627">
        <ele>7.6</ele>
        <time>2020-06-12T05:02:41Z</time>
      </trkpt>
      <trkpt lat="49.09012" lon="-1.59619">
        <ele>7.5</ele>
        <time>2020-06-12T05:02:42Z</time>
      </trkpt>
      <trkpt lat="49.09011" lon="-1.59612">
        <ele>7.4</ele>
        <time>2020-06-12T05:02:43Z</time>
      </trkpt>
      <trkpt lat="49.0901" lon="-1.59606">
        <ele>7.5</ele>
        <time>2020-06-12T05:02:44Z</time>
      </trkpt>
      <trkpt lat="49.09009" lon="-1.59598">
        <ele>7.5</ele>
        <time>2020-06-12T05:02:45Z</time>
      </trkpt>
      <trkpt lat="49.09007" lon="-1.59592">
        <ele>7.6</ele>
        <time>2020-06-12T05:02:46Z</time>
      </trkpt>
      <trkpt lat="49.09006" lon="-1.59584">
        <ele>7.8</ele>
        <time>2020-06-12T05:02:47Z</time>
      </trkpt>
      <trkpt lat="49.09005" lon="-1.59577">
        <ele>7.9</ele>
        <time>2020-06-12T05:02:48Z</time>
      </trkpt>
      <trkpt lat="49.09005" lon="-1.5957">
        <ele>7.9</ele>
        <time>2020-06-12T05:02:49Z</time>
      </trkpt>
      <trkpt lat="49.09005" lon="-1.59564">
        <ele>8</ele>
        <time>2020-06-12T05:02:50Z</time>
      </trkpt>
      <trkpt lat="49.09005" lon="-1.59558">
        <ele>8</ele>
        <time>2020-06-12T05:02:51Z</time>
      </trkpt>
      <trkpt lat="49.09003" lon="-1.59551">
        <ele>7.9</ele>
        <time>2020-06-12T05:02:52Z</time>
      </trkpt>
      <trkpt lat="49.09002" lon="-1.59544">
        <ele>7.9</ele>
        <time>2020-06-12T05:02:53Z</time>
      </trkpt>
      <trkpt lat="49.09001" lon="-1.59538">
        <ele>7.9</ele>
        <time>2020-06-12T05:02:54Z</time>
      </trkpt>
      <trkpt lat="49.09002" lon="-1.5953">
        <ele>7.9</ele>
        <time>2020-06-12T05:02:55Z</time>
      </trkpt>
      <trkpt lat="49.09001" lon="-1.59523">
        <ele>7.9</ele>
        <time>2020-06-12T05:02:56Z</time>
      </trkpt>
      <trkpt lat="49.09" lon="-1.59514">
        <ele>7.9</ele>
        <time>2020-06-12T05:02:57Z</time>
      </trkpt>
      <trkpt lat="49.09" lon="-1.59506">
        <ele>7.8</ele>
        <time>2020-06-12T05:02:58Z</time>
      </trkpt>
      <trkpt lat="49.09" lon="-1.59498">
        <ele>7.8</ele>
        <time>2020-06-12T05:02:59Z</time>
      </trkpt>
      <trkpt lat="49.08999" lon="-1.59492">
        <ele>7.9</ele>
        <time>2020-06-12T05:03:00Z</time>
      </trkpt>
      <trkpt lat="49.08999" lon="-1.59487">
        <ele>7.9</ele>
        <time>2020-06-12T05:03:01Z</time>
      </trkpt>
      <trkpt lat="49.08997" lon="-1.59481">
        <ele>7.9</ele>
        <time>2020-06-12T05:03:02Z</time>
      </trkpt>
      <trkpt lat="49.08996" lon="-1.59475">
        <ele>7.9</ele>
        <time>2020-06-12T05:03:03Z</time>
      </trkpt>
      <trkpt lat="49.08996" lon="-1.59469">
        <ele>7.9</ele>
        <time>2020-06-12T05:03:04Z</time>
      </trkpt>
      <trkpt lat="49.08995" lon="-1.59462">
        <ele>7.9</ele>
        <time>2020-06-12T05:03:05Z</time>
      </trkpt>
      <trkpt lat="49.08994" lon="-1.59456">
        <ele>7.8</ele>
        <time>2020-06-12T05:03:06Z</time>
      </trkpt>
      <trkpt lat="49.08993" lon="-1.59451">
        <ele>7.8</ele>
        <time>2020-06-12T05:03:07Z</time>
      </trkpt>
      <trkpt lat="49.08991" lon="-1.59445">
        <ele>7.8</ele>
        <time>2020-06-12T05:03:08Z</time>
      </trkpt>
      <trkpt lat="49.0899" lon="-1.59438">
        <ele>7.7</ele>
        <time>2020-06-12T05:03:09Z</time>
      </trkpt>
      <trkpt lat="49.08989" lon="-1.59431">
        <ele>7.7</ele>
        <time>2020-06-12T05:03:10Z</time>
      </trkpt>
      <trkpt lat="49.08988" lon="-1.59425">
        <ele>7.8</ele>
        <time>2020-06-12T05:03:11Z</time>
      </trkpt>
      <trkpt lat="49.08987" lon="-1.59419">
        <ele>7.8</ele>
        <time>2020-06-12T05:03:12Z</time>
      </trkpt>
      <trkpt lat="49.08986" lon="-1.59414">
        <ele>7.8</ele>
        <time>2020-06-12T05:03:13Z</time>
      </trkpt>
      <trkpt lat="49.08985" lon="-1.59409">
        <ele>7.8</ele>
        <time>2020-06-12T05:03:14Z</time>
      </trkpt>
      <trkpt lat="49.08984" lon="-1.59403">
        <ele>7.9</ele>
        <time>2020-06-12T05:03:15Z</time>
      </trkpt>
      <trkpt lat="49.08983" lon="-1.59398">
        <ele>7.9</ele>
        <time>2020-06-12T05:03:16Z</time>
      </trkpt>
      <trkpt lat="49.08982" lon="-1.59391">
        <ele>8</ele>
        <time>2020-06-12T05:03:17Z</time>
      </trkpt>
      <trkpt lat="49.0898" lon="-1.59381">
        <ele>8.1</ele>
        <time>2020-06-12T05:03:18Z</time>
      </trkpt>
      <trkpt lat="49.0898" lon="-1.59374">
        <ele>8.1</ele>
        <time>2020-06-12T05:03:19Z</time>
      </trkpt>
      <trkpt lat="49.08979" lon="-1.59366">
        <ele>8.1</ele>
        <time>2020-06-12T05:03:20Z</time>
      </trkpt>
      <trkpt lat="49.08979" lon="-1.59358">
        <ele>8</ele>
        <time>2020-06-12T05:03:21Z</time>
      </trkpt>
      <trkpt lat="49.08981" lon="-1.59351">
        <ele>8</ele>
        <time>2020-06-12T05:03:22Z</time>
      </trkpt>
      <trkpt lat="49.08981" lon="-1.59343">
        <ele>7.9</ele>
        <time>2020-06-12T05:03:23Z</time>
      </trkpt>
      <trkpt lat="49.08982" lon="-1.59337">
        <ele>7.9</ele>
        <time>2020-06-12T05:03:24Z</time>
      </trkpt>
      <trkpt lat="49.08982" lon="-1.5933">
        <ele>8</ele>
        <time>2020-06-12T05:03:25Z</time>
      </trkpt>
      <trkpt lat="49.08983" lon="-1.59324">
        <ele>8</ele>
        <time>2020-06-12T05:03:26Z</time>
      </trkpt>
      <trkpt lat="49.08984" lon="-1.59317">
        <ele>8.1</ele>
        <time>2020-06-12T05:03:27Z</time>
      </trkpt>
      <trkpt lat="49.08985" lon="-1.59308">
        <ele>8.1</ele>
        <time>2020-06-12T05:03:28Z</time>
      </trkpt>
      <trkpt lat="49.08986" lon="-1.593">
        <ele>8.2</ele>
        <time>2020-06-12T05:03:29Z</time>
      </trkpt>
      <trkpt lat="49.08987" lon="-1.59293">
        <ele>8.3</ele>
        <time>2020-06-12T05:03:30Z</time>
      </trkpt>
      <trkpt lat="49.08987" lon="-1.59286">
        <ele>8.4</ele>
        <time>2020-06-12T05:03:31Z</time>
      </trkpt>
      <trkpt lat="49.08987" lon="-1.59279">
        <ele>8.4</ele>
        <time>2020-06-12T05:03:32Z</time>
      </trkpt>
      <trkpt lat="49.08988" lon="-1.59273">
        <ele>8.4</ele>
        <time>2020-06-12T05:03:33Z</time>
      </trkpt>
      <trkpt lat="49.08988" lon="-1.59266">
        <ele>8.5</ele>
        <time>2020-06-12T05:03:34Z</time>
      </trkpt>
      <trkpt lat="49.08988" lon="-1.59258">
        <ele>8.5</ele>
        <time>2020-06-12T05:03:35Z</time>
      </trkpt>
      <trkpt lat="49.08989" lon="-1.59252">
        <ele>8.5</ele>
        <time>2020-06-12T05:03:36Z</time>
      </trkpt>
      <trkpt lat="49.08988" lon="-1.59243">
        <ele>8.5</ele>
        <time>2020-06-12T05:03:37Z</time>
      </trkpt>
      <trkpt lat="49.08988" lon="-1.59233">
        <ele>8.4</ele>
        <time>2020-06-12T05:03:38Z</time>
      </trkpt>
      <trkpt lat="49.08987" lon="-1.59224">
        <ele>8.4</ele>
        <time>2020-06-12T05:03:39Z</time>
      </trkpt>
      <trkpt lat="49.08986" lon="-1.59213">
        <ele>8.4</ele>
        <time>2020-06-12T05:03:40Z</time>
      </trkpt>
      <trkpt lat="49.08986" lon="-1.59204">
        <ele>8.3</ele>
        <time>2020-06-12T05:03:41Z</time>
      </trkpt>
      <trkpt lat="49.08986" lon="-1.59194">
        <ele>8.3</ele>
        <time>2020-06-12T05:03:42Z</time>
      </trkpt>
      <trkpt lat="49.08986" lon="-1.59185">
        <ele>8.3</ele>
        <time>2020-06-12T05:03:43Z</time>
      </trkpt>
      <trkpt lat="49.08985" lon="-1.59175">
        <ele>8.3</ele>
        <time>2020-06-12T05:03:44Z</time>
      </trkpt>
      <trkpt lat="49.08985" lon="-1.59166">
        <ele>8.4</ele>
        <time>2020-06-12T05:03:45Z</time>
      </trkpt>
      <trkpt lat="49.08984" lon="-1.59157">
        <ele>8.5</ele>
        <time>2020-06-12T05:03:46Z</time>
      </trkpt>
      <trkpt lat="49.08982" lon="-1.59149">
        <ele>8.6</ele>
        <time>2020-06-12T05:03:47Z</time>
      </trkpt>
      <trkpt lat="49.08982" lon="-1.59141">
        <ele>8.7</ele>
        <time>2020-06-12T05:03:48Z</time>
      </trkpt>
      <trkpt lat="49.08982" lon="-1.59135">
        <ele>8.7</ele>
        <time>2020-06-12T05:03:49Z</time>
      </trkpt>
      <trkpt lat="49.08983" lon="-1.59128">
        <ele>8.8</ele>
        <time>2020-06-12T05:03:50Z</time>
      </trkpt>
      <trkpt lat="49.08985" lon="-1.59122">
        <ele>8.7</ele>
        <time>2020-06-12T05:03:51Z</time>
      </trkpt>
      <trkpt lat="49.08986" lon="-1.59116">
        <ele>8.7</ele>
        <time>2020-06-12T05:03:52Z</time>
      </trkpt>
      <trkpt lat="49.08987" lon="-1.5911">
        <ele>8.6</ele>
        <time>2020-06-12T05:03:53Z</time>
      </trkpt>
      <trkpt lat="49.08988" lon="-1.59104">
        <ele>8.5</ele>
        <time>2020-06-12T05:03:54Z</time>
      </trkpt>
      <trkpt lat="49.08989" lon="-1.59098">
        <ele>8.4</ele>
        <time>2020-06-12T05:03:55Z</time>
      </trkpt>
      <trkpt lat="49.08989" lon="-1.59093">
        <ele>8.4</ele>
        <time>2020-06-12T05:03:56Z</time>
      </trkpt>
      <trkpt lat="49.0899" lon="-1.59087">
        <ele>8.4</ele>
        <time>2020-06-12T05:03:57Z</time>
      </trkpt>
      <trkpt lat="49.0899" lon="-1.59082">
        <ele>8.5</ele>
        <time>2020-06-12T05:03:58Z</time>
      </trkpt>
      <trkpt lat="49.08989" lon="-1.59077">
        <ele>8.5</ele>
        <time>2020-06-12T05:03:59Z</time>
      </trkpt>
      <trkpt lat="49.08989" lon="-1.59072">
        <ele>8.6</ele>
        <time>2020-06-12T05:04:00Z</time>
      </trkpt>
      <trkpt lat="49.08987" lon="-1.59067">
        <ele>8.7</ele>
        <time>2020-06-12T05:04:01Z</time>
      </trkpt>
      <trkpt lat="49.08985" lon="-1.59062">
        <ele>8.8</ele>
        <time>2020-06-12T05:04:02Z</time>
      </trkpt>
      <trkpt lat="49.08985" lon="-1.59056">
        <ele>9</ele>
        <time>2020-06-12T05:04:03Z</time>
      </trkpt>
      <trkpt lat="49.08984" lon="-1.5905">
        <ele>9.1</ele>
        <time>2020-06-12T05:04:04Z</time>
      </trkpt>
      <trkpt lat="49.08982" lon="-1.59044">
        <ele>9.2</ele>
        <time>2020-06-12T05:04:05Z</time>
      </trkpt>
      <trkpt lat="49.0898" lon="-1.59036">
        <ele>9.3</ele>
        <time>2020-06-12T05:04:06Z</time>
      </trkpt>
      <trkpt lat="49.08978" lon="-1.59027">
        <ele>9.3</ele>
        <time>2020-06-12T05:04:07Z</time>
      </trkpt>
      <trkpt lat="49.08977" lon="-1.59019">
        <ele>9.3</ele>
        <time>2020-06-12T05:04:08Z</time>
      </trkpt>
      <trkpt lat="49.08976" lon="-1.5901">
        <ele>9.3</ele>
        <time>2020-06-12T05:04:09Z</time>
      </trkpt>
      <trkpt lat="49.08975" lon="-1.58998">
        <ele>9.3</ele>
        <time>2020-06-12T05:04:10Z</time>
      </trkpt>
      <trkpt lat="49.08974" lon="-1.58989">
        <ele>9.2</ele>
        <time>2020-06-12T05:04:11Z</time>
      </trkpt>
      <trkpt lat="49.08973" lon="-1.58983">
        <ele>9.2</ele>
        <time>2020-06-12T05:04:12Z</time>
      </trkpt>
      <trkpt lat="49.08971" lon="-1.58975">
        <ele>9.1</ele>
        <time>2020-06-12T05:04:13Z</time>
      </trkpt>
      <trkpt lat="49.08971" lon="-1.58967">
        <ele>9.1</ele>
        <time>2020-06-12T05:04:14Z</time>
      </trkpt>
      <trkpt lat="49.08971" lon="-1.58959">
        <ele>9</ele>
        <time>2020-06-12T05:04:15Z</time>
      </trkpt>
      <trkpt lat="49.08971" lon="-1.5895">
        <ele>9</ele>
        <time>2020-06-12T05:04:16Z</time>
      </trkpt>
      <trkpt lat="49.0897" lon="-1.58942">
        <ele>8.9</ele>
        <time>2020-06-12T05:04:17Z</time>
      </trkpt>
      <trkpt lat="49.0897" lon="-1.58932">
        <ele>8.8</ele>
        <time>2020-06-12T05:04:18Z</time>
      </trkpt>
      <trkpt lat="49.08971" lon="-1.58923">
        <ele>8.7</ele>
        <time>2020-06-12T05:04:19Z</time>
      </trkpt>
      <trkpt lat="49.08971" lon="-1.58916">
        <ele>8.7</ele>
        <time>2020-06-12T05:04:20Z</time>
      </trkpt>
      <trkpt lat="49.08972" lon="-1.5891">
        <ele>8.6</ele>
        <time>2020-06-12T05:04:21Z</time>
      </trkpt>
      <trkpt lat="49.08974" lon="-1.58902">
        <ele>8.6</ele>
        <time>2020-06-12T05:04:22Z</time>
      </trkpt>
      <trkpt lat="49.08974" lon="-1.58893">
        <ele>8.6</ele>
        <time>2020-06-12T05:04:23Z</time>
      </trkpt>
      <trkpt lat="49.08975" lon="-1.58883">
        <ele>8.6</ele>
        <time>2020-06-12T05:04:24Z</time>
      </trkpt>
      <trkpt lat="49.08975" lon="-1.58874">
        <ele>8.6</ele>
        <time>2020-06-12T05:04:25Z</time>
      </trkpt>
      <trkpt lat="49.08975" lon="-1.58865">
        <ele>8.7</ele>
        <time>2020-06-12T05:04:26Z</time>
      </trkpt>
      <trkpt lat="49.08976" lon="-1.58856">
        <ele>8.9</ele>
        <time>2020-06-12T05:04:27Z</time>
      </trkpt>
      <trkpt lat="49.08977" lon="-1.58848">
        <ele>9.2</ele>
        <time>2020-06-12T05:04:28Z</time>
      </trkpt>
      <trkpt lat="49.08978" lon="-1.5884">
        <ele>9.5</ele>
        <time>2020-06-12T05:04:29Z</time>
      </trkpt>
      <trkpt lat="49.08979" lon="-1.58833">
        <ele>9.7</ele>
        <time>2020-06-12T05:04:30Z</time>
      </trkpt>
      <trkpt lat="49.08979" lon="-1.58824">
        <ele>9.9</ele>
        <time>2020-06-12T05:04:31Z</time>
      </trkpt>
      <trkpt lat="49.08979" lon="-1.58816">
        <ele>10</ele>
        <time>2020-06-12T05:04:32Z</time>
      </trkpt>
      <trkpt lat="49.0898" lon="-1.58808">
        <ele>10</ele>
        <time>2020-06-12T05:04:33Z</time>
      </trkpt>
      <trkpt lat="49.08981" lon="-1.58801">
        <ele>10</ele>
        <time>2020-06-12T05:04:34Z</time>
      </trkpt>
      <trkpt lat="49.08982" lon="-1.58793">
        <ele>9.9</ele>
        <time>2020-06-12T05:04:35Z</time>
      </trkpt>
      <trkpt lat="49.08984" lon="-1.58785">
        <ele>9.9</ele>
        <time>2020-06-12T05:04:36Z</time>
      </trkpt>
      <trkpt lat="49.08985" lon="-1.58777">
        <ele>9.9</ele>
        <time>2020-06-12T05:04:37Z</time>
      </trkpt>
      <trkpt lat="49.08986" lon="-1.58769">
        <ele>9.9</ele>
        <time>2020-06-12T05:04:38Z</time>
      </trkpt>
      <trkpt lat="49.08986" lon="-1.58762">
        <ele>10</ele>
        <time>2020-06-12T05:04:39Z</time>
      </trkpt>
      <trkpt lat="49.08988" lon="-1.58754">
        <ele>10.1</ele>
        <time>2020-06-12T05:04:40Z</time>
      </trkpt>
      <trkpt lat="49.08989" lon="-1.58745">
        <ele>10.3</ele>
        <time>2020-06-12T05:04:41Z</time>
      </trkpt>
      <trkpt lat="49.08991" lon="-1.58738">
        <ele>10.4</ele>
        <time>2020-06-12T05:04:42Z</time>
      </trkpt>
      <trkpt lat="49.08991" lon="-1.58731">
        <ele>10.5</ele>
        <time>2020-06-12T05:04:43Z</time>
      </trkpt>
      <trkpt lat="49.08992" lon="-1.58724">
        <ele>10.7</ele>
        <time>2020-06-12T05:04:44Z</time>
      </trkpt>
      <trkpt lat="49.08993" lon="-1.58716">
        <ele>10.8</ele>
        <time>2020-06-12T05:04:45Z</time>
      </trkpt>
      <trkpt lat="49.08993" lon="-1.58709">
        <ele>10.9</ele>
        <time>2020-06-12T05:04:46Z</time>
      </trkpt>
      <trkpt lat="49.08995" lon="-1.58702">
        <ele>10.9</ele>
        <time>2020-06-12T05:04:47Z</time>
      </trkpt>
      <trkpt lat="49.08996" lon="-1.58696">
        <ele>11</ele>
        <time>2020-06-12T05:04:48Z</time>
      </trkpt>
      <trkpt lat="49.08998" lon="-1.5869">
        <ele>11.1</ele>
        <time>2020-06-12T05:04:49Z</time>
      </trkpt>
      <trkpt lat="49.08999" lon="-1.58684">
        <ele>11.2</ele>
        <time>2020-06-12T05:04:50Z</time>
      </trkpt>
      <trkpt lat="49.09" lon="-1.58677">
        <ele>11.3</ele>
        <time>2020-06-12T05:04:51Z</time>
      </trkpt>
      <trkpt lat="49.09001" lon="-1.5867">
        <ele>11.5</ele>
        <time>2020-06-12T05:04:52Z</time>
      </trkpt>
      <trkpt lat="49.09002" lon="-1.58664">
        <ele>11.6</ele>
        <time>2020-06-12T05:04:53Z</time>
      </trkpt>
      <trkpt lat="49.09004" lon="-1.58658">
        <ele>11.7</ele>
        <time>2020-06-12T05:04:54Z</time>
      </trkpt>
      <trkpt lat="49.09006" lon="-1.58651">
        <ele>11.8</ele>
        <time>2020-06-12T05:04:55Z</time>
      </trkpt>
      <trkpt lat="49.09008" lon="-1.58645">
        <ele>11.9</ele>
        <time>2020-06-12T05:04:56Z</time>
      </trkpt>
      <trkpt lat="49.0901" lon="-1.58638">
        <ele>11.9</ele>
        <time>2020-06-12T05:04:57Z</time>
      </trkpt>
      <trkpt lat="49.09013" lon="-1.58632">
        <ele>11.9</ele>
        <time>2020-06-12T05:04:58Z</time>
      </trkpt>
      <trkpt lat="49.09015" lon="-1.58626">
        <ele>11.8</ele>
        <time>2020-06-12T05:04:59Z</time>
      </trkpt>
      <trkpt lat="49.09016" lon="-1.5862">
        <ele>11.8</ele>
        <time>2020-06-12T05:05:00Z</time>
      </trkpt>
      <trkpt lat="49.09019" lon="-1.5861">
        <ele>11.7</ele>
        <time>2020-06-12T05:05:01Z</time>
      </trkpt>
      <trkpt lat="49.09022" lon="-1.58604">
        <ele>11.6</ele>
        <time>2020-06-12T05:05:02Z</time>
      </trkpt>
      <trkpt lat="49.09025" lon="-1.58598">
        <ele>11.6</ele>
        <time>2020-06-12T05:05:03Z</time>
      </trkpt>
      <trkpt lat="49.09028" lon="-1.5859">
        <ele>11.5</ele>
        <time>2020-06-12T05:05:04Z</time>
      </trkpt>
      <trkpt lat="49.0903" lon="-1.58582">
        <ele>11.5</ele>
        <time>2020-06-12T05:05:05Z</time>
      </trkpt>
      <trkpt lat="49.09033" lon="-1.58575">
        <ele>11.4</ele>
        <time>2020-06-12T05:05:06Z</time>
      </trkpt>
      <trkpt lat="49.09036" lon="-1.58569">
        <ele>11.4</ele>
        <time>2020-06-12T05:05:07Z</time>
      </trkpt>
      <trkpt lat="49.09039" lon="-1.58564">
        <ele>11.4</ele>
        <time>2020-06-12T05:05:08Z</time>
      </trkpt>
      <trkpt lat="49.09041" lon="-1.58558">
        <ele>11.4</ele>
        <time>2020-06-12T05:05:09Z</time>
      </trkpt>
      <trkpt lat="49.09044" lon="-1.58553">
        <ele>11.4</ele>
        <time>2020-06-12T05:05:10Z</time>
      </trkpt>
      <trkpt lat="49.09046" lon="-1.58548">
        <ele>11.3</ele>
        <time>2020-06-12T05:05:11Z</time>
      </trkpt>
      <trkpt lat="49.09049" lon="-1.58543">
        <ele>11.3</ele>
        <time>2020-06-12T05:05:12Z</time>
      </trkpt>
      <trkpt lat="49.09051" lon="-1.58539">
        <ele>11.3</ele>
        <time>2020-06-12T05:05:13Z</time>
      </trkpt>
      <trkpt lat="49.09053" lon="-1.58534">
        <ele>11.2</ele>
        <time>2020-06-12T05:05:14Z</time>
      </trkpt>
      <trkpt lat="49.09055" lon="-1.5853">
        <ele>11.2</ele>
        <time>2020-06-12T05:05:15Z</time>
      </trkpt>
      <trkpt lat="49.09057" lon="-1.58526">
        <ele>11.1</ele>
        <time>2020-06-12T05:05:16Z</time>
      </trkpt>
      <trkpt lat="49.09059" lon="-1.58522">
        <ele>11.1</ele>
        <time>2020-06-12T05:05:17Z</time>
      </trkpt>
      <trkpt lat="49.09061" lon="-1.58517">
        <ele>11</ele>
        <time>2020-06-12T05:05:18Z</time>
      </trkpt>
      <trkpt lat="49.09062" lon="-1.58511">
        <ele>10.9</ele>
        <time>2020-06-12T05:05:19Z</time>
      </trkpt>
      <trkpt lat="49.09062" lon="-1.58509">
        <ele>10.9</ele>
        <time>2020-06-12T05:05:20Z</time>
      </trkpt>
      <trkpt lat="49.09061" lon="-1.58503">
        <ele>11.2</ele>
        <time>2020-06-12T05:05:21Z</time>
      </trkpt>
      <trkpt lat="49.09061" lon="-1.58501">
        <ele>11.2</ele>
        <time>2020-06-12T05:05:22Z</time>
      </trkpt>
      <trkpt lat="49.0906" lon="-1.58497">
        <ele>11.4</ele>
        <time>2020-06-12T05:05:23Z</time>
      </trkpt>
      <trkpt lat="49.09059" lon="-1.58492">
        <ele>11.5</ele>
        <time>2020-06-12T05:05:24Z</time>
      </trkpt>
      <trkpt lat="49.09058" lon="-1.58487">
        <ele>11.6</ele>
        <time>2020-06-12T05:05:25Z</time>
      </trkpt>
      <trkpt lat="49.09058" lon="-1.58481">
        <ele>11.8</ele>
        <time>2020-06-12T05:05:26Z</time>
      </trkpt>
      <trkpt lat="49.09057" lon="-1.58474">
        <ele>12</ele>
        <time>2020-06-12T05:05:27Z</time>
      </trkpt>
      <trkpt lat="49.09056" lon="-1.5847">
        <ele>12.1</ele>
        <time>2020-06-12T05:05:28Z</time>
      </trkpt>
      <trkpt lat="49.09056" lon="-1.58465">
        <ele>12.3</ele>
        <time>2020-06-12T05:05:29Z</time>
      </trkpt>
      <trkpt lat="49.09056" lon="-1.5846">
        <ele>12.4</ele>
        <time>2020-06-12T05:05:30Z</time>
      </trkpt>
      <trkpt lat="49.09057" lon="-1.58455">
        <ele>12.6</ele>
        <time>2020-06-12T05:05:31Z</time>
      </trkpt>
      <trkpt lat="49.09058" lon="-1.58448">
        <ele>12.5</ele>
        <time>2020-06-12T05:05:32Z</time>
      </trkpt>
      <trkpt lat="49.09058" lon="-1.58441">
        <ele>12.5</ele>
        <time>2020-06-12T05:05:33Z</time>
      </trkpt>
      <trkpt lat="49.09059" lon="-1.58434">
        <ele>12.4</ele>
        <time>2020-06-12T05:05:34Z</time>
      </trkpt>
      <trkpt lat="49.0906" lon="-1.58427">
        <ele>12.4</ele>
        <time>2020-06-12T05:05:35Z</time>
      </trkpt>
      <trkpt lat="49.0906" lon="-1.58421">
        <ele>12.4</ele>
        <time>2020-06-12T05:05:36Z</time>
      </trkpt>
      <trkpt lat="49.0906" lon="-1.58413">
        <ele>12.4</ele>
        <time>2020-06-12T05:05:37Z</time>
      </trkpt>
      <trkpt lat="49.0906" lon="-1.58406">
        <ele>12.4</ele>
        <time>2020-06-12T05:05:38Z</time>
      </trkpt>
      <trkpt lat="49.0906" lon="-1.584">
        <ele>12.5</ele>
        <time>2020-06-12T05:05:39Z</time>
      </trkpt>
      <trkpt lat="49.09059" lon="-1.58394">
        <ele>12.5</ele>
        <time>2020-06-12T05:05:40Z</time>
      </trkpt>
      <trkpt lat="49.09059" lon="-1.58388">
        <ele>12.5</ele>
        <time>2020-06-12T05:05:41Z</time>
      </trkpt>
      <trkpt lat="49.09058" lon="-1.58382">
        <ele>12.5</ele>
        <time>2020-06-12T05:05:42Z</time>
      </trkpt>
      <trkpt lat="49.09058" lon="-1.58375">
        <ele>12.6</ele>
        <time>2020-06-12T05:05:43Z</time>
      </trkpt>
      <trkpt lat="49.09057" lon="-1.58369">
        <ele>12.6</ele>
        <time>2020-06-12T05:05:44Z</time>
      </trkpt>
      <trkpt lat="49.09056" lon="-1.58363">
        <ele>12.6</ele>
        <time>2020-06-12T05:05:45Z</time>
      </trkpt>
      <trkpt lat="49.09055" lon="-1.58357">
        <ele>12.6</ele>
        <time>2020-06-12T05:05:46Z</time>
      </trkpt>
      <trkpt lat="49.09053" lon="-1.58351">
        <ele>12.7</ele>
        <time>2020-06-12T05:05:47Z</time>
      </trkpt>
      <trkpt lat="49.09052" lon="-1.58343">
        <ele>12.7</ele>
        <time>2020-06-12T05:05:48Z</time>
      </trkpt>
      <trkpt lat="49.09049" lon="-1.58337">
        <ele>12.8</ele>
        <time>2020-06-12T05:05:49Z</time>
      </trkpt>
      <trkpt lat="49.09047" lon="-1.58328">
        <ele>12.8</ele>
        <time>2020-06-12T05:05:50Z</time>
      </trkpt>
      <trkpt lat="49.09045" lon="-1.58322">
        <ele>12.8</ele>
        <time>2020-06-12T05:05:51Z</time>
      </trkpt>
      <trkpt lat="49.09042" lon="-1.58314">
        <ele>12.8</ele>
        <time>2020-06-12T05:05:52Z</time>
      </trkpt>
      <trkpt lat="49.0904" lon="-1.58306">
        <ele>12.8</ele>
        <time>2020-06-12T05:05:53Z</time>
      </trkpt>
      <trkpt lat="49.09038" lon="-1.58299">
        <ele>12.8</ele>
        <time>2020-06-12T05:05:54Z</time>
      </trkpt>
      <trkpt lat="49.09037" lon="-1.58291">
        <ele>12.8</ele>
        <time>2020-06-12T05:05:55Z</time>
      </trkpt>
      <trkpt lat="49.09035" lon="-1.58283">
        <ele>12.8</ele>
        <time>2020-06-12T05:05:56Z</time>
      </trkpt>
      <trkpt lat="49.09033" lon="-1.58277">
        <ele>12.8</ele>
        <time>2020-06-12T05:05:57Z</time>
      </trkpt>
      <trkpt lat="49.09031" lon="-1.58272">
        <ele>12.9</ele>
        <time>2020-06-12T05:05:58Z</time>
      </trkpt>
      <trkpt lat="49.09029" lon="-1.58265">
        <ele>12.9</ele>
        <time>2020-06-12T05:05:59Z</time>
      </trkpt>
      <trkpt lat="49.09026" lon="-1.58257">
        <ele>13</ele>
        <time>2020-06-12T05:06:00Z</time>
      </trkpt>
      <trkpt lat="49.09023" lon="-1.5825">
        <ele>13</ele>
        <time>2020-06-12T05:06:01Z</time>
      </trkpt>
      <trkpt lat="49.09019" lon="-1.58244">
        <ele>13.1</ele>
        <time>2020-06-12T05:06:02Z</time>
      </trkpt>
      <trkpt lat="49.09017" lon="-1.5824">
        <ele>13.1</ele>
        <time>2020-06-12T05:06:03Z</time>
      </trkpt>
      <trkpt lat="49.09015" lon="-1.58233">
        <ele>13.1</ele>
        <time>2020-06-12T05:06:04Z</time>
      </trkpt>
      <trkpt lat="49.09013" lon="-1.58227">
        <ele>13.1</ele>
        <time>2020-06-12T05:06:05Z</time>
      </trkpt>
      <trkpt lat="49.09012" lon="-1.58223">
        <ele>13.1</ele>
        <time>2020-06-12T05:06:06Z</time>
      </trkpt>
      <trkpt lat="49.0901" lon="-1.58217">
        <ele>13.1</ele>
        <time>2020-06-12T05:06:07Z</time>
      </trkpt>
      <trkpt lat="49.09008" lon="-1.58211">
        <ele>13.1</ele>
        <time>2020-06-12T05:06:08Z</time>
      </trkpt>
      <trkpt lat="49.09007" lon="-1.58204">
        <ele>13.1</ele>
        <time>2020-06-12T05:06:09Z</time>
      </trkpt>
      <trkpt lat="49.09006" lon="-1.58198">
        <ele>13.1</ele>
        <time>2020-06-12T05:06:10Z</time>
      </trkpt>
      <trkpt lat="49.09005" lon="-1.58191">
        <ele>13.1</ele>
        <time>2020-06-12T05:06:11Z</time>
      </trkpt>
      <trkpt lat="49.09004" lon="-1.58184">
        <ele>13.2</ele>
        <time>2020-06-12T05:06:12Z</time>
      </trkpt>
      <trkpt lat="49.09004" lon="-1.58177">
        <ele>13.2</ele>
        <time>2020-06-12T05:06:13Z</time>
      </trkpt>
      <trkpt lat="49.09004" lon="-1.58171">
        <ele>13.2</ele>
        <time>2020-06-12T05:06:14Z</time>
      </trkpt>
      <trkpt lat="49.09004" lon="-1.58165">
        <ele>13.3</ele>
        <time>2020-06-12T05:06:15Z</time>
      </trkpt>
      <trkpt lat="49.09003" lon="-1.58159">
        <ele>13.3</ele>
        <time>2020-06-12T05:06:16Z</time>
      </trkpt>
      <trkpt lat="49.09004" lon="-1.58153">
        <ele>13.3</ele>
        <time>2020-06-12T05:06:17Z</time>
      </trkpt>
      <trkpt lat="49.09004" lon="-1.58147">
        <ele>13.3</ele>
        <time>2020-06-12T05:06:18Z</time>
      </trkpt>
      <trkpt lat="49.09004" lon="-1.5814">
        <ele>13.3</ele>
        <time>2020-06-12T05:06:19Z</time>
      </trkpt>
      <trkpt lat="49.09004" lon="-1.58133">
        <ele>13.3</ele>
        <time>2020-06-12T05:06:20Z</time>
      </trkpt>
      <trkpt lat="49.09006" lon="-1.58127">
        <ele>13.3</ele>
        <time>2020-06-12T05:06:21Z</time>
      </trkpt>
      <trkpt lat="49.09006" lon="-1.58122">
        <ele>13.4</ele>
        <time>2020-06-12T05:06:22Z</time>
      </trkpt>
      <trkpt lat="49.09006" lon="-1.58118">
        <ele>13.4</ele>
        <time>2020-06-12T05:06:23Z</time>
      </trkpt>
      <trkpt lat="49.09007" lon="-1.58112">
        <ele>13.4</ele>
        <time>2020-06-12T05:06:24Z</time>
      </trkpt>
      <trkpt lat="49.09007" lon="-1.58104">
        <ele>13.4</ele>
        <time>2020-06-12T05:06:25Z</time>
      </trkpt>
      <trkpt lat="49.09007" lon="-1.58097">
        <ele>13.5</ele>
        <time>2020-06-12T05:06:26Z</time>
      </trkpt>
      <trkpt lat="49.09008" lon="-1.58089">
        <ele>13.5</ele>
        <time>2020-06-12T05:06:27Z</time>
      </trkpt>
      <trkpt lat="49.09008" lon="-1.58081">
        <ele>13.6</ele>
        <time>2020-06-12T05:06:28Z</time>
      </trkpt>
      <trkpt lat="49.09009" lon="-1.58074">
        <ele>13.6</ele>
        <time>2020-06-12T05:06:29Z</time>
      </trkpt>
      <trkpt lat="49.09009" lon="-1.58066">
        <ele>13.7</ele>
        <time>2020-06-12T05:06:30Z</time>
      </trkpt>
      <trkpt lat="49.09008" lon="-1.58058">
        <ele>13.7</ele>
        <time>2020-06-12T05:06:31Z</time>
      </trkpt>
      <trkpt lat="49.09007" lon="-1.5805">
        <ele>13.8</ele>
        <time>2020-06-12T05:06:32Z</time>
      </trkpt>
      <trkpt lat="49.09006" lon="-1.58045">
        <ele>13.8</ele>
        <time>2020-06-12T05:06:33Z</time>
      </trkpt>
      <trkpt lat="49.09005" lon="-1.58037">
        <ele>13.9</ele>
        <time>2020-06-12T05:06:34Z</time>
      </trkpt>
      <trkpt lat="49.09004" lon="-1.5803">
        <ele>14</ele>
        <time>2020-06-12T05:06:35Z</time>
      </trkpt>
      <trkpt lat="49.09004" lon="-1.58023">
        <ele>14</ele>
        <time>2020-06-12T05:06:36Z</time>
      </trkpt>
      <trkpt lat="49.09003" lon="-1.58016">
        <ele>14.1</ele>
        <time>2020-06-12T05:06:37Z</time>
      </trkpt>
      <trkpt lat="49.09003" lon="-1.58009">
        <ele>14.1</ele>
        <time>2020-06-12T05:06:38Z</time>
      </trkpt>
      <trkpt lat="49.09002" lon="-1.58002">
        <ele>14.1</ele>
        <time>2020-06-12T05:06:39Z</time>
      </trkpt>
      <trkpt lat="49.09001" lon="-1.57994">
        <ele>14.2</ele>
        <time>2020-06-12T05:06:40Z</time>
      </trkpt>
      <trkpt lat="49.09001" lon="-1.57986">
        <ele>14.2</ele>
        <time>2020-06-12T05:06:41Z</time>
      </trkpt>
      <trkpt lat="49.09001" lon="-1.57979">
        <ele>14.2</ele>
        <time>2020-06-12T05:06:42Z</time>
      </trkpt>
      <trkpt lat="49.09003" lon="-1.57971">
        <ele>14.2</ele>
        <time>2020-06-12T05:06:43Z</time>
      </trkpt>
      <trkpt lat="49.09004" lon="-1.57963">
        <ele>14.2</ele>
        <time>2020-06-12T05:06:44Z</time>
      </trkpt>
      <trkpt lat="49.09005" lon="-1.57955">
        <ele>14.2</ele>
        <time>2020-06-12T05:06:45Z</time>
      </trkpt>
      <trkpt lat="49.09006" lon="-1.57948">
        <ele>14.1</ele>
        <time>2020-06-12T05:06:46Z</time>
      </trkpt>
      <trkpt lat="49.09007" lon="-1.5794">
        <ele>14.1</ele>
        <time>2020-06-12T05:06:47Z</time>
      </trkpt>
      <trkpt lat="49.09007" lon="-1.57931">
        <ele>14.1</ele>
        <time>2020-06-12T05:06:48Z</time>
      </trkpt>
      <trkpt lat="49.09007" lon="-1.57923">
        <ele>14.1</ele>
        <time>2020-06-12T05:06:49Z</time>
      </trkpt>
      <trkpt lat="49.09008" lon="-1.57916">
        <ele>14.1</ele>
        <time>2020-06-12T05:06:50Z</time>
      </trkpt>
      <trkpt lat="49.09009" lon="-1.57908">
        <ele>14.1</ele>
        <time>2020-06-12T05:06:51Z</time>
      </trkpt>
      <trkpt lat="49.09011" lon="-1.57902">
        <ele>14.1</ele>
        <time>2020-06-12T05:06:52Z</time>
      </trkpt>
      <trkpt lat="49.09012" lon="-1.57896">
        <ele>14.1</ele>
        <time>2020-06-12T05:06:53Z</time>
      </trkpt>
      <trkpt lat="49.09014" lon="-1.57889">
        <ele>14.1</ele>
        <time>2020-06-12T05:06:54Z</time>
      </trkpt>
      <trkpt lat="49.09015" lon="-1.57883">
        <ele>14.1</ele>
        <time>2020-06-12T05:06:55Z</time>
      </trkpt>
      <trkpt lat="49.09016" lon="-1.57877">
        <ele>14.1</ele>
        <time>2020-06-12T05:06:56Z</time>
      </trkpt>
      <trkpt lat="49.09017" lon="-1.57871">
        <ele>14.1</ele>
        <time>2020-06-12T05:06:57Z</time>
      </trkpt>
      <trkpt lat="49.09017" lon="-1.57865">
        <ele>14.1</ele>
        <time>2020-06-12T05:06:58Z</time>
      </trkpt>
      <trkpt lat="49.09018" lon="-1.57858">
        <ele>14.1</ele>
        <time>2020-06-12T05:06:59Z</time>
      </trkpt>
      <trkpt lat="49.09019" lon="-1.57852">
        <ele>14.2</ele>
        <time>2020-06-12T05:07:00Z</time>
      </trkpt>
      <trkpt lat="49.0902" lon="-1.57846">
        <ele>14.2</ele>
        <time>2020-06-12T05:07:01Z</time>
      </trkpt>
      <trkpt lat="49.09021" lon="-1.5784">
        <ele>14.3</ele>
        <time>2020-06-12T05:07:02Z</time>
      </trkpt>
      <trkpt lat="49.09022" lon="-1.57833">
        <ele>14.4</ele>
        <time>2020-06-12T05:07:03Z</time>
      </trkpt>
      <trkpt lat="49.09023" lon="-1.57827">
        <ele>14.5</ele>
        <time>2020-06-12T05:07:04Z</time>
      </trkpt>
      <trkpt lat="49.09024" lon="-1.5782">
        <ele>14.6</ele>
        <time>2020-06-12T05:07:05Z</time>
      </trkpt>
      <trkpt lat="49.09026" lon="-1.57813">
        <ele>14.7</ele>
        <time>2020-06-12T05:07:06Z</time>
      </trkpt>
      <trkpt lat="49.09028" lon="-1.57806">
        <ele>14.8</ele>
        <time>2020-06-12T05:07:07Z</time>
      </trkpt>
      <trkpt lat="49.09029" lon="-1.57801">
        <ele>14.8</ele>
        <time>2020-06-12T05:07:08Z</time>
      </trkpt>
      <trkpt lat="49.0903" lon="-1.57795">
        <ele>14.9</ele>
        <time>2020-06-12T05:07:09Z</time>
      </trkpt>
      <trkpt lat="49.0903" lon="-1.57788">
        <ele>15</ele>
        <time>2020-06-12T05:07:10Z</time>
      </trkpt>
      <trkpt lat="49.09031" lon="-1.57782">
        <ele>15</ele>
        <time>2020-06-12T05:07:11Z</time>
      </trkpt>
      <trkpt lat="49.09032" lon="-1.57774">
        <ele>15.1</ele>
        <time>2020-06-12T05:07:12Z</time>
      </trkpt>
      <trkpt lat="49.09034" lon="-1.57767">
        <ele>15.2</ele>
        <time>2020-06-12T05:07:13Z</time>
      </trkpt>
      <trkpt lat="49.09035" lon="-1.57759">
        <ele>15.4</ele>
        <time>2020-06-12T05:07:14Z</time>
      </trkpt>
      <trkpt lat="49.09036" lon="-1.57753">
        <ele>15.5</ele>
        <time>2020-06-12T05:07:15Z</time>
      </trkpt>
      <trkpt lat="49.09036" lon="-1.57746">
        <ele>15.6</ele>
        <time>2020-06-12T05:07:16Z</time>
      </trkpt>
      <trkpt lat="49.09036" lon="-1.57738">
        <ele>15.7</ele>
        <time>2020-06-12T05:07:17Z</time>
      </trkpt>
      <trkpt lat="49.09036" lon="-1.57731">
        <ele>15.8</ele>
        <time>2020-06-12T05:07:18Z</time>
      </trkpt>
      <trkpt lat="49.09036" lon="-1.57723">
        <ele>15.9</ele>
        <time>2020-06-12T05:07:19Z</time>
      </trkpt>
      <trkpt lat="49.09036" lon="-1.57716">
        <ele>16</ele>
        <time>2020-06-12T05:07:20Z</time>
      </trkpt>
      <trkpt lat="49.09037" lon="-1.57709">
        <ele>16.1</ele>
        <time>2020-06-12T05:07:21Z</time>
      </trkpt>
      <trkpt lat="49.09037" lon="-1.57704">
        <ele>16.2</ele>
        <time>2020-06-12T05:07:22Z</time>
      </trkpt>
      <trkpt lat="49.09038" lon="-1.57698">
        <ele>16.3</ele>
        <time>2020-06-12T05:07:23Z</time>
      </trkpt>
      <trkpt lat="49.09037" lon="-1.57693">
        <ele>16.3</ele>
        <time>2020-06-12T05:07:24Z</time>
      </trkpt>
      <trkpt lat="49.09037" lon="-1.57688">
        <ele>16.4</ele>
        <time>2020-06-12T05:07:25Z</time>
      </trkpt>
      <trkpt lat="49.09037" lon="-1.57682">
        <ele>16.5</ele>
        <time>2020-06-12T05:07:26Z</time>
      </trkpt>
      <trkpt lat="49.09037" lon="-1.57677">
        <ele>16.6</ele>
        <time>2020-06-12T05:07:27Z</time>
      </trkpt>
      <trkpt lat="49.09037" lon="-1.57671">
        <ele>16.7</ele>
        <time>2020-06-12T05:07:28Z</time>
      </trkpt>
      <trkpt lat="49.09037" lon="-1.57665">
        <ele>16.8</ele>
        <time>2020-06-12T05:07:29Z</time>
      </trkpt>
      <trkpt lat="49.09037" lon="-1.5766">
        <ele>16.9</ele>
        <time>2020-06-12T05:07:30Z</time>
      </trkpt>
      <trkpt lat="49.09037" lon="-1.57654">
        <ele>17</ele>
        <time>2020-06-12T05:07:31Z</time>
      </trkpt>
      <trkpt lat="49.09037" lon="-1.57648">
        <ele>17.1</ele>
        <time>2020-06-12T05:07:32Z</time>
      </trkpt>
      <trkpt lat="49.09038" lon="-1.57641">
        <ele>17.2</ele>
        <time>2020-06-12T05:07:33Z</time>
      </trkpt>
      <trkpt lat="49.09038" lon="-1.57634">
        <ele>17.3</ele>
        <time>2020-06-12T05:07:34Z</time>
      </trkpt>
      <trkpt lat="49.09038" lon="-1.57627">
        <ele>17.4</ele>
        <time>2020-06-12T05:07:35Z</time>
      </trkpt>
      <trkpt lat="49.09038" lon="-1.57619">
        <ele>17.5</ele>
        <time>2020-06-12T05:07:36Z</time>
      </trkpt>
      <trkpt lat="49.09037" lon="-1.57612">
        <ele>17.6</ele>
        <time>2020-06-12T05:07:37Z</time>
      </trkpt>
      <trkpt lat="49.09038" lon="-1.57605">
        <ele>17.7</ele>
        <time>2020-06-12T05:07:38Z</time>
      </trkpt>
      <trkpt lat="49.09037" lon="-1.57599">
        <ele>17.8</ele>
        <time>2020-06-12T05:07:39Z</time>
      </trkpt>
      <trkpt lat="49.09037" lon="-1.57593">
        <ele>17.8</ele>
        <time>2020-06-12T05:07:40Z</time>
      </trkpt>
      <trkpt lat="49.09036" lon="-1.57585">
        <ele>17.9</ele>
        <time>2020-06-12T05:07:41Z</time>
      </trkpt>
      <trkpt lat="49.09035" lon="-1.57576">
        <ele>17.9</ele>
        <time>2020-06-12T05:07:42Z</time>
      </trkpt>
      <trkpt lat="49.09034" lon="-1.57566">
        <ele>18</ele>
        <time>2020-06-12T05:07:43Z</time>
      </trkpt>
      <trkpt lat="49.09032" lon="-1.57558">
        <ele>18</ele>
        <time>2020-06-12T05:07:44Z</time>
      </trkpt>
      <trkpt lat="49.09031" lon="-1.57551">
        <ele>18</ele>
        <time>2020-06-12T05:07:45Z</time>
      </trkpt>
      <trkpt lat="49.0903" lon="-1.57544">
        <ele>18.1</ele>
        <time>2020-06-12T05:07:46Z</time>
      </trkpt>
      <trkpt lat="49.09029" lon="-1.57539">
        <ele>18.1</ele>
        <time>2020-06-12T05:07:47Z</time>
      </trkpt>
      <trkpt lat="49.09029" lon="-1.57534">
        <ele>18.2</ele>
        <time>2020-06-12T05:07:48Z</time>
      </trkpt>
      <trkpt lat="49.09028" lon="-1.57529">
        <ele>18.2</ele>
        <time>2020-06-12T05:07:49Z</time>
      </trkpt>
      <trkpt lat="49.09028" lon="-1.57524">
        <ele>18.3</ele>
        <time>2020-06-12T05:07:50Z</time>
      </trkpt>
      <trkpt lat="49.09029" lon="-1.5752">
        <ele>18.4</ele>
        <time>2020-06-12T05:07:51Z</time>
      </trkpt>
      <trkpt lat="49.09029" lon="-1.57514">
        <ele>18.5</ele>
        <time>2020-06-12T05:07:52Z</time>
      </trkpt>
      <trkpt lat="49.09029" lon="-1.57509">
        <ele>18.6</ele>
        <time>2020-06-12T05:07:53Z</time>
      </trkpt>
      <trkpt lat="49.09029" lon="-1.57504">
        <ele>18.6</ele>
        <time>2020-06-12T05:07:54Z</time>
      </trkpt>
      <trkpt lat="49.09028" lon="-1.57498">
        <ele>18.7</ele>
        <time>2020-06-12T05:07:55Z</time>
      </trkpt>
      <trkpt lat="49.09028" lon="-1.57492">
        <ele>18.8</ele>
        <time>2020-06-12T05:07:56Z</time>
      </trkpt>
      <trkpt lat="49.09027" lon="-1.57486">
        <ele>18.9</ele>
        <time>2020-06-12T05:07:57Z</time>
      </trkpt>
      <trkpt lat="49.09026" lon="-1.5748">
        <ele>19</ele>
        <time>2020-06-12T05:07:58Z</time>
      </trkpt>
      <trkpt lat="49.09026" lon="-1.57474">
        <ele>19.1</ele>
        <time>2020-06-12T05:07:59Z</time>
      </trkpt>
      <trkpt lat="49.09026" lon="-1.57468">
        <ele>19.2</ele>
        <time>2020-06-12T05:08:00Z</time>
      </trkpt>
      <trkpt lat="49.09026" lon="-1.57462">
        <ele>19.3</ele>
        <time>2020-06-12T05:08:01Z</time>
      </trkpt>
      <trkpt lat="49.09026" lon="-1.57455">
        <ele>19.5</ele>
        <time>2020-06-12T05:08:02Z</time>
      </trkpt>
      <trkpt lat="49.09026" lon="-1.57449">
        <ele>19.6</ele>
        <time>2020-06-12T05:08:03Z</time>
      </trkpt>
      <trkpt lat="49.09026" lon="-1.57443">
        <ele>19.8</ele>
        <time>2020-06-12T05:08:04Z</time>
      </trkpt>
      <trkpt lat="49.09025" lon="-1.57436">
        <ele>19.9</ele>
        <time>2020-06-12T05:08:05Z</time>
      </trkpt>
      <trkpt lat="49.09026" lon="-1.5743">
        <ele>20</ele>
        <time>2020-06-12T05:08:06Z</time>
      </trkpt>
      <trkpt lat="49.09027" lon="-1.57424">
        <ele>20.1</ele>
        <time>2020-06-12T05:08:07Z</time>
      </trkpt>
      <trkpt lat="49.09027" lon="-1.57419">
        <ele>20.2</ele>
        <time>2020-06-12T05:08:08Z</time>
      </trkpt>
      <trkpt lat="49.09027" lon="-1.57413">
        <ele>20.4</ele>
        <time>2020-06-12T05:08:09Z</time>
      </trkpt>
      <trkpt lat="49.09028" lon="-1.57407">
        <ele>20.5</ele>
        <time>2020-06-12T05:08:10Z</time>
      </trkpt>
      <trkpt lat="49.09028" lon="-1.57401">
        <ele>20.6</ele>
        <time>2020-06-12T05:08:11Z</time>
      </trkpt>
      <trkpt lat="49.09028" lon="-1.57396">
        <ele>20.7</ele>
        <time>2020-06-12T05:08:12Z</time>
      </trkpt>
      <trkpt lat="49.09028" lon="-1.5739">
        <ele>20.8</ele>
        <time>2020-06-12T05:08:13Z</time>
      </trkpt>
      <trkpt lat="49.09028" lon="-1.57384">
        <ele>20.9</ele>
        <time>2020-06-12T05:08:14Z</time>
      </trkpt>
      <trkpt lat="49.09028" lon="-1.57378">
        <ele>21</ele>
        <time>2020-06-12T05:08:15Z</time>
      </trkpt>
      <trkpt lat="49.09029" lon="-1.57372">
        <ele>21</ele>
        <time>2020-06-12T05:08:16Z</time>
      </trkpt>
      <trkpt lat="49.09029" lon="-1.57366">
        <ele>21.1</ele>
        <time>2020-06-12T05:08:17Z</time>
      </trkpt>
      <trkpt lat="49.09029" lon="-1.57359">
        <ele>21.2</ele>
        <time>2020-06-12T05:08:18Z</time>
      </trkpt>
      <trkpt lat="49.0903" lon="-1.57354">
        <ele>21.3</ele>
        <time>2020-06-12T05:08:19Z</time>
      </trkpt>
      <trkpt lat="49.0903" lon="-1.57348">
        <ele>21.4</ele>
        <time>2020-06-12T05:08:20Z</time>
      </trkpt>
      <trkpt lat="49.0903" lon="-1.57342">
        <ele>21.6</ele>
        <time>2020-06-12T05:08:21Z</time>
      </trkpt>
      <trkpt lat="49.0903" lon="-1.57336">
        <ele>21.7</ele>
        <time>2020-06-12T05:08:22Z</time>
      </trkpt>
      <trkpt lat="49.0903" lon="-1.5733">
        <ele>21.9</ele>
        <time>2020-06-12T05:08:23Z</time>
      </trkpt>
      <trkpt lat="49.0903" lon="-1.57324">
        <ele>22.1</ele>
        <time>2020-06-12T05:08:24Z</time>
      </trkpt>
      <trkpt lat="49.0903" lon="-1.57317">
        <ele>22.4</ele>
        <time>2020-06-12T05:08:25Z</time>
      </trkpt>
      <trkpt lat="49.0903" lon="-1.57311">
        <ele>22.5</ele>
        <time>2020-06-12T05:08:26Z</time>
      </trkpt>
      <trkpt lat="49.09031" lon="-1.57306">
        <ele>22.6</ele>
        <time>2020-06-12T05:08:27Z</time>
      </trkpt>
      <trkpt lat="49.09031" lon="-1.573">
        <ele>22.7</ele>
        <time>2020-06-12T05:08:28Z</time>
      </trkpt>
      <trkpt lat="49.09031" lon="-1.57294">
        <ele>22.8</ele>
        <time>2020-06-12T05:08:29Z</time>
      </trkpt>
      <trkpt lat="49.09032" lon="-1.57289">
        <ele>22.8</ele>
        <time>2020-06-12T05:08:30Z</time>
      </trkpt>
      <trkpt lat="49.09032" lon="-1.57283">
        <ele>22.9</ele>
        <time>2020-06-12T05:08:31Z</time>
      </trkpt>
      <trkpt lat="49.09033" lon="-1.57276">
        <ele>23</ele>
        <time>2020-06-12T05:08:32Z</time>
      </trkpt>
      <trkpt lat="49.09034" lon="-1.5727">
        <ele>23.1</ele>
        <time>2020-06-12T05:08:33Z</time>
      </trkpt>
      <trkpt lat="49.09034" lon="-1.57264">
        <ele>23.2</ele>
        <time>2020-06-12T05:08:34Z</time>
      </trkpt>
      <trkpt lat="49.09034" lon="-1.57258">
        <ele>23.3</ele>
        <time>2020-06-12T05:08:35Z</time>
      </trkpt>
      <trkpt lat="49.09034" lon="-1.57252">
        <ele>23.5</ele>
        <time>2020-06-12T05:08:36Z</time>
      </trkpt>
      <trkpt lat="49.09034" lon="-1.57246">
        <ele>23.7</ele>
        <time>2020-06-12T05:08:37Z</time>
      </trkpt>
      <trkpt lat="49.09035" lon="-1.57239">
        <ele>23.8</ele>
        <time>2020-06-12T05:08:38Z</time>
      </trkpt>
      <trkpt lat="49.09035" lon="-1.57234">
        <ele>24</ele>
        <time>2020-06-12T05:08:39Z</time>
      </trkpt>
      <trkpt lat="49.09035" lon="-1.57228">
        <ele>24.1</ele>
        <time>2020-06-12T05:08:40Z</time>
      </trkpt>
      <trkpt lat="49.09038" lon="-1.57223">
        <ele>24.2</ele>
        <time>2020-06-12T05:08:41Z</time>
      </trkpt>
      <trkpt lat="49.0904" lon="-1.5722">
        <ele>24.2</ele>
        <time>2020-06-12T05:08:42Z</time>
      </trkpt>
      <trkpt lat="49.09043" lon="-1.57219">
        <ele>24.1</ele>
        <time>2020-06-12T05:08:43Z</time>
      </trkpt>
      <trkpt lat="49.09046" lon="-1.57218">
        <ele>24</ele>
        <time>2020-06-12T05:08:44Z</time>
      </trkpt>
      <trkpt lat="49.09048" lon="-1.57218">
        <ele>24</ele>
        <time>2020-06-12T05:08:45Z</time>
      </trkpt>
      <trkpt lat="49.09051" lon="-1.57219">
        <ele>23.8</ele>
        <time>2020-06-12T05:08:46Z</time>
      </trkpt>
      <trkpt lat="49.09052" lon="-1.57219">
        <ele>23.8</ele>
        <time>2020-06-12T05:08:47Z</time>
      </trkpt>
      <trkpt lat="49.09056" lon="-1.5722">
        <ele>23.6</ele>
        <time>2020-06-12T05:08:48Z</time>
      </trkpt>
      <trkpt lat="49.09057" lon="-1.57221">
        <ele>23.6</ele>
        <time>2020-06-12T05:08:49Z</time>
      </trkpt>
      <trkpt lat="49.09061" lon="-1.57224">
        <ele>23.4</ele>
        <time>2020-06-12T05:08:50Z</time>
      </trkpt>
      <trkpt lat="49.09062" lon="-1.57225">
        <ele>23.3</ele>
        <time>2020-06-12T05:08:51Z</time>
      </trkpt>
      <trkpt lat="49.09065" lon="-1.57226">
        <ele>23.2</ele>
        <time>2020-06-12T05:08:52Z</time>
      </trkpt>
      <trkpt lat="49.09069" lon="-1.57227">
        <ele>23</ele>
        <time>2020-06-12T05:08:53Z</time>
      </trkpt>
      <trkpt lat="49.09072" lon="-1.57229">
        <ele>22.8</ele>
        <time>2020-06-12T05:08:54Z</time>
      </trkpt>
      <trkpt lat="49.09075" lon="-1.5723">
        <ele>22.7</ele>
        <time>2020-06-12T05:08:55Z</time>
      </trkpt>
      <trkpt lat="49.09079" lon="-1.57232">
        <ele>22.5</ele>
        <time>2020-06-12T05:08:56Z</time>
      </trkpt>
      <trkpt lat="49.09083" lon="-1.57234">
        <ele>22.3</ele>
        <time>2020-06-12T05:08:57Z</time>
      </trkpt>
      <trkpt lat="49.09088" lon="-1.57236">
        <ele>22</ele>
        <time>2020-06-12T05:08:58Z</time>
      </trkpt>
      <trkpt lat="49.09093" lon="-1.57238">
        <ele>21.8</ele>
        <time>2020-06-12T05:08:59Z</time>
      </trkpt>
      <trkpt lat="49.09098" lon="-1.57239">
        <ele>21.7</ele>
        <time>2020-06-12T05:09:00Z</time>
      </trkpt>
      <trkpt lat="49.09103" lon="-1.57242">
        <ele>21.5</ele>
        <time>2020-06-12T05:09:01Z</time>
      </trkpt>
      <trkpt lat="49.09107" lon="-1.57245">
        <ele>21.3</ele>
        <time>2020-06-12T05:09:02Z</time>
      </trkpt>
      <trkpt lat="49.09111" lon="-1.57248">
        <ele>21.2</ele>
        <time>2020-06-12T05:09:03Z</time>
      </trkpt>
      <trkpt lat="49.09117" lon="-1.57253">
        <ele>20.9</ele>
        <time>2020-06-12T05:09:04Z</time>
      </trkpt>
      <trkpt lat="49.09123" lon="-1.57255">
        <ele>20.7</ele>
        <time>2020-06-12T05:09:05Z</time>
      </trkpt>
      <trkpt lat="49.09129" lon="-1.57257">
        <ele>20.5</ele>
        <time>2020-06-12T05:09:06Z</time>
      </trkpt>
      <trkpt lat="49.09134" lon="-1.57259">
        <ele>20.3</ele>
        <time>2020-06-12T05:09:07Z</time>
      </trkpt>
      <trkpt lat="49.09137" lon="-1.57261">
        <ele>20</ele>
        <time>2020-06-12T05:09:08Z</time>
      </trkpt>
      <trkpt lat="49.09141" lon="-1.57263">
        <ele>20.2</ele>
        <time>2020-06-12T05:09:09Z</time>
      </trkpt>
      <trkpt lat="49.09142" lon="-1.57264">
        <ele>20.2</ele>
        <time>2020-06-12T05:09:10Z</time>
      </trkpt>
      <trkpt lat="49.09145" lon="-1.57266">
        <ele>20.3</ele>
        <time>2020-06-12T05:09:11Z</time>
      </trkpt>
      <trkpt lat="49.09145" lon="-1.57267">
        <ele>20.3</ele>
        <time>2020-06-12T05:09:12Z</time>
      </trkpt>
      <trkpt lat="49.09146" lon="-1.57268">
        <ele>20.3</ele>
        <time>2020-06-12T05:09:13Z</time>
      </trkpt>
      <trkpt lat="49.09147" lon="-1.57267">
        <ele>20.4</ele>
        <time>2020-06-12T05:09:14Z</time>
      </trkpt>
      <trkpt lat="49.09147" lon="-1.57267">
        <ele>20.4</ele>
        <time>2020-06-12T05:09:15Z</time>
      </trkpt>
      <trkpt lat="49.09148" lon="-1.57267">
        <ele>20.4</ele>
        <time>2020-06-12T05:09:16Z</time>
      </trkpt>
      <trkpt lat="49.09148" lon="-1.57267">
        <ele>20.4</ele>
        <time>2020-06-12T05:09:17Z</time>
      </trkpt>
      <trkpt lat="49.09148" lon="-1.57268">
        <ele>20.4</ele>
        <time>2020-06-12T05:09:18Z</time>
      </trkpt>
      <trkpt lat="49.09148" lon="-1.57268">
        <ele>20.4</ele>
        <time>2020-06-12T05:09:19Z</time>
      </trkpt>
      <trkpt lat="49.09148" lon="-1.57267">
        <ele>20.4</ele>
        <time>2020-06-12T05:09:20Z</time>
      </trkpt>
      <trkpt lat="49.09149" lon="-1.57266">
        <ele>20.5</ele>
        <time>2020-06-12T05:09:21Z</time>
      </trkpt>
      <trkpt lat="49.09149" lon="-1.57265">
        <ele>20.5</ele>
        <time>2020-06-12T05:09:22Z</time>
      </trkpt>
      <trkpt lat="49.09149" lon="-1.57264">
        <ele>20.5</ele>
        <time>2020-06-12T05:09:23Z</time>
      </trkpt>
      <trkpt lat="49.0915" lon="-1.57263">
        <ele>20.5</ele>
        <time>2020-06-12T05:09:24Z</time>
      </trkpt>
      <trkpt lat="49.09149" lon="-1.57263">
        <ele>20.5</ele>
        <time>2020-06-12T05:09:25Z</time>
      </trkpt>
      <trkpt lat="49.09149" lon="-1.5726">
        <ele>20.5</ele>
        <time>2020-06-12T05:09:26Z</time>
      </trkpt>
      <trkpt lat="49.0915" lon="-1.57258">
        <ele>20.6</ele>
        <time>2020-06-12T05:09:27Z</time>
      </trkpt>
      <trkpt lat="49.09152" lon="-1.57254">
        <ele>20.6</ele>
        <time>2020-06-12T05:09:28Z</time>
      </trkpt>
      <trkpt lat="49.09152" lon="-1.57253">
        <ele>20.6</ele>
        <time>2020-06-12T05:09:29Z</time>
      </trkpt>
      <trkpt lat="49.09155" lon="-1.57248">
        <ele>20.7</ele>
        <time>2020-06-12T05:09:30Z</time>
      </trkpt>
      <trkpt lat="49.09155" lon="-1.57246">
        <ele>20.7</ele>
        <time>2020-06-12T05:09:31Z</time>
      </trkpt>
      <trkpt lat="49.09157" lon="-1.57242">
        <ele>20.7</ele>
        <time>2020-06-12T05:09:32Z</time>
      </trkpt>
      <trkpt lat="49.09158" lon="-1.57237">
        <ele>20.7</ele>
        <time>2020-06-12T05:09:33Z</time>
      </trkpt>
      <trkpt lat="49.09159" lon="-1.57235">
        <ele>20.7</ele>
        <time>2020-06-12T05:09:34Z</time>
      </trkpt>
      <trkpt lat="49.09159" lon="-1.5723">
        <ele>20.7</ele>
        <time>2020-06-12T05:09:35Z</time>
      </trkpt>
      <trkpt lat="49.09159" lon="-1.57223">
        <ele>20.6</ele>
        <time>2020-06-12T05:09:36Z</time>
      </trkpt>
      <trkpt lat="49.0916" lon="-1.57219">
        <ele>20.6</ele>
        <time>2020-06-12T05:09:37Z</time>
      </trkpt>
      <trkpt lat="49.09161" lon="-1.57214">
        <ele>20.6</ele>
        <time>2020-06-12T05:09:38Z</time>
      </trkpt>
      <trkpt lat="49.09164" lon="-1.57211">
        <ele>20.6</ele>
        <time>2020-06-12T05:09:39Z</time>
      </trkpt>
      <trkpt lat="49.09164" lon="-1.5721">
        <ele>20.5</ele>
        <time>2020-06-12T05:09:40Z</time>
      </trkpt>
      <trkpt lat="49.09165" lon="-1.57207">
        <ele>20.5</ele>
        <time>2020-06-12T05:09:41Z</time>
      </trkpt>
      <trkpt lat="49.09165" lon="-1.57207">
        <ele>20.5</ele>
        <time>2020-06-12T05:09:42Z</time>
      </trkpt>
      <trkpt lat="49.09166" lon="-1.57206">
        <ele>20.5</ele>
        <time>2020-06-12T05:09:43Z</time>
      </trkpt>
      <trkpt lat="49.09167" lon="-1.57205">
        <ele>20.5</ele>
        <time>2020-06-12T05:09:44Z</time>
      </trkpt>
      <trkpt lat="49.09168" lon="-1.57204">
        <ele>20.5</ele>
        <time>2020-06-12T05:09:45Z</time>
      </trkpt>
      <trkpt lat="49.09168" lon="-1.57202">
        <ele>20.5</ele>
        <time>2020-06-12T05:09:46Z</time>
      </trkpt>
      <trkpt lat="49.09169" lon="-1.572">
        <ele>20.5</ele>
        <time>2020-06-12T05:09:47Z</time>
      </trkpt>
      <trkpt lat="49.09169" lon="-1.57199">
        <ele>20.4</ele>
        <time>2020-06-12T05:09:48Z</time>
      </trkpt>
      <trkpt lat="49.09169" lon="-1.57198">
        <ele>20.4</ele>
        <time>2020-06-12T05:09:49Z</time>
      </trkpt>
      <trkpt lat="49.09167" lon="-1.57195">
        <ele>20.4</ele>
        <time>2020-06-12T05:09:50Z</time>
      </trkpt>
      <trkpt lat="49.09165" lon="-1.57192">
        <ele>20.4</ele>
        <time>2020-06-12T05:09:51Z</time>
      </trkpt>
      <trkpt lat="49.09164" lon="-1.57189">
        <ele>20.3</ele>
        <time>2020-06-12T05:09:52Z</time>
      </trkpt>
      <trkpt lat="49.09162" lon="-1.57186">
        <ele>20.4</ele>
        <time>2020-06-12T05:10:04Z</time>
      </trkpt>
      <trkpt lat="49.0916" lon="-1.57184">
        <ele>20.5</ele>
        <time>2020-06-12T05:10:05Z</time>
      </trkpt>
      <trkpt lat="49.09158" lon="-1.5718">
        <ele>20.6</ele>
        <time>2020-06-12T05:10:06Z</time>
      </trkpt>
      <trkpt lat="49.09155" lon="-1.57177">
        <ele>20.7</ele>
        <time>2020-06-12T05:10:07Z</time>
      </trkpt>
      <trkpt lat="49.09152" lon="-1.57173">
        <ele>20.8</ele>
        <time>2020-06-12T05:10:08Z</time>
      </trkpt>
      <trkpt lat="49.09151" lon="-1.57172">
        <ele>20.8</ele>
        <time>2020-06-12T05:10:09Z</time>
      </trkpt>
      <trkpt lat="49.09149" lon="-1.57169">
        <ele>20.9</ele>
        <time>2020-06-12T05:10:10Z</time>
      </trkpt>
      <trkpt lat="49.09147" lon="-1.57166">
        <ele>21</ele>
        <time>2020-06-12T05:10:11Z</time>
      </trkpt>
      <trkpt lat="49.09144" lon="-1.57162">
        <ele>21.1</ele>
        <time>2020-06-12T05:10:12Z</time>
      </trkpt>
      <trkpt lat="49.09142" lon="-1.57158">
        <ele>21.2</ele>
        <time>2020-06-12T05:10:13Z</time>
      </trkpt>
      <trkpt lat="49.09139" lon="-1.57154">
        <ele>21.3</ele>
        <time>2020-06-12T05:10:14Z</time>
      </trkpt>
      <trkpt lat="49.09137" lon="-1.5715">
        <ele>21.4</ele>
        <time>2020-06-12T05:10:15Z</time>
      </trkpt>
      <trkpt lat="49.09134" lon="-1.57146">
        <ele>21.5</ele>
        <time>2020-06-12T05:10:16Z</time>
      </trkpt>
      <trkpt lat="49.09132" lon="-1.57141">
        <ele>21.6</ele>
        <time>2020-06-12T05:10:17Z</time>
      </trkpt>
      <trkpt lat="49.09129" lon="-1.57137">
        <ele>21.8</ele>
        <time>2020-06-12T05:10:18Z</time>
      </trkpt>
      <trkpt lat="49.09127" lon="-1.57132">
        <ele>21.9</ele>
        <time>2020-06-12T05:10:19Z</time>
      </trkpt>
      <trkpt lat="49.09124" lon="-1.57127">
        <ele>22</ele>
        <time>2020-06-12T05:10:20Z</time>
      </trkpt>
      <trkpt lat="49.09121" lon="-1.57123">
        <ele>22.1</ele>
        <time>2020-06-12T05:10:21Z</time>
      </trkpt>
      <trkpt lat="49.09118" lon="-1.57119">
        <ele>22.3</ele>
        <time>2020-06-12T05:10:22Z</time>
      </trkpt>
      <trkpt lat="49.09116" lon="-1.57115">
        <ele>22.4</ele>
        <time>2020-06-12T05:10:23Z</time>
      </trkpt>
      <trkpt lat="49.09113" lon="-1.5711">
        <ele>22.5</ele>
        <time>2020-06-12T05:10:24Z</time>
      </trkpt>
      <trkpt lat="49.09111" lon="-1.57107">
        <ele>22.6</ele>
        <time>2020-06-12T05:10:25Z</time>
      </trkpt>
      <trkpt lat="49.09108" lon="-1.57103">
        <ele>22.7</ele>
        <time>2020-06-12T05:10:26Z</time>
      </trkpt>
      <trkpt lat="49.09106" lon="-1.57099">
        <ele>22.8</ele>
        <time>2020-06-12T05:10:27Z</time>
      </trkpt>
      <trkpt lat="49.09104" lon="-1.57096">
        <ele>22.8</ele>
        <time>2020-06-12T05:10:28Z</time>
      </trkpt>
      <trkpt lat="49.09101" lon="-1.57091">
        <ele>22.9</ele>
        <time>2020-06-12T05:10:29Z</time>
      </trkpt>
      <trkpt lat="49.09099" lon="-1.57087">
        <ele>23</ele>
        <time>2020-06-12T05:10:30Z</time>
      </trkpt>
      <trkpt lat="49.09096" lon="-1.57083">
        <ele>23.1</ele>
        <time>2020-06-12T05:10:31Z</time>
      </trkpt>
      <trkpt lat="49.09094" lon="-1.5708">
        <ele>23.2</ele>
        <time>2020-06-12T05:10:32Z</time>
      </trkpt>
      <trkpt lat="49.09092" lon="-1.57077">
        <ele>23.3</ele>
        <time>2020-06-12T05:10:33Z</time>
      </trkpt>
      <trkpt lat="49.0909" lon="-1.57073">
        <ele>23.3</ele>
        <time>2020-06-12T05:10:34Z</time>
      </trkpt>
      <trkpt lat="49.09088" lon="-1.5707">
        <ele>23.4</ele>
        <time>2020-06-12T05:10:35Z</time>
      </trkpt>
      <trkpt lat="49.09085" lon="-1.57067">
        <ele>23.5</ele>
        <time>2020-06-12T05:10:36Z</time>
      </trkpt>
      <trkpt lat="49.09083" lon="-1.57064">
        <ele>23.6</ele>
        <time>2020-06-12T05:10:37Z</time>
      </trkpt>
      <trkpt lat="49.09081" lon="-1.5706">
        <ele>23.7</ele>
        <time>2020-06-12T05:10:38Z</time>
      </trkpt>
      <trkpt lat="49.09079" lon="-1.57057">
        <ele>23.7</ele>
        <time>2020-06-12T05:10:39Z</time>
      </trkpt>
      <trkpt lat="49.09077" lon="-1.57054">
        <ele>23.8</ele>
        <time>2020-06-12T05:10:40Z</time>
      </trkpt>
      <trkpt lat="49.09075" lon="-1.57051">
        <ele>23.9</ele>
        <time>2020-06-12T05:10:41Z</time>
      </trkpt>
      <trkpt lat="49.09073" lon="-1.57047">
        <ele>23.9</ele>
        <time>2020-06-12T05:10:42Z</time>
      </trkpt>
      <trkpt lat="49.09071" lon="-1.57043">
        <ele>24</ele>
        <time>2020-06-12T05:10:43Z</time>
      </trkpt>
      <trkpt lat="49.09069" lon="-1.57039">
        <ele>24.1</ele>
        <time>2020-06-12T05:10:44Z</time>
      </trkpt>
      <trkpt lat="49.09067" lon="-1.57035">
        <ele>24.2</ele>
        <time>2020-06-12T05:10:45Z</time>
      </trkpt>
      <trkpt lat="49.09066" lon="-1.57032">
        <ele>24.2</ele>
        <time>2020-06-12T05:10:46Z</time>
      </trkpt>
      <trkpt lat="49.09063" lon="-1.57028">
        <ele>24.3</ele>
        <time>2020-06-12T05:10:47Z</time>
      </trkpt>
      <trkpt lat="49.09061" lon="-1.57024">
        <ele>24.4</ele>
        <time>2020-06-12T05:10:48Z</time>
      </trkpt>
      <trkpt lat="49.09058" lon="-1.57021">
        <ele>24.4</ele>
        <time>2020-06-12T05:10:49Z</time>
      </trkpt>
      <trkpt lat="49.09056" lon="-1.57018">
        <ele>24.5</ele>
        <time>2020-06-12T05:10:50Z</time>
      </trkpt>
      <trkpt lat="49.09055" lon="-1.57015">
        <ele>24.5</ele>
        <time>2020-06-12T05:10:51Z</time>
      </trkpt>
      <trkpt lat="49.09054" lon="-1.57013">
        <ele>24.5</ele>
        <time>2020-06-12T05:10:52Z</time>
      </trkpt>
      <trkpt lat="49.09052" lon="-1.5701">
        <ele>24.6</ele>
        <time>2020-06-12T05:10:53Z</time>
      </trkpt>
      <trkpt lat="49.09049" lon="-1.57008">
        <ele>24.6</ele>
        <time>2020-06-12T05:10:54Z</time>
      </trkpt>
      <trkpt lat="49.09048" lon="-1.57007">
        <ele>24.7</ele>
        <time>2020-06-12T05:10:55Z</time>
      </trkpt>
      <trkpt lat="49.09047" lon="-1.57007">
        <ele>24.7</ele>
        <time>2020-06-12T05:10:56Z</time>
      </trkpt>
      <trkpt lat="49.09046" lon="-1.57008">
        <ele>24.7</ele>
        <time>2020-06-12T05:10:57Z</time>
      </trkpt>
      <trkpt lat="49.09045" lon="-1.57008">
        <ele>24.7</ele>
        <time>2020-06-12T05:10:58Z</time>
      </trkpt>
      <trkpt lat="49.09045" lon="-1.57007">
        <ele>24.7</ele>
        <time>2020-06-12T05:10:59Z</time>
      </trkpt>
      <trkpt lat="49.09047" lon="-1.57004">
        <ele>24.7</ele>
        <time>2020-06-12T05:11:00Z</time>
      </trkpt>
      <trkpt lat="49.09048" lon="-1.57004">
        <ele>24.7</ele>
        <time>2020-06-12T05:11:01Z</time>
      </trkpt>
      <trkpt lat="49.09048" lon="-1.57004">
        <ele>24.7</ele>
        <time>2020-06-12T05:11:02Z</time>
      </trkpt>
      <trkpt lat="49.09049" lon="-1.57005">
        <ele>24.8</ele>
        <time>2020-06-12T05:11:03Z</time>
      </trkpt>
      <trkpt lat="49.09049" lon="-1.57006">
        <ele>24.8</ele>
        <time>2020-06-12T05:11:04Z</time>
      </trkpt>
      <trkpt lat="49.09049" lon="-1.57006">
        <ele>24.8</ele>
        <time>2020-06-12T05:11:05Z</time>
      </trkpt>
      <trkpt lat="49.09049" lon="-1.57006">
        <ele>24.8</ele>
        <time>2020-06-12T05:11:06Z</time>
      </trkpt>
      <trkpt lat="49.09049" lon="-1.57006">
        <ele>24.8</ele>
        <time>2020-06-12T05:11:07Z</time>
      </trkpt>
      <trkpt lat="49.09049" lon="-1.57006">
        <ele>24.8</ele>
        <time>2020-06-12T05:11:08Z</time>
      </trkpt>
      <trkpt lat="49.09049" lon="-1.57006">
        <ele>24.8</ele>
        <time>2020-06-12T05:11:09Z</time>
      </trkpt>
      <trkpt lat="49.0905" lon="-1.57003">
        <ele>24.8</ele>
        <time>2020-06-12T05:12:00Z</time>
      </trkpt>
      <trkpt lat="49.0905" lon="-1.57004">
        <ele>24.8</ele>
        <time>2020-06-12T05:12:01Z</time>
      </trkpt>
      <trkpt lat="49.0905" lon="-1.57007">
        <ele>24.8</ele>
        <time>2020-06-12T05:12:02Z</time>
      </trkpt>
      <trkpt lat="49.09051" lon="-1.57008">
        <ele>24.8</ele>
        <time>2020-06-12T05:12:03Z</time>
      </trkpt>
      <trkpt lat="49.0905" lon="-1.57008">
        <ele>24.8</ele>
        <time>2020-06-12T05:12:04Z</time>
      </trkpt>
      <trkpt lat="49.0905" lon="-1.57007">
        <ele>24.8</ele>
        <time>2020-06-12T05:12:05Z</time>
      </trkpt>
      <trkpt lat="49.0905" lon="-1.57008">
        <ele>24.8</ele>
        <time>2020-06-12T05:12:06Z</time>
      </trkpt>
      <trkpt lat="49.0905" lon="-1.57008">
        <ele>24.8</ele>
        <time>2020-06-12T05:12:07Z</time>
      </trkpt>
      <trkpt lat="49.0905" lon="-1.57008">
        <ele>24.8</ele>
        <time>2020-06-12T05:12:08Z</time>
      </trkpt>
      <trkpt lat="49.0905" lon="-1.57008">
        <ele>24.8</ele>
        <time>2020-06-12T05:12:09Z</time>
      </trkpt>
      <trkpt lat="49.0905" lon="-1.57008">
        <ele>24.8</ele>
        <time>2020-06-12T05:12:10Z</time>
      </trkpt>
      <trkpt lat="49.0905" lon="-1.57008">
        <ele>24.8</ele>
        <time>2020-06-12T05:12:11Z</time>
      </trkpt>
      <trkpt lat="49.0905" lon="-1.57008">
        <ele>24.8</ele>
        <time>2020-06-12T05:12:12Z</time>
      </trkpt>
      <trkpt lat="49.0905" lon="-1.57008">
        <ele>24.8</ele>
        <time>2020-06-12T05:12:13Z</time>
      </trkpt>
      <trkpt lat="49.0905" lon="-1.57008">
        <ele>24.8</ele>
        <time>2020-06-12T05:12:14Z</time>
      </trkpt>
      <trkpt lat="49.09055" lon="-1.57017">
        <ele>24.7</ele>
        <time>2020-06-12T05:12:32Z</time>
      </trkpt>
      <trkpt lat="49.09058" lon="-1.57022">
        <ele>24.7</ele>
        <time>2020-06-12T05:12:33Z</time>
      </trkpt>
      <trkpt lat="49.0906" lon="-1.57027">
        <ele>24.6</ele>
        <time>2020-06-12T05:12:34Z</time>
      </trkpt>
      <trkpt lat="49.09063" lon="-1.57032">
        <ele>24.6</ele>
        <time>2020-06-12T05:12:35Z</time>
      </trkpt>
      <trkpt lat="49.09066" lon="-1.57038">
        <ele>24.5</ele>
        <time>2020-06-12T05:12:36Z</time>
      </trkpt>
      <trkpt lat="49.09069" lon="-1.57043">
        <ele>24.4</ele>
        <time>2020-06-12T05:12:37Z</time>
      </trkpt>
      <trkpt lat="49.09072" lon="-1.57048">
        <ele>24.3</ele>
        <time>2020-06-12T05:12:38Z</time>
      </trkpt>
      <trkpt lat="49.09076" lon="-1.57053">
        <ele>24.2</ele>
        <time>2020-06-12T05:12:39Z</time>
      </trkpt>
      <trkpt lat="49.09079" lon="-1.57059">
        <ele>24</ele>
        <time>2020-06-12T05:12:40Z</time>
      </trkpt>
      <trkpt lat="49.09082" lon="-1.57064">
        <ele>23.9</ele>
        <time>2020-06-12T05:12:41Z</time>
      </trkpt>
      <trkpt lat="49.09086" lon="-1.57069">
        <ele>23.8</ele>
        <time>2020-06-12T05:12:42Z</time>
      </trkpt>
      <trkpt lat="49.09089" lon="-1.57074">
        <ele>23.7</ele>
        <time>2020-06-12T05:12:43Z</time>
      </trkpt>
      <trkpt lat="49.09093" lon="-1.57079">
        <ele>23.5</ele>
        <time>2020-06-12T05:12:44Z</time>
      </trkpt>
      <trkpt lat="49.09097" lon="-1.57083">
        <ele>23.4</ele>
        <time>2020-06-12T05:12:45Z</time>
      </trkpt>
      <trkpt lat="49.09101" lon="-1.57087">
        <ele>23.3</ele>
        <time>2020-06-12T05:12:46Z</time>
      </trkpt>
      <trkpt lat="49.09104" lon="-1.57092">
        <ele>23.1</ele>
        <time>2020-06-12T05:12:47Z</time>
      </trkpt>
      <trkpt lat="49.09108" lon="-1.57098">
        <ele>23</ele>
        <time>2020-06-12T05:12:48Z</time>
      </trkpt>
      <trkpt lat="49.09112" lon="-1.57104">
        <ele>22.9</ele>
        <time>2020-06-12T05:12:49Z</time>
      </trkpt>
      <trkpt lat="49.09116" lon="-1.5711">
        <ele>22.7</ele>
        <time>2020-06-12T05:12:50Z</time>
      </trkpt>
      <trkpt lat="49.0912" lon="-1.57117">
        <ele>22.5</ele>
        <time>2020-06-12T05:12:51Z</time>
      </trkpt>
      <trkpt lat="49.09124" lon="-1.57122">
        <ele>22.4</ele>
        <time>2020-06-12T05:12:52Z</time>
      </trkpt>
      <trkpt lat="49.09127" lon="-1.57129">
        <ele>22.2</ele>
        <time>2020-06-12T05:12:53Z</time>
      </trkpt>
      <trkpt lat="49.09131" lon="-1.57134">
        <ele>22</ele>
        <time>2020-06-12T05:12:54Z</time>
      </trkpt>
      <trkpt lat="49.09135" lon="-1.5714">
        <ele>21.8</ele>
        <time>2020-06-12T05:12:55Z</time>
      </trkpt>
      <trkpt lat="49.09138" lon="-1.57146">
        <ele>21.6</ele>
        <time>2020-06-12T05:12:56Z</time>
      </trkpt>
      <trkpt lat="49.09142" lon="-1.57151">
        <ele>21.5</ele>
        <time>2020-06-12T05:12:57Z</time>
      </trkpt>
      <trkpt lat="49.09146" lon="-1.57157">
        <ele>21.3</ele>
        <time>2020-06-12T05:12:58Z</time>
      </trkpt>
      <trkpt lat="49.0915" lon="-1.57163">
        <ele>21.1</ele>
        <time>2020-06-12T05:12:59Z</time>
      </trkpt>
      <trkpt lat="49.09154" lon="-1.57168">
        <ele>21</ele>
        <time>2020-06-12T05:13:00Z</time>
      </trkpt>
      <trkpt lat="49.09158" lon="-1.57173">
        <ele>20.8</ele>
        <time>2020-06-12T05:13:01Z</time>
      </trkpt>
      <trkpt lat="49.0916" lon="-1.57178">
        <ele>20.7</ele>
        <time>2020-06-12T05:13:02Z</time>
      </trkpt>
      <trkpt lat="49.09163" lon="-1.57183">
        <ele>20.5</ele>
        <time>2020-06-12T05:13:03Z</time>
      </trkpt>
      <trkpt lat="49.09164" lon="-1.57187">
        <ele>20.4</ele>
        <time>2020-06-12T05:13:04Z</time>
      </trkpt>
      <trkpt lat="49.09164" lon="-1.57192">
        <ele>20.3</ele>
        <time>2020-06-12T05:13:05Z</time>
      </trkpt>
      <trkpt lat="49.09162" lon="-1.57196">
        <ele>20.4</ele>
        <time>2020-06-12T05:13:06Z</time>
      </trkpt>
      <trkpt lat="49.09161" lon="-1.572">
        <ele>20.5</ele>
        <time>2020-06-12T05:13:07Z</time>
      </trkpt>
      <trkpt lat="49.0916" lon="-1.57204">
        <ele>20.5</ele>
        <time>2020-06-12T05:13:08Z</time>
      </trkpt>
      <trkpt lat="49.09158" lon="-1.57209">
        <ele>20.6</ele>
        <time>2020-06-12T05:13:09Z</time>
      </trkpt>
      <trkpt lat="49.09157" lon="-1.57213">
        <ele>20.6</ele>
        <time>2020-06-12T05:13:10Z</time>
      </trkpt>
      <trkpt lat="49.09156" lon="-1.57218">
        <ele>20.6</ele>
        <time>2020-06-12T05:13:11Z</time>
      </trkpt>
      <trkpt lat="49.09154" lon="-1.57221">
        <ele>20.7</ele>
        <time>2020-06-12T05:13:12Z</time>
      </trkpt>
      <trkpt lat="49.09152" lon="-1.57225">
        <ele>20.7</ele>
        <time>2020-06-12T05:13:13Z</time>
      </trkpt>
      <trkpt lat="49.0915" lon="-1.5723">
        <ele>20.7</ele>
        <time>2020-06-12T05:13:14Z</time>
      </trkpt>
      <trkpt lat="49.09149" lon="-1.57232">
        <ele>20.7</ele>
        <time>2020-06-12T05:13:15Z</time>
      </trkpt>
      <trkpt lat="49.09147" lon="-1.57237">
        <ele>20.6</ele>
        <time>2020-06-12T05:13:16Z</time>
      </trkpt>
      <trkpt lat="49.09146" lon="-1.57238">
        <ele>20.6</ele>
        <time>2020-06-12T05:13:17Z</time>
      </trkpt>
      <trkpt lat="49.09144" lon="-1.57242">
        <ele>20.5</ele>
        <time>2020-06-12T05:13:18Z</time>
      </trkpt>
      <trkpt lat="49.09142" lon="-1.57245">
        <ele>20.4</ele>
        <time>2020-06-12T05:13:19Z</time>
      </trkpt>
      <trkpt lat="49.09141" lon="-1.57246">
        <ele>20.4</ele>
        <time>2020-06-12T05:13:20Z</time>
      </trkpt>
      <trkpt lat="49.09138" lon="-1.57249">
        <ele>20.2</ele>
        <time>2020-06-12T05:13:21Z</time>
      </trkpt>
      <trkpt lat="49.09137" lon="-1.57249">
        <ele>20.3</ele>
        <time>2020-06-12T05:13:22Z</time>
      </trkpt>
      <trkpt lat="49.09134" lon="-1.5725">
        <ele>20.4</ele>
        <time>2020-06-12T05:13:23Z</time>
      </trkpt>
      <trkpt lat="49.09133" lon="-1.5725">
        <ele>20.4</ele>
        <time>2020-06-12T05:13:24Z</time>
      </trkpt>
      <trkpt lat="49.09129" lon="-1.57251">
        <ele>20.6</ele>
        <time>2020-06-12T05:13:25Z</time>
      </trkpt>
      <trkpt lat="49.09125" lon="-1.57251">
        <ele>20.7</ele>
        <time>2020-06-12T05:13:26Z</time>
      </trkpt>
      <trkpt lat="49.09122" lon="-1.57251">
        <ele>20.8</ele>
        <time>2020-06-12T05:13:27Z</time>
      </trkpt>
      <trkpt lat="49.09119" lon="-1.57248">
        <ele>21</ele>
        <time>2020-06-12T05:13:28Z</time>
      </trkpt>
      <trkpt lat="49.09114" lon="-1.57246">
        <ele>21.1</ele>
        <time>2020-06-12T05:13:29Z</time>
      </trkpt>
      <trkpt lat="49.09109" lon="-1.57244">
        <ele>21.3</ele>
        <time>2020-06-12T05:13:30Z</time>
      </trkpt>
      <trkpt lat="49.09104" lon="-1.57243">
        <ele>21.5</ele>
        <time>2020-06-12T05:13:31Z</time>
      </trkpt>
      <trkpt lat="49.09099" lon="-1.57241">
        <ele>21.6</ele>
        <time>2020-06-12T05:13:32Z</time>
      </trkpt>
      <trkpt lat="49.09095" lon="-1.5724">
        <ele>21.8</ele>
        <time>2020-06-12T05:13:33Z</time>
      </trkpt>
      <trkpt lat="49.09091" lon="-1.57238">
        <ele>21.9</ele>
        <time>2020-06-12T05:13:34Z</time>
      </trkpt>
      <trkpt lat="49.09087" lon="-1.57236">
        <ele>22.1</ele>
        <time>2020-06-12T05:13:35Z</time>
      </trkpt>
      <trkpt lat="49.09084" lon="-1.57234">
        <ele>22.3</ele>
        <time>2020-06-12T05:13:36Z</time>
      </trkpt>
      <trkpt lat="49.09079" lon="-1.57232">
        <ele>22.5</ele>
        <time>2020-06-12T05:13:37Z</time>
      </trkpt>
      <trkpt lat="49.09075" lon="-1.5723">
        <ele>22.7</ele>
        <time>2020-06-12T05:13:38Z</time>
      </trkpt>
      <trkpt lat="49.0907" lon="-1.57227">
        <ele>23</ele>
        <time>2020-06-12T05:13:39Z</time>
      </trkpt>
      <trkpt lat="49.09064" lon="-1.57226">
        <ele>23.2</ele>
        <time>2020-06-12T05:13:40Z</time>
      </trkpt>
      <trkpt lat="49.0906" lon="-1.57224">
        <ele>23.4</ele>
        <time>2020-06-12T05:13:41Z</time>
      </trkpt>
      <trkpt lat="49.09056" lon="-1.57222">
        <ele>23.6</ele>
        <time>2020-06-12T05:13:42Z</time>
      </trkpt>
      <trkpt lat="49.09053" lon="-1.57221">
        <ele>23.8</ele>
        <time>2020-06-12T05:13:43Z</time>
      </trkpt>
      <trkpt lat="49.09049" lon="-1.57219">
        <ele>23.9</ele>
        <time>2020-06-12T05:13:44Z</time>
      </trkpt>
      <trkpt lat="49.09046" lon="-1.57217">
        <ele>24</ele>
        <time>2020-06-12T05:13:45Z</time>
      </trkpt>
      <trkpt lat="49.09043" lon="-1.57217">
        <ele>24.1</ele>
        <time>2020-06-12T05:13:46Z</time>
      </trkpt>
      <trkpt lat="49.0904" lon="-1.57216">
        <ele>24.2</ele>
        <time>2020-06-12T05:13:47Z</time>
      </trkpt>
      <trkpt lat="49.09037" lon="-1.57219">
        <ele>24.2</ele>
        <time>2020-06-12T05:13:48Z</time>
      </trkpt>
      <trkpt lat="49.09036" lon="-1.5722">
        <ele>24.2</ele>
        <time>2020-06-12T05:13:49Z</time>
      </trkpt>
      <trkpt lat="49.09036" lon="-1.57225">
        <ele>24.2</ele>
        <time>2020-06-12T05:13:50Z</time>
      </trkpt>
      <trkpt lat="49.09036" lon="-1.57227">
        <ele>24.1</ele>
        <time>2020-06-12T05:13:51Z</time>
      </trkpt>
      <trkpt lat="49.09036" lon="-1.57232">
        <ele>24</ele>
        <time>2020-06-12T05:13:52Z</time>
      </trkpt>
      <trkpt lat="49.09037" lon="-1.57236">
        <ele>23.9</ele>
        <time>2020-06-12T05:13:53Z</time>
      </trkpt>
      <trkpt lat="49.09037" lon="-1.57243">
        <ele>23.8</ele>
        <time>2020-06-12T05:13:54Z</time>
      </trkpt>
      <trkpt lat="49.09037" lon="-1.57245">
        <ele>23.7</ele>
        <time>2020-06-12T05:13:55Z</time>
      </trkpt>
      <trkpt lat="49.09036" lon="-1.57251">
        <ele>23.6</ele>
        <time>2020-06-12T05:13:56Z</time>
      </trkpt>
      <trkpt lat="49.09037" lon="-1.57256">
        <ele>23.4</ele>
        <time>2020-06-12T05:13:57Z</time>
      </trkpt>
      <trkpt lat="49.09037" lon="-1.57262">
        <ele>23.3</ele>
        <time>2020-06-12T05:13:58Z</time>
      </trkpt>
      <trkpt lat="49.09036" lon="-1.57268">
        <ele>23.1</ele>
        <time>2020-06-12T05:13:59Z</time>
      </trkpt>
      <trkpt lat="49.09036" lon="-1.57275">
        <ele>23</ele>
        <time>2020-06-12T05:14:00Z</time>
      </trkpt>
      <trkpt lat="49.09036" lon="-1.57281">
        <ele>22.9</ele>
        <time>2020-06-12T05:14:01Z</time>
      </trkpt>
      <trkpt lat="49.09035" lon="-1.57288">
        <ele>22.9</ele>
        <time>2020-06-12T05:14:02Z</time>
      </trkpt>
      <trkpt lat="49.09034" lon="-1.57295">
        <ele>22.8</ele>
        <time>2020-06-12T05:14:03Z</time>
      </trkpt>
      <trkpt lat="49.09033" lon="-1.57302">
        <ele>22.7</ele>
        <time>2020-06-12T05:14:04Z</time>
      </trkpt>
      <trkpt lat="49.09033" lon="-1.5731">
        <ele>22.5</ele>
        <time>2020-06-12T05:14:05Z</time>
      </trkpt>
      <trkpt lat="49.09032" lon="-1.57319">
        <ele>22.3</ele>
        <time>2020-06-12T05:14:06Z</time>
      </trkpt>
      <trkpt lat="49.09032" lon="-1.57328">
        <ele>22</ele>
        <time>2020-06-12T05:14:07Z</time>
      </trkpt>
      <trkpt lat="49.09032" lon="-1.57338">
        <ele>21.7</ele>
        <time>2020-06-12T05:14:08Z</time>
      </trkpt>
      <trkpt lat="49.09032" lon="-1.57346">
        <ele>21.5</ele>
        <time>2020-06-12T05:14:09Z</time>
      </trkpt>
      <trkpt lat="49.09031" lon="-1.57356">
        <ele>21.3</ele>
        <time>2020-06-12T05:14:10Z</time>
      </trkpt>
      <trkpt lat="49.09031" lon="-1.57364">
        <ele>21.1</ele>
        <time>2020-06-12T05:14:11Z</time>
      </trkpt>
      <trkpt lat="49.0903" lon="-1.57373">
        <ele>21</ele>
        <time>2020-06-12T05:14:12Z</time>
      </trkpt>
      <trkpt lat="49.09029" lon="-1.57383">
        <ele>20.9</ele>
        <time>2020-06-12T05:14:13Z</time>
      </trkpt>
      <trkpt lat="49.09028" lon="-1.57392">
        <ele>20.8</ele>
        <time>2020-06-12T05:14:14Z</time>
      </trkpt>
      <trkpt lat="49.09028" lon="-1.57401">
        <ele>20.6</ele>
        <time>2020-06-12T05:14:15Z</time>
      </trkpt>
      <trkpt lat="49.09027" lon="-1.5741">
        <ele>20.4</ele>
        <time>2020-06-12T05:14:16Z</time>
      </trkpt>
      <trkpt lat="49.09028" lon="-1.5742">
        <ele>20.2</ele>
        <time>2020-06-12T05:14:17Z</time>
      </trkpt>
      <trkpt lat="49.09028" lon="-1.5743">
        <ele>20</ele>
        <time>2020-06-12T05:14:18Z</time>
      </trkpt>
      <trkpt lat="49.09029" lon="-1.57441">
        <ele>19.8</ele>
        <time>2020-06-12T05:14:19Z</time>
      </trkpt>
      <trkpt lat="49.09028" lon="-1.57454">
        <ele>19.5</ele>
        <time>2020-06-12T05:14:20Z</time>
      </trkpt>
      <trkpt lat="49.09028" lon="-1.57464">
        <ele>19.2</ele>
        <time>2020-06-12T05:14:21Z</time>
      </trkpt>
      <trkpt lat="49.09028" lon="-1.57475">
        <ele>19</ele>
        <time>2020-06-12T05:14:22Z</time>
      </trkpt>
      <trkpt lat="49.09028" lon="-1.57485">
        <ele>18.9</ele>
        <time>2020-06-12T05:14:23Z</time>
      </trkpt>
      <trkpt lat="49.09029" lon="-1.57495">
        <ele>18.8</ele>
        <time>2020-06-12T05:14:24Z</time>
      </trkpt>
      <trkpt lat="49.0903" lon="-1.57504">
        <ele>18.6</ele>
        <time>2020-06-12T05:14:25Z</time>
      </trkpt>
      <trkpt lat="49.0903" lon="-1.57515">
        <ele>18.4</ele>
        <time>2020-06-12T05:14:26Z</time>
      </trkpt>
      <trkpt lat="49.09031" lon="-1.57525">
        <ele>18.3</ele>
        <time>2020-06-12T05:14:27Z</time>
      </trkpt>
      <trkpt lat="49.09031" lon="-1.57534">
        <ele>18.1</ele>
        <time>2020-06-12T05:14:28Z</time>
      </trkpt>
      <trkpt lat="49.09032" lon="-1.57543">
        <ele>18.1</ele>
        <time>2020-06-12T05:14:29Z</time>
      </trkpt>
      <trkpt lat="49.09032" lon="-1.57552">
        <ele>18</ele>
        <time>2020-06-12T05:14:30Z</time>
      </trkpt>
      <trkpt lat="49.09033" lon="-1.57559">
        <ele>18</ele>
        <time>2020-06-12T05:14:31Z</time>
      </trkpt>
      <trkpt lat="49.09034" lon="-1.57568">
        <ele>17.9</ele>
        <time>2020-06-12T05:14:32Z</time>
      </trkpt>
      <trkpt lat="49.09035" lon="-1.57576">
        <ele>17.9</ele>
        <time>2020-06-12T05:14:33Z</time>
      </trkpt>
      <trkpt lat="49.09036" lon="-1.57583">
        <ele>17.9</ele>
        <time>2020-06-12T05:14:34Z</time>
      </trkpt>
      <trkpt lat="49.09037" lon="-1.57591">
        <ele>17.8</ele>
        <time>2020-06-12T05:14:35Z</time>
      </trkpt>
      <trkpt lat="49.09037" lon="-1.576">
        <ele>17.8</ele>
        <time>2020-06-12T05:14:36Z</time>
      </trkpt>
      <trkpt lat="49.09036" lon="-1.57611">
        <ele>17.6</ele>
        <time>2020-06-12T05:14:37Z</time>
      </trkpt>
      <trkpt lat="49.09036" lon="-1.57619">
        <ele>17.5</ele>
        <time>2020-06-12T05:14:38Z</time>
      </trkpt>
      <trkpt lat="49.09037" lon="-1.57629">
        <ele>17.4</ele>
        <time>2020-06-12T05:14:39Z</time>
      </trkpt>
      <trkpt lat="49.09038" lon="-1.57639">
        <ele>17.2</ele>
        <time>2020-06-12T05:14:40Z</time>
      </trkpt>
      <trkpt lat="49.09039" lon="-1.57649">
        <ele>17.1</ele>
        <time>2020-06-12T05:14:41Z</time>
      </trkpt>
      <trkpt lat="49.0904" lon="-1.57658">
        <ele>16.9</ele>
        <time>2020-06-12T05:14:42Z</time>
      </trkpt>
      <trkpt lat="49.09041" lon="-1.57667">
        <ele>16.7</ele>
        <time>2020-06-12T05:14:43Z</time>
      </trkpt>
      <trkpt lat="49.09042" lon="-1.57676">
        <ele>16.6</ele>
        <time>2020-06-12T05:14:44Z</time>
      </trkpt>
      <trkpt lat="49.09041" lon="-1.57686">
        <ele>16.4</ele>
        <time>2020-06-12T05:14:45Z</time>
      </trkpt>
      <trkpt lat="49.09041" lon="-1.57699">
        <ele>16.2</ele>
        <time>2020-06-12T05:14:46Z</time>
      </trkpt>
      <trkpt lat="49.0904" lon="-1.5771">
        <ele>16.1</ele>
        <time>2020-06-12T05:14:47Z</time>
      </trkpt>
      <trkpt lat="49.09039" lon="-1.57722">
        <ele>15.9</ele>
        <time>2020-06-12T05:14:48Z</time>
      </trkpt>
      <trkpt lat="49.09039" lon="-1.57734">
        <ele>15.7</ele>
        <time>2020-06-12T05:14:49Z</time>
      </trkpt>
      <trkpt lat="49.09037" lon="-1.57746">
        <ele>15.6</ele>
        <time>2020-06-12T05:14:50Z</time>
      </trkpt>
      <trkpt lat="49.09037" lon="-1.57757">
        <ele>15.4</ele>
        <time>2020-06-12T05:14:51Z</time>
      </trkpt>
      <trkpt lat="49.09036" lon="-1.57769">
        <ele>15.2</ele>
        <time>2020-06-12T05:14:52Z</time>
      </trkpt>
      <trkpt lat="49.09035" lon="-1.57778">
        <ele>15.1</ele>
        <time>2020-06-12T05:14:53Z</time>
      </trkpt>
      <trkpt lat="49.09033" lon="-1.57788">
        <ele>15</ele>
        <time>2020-06-12T05:14:54Z</time>
      </trkpt>
      <trkpt lat="49.09031" lon="-1.57799">
        <ele>14.9</ele>
        <time>2020-06-12T05:14:55Z</time>
      </trkpt>
      <trkpt lat="49.09029" lon="-1.57809">
        <ele>14.8</ele>
        <time>2020-06-12T05:14:56Z</time>
      </trkpt>
      <trkpt lat="49.09027" lon="-1.57818">
        <ele>14.6</ele>
        <time>2020-06-12T05:14:57Z</time>
      </trkpt>
      <trkpt lat="49.09025" lon="-1.57827">
        <ele>14.5</ele>
        <time>2020-06-12T05:14:58Z</time>
      </trkpt>
      <trkpt lat="49.09023" lon="-1.57836">
        <ele>14.3</ele>
        <time>2020-06-12T05:14:59Z</time>
      </trkpt>
      <trkpt lat="49.09021" lon="-1.57845">
        <ele>14.2</ele>
        <time>2020-06-12T05:15:00Z</time>
      </trkpt>
      <trkpt lat="49.09019" lon="-1.57854">
        <ele>14.1</ele>
        <time>2020-06-12T05:15:01Z</time>
      </trkpt>
      <trkpt lat="49.09017" lon="-1.57862">
        <ele>14.1</ele>
        <time>2020-06-12T05:15:02Z</time>
      </trkpt>
      <trkpt lat="49.09015" lon="-1.57869">
        <ele>14.1</ele>
        <time>2020-06-12T05:15:03Z</time>
      </trkpt>
      <trkpt lat="49.09014" lon="-1.57876">
        <ele>14.1</ele>
        <time>2020-06-12T05:15:04Z</time>
      </trkpt>
      <trkpt lat="49.09013" lon="-1.57885">
        <ele>14.1</ele>
        <time>2020-06-12T05:15:05Z</time>
      </trkpt>
      <trkpt lat="49.09012" lon="-1.57894">
        <ele>14.1</ele>
        <time>2020-06-12T05:15:06Z</time>
      </trkpt>
      <trkpt lat="49.09011" lon="-1.57902">
        <ele>14.1</ele>
        <time>2020-06-12T05:15:07Z</time>
      </trkpt>
      <trkpt lat="49.0901" lon="-1.57909">
        <ele>14.1</ele>
        <time>2020-06-12T05:15:08Z</time>
      </trkpt>
      <trkpt lat="49.09008" lon="-1.57918">
        <ele>14.1</ele>
        <time>2020-06-12T05:15:09Z</time>
      </trkpt>
      <trkpt lat="49.09007" lon="-1.57927">
        <ele>14.1</ele>
        <time>2020-06-12T05:15:10Z</time>
      </trkpt>
      <trkpt lat="49.09006" lon="-1.57936">
        <ele>14.1</ele>
        <time>2020-06-12T05:15:11Z</time>
      </trkpt>
      <trkpt lat="49.09005" lon="-1.57944">
        <ele>14.1</ele>
        <time>2020-06-12T05:15:12Z</time>
      </trkpt>
      <trkpt lat="49.09005" lon="-1.57952">
        <ele>14.2</ele>
        <time>2020-06-12T05:15:13Z</time>
      </trkpt>
      <trkpt lat="49.09003" lon="-1.57961">
        <ele>14.2</ele>
        <time>2020-06-12T05:15:14Z</time>
      </trkpt>
      <trkpt lat="49.09002" lon="-1.57969">
        <ele>14.2</ele>
        <time>2020-06-12T05:15:15Z</time>
      </trkpt>
      <trkpt lat="49.09001" lon="-1.57978">
        <ele>14.2</ele>
        <time>2020-06-12T05:15:16Z</time>
      </trkpt>
      <trkpt lat="49.09" lon="-1.57987">
        <ele>14.2</ele>
        <time>2020-06-12T05:15:17Z</time>
      </trkpt>
      <trkpt lat="49.09001" lon="-1.57994">
        <ele>14.2</ele>
        <time>2020-06-12T05:15:18Z</time>
      </trkpt>
      <trkpt lat="49.09002" lon="-1.58003">
        <ele>14.1</ele>
        <time>2020-06-12T05:15:19Z</time>
      </trkpt>
      <trkpt lat="49.09002" lon="-1.58011">
        <ele>14.1</ele>
        <time>2020-06-12T05:15:20Z</time>
      </trkpt>
      <trkpt lat="49.09003" lon="-1.58019">
        <ele>14</ele>
        <time>2020-06-12T05:15:21Z</time>
      </trkpt>
      <trkpt lat="49.09005" lon="-1.58026">
        <ele>14</ele>
        <time>2020-06-12T05:15:22Z</time>
      </trkpt>
      <trkpt lat="49.09006" lon="-1.58034">
        <ele>13.9</ele>
        <time>2020-06-12T05:15:23Z</time>
      </trkpt>
      <trkpt lat="49.09006" lon="-1.5804">
        <ele>13.8</ele>
        <time>2020-06-12T05:15:24Z</time>
      </trkpt>
      <trkpt lat="49.09006" lon="-1.58048">
        <ele>13.8</ele>
        <time>2020-06-12T05:15:25Z</time>
      </trkpt>
      <trkpt lat="49.09007" lon="-1.58055">
        <ele>13.7</ele>
        <time>2020-06-12T05:15:26Z</time>
      </trkpt>
      <trkpt lat="49.09007" lon="-1.58062">
        <ele>13.7</ele>
        <time>2020-06-12T05:15:27Z</time>
      </trkpt>
      <trkpt lat="49.09007" lon="-1.5807">
        <ele>13.6</ele>
        <time>2020-06-12T05:15:28Z</time>
      </trkpt>
      <trkpt lat="49.09007" lon="-1.5808">
        <ele>13.5</ele>
        <time>2020-06-12T05:15:29Z</time>
      </trkpt>
      <trkpt lat="49.09007" lon="-1.58089">
        <ele>13.5</ele>
        <time>2020-06-12T05:15:30Z</time>
      </trkpt>
      <trkpt lat="49.09007" lon="-1.58098">
        <ele>13.4</ele>
        <time>2020-06-12T05:15:31Z</time>
      </trkpt>
      <trkpt lat="49.09007" lon="-1.58108">
        <ele>13.4</ele>
        <time>2020-06-12T05:15:32Z</time>
      </trkpt>
      <trkpt lat="49.09007" lon="-1.58117">
        <ele>13.4</ele>
        <time>2020-06-12T05:15:33Z</time>
      </trkpt>
      <trkpt lat="49.09007" lon="-1.58126">
        <ele>13.3</ele>
        <time>2020-06-12T05:15:34Z</time>
      </trkpt>
      <trkpt lat="49.09007" lon="-1.58134">
        <ele>13.3</ele>
        <time>2020-06-12T05:15:35Z</time>
      </trkpt>
      <trkpt lat="49.09008" lon="-1.58142">
        <ele>13.3</ele>
        <time>2020-06-12T05:15:36Z</time>
      </trkpt>
      <trkpt lat="49.09008" lon="-1.58149">
        <ele>13.3</ele>
        <time>2020-06-12T05:15:37Z</time>
      </trkpt>
      <trkpt lat="49.09007" lon="-1.58157">
        <ele>13.3</ele>
        <time>2020-06-12T05:15:38Z</time>
      </trkpt>
      <trkpt lat="49.09008" lon="-1.58165">
        <ele>13.2</ele>
        <time>2020-06-12T05:15:39Z</time>
      </trkpt>
      <trkpt lat="49.09008" lon="-1.58174">
        <ele>13.2</ele>
        <time>2020-06-12T05:15:40Z</time>
      </trkpt>
      <trkpt lat="49.09009" lon="-1.58182">
        <ele>13.2</ele>
        <time>2020-06-12T05:15:41Z</time>
      </trkpt>
      <trkpt lat="49.0901" lon="-1.5819">
        <ele>13.1</ele>
        <time>2020-06-12T05:15:42Z</time>
      </trkpt>
      <trkpt lat="49.09012" lon="-1.582">
        <ele>13.1</ele>
        <time>2020-06-12T05:15:43Z</time>
      </trkpt>
      <trkpt lat="49.09014" lon="-1.58209">
        <ele>13.1</ele>
        <time>2020-06-12T05:15:44Z</time>
      </trkpt>
      <trkpt lat="49.09016" lon="-1.58218">
        <ele>13.1</ele>
        <time>2020-06-12T05:15:45Z</time>
      </trkpt>
      <trkpt lat="49.09019" lon="-1.58227">
        <ele>13.1</ele>
        <time>2020-06-12T05:15:46Z</time>
      </trkpt>
      <trkpt lat="49.09021" lon="-1.58235">
        <ele>13.1</ele>
        <time>2020-06-12T05:15:47Z</time>
      </trkpt>
      <trkpt lat="49.09023" lon="-1.58242">
        <ele>13.1</ele>
        <time>2020-06-12T05:15:48Z</time>
      </trkpt>
      <trkpt lat="49.09025" lon="-1.5825">
        <ele>13.1</ele>
        <time>2020-06-12T05:15:49Z</time>
      </trkpt>
      <trkpt lat="49.09028" lon="-1.58258">
        <ele>13</ele>
        <time>2020-06-12T05:15:50Z</time>
      </trkpt>
      <trkpt lat="49.0903" lon="-1.58265">
        <ele>12.9</ele>
        <time>2020-06-12T05:15:51Z</time>
      </trkpt>
      <trkpt lat="49.09032" lon="-1.58271">
        <ele>12.9</ele>
        <time>2020-06-12T05:15:52Z</time>
      </trkpt>
      <trkpt lat="49.09035" lon="-1.58279">
        <ele>12.8</ele>
        <time>2020-06-12T05:15:53Z</time>
      </trkpt>
      <trkpt lat="49.09037" lon="-1.58285">
        <ele>12.8</ele>
        <time>2020-06-12T05:15:54Z</time>
      </trkpt>
      <trkpt lat="49.09039" lon="-1.58292">
        <ele>12.8</ele>
        <time>2020-06-12T05:15:55Z</time>
      </trkpt>
      <trkpt lat="49.09041" lon="-1.58299">
        <ele>12.8</ele>
        <time>2020-06-12T05:15:56Z</time>
      </trkpt>
      <trkpt lat="49.09044" lon="-1.58305">
        <ele>12.8</ele>
        <time>2020-06-12T05:15:57Z</time>
      </trkpt>
      <trkpt lat="49.09046" lon="-1.58313">
        <ele>12.8</ele>
        <time>2020-06-12T05:15:58Z</time>
      </trkpt>
      <trkpt lat="49.09048" lon="-1.5832">
        <ele>12.8</ele>
        <time>2020-06-12T05:15:59Z</time>
      </trkpt>
      <trkpt lat="49.09049" lon="-1.58328">
        <ele>12.8</ele>
        <time>2020-06-12T05:16:00Z</time>
      </trkpt>
      <trkpt lat="49.09051" lon="-1.58337">
        <ele>12.8</ele>
        <time>2020-06-12T05:16:01Z</time>
      </trkpt>
      <trkpt lat="49.09052" lon="-1.58345">
        <ele>12.7</ele>
        <time>2020-06-12T05:16:02Z</time>
      </trkpt>
      <trkpt lat="49.09054" lon="-1.58353">
        <ele>12.6</ele>
        <time>2020-06-12T05:16:03Z</time>
      </trkpt>
      <trkpt lat="49.09055" lon="-1.58361">
        <ele>12.6</ele>
        <time>2020-06-12T05:16:04Z</time>
      </trkpt>
      <trkpt lat="49.09056" lon="-1.58368">
        <ele>12.6</ele>
        <time>2020-06-12T05:16:05Z</time>
      </trkpt>
      <trkpt lat="49.09057" lon="-1.58375">
        <ele>12.6</ele>
        <time>2020-06-12T05:16:06Z</time>
      </trkpt>
      <trkpt lat="49.09058" lon="-1.58382">
        <ele>12.5</ele>
        <time>2020-06-12T05:16:07Z</time>
      </trkpt>
      <trkpt lat="49.09058" lon="-1.58389">
        <ele>12.5</ele>
        <time>2020-06-12T05:16:08Z</time>
      </trkpt>
      <trkpt lat="49.09059" lon="-1.58397">
        <ele>12.5</ele>
        <time>2020-06-12T05:16:09Z</time>
      </trkpt>
      <trkpt lat="49.0906" lon="-1.58405">
        <ele>12.4</ele>
        <time>2020-06-12T05:16:10Z</time>
      </trkpt>
      <trkpt lat="49.0906" lon="-1.58412">
        <ele>12.4</ele>
        <time>2020-06-12T05:16:11Z</time>
      </trkpt>
      <trkpt lat="49.0906" lon="-1.58419">
        <ele>12.4</ele>
        <time>2020-06-12T05:16:12Z</time>
      </trkpt>
      <trkpt lat="49.09061" lon="-1.58426">
        <ele>12.4</ele>
        <time>2020-06-12T05:16:13Z</time>
      </trkpt>
      <trkpt lat="49.0906" lon="-1.58433">
        <ele>12.4</ele>
        <time>2020-06-12T05:16:14Z</time>
      </trkpt>
      <trkpt lat="49.09059" lon="-1.5844">
        <ele>12.5</ele>
        <time>2020-06-12T05:16:15Z</time>
      </trkpt>
      <trkpt lat="49.09059" lon="-1.58448">
        <ele>12.5</ele>
        <time>2020-06-12T05:16:16Z</time>
      </trkpt>
      <trkpt lat="49.09059" lon="-1.58453">
        <ele>12.6</ele>
        <time>2020-06-12T05:16:17Z</time>
      </trkpt>
      <trkpt lat="49.09058" lon="-1.58458">
        <ele>12.5</ele>
        <time>2020-06-12T05:16:18Z</time>
      </trkpt>
      <trkpt lat="49.09058" lon="-1.58459">
        <ele>12.4</ele>
        <time>2020-06-12T05:16:19Z</time>
      </trkpt>
      <trkpt lat="49.09058" lon="-1.58464">
        <ele>12.3</ele>
        <time>2020-06-12T05:16:20Z</time>
      </trkpt>
      <trkpt lat="49.09059" lon="-1.58469">
        <ele>12.1</ele>
        <time>2020-06-12T05:16:21Z</time>
      </trkpt>
      <trkpt lat="49.09059" lon="-1.58472">
        <ele>12.1</ele>
        <time>2020-06-12T05:16:22Z</time>
      </trkpt>
      <trkpt lat="49.09059" lon="-1.58477">
        <ele>11.9</ele>
        <time>2020-06-12T05:16:23Z</time>
      </trkpt>
      <trkpt lat="49.0906" lon="-1.58478">
        <ele>11.9</ele>
        <time>2020-06-12T05:16:24Z</time>
      </trkpt>
      <trkpt lat="49.0906" lon="-1.58483">
        <ele>11.7</ele>
        <time>2020-06-12T05:16:25Z</time>
      </trkpt>
      <trkpt lat="49.0906" lon="-1.58484">
        <ele>11.7</ele>
        <time>2020-06-12T05:16:26Z</time>
      </trkpt>
      <trkpt lat="49.09061" lon="-1.58491">
        <ele>11.5</ele>
        <time>2020-06-12T05:16:27Z</time>
      </trkpt>
      <trkpt lat="49.09061" lon="-1.58493">
        <ele>11.4</ele>
        <time>2020-06-12T05:16:28Z</time>
      </trkpt>
      <trkpt lat="49.09063" lon="-1.58498">
        <ele>11.3</ele>
        <time>2020-06-12T05:16:29Z</time>
      </trkpt>
      <trkpt lat="49.09065" lon="-1.58501">
        <ele>11.2</ele>
        <time>2020-06-12T05:16:30Z</time>
      </trkpt>
      <trkpt lat="49.09066" lon="-1.58505">
        <ele>11.1</ele>
        <time>2020-06-12T05:16:31Z</time>
      </trkpt>
      <trkpt lat="49.09067" lon="-1.58509">
        <ele>11</ele>
        <time>2020-06-12T05:16:32Z</time>
      </trkpt>
      <trkpt lat="49.09068" lon="-1.58513">
        <ele>10.9</ele>
        <time>2020-06-12T05:16:33Z</time>
      </trkpt>
      <trkpt lat="49.09069" lon="-1.58515">
        <ele>10.9</ele>
        <time>2020-06-12T05:16:34Z</time>
      </trkpt>
      <trkpt lat="49.0907" lon="-1.58519">
        <ele>10.8</ele>
        <time>2020-06-12T05:16:35Z</time>
      </trkpt>
      <trkpt lat="49.09072" lon="-1.58523">
        <ele>10.8</ele>
        <time>2020-06-12T05:16:36Z</time>
      </trkpt>
      <trkpt lat="49.09073" lon="-1.58527">
        <ele>10.7</ele>
        <time>2020-06-12T05:16:37Z</time>
      </trkpt>
      <trkpt lat="49.09075" lon="-1.58532">
        <ele>10.7</ele>
        <time>2020-06-12T05:16:38Z</time>
      </trkpt>
      <trkpt lat="49.09077" lon="-1.58537">
        <ele>10.6</ele>
        <time>2020-06-12T05:16:39Z</time>
      </trkpt>
      <trkpt lat="49.09079" lon="-1.58542">
        <ele>10.5</ele>
        <time>2020-06-12T05:16:40Z</time>
      </trkpt>
      <trkpt lat="49.09082" lon="-1.58547">
        <ele>10.5</ele>
        <time>2020-06-12T05:16:41Z</time>
      </trkpt>
      <trkpt lat="49.09085" lon="-1.58553">
        <ele>10.4</ele>
        <time>2020-06-12T05:16:42Z</time>
      </trkpt>
      <trkpt lat="49.09088" lon="-1.58559">
        <ele>10.4</ele>
        <time>2020-06-12T05:16:43Z</time>
      </trkpt>
      <trkpt lat="49.0909" lon="-1.58565">
        <ele>10.3</ele>
        <time>2020-06-12T05:16:44Z</time>
      </trkpt>
      <trkpt lat="49.09092" lon="-1.58572">
        <ele>10.2</ele>
        <time>2020-06-12T05:16:45Z</time>
      </trkpt>
      <trkpt lat="49.09094" lon="-1.58579">
        <ele>10.2</ele>
        <time>2020-06-12T05:16:46Z</time>
      </trkpt>
      <trkpt lat="49.09097" lon="-1.58587">
        <ele>10.1</ele>
        <time>2020-06-12T05:16:47Z</time>
      </trkpt>
      <trkpt lat="49.091" lon="-1.58594">
        <ele>10</ele>
        <time>2020-06-12T05:16:48Z</time>
      </trkpt>
      <trkpt lat="49.09103" lon="-1.586">
        <ele>9.9</ele>
        <time>2020-06-12T05:16:49Z</time>
      </trkpt>
      <trkpt lat="49.09106" lon="-1.58608">
        <ele>9.8</ele>
        <time>2020-06-12T05:16:50Z</time>
      </trkpt>
      <trkpt lat="49.09108" lon="-1.58614">
        <ele>9.8</ele>
        <time>2020-06-12T05:16:51Z</time>
      </trkpt>
      <trkpt lat="49.09111" lon="-1.58621">
        <ele>9.8</ele>
        <time>2020-06-12T05:16:52Z</time>
      </trkpt>
      <trkpt lat="49.09113" lon="-1.58629">
        <ele>9.7</ele>
        <time>2020-06-12T05:16:53Z</time>
      </trkpt>
      <trkpt lat="49.09114" lon="-1.58636">
        <ele>9.7</ele>
        <time>2020-06-12T05:16:54Z</time>
      </trkpt>
      <trkpt lat="49.09116" lon="-1.58643">
        <ele>9.7</ele>
        <time>2020-06-12T05:16:55Z</time>
      </trkpt>
      <trkpt lat="49.09117" lon="-1.5865">
        <ele>9.6</ele>
        <time>2020-06-12T05:16:56Z</time>
      </trkpt>
      <trkpt lat="49.09119" lon="-1.58657">
        <ele>9.5</ele>
        <time>2020-06-12T05:16:57Z</time>
      </trkpt>
      <trkpt lat="49.0912" lon="-1.58664">
        <ele>9.5</ele>
        <time>2020-06-12T05:16:58Z</time>
      </trkpt>
      <trkpt lat="49.09122" lon="-1.58672">
        <ele>9.4</ele>
        <time>2020-06-12T05:16:59Z</time>
      </trkpt>
      <trkpt lat="49.09124" lon="-1.58679">
        <ele>9.3</ele>
        <time>2020-06-12T05:17:00Z</time>
      </trkpt>
      <trkpt lat="49.09127" lon="-1.58686">
        <ele>9.2</ele>
        <time>2020-06-12T05:17:01Z</time>
      </trkpt>
      <trkpt lat="49.09129" lon="-1.58693">
        <ele>9.2</ele>
        <time>2020-06-12T05:17:02Z</time>
      </trkpt>
      <trkpt lat="49.0913" lon="-1.58701">
        <ele>9.1</ele>
        <time>2020-06-12T05:17:03Z</time>
      </trkpt>
      <trkpt lat="49.09132" lon="-1.5871">
        <ele>9</ele>
        <time>2020-06-12T05:17:04Z</time>
      </trkpt>
      <trkpt lat="49.09133" lon="-1.58718">
        <ele>9</ele>
        <time>2020-06-12T05:17:05Z</time>
      </trkpt>
      <trkpt lat="49.09135" lon="-1.58726">
        <ele>8.9</ele>
        <time>2020-06-12T05:17:06Z</time>
      </trkpt>
      <trkpt lat="49.09137" lon="-1.58734">
        <ele>8.8</ele>
        <time>2020-06-12T05:17:07Z</time>
      </trkpt>
      <trkpt lat="49.09139" lon="-1.58742">
        <ele>8.8</ele>
        <time>2020-06-12T05:17:08Z</time>
      </trkpt>
      <trkpt lat="49.09141" lon="-1.58749">
        <ele>8.7</ele>
        <time>2020-06-12T05:17:09Z</time>
      </trkpt>
      <trkpt lat="49.09143" lon="-1.58755">
        <ele>8.7</ele>
        <time>2020-06-12T05:17:10Z</time>
      </trkpt>
      <trkpt lat="49.09146" lon="-1.58762">
        <ele>8.6</ele>
        <time>2020-06-12T05:17:11Z</time>
      </trkpt>
      <trkpt lat="49.0915" lon="-1.5877">
        <ele>8.6</ele>
        <time>2020-06-12T05:17:12Z</time>
      </trkpt>
      <trkpt lat="49.09155" lon="-1.58779">
        <ele>8.6</ele>
        <time>2020-06-12T05:17:13Z</time>
      </trkpt>
      <trkpt lat="49.09159" lon="-1.58787">
        <ele>8.6</ele>
        <time>2020-06-12T05:17:14Z</time>
      </trkpt>
      <trkpt lat="49.09163" lon="-1.58794">
        <ele>8.6</ele>
        <time>2020-06-12T05:17:15Z</time>
      </trkpt>
      <trkpt lat="49.09166" lon="-1.58801">
        <ele>8.6</ele>
        <time>2020-06-12T05:17:16Z</time>
      </trkpt>
      <trkpt lat="49.09169" lon="-1.58808">
        <ele>8.6</ele>
        <time>2020-06-12T05:17:17Z</time>
      </trkpt>
      <trkpt lat="49.09171" lon="-1.58816">
        <ele>8.6</ele>
        <time>2020-06-12T05:17:18Z</time>
      </trkpt>
      <trkpt lat="49.09174" lon="-1.58824">
        <ele>8.7</ele>
        <time>2020-06-12T05:17:19Z</time>
      </trkpt>
      <trkpt lat="49.09176" lon="-1.5883">
        <ele>8.8</ele>
        <time>2020-06-12T05:17:20Z</time>
      </trkpt>
      <trkpt lat="49.09178" lon="-1.58838">
        <ele>8.8</ele>
        <time>2020-06-12T05:17:21Z</time>
      </trkpt>
      <trkpt lat="49.09181" lon="-1.58846">
        <ele>8.7</ele>
        <time>2020-06-12T05:17:22Z</time>
      </trkpt>
      <trkpt lat="49.09183" lon="-1.58855">
        <ele>8.7</ele>
        <time>2020-06-12T05:17:23Z</time>
      </trkpt>
      <trkpt lat="49.09186" lon="-1.58863">
        <ele>8.6</ele>
        <time>2020-06-12T05:17:24Z</time>
      </trkpt>
      <trkpt lat="49.09188" lon="-1.5887">
        <ele>8.6</ele>
        <time>2020-06-12T05:17:25Z</time>
      </trkpt>
      <trkpt lat="49.0919" lon="-1.58878">
        <ele>8.5</ele>
        <time>2020-06-12T05:17:26Z</time>
      </trkpt>
      <trkpt lat="49.09192" lon="-1.58885">
        <ele>8.5</ele>
        <time>2020-06-12T05:17:27Z</time>
      </trkpt>
      <trkpt lat="49.09193" lon="-1.58892">
        <ele>8.4</ele>
        <time>2020-06-12T05:17:28Z</time>
      </trkpt>
      <trkpt lat="49.09193" lon="-1.58899">
        <ele>8.3</ele>
        <time>2020-06-12T05:17:29Z</time>
      </trkpt>
      <trkpt lat="49.09194" lon="-1.58907">
        <ele>8.3</ele>
        <time>2020-06-12T05:17:30Z</time>
      </trkpt>
      <trkpt lat="49.09195" lon="-1.58915">
        <ele>8.2</ele>
        <time>2020-06-12T05:17:31Z</time>
      </trkpt>
      <trkpt lat="49.09196" lon="-1.58923">
        <ele>8.2</ele>
        <time>2020-06-12T05:17:32Z</time>
      </trkpt>
      <trkpt lat="49.09197" lon="-1.58932">
        <ele>8.1</ele>
        <time>2020-06-12T05:17:33Z</time>
      </trkpt>
      <trkpt lat="49.09197" lon="-1.58941">
        <ele>8</ele>
        <time>2020-06-12T05:17:34Z</time>
      </trkpt>
      <trkpt lat="49.09199" lon="-1.5895">
        <ele>8</ele>
        <time>2020-06-12T05:17:35Z</time>
      </trkpt>
      <trkpt lat="49.09201" lon="-1.58959">
        <ele>8</ele>
        <time>2020-06-12T05:17:36Z</time>
      </trkpt>
      <trkpt lat="49.09202" lon="-1.58968">
        <ele>7.9</ele>
        <time>2020-06-12T05:17:37Z</time>
      </trkpt>
      <trkpt lat="49.09203" lon="-1.58977">
        <ele>7.9</ele>
        <time>2020-06-12T05:17:38Z</time>
      </trkpt>
      <trkpt lat="49.09204" lon="-1.58985">
        <ele>7.8</ele>
        <time>2020-06-12T05:17:39Z</time>
      </trkpt>
      <trkpt lat="49.09205" lon="-1.58994">
        <ele>7.8</ele>
        <time>2020-06-12T05:17:40Z</time>
      </trkpt>
      <trkpt lat="49.09206" lon="-1.59003">
        <ele>7.8</ele>
        <time>2020-06-12T05:17:41Z</time>
      </trkpt>
      <trkpt lat="49.09207" lon="-1.59011">
        <ele>7.8</ele>
        <time>2020-06-12T05:17:42Z</time>
      </trkpt>
      <trkpt lat="49.09207" lon="-1.5902">
        <ele>7.8</ele>
        <time>2020-06-12T05:17:43Z</time>
      </trkpt>
      <trkpt lat="49.09208" lon="-1.59028">
        <ele>7.8</ele>
        <time>2020-06-12T05:17:44Z</time>
      </trkpt>
      <trkpt lat="49.09209" lon="-1.59035">
        <ele>7.8</ele>
        <time>2020-06-12T05:17:45Z</time>
      </trkpt>
      <trkpt lat="49.0921" lon="-1.59043">
        <ele>7.7</ele>
        <time>2020-06-12T05:17:46Z</time>
      </trkpt>
      <trkpt lat="49.09211" lon="-1.5905">
        <ele>7.7</ele>
        <time>2020-06-12T05:17:47Z</time>
      </trkpt>
      <trkpt lat="49.09213" lon="-1.59056">
        <ele>7.7</ele>
        <time>2020-06-12T05:17:48Z</time>
      </trkpt>
      <trkpt lat="49.09215" lon="-1.59062">
        <ele>7.6</ele>
        <time>2020-06-12T05:17:49Z</time>
      </trkpt>
      <trkpt lat="49.09216" lon="-1.59068">
        <ele>7.6</ele>
        <time>2020-06-12T05:17:50Z</time>
      </trkpt>
      <trkpt lat="49.09219" lon="-1.59075">
        <ele>7.5</ele>
        <time>2020-06-12T05:17:51Z</time>
      </trkpt>
      <trkpt lat="49.09222" lon="-1.59084">
        <ele>7.4</ele>
        <time>2020-06-12T05:17:52Z</time>
      </trkpt>
      <trkpt lat="49.09224" lon="-1.59093">
        <ele>7.3</ele>
        <time>2020-06-12T05:17:53Z</time>
      </trkpt>
      <trkpt lat="49.09226" lon="-1.59104">
        <ele>7.3</ele>
        <time>2020-06-12T05:17:54Z</time>
      </trkpt>
      <trkpt lat="49.09228" lon="-1.59112">
        <ele>7.3</ele>
        <time>2020-06-12T05:17:55Z</time>
      </trkpt>
      <trkpt lat="49.09229" lon="-1.5912">
        <ele>7.2</ele>
        <time>2020-06-12T05:17:56Z</time>
      </trkpt>
      <trkpt lat="49.0923" lon="-1.59128">
        <ele>7.2</ele>
        <time>2020-06-12T05:17:57Z</time>
      </trkpt>
      <trkpt lat="49.09232" lon="-1.59136">
        <ele>7.2</ele>
        <time>2020-06-12T05:17:58Z</time>
      </trkpt>
      <trkpt lat="49.09233" lon="-1.59143">
        <ele>7.2</ele>
        <time>2020-06-12T05:17:59Z</time>
      </trkpt>
      <trkpt lat="49.09235" lon="-1.5915">
        <ele>7.1</ele>
        <time>2020-06-12T05:18:00Z</time>
      </trkpt>
      <trkpt lat="49.09236" lon="-1.59157">
        <ele>7.1</ele>
        <time>2020-06-12T05:18:01Z</time>
      </trkpt>
      <trkpt lat="49.09238" lon="-1.59164">
        <ele>7.1</ele>
        <time>2020-06-12T05:18:02Z</time>
      </trkpt>
      <trkpt lat="49.09239" lon="-1.59172">
        <ele>7.1</ele>
        <time>2020-06-12T05:18:03Z</time>
      </trkpt>
      <trkpt lat="49.09241" lon="-1.5918">
        <ele>7.1</ele>
        <time>2020-06-12T05:18:04Z</time>
      </trkpt>
      <trkpt lat="49.09242" lon="-1.59186">
        <ele>7.1</ele>
        <time>2020-06-12T05:18:05Z</time>
      </trkpt>
      <trkpt lat="49.09243" lon="-1.59193">
        <ele>7.1</ele>
        <time>2020-06-12T05:18:06Z</time>
      </trkpt>
      <trkpt lat="49.09243" lon="-1.59199">
        <ele>7.1</ele>
        <time>2020-06-12T05:18:07Z</time>
      </trkpt>
      <trkpt lat="49.09244" lon="-1.59204">
        <ele>7</ele>
        <time>2020-06-12T05:18:08Z</time>
      </trkpt>
      <trkpt lat="49.09245" lon="-1.59212">
        <ele>7</ele>
        <time>2020-06-12T05:18:09Z</time>
      </trkpt>
      <trkpt lat="49.09246" lon="-1.5922">
        <ele>7</ele>
        <time>2020-06-12T05:18:10Z</time>
      </trkpt>
      <trkpt lat="49.09248" lon="-1.59226">
        <ele>6.9</ele>
        <time>2020-06-12T05:18:11Z</time>
      </trkpt>
      <trkpt lat="49.09249" lon="-1.59231">
        <ele>6.9</ele>
        <time>2020-06-12T05:18:12Z</time>
      </trkpt>
      <trkpt lat="49.09249" lon="-1.59237">
        <ele>6.9</ele>
        <time>2020-06-12T05:18:13Z</time>
      </trkpt>
      <trkpt lat="49.0925" lon="-1.59243">
        <ele>6.8</ele>
        <time>2020-06-12T05:18:14Z</time>
      </trkpt>
      <trkpt lat="49.09251" lon="-1.59248">
        <ele>6.8</ele>
        <time>2020-06-12T05:18:15Z</time>
      </trkpt>
      <trkpt lat="49.09251" lon="-1.59255">
        <ele>6.8</ele>
        <time>2020-06-12T05:18:16Z</time>
      </trkpt>
      <trkpt lat="49.09252" lon="-1.59262">
        <ele>6.7</ele>
        <time>2020-06-12T05:18:17Z</time>
      </trkpt>
      <trkpt lat="49.09253" lon="-1.59269">
        <ele>6.7</ele>
        <time>2020-06-12T05:18:18Z</time>
      </trkpt>
      <trkpt lat="49.09255" lon="-1.59277">
        <ele>6.7</ele>
        <time>2020-06-12T05:18:19Z</time>
      </trkpt>
      <trkpt lat="49.09259" lon="-1.59288">
        <ele>6.6</ele>
        <time>2020-06-12T05:18:20Z</time>
      </trkpt>
      <trkpt lat="49.09261" lon="-1.59299">
        <ele>6.5</ele>
        <time>2020-06-12T05:18:21Z</time>
      </trkpt>
      <trkpt lat="49.09265" lon="-1.59309">
        <ele>6.4</ele>
        <time>2020-06-12T05:18:22Z</time>
      </trkpt>
      <trkpt lat="49.09267" lon="-1.59318">
        <ele>6.4</ele>
        <time>2020-06-12T05:18:23Z</time>
      </trkpt>
      <trkpt lat="49.09269" lon="-1.59325">
        <ele>6.3</ele>
        <time>2020-06-12T05:18:24Z</time>
      </trkpt>
      <trkpt lat="49.0927" lon="-1.59332">
        <ele>6.3</ele>
        <time>2020-06-12T05:18:25Z</time>
      </trkpt>
      <trkpt lat="49.0927" lon="-1.59338">
        <ele>6.2</ele>
        <time>2020-06-12T05:18:26Z</time>
      </trkpt>
      <trkpt lat="49.0927" lon="-1.59344">
        <ele>6.2</ele>
        <time>2020-06-12T05:18:27Z</time>
      </trkpt>
      <trkpt lat="49.09269" lon="-1.5935">
        <ele>6.2</ele>
        <time>2020-06-12T05:18:28Z</time>
      </trkpt>
      <trkpt lat="49.09267" lon="-1.59357">
        <ele>6.1</ele>
        <time>2020-06-12T05:18:29Z</time>
      </trkpt>
      <trkpt lat="49.09267" lon="-1.59366">
        <ele>6.1</ele>
        <time>2020-06-12T05:18:30Z</time>
      </trkpt>
      <trkpt lat="49.09267" lon="-1.59374">
        <ele>6.1</ele>
        <time>2020-06-12T05:18:31Z</time>
      </trkpt>
      <trkpt lat="49.09266" lon="-1.59383">
        <ele>6.1</ele>
        <time>2020-06-12T05:18:32Z</time>
      </trkpt>
      <trkpt lat="49.09265" lon="-1.59392">
        <ele>6</ele>
        <time>2020-06-12T05:18:33Z</time>
      </trkpt>
      <trkpt lat="49.09265" lon="-1.59399">
        <ele>6</ele>
        <time>2020-06-12T05:18:34Z</time>
      </trkpt>
      <trkpt lat="49.09265" lon="-1.59406">
        <ele>6</ele>
        <time>2020-06-12T05:18:35Z</time>
      </trkpt>
      <trkpt lat="49.09267" lon="-1.59414">
        <ele>6</ele>
        <time>2020-06-12T05:18:36Z</time>
      </trkpt>
      <trkpt lat="49.09268" lon="-1.59424">
        <ele>5.9</ele>
        <time>2020-06-12T05:18:37Z</time>
      </trkpt>
      <trkpt lat="49.09269" lon="-1.59433">
        <ele>5.8</ele>
        <time>2020-06-12T05:18:38Z</time>
      </trkpt>
      <trkpt lat="49.0927" lon="-1.59442">
        <ele>5.8</ele>
        <time>2020-06-12T05:18:39Z</time>
      </trkpt>
      <trkpt lat="49.09272" lon="-1.5945">
        <ele>5.7</ele>
        <time>2020-06-12T05:18:40Z</time>
      </trkpt>
      <trkpt lat="49.09274" lon="-1.59458">
        <ele>5.7</ele>
        <time>2020-06-12T05:18:41Z</time>
      </trkpt>
      <trkpt lat="49.09274" lon="-1.59466">
        <ele>5.6</ele>
        <time>2020-06-12T05:18:42Z</time>
      </trkpt>
      <trkpt lat="49.09275" lon="-1.59474">
        <ele>5.6</ele>
        <time>2020-06-12T05:18:43Z</time>
      </trkpt>
      <trkpt lat="49.09275" lon="-1.59483">
        <ele>5.6</ele>
        <time>2020-06-12T05:18:44Z</time>
      </trkpt>
      <trkpt lat="49.09276" lon="-1.59492">
        <ele>5.5</ele>
        <time>2020-06-12T05:18:45Z</time>
      </trkpt>
      <trkpt lat="49.09276" lon="-1.595">
        <ele>5.5</ele>
        <time>2020-06-12T05:18:46Z</time>
      </trkpt>
      <trkpt lat="49.09277" lon="-1.59508">
        <ele>5.5</ele>
        <time>2020-06-12T05:18:47Z</time>
      </trkpt>
      <trkpt lat="49.09277" lon="-1.59515">
        <ele>5.5</ele>
        <time>2020-06-12T05:18:48Z</time>
      </trkpt>
      <trkpt lat="49.09279" lon="-1.59521">
        <ele>5.4</ele>
        <time>2020-06-12T05:18:49Z</time>
      </trkpt>
      <trkpt lat="49.09281" lon="-1.59528">
        <ele>5.4</ele>
        <time>2020-06-12T05:18:50Z</time>
      </trkpt>
      <trkpt lat="49.09282" lon="-1.59537">
        <ele>5.4</ele>
        <time>2020-06-12T05:18:51Z</time>
      </trkpt>
      <trkpt lat="49.09284" lon="-1.59545">
        <ele>5.4</ele>
        <time>2020-06-12T05:18:52Z</time>
      </trkpt>
      <trkpt lat="49.09285" lon="-1.59552">
        <ele>5.3</ele>
        <time>2020-06-12T05:18:53Z</time>
      </trkpt>
      <trkpt lat="49.09287" lon="-1.59559">
        <ele>5.3</ele>
        <time>2020-06-12T05:18:54Z</time>
      </trkpt>
      <trkpt lat="49.09289" lon="-1.59567">
        <ele>5.2</ele>
        <time>2020-06-12T05:18:55Z</time>
      </trkpt>
      <trkpt lat="49.0929" lon="-1.59574">
        <ele>5.1</ele>
        <time>2020-06-12T05:18:56Z</time>
      </trkpt>
      <trkpt lat="49.09291" lon="-1.59581">
        <ele>5</ele>
        <time>2020-06-12T05:18:57Z</time>
      </trkpt>
      <trkpt lat="49.09293" lon="-1.59588">
        <ele>4.9</ele>
        <time>2020-06-12T05:18:58Z</time>
      </trkpt>
      <trkpt lat="49.09294" lon="-1.59594">
        <ele>4.8</ele>
        <time>2020-06-12T05:18:59Z</time>
      </trkpt>
      <trkpt lat="49.09295" lon="-1.596">
        <ele>4.8</ele>
        <time>2020-06-12T05:19:00Z</time>
      </trkpt>
      <trkpt lat="49.09296" lon="-1.59606">
        <ele>4.7</ele>
        <time>2020-06-12T05:19:01Z</time>
      </trkpt>
      <trkpt lat="49.09297" lon="-1.59613">
        <ele>4.7</ele>
        <time>2020-06-12T05:19:02Z</time>
      </trkpt>
      <trkpt lat="49.09298" lon="-1.59621">
        <ele>4.7</ele>
        <time>2020-06-12T05:19:03Z</time>
      </trkpt>
      <trkpt lat="49.093" lon="-1.59628">
        <ele>4.7</ele>
        <time>2020-06-12T05:19:04Z</time>
      </trkpt>
      <trkpt lat="49.09302" lon="-1.59635">
        <ele>4.7</ele>
        <time>2020-06-12T05:19:05Z</time>
      </trkpt>
      <trkpt lat="49.09304" lon="-1.59642">
        <ele>4.6</ele>
        <time>2020-06-12T05:19:06Z</time>
      </trkpt>
      <trkpt lat="49.09306" lon="-1.5965">
        <ele>4.6</ele>
        <time>2020-06-12T05:19:07Z</time>
      </trkpt>
      <trkpt lat="49.09307" lon="-1.59658">
        <ele>4.6</ele>
        <time>2020-06-12T05:19:08Z</time>
      </trkpt>
      <trkpt lat="49.09308" lon="-1.59668">
        <ele>4.6</ele>
        <time>2020-06-12T05:19:09Z</time>
      </trkpt>
      <trkpt lat="49.09308" lon="-1.59676">
        <ele>4.5</ele>
        <time>2020-06-12T05:19:10Z</time>
      </trkpt>
      <trkpt lat="49.09309" lon="-1.59685">
        <ele>4.5</ele>
        <time>2020-06-12T05:19:11Z</time>
      </trkpt>
      <trkpt lat="49.09309" lon="-1.59694">
        <ele>4.5</ele>
        <time>2020-06-12T05:19:12Z</time>
      </trkpt>
      <trkpt lat="49.09308" lon="-1.59701">
        <ele>4.5</ele>
        <time>2020-06-12T05:19:13Z</time>
      </trkpt>
      <trkpt lat="49.09306" lon="-1.5971">
        <ele>4.5</ele>
        <time>2020-06-12T05:19:14Z</time>
      </trkpt>
      <trkpt lat="49.09304" lon="-1.59719">
        <ele>4.5</ele>
        <time>2020-06-12T05:19:15Z</time>
      </trkpt>
      <trkpt lat="49.09302" lon="-1.59727">
        <ele>4.5</ele>
        <time>2020-06-12T05:19:16Z</time>
      </trkpt>
      <trkpt lat="49.09301" lon="-1.59735">
        <ele>4.6</ele>
        <time>2020-06-12T05:19:17Z</time>
      </trkpt>
      <trkpt lat="49.093" lon="-1.59744">
        <ele>4.6</ele>
        <time>2020-06-12T05:19:18Z</time>
      </trkpt>
      <trkpt lat="49.093" lon="-1.59752">
        <ele>4.7</ele>
        <time>2020-06-12T05:19:19Z</time>
      </trkpt>
      <trkpt lat="49.093" lon="-1.5976">
        <ele>4.8</ele>
        <time>2020-06-12T05:19:20Z</time>
      </trkpt>
      <trkpt lat="49.093" lon="-1.59768">
        <ele>4.8</ele>
        <time>2020-06-12T05:19:21Z</time>
      </trkpt>
      <trkpt lat="49.09301" lon="-1.59776">
        <ele>4.8</ele>
        <time>2020-06-12T05:19:22Z</time>
      </trkpt>
      <trkpt lat="49.093" lon="-1.59782">
        <ele>4.9</ele>
        <time>2020-06-12T05:19:23Z</time>
      </trkpt>
      <trkpt lat="49.093" lon="-1.5979">
        <ele>4.9</ele>
        <time>2020-06-12T05:19:24Z</time>
      </trkpt>
      <trkpt lat="49.09302" lon="-1.59798">
        <ele>4.9</ele>
        <time>2020-06-12T05:19:25Z</time>
      </trkpt>
      <trkpt lat="49.09304" lon="-1.59805">
        <ele>5</ele>
        <time>2020-06-12T05:19:26Z</time>
      </trkpt>
      <trkpt lat="49.09305" lon="-1.59813">
        <ele>5.1</ele>
        <time>2020-06-12T05:19:27Z</time>
      </trkpt>
      <trkpt lat="49.09307" lon="-1.59821">
        <ele>5.1</ele>
        <time>2020-06-12T05:19:28Z</time>
      </trkpt>
      <trkpt lat="49.09308" lon="-1.59828">
        <ele>5.2</ele>
        <time>2020-06-12T05:19:29Z</time>
      </trkpt>
      <trkpt lat="49.09309" lon="-1.59836">
        <ele>5.3</ele>
        <time>2020-06-12T05:19:30Z</time>
      </trkpt>
      <trkpt lat="49.0931" lon="-1.59844">
        <ele>5.4</ele>
        <time>2020-06-12T05:19:31Z</time>
      </trkpt>
      <trkpt lat="49.09311" lon="-1.59851">
        <ele>5.6</ele>
        <time>2020-06-12T05:19:32Z</time>
      </trkpt>
      <trkpt lat="49.09312" lon="-1.59858">
        <ele>5.7</ele>
        <time>2020-06-12T05:19:33Z</time>
      </trkpt>
      <trkpt lat="49.09313" lon="-1.59865">
        <ele>5.8</ele>
        <time>2020-06-12T05:19:34Z</time>
      </trkpt>
      <trkpt lat="49.09314" lon="-1.59871">
        <ele>5.8</ele>
        <time>2020-06-12T05:19:35Z</time>
      </trkpt>
      <trkpt lat="49.09316" lon="-1.59877">
        <ele>5.9</ele>
        <time>2020-06-12T05:19:36Z</time>
      </trkpt>
      <trkpt lat="49.09317" lon="-1.59883">
        <ele>6</ele>
        <time>2020-06-12T05:19:37Z</time>
      </trkpt>
      <trkpt lat="49.09318" lon="-1.59889">
        <ele>6.1</ele>
        <time>2020-06-12T05:19:38Z</time>
      </trkpt>
      <trkpt lat="49.09318" lon="-1.59896">
        <ele>6.3</ele>
        <time>2020-06-12T05:19:39Z</time>
      </trkpt>
      <trkpt lat="49.09319" lon="-1.59903">
        <ele>6.4</ele>
        <time>2020-06-12T05:19:40Z</time>
      </trkpt>
      <trkpt lat="49.09319" lon="-1.59909">
        <ele>6.5</ele>
        <time>2020-06-12T05:19:41Z</time>
      </trkpt>
      <trkpt lat="49.0932" lon="-1.59913">
        <ele>6.6</ele>
        <time>2020-06-12T05:19:42Z</time>
      </trkpt>
      <trkpt lat="49.09323" lon="-1.59916">
        <ele>6.5</ele>
        <time>2020-06-12T05:19:43Z</time>
      </trkpt>
      <trkpt lat="49.09325" lon="-1.59918">
        <ele>6.4</ele>
        <time>2020-06-12T05:19:44Z</time>
      </trkpt>
      <trkpt lat="49.09328" lon="-1.59918">
        <ele>6.4</ele>
        <time>2020-06-12T05:19:45Z</time>
      </trkpt>
      <trkpt lat="49.09331" lon="-1.59918">
        <ele>6.4</ele>
        <time>2020-06-12T05:19:46Z</time>
      </trkpt>
      <trkpt lat="49.09331" lon="-1.59918">
        <ele>6.4</ele>
        <time>2020-06-12T05:19:47Z</time>
      </trkpt>
      <trkpt lat="49.09334" lon="-1.59919">
        <ele>6.3</ele>
        <time>2020-06-12T05:19:48Z</time>
      </trkpt>
      <trkpt lat="49.09334" lon="-1.59918">
        <ele>6.3</ele>
        <time>2020-06-12T05:19:49Z</time>
      </trkpt>
      <trkpt lat="49.09336" lon="-1.59918">
        <ele>6.3</ele>
        <time>2020-06-12T05:19:50Z</time>
      </trkpt>
      <trkpt lat="49.09337" lon="-1.59917">
        <ele>6.3</ele>
        <time>2020-06-12T05:19:51Z</time>
      </trkpt>
      <trkpt lat="49.09338" lon="-1.59916">
        <ele>6.3</ele>
        <time>2020-06-12T05:19:52Z</time>
      </trkpt>
      <trkpt lat="49.09342" lon="-1.59915">
        <ele>6.3</ele>
        <time>2020-06-12T05:19:53Z</time>
      </trkpt>
      <trkpt lat="49.09343" lon="-1.59916">
        <ele>6.3</ele>
        <time>2020-06-12T05:19:54Z</time>
      </trkpt>
      <trkpt lat="49.09346" lon="-1.59915">
        <ele>6.3</ele>
        <time>2020-06-12T05:19:55Z</time>
      </trkpt>
      <trkpt lat="49.09349" lon="-1.59914">
        <ele>6.2</ele>
        <time>2020-06-12T05:19:56Z</time>
      </trkpt>
      <trkpt lat="49.09352" lon="-1.59915">
        <ele>6.2</ele>
        <time>2020-06-12T05:19:57Z</time>
      </trkpt>
      <trkpt lat="49.09356" lon="-1.59913">
        <ele>6.2</ele>
        <time>2020-06-12T05:19:58Z</time>
      </trkpt>
      <trkpt lat="49.0936" lon="-1.59912">
        <ele>6.2</ele>
        <time>2020-06-12T05:19:59Z</time>
      </trkpt>
      <trkpt lat="49.09363" lon="-1.59911">
        <ele>6.2</ele>
        <time>2020-06-12T05:20:00Z</time>
      </trkpt>
      <trkpt lat="49.09368" lon="-1.59911">
        <ele>6.2</ele>
        <time>2020-06-12T05:20:01Z</time>
      </trkpt>
      <trkpt lat="49.09373" lon="-1.5991">
        <ele>6.2</ele>
        <time>2020-06-12T05:20:02Z</time>
      </trkpt>
      <trkpt lat="49.09378" lon="-1.5991">
        <ele>6.2</ele>
        <time>2020-06-12T05:20:03Z</time>
      </trkpt>
      <trkpt lat="49.09382" lon="-1.59909">
        <ele>6.2</ele>
        <time>2020-06-12T05:20:04Z</time>
      </trkpt>
      <trkpt lat="49.09386" lon="-1.59908">
        <ele>6.2</ele>
        <time>2020-06-12T05:20:05Z</time>
      </trkpt>
      <trkpt lat="49.09391" lon="-1.59908">
        <ele>6.2</ele>
        <time>2020-06-12T05:20:06Z</time>
      </trkpt>
      <trkpt lat="49.09395" lon="-1.59908">
        <ele>6.2</ele>
        <time>2020-06-12T05:20:07Z</time>
      </trkpt>
      <trkpt lat="49.094" lon="-1.59909">
        <ele>6.1</ele>
        <time>2020-06-12T05:20:08Z</time>
      </trkpt>
      <trkpt lat="49.09403" lon="-1.59908">
        <ele>6.1</ele>
        <time>2020-06-12T05:20:09Z</time>
      </trkpt>
      <trkpt lat="49.09407" lon="-1.59908">
        <ele>6.1</ele>
        <time>2020-06-12T05:20:10Z</time>
      </trkpt>
      <trkpt lat="49.0941" lon="-1.59908">
        <ele>6.1</ele>
        <time>2020-06-12T05:20:11Z</time>
      </trkpt>
      <trkpt lat="49.09413" lon="-1.59908">
        <ele>6.1</ele>
        <time>2020-06-12T05:20:12Z</time>
      </trkpt>
      <trkpt lat="49.09417" lon="-1.59908">
        <ele>6.1</ele>
        <time>2020-06-12T05:20:13Z</time>
      </trkpt>
      <trkpt lat="49.09421" lon="-1.59906">
        <ele>6</ele>
        <time>2020-06-12T05:20:14Z</time>
      </trkpt>
      <trkpt lat="49.09425" lon="-1.59902">
        <ele>6</ele>
        <time>2020-06-12T05:20:15Z</time>
      </trkpt>
      <trkpt lat="49.09429" lon="-1.59901">
        <ele>6</ele>
        <time>2020-06-12T05:20:16Z</time>
      </trkpt>
      <trkpt lat="49.09435" lon="-1.599">
        <ele>6</ele>
        <time>2020-06-12T05:20:17Z</time>
      </trkpt>
      <trkpt lat="49.09442" lon="-1.59898">
        <ele>5.9</ele>
        <time>2020-06-12T05:20:18Z</time>
      </trkpt>
      <trkpt lat="49.09448" lon="-1.59898">
        <ele>5.9</ele>
        <time>2020-06-12T05:20:19Z</time>
      </trkpt>
      <trkpt lat="49.09453" lon="-1.59897">
        <ele>5.9</ele>
        <time>2020-06-12T05:20:20Z</time>
      </trkpt>
      <trkpt lat="49.09459" lon="-1.59896">
        <ele>5.8</ele>
        <time>2020-06-12T05:20:21Z</time>
      </trkpt>
      <trkpt lat="49.09465" lon="-1.59896">
        <ele>5.8</ele>
        <time>2020-06-12T05:20:22Z</time>
      </trkpt>
      <trkpt lat="49.09471" lon="-1.59895">
        <ele>5.8</ele>
        <time>2020-06-12T05:20:23Z</time>
      </trkpt>
      <trkpt lat="49.09476" lon="-1.59895">
        <ele>5.7</ele>
        <time>2020-06-12T05:20:24Z</time>
      </trkpt>
      <trkpt lat="49.09482" lon="-1.59893">
        <ele>5.7</ele>
        <time>2020-06-12T05:20:25Z</time>
      </trkpt>
      <trkpt lat="49.09488" lon="-1.59893">
        <ele>5.7</ele>
        <time>2020-06-12T05:20:26Z</time>
      </trkpt>
      <trkpt lat="49.09494" lon="-1.59893">
        <ele>5.6</ele>
        <time>2020-06-12T05:20:27Z</time>
      </trkpt>
      <trkpt lat="49.09501" lon="-1.59892">
        <ele>5.6</ele>
        <time>2020-06-12T05:20:28Z</time>
      </trkpt>
      <trkpt lat="49.09506" lon="-1.59891">
        <ele>5.6</ele>
        <time>2020-06-12T05:20:29Z</time>
      </trkpt>
      <trkpt lat="49.09512" lon="-1.5989">
        <ele>5.5</ele>
        <time>2020-06-12T05:20:30Z</time>
      </trkpt>
      <trkpt lat="49.09519" lon="-1.59891">
        <ele>5.5</ele>
        <time>2020-06-12T05:20:31Z</time>
      </trkpt>
      <trkpt lat="49.09525" lon="-1.59891">
        <ele>5.5</ele>
        <time>2020-06-12T05:20:32Z</time>
      </trkpt>
      <trkpt lat="49.0953" lon="-1.59891">
        <ele>5.5</ele>
        <time>2020-06-12T05:20:33Z</time>
      </trkpt>
      <trkpt lat="49.09535" lon="-1.5989">
        <ele>5.5</ele>
        <time>2020-06-12T05:20:34Z</time>
      </trkpt>
      <trkpt lat="49.09543" lon="-1.59889">
        <ele>5.5</ele>
        <time>2020-06-12T05:20:35Z</time>
      </trkpt>
      <trkpt lat="49.09548" lon="-1.59889">
        <ele>5.5</ele>
        <time>2020-06-12T05:20:36Z</time>
      </trkpt>
      <trkpt lat="49.09555" lon="-1.59888">
        <ele>5.6</ele>
        <time>2020-06-12T05:20:37Z</time>
      </trkpt>
      <trkpt lat="49.09561" lon="-1.59887">
        <ele>5.6</ele>
        <time>2020-06-12T05:20:38Z</time>
      </trkpt>
      <trkpt lat="49.09566" lon="-1.59886">
        <ele>5.6</ele>
        <time>2020-06-12T05:20:39Z</time>
      </trkpt>
      <trkpt lat="49.09572" lon="-1.59885">
        <ele>5.6</ele>
        <time>2020-06-12T05:20:40Z</time>
      </trkpt>
      <trkpt lat="49.09577" lon="-1.59884">
        <ele>5.6</ele>
        <time>2020-06-12T05:20:41Z</time>
      </trkpt>
      <trkpt lat="49.09583" lon="-1.59884">
        <ele>5.6</ele>
        <time>2020-06-12T05:20:42Z</time>
      </trkpt>
      <trkpt lat="49.09589" lon="-1.59883">
        <ele>5.6</ele>
        <time>2020-06-12T05:20:43Z</time>
      </trkpt>
      <trkpt lat="49.09594" lon="-1.59882">
        <ele>5.5</ele>
        <time>2020-06-12T05:20:44Z</time>
      </trkpt>
      <trkpt lat="49.09599" lon="-1.5988">
        <ele>5.5</ele>
        <time>2020-06-12T05:20:45Z</time>
      </trkpt>
      <trkpt lat="49.09605" lon="-1.59879">
        <ele>5.5</ele>
        <time>2020-06-12T05:20:46Z</time>
      </trkpt>
      <trkpt lat="49.09611" lon="-1.5988">
        <ele>5.5</ele>
        <time>2020-06-12T05:20:47Z</time>
      </trkpt>
      <trkpt lat="49.09616" lon="-1.59879">
        <ele>5.5</ele>
        <time>2020-06-12T05:20:48Z</time>
      </trkpt>
      <trkpt lat="49.09622" lon="-1.59878">
        <ele>5.5</ele>
        <time>2020-06-12T05:20:49Z</time>
      </trkpt>
      <trkpt lat="49.09628" lon="-1.59877">
        <ele>5.5</ele>
        <time>2020-06-12T05:20:50Z</time>
      </trkpt>
      <trkpt lat="49.09633" lon="-1.59876">
        <ele>5.5</ele>
        <time>2020-06-12T05:20:51Z</time>
      </trkpt>
      <trkpt lat="49.09639" lon="-1.59875">
        <ele>5.5</ele>
        <time>2020-06-12T05:20:52Z</time>
      </trkpt>
      <trkpt lat="49.09644" lon="-1.59876">
        <ele>5.5</ele>
        <time>2020-06-12T05:20:53Z</time>
      </trkpt>
      <trkpt lat="49.0965" lon="-1.59876">
        <ele>5.5</ele>
        <time>2020-06-12T05:20:54Z</time>
      </trkpt>
      <trkpt lat="49.09655" lon="-1.59874">
        <ele>5.5</ele>
        <time>2020-06-12T05:20:55Z</time>
      </trkpt>
      <trkpt lat="49.0966" lon="-1.59873">
        <ele>5.5</ele>
        <time>2020-06-12T05:20:56Z</time>
      </trkpt>
      <trkpt lat="49.09664" lon="-1.59872">
        <ele>5.5</ele>
        <time>2020-06-12T05:20:57Z</time>
      </trkpt>
      <trkpt lat="49.09669" lon="-1.59871">
        <ele>5.5</ele>
        <time>2020-06-12T05:20:58Z</time>
      </trkpt>
      <trkpt lat="49.09673" lon="-1.59869">
        <ele>5.6</ele>
        <time>2020-06-12T05:20:59Z</time>
      </trkpt>
      <trkpt lat="49.09678" lon="-1.59868">
        <ele>5.6</ele>
        <time>2020-06-12T05:21:00Z</time>
      </trkpt>
      <trkpt lat="49.09683" lon="-1.59868">
        <ele>5.7</ele>
        <time>2020-06-12T05:21:01Z</time>
      </trkpt>
      <trkpt lat="49.09687" lon="-1.59868">
        <ele>5.7</ele>
        <time>2020-06-12T05:21:02Z</time>
      </trkpt>
      <trkpt lat="49.09692" lon="-1.59866">
        <ele>5.8</ele>
        <time>2020-06-12T05:21:03Z</time>
      </trkpt>
      <trkpt lat="49.09698" lon="-1.59865">
        <ele>5.8</ele>
        <time>2020-06-12T05:21:04Z</time>
      </trkpt>
      <trkpt lat="49.09703" lon="-1.59864">
        <ele>5.9</ele>
        <time>2020-06-12T05:21:05Z</time>
      </trkpt>
      <trkpt lat="49.09708" lon="-1.59865">
        <ele>5.9</ele>
        <time>2020-06-12T05:21:06Z</time>
      </trkpt>
      <trkpt lat="49.09713" lon="-1.59864">
        <ele>6</ele>
        <time>2020-06-12T05:21:07Z</time>
      </trkpt>
      <trkpt lat="49.09718" lon="-1.59863">
        <ele>6</ele>
        <time>2020-06-12T05:21:08Z</time>
      </trkpt>
      <trkpt lat="49.09723" lon="-1.59862">
        <ele>6</ele>
        <time>2020-06-12T05:21:09Z</time>
      </trkpt>
      <trkpt lat="49.09729" lon="-1.59859">
        <ele>6</ele>
        <time>2020-06-12T05:21:10Z</time>
      </trkpt>
      <trkpt lat="49.09734" lon="-1.59859">
        <ele>6</ele>
        <time>2020-06-12T05:21:11Z</time>
      </trkpt>
      <trkpt lat="49.09738" lon="-1.59856">
        <ele>6</ele>
        <time>2020-06-12T05:21:12Z</time>
      </trkpt>
      <trkpt lat="49.09742" lon="-1.59851">
        <ele>6</ele>
        <time>2020-06-12T05:21:13Z</time>
      </trkpt>
      <trkpt lat="49.09744" lon="-1.59846">
        <ele>6</ele>
        <time>2020-06-12T05:21:14Z</time>
      </trkpt>
      <trkpt lat="49.09747" lon="-1.5984">
        <ele>6</ele>
        <time>2020-06-12T05:21:15Z</time>
      </trkpt>
      <trkpt lat="49.09751" lon="-1.59835">
        <ele>6</ele>
        <time>2020-06-12T05:21:16Z</time>
      </trkpt>
      <trkpt lat="49.09755" lon="-1.59831">
        <ele>6</ele>
        <time>2020-06-12T05:21:17Z</time>
      </trkpt>
      <trkpt lat="49.0976" lon="-1.59828">
        <ele>6</ele>
        <time>2020-06-12T05:21:18Z</time>
      </trkpt>
      <trkpt lat="49.09764" lon="-1.59827">
        <ele>6</ele>
        <time>2020-06-12T05:21:19Z</time>
      </trkpt>
      <trkpt lat="49.09768" lon="-1.59829">
        <ele>6</ele>
        <time>2020-06-12T05:21:20Z</time>
      </trkpt>
      <trkpt lat="49.09773" lon="-1.59832">
        <ele>6</ele>
        <time>2020-06-12T05:21:21Z</time>
      </trkpt>
      <trkpt lat="49.09777" lon="-1.59835">
        <ele>6</ele>
        <time>2020-06-12T05:21:22Z</time>
      </trkpt>
      <trkpt lat="49.09781" lon="-1.59837">
        <ele>6</ele>
        <time>2020-06-12T05:21:23Z</time>
      </trkpt>
      <trkpt lat="49.09786" lon="-1.59839">
        <ele>6</ele>
        <time>2020-06-12T05:21:24Z</time>
      </trkpt>
      <trkpt lat="49.0979" lon="-1.5984">
        <ele>5.9</ele>
        <time>2020-06-12T05:21:25Z</time>
      </trkpt>
      <trkpt lat="49.09795" lon="-1.59841">
        <ele>5.9</ele>
        <time>2020-06-12T05:21:26Z</time>
      </trkpt>
      <trkpt lat="49.098" lon="-1.5984">
        <ele>5.8</ele>
        <time>2020-06-12T05:21:27Z</time>
      </trkpt>
      <trkpt lat="49.09805" lon="-1.59838">
        <ele>5.8</ele>
        <time>2020-06-12T05:21:28Z</time>
      </trkpt>
      <trkpt lat="49.09811" lon="-1.59837">
        <ele>5.8</ele>
        <time>2020-06-12T05:21:29Z</time>
      </trkpt>
      <trkpt lat="49.09816" lon="-1.59834">
        <ele>5.8</ele>
        <time>2020-06-12T05:21:30Z</time>
      </trkpt>
      <trkpt lat="49.0982" lon="-1.59834">
        <ele>5.8</ele>
        <time>2020-06-12T05:21:31Z</time>
      </trkpt>
      <trkpt lat="49.09825" lon="-1.59834">
        <ele>5.8</ele>
        <time>2020-06-12T05:21:32Z</time>
      </trkpt>
      <trkpt lat="49.09829" lon="-1.59834">
        <ele>5.8</ele>
        <time>2020-06-12T05:21:33Z</time>
      </trkpt>
      <trkpt lat="49.09834" lon="-1.59833">
        <ele>5.8</ele>
        <time>2020-06-12T05:21:34Z</time>
      </trkpt>
      <trkpt lat="49.09837" lon="-1.59833">
        <ele>5.7</ele>
        <time>2020-06-12T05:21:35Z</time>
      </trkpt>
      <trkpt lat="49.09841" lon="-1.59832">
        <ele>5.7</ele>
        <time>2020-06-12T05:21:36Z</time>
      </trkpt>
      <trkpt lat="49.09844" lon="-1.59831">
        <ele>5.7</ele>
        <time>2020-06-12T05:21:37Z</time>
      </trkpt>
      <trkpt lat="49.09848" lon="-1.59831">
        <ele>5.7</ele>
        <time>2020-06-12T05:21:38Z</time>
      </trkpt>
      <trkpt lat="49.09852" lon="-1.59831">
        <ele>5.7</ele>
        <time>2020-06-12T05:21:39Z</time>
      </trkpt>
      <trkpt lat="49.09857" lon="-1.59829">
        <ele>5.7</ele>
        <time>2020-06-12T05:21:40Z</time>
      </trkpt>
      <trkpt lat="49.09862" lon="-1.59829">
        <ele>5.8</ele>
        <time>2020-06-12T05:21:41Z</time>
      </trkpt>
      <trkpt lat="49.09866" lon="-1.59829">
        <ele>5.8</ele>
        <time>2020-06-12T05:21:42Z</time>
      </trkpt>
      <trkpt lat="49.09871" lon="-1.59829">
        <ele>5.8</ele>
        <time>2020-06-12T05:21:43Z</time>
      </trkpt>
      <trkpt lat="49.09875" lon="-1.59829">
        <ele>5.8</ele>
        <time>2020-06-12T05:21:44Z</time>
      </trkpt>
      <trkpt lat="49.09879" lon="-1.59828">
        <ele>5.8</ele>
        <time>2020-06-12T05:21:45Z</time>
      </trkpt>
      <trkpt lat="49.09884" lon="-1.59828">
        <ele>5.9</ele>
        <time>2020-06-12T05:21:46Z</time>
      </trkpt>
      <trkpt lat="49.09889" lon="-1.59828">
        <ele>5.9</ele>
        <time>2020-06-12T05:21:47Z</time>
      </trkpt>
      <trkpt lat="49.09893" lon="-1.59827">
        <ele>5.9</ele>
        <time>2020-06-12T05:21:48Z</time>
      </trkpt>
      <trkpt lat="49.09898" lon="-1.59826">
        <ele>5.9</ele>
        <time>2020-06-12T05:21:49Z</time>
      </trkpt>
      <trkpt lat="49.09903" lon="-1.59825">
        <ele>5.9</ele>
        <time>2020-06-12T05:21:50Z</time>
      </trkpt>
      <trkpt lat="49.09908" lon="-1.59823">
        <ele>5.9</ele>
        <time>2020-06-12T05:21:51Z</time>
      </trkpt>
      <trkpt lat="49.09914" lon="-1.59822">
        <ele>5.9</ele>
        <time>2020-06-12T05:21:52Z</time>
      </trkpt>
      <trkpt lat="49.0992" lon="-1.59821">
        <ele>5.8</ele>
        <time>2020-06-12T05:21:53Z</time>
      </trkpt>
      <trkpt lat="49.09926" lon="-1.5982">
        <ele>5.8</ele>
        <time>2020-06-12T05:21:54Z</time>
      </trkpt>
      <trkpt lat="49.0993" lon="-1.5982">
        <ele>5.8</ele>
        <time>2020-06-12T05:21:55Z</time>
      </trkpt>
      <trkpt lat="49.09936" lon="-1.59819">
        <ele>5.7</ele>
        <time>2020-06-12T05:21:56Z</time>
      </trkpt>
      <trkpt lat="49.09941" lon="-1.59818">
        <ele>5.7</ele>
        <time>2020-06-12T05:21:57Z</time>
      </trkpt>
      <trkpt lat="49.09945" lon="-1.59817">
        <ele>5.7</ele>
        <time>2020-06-12T05:21:58Z</time>
      </trkpt>
      <trkpt lat="49.09951" lon="-1.59815">
        <ele>5.7</ele>
        <time>2020-06-12T05:21:59Z</time>
      </trkpt>
      <trkpt lat="49.09957" lon="-1.59814">
        <ele>5.7</ele>
        <time>2020-06-12T05:22:00Z</time>
      </trkpt>
      <trkpt lat="49.09963" lon="-1.59812">
        <ele>5.8</ele>
        <time>2020-06-12T05:22:01Z</time>
      </trkpt>
      <trkpt lat="49.09968" lon="-1.59812">
        <ele>5.8</ele>
        <time>2020-06-12T05:22:02Z</time>
      </trkpt>
      <trkpt lat="49.09973" lon="-1.59812">
        <ele>5.8</ele>
        <time>2020-06-12T05:22:03Z</time>
      </trkpt>
      <trkpt lat="49.09978" lon="-1.5981">
        <ele>5.8</ele>
        <time>2020-06-12T05:22:04Z</time>
      </trkpt>
      <trkpt lat="49.09984" lon="-1.59809">
        <ele>5.8</ele>
        <time>2020-06-12T05:22:05Z</time>
      </trkpt>
      <trkpt lat="49.09991" lon="-1.59808">
        <ele>5.7</ele>
        <time>2020-06-12T05:22:06Z</time>
      </trkpt>
      <trkpt lat="49.09996" lon="-1.59807">
        <ele>5.7</ele>
        <time>2020-06-12T05:22:07Z</time>
      </trkpt>
      <trkpt lat="49.10001" lon="-1.59805">
        <ele>5.7</ele>
        <time>2020-06-12T05:22:08Z</time>
      </trkpt>
      <trkpt lat="49.10006" lon="-1.59803">
        <ele>5.7</ele>
        <time>2020-06-12T05:22:09Z</time>
      </trkpt>
      <trkpt lat="49.10011" lon="-1.59801">
        <ele>5.7</ele>
        <time>2020-06-12T05:22:10Z</time>
      </trkpt>
      <trkpt lat="49.10016" lon="-1.59799">
        <ele>5.6</ele>
        <time>2020-06-12T05:22:11Z</time>
      </trkpt>
      <trkpt lat="49.10022" lon="-1.59797">
        <ele>5.6</ele>
        <time>2020-06-12T05:22:12Z</time>
      </trkpt>
      <trkpt lat="49.10027" lon="-1.59796">
        <ele>5.6</ele>
        <time>2020-06-12T05:22:13Z</time>
      </trkpt>
      <trkpt lat="49.10033" lon="-1.59794">
        <ele>5.6</ele>
        <time>2020-06-12T05:22:14Z</time>
      </trkpt>
      <trkpt lat="49.10038" lon="-1.59793">
        <ele>5.6</ele>
        <time>2020-06-12T05:22:15Z</time>
      </trkpt>
      <trkpt lat="49.10044" lon="-1.59794">
        <ele>5.6</ele>
        <time>2020-06-12T05:22:16Z</time>
      </trkpt>
      <trkpt lat="49.1005" lon="-1.59792">
        <ele>5.5</ele>
        <time>2020-06-12T05:22:17Z</time>
      </trkpt>
      <trkpt lat="49.10056" lon="-1.5979">
        <ele>5.5</ele>
        <time>2020-06-12T05:22:18Z</time>
      </trkpt>
      <trkpt lat="49.10062" lon="-1.5979">
        <ele>5.5</ele>
        <time>2020-06-12T05:22:19Z</time>
      </trkpt>
      <trkpt lat="49.10067" lon="-1.59789">
        <ele>5.4</ele>
        <time>2020-06-12T05:22:20Z</time>
      </trkpt>
      <trkpt lat="49.10073" lon="-1.59787">
        <ele>5.4</ele>
        <time>2020-06-12T05:22:21Z</time>
      </trkpt>
      <trkpt lat="49.10079" lon="-1.59787">
        <ele>5.4</ele>
        <time>2020-06-12T05:22:22Z</time>
      </trkpt>
      <trkpt lat="49.10085" lon="-1.59786">
        <ele>5.4</ele>
        <time>2020-06-12T05:22:23Z</time>
      </trkpt>
      <trkpt lat="49.10091" lon="-1.59784">
        <ele>5.3</ele>
        <time>2020-06-12T05:22:24Z</time>
      </trkpt>
      <trkpt lat="49.10097" lon="-1.59782">
        <ele>5.3</ele>
        <time>2020-06-12T05:22:25Z</time>
      </trkpt>
      <trkpt lat="49.10103" lon="-1.59781">
        <ele>5.3</ele>
        <time>2020-06-12T05:22:26Z</time>
      </trkpt>
      <trkpt lat="49.10109" lon="-1.59781">
        <ele>5.3</ele>
        <time>2020-06-12T05:22:27Z</time>
      </trkpt>
      <trkpt lat="49.10113" lon="-1.59779">
        <ele>5.3</ele>
        <time>2020-06-12T05:22:28Z</time>
      </trkpt>
      <trkpt lat="49.10117" lon="-1.59779">
        <ele>5.2</ele>
        <time>2020-06-12T05:22:29Z</time>
      </trkpt>
      <trkpt lat="49.10122" lon="-1.59777">
        <ele>5.2</ele>
        <time>2020-06-12T05:22:30Z</time>
      </trkpt>
      <trkpt lat="49.10127" lon="-1.59775">
        <ele>5.2</ele>
        <time>2020-06-12T05:22:31Z</time>
      </trkpt>
      <trkpt lat="49.10133" lon="-1.59772">
        <ele>5.2</ele>
        <time>2020-06-12T05:22:32Z</time>
      </trkpt>
      <trkpt lat="49.10139" lon="-1.59771">
        <ele>5.2</ele>
        <time>2020-06-12T05:22:33Z</time>
      </trkpt>
      <trkpt lat="49.10144" lon="-1.59769">
        <ele>5.1</ele>
        <time>2020-06-12T05:22:34Z</time>
      </trkpt>
      <trkpt lat="49.1015" lon="-1.59768">
        <ele>5.1</ele>
        <time>2020-06-12T05:22:35Z</time>
      </trkpt>
      <trkpt lat="49.10155" lon="-1.59766">
        <ele>5.1</ele>
        <time>2020-06-12T05:22:36Z</time>
      </trkpt>
      <trkpt lat="49.10159" lon="-1.59764">
        <ele>5.1</ele>
        <time>2020-06-12T05:22:37Z</time>
      </trkpt>
      <trkpt lat="49.10165" lon="-1.59763">
        <ele>5.1</ele>
        <time>2020-06-12T05:22:38Z</time>
      </trkpt>
      <trkpt lat="49.10172" lon="-1.59762">
        <ele>5.1</ele>
        <time>2020-06-12T05:22:39Z</time>
      </trkpt>
      <trkpt lat="49.10177" lon="-1.5976">
        <ele>5</ele>
        <time>2020-06-12T05:22:40Z</time>
      </trkpt>
      <trkpt lat="49.10183" lon="-1.59758">
        <ele>5</ele>
        <time>2020-06-12T05:22:41Z</time>
      </trkpt>
      <trkpt lat="49.10189" lon="-1.59755">
        <ele>5</ele>
        <time>2020-06-12T05:22:42Z</time>
      </trkpt>
      <trkpt lat="49.10195" lon="-1.59753">
        <ele>5</ele>
        <time>2020-06-12T05:22:43Z</time>
      </trkpt>
      <trkpt lat="49.10201" lon="-1.59751">
        <ele>5</ele>
        <time>2020-06-12T05:22:44Z</time>
      </trkpt>
      <trkpt lat="49.10208" lon="-1.5975">
        <ele>5</ele>
        <time>2020-06-12T05:22:45Z</time>
      </trkpt>
      <trkpt lat="49.10214" lon="-1.59748">
        <ele>5</ele>
        <time>2020-06-12T05:22:46Z</time>
      </trkpt>
      <trkpt lat="49.10219" lon="-1.59746">
        <ele>4.9</ele>
        <time>2020-06-12T05:22:47Z</time>
      </trkpt>
      <trkpt lat="49.10225" lon="-1.59746">
        <ele>4.9</ele>
        <time>2020-06-12T05:22:48Z</time>
      </trkpt>
      <trkpt lat="49.10232" lon="-1.59745">
        <ele>4.9</ele>
        <time>2020-06-12T05:22:49Z</time>
      </trkpt>
      <trkpt lat="49.10238" lon="-1.59743">
        <ele>4.9</ele>
        <time>2020-06-12T05:22:50Z</time>
      </trkpt>
      <trkpt lat="49.10245" lon="-1.59742">
        <ele>4.9</ele>
        <time>2020-06-12T05:22:51Z</time>
      </trkpt>
      <trkpt lat="49.10252" lon="-1.59739">
        <ele>4.8</ele>
        <time>2020-06-12T05:22:52Z</time>
      </trkpt>
      <trkpt lat="49.10257" lon="-1.59737">
        <ele>4.8</ele>
        <time>2020-06-12T05:22:53Z</time>
      </trkpt>
      <trkpt lat="49.10263" lon="-1.59735">
        <ele>4.8</ele>
        <time>2020-06-12T05:22:54Z</time>
      </trkpt>
      <trkpt lat="49.10268" lon="-1.59733">
        <ele>4.9</ele>
        <time>2020-06-12T05:22:55Z</time>
      </trkpt>
      <trkpt lat="49.10273" lon="-1.59732">
        <ele>4.9</ele>
        <time>2020-06-12T05:22:56Z</time>
      </trkpt>
      <trkpt lat="49.10278" lon="-1.5973">
        <ele>4.9</ele>
        <time>2020-06-12T05:22:57Z</time>
      </trkpt>
      <trkpt lat="49.10283" lon="-1.59729">
        <ele>4.9</ele>
        <time>2020-06-12T05:22:58Z</time>
      </trkpt>
      <trkpt lat="49.10287" lon="-1.59727">
        <ele>4.9</ele>
        <time>2020-06-12T05:22:59Z</time>
      </trkpt>
      <trkpt lat="49.10292" lon="-1.59725">
        <ele>4.9</ele>
        <time>2020-06-12T05:23:00Z</time>
      </trkpt>
      <trkpt lat="49.10297" lon="-1.59723">
        <ele>4.9</ele>
        <time>2020-06-12T05:23:01Z</time>
      </trkpt>
      <trkpt lat="49.10302" lon="-1.5972">
        <ele>4.9</ele>
        <time>2020-06-12T05:23:02Z</time>
      </trkpt>
      <trkpt lat="49.10307" lon="-1.59717">
        <ele>4.9</ele>
        <time>2020-06-12T05:23:03Z</time>
      </trkpt>
      <trkpt lat="49.10312" lon="-1.59715">
        <ele>4.8</ele>
        <time>2020-06-12T05:23:04Z</time>
      </trkpt>
      <trkpt lat="49.10318" lon="-1.59712">
        <ele>4.8</ele>
        <time>2020-06-12T05:23:05Z</time>
      </trkpt>
      <trkpt lat="49.10324" lon="-1.59711">
        <ele>4.8</ele>
        <time>2020-06-12T05:23:06Z</time>
      </trkpt>
      <trkpt lat="49.10329" lon="-1.59708">
        <ele>4.8</ele>
        <time>2020-06-12T05:23:07Z</time>
      </trkpt>
      <trkpt lat="49.10333" lon="-1.59707">
        <ele>4.9</ele>
        <time>2020-06-12T05:23:08Z</time>
      </trkpt>
      <trkpt lat="49.10339" lon="-1.59704">
        <ele>4.9</ele>
        <time>2020-06-12T05:23:09Z</time>
      </trkpt>
      <trkpt lat="49.10344" lon="-1.59702">
        <ele>4.9</ele>
        <time>2020-06-12T05:23:10Z</time>
      </trkpt>
      <trkpt lat="49.10349" lon="-1.59701">
        <ele>4.9</ele>
        <time>2020-06-12T05:23:11Z</time>
      </trkpt>
      <trkpt lat="49.10353" lon="-1.59698">
        <ele>4.9</ele>
        <time>2020-06-12T05:23:12Z</time>
      </trkpt>
      <trkpt lat="49.10358" lon="-1.59696">
        <ele>4.9</ele>
        <time>2020-06-12T05:23:13Z</time>
      </trkpt>
      <trkpt lat="49.10362" lon="-1.59694">
        <ele>5</ele>
        <time>2020-06-12T05:23:14Z</time>
      </trkpt>
      <trkpt lat="49.10367" lon="-1.5969">
        <ele>5</ele>
        <time>2020-06-12T05:23:15Z</time>
      </trkpt>
      <trkpt lat="49.1037" lon="-1.59687">
        <ele>5</ele>
        <time>2020-06-12T05:23:16Z</time>
      </trkpt>
      <trkpt lat="49.10376" lon="-1.59685">
        <ele>5</ele>
        <time>2020-06-12T05:23:17Z</time>
      </trkpt>
      <trkpt lat="49.10382" lon="-1.59684">
        <ele>5</ele>
        <time>2020-06-12T05:23:18Z</time>
      </trkpt>
      <trkpt lat="49.10387" lon="-1.59683">
        <ele>5</ele>
        <time>2020-06-12T05:23:19Z</time>
      </trkpt>
      <trkpt lat="49.10393" lon="-1.59681">
        <ele>5</ele>
        <time>2020-06-12T05:23:20Z</time>
      </trkpt>
      <trkpt lat="49.10397" lon="-1.59678">
        <ele>5</ele>
        <time>2020-06-12T05:23:21Z</time>
      </trkpt>
      <trkpt lat="49.10402" lon="-1.59676">
        <ele>5.1</ele>
        <time>2020-06-12T05:23:22Z</time>
      </trkpt>
      <trkpt lat="49.10407" lon="-1.59674">
        <ele>5.1</ele>
        <time>2020-06-12T05:23:23Z</time>
      </trkpt>
      <trkpt lat="49.10411" lon="-1.59673">
        <ele>5.1</ele>
        <time>2020-06-12T05:23:24Z</time>
      </trkpt>
      <trkpt lat="49.10416" lon="-1.59671">
        <ele>5.1</ele>
        <time>2020-06-12T05:23:25Z</time>
      </trkpt>
      <trkpt lat="49.10421" lon="-1.59669">
        <ele>5.1</ele>
        <time>2020-06-12T05:23:26Z</time>
      </trkpt>
      <trkpt lat="49.10426" lon="-1.59667">
        <ele>5.1</ele>
        <time>2020-06-12T05:23:27Z</time>
      </trkpt>
      <trkpt lat="49.10431" lon="-1.59665">
        <ele>5.2</ele>
        <time>2020-06-12T05:23:28Z</time>
      </trkpt>
      <trkpt lat="49.10437" lon="-1.59663">
        <ele>5.2</ele>
        <time>2020-06-12T05:23:29Z</time>
      </trkpt>
      <trkpt lat="49.10443" lon="-1.5966">
        <ele>5.2</ele>
        <time>2020-06-12T05:23:30Z</time>
      </trkpt>
      <trkpt lat="49.10448" lon="-1.59658">
        <ele>5.3</ele>
        <time>2020-06-12T05:23:31Z</time>
      </trkpt>
      <trkpt lat="49.10453" lon="-1.59656">
        <ele>5.3</ele>
        <time>2020-06-12T05:23:32Z</time>
      </trkpt>
      <trkpt lat="49.1046" lon="-1.59655">
        <ele>5.4</ele>
        <time>2020-06-12T05:23:33Z</time>
      </trkpt>
      <trkpt lat="49.10466" lon="-1.59653">
        <ele>5.5</ele>
        <time>2020-06-12T05:23:34Z</time>
      </trkpt>
      <trkpt lat="49.10472" lon="-1.59649">
        <ele>5.7</ele>
        <time>2020-06-12T05:23:35Z</time>
      </trkpt>
      <trkpt lat="49.10477" lon="-1.59647">
        <ele>6.1</ele>
        <time>2020-06-12T05:23:36Z</time>
      </trkpt>
      <trkpt lat="49.10482" lon="-1.59645">
        <ele>6</ele>
        <time>2020-06-12T05:23:37Z</time>
      </trkpt>
      <trkpt lat="49.10487" lon="-1.59643">
        <ele>6</ele>
        <time>2020-06-12T05:23:38Z</time>
      </trkpt>
      <trkpt lat="49.10492" lon="-1.5964">
        <ele>5.9</ele>
        <time>2020-06-12T05:23:39Z</time>
      </trkpt>
      <trkpt lat="49.10496" lon="-1.59637">
        <ele>5.9</ele>
        <time>2020-06-12T05:23:40Z</time>
      </trkpt>
      <trkpt lat="49.10502" lon="-1.59635">
        <ele>5.9</ele>
        <time>2020-06-12T05:23:41Z</time>
      </trkpt>
      <trkpt lat="49.10507" lon="-1.59634">
        <ele>5.9</ele>
        <time>2020-06-12T05:23:42Z</time>
      </trkpt>
      <trkpt lat="49.10513" lon="-1.59633">
        <ele>5.9</ele>
        <time>2020-06-12T05:23:43Z</time>
      </trkpt>
      <trkpt lat="49.10519" lon="-1.5963">
        <ele>5.9</ele>
        <time>2020-06-12T05:23:44Z</time>
      </trkpt>
      <trkpt lat="49.10525" lon="-1.59628">
        <ele>5.9</ele>
        <time>2020-06-12T05:23:45Z</time>
      </trkpt>
      <trkpt lat="49.10531" lon="-1.59626">
        <ele>6</ele>
        <time>2020-06-12T05:23:46Z</time>
      </trkpt>
      <trkpt lat="49.10535" lon="-1.59624">
        <ele>6</ele>
        <time>2020-06-12T05:23:47Z</time>
      </trkpt>
      <trkpt lat="49.10539" lon="-1.59622">
        <ele>6</ele>
        <time>2020-06-12T05:23:48Z</time>
      </trkpt>
      <trkpt lat="49.10544" lon="-1.5962">
        <ele>6</ele>
        <time>2020-06-12T05:23:49Z</time>
      </trkpt>
      <trkpt lat="49.1055" lon="-1.59617">
        <ele>6</ele>
        <time>2020-06-12T05:23:50Z</time>
      </trkpt>
      <trkpt lat="49.10554" lon="-1.59616">
        <ele>6</ele>
        <time>2020-06-12T05:23:51Z</time>
      </trkpt>
      <trkpt lat="49.10559" lon="-1.59614">
        <ele>6.1</ele>
        <time>2020-06-12T05:23:52Z</time>
      </trkpt>
      <trkpt lat="49.10563" lon="-1.5961">
        <ele>6.1</ele>
        <time>2020-06-12T05:23:53Z</time>
      </trkpt>
      <trkpt lat="49.10569" lon="-1.59607">
        <ele>6.1</ele>
        <time>2020-06-12T05:23:54Z</time>
      </trkpt>
      <trkpt lat="49.10575" lon="-1.59605">
        <ele>6.1</ele>
        <time>2020-06-12T05:23:55Z</time>
      </trkpt>
      <trkpt lat="49.1058" lon="-1.59604">
        <ele>6.1</ele>
        <time>2020-06-12T05:23:56Z</time>
      </trkpt>
      <trkpt lat="49.10586" lon="-1.59603">
        <ele>6.1</ele>
        <time>2020-06-12T05:23:57Z</time>
      </trkpt>
      <trkpt lat="49.10591" lon="-1.59601">
        <ele>6.1</ele>
        <time>2020-06-12T05:23:58Z</time>
      </trkpt>
      <trkpt lat="49.10597" lon="-1.59597">
        <ele>6.2</ele>
        <time>2020-06-12T05:23:59Z</time>
      </trkpt>
      <trkpt lat="49.10602" lon="-1.59594">
        <ele>6.2</ele>
        <time>2020-06-12T05:24:00Z</time>
      </trkpt>
      <trkpt lat="49.10606" lon="-1.59591">
        <ele>6.2</ele>
        <time>2020-06-12T05:24:01Z</time>
      </trkpt>
      <trkpt lat="49.10612" lon="-1.59589">
        <ele>6.2</ele>
        <time>2020-06-12T05:24:02Z</time>
      </trkpt>
      <trkpt lat="49.10617" lon="-1.59586">
        <ele>6.2</ele>
        <time>2020-06-12T05:24:03Z</time>
      </trkpt>
      <trkpt lat="49.10622" lon="-1.59583">
        <ele>6.2</ele>
        <time>2020-06-12T05:24:04Z</time>
      </trkpt>
      <trkpt lat="49.10627" lon="-1.59581">
        <ele>6.2</ele>
        <time>2020-06-12T05:24:05Z</time>
      </trkpt>
      <trkpt lat="49.10632" lon="-1.59578">
        <ele>6.3</ele>
        <time>2020-06-12T05:24:06Z</time>
      </trkpt>
      <trkpt lat="49.10637" lon="-1.59575">
        <ele>6.3</ele>
        <time>2020-06-12T05:24:07Z</time>
      </trkpt>
      <trkpt lat="49.10643" lon="-1.59573">
        <ele>6.3</ele>
        <time>2020-06-12T05:24:08Z</time>
      </trkpt>
      <trkpt lat="49.10648" lon="-1.59571">
        <ele>6.3</ele>
        <time>2020-06-12T05:24:09Z</time>
      </trkpt>
      <trkpt lat="49.10654" lon="-1.59569">
        <ele>6.3</ele>
        <time>2020-06-12T05:24:10Z</time>
      </trkpt>
      <trkpt lat="49.10659" lon="-1.59567">
        <ele>6.4</ele>
        <time>2020-06-12T05:24:11Z</time>
      </trkpt>
      <trkpt lat="49.10664" lon="-1.59566">
        <ele>6.4</ele>
        <time>2020-06-12T05:24:12Z</time>
      </trkpt>
      <trkpt lat="49.10669" lon="-1.59564">
        <ele>6.4</ele>
        <time>2020-06-12T05:24:13Z</time>
      </trkpt>
      <trkpt lat="49.10674" lon="-1.59562">
        <ele>6.4</ele>
        <time>2020-06-12T05:24:14Z</time>
      </trkpt>
      <trkpt lat="49.10679" lon="-1.5956">
        <ele>6.4</ele>
        <time>2020-06-12T05:24:15Z</time>
      </trkpt>
      <trkpt lat="49.10683" lon="-1.59558">
        <ele>6.4</ele>
        <time>2020-06-12T05:24:16Z</time>
      </trkpt>
      <trkpt lat="49.10688" lon="-1.59556">
        <ele>6.4</ele>
        <time>2020-06-12T05:24:17Z</time>
      </trkpt>
      <trkpt lat="49.10692" lon="-1.59552">
        <ele>6.4</ele>
        <time>2020-06-12T05:24:18Z</time>
      </trkpt>
      <trkpt lat="49.10697" lon="-1.5955">
        <ele>6.3</ele>
        <time>2020-06-12T05:24:19Z</time>
      </trkpt>
      <trkpt lat="49.10702" lon="-1.59547">
        <ele>6.3</ele>
        <time>2020-06-12T05:24:20Z</time>
      </trkpt>
      <trkpt lat="49.10708" lon="-1.59545">
        <ele>6.3</ele>
        <time>2020-06-12T05:24:21Z</time>
      </trkpt>
      <trkpt lat="49.10713" lon="-1.59542">
        <ele>6.3</ele>
        <time>2020-06-12T05:24:22Z</time>
      </trkpt>
      <trkpt lat="49.10719" lon="-1.5954">
        <ele>6.3</ele>
        <time>2020-06-12T05:24:23Z</time>
      </trkpt>
      <trkpt lat="49.10724" lon="-1.59537">
        <ele>6.2</ele>
        <time>2020-06-12T05:24:24Z</time>
      </trkpt>
      <trkpt lat="49.10729" lon="-1.59533">
        <ele>6.2</ele>
        <time>2020-06-12T05:24:25Z</time>
      </trkpt>
      <trkpt lat="49.10735" lon="-1.59532">
        <ele>6.2</ele>
        <time>2020-06-12T05:24:26Z</time>
      </trkpt>
      <trkpt lat="49.1074" lon="-1.59529">
        <ele>6.2</ele>
        <time>2020-06-12T05:24:27Z</time>
      </trkpt>
      <trkpt lat="49.10746" lon="-1.59525">
        <ele>6.1</ele>
        <time>2020-06-12T05:24:28Z</time>
      </trkpt>
      <trkpt lat="49.10751" lon="-1.59522">
        <ele>6.1</ele>
        <time>2020-06-12T05:24:29Z</time>
      </trkpt>
      <trkpt lat="49.10756" lon="-1.59519">
        <ele>6.1</ele>
        <time>2020-06-12T05:24:30Z</time>
      </trkpt>
      <trkpt lat="49.10761" lon="-1.59516">
        <ele>6.1</ele>
        <time>2020-06-12T05:24:31Z</time>
      </trkpt>
      <trkpt lat="49.10767" lon="-1.59514">
        <ele>6</ele>
        <time>2020-06-12T05:24:32Z</time>
      </trkpt>
      <trkpt lat="49.10772" lon="-1.59512">
        <ele>6</ele>
        <time>2020-06-12T05:24:33Z</time>
      </trkpt>
      <trkpt lat="49.10777" lon="-1.5951">
        <ele>6</ele>
        <time>2020-06-12T05:24:34Z</time>
      </trkpt>
      <trkpt lat="49.10781" lon="-1.59507">
        <ele>6</ele>
        <time>2020-06-12T05:24:35Z</time>
      </trkpt>
      <trkpt lat="49.10786" lon="-1.59504">
        <ele>6</ele>
        <time>2020-06-12T05:24:36Z</time>
      </trkpt>
      <trkpt lat="49.10792" lon="-1.59502">
        <ele>5.9</ele>
        <time>2020-06-12T05:24:37Z</time>
      </trkpt>
      <trkpt lat="49.10798" lon="-1.59499">
        <ele>5.9</ele>
        <time>2020-06-12T05:24:38Z</time>
      </trkpt>
      <trkpt lat="49.10803" lon="-1.59497">
        <ele>5.8</ele>
        <time>2020-06-12T05:24:39Z</time>
      </trkpt>
      <trkpt lat="49.10808" lon="-1.59494">
        <ele>5.8</ele>
        <time>2020-06-12T05:24:40Z</time>
      </trkpt>
      <trkpt lat="49.10813" lon="-1.59491">
        <ele>5.8</ele>
        <time>2020-06-12T05:24:41Z</time>
      </trkpt>
      <trkpt lat="49.10819" lon="-1.59488">
        <ele>5.8</ele>
        <time>2020-06-12T05:24:42Z</time>
      </trkpt>
      <trkpt lat="49.10824" lon="-1.59485">
        <ele>5.8</ele>
        <time>2020-06-12T05:24:43Z</time>
      </trkpt>
      <trkpt lat="49.1083" lon="-1.59482">
        <ele>5.8</ele>
        <time>2020-06-12T05:24:44Z</time>
      </trkpt>
      <trkpt lat="49.10836" lon="-1.59479">
        <ele>5.8</ele>
        <time>2020-06-12T05:24:45Z</time>
      </trkpt>
      <trkpt lat="49.10842" lon="-1.59476">
        <ele>5.8</ele>
        <time>2020-06-12T05:24:46Z</time>
      </trkpt>
      <trkpt lat="49.10847" lon="-1.59473">
        <ele>5.7</ele>
        <time>2020-06-12T05:24:47Z</time>
      </trkpt>
      <trkpt lat="49.10852" lon="-1.59471">
        <ele>5.7</ele>
        <time>2020-06-12T05:24:48Z</time>
      </trkpt>
      <trkpt lat="49.10858" lon="-1.59467">
        <ele>5.7</ele>
        <time>2020-06-12T05:24:49Z</time>
      </trkpt>
      <trkpt lat="49.10863" lon="-1.59464">
        <ele>5.6</ele>
        <time>2020-06-12T05:24:50Z</time>
      </trkpt>
      <trkpt lat="49.10869" lon="-1.59462">
        <ele>5.6</ele>
        <time>2020-06-12T05:24:51Z</time>
      </trkpt>
      <trkpt lat="49.10874" lon="-1.5946">
        <ele>5.6</ele>
        <time>2020-06-12T05:24:52Z</time>
      </trkpt>
      <trkpt lat="49.10879" lon="-1.59457">
        <ele>5.6</ele>
        <time>2020-06-12T05:24:53Z</time>
      </trkpt>
      <trkpt lat="49.10884" lon="-1.59455">
        <ele>5.5</ele>
        <time>2020-06-12T05:24:54Z</time>
      </trkpt>
      <trkpt lat="49.10889" lon="-1.59452">
        <ele>5.5</ele>
        <time>2020-06-12T05:24:55Z</time>
      </trkpt>
      <trkpt lat="49.10894" lon="-1.5945">
        <ele>5.5</ele>
        <time>2020-06-12T05:24:56Z</time>
      </trkpt>
      <trkpt lat="49.10899" lon="-1.59447">
        <ele>5.5</ele>
        <time>2020-06-12T05:24:57Z</time>
      </trkpt>
      <trkpt lat="49.10905" lon="-1.59445">
        <ele>5.4</ele>
        <time>2020-06-12T05:24:58Z</time>
      </trkpt>
      <trkpt lat="49.10911" lon="-1.59441">
        <ele>5.4</ele>
        <time>2020-06-12T05:24:59Z</time>
      </trkpt>
      <trkpt lat="49.10916" lon="-1.59438">
        <ele>5.4</ele>
        <time>2020-06-12T05:25:00Z</time>
      </trkpt>
      <trkpt lat="49.10921" lon="-1.59436">
        <ele>5.4</ele>
        <time>2020-06-12T05:25:01Z</time>
      </trkpt>
      <trkpt lat="49.10926" lon="-1.59433">
        <ele>5.4</ele>
        <time>2020-06-12T05:25:02Z</time>
      </trkpt>
      <trkpt lat="49.10931" lon="-1.59431">
        <ele>5.4</ele>
        <time>2020-06-12T05:25:03Z</time>
      </trkpt>
      <trkpt lat="49.10936" lon="-1.59429">
        <ele>5.3</ele>
        <time>2020-06-12T05:25:04Z</time>
      </trkpt>
      <trkpt lat="49.10941" lon="-1.59425">
        <ele>5.3</ele>
        <time>2020-06-12T05:25:05Z</time>
      </trkpt>
      <trkpt lat="49.10946" lon="-1.59423">
        <ele>5.3</ele>
        <time>2020-06-12T05:25:06Z</time>
      </trkpt>
      <trkpt lat="49.10951" lon="-1.5942">
        <ele>5.3</ele>
        <time>2020-06-12T05:25:07Z</time>
      </trkpt>
      <trkpt lat="49.10957" lon="-1.59417">
        <ele>5.3</ele>
        <time>2020-06-12T05:25:08Z</time>
      </trkpt>
      <trkpt lat="49.10962" lon="-1.59415">
        <ele>5.3</ele>
        <time>2020-06-12T05:25:09Z</time>
      </trkpt>
      <trkpt lat="49.10968" lon="-1.59412">
        <ele>5.2</ele>
        <time>2020-06-12T05:25:10Z</time>
      </trkpt>
      <trkpt lat="49.10973" lon="-1.5941">
        <ele>5.2</ele>
        <time>2020-06-12T05:25:11Z</time>
      </trkpt>
      <trkpt lat="49.10978" lon="-1.59408">
        <ele>5.1</ele>
        <time>2020-06-12T05:25:12Z</time>
      </trkpt>
      <trkpt lat="49.10982" lon="-1.59405">
        <ele>5.1</ele>
        <time>2020-06-12T05:25:13Z</time>
      </trkpt>
      <trkpt lat="49.10987" lon="-1.59402">
        <ele>5</ele>
        <time>2020-06-12T05:25:14Z</time>
      </trkpt>
      <trkpt lat="49.10993" lon="-1.59399">
        <ele>5</ele>
        <time>2020-06-12T05:25:15Z</time>
      </trkpt>
      <trkpt lat="49.10998" lon="-1.59396">
        <ele>4.9</ele>
        <time>2020-06-12T05:25:16Z</time>
      </trkpt>
      <trkpt lat="49.11004" lon="-1.59394">
        <ele>4.9</ele>
        <time>2020-06-12T05:25:17Z</time>
      </trkpt>
      <trkpt lat="49.11009" lon="-1.59391">
        <ele>4.9</ele>
        <time>2020-06-12T05:25:18Z</time>
      </trkpt>
      <trkpt lat="49.11015" lon="-1.59389">
        <ele>4.9</ele>
        <time>2020-06-12T05:25:19Z</time>
      </trkpt>
      <trkpt lat="49.1102" lon="-1.59386">
        <ele>4.9</ele>
        <time>2020-06-12T05:25:20Z</time>
      </trkpt>
      <trkpt lat="49.11025" lon="-1.59383">
        <ele>4.9</ele>
        <time>2020-06-12T05:25:21Z</time>
      </trkpt>
      <trkpt lat="49.1103" lon="-1.5938">
        <ele>4.9</ele>
        <time>2020-06-12T05:25:22Z</time>
      </trkpt>
      <trkpt lat="49.11036" lon="-1.59376">
        <ele>4.8</ele>
        <time>2020-06-12T05:25:23Z</time>
      </trkpt>
      <trkpt lat="49.11041" lon="-1.59374">
        <ele>4.8</ele>
        <time>2020-06-12T05:25:24Z</time>
      </trkpt>
      <trkpt lat="49.11047" lon="-1.59372">
        <ele>4.8</ele>
        <time>2020-06-12T05:25:25Z</time>
      </trkpt>
      <trkpt lat="49.11053" lon="-1.59369">
        <ele>4.7</ele>
        <time>2020-06-12T05:25:26Z</time>
      </trkpt>
      <trkpt lat="49.11058" lon="-1.59367">
        <ele>4.7</ele>
        <time>2020-06-12T05:25:27Z</time>
      </trkpt>
      <trkpt lat="49.11064" lon="-1.59364">
        <ele>4.7</ele>
        <time>2020-06-12T05:25:28Z</time>
      </trkpt>
      <trkpt lat="49.11069" lon="-1.59361">
        <ele>4.7</ele>
        <time>2020-06-12T05:25:29Z</time>
      </trkpt>
      <trkpt lat="49.11074" lon="-1.59358">
        <ele>4.7</ele>
        <time>2020-06-12T05:25:30Z</time>
      </trkpt>
      <trkpt lat="49.1108" lon="-1.59356">
        <ele>4.7</ele>
        <time>2020-06-12T05:25:31Z</time>
      </trkpt>
      <trkpt lat="49.11085" lon="-1.59353">
        <ele>4.8</ele>
        <time>2020-06-12T05:25:32Z</time>
      </trkpt>
      <trkpt lat="49.11091" lon="-1.5935">
        <ele>4.8</ele>
        <time>2020-06-12T05:25:33Z</time>
      </trkpt>
      <trkpt lat="49.11096" lon="-1.59347">
        <ele>4.8</ele>
        <time>2020-06-12T05:25:34Z</time>
      </trkpt>
      <trkpt lat="49.11102" lon="-1.59345">
        <ele>4.7</ele>
        <time>2020-06-12T05:25:35Z</time>
      </trkpt>
      <trkpt lat="49.11108" lon="-1.59342">
        <ele>4.7</ele>
        <time>2020-06-12T05:25:36Z</time>
      </trkpt>
      <trkpt lat="49.11113" lon="-1.5934">
        <ele>4.7</ele>
        <time>2020-06-12T05:25:37Z</time>
      </trkpt>
      <trkpt lat="49.11119" lon="-1.59337">
        <ele>4.7</ele>
        <time>2020-06-12T05:25:38Z</time>
      </trkpt>
      <trkpt lat="49.11124" lon="-1.59334">
        <ele>4.7</ele>
        <time>2020-06-12T05:25:39Z</time>
      </trkpt>
      <trkpt lat="49.1113" lon="-1.59332">
        <ele>4.8</ele>
        <time>2020-06-12T05:25:40Z</time>
      </trkpt>
      <trkpt lat="49.11135" lon="-1.59328">
        <ele>4.8</ele>
        <time>2020-06-12T05:25:41Z</time>
      </trkpt>
      <trkpt lat="49.1114" lon="-1.59326">
        <ele>4.8</ele>
        <time>2020-06-12T05:25:42Z</time>
      </trkpt>
      <trkpt lat="49.11146" lon="-1.59324">
        <ele>4.8</ele>
        <time>2020-06-12T05:25:43Z</time>
      </trkpt>
      <trkpt lat="49.11152" lon="-1.5932">
        <ele>4.8</ele>
        <time>2020-06-12T05:25:44Z</time>
      </trkpt>
      <trkpt lat="49.11158" lon="-1.59317">
        <ele>4.9</ele>
        <time>2020-06-12T05:25:45Z</time>
      </trkpt>
      <trkpt lat="49.11163" lon="-1.59315">
        <ele>5</ele>
        <time>2020-06-12T05:25:46Z</time>
      </trkpt>
      <trkpt lat="49.11169" lon="-1.59312">
        <ele>5.1</ele>
        <time>2020-06-12T05:25:47Z</time>
      </trkpt>
      <trkpt lat="49.11174" lon="-1.59309">
        <ele>5.2</ele>
        <time>2020-06-12T05:25:48Z</time>
      </trkpt>
      <trkpt lat="49.11179" lon="-1.59307">
        <ele>5.3</ele>
        <time>2020-06-12T05:25:49Z</time>
      </trkpt>
      <trkpt lat="49.11185" lon="-1.59304">
        <ele>5.4</ele>
        <time>2020-06-12T05:25:50Z</time>
      </trkpt>
      <trkpt lat="49.1119" lon="-1.593">
        <ele>5.4</ele>
        <time>2020-06-12T05:25:51Z</time>
      </trkpt>
      <trkpt lat="49.11196" lon="-1.59297">
        <ele>5.4</ele>
        <time>2020-06-12T05:25:52Z</time>
      </trkpt>
      <trkpt lat="49.11201" lon="-1.59294">
        <ele>5.4</ele>
        <time>2020-06-12T05:25:53Z</time>
      </trkpt>
      <trkpt lat="49.11206" lon="-1.59294">
        <ele>5.4</ele>
        <time>2020-06-12T05:25:54Z</time>
      </trkpt>
      <trkpt lat="49.11212" lon="-1.59291">
        <ele>5.4</ele>
        <time>2020-06-12T05:25:55Z</time>
      </trkpt>
      <trkpt lat="49.11217" lon="-1.59288">
        <ele>5.4</ele>
        <time>2020-06-12T05:25:56Z</time>
      </trkpt>
      <trkpt lat="49.11223" lon="-1.59285">
        <ele>5.4</ele>
        <time>2020-06-12T05:25:57Z</time>
      </trkpt>
      <trkpt lat="49.11228" lon="-1.59283">
        <ele>5.4</ele>
        <time>2020-06-12T05:25:58Z</time>
      </trkpt>
      <trkpt lat="49.11234" lon="-1.5928">
        <ele>5.4</ele>
        <time>2020-06-12T05:25:59Z</time>
      </trkpt>
      <trkpt lat="49.11239" lon="-1.59277">
        <ele>5.5</ele>
        <time>2020-06-12T05:26:00Z</time>
      </trkpt>
      <trkpt lat="49.11245" lon="-1.59273">
        <ele>5.5</ele>
        <time>2020-06-12T05:26:01Z</time>
      </trkpt>
      <trkpt lat="49.1125" lon="-1.5927">
        <ele>5.5</ele>
        <time>2020-06-12T05:26:02Z</time>
      </trkpt>
      <trkpt lat="49.11255" lon="-1.59266">
        <ele>5.5</ele>
        <time>2020-06-12T05:26:03Z</time>
      </trkpt>
      <trkpt lat="49.1126" lon="-1.59264">
        <ele>5.5</ele>
        <time>2020-06-12T05:26:04Z</time>
      </trkpt>
      <trkpt lat="49.11266" lon="-1.59262">
        <ele>5.5</ele>
        <time>2020-06-12T05:26:05Z</time>
      </trkpt>
      <trkpt lat="49.11271" lon="-1.5926">
        <ele>5.5</ele>
        <time>2020-06-12T05:26:06Z</time>
      </trkpt>
      <trkpt lat="49.11276" lon="-1.59257">
        <ele>5.5</ele>
        <time>2020-06-12T05:26:07Z</time>
      </trkpt>
      <trkpt lat="49.11281" lon="-1.59254">
        <ele>5.5</ele>
        <time>2020-06-12T05:26:08Z</time>
      </trkpt>
      <trkpt lat="49.11287" lon="-1.59252">
        <ele>5.5</ele>
        <time>2020-06-12T05:26:09Z</time>
      </trkpt>
      <trkpt lat="49.11293" lon="-1.59249">
        <ele>5.6</ele>
        <time>2020-06-12T05:26:10Z</time>
      </trkpt>
      <trkpt lat="49.11299" lon="-1.59246">
        <ele>5.6</ele>
        <time>2020-06-12T05:26:11Z</time>
      </trkpt>
      <trkpt lat="49.11305" lon="-1.59243">
        <ele>5.6</ele>
        <time>2020-06-12T05:26:12Z</time>
      </trkpt>
      <trkpt lat="49.1131" lon="-1.5924">
        <ele>5.6</ele>
        <time>2020-06-12T05:26:13Z</time>
      </trkpt>
      <trkpt lat="49.11316" lon="-1.59237">
        <ele>5.6</ele>
        <time>2020-06-12T05:26:14Z</time>
      </trkpt>
      <trkpt lat="49.11322" lon="-1.59235">
        <ele>5.6</ele>
        <time>2020-06-12T05:26:15Z</time>
      </trkpt>
      <trkpt lat="49.11327" lon="-1.59232">
        <ele>5.6</ele>
        <time>2020-06-12T05:26:16Z</time>
      </trkpt>
      <trkpt lat="49.11333" lon="-1.59229">
        <ele>5.6</ele>
        <time>2020-06-12T05:26:17Z</time>
      </trkpt>
      <trkpt lat="49.11338" lon="-1.59227">
        <ele>5.6</ele>
        <time>2020-06-12T05:26:18Z</time>
      </trkpt>
      <trkpt lat="49.11344" lon="-1.59223">
        <ele>5.5</ele>
        <time>2020-06-12T05:26:19Z</time>
      </trkpt>
      <trkpt lat="49.11349" lon="-1.5922">
        <ele>5.5</ele>
        <time>2020-06-12T05:26:20Z</time>
      </trkpt>
      <trkpt lat="49.11355" lon="-1.59217">
        <ele>5.5</ele>
        <time>2020-06-12T05:26:21Z</time>
      </trkpt>
      <trkpt lat="49.11361" lon="-1.59213">
        <ele>5.5</ele>
        <time>2020-06-12T05:26:22Z</time>
      </trkpt>
      <trkpt lat="49.11366" lon="-1.59211">
        <ele>5.5</ele>
        <time>2020-06-12T05:26:23Z</time>
      </trkpt>
      <trkpt lat="49.11371" lon="-1.59209">
        <ele>5.5</ele>
        <time>2020-06-12T05:26:24Z</time>
      </trkpt>
      <trkpt lat="49.11377" lon="-1.59207">
        <ele>5.5</ele>
        <time>2020-06-12T05:26:25Z</time>
      </trkpt>
      <trkpt lat="49.11381" lon="-1.59203">
        <ele>5.5</ele>
        <time>2020-06-12T05:26:26Z</time>
      </trkpt>
      <trkpt lat="49.11387" lon="-1.59201">
        <ele>5.5</ele>
        <time>2020-06-12T05:26:27Z</time>
      </trkpt>
      <trkpt lat="49.11392" lon="-1.59198">
        <ele>5.5</ele>
        <time>2020-06-12T05:26:28Z</time>
      </trkpt>
      <trkpt lat="49.11397" lon="-1.59195">
        <ele>5.5</ele>
        <time>2020-06-12T05:26:29Z</time>
      </trkpt>
      <trkpt lat="49.11403" lon="-1.59193">
        <ele>5.5</ele>
        <time>2020-06-12T05:26:30Z</time>
      </trkpt>
      <trkpt lat="49.11408" lon="-1.5919">
        <ele>5.5</ele>
        <time>2020-06-12T05:26:31Z</time>
      </trkpt>
      <trkpt lat="49.11414" lon="-1.59187">
        <ele>5.5</ele>
        <time>2020-06-12T05:26:32Z</time>
      </trkpt>
      <trkpt lat="49.11419" lon="-1.59184">
        <ele>5.5</ele>
        <time>2020-06-12T05:26:33Z</time>
      </trkpt>
      <trkpt lat="49.11424" lon="-1.59181">
        <ele>5.5</ele>
        <time>2020-06-12T05:26:34Z</time>
      </trkpt>
      <trkpt lat="49.11429" lon="-1.59179">
        <ele>5.5</ele>
        <time>2020-06-12T05:26:35Z</time>
      </trkpt>
      <trkpt lat="49.11434" lon="-1.59176">
        <ele>5.5</ele>
        <time>2020-06-12T05:26:36Z</time>
      </trkpt>
      <trkpt lat="49.1144" lon="-1.59174">
        <ele>5.4</ele>
        <time>2020-06-12T05:26:37Z</time>
      </trkpt>
      <trkpt lat="49.11446" lon="-1.59172">
        <ele>5.4</ele>
        <time>2020-06-12T05:26:38Z</time>
      </trkpt>
      <trkpt lat="49.11451" lon="-1.59169">
        <ele>5.4</ele>
        <time>2020-06-12T05:26:39Z</time>
      </trkpt>
      <trkpt lat="49.11457" lon="-1.59166">
        <ele>5.4</ele>
        <time>2020-06-12T05:26:40Z</time>
      </trkpt>
      <trkpt lat="49.11463" lon="-1.59164">
        <ele>5.4</ele>
        <time>2020-06-12T05:26:41Z</time>
      </trkpt>
      <trkpt lat="49.11468" lon="-1.5916">
        <ele>5.4</ele>
        <time>2020-06-12T05:26:42Z</time>
      </trkpt>
      <trkpt lat="49.11474" lon="-1.59158">
        <ele>5.4</ele>
        <time>2020-06-12T05:26:43Z</time>
      </trkpt>
      <trkpt lat="49.11479" lon="-1.59156">
        <ele>5.4</ele>
        <time>2020-06-12T05:26:44Z</time>
      </trkpt>
      <trkpt lat="49.11485" lon="-1.59153">
        <ele>5.4</ele>
        <time>2020-06-12T05:26:45Z</time>
      </trkpt>
      <trkpt lat="49.11491" lon="-1.5915">
        <ele>5.4</ele>
        <time>2020-06-12T05:26:46Z</time>
      </trkpt>
      <trkpt lat="49.11496" lon="-1.59147">
        <ele>5.4</ele>
        <time>2020-06-12T05:26:47Z</time>
      </trkpt>
      <trkpt lat="49.11502" lon="-1.59144">
        <ele>5.4</ele>
        <time>2020-06-12T05:26:48Z</time>
      </trkpt>
      <trkpt lat="49.11507" lon="-1.59143">
        <ele>5.3</ele>
        <time>2020-06-12T05:26:49Z</time>
      </trkpt>
      <trkpt lat="49.11513" lon="-1.5914">
        <ele>5.3</ele>
        <time>2020-06-12T05:26:50Z</time>
      </trkpt>
      <trkpt lat="49.11518" lon="-1.59137">
        <ele>5.3</ele>
        <time>2020-06-12T05:26:51Z</time>
      </trkpt>
      <trkpt lat="49.11524" lon="-1.59134">
        <ele>5.3</ele>
        <time>2020-06-12T05:26:52Z</time>
      </trkpt>
      <trkpt lat="49.11529" lon="-1.59131">
        <ele>5.3</ele>
        <time>2020-06-12T05:26:53Z</time>
      </trkpt>
      <trkpt lat="49.11535" lon="-1.59129">
        <ele>5.3</ele>
        <time>2020-06-12T05:26:54Z</time>
      </trkpt>
      <trkpt lat="49.1154" lon="-1.59126">
        <ele>5.3</ele>
        <time>2020-06-12T05:26:55Z</time>
      </trkpt>
      <trkpt lat="49.11546" lon="-1.59124">
        <ele>5.3</ele>
        <time>2020-06-12T05:26:56Z</time>
      </trkpt>
      <trkpt lat="49.11551" lon="-1.59121">
        <ele>5.3</ele>
        <time>2020-06-12T05:26:57Z</time>
      </trkpt>
      <trkpt lat="49.11557" lon="-1.59119">
        <ele>5.3</ele>
        <time>2020-06-12T05:26:58Z</time>
      </trkpt>
      <trkpt lat="49.11562" lon="-1.59116">
        <ele>5.2</ele>
        <time>2020-06-12T05:26:59Z</time>
      </trkpt>
      <trkpt lat="49.11568" lon="-1.59113">
        <ele>5.2</ele>
        <time>2020-06-12T05:27:00Z</time>
      </trkpt>
      <trkpt lat="49.11574" lon="-1.5911">
        <ele>5.2</ele>
        <time>2020-06-12T05:27:01Z</time>
      </trkpt>
      <trkpt lat="49.1158" lon="-1.59107">
        <ele>5.1</ele>
        <time>2020-06-12T05:27:02Z</time>
      </trkpt>
      <trkpt lat="49.11585" lon="-1.59104">
        <ele>5.1</ele>
        <time>2020-06-12T05:27:03Z</time>
      </trkpt>
      <trkpt lat="49.1159" lon="-1.59102">
        <ele>5.1</ele>
        <time>2020-06-12T05:27:04Z</time>
      </trkpt>
      <trkpt lat="49.11595" lon="-1.59099">
        <ele>5</ele>
        <time>2020-06-12T05:27:05Z</time>
      </trkpt>
      <trkpt lat="49.116" lon="-1.59096">
        <ele>5</ele>
        <time>2020-06-12T05:27:06Z</time>
      </trkpt>
      <trkpt lat="49.11605" lon="-1.59093">
        <ele>5</ele>
        <time>2020-06-12T05:27:07Z</time>
      </trkpt>
      <trkpt lat="49.1161" lon="-1.59091">
        <ele>4.9</ele>
        <time>2020-06-12T05:27:08Z</time>
      </trkpt>
      <trkpt lat="49.11615" lon="-1.59088">
        <ele>4.9</ele>
        <time>2020-06-12T05:27:09Z</time>
      </trkpt>
      <trkpt lat="49.11621" lon="-1.59086">
        <ele>4.9</ele>
        <time>2020-06-12T05:27:10Z</time>
      </trkpt>
      <trkpt lat="49.11626" lon="-1.59083">
        <ele>4.9</ele>
        <time>2020-06-12T05:27:11Z</time>
      </trkpt>
      <trkpt lat="49.11631" lon="-1.59081">
        <ele>4.9</ele>
        <time>2020-06-12T05:27:12Z</time>
      </trkpt>
      <trkpt lat="49.11637" lon="-1.59078">
        <ele>4.9</ele>
        <time>2020-06-12T05:27:13Z</time>
      </trkpt>
      <trkpt lat="49.11642" lon="-1.59074">
        <ele>4.8</ele>
        <time>2020-06-12T05:27:14Z</time>
      </trkpt>
      <trkpt lat="49.11647" lon="-1.59072">
        <ele>4.8</ele>
        <time>2020-06-12T05:27:15Z</time>
      </trkpt>
      <trkpt lat="49.11652" lon="-1.59069">
        <ele>4.8</ele>
        <time>2020-06-12T05:27:16Z</time>
      </trkpt>
      <trkpt lat="49.11656" lon="-1.59066">
        <ele>4.8</ele>
        <time>2020-06-12T05:27:17Z</time>
      </trkpt>
      <trkpt lat="49.11661" lon="-1.59064">
        <ele>4.8</ele>
        <time>2020-06-12T05:27:18Z</time>
      </trkpt>
      <trkpt lat="49.11666" lon="-1.59061">
        <ele>4.8</ele>
        <time>2020-06-12T05:27:19Z</time>
      </trkpt>
      <trkpt lat="49.11671" lon="-1.59059">
        <ele>4.8</ele>
        <time>2020-06-12T05:27:20Z</time>
      </trkpt>
      <trkpt lat="49.11676" lon="-1.59056">
        <ele>4.8</ele>
        <time>2020-06-12T05:27:21Z</time>
      </trkpt>
      <trkpt lat="49.11681" lon="-1.59053">
        <ele>4.8</ele>
        <time>2020-06-12T05:27:22Z</time>
      </trkpt>
      <trkpt lat="49.11686" lon="-1.59051">
        <ele>4.8</ele>
        <time>2020-06-12T05:27:23Z</time>
      </trkpt>
      <trkpt lat="49.1169" lon="-1.59049">
        <ele>4.9</ele>
        <time>2020-06-12T05:27:24Z</time>
      </trkpt>
      <trkpt lat="49.11695" lon="-1.59047">
        <ele>4.9</ele>
        <time>2020-06-12T05:27:25Z</time>
      </trkpt>
      <trkpt lat="49.11699" lon="-1.59044">
        <ele>4.9</ele>
        <time>2020-06-12T05:27:26Z</time>
      </trkpt>
      <trkpt lat="49.11704" lon="-1.59042">
        <ele>4.9</ele>
        <time>2020-06-12T05:27:27Z</time>
      </trkpt>
      <trkpt lat="49.11709" lon="-1.59039">
        <ele>4.8</ele>
        <time>2020-06-12T05:27:28Z</time>
      </trkpt>
      <trkpt lat="49.11714" lon="-1.59036">
        <ele>4.8</ele>
        <time>2020-06-12T05:27:29Z</time>
      </trkpt>
      <trkpt lat="49.11719" lon="-1.59034">
        <ele>4.8</ele>
        <time>2020-06-12T05:27:30Z</time>
      </trkpt>
      <trkpt lat="49.11724" lon="-1.59032">
        <ele>4.8</ele>
        <time>2020-06-12T05:27:31Z</time>
      </trkpt>
      <trkpt lat="49.1173" lon="-1.59029">
        <ele>4.8</ele>
        <time>2020-06-12T05:27:32Z</time>
      </trkpt>
      <trkpt lat="49.11735" lon="-1.59026">
        <ele>4.8</ele>
        <time>2020-06-12T05:27:33Z</time>
      </trkpt>
      <trkpt lat="49.11741" lon="-1.59024">
        <ele>4.8</ele>
        <time>2020-06-12T05:27:34Z</time>
      </trkpt>
      <trkpt lat="49.11746" lon="-1.59021">
        <ele>4.8</ele>
        <time>2020-06-12T05:27:35Z</time>
      </trkpt>
      <trkpt lat="49.11751" lon="-1.59018">
        <ele>4.9</ele>
        <time>2020-06-12T05:27:36Z</time>
      </trkpt>
      <trkpt lat="49.11757" lon="-1.59016">
        <ele>5</ele>
        <time>2020-06-12T05:27:37Z</time>
      </trkpt>
      <trkpt lat="49.11762" lon="-1.59013">
        <ele>5</ele>
        <time>2020-06-12T05:27:38Z</time>
      </trkpt>
      <trkpt lat="49.11768" lon="-1.5901">
        <ele>5.1</ele>
        <time>2020-06-12T05:27:39Z</time>
      </trkpt>
      <trkpt lat="49.11772" lon="-1.59007">
        <ele>5.1</ele>
        <time>2020-06-12T05:27:40Z</time>
      </trkpt>
      <trkpt lat="49.11778" lon="-1.59004">
        <ele>5</ele>
        <time>2020-06-12T05:27:41Z</time>
      </trkpt>
      <trkpt lat="49.11783" lon="-1.59001">
        <ele>5</ele>
        <time>2020-06-12T05:27:42Z</time>
      </trkpt>
      <trkpt lat="49.11788" lon="-1.58998">
        <ele>5</ele>
        <time>2020-06-12T05:27:43Z</time>
      </trkpt>
      <trkpt lat="49.11793" lon="-1.58996">
        <ele>5</ele>
        <time>2020-06-12T05:27:44Z</time>
      </trkpt>
      <trkpt lat="49.11798" lon="-1.58994">
        <ele>5</ele>
        <time>2020-06-12T05:27:45Z</time>
      </trkpt>
      <trkpt lat="49.11804" lon="-1.58991">
        <ele>5</ele>
        <time>2020-06-12T05:27:46Z</time>
      </trkpt>
      <trkpt lat="49.11809" lon="-1.58989">
        <ele>5</ele>
        <time>2020-06-12T05:27:47Z</time>
      </trkpt>
      <trkpt lat="49.11816" lon="-1.58986">
        <ele>5</ele>
        <time>2020-06-12T05:27:48Z</time>
      </trkpt>
      <trkpt lat="49.11821" lon="-1.58984">
        <ele>5</ele>
        <time>2020-06-12T05:27:49Z</time>
      </trkpt>
      <trkpt lat="49.11827" lon="-1.58981">
        <ele>5.1</ele>
        <time>2020-06-12T05:27:50Z</time>
      </trkpt>
      <trkpt lat="49.11832" lon="-1.58978">
        <ele>5.1</ele>
        <time>2020-06-12T05:27:51Z</time>
      </trkpt>
      <trkpt lat="49.11837" lon="-1.58976">
        <ele>5.1</ele>
        <time>2020-06-12T05:27:52Z</time>
      </trkpt>
      <trkpt lat="49.11843" lon="-1.58973">
        <ele>5.1</ele>
        <time>2020-06-12T05:27:53Z</time>
      </trkpt>
      <trkpt lat="49.11848" lon="-1.58969">
        <ele>5.1</ele>
        <time>2020-06-12T05:27:54Z</time>
      </trkpt>
      <trkpt lat="49.11854" lon="-1.58967">
        <ele>5.1</ele>
        <time>2020-06-12T05:27:55Z</time>
      </trkpt>
      <trkpt lat="49.1186" lon="-1.58965">
        <ele>5.1</ele>
        <time>2020-06-12T05:27:56Z</time>
      </trkpt>
      <trkpt lat="49.11866" lon="-1.58964">
        <ele>5.2</ele>
        <time>2020-06-12T05:27:57Z</time>
      </trkpt>
      <trkpt lat="49.11872" lon="-1.58963">
        <ele>5.2</ele>
        <time>2020-06-12T05:27:58Z</time>
      </trkpt>
      <trkpt lat="49.11877" lon="-1.58961">
        <ele>5.2</ele>
        <time>2020-06-12T05:27:59Z</time>
      </trkpt>
      <trkpt lat="49.11883" lon="-1.5896">
        <ele>5.2</ele>
        <time>2020-06-12T05:28:00Z</time>
      </trkpt>
      <trkpt lat="49.11889" lon="-1.58959">
        <ele>5.2</ele>
        <time>2020-06-12T05:28:01Z</time>
      </trkpt>
      <trkpt lat="49.11894" lon="-1.58958">
        <ele>5.2</ele>
        <time>2020-06-12T05:28:02Z</time>
      </trkpt>
      <trkpt lat="49.11898" lon="-1.58957">
        <ele>5.2</ele>
        <time>2020-06-12T05:28:03Z</time>
      </trkpt>
      <trkpt lat="49.11902" lon="-1.58956">
        <ele>5.2</ele>
        <time>2020-06-12T05:28:04Z</time>
      </trkpt>
      <trkpt lat="49.11907" lon="-1.58954">
        <ele>5.2</ele>
        <time>2020-06-12T05:28:05Z</time>
      </trkpt>
      <trkpt lat="49.11911" lon="-1.58953">
        <ele>5.2</ele>
        <time>2020-06-12T05:28:06Z</time>
      </trkpt>
      <trkpt lat="49.11916" lon="-1.58952">
        <ele>5.2</ele>
        <time>2020-06-12T05:28:07Z</time>
      </trkpt>
      <trkpt lat="49.11921" lon="-1.58951">
        <ele>5.2</ele>
        <time>2020-06-12T05:28:08Z</time>
      </trkpt>
      <trkpt lat="49.11926" lon="-1.5895">
        <ele>5.2</ele>
        <time>2020-06-12T05:28:09Z</time>
      </trkpt>
      <trkpt lat="49.11931" lon="-1.58949">
        <ele>5.2</ele>
        <time>2020-06-12T05:28:10Z</time>
      </trkpt>
      <trkpt lat="49.11936" lon="-1.58948">
        <ele>5.2</ele>
        <time>2020-06-12T05:28:11Z</time>
      </trkpt>
      <trkpt lat="49.11941" lon="-1.58948">
        <ele>5.2</ele>
        <time>2020-06-12T05:28:12Z</time>
      </trkpt>
      <trkpt lat="49.11946" lon="-1.58948">
        <ele>5.2</ele>
        <time>2020-06-12T05:28:13Z</time>
      </trkpt>
      <trkpt lat="49.11951" lon="-1.58948">
        <ele>5.2</ele>
        <time>2020-06-12T05:28:14Z</time>
      </trkpt>
      <trkpt lat="49.11956" lon="-1.58948">
        <ele>5.2</ele>
        <time>2020-06-12T05:28:15Z</time>
      </trkpt>
      <trkpt lat="49.11962" lon="-1.58947">
        <ele>5.1</ele>
        <time>2020-06-12T05:28:16Z</time>
      </trkpt>
      <trkpt lat="49.11967" lon="-1.58945">
        <ele>5.1</ele>
        <time>2020-06-12T05:28:17Z</time>
      </trkpt>
      <trkpt lat="49.11973" lon="-1.58944">
        <ele>5.1</ele>
        <time>2020-06-12T05:28:18Z</time>
      </trkpt>
      <trkpt lat="49.11979" lon="-1.58945">
        <ele>5</ele>
        <time>2020-06-12T05:28:19Z</time>
      </trkpt>
      <trkpt lat="49.11986" lon="-1.58945">
        <ele>5</ele>
        <time>2020-06-12T05:28:20Z</time>
      </trkpt>
      <trkpt lat="49.11992" lon="-1.58946">
        <ele>4.9</ele>
        <time>2020-06-12T05:28:21Z</time>
      </trkpt>
      <trkpt lat="49.11997" lon="-1.58945">
        <ele>4.9</ele>
        <time>2020-06-12T05:28:22Z</time>
      </trkpt>
      <trkpt lat="49.12003" lon="-1.58945">
        <ele>4.9</ele>
        <time>2020-06-12T05:28:23Z</time>
      </trkpt>
      <trkpt lat="49.12009" lon="-1.58944">
        <ele>4.8</ele>
        <time>2020-06-12T05:28:24Z</time>
      </trkpt>
      <trkpt lat="49.12014" lon="-1.58945">
        <ele>4.8</ele>
        <time>2020-06-12T05:28:25Z</time>
      </trkpt>
      <trkpt lat="49.1202" lon="-1.58946">
        <ele>4.7</ele>
        <time>2020-06-12T05:28:26Z</time>
      </trkpt>
      <trkpt lat="49.12025" lon="-1.58945">
        <ele>4.7</ele>
        <time>2020-06-12T05:28:27Z</time>
      </trkpt>
      <trkpt lat="49.1203" lon="-1.58944">
        <ele>4.7</ele>
        <time>2020-06-12T05:28:28Z</time>
      </trkpt>
      <trkpt lat="49.12036" lon="-1.58943">
        <ele>4.6</ele>
        <time>2020-06-12T05:28:29Z</time>
      </trkpt>
      <trkpt lat="49.12041" lon="-1.58942">
        <ele>4.6</ele>
        <time>2020-06-12T05:28:30Z</time>
      </trkpt>
      <trkpt lat="49.12048" lon="-1.58942">
        <ele>4.5</ele>
        <time>2020-06-12T05:28:31Z</time>
      </trkpt>
      <trkpt lat="49.12055" lon="-1.58942">
        <ele>4.5</ele>
        <time>2020-06-12T05:28:32Z</time>
      </trkpt>
      <trkpt lat="49.12061" lon="-1.58943">
        <ele>4.4</ele>
        <time>2020-06-12T05:28:33Z</time>
      </trkpt>
      <trkpt lat="49.12067" lon="-1.58944">
        <ele>4.4</ele>
        <time>2020-06-12T05:28:34Z</time>
      </trkpt>
      <trkpt lat="49.12073" lon="-1.58944">
        <ele>4.3</ele>
        <time>2020-06-12T05:28:35Z</time>
      </trkpt>
      <trkpt lat="49.1208" lon="-1.58945">
        <ele>4.3</ele>
        <time>2020-06-12T05:28:36Z</time>
      </trkpt>
      <trkpt lat="49.12087" lon="-1.58945">
        <ele>4.2</ele>
        <time>2020-06-12T05:28:37Z</time>
      </trkpt>
      <trkpt lat="49.12094" lon="-1.58946">
        <ele>4.2</ele>
        <time>2020-06-12T05:28:38Z</time>
      </trkpt>
      <trkpt lat="49.12099" lon="-1.58945">
        <ele>4.2</ele>
        <time>2020-06-12T05:28:39Z</time>
      </trkpt>
      <trkpt lat="49.12106" lon="-1.58946">
        <ele>4.2</ele>
        <time>2020-06-12T05:28:40Z</time>
      </trkpt>
      <trkpt lat="49.12112" lon="-1.58946">
        <ele>4.2</ele>
        <time>2020-06-12T05:28:41Z</time>
      </trkpt>
      <trkpt lat="49.12119" lon="-1.58946">
        <ele>4.2</ele>
        <time>2020-06-12T05:28:42Z</time>
      </trkpt>
      <trkpt lat="49.12125" lon="-1.58947">
        <ele>4.2</ele>
        <time>2020-06-12T05:28:43Z</time>
      </trkpt>
      <trkpt lat="49.12131" lon="-1.58947">
        <ele>4.2</ele>
        <time>2020-06-12T05:28:44Z</time>
      </trkpt>
      <trkpt lat="49.12136" lon="-1.58947">
        <ele>4.2</ele>
        <time>2020-06-12T05:28:45Z</time>
      </trkpt>
      <trkpt lat="49.12142" lon="-1.58948">
        <ele>4.2</ele>
        <time>2020-06-12T05:28:46Z</time>
      </trkpt>
      <trkpt lat="49.12147" lon="-1.58948">
        <ele>4.2</ele>
        <time>2020-06-12T05:28:47Z</time>
      </trkpt>
      <trkpt lat="49.12152" lon="-1.58947">
        <ele>4.2</ele>
        <time>2020-06-12T05:28:48Z</time>
      </trkpt>
      <trkpt lat="49.12158" lon="-1.5895">
        <ele>4.2</ele>
        <time>2020-06-12T05:28:49Z</time>
      </trkpt>
      <trkpt lat="49.12163" lon="-1.5895">
        <ele>4.2</ele>
        <time>2020-06-12T05:28:50Z</time>
      </trkpt>
      <trkpt lat="49.12169" lon="-1.58949">
        <ele>4.2</ele>
        <time>2020-06-12T05:28:51Z</time>
      </trkpt>
      <trkpt lat="49.12175" lon="-1.58949">
        <ele>4.2</ele>
        <time>2020-06-12T05:28:52Z</time>
      </trkpt>
      <trkpt lat="49.12182" lon="-1.58949">
        <ele>4.3</ele>
        <time>2020-06-12T05:28:53Z</time>
      </trkpt>
      <trkpt lat="49.12188" lon="-1.58948">
        <ele>4.3</ele>
        <time>2020-06-12T05:28:54Z</time>
      </trkpt>
      <trkpt lat="49.12195" lon="-1.58949">
        <ele>4.3</ele>
        <time>2020-06-12T05:28:55Z</time>
      </trkpt>
      <trkpt lat="49.122" lon="-1.5895">
        <ele>4.3</ele>
        <time>2020-06-12T05:28:56Z</time>
      </trkpt>
      <trkpt lat="49.12205" lon="-1.5895">
        <ele>4.4</ele>
        <time>2020-06-12T05:28:57Z</time>
      </trkpt>
      <trkpt lat="49.1221" lon="-1.5895">
        <ele>4.4</ele>
        <time>2020-06-12T05:28:58Z</time>
      </trkpt>
      <trkpt lat="49.12215" lon="-1.58951">
        <ele>4.4</ele>
        <time>2020-06-12T05:28:59Z</time>
      </trkpt>
      <trkpt lat="49.12221" lon="-1.58951">
        <ele>4.4</ele>
        <time>2020-06-12T05:29:00Z</time>
      </trkpt>
      <trkpt lat="49.12227" lon="-1.58951">
        <ele>4.5</ele>
        <time>2020-06-12T05:29:01Z</time>
      </trkpt>
      <trkpt lat="49.12233" lon="-1.58952">
        <ele>4.5</ele>
        <time>2020-06-12T05:29:02Z</time>
      </trkpt>
      <trkpt lat="49.12239" lon="-1.58952">
        <ele>4.5</ele>
        <time>2020-06-12T05:29:03Z</time>
      </trkpt>
      <trkpt lat="49.12245" lon="-1.58952">
        <ele>4.5</ele>
        <time>2020-06-12T05:29:04Z</time>
      </trkpt>
      <trkpt lat="49.1225" lon="-1.58952">
        <ele>4.5</ele>
        <time>2020-06-12T05:29:05Z</time>
      </trkpt>
      <trkpt lat="49.12255" lon="-1.58952">
        <ele>4.5</ele>
        <time>2020-06-12T05:29:06Z</time>
      </trkpt>
      <trkpt lat="49.12261" lon="-1.58952">
        <ele>4.5</ele>
        <time>2020-06-12T05:29:07Z</time>
      </trkpt>
      <trkpt lat="49.12266" lon="-1.58952">
        <ele>4.5</ele>
        <time>2020-06-12T05:29:08Z</time>
      </trkpt>
      <trkpt lat="49.12271" lon="-1.58953">
        <ele>4.5</ele>
        <time>2020-06-12T05:29:09Z</time>
      </trkpt>
      <trkpt lat="49.12277" lon="-1.58952">
        <ele>4.5</ele>
        <time>2020-06-12T05:29:10Z</time>
      </trkpt>
      <trkpt lat="49.12282" lon="-1.58952">
        <ele>4.5</ele>
        <time>2020-06-12T05:29:11Z</time>
      </trkpt>
      <trkpt lat="49.12287" lon="-1.58951">
        <ele>4.5</ele>
        <time>2020-06-12T05:29:12Z</time>
      </trkpt>
      <trkpt lat="49.12293" lon="-1.58951">
        <ele>4.5</ele>
        <time>2020-06-12T05:29:13Z</time>
      </trkpt>
      <trkpt lat="49.12299" lon="-1.58951">
        <ele>4.5</ele>
        <time>2020-06-12T05:29:14Z</time>
      </trkpt>
      <trkpt lat="49.12305" lon="-1.58951">
        <ele>4.5</ele>
        <time>2020-06-12T05:29:15Z</time>
      </trkpt>
      <trkpt lat="49.12311" lon="-1.58952">
        <ele>4.5</ele>
        <time>2020-06-12T05:29:16Z</time>
      </trkpt>
      <trkpt lat="49.12317" lon="-1.58952">
        <ele>4.5</ele>
        <time>2020-06-12T05:29:17Z</time>
      </trkpt>
      <trkpt lat="49.12322" lon="-1.58953">
        <ele>4.5</ele>
        <time>2020-06-12T05:29:18Z</time>
      </trkpt>
      <trkpt lat="49.12328" lon="-1.58953">
        <ele>4.5</ele>
        <time>2020-06-12T05:29:19Z</time>
      </trkpt>
      <trkpt lat="49.12333" lon="-1.58953">
        <ele>4.5</ele>
        <time>2020-06-12T05:29:20Z</time>
      </trkpt>
      <trkpt lat="49.12338" lon="-1.58953">
        <ele>4.5</ele>
        <time>2020-06-12T05:29:21Z</time>
      </trkpt>
      <trkpt lat="49.12343" lon="-1.58954">
        <ele>4.5</ele>
        <time>2020-06-12T05:29:22Z</time>
      </trkpt>
      <trkpt lat="49.12348" lon="-1.58953">
        <ele>4.5</ele>
        <time>2020-06-12T05:29:23Z</time>
      </trkpt>
      <trkpt lat="49.12353" lon="-1.58952">
        <ele>4.5</ele>
        <time>2020-06-12T05:29:24Z</time>
      </trkpt>
      <trkpt lat="49.12359" lon="-1.58953">
        <ele>4.5</ele>
        <time>2020-06-12T05:29:25Z</time>
      </trkpt>
      <trkpt lat="49.12365" lon="-1.58954">
        <ele>4.5</ele>
        <time>2020-06-12T05:29:26Z</time>
      </trkpt>
      <trkpt lat="49.12371" lon="-1.58955">
        <ele>4.5</ele>
        <time>2020-06-12T05:29:27Z</time>
      </trkpt>
      <trkpt lat="49.12377" lon="-1.58956">
        <ele>4.5</ele>
        <time>2020-06-12T05:29:28Z</time>
      </trkpt>
      <trkpt lat="49.12383" lon="-1.58956">
        <ele>4.5</ele>
        <time>2020-06-12T05:29:29Z</time>
      </trkpt>
      <trkpt lat="49.12389" lon="-1.58955">
        <ele>4.4</ele>
        <time>2020-06-12T05:29:30Z</time>
      </trkpt>
      <trkpt lat="49.12394" lon="-1.58956">
        <ele>4.4</ele>
        <time>2020-06-12T05:29:31Z</time>
      </trkpt>
      <trkpt lat="49.124" lon="-1.58956">
        <ele>4.3</ele>
        <time>2020-06-12T05:29:32Z</time>
      </trkpt>
      <trkpt lat="49.12407" lon="-1.58956">
        <ele>4.3</ele>
        <time>2020-06-12T05:29:33Z</time>
      </trkpt>
      <trkpt lat="49.12413" lon="-1.58957">
        <ele>4.3</ele>
        <time>2020-06-12T05:29:34Z</time>
      </trkpt>
      <trkpt lat="49.12419" lon="-1.58957">
        <ele>4.2</ele>
        <time>2020-06-12T05:29:35Z</time>
      </trkpt>
      <trkpt lat="49.12426" lon="-1.58957">
        <ele>4.2</ele>
        <time>2020-06-12T05:29:36Z</time>
      </trkpt>
      <trkpt lat="49.12431" lon="-1.58957">
        <ele>4.2</ele>
        <time>2020-06-12T05:29:37Z</time>
      </trkpt>
      <trkpt lat="49.12437" lon="-1.58957">
        <ele>4.2</ele>
        <time>2020-06-12T05:29:38Z</time>
      </trkpt>
      <trkpt lat="49.12443" lon="-1.58957">
        <ele>4.1</ele>
        <time>2020-06-12T05:29:39Z</time>
      </trkpt>
      <trkpt lat="49.12449" lon="-1.58956">
        <ele>4.1</ele>
        <time>2020-06-12T05:29:40Z</time>
      </trkpt>
      <trkpt lat="49.12454" lon="-1.58955">
        <ele>4.1</ele>
        <time>2020-06-12T05:29:41Z</time>
      </trkpt>
      <trkpt lat="49.1246" lon="-1.58955">
        <ele>4</ele>
        <time>2020-06-12T05:29:42Z</time>
      </trkpt>
      <trkpt lat="49.12466" lon="-1.58955">
        <ele>4</ele>
        <time>2020-06-12T05:29:43Z</time>
      </trkpt>
      <trkpt lat="49.12472" lon="-1.58956">
        <ele>3.9</ele>
        <time>2020-06-12T05:29:44Z</time>
      </trkpt>
      <trkpt lat="49.12478" lon="-1.58956">
        <ele>3.9</ele>
        <time>2020-06-12T05:29:45Z</time>
      </trkpt>
      <trkpt lat="49.12484" lon="-1.58956">
        <ele>3.9</ele>
        <time>2020-06-12T05:29:46Z</time>
      </trkpt>
      <trkpt lat="49.12489" lon="-1.58956">
        <ele>3.8</ele>
        <time>2020-06-12T05:29:47Z</time>
      </trkpt>
      <trkpt lat="49.12494" lon="-1.58956">
        <ele>3.8</ele>
        <time>2020-06-12T05:29:48Z</time>
      </trkpt>
      <trkpt lat="49.125" lon="-1.58956">
        <ele>3.8</ele>
        <time>2020-06-12T05:29:49Z</time>
      </trkpt>
      <trkpt lat="49.12506" lon="-1.58957">
        <ele>3.8</ele>
        <time>2020-06-12T05:29:50Z</time>
      </trkpt>
      <trkpt lat="49.12512" lon="-1.58957">
        <ele>3.8</ele>
        <time>2020-06-12T05:29:51Z</time>
      </trkpt>
      <trkpt lat="49.12518" lon="-1.58959">
        <ele>3.7</ele>
        <time>2020-06-12T05:29:52Z</time>
      </trkpt>
      <trkpt lat="49.12524" lon="-1.58959">
        <ele>3.7</ele>
        <time>2020-06-12T05:29:53Z</time>
      </trkpt>
      <trkpt lat="49.1253" lon="-1.5896">
        <ele>3.7</ele>
        <time>2020-06-12T05:29:54Z</time>
      </trkpt>
      <trkpt lat="49.12536" lon="-1.58961">
        <ele>3.7</ele>
        <time>2020-06-12T05:29:55Z</time>
      </trkpt>
      <trkpt lat="49.12541" lon="-1.58961">
        <ele>3.7</ele>
        <time>2020-06-12T05:29:56Z</time>
      </trkpt>
      <trkpt lat="49.12547" lon="-1.58961">
        <ele>3.7</ele>
        <time>2020-06-12T05:29:57Z</time>
      </trkpt>
      <trkpt lat="49.12553" lon="-1.5896">
        <ele>3.7</ele>
        <time>2020-06-12T05:29:58Z</time>
      </trkpt>
      <trkpt lat="49.12559" lon="-1.58959">
        <ele>3.7</ele>
        <time>2020-06-12T05:29:59Z</time>
      </trkpt>
      <trkpt lat="49.12565" lon="-1.58958">
        <ele>3.7</ele>
        <time>2020-06-12T05:30:00Z</time>
      </trkpt>
      <trkpt lat="49.12571" lon="-1.58958">
        <ele>3.7</ele>
        <time>2020-06-12T05:30:01Z</time>
      </trkpt>
      <trkpt lat="49.12577" lon="-1.58959">
        <ele>3.8</ele>
        <time>2020-06-12T05:30:02Z</time>
      </trkpt>
      <trkpt lat="49.12583" lon="-1.5896">
        <ele>3.8</ele>
        <time>2020-06-12T05:30:03Z</time>
      </trkpt>
      <trkpt lat="49.12589" lon="-1.58961">
        <ele>3.8</ele>
        <time>2020-06-12T05:30:04Z</time>
      </trkpt>
      <trkpt lat="49.12594" lon="-1.5896">
        <ele>3.9</ele>
        <time>2020-06-12T05:30:05Z</time>
      </trkpt>
      <trkpt lat="49.12599" lon="-1.5896">
        <ele>4</ele>
        <time>2020-06-12T05:30:06Z</time>
      </trkpt>
      <trkpt lat="49.12605" lon="-1.5896">
        <ele>4</ele>
        <time>2020-06-12T05:30:07Z</time>
      </trkpt>
      <trkpt lat="49.1261" lon="-1.5896">
        <ele>4.2</ele>
        <time>2020-06-12T05:30:08Z</time>
      </trkpt>
      <trkpt lat="49.12615" lon="-1.58959">
        <ele>4.3</ele>
        <time>2020-06-12T05:30:09Z</time>
      </trkpt>
      <trkpt lat="49.12621" lon="-1.58959">
        <ele>4.6</ele>
        <time>2020-06-12T05:30:10Z</time>
      </trkpt>
      <trkpt lat="49.12626" lon="-1.5896">
        <ele>4.5</ele>
        <time>2020-06-12T05:30:11Z</time>
      </trkpt>
      <trkpt lat="49.12632" lon="-1.5896">
        <ele>4.5</ele>
        <time>2020-06-12T05:30:12Z</time>
      </trkpt>
      <trkpt lat="49.12638" lon="-1.58961">
        <ele>4.5</ele>
        <time>2020-06-12T05:30:13Z</time>
      </trkpt>
      <trkpt lat="49.12644" lon="-1.58961">
        <ele>4.5</ele>
        <time>2020-06-12T05:30:14Z</time>
      </trkpt>
      <trkpt lat="49.12649" lon="-1.58961">
        <ele>4.5</ele>
        <time>2020-06-12T05:30:15Z</time>
      </trkpt>
      <trkpt lat="49.12654" lon="-1.58962">
        <ele>4.6</ele>
        <time>2020-06-12T05:30:16Z</time>
      </trkpt>
      <trkpt lat="49.12658" lon="-1.58963">
        <ele>4.6</ele>
        <time>2020-06-12T05:30:17Z</time>
      </trkpt>
      <trkpt lat="49.12662" lon="-1.58962">
        <ele>4.7</ele>
        <time>2020-06-12T05:30:18Z</time>
      </trkpt>
      <trkpt lat="49.12667" lon="-1.58962">
        <ele>4.7</ele>
        <time>2020-06-12T05:30:19Z</time>
      </trkpt>
      <trkpt lat="49.12672" lon="-1.58963">
        <ele>4.8</ele>
        <time>2020-06-12T05:30:20Z</time>
      </trkpt>
      <trkpt lat="49.12677" lon="-1.58965">
        <ele>4.8</ele>
        <time>2020-06-12T05:30:21Z</time>
      </trkpt>
      <trkpt lat="49.12682" lon="-1.58966">
        <ele>4.9</ele>
        <time>2020-06-12T05:30:22Z</time>
      </trkpt>
      <trkpt lat="49.12687" lon="-1.58966">
        <ele>4.9</ele>
        <time>2020-06-12T05:30:23Z</time>
      </trkpt>
      <trkpt lat="49.12692" lon="-1.58967">
        <ele>4.9</ele>
        <time>2020-06-12T05:30:24Z</time>
      </trkpt>
      <trkpt lat="49.12696" lon="-1.5897">
        <ele>5</ele>
        <time>2020-06-12T05:30:25Z</time>
      </trkpt>
      <trkpt lat="49.127" lon="-1.58971">
        <ele>5</ele>
        <time>2020-06-12T05:30:26Z</time>
      </trkpt>
      <trkpt lat="49.12704" lon="-1.58972">
        <ele>5</ele>
        <time>2020-06-12T05:30:27Z</time>
      </trkpt>
      <trkpt lat="49.12709" lon="-1.58973">
        <ele>5</ele>
        <time>2020-06-12T05:30:28Z</time>
      </trkpt>
      <trkpt lat="49.12716" lon="-1.58974">
        <ele>5</ele>
        <time>2020-06-12T05:30:29Z</time>
      </trkpt>
      <trkpt lat="49.12722" lon="-1.58974">
        <ele>5</ele>
        <time>2020-06-12T05:30:30Z</time>
      </trkpt>
      <trkpt lat="49.12727" lon="-1.58976">
        <ele>5.1</ele>
        <time>2020-06-12T05:30:31Z</time>
      </trkpt>
      <trkpt lat="49.12733" lon="-1.58977">
        <ele>5.1</ele>
        <time>2020-06-12T05:30:32Z</time>
      </trkpt>
      <trkpt lat="49.12739" lon="-1.58978">
        <ele>5.1</ele>
        <time>2020-06-12T05:30:33Z</time>
      </trkpt>
      <trkpt lat="49.12745" lon="-1.58978">
        <ele>5.1</ele>
        <time>2020-06-12T05:30:34Z</time>
      </trkpt>
      <trkpt lat="49.12751" lon="-1.58979">
        <ele>5.1</ele>
        <time>2020-06-12T05:30:35Z</time>
      </trkpt>
      <trkpt lat="49.12755" lon="-1.58981">
        <ele>5.1</ele>
        <time>2020-06-12T05:30:36Z</time>
      </trkpt>
      <trkpt lat="49.12762" lon="-1.5898">
        <ele>5.1</ele>
        <time>2020-06-12T05:30:37Z</time>
      </trkpt>
      <trkpt lat="49.12768" lon="-1.5898">
        <ele>5.1</ele>
        <time>2020-06-12T05:30:38Z</time>
      </trkpt>
      <trkpt lat="49.12774" lon="-1.58982">
        <ele>5.2</ele>
        <time>2020-06-12T05:30:39Z</time>
      </trkpt>
      <trkpt lat="49.12778" lon="-1.58984">
        <ele>5.2</ele>
        <time>2020-06-12T05:30:40Z</time>
      </trkpt>
      <trkpt lat="49.12783" lon="-1.58986">
        <ele>5.2</ele>
        <time>2020-06-12T05:30:41Z</time>
      </trkpt>
      <trkpt lat="49.12788" lon="-1.58989">
        <ele>5.3</ele>
        <time>2020-06-12T05:30:42Z</time>
      </trkpt>
      <trkpt lat="49.12793" lon="-1.58992">
        <ele>5.3</ele>
        <time>2020-06-12T05:30:43Z</time>
      </trkpt>
      <trkpt lat="49.12799" lon="-1.58994">
        <ele>5.4</ele>
        <time>2020-06-12T05:30:44Z</time>
      </trkpt>
      <trkpt lat="49.12804" lon="-1.58996">
        <ele>5.4</ele>
        <time>2020-06-12T05:30:45Z</time>
      </trkpt>
      <trkpt lat="49.12809" lon="-1.58997">
        <ele>5.5</ele>
        <time>2020-06-12T05:30:46Z</time>
      </trkpt>
      <trkpt lat="49.12814" lon="-1.58999">
        <ele>5.5</ele>
        <time>2020-06-12T05:30:47Z</time>
      </trkpt>
      <trkpt lat="49.12819" lon="-1.59002">
        <ele>5.5</ele>
        <time>2020-06-12T05:30:48Z</time>
      </trkpt>
      <trkpt lat="49.12823" lon="-1.59004">
        <ele>5.5</ele>
        <time>2020-06-12T05:30:49Z</time>
      </trkpt>
      <trkpt lat="49.12828" lon="-1.59005">
        <ele>5.5</ele>
        <time>2020-06-12T05:30:50Z</time>
      </trkpt>
      <trkpt lat="49.12833" lon="-1.59008">
        <ele>5.5</ele>
        <time>2020-06-12T05:30:51Z</time>
      </trkpt>
      <trkpt lat="49.12839" lon="-1.5901">
        <ele>5.6</ele>
        <time>2020-06-12T05:30:52Z</time>
      </trkpt>
      <trkpt lat="49.12844" lon="-1.59011">
        <ele>5.6</ele>
        <time>2020-06-12T05:30:53Z</time>
      </trkpt>
      <trkpt lat="49.12849" lon="-1.59013">
        <ele>5.6</ele>
        <time>2020-06-12T05:30:54Z</time>
      </trkpt>
      <trkpt lat="49.12854" lon="-1.59014">
        <ele>5.7</ele>
        <time>2020-06-12T05:30:55Z</time>
      </trkpt>
      <trkpt lat="49.12859" lon="-1.59016">
        <ele>5.7</ele>
        <time>2020-06-12T05:30:56Z</time>
      </trkpt>
      <trkpt lat="49.12864" lon="-1.59017">
        <ele>5.7</ele>
        <time>2020-06-12T05:30:57Z</time>
      </trkpt>
      <trkpt lat="49.12866" lon="-1.5902">
        <ele>5.7</ele>
        <time>2020-06-12T05:30:58Z</time>
      </trkpt>
      <trkpt lat="49.12872" lon="-1.5902">
        <ele>5.7</ele>
        <time>2020-06-12T05:30:59Z</time>
      </trkpt>
      <trkpt lat="49.12875" lon="-1.59022">
        <ele>5.7</ele>
        <time>2020-06-12T05:31:00Z</time>
      </trkpt>
      <trkpt lat="49.12878" lon="-1.59025">
        <ele>5.8</ele>
        <time>2020-06-12T05:31:01Z</time>
      </trkpt>
      <trkpt lat="49.12882" lon="-1.59028">
        <ele>5.8</ele>
        <time>2020-06-12T05:31:02Z</time>
      </trkpt>
      <trkpt lat="49.12887" lon="-1.59029">
        <ele>5.9</ele>
        <time>2020-06-12T05:31:03Z</time>
      </trkpt>
      <trkpt lat="49.12891" lon="-1.5903">
        <ele>5.9</ele>
        <time>2020-06-12T05:31:04Z</time>
      </trkpt>
      <trkpt lat="49.12894" lon="-1.59031">
        <ele>6</ele>
        <time>2020-06-12T05:31:05Z</time>
      </trkpt>
      <trkpt lat="49.12898" lon="-1.59033">
        <ele>6</ele>
        <time>2020-06-12T05:31:06Z</time>
      </trkpt>
      <trkpt lat="49.12901" lon="-1.59033">
        <ele>6</ele>
        <time>2020-06-12T05:31:07Z</time>
      </trkpt>
      <trkpt lat="49.12905" lon="-1.59035">
        <ele>6.1</ele>
        <time>2020-06-12T05:31:08Z</time>
      </trkpt>
      <trkpt lat="49.12908" lon="-1.59036">
        <ele>6.1</ele>
        <time>2020-06-12T05:31:09Z</time>
      </trkpt>
      <trkpt lat="49.12911" lon="-1.59038">
        <ele>6.2</ele>
        <time>2020-06-12T05:31:10Z</time>
      </trkpt>
      <trkpt lat="49.12914" lon="-1.5904">
        <ele>6.1</ele>
        <time>2020-06-12T05:31:11Z</time>
      </trkpt>
      <trkpt lat="49.12917" lon="-1.59041">
        <ele>6.1</ele>
        <time>2020-06-12T05:31:12Z</time>
      </trkpt>
      <trkpt lat="49.1292" lon="-1.5904">
        <ele>6</ele>
        <time>2020-06-12T05:31:13Z</time>
      </trkpt>
      <trkpt lat="49.12921" lon="-1.59039">
        <ele>6</ele>
        <time>2020-06-12T05:31:14Z</time>
      </trkpt>
      <trkpt lat="49.12923" lon="-1.59038">
        <ele>6</ele>
        <time>2020-06-12T05:31:15Z</time>
      </trkpt>
      <trkpt lat="49.12924" lon="-1.5904">
        <ele>6</ele>
        <time>2020-06-12T05:31:16Z</time>
      </trkpt>
      <trkpt lat="49.12925" lon="-1.59041">
        <ele>6</ele>
        <time>2020-06-12T05:31:17Z</time>
      </trkpt>
      <trkpt lat="49.12925" lon="-1.59041">
        <ele>6</ele>
        <time>2020-06-12T05:31:18Z</time>
      </trkpt>
      <trkpt lat="49.12925" lon="-1.59041">
        <ele>6</ele>
        <time>2020-06-12T05:31:19Z</time>
      </trkpt>
      <trkpt lat="49.12925" lon="-1.59041">
        <ele>6</ele>
        <time>2020-06-12T05:31:20Z</time>
      </trkpt>
      <trkpt lat="49.12925" lon="-1.59042">
        <ele>6</ele>
        <time>2020-06-12T05:31:21Z</time>
      </trkpt>
      <trkpt lat="49.12925" lon="-1.59042">
        <ele>6</ele>
        <time>2020-06-12T05:31:22Z</time>
      </trkpt>
      <trkpt lat="49.12926" lon="-1.59042">
        <ele>6</ele>
        <time>2020-06-12T05:31:23Z</time>
      </trkpt>
      <trkpt lat="49.12925" lon="-1.59042">
        <ele>6</ele>
        <time>2020-06-12T05:31:24Z</time>
      </trkpt>
      <trkpt lat="49.12926" lon="-1.59041">
        <ele>6</ele>
        <time>2020-06-12T05:31:25Z</time>
      </trkpt>
      <trkpt lat="49.12926" lon="-1.59041">
        <ele>6</ele>
        <time>2020-06-12T05:31:26Z</time>
      </trkpt>
      <trkpt lat="49.12926" lon="-1.5904">
        <ele>6</ele>
        <time>2020-06-12T05:31:27Z</time>
      </trkpt>
      <trkpt lat="49.12926" lon="-1.5904">
        <ele>6</ele>
        <time>2020-06-12T05:31:28Z</time>
      </trkpt>
      <trkpt lat="49.12922" lon="-1.59033">
        <ele>5.9</ele>
        <time>2020-06-12T05:34:49Z</time>
      </trkpt>
      <trkpt lat="49.1292" lon="-1.59033">
        <ele>5.9</ele>
        <time>2020-06-12T05:34:50Z</time>
      </trkpt>
      <trkpt lat="49.12919" lon="-1.59033">
        <ele>5.9</ele>
        <time>2020-06-12T05:34:51Z</time>
      </trkpt>
      <trkpt lat="49.12918" lon="-1.59032">
        <ele>5.8</ele>
        <time>2020-06-12T05:34:52Z</time>
      </trkpt>
      <trkpt lat="49.12917" lon="-1.59031">
        <ele>5.8</ele>
        <time>2020-06-12T05:34:53Z</time>
      </trkpt>
      <trkpt lat="49.12917" lon="-1.59031">
        <ele>5.8</ele>
        <time>2020-06-12T05:34:54Z</time>
      </trkpt>
      <trkpt lat="49.12917" lon="-1.59032">
        <ele>5.8</ele>
        <time>2020-06-12T05:34:55Z</time>
      </trkpt>
      <trkpt lat="49.12917" lon="-1.59033">
        <ele>5.8</ele>
        <time>2020-06-12T05:34:56Z</time>
      </trkpt>
      <trkpt lat="49.12917" lon="-1.59034">
        <ele>5.8</ele>
        <time>2020-06-12T05:34:57Z</time>
      </trkpt>
      <trkpt lat="49.12916" lon="-1.59035">
        <ele>5.8</ele>
        <time>2020-06-12T05:34:58Z</time>
      </trkpt>
      <trkpt lat="49.12916" lon="-1.59036">
        <ele>5.8</ele>
        <time>2020-06-12T05:34:59Z</time>
      </trkpt>
      <trkpt lat="49.12916" lon="-1.59036">
        <ele>5.8</ele>
        <time>2020-06-12T05:35:00Z</time>
      </trkpt>
      <trkpt lat="49.12916" lon="-1.59037">
        <ele>5.8</ele>
        <time>2020-06-12T05:35:01Z</time>
      </trkpt>
      <trkpt lat="49.12916" lon="-1.59038">
        <ele>5.8</ele>
        <time>2020-06-12T05:35:02Z</time>
      </trkpt>
      <trkpt lat="49.12916" lon="-1.59039">
        <ele>5.8</ele>
        <time>2020-06-12T05:35:03Z</time>
      </trkpt>
      <trkpt lat="49.12915" lon="-1.5904">
        <ele>5.8</ele>
        <time>2020-06-12T05:35:08Z</time>
      </trkpt>
      <trkpt lat="49.12915" lon="-1.59041">
        <ele>5.8</ele>
        <time>2020-06-12T05:35:09Z</time>
      </trkpt>
      <trkpt lat="49.12916" lon="-1.59046">
        <ele>5.8</ele>
        <time>2020-06-12T05:35:10Z</time>
      </trkpt>
      <trkpt lat="49.12916" lon="-1.59047">
        <ele>5.8</ele>
        <time>2020-06-12T05:35:11Z</time>
      </trkpt>
      <trkpt lat="49.12918" lon="-1.59051">
        <ele>5.7</ele>
        <time>2020-06-12T05:35:12Z</time>
      </trkpt>
      <trkpt lat="49.12918" lon="-1.59053">
        <ele>5.7</ele>
        <time>2020-06-12T05:35:13Z</time>
      </trkpt>
      <trkpt lat="49.12919" lon="-1.59053">
        <ele>5.7</ele>
        <time>2020-06-12T05:35:14Z</time>
      </trkpt>
      <trkpt lat="49.12919" lon="-1.59054">
        <ele>5.7</ele>
        <time>2020-06-12T05:35:15Z</time>
      </trkpt>
      <trkpt lat="49.12919" lon="-1.59054">
        <ele>5.7</ele>
        <time>2020-06-12T05:35:16Z</time>
      </trkpt>
      <trkpt lat="49.12919" lon="-1.59054">
        <ele>5.7</ele>
        <time>2020-06-12T05:35:17Z</time>
      </trkpt>
      <trkpt lat="49.12919" lon="-1.59054">
        <ele>5.7</ele>
        <time>2020-06-12T05:35:18Z</time>
      </trkpt>
      <trkpt lat="49.12919" lon="-1.59055">
        <ele>5.7</ele>
        <time>2020-06-12T05:35:19Z</time>
      </trkpt>
      <trkpt lat="49.12919" lon="-1.59054">
        <ele>5.7</ele>
        <time>2020-06-12T05:35:20Z</time>
      </trkpt>
      <trkpt lat="49.12919" lon="-1.59055">
        <ele>5.7</ele>
        <time>2020-06-12T05:35:21Z</time>
      </trkpt>
      <trkpt lat="49.12919" lon="-1.59055">
        <ele>5.7</ele>
        <time>2020-06-12T05:35:22Z</time>
      </trkpt>
      <trkpt lat="49.12919" lon="-1.59053">
        <ele>5.7</ele>
        <time>2020-06-12T05:35:23Z</time>
      </trkpt>
      <trkpt lat="49.12919" lon="-1.59051">
        <ele>5.7</ele>
        <time>2020-06-12T05:35:24Z</time>
      </trkpt>
      <trkpt lat="49.1292" lon="-1.5905">
        <ele>5.7</ele>
        <time>2020-06-12T05:35:25Z</time>
      </trkpt>
      <trkpt lat="49.1292" lon="-1.59049">
        <ele>5.7</ele>
        <time>2020-06-12T05:35:26Z</time>
      </trkpt>
      <trkpt lat="49.12921" lon="-1.59047">
        <ele>5.7</ele>
        <time>2020-06-12T05:35:27Z</time>
      </trkpt>
      <trkpt lat="49.12922" lon="-1.59045">
        <ele>5.6</ele>
        <time>2020-06-12T05:35:28Z</time>
      </trkpt>
      <trkpt lat="49.12923" lon="-1.59044">
        <ele>5.6</ele>
        <time>2020-06-12T05:35:29Z</time>
      </trkpt>
      <trkpt lat="49.12923" lon="-1.59042">
        <ele>5.6</ele>
        <time>2020-06-12T05:35:30Z</time>
      </trkpt>
      <trkpt lat="49.12924" lon="-1.59042">
        <ele>5.6</ele>
        <time>2020-06-12T05:35:31Z</time>
      </trkpt>
      <trkpt lat="49.12924" lon="-1.59041">
        <ele>5.6</ele>
        <time>2020-06-12T05:35:32Z</time>
      </trkpt>
      <trkpt lat="49.12925" lon="-1.59042">
        <ele>5.6</ele>
        <time>2020-06-12T05:35:33Z</time>
      </trkpt>
      <trkpt lat="49.12925" lon="-1.59042">
        <ele>5.6</ele>
        <time>2020-06-12T05:35:34Z</time>
      </trkpt>
      <trkpt lat="49.12926" lon="-1.59042">
        <ele>5.6</ele>
        <time>2020-06-12T05:35:35Z</time>
      </trkpt>
      <trkpt lat="49.12927" lon="-1.59043">
        <ele>5.6</ele>
        <time>2020-06-12T05:35:36Z</time>
      </trkpt>
      <trkpt lat="49.12928" lon="-1.59043">
        <ele>5.6</ele>
        <time>2020-06-12T05:35:37Z</time>
      </trkpt>
      <trkpt lat="49.12928" lon="-1.59043">
        <ele>5.6</ele>
        <time>2020-06-12T05:35:38Z</time>
      </trkpt>
      <trkpt lat="49.12929" lon="-1.59044">
        <ele>5.6</ele>
        <time>2020-06-12T05:35:39Z</time>
      </trkpt>
      <trkpt lat="49.1293" lon="-1.59044">
        <ele>5.6</ele>
        <time>2020-06-12T05:35:40Z</time>
      </trkpt>
      <trkpt lat="49.1293" lon="-1.59044">
        <ele>5.6</ele>
        <time>2020-06-12T05:35:41Z</time>
      </trkpt>
      <trkpt lat="49.12931" lon="-1.59045">
        <ele>5.6</ele>
        <time>2020-06-12T05:36:53Z</time>
      </trkpt>
      <trkpt lat="49.12932" lon="-1.59045">
        <ele>5.6</ele>
        <time>2020-06-12T05:36:54Z</time>
      </trkpt>
      <trkpt lat="49.12934" lon="-1.59047">
        <ele>5.6</ele>
        <time>2020-06-12T05:36:55Z</time>
      </trkpt>
      <trkpt lat="49.12937" lon="-1.59049">
        <ele>5.6</ele>
        <time>2020-06-12T05:36:56Z</time>
      </trkpt>
      <trkpt lat="49.12941" lon="-1.59052">
        <ele>5.6</ele>
        <time>2020-06-12T05:36:57Z</time>
      </trkpt>
      <trkpt lat="49.12944" lon="-1.59053">
        <ele>5.6</ele>
        <time>2020-06-12T05:36:58Z</time>
      </trkpt>
      <trkpt lat="49.12947" lon="-1.59054">
        <ele>5.6</ele>
        <time>2020-06-12T05:36:59Z</time>
      </trkpt>
      <trkpt lat="49.12951" lon="-1.59056">
        <ele>5.6</ele>
        <time>2020-06-12T05:37:00Z</time>
      </trkpt>
      <trkpt lat="49.12956" lon="-1.59058">
        <ele>5.6</ele>
        <time>2020-06-12T05:37:01Z</time>
      </trkpt>
      <trkpt lat="49.12961" lon="-1.59061">
        <ele>5.6</ele>
        <time>2020-06-12T05:37:02Z</time>
      </trkpt>
      <trkpt lat="49.12966" lon="-1.59063">
        <ele>5.6</ele>
        <time>2020-06-12T05:37:03Z</time>
      </trkpt>
      <trkpt lat="49.12971" lon="-1.59066">
        <ele>5.6</ele>
        <time>2020-06-12T05:37:04Z</time>
      </trkpt>
      <trkpt lat="49.12976" lon="-1.59067">
        <ele>5.6</ele>
        <time>2020-06-12T05:37:05Z</time>
      </trkpt>
      <trkpt lat="49.12981" lon="-1.59068">
        <ele>5.6</ele>
        <time>2020-06-12T05:37:06Z</time>
      </trkpt>
      <trkpt lat="49.12986" lon="-1.59071">
        <ele>5.6</ele>
        <time>2020-06-12T05:37:07Z</time>
      </trkpt>
      <trkpt lat="49.12991" lon="-1.59072">
        <ele>5.6</ele>
        <time>2020-06-12T05:37:08Z</time>
      </trkpt>
      <trkpt lat="49.12996" lon="-1.59073">
        <ele>5.6</ele>
        <time>2020-06-12T05:37:09Z</time>
      </trkpt>
      <trkpt lat="49.13001" lon="-1.59076">
        <ele>5.7</ele>
        <time>2020-06-12T05:37:10Z</time>
      </trkpt>
      <trkpt lat="49.13007" lon="-1.59078">
        <ele>5.7</ele>
        <time>2020-06-12T05:37:11Z</time>
      </trkpt>
      <trkpt lat="49.13012" lon="-1.59079">
        <ele>5.7</ele>
        <time>2020-06-12T05:37:12Z</time>
      </trkpt>
      <trkpt lat="49.13017" lon="-1.59081">
        <ele>5.7</ele>
        <time>2020-06-12T05:37:13Z</time>
      </trkpt>
      <trkpt lat="49.13024" lon="-1.59084">
        <ele>5.8</ele>
        <time>2020-06-12T05:37:14Z</time>
      </trkpt>
      <trkpt lat="49.13029" lon="-1.59086">
        <ele>5.8</ele>
        <time>2020-06-12T05:37:15Z</time>
      </trkpt>
      <trkpt lat="49.13034" lon="-1.59089">
        <ele>5.8</ele>
        <time>2020-06-12T05:37:16Z</time>
      </trkpt>
      <trkpt lat="49.1304" lon="-1.59092">
        <ele>5.8</ele>
        <time>2020-06-12T05:37:17Z</time>
      </trkpt>
      <trkpt lat="49.13045" lon="-1.59095">
        <ele>5.9</ele>
        <time>2020-06-12T05:37:18Z</time>
      </trkpt>
      <trkpt lat="49.13051" lon="-1.59098">
        <ele>5.9</ele>
        <time>2020-06-12T05:37:19Z</time>
      </trkpt>
      <trkpt lat="49.13057" lon="-1.591">
        <ele>5.9</ele>
        <time>2020-06-12T05:37:20Z</time>
      </trkpt>
      <trkpt lat="49.13063" lon="-1.59102">
        <ele>6</ele>
        <time>2020-06-12T05:37:21Z</time>
      </trkpt>
      <trkpt lat="49.13069" lon="-1.59105">
        <ele>6</ele>
        <time>2020-06-12T05:37:22Z</time>
      </trkpt>
      <trkpt lat="49.13074" lon="-1.59108">
        <ele>6.1</ele>
        <time>2020-06-12T05:37:23Z</time>
      </trkpt>
      <trkpt lat="49.13079" lon="-1.59111">
        <ele>6.1</ele>
        <time>2020-06-12T05:37:24Z</time>
      </trkpt>
      <trkpt lat="49.13084" lon="-1.59113">
        <ele>6.2</ele>
        <time>2020-06-12T05:37:25Z</time>
      </trkpt>
      <trkpt lat="49.1309" lon="-1.59116">
        <ele>6.2</ele>
        <time>2020-06-12T05:37:26Z</time>
      </trkpt>
      <trkpt lat="49.13095" lon="-1.59118">
        <ele>6.2</ele>
        <time>2020-06-12T05:37:27Z</time>
      </trkpt>
      <trkpt lat="49.131" lon="-1.59121">
        <ele>6.3</ele>
        <time>2020-06-12T05:37:28Z</time>
      </trkpt>
      <trkpt lat="49.13105" lon="-1.59123">
        <ele>6.3</ele>
        <time>2020-06-12T05:37:29Z</time>
      </trkpt>
      <trkpt lat="49.1311" lon="-1.59125">
        <ele>6.3</ele>
        <time>2020-06-12T05:37:30Z</time>
      </trkpt>
      <trkpt lat="49.13116" lon="-1.59126">
        <ele>6.4</ele>
        <time>2020-06-12T05:37:31Z</time>
      </trkpt>
      <trkpt lat="49.13121" lon="-1.59128">
        <ele>6.4</ele>
        <time>2020-06-12T05:37:32Z</time>
      </trkpt>
      <trkpt lat="49.13126" lon="-1.5913">
        <ele>6.4</ele>
        <time>2020-06-12T05:37:33Z</time>
      </trkpt>
      <trkpt lat="49.13131" lon="-1.59132">
        <ele>6.5</ele>
        <time>2020-06-12T05:37:34Z</time>
      </trkpt>
      <trkpt lat="49.13136" lon="-1.59134">
        <ele>6.5</ele>
        <time>2020-06-12T05:37:35Z</time>
      </trkpt>
      <trkpt lat="49.13142" lon="-1.59136">
        <ele>6.6</ele>
        <time>2020-06-12T05:37:36Z</time>
      </trkpt>
      <trkpt lat="49.13148" lon="-1.59137">
        <ele>6.6</ele>
        <time>2020-06-12T05:37:37Z</time>
      </trkpt>
      <trkpt lat="49.13153" lon="-1.59139">
        <ele>6.7</ele>
        <time>2020-06-12T05:37:38Z</time>
      </trkpt>
      <trkpt lat="49.13158" lon="-1.5914">
        <ele>6.7</ele>
        <time>2020-06-12T05:37:39Z</time>
      </trkpt>
      <trkpt lat="49.13163" lon="-1.59142">
        <ele>6.8</ele>
        <time>2020-06-12T05:37:40Z</time>
      </trkpt>
      <trkpt lat="49.13169" lon="-1.59143">
        <ele>6.8</ele>
        <time>2020-06-12T05:37:41Z</time>
      </trkpt>
      <trkpt lat="49.13174" lon="-1.59144">
        <ele>6.8</ele>
        <time>2020-06-12T05:37:42Z</time>
      </trkpt>
      <trkpt lat="49.1318" lon="-1.59146">
        <ele>6.9</ele>
        <time>2020-06-12T05:37:43Z</time>
      </trkpt>
      <trkpt lat="49.13185" lon="-1.59148">
        <ele>6.9</ele>
        <time>2020-06-12T05:37:44Z</time>
      </trkpt>
      <trkpt lat="49.1319" lon="-1.59149">
        <ele>7</ele>
        <time>2020-06-12T05:37:45Z</time>
      </trkpt>
      <trkpt lat="49.13196" lon="-1.59151">
        <ele>7</ele>
        <time>2020-06-12T05:37:46Z</time>
      </trkpt>
      <trkpt lat="49.13201" lon="-1.59151">
        <ele>7.1</ele>
        <time>2020-06-12T05:37:47Z</time>
      </trkpt>
      <trkpt lat="49.13206" lon="-1.59153">
        <ele>7.1</ele>
        <time>2020-06-12T05:37:48Z</time>
      </trkpt>
      <trkpt lat="49.13211" lon="-1.59154">
        <ele>7.2</ele>
        <time>2020-06-12T05:37:49Z</time>
      </trkpt>
      <trkpt lat="49.13216" lon="-1.59155">
        <ele>7.3</ele>
        <time>2020-06-12T05:37:50Z</time>
      </trkpt>
      <trkpt lat="49.13221" lon="-1.59155">
        <ele>7.4</ele>
        <time>2020-06-12T05:37:51Z</time>
      </trkpt>
      <trkpt lat="49.13226" lon="-1.59155">
        <ele>7.5</ele>
        <time>2020-06-12T05:37:52Z</time>
      </trkpt>
      <trkpt lat="49.13231" lon="-1.59156">
        <ele>7.7</ele>
        <time>2020-06-12T05:37:53Z</time>
      </trkpt>
      <trkpt lat="49.13237" lon="-1.59156">
        <ele>7.9</ele>
        <time>2020-06-12T05:37:54Z</time>
      </trkpt>
      <trkpt lat="49.13243" lon="-1.59156">
        <ele>8.1</ele>
        <time>2020-06-12T05:37:55Z</time>
      </trkpt>
      <trkpt lat="49.13248" lon="-1.59157">
        <ele>8.3</ele>
        <time>2020-06-12T05:37:56Z</time>
      </trkpt>
      <trkpt lat="49.13253" lon="-1.59157">
        <ele>8.3</ele>
        <time>2020-06-12T05:37:57Z</time>
      </trkpt>
      <trkpt lat="49.13258" lon="-1.59158">
        <ele>8.3</ele>
        <time>2020-06-12T05:37:58Z</time>
      </trkpt>
      <trkpt lat="49.13263" lon="-1.59158">
        <ele>8.3</ele>
        <time>2020-06-12T05:37:59Z</time>
      </trkpt>
      <trkpt lat="49.13268" lon="-1.59159">
        <ele>8.3</ele>
        <time>2020-06-12T05:38:00Z</time>
      </trkpt>
      <trkpt lat="49.13274" lon="-1.59159">
        <ele>8.4</ele>
        <time>2020-06-12T05:38:01Z</time>
      </trkpt>
      <trkpt lat="49.1328" lon="-1.59159">
        <ele>8.4</ele>
        <time>2020-06-12T05:38:02Z</time>
      </trkpt>
      <trkpt lat="49.13285" lon="-1.5916">
        <ele>8.5</ele>
        <time>2020-06-12T05:38:03Z</time>
      </trkpt>
      <trkpt lat="49.13291" lon="-1.5916">
        <ele>8.5</ele>
        <time>2020-06-12T05:38:04Z</time>
      </trkpt>
      <trkpt lat="49.13295" lon="-1.5916">
        <ele>8.6</ele>
        <time>2020-06-12T05:38:05Z</time>
      </trkpt>
      <trkpt lat="49.133" lon="-1.59161">
        <ele>8.6</ele>
        <time>2020-06-12T05:38:06Z</time>
      </trkpt>
      <trkpt lat="49.13306" lon="-1.59161">
        <ele>8.6</ele>
        <time>2020-06-12T05:38:07Z</time>
      </trkpt>
      <trkpt lat="49.13311" lon="-1.59161">
        <ele>8.7</ele>
        <time>2020-06-12T05:38:08Z</time>
      </trkpt>
      <trkpt lat="49.13316" lon="-1.59162">
        <ele>8.7</ele>
        <time>2020-06-12T05:38:09Z</time>
      </trkpt>
      <trkpt lat="49.13322" lon="-1.59162">
        <ele>8.7</ele>
        <time>2020-06-12T05:38:10Z</time>
      </trkpt>
      <trkpt lat="49.13328" lon="-1.59162">
        <ele>8.7</ele>
        <time>2020-06-12T05:38:11Z</time>
      </trkpt>
      <trkpt lat="49.13334" lon="-1.59162">
        <ele>8.8</ele>
        <time>2020-06-12T05:38:12Z</time>
      </trkpt>
      <trkpt lat="49.13338" lon="-1.59161">
        <ele>8.8</ele>
        <time>2020-06-12T05:38:13Z</time>
      </trkpt>
      <trkpt lat="49.13343" lon="-1.5916">
        <ele>8.8</ele>
        <time>2020-06-12T05:38:14Z</time>
      </trkpt>
      <trkpt lat="49.13348" lon="-1.59161">
        <ele>8.9</ele>
        <time>2020-06-12T05:38:15Z</time>
      </trkpt>
      <trkpt lat="49.13353" lon="-1.5916">
        <ele>8.9</ele>
        <time>2020-06-12T05:38:16Z</time>
      </trkpt>
      <trkpt lat="49.13359" lon="-1.59161">
        <ele>9</ele>
        <time>2020-06-12T05:38:17Z</time>
      </trkpt>
      <trkpt lat="49.13364" lon="-1.5916">
        <ele>9</ele>
        <time>2020-06-12T05:38:18Z</time>
      </trkpt>
      <trkpt lat="49.13369" lon="-1.59161">
        <ele>9.1</ele>
        <time>2020-06-12T05:38:19Z</time>
      </trkpt>
      <trkpt lat="49.13374" lon="-1.59161">
        <ele>9.1</ele>
        <time>2020-06-12T05:38:20Z</time>
      </trkpt>
      <trkpt lat="49.13379" lon="-1.5916">
        <ele>9.1</ele>
        <time>2020-06-12T05:38:21Z</time>
      </trkpt>
      <trkpt lat="49.13384" lon="-1.59159">
        <ele>9.1</ele>
        <time>2020-06-12T05:38:22Z</time>
      </trkpt>
      <trkpt lat="49.1339" lon="-1.59159">
        <ele>9.2</ele>
        <time>2020-06-12T05:38:23Z</time>
      </trkpt>
      <trkpt lat="49.13395" lon="-1.59159">
        <ele>9.2</ele>
        <time>2020-06-12T05:38:24Z</time>
      </trkpt>
      <trkpt lat="49.13401" lon="-1.59159">
        <ele>9.2</ele>
        <time>2020-06-12T05:38:25Z</time>
      </trkpt>
      <trkpt lat="49.13407" lon="-1.59159">
        <ele>9.2</ele>
        <time>2020-06-12T05:38:26Z</time>
      </trkpt>
      <trkpt lat="49.13412" lon="-1.59158">
        <ele>9.2</ele>
        <time>2020-06-12T05:38:27Z</time>
      </trkpt>
      <trkpt lat="49.13417" lon="-1.59158">
        <ele>9.2</ele>
        <time>2020-06-12T05:38:28Z</time>
      </trkpt>
      <trkpt lat="49.13423" lon="-1.59157">
        <ele>9.2</ele>
        <time>2020-06-12T05:38:29Z</time>
      </trkpt>
      <trkpt lat="49.13429" lon="-1.59156">
        <ele>9.2</ele>
        <time>2020-06-12T05:38:30Z</time>
      </trkpt>
      <trkpt lat="49.13434" lon="-1.59156">
        <ele>9.3</ele>
        <time>2020-06-12T05:38:31Z</time>
      </trkpt>
      <trkpt lat="49.1344" lon="-1.59156">
        <ele>9.3</ele>
        <time>2020-06-12T05:38:32Z</time>
      </trkpt>
      <trkpt lat="49.13445" lon="-1.59155">
        <ele>9.4</ele>
        <time>2020-06-12T05:38:33Z</time>
      </trkpt>
      <trkpt lat="49.13451" lon="-1.59154">
        <ele>9.4</ele>
        <time>2020-06-12T05:38:34Z</time>
      </trkpt>
      <trkpt lat="49.13456" lon="-1.59152">
        <ele>9.4</ele>
        <time>2020-06-12T05:38:35Z</time>
      </trkpt>
      <trkpt lat="49.13461" lon="-1.59152">
        <ele>9.4</ele>
        <time>2020-06-12T05:38:36Z</time>
      </trkpt>
      <trkpt lat="49.13467" lon="-1.59151">
        <ele>9.3</ele>
        <time>2020-06-12T05:38:37Z</time>
      </trkpt>
      <trkpt lat="49.13472" lon="-1.5915">
        <ele>9.3</ele>
        <time>2020-06-12T05:38:38Z</time>
      </trkpt>
      <trkpt lat="49.13478" lon="-1.5915">
        <ele>9.3</ele>
        <time>2020-06-12T05:38:39Z</time>
      </trkpt>
      <trkpt lat="49.13483" lon="-1.5915">
        <ele>9.3</ele>
        <time>2020-06-12T05:38:40Z</time>
      </trkpt>
      <trkpt lat="49.13488" lon="-1.5915">
        <ele>9.2</ele>
        <time>2020-06-12T05:38:41Z</time>
      </trkpt>
      <trkpt lat="49.13494" lon="-1.5915">
        <ele>9.2</ele>
        <time>2020-06-12T05:38:42Z</time>
      </trkpt>
      <trkpt lat="49.13499" lon="-1.5915">
        <ele>9.2</ele>
        <time>2020-06-12T05:38:43Z</time>
      </trkpt>
      <trkpt lat="49.13504" lon="-1.5915">
        <ele>9.2</ele>
        <time>2020-06-12T05:38:44Z</time>
      </trkpt>
      <trkpt lat="49.13509" lon="-1.5915">
        <ele>9.2</ele>
        <time>2020-06-12T05:38:45Z</time>
      </trkpt>
      <trkpt lat="49.13515" lon="-1.59149">
        <ele>9.1</ele>
        <time>2020-06-12T05:38:46Z</time>
      </trkpt>
      <trkpt lat="49.13521" lon="-1.59148">
        <ele>9.1</ele>
        <time>2020-06-12T05:38:47Z</time>
      </trkpt>
      <trkpt lat="49.13526" lon="-1.59148">
        <ele>9</ele>
        <time>2020-06-12T05:38:48Z</time>
      </trkpt>
      <trkpt lat="49.13532" lon="-1.59147">
        <ele>9</ele>
        <time>2020-06-12T05:38:49Z</time>
      </trkpt>
      <trkpt lat="49.13538" lon="-1.59146">
        <ele>8.9</ele>
        <time>2020-06-12T05:38:50Z</time>
      </trkpt>
      <trkpt lat="49.13544" lon="-1.59146">
        <ele>8.9</ele>
        <time>2020-06-12T05:38:51Z</time>
      </trkpt>
      <trkpt lat="49.1355" lon="-1.59145">
        <ele>8.8</ele>
        <time>2020-06-12T05:38:52Z</time>
      </trkpt>
      <trkpt lat="49.13556" lon="-1.59145">
        <ele>8.8</ele>
        <time>2020-06-12T05:38:53Z</time>
      </trkpt>
      <trkpt lat="49.13562" lon="-1.59144">
        <ele>8.7</ele>
        <time>2020-06-12T05:38:54Z</time>
      </trkpt>
      <trkpt lat="49.13567" lon="-1.59144">
        <ele>8.7</ele>
        <time>2020-06-12T05:38:55Z</time>
      </trkpt>
      <trkpt lat="49.13573" lon="-1.59143">
        <ele>8.6</ele>
        <time>2020-06-12T05:38:56Z</time>
      </trkpt>
      <trkpt lat="49.13579" lon="-1.59142">
        <ele>8.6</ele>
        <time>2020-06-12T05:38:57Z</time>
      </trkpt>
      <trkpt lat="49.13585" lon="-1.59142">
        <ele>8.5</ele>
        <time>2020-06-12T05:38:58Z</time>
      </trkpt>
      <trkpt lat="49.13591" lon="-1.59142">
        <ele>8.5</ele>
        <time>2020-06-12T05:38:59Z</time>
      </trkpt>
      <trkpt lat="49.13597" lon="-1.59142">
        <ele>8.4</ele>
        <time>2020-06-12T05:39:00Z</time>
      </trkpt>
      <trkpt lat="49.13602" lon="-1.59141">
        <ele>8.4</ele>
        <time>2020-06-12T05:39:01Z</time>
      </trkpt>
      <trkpt lat="49.13608" lon="-1.59141">
        <ele>8.4</ele>
        <time>2020-06-12T05:39:02Z</time>
      </trkpt>
      <trkpt lat="49.13615" lon="-1.59141">
        <ele>8.3</ele>
        <time>2020-06-12T05:39:03Z</time>
      </trkpt>
      <trkpt lat="49.1362" lon="-1.59141">
        <ele>8.3</ele>
        <time>2020-06-12T05:39:04Z</time>
      </trkpt>
      <trkpt lat="49.13627" lon="-1.5914">
        <ele>8.2</ele>
        <time>2020-06-12T05:39:05Z</time>
      </trkpt>
      <trkpt lat="49.13633" lon="-1.59139">
        <ele>8.1</ele>
        <time>2020-06-12T05:39:06Z</time>
      </trkpt>
      <trkpt lat="49.1364" lon="-1.59138">
        <ele>8</ele>
        <time>2020-06-12T05:39:07Z</time>
      </trkpt>
      <trkpt lat="49.13647" lon="-1.59138">
        <ele>8</ele>
        <time>2020-06-12T05:39:08Z</time>
      </trkpt>
      <trkpt lat="49.13652" lon="-1.59137">
        <ele>7.9</ele>
        <time>2020-06-12T05:39:09Z</time>
      </trkpt>
      <trkpt lat="49.13657" lon="-1.59137">
        <ele>7.9</ele>
        <time>2020-06-12T05:39:10Z</time>
      </trkpt>
      <trkpt lat="49.13663" lon="-1.59137">
        <ele>7.8</ele>
        <time>2020-06-12T05:39:11Z</time>
      </trkpt>
      <trkpt lat="49.13669" lon="-1.59137">
        <ele>7.7</ele>
        <time>2020-06-12T05:39:12Z</time>
      </trkpt>
      <trkpt lat="49.13674" lon="-1.59136">
        <ele>7.7</ele>
        <time>2020-06-12T05:39:13Z</time>
      </trkpt>
      <trkpt lat="49.13681" lon="-1.59136">
        <ele>7.6</ele>
        <time>2020-06-12T05:39:14Z</time>
      </trkpt>
      <trkpt lat="49.13687" lon="-1.59135">
        <ele>7.5</ele>
        <time>2020-06-12T05:39:15Z</time>
      </trkpt>
      <trkpt lat="49.13693" lon="-1.59135">
        <ele>7.5</ele>
        <time>2020-06-12T05:39:16Z</time>
      </trkpt>
      <trkpt lat="49.13699" lon="-1.59135">
        <ele>7.4</ele>
        <time>2020-06-12T05:39:17Z</time>
      </trkpt>
      <trkpt lat="49.13704" lon="-1.59134">
        <ele>7.3</ele>
        <time>2020-06-12T05:39:18Z</time>
      </trkpt>
      <trkpt lat="49.1371" lon="-1.59134">
        <ele>7.3</ele>
        <time>2020-06-12T05:39:19Z</time>
      </trkpt>
      <trkpt lat="49.13716" lon="-1.59134">
        <ele>7.2</ele>
        <time>2020-06-12T05:39:20Z</time>
      </trkpt>
      <trkpt lat="49.13722" lon="-1.59133">
        <ele>7.1</ele>
        <time>2020-06-12T05:39:21Z</time>
      </trkpt>
      <trkpt lat="49.13728" lon="-1.59133">
        <ele>7.1</ele>
        <time>2020-06-12T05:39:22Z</time>
      </trkpt>
      <trkpt lat="49.13734" lon="-1.59132">
        <ele>7</ele>
        <time>2020-06-12T05:39:23Z</time>
      </trkpt>
      <trkpt lat="49.13741" lon="-1.59132">
        <ele>7</ele>
        <time>2020-06-12T05:39:24Z</time>
      </trkpt>
      <trkpt lat="49.13745" lon="-1.59132">
        <ele>6.9</ele>
        <time>2020-06-12T05:39:25Z</time>
      </trkpt>
      <trkpt lat="49.13751" lon="-1.59132">
        <ele>6.8</ele>
        <time>2020-06-12T05:39:26Z</time>
      </trkpt>
      <trkpt lat="49.13757" lon="-1.59131">
        <ele>6.7</ele>
        <time>2020-06-12T05:39:27Z</time>
      </trkpt>
      <trkpt lat="49.13765" lon="-1.59129">
        <ele>6.6</ele>
        <time>2020-06-12T05:39:28Z</time>
      </trkpt>
      <trkpt lat="49.13771" lon="-1.59129">
        <ele>6.5</ele>
        <time>2020-06-12T05:39:29Z</time>
      </trkpt>
      <trkpt lat="49.13778" lon="-1.59127">
        <ele>6.5</ele>
        <time>2020-06-12T05:39:30Z</time>
      </trkpt>
      <trkpt lat="49.13785" lon="-1.59127">
        <ele>6.4</ele>
        <time>2020-06-12T05:39:31Z</time>
      </trkpt>
      <trkpt lat="49.13791" lon="-1.59126">
        <ele>6.3</ele>
        <time>2020-06-12T05:39:32Z</time>
      </trkpt>
      <trkpt lat="49.13797" lon="-1.59125">
        <ele>6.3</ele>
        <time>2020-06-12T05:39:33Z</time>
      </trkpt>
      <trkpt lat="49.13804" lon="-1.59125">
        <ele>6.2</ele>
        <time>2020-06-12T05:39:34Z</time>
      </trkpt>
      <trkpt lat="49.13809" lon="-1.59124">
        <ele>6.1</ele>
        <time>2020-06-12T05:39:35Z</time>
      </trkpt>
      <trkpt lat="49.13815" lon="-1.59123">
        <ele>6.1</ele>
        <time>2020-06-12T05:39:36Z</time>
      </trkpt>
      <trkpt lat="49.13822" lon="-1.59122">
        <ele>6</ele>
        <time>2020-06-12T05:39:37Z</time>
      </trkpt>
      <trkpt lat="49.13828" lon="-1.59121">
        <ele>5.9</ele>
        <time>2020-06-12T05:39:38Z</time>
      </trkpt>
      <trkpt lat="49.13833" lon="-1.59121">
        <ele>5.9</ele>
        <time>2020-06-12T05:39:39Z</time>
      </trkpt>
      <trkpt lat="49.13839" lon="-1.5912">
        <ele>5.8</ele>
        <time>2020-06-12T05:39:40Z</time>
      </trkpt>
      <trkpt lat="49.13844" lon="-1.59119">
        <ele>5.8</ele>
        <time>2020-06-12T05:39:41Z</time>
      </trkpt>
      <trkpt lat="49.1385" lon="-1.59118">
        <ele>5.7</ele>
        <time>2020-06-12T05:39:42Z</time>
      </trkpt>
      <trkpt lat="49.13855" lon="-1.59116">
        <ele>5.7</ele>
        <time>2020-06-12T05:39:43Z</time>
      </trkpt>
      <trkpt lat="49.1386" lon="-1.59115">
        <ele>5.7</ele>
        <time>2020-06-12T05:39:44Z</time>
      </trkpt>
      <trkpt lat="49.13865" lon="-1.59113">
        <ele>5.8</ele>
        <time>2020-06-12T05:39:45Z</time>
      </trkpt>
      <trkpt lat="49.1387" lon="-1.59111">
        <ele>5.8</ele>
        <time>2020-06-12T05:39:46Z</time>
      </trkpt>
      <trkpt lat="49.13875" lon="-1.5911">
        <ele>5.8</ele>
        <time>2020-06-12T05:39:47Z</time>
      </trkpt>
      <trkpt lat="49.1388" lon="-1.59109">
        <ele>5.9</ele>
        <time>2020-06-12T05:39:48Z</time>
      </trkpt>
      <trkpt lat="49.13886" lon="-1.59106">
        <ele>5.9</ele>
        <time>2020-06-12T05:39:49Z</time>
      </trkpt>
      <trkpt lat="49.13892" lon="-1.59103">
        <ele>5.9</ele>
        <time>2020-06-12T05:39:50Z</time>
      </trkpt>
      <trkpt lat="49.13899" lon="-1.59101">
        <ele>5.9</ele>
        <time>2020-06-12T05:39:51Z</time>
      </trkpt>
      <trkpt lat="49.13905" lon="-1.59099">
        <ele>5.9</ele>
        <time>2020-06-12T05:39:52Z</time>
      </trkpt>
      <trkpt lat="49.13912" lon="-1.59097">
        <ele>5.9</ele>
        <time>2020-06-12T05:39:53Z</time>
      </trkpt>
      <trkpt lat="49.13918" lon="-1.59095">
        <ele>5.9</ele>
        <time>2020-06-12T05:39:54Z</time>
      </trkpt>
      <trkpt lat="49.13924" lon="-1.59093">
        <ele>5.9</ele>
        <time>2020-06-12T05:39:55Z</time>
      </trkpt>
      <trkpt lat="49.13929" lon="-1.59091">
        <ele>5.9</ele>
        <time>2020-06-12T05:39:56Z</time>
      </trkpt>
      <trkpt lat="49.13934" lon="-1.5909">
        <ele>5.9</ele>
        <time>2020-06-12T05:39:57Z</time>
      </trkpt>
      <trkpt lat="49.1394" lon="-1.59088">
        <ele>5.9</ele>
        <time>2020-06-12T05:39:58Z</time>
      </trkpt>
      <trkpt lat="49.13945" lon="-1.59086">
        <ele>5.9</ele>
        <time>2020-06-12T05:39:59Z</time>
      </trkpt>
      <trkpt lat="49.1395" lon="-1.59083">
        <ele>5.9</ele>
        <time>2020-06-12T05:40:00Z</time>
      </trkpt>
      <trkpt lat="49.13955" lon="-1.59081">
        <ele>6</ele>
        <time>2020-06-12T05:40:01Z</time>
      </trkpt>
      <trkpt lat="49.1396" lon="-1.59079">
        <ele>6</ele>
        <time>2020-06-12T05:40:02Z</time>
      </trkpt>
      <trkpt lat="49.13965" lon="-1.59077">
        <ele>6</ele>
        <time>2020-06-12T05:40:03Z</time>
      </trkpt>
      <trkpt lat="49.1397" lon="-1.59075">
        <ele>6</ele>
        <time>2020-06-12T05:40:04Z</time>
      </trkpt>
      <trkpt lat="49.13974" lon="-1.59073">
        <ele>6</ele>
        <time>2020-06-12T05:40:05Z</time>
      </trkpt>
      <trkpt lat="49.1398" lon="-1.5907">
        <ele>6.1</ele>
        <time>2020-06-12T05:40:06Z</time>
      </trkpt>
      <trkpt lat="49.13985" lon="-1.59068">
        <ele>6.1</ele>
        <time>2020-06-12T05:40:07Z</time>
      </trkpt>
      <trkpt lat="49.13991" lon="-1.59066">
        <ele>6.2</ele>
        <time>2020-06-12T05:40:08Z</time>
      </trkpt>
      <trkpt lat="49.13994" lon="-1.59063">
        <ele>6.2</ele>
        <time>2020-06-12T05:40:09Z</time>
      </trkpt>
      <trkpt lat="49.13999" lon="-1.59062">
        <ele>6.2</ele>
        <time>2020-06-12T05:40:10Z</time>
      </trkpt>
      <trkpt lat="49.14004" lon="-1.59061">
        <ele>6.3</ele>
        <time>2020-06-12T05:40:11Z</time>
      </trkpt>
      <trkpt lat="49.1401" lon="-1.5906">
        <ele>6.3</ele>
        <time>2020-06-12T05:40:12Z</time>
      </trkpt>
      <trkpt lat="49.14015" lon="-1.59059">
        <ele>6.3</ele>
        <time>2020-06-12T05:40:13Z</time>
      </trkpt>
      <trkpt lat="49.14021" lon="-1.59056">
        <ele>6.4</ele>
        <time>2020-06-12T05:40:14Z</time>
      </trkpt>
      <trkpt lat="49.14026" lon="-1.59053">
        <ele>6.4</ele>
        <time>2020-06-12T05:40:15Z</time>
      </trkpt>
      <trkpt lat="49.14031" lon="-1.5905">
        <ele>6.4</ele>
        <time>2020-06-12T05:40:16Z</time>
      </trkpt>
      <trkpt lat="49.14036" lon="-1.59048">
        <ele>6.5</ele>
        <time>2020-06-12T05:40:17Z</time>
      </trkpt>
      <trkpt lat="49.14041" lon="-1.59047">
        <ele>6.5</ele>
        <time>2020-06-12T05:40:18Z</time>
      </trkpt>
      <trkpt lat="49.14046" lon="-1.59045">
        <ele>6.5</ele>
        <time>2020-06-12T05:40:19Z</time>
      </trkpt>
      <trkpt lat="49.14051" lon="-1.59044">
        <ele>6.5</ele>
        <time>2020-06-12T05:40:20Z</time>
      </trkpt>
      <trkpt lat="49.14056" lon="-1.59041">
        <ele>6.5</ele>
        <time>2020-06-12T05:40:21Z</time>
      </trkpt>
      <trkpt lat="49.14061" lon="-1.59039">
        <ele>6.5</ele>
        <time>2020-06-12T05:40:22Z</time>
      </trkpt>
      <trkpt lat="49.14066" lon="-1.59037">
        <ele>6.5</ele>
        <time>2020-06-12T05:40:23Z</time>
      </trkpt>
      <trkpt lat="49.14071" lon="-1.59035">
        <ele>6.5</ele>
        <time>2020-06-12T05:40:24Z</time>
      </trkpt>
      <trkpt lat="49.14076" lon="-1.59034">
        <ele>6.5</ele>
        <time>2020-06-12T05:40:25Z</time>
      </trkpt>
      <trkpt lat="49.14081" lon="-1.59031">
        <ele>6.5</ele>
        <time>2020-06-12T05:40:26Z</time>
      </trkpt>
      <trkpt lat="49.14086" lon="-1.59029">
        <ele>6.5</ele>
        <time>2020-06-12T05:40:27Z</time>
      </trkpt>
      <trkpt lat="49.14091" lon="-1.59027">
        <ele>6.5</ele>
        <time>2020-06-12T05:40:28Z</time>
      </trkpt>
      <trkpt lat="49.14096" lon="-1.59025">
        <ele>6.5</ele>
        <time>2020-06-12T05:40:29Z</time>
      </trkpt>
      <trkpt lat="49.14102" lon="-1.59023">
        <ele>6.5</ele>
        <time>2020-06-12T05:40:30Z</time>
      </trkpt>
      <trkpt lat="49.14107" lon="-1.59021">
        <ele>6.5</ele>
        <time>2020-06-12T05:40:31Z</time>
      </trkpt>
      <trkpt lat="49.14113" lon="-1.59019">
        <ele>6.5</ele>
        <time>2020-06-12T05:40:32Z</time>
      </trkpt>
      <trkpt lat="49.14118" lon="-1.59018">
        <ele>6.5</ele>
        <time>2020-06-12T05:40:33Z</time>
      </trkpt>
      <trkpt lat="49.14123" lon="-1.59016">
        <ele>6.5</ele>
        <time>2020-06-12T05:40:34Z</time>
      </trkpt>
      <trkpt lat="49.14127" lon="-1.59015">
        <ele>6.5</ele>
        <time>2020-06-12T05:40:35Z</time>
      </trkpt>
      <trkpt lat="49.14132" lon="-1.59013">
        <ele>6.5</ele>
        <time>2020-06-12T05:40:36Z</time>
      </trkpt>
      <trkpt lat="49.14138" lon="-1.59012">
        <ele>6.5</ele>
        <time>2020-06-12T05:40:37Z</time>
      </trkpt>
      <trkpt lat="49.14143" lon="-1.5901">
        <ele>6.5</ele>
        <time>2020-06-12T05:40:38Z</time>
      </trkpt>
      <trkpt lat="49.14148" lon="-1.59008">
        <ele>6.5</ele>
        <time>2020-06-12T05:40:39Z</time>
      </trkpt>
      <trkpt lat="49.14153" lon="-1.59007">
        <ele>6.5</ele>
        <time>2020-06-12T05:40:40Z</time>
      </trkpt>
      <trkpt lat="49.14159" lon="-1.59005">
        <ele>6.4</ele>
        <time>2020-06-12T05:40:41Z</time>
      </trkpt>
      <trkpt lat="49.14164" lon="-1.59003">
        <ele>6.4</ele>
        <time>2020-06-12T05:40:42Z</time>
      </trkpt>
      <trkpt lat="49.14169" lon="-1.59002">
        <ele>6.4</ele>
        <time>2020-06-12T05:40:43Z</time>
      </trkpt>
      <trkpt lat="49.14174" lon="-1.58999">
        <ele>6.4</ele>
        <time>2020-06-12T05:40:44Z</time>
      </trkpt>
      <trkpt lat="49.1418" lon="-1.58997">
        <ele>6.4</ele>
        <time>2020-06-12T05:40:45Z</time>
      </trkpt>
      <trkpt lat="49.14185" lon="-1.58995">
        <ele>6.4</ele>
        <time>2020-06-12T05:40:46Z</time>
      </trkpt>
      <trkpt lat="49.14191" lon="-1.58994">
        <ele>6.3</ele>
        <time>2020-06-12T05:40:47Z</time>
      </trkpt>
      <trkpt lat="49.14197" lon="-1.58992">
        <ele>6.3</ele>
        <time>2020-06-12T05:40:48Z</time>
      </trkpt>
      <trkpt lat="49.14203" lon="-1.58992">
        <ele>6.2</ele>
        <time>2020-06-12T05:40:49Z</time>
      </trkpt>
      <trkpt lat="49.14209" lon="-1.58992">
        <ele>6.2</ele>
        <time>2020-06-12T05:40:50Z</time>
      </trkpt>
      <trkpt lat="49.14215" lon="-1.58991">
        <ele>6.2</ele>
        <time>2020-06-12T05:40:51Z</time>
      </trkpt>
      <trkpt lat="49.14221" lon="-1.5899">
        <ele>6.1</ele>
        <time>2020-06-12T05:40:52Z</time>
      </trkpt>
      <trkpt lat="49.14227" lon="-1.58989">
        <ele>6.1</ele>
        <time>2020-06-12T05:40:53Z</time>
      </trkpt>
      <trkpt lat="49.14234" lon="-1.58987">
        <ele>6</ele>
        <time>2020-06-12T05:40:54Z</time>
      </trkpt>
      <trkpt lat="49.1424" lon="-1.58985">
        <ele>6</ele>
        <time>2020-06-12T05:40:55Z</time>
      </trkpt>
      <trkpt lat="49.14246" lon="-1.58983">
        <ele>6</ele>
        <time>2020-06-12T05:40:56Z</time>
      </trkpt>
      <trkpt lat="49.1425" lon="-1.58981">
        <ele>5.9</ele>
        <time>2020-06-12T05:40:57Z</time>
      </trkpt>
      <trkpt lat="49.14256" lon="-1.58979">
        <ele>5.9</ele>
        <time>2020-06-12T05:40:58Z</time>
      </trkpt>
      <trkpt lat="49.1426" lon="-1.58977">
        <ele>5.9</ele>
        <time>2020-06-12T05:40:59Z</time>
      </trkpt>
      <trkpt lat="49.14265" lon="-1.58976">
        <ele>5.8</ele>
        <time>2020-06-12T05:41:00Z</time>
      </trkpt>
      <trkpt lat="49.1427" lon="-1.58975">
        <ele>5.8</ele>
        <time>2020-06-12T05:41:01Z</time>
      </trkpt>
      <trkpt lat="49.14275" lon="-1.58973">
        <ele>5.7</ele>
        <time>2020-06-12T05:41:02Z</time>
      </trkpt>
      <trkpt lat="49.14281" lon="-1.5897">
        <ele>5.7</ele>
        <time>2020-06-12T05:41:03Z</time>
      </trkpt>
      <trkpt lat="49.14286" lon="-1.58969">
        <ele>5.7</ele>
        <time>2020-06-12T05:41:04Z</time>
      </trkpt>
      <trkpt lat="49.14291" lon="-1.58967">
        <ele>5.7</ele>
        <time>2020-06-12T05:41:05Z</time>
      </trkpt>
      <trkpt lat="49.14297" lon="-1.58965">
        <ele>5.7</ele>
        <time>2020-06-12T05:41:06Z</time>
      </trkpt>
      <trkpt lat="49.14303" lon="-1.58964">
        <ele>5.6</ele>
        <time>2020-06-12T05:41:07Z</time>
      </trkpt>
      <trkpt lat="49.14309" lon="-1.58963">
        <ele>5.6</ele>
        <time>2020-06-12T05:41:08Z</time>
      </trkpt>
      <trkpt lat="49.14314" lon="-1.58962">
        <ele>5.5</ele>
        <time>2020-06-12T05:41:09Z</time>
      </trkpt>
      <trkpt lat="49.1432" lon="-1.58961">
        <ele>5.5</ele>
        <time>2020-06-12T05:41:10Z</time>
      </trkpt>
      <trkpt lat="49.14325" lon="-1.5896">
        <ele>5.5</ele>
        <time>2020-06-12T05:41:11Z</time>
      </trkpt>
      <trkpt lat="49.1433" lon="-1.58958">
        <ele>5.5</ele>
        <time>2020-06-12T05:41:12Z</time>
      </trkpt>
      <trkpt lat="49.14336" lon="-1.58956">
        <ele>5.4</ele>
        <time>2020-06-12T05:41:13Z</time>
      </trkpt>
      <trkpt lat="49.14341" lon="-1.58953">
        <ele>5.4</ele>
        <time>2020-06-12T05:41:14Z</time>
      </trkpt>
      <trkpt lat="49.14347" lon="-1.58952">
        <ele>5.3</ele>
        <time>2020-06-12T05:41:15Z</time>
      </trkpt>
      <trkpt lat="49.14353" lon="-1.5895">
        <ele>5.3</ele>
        <time>2020-06-12T05:41:16Z</time>
      </trkpt>
      <trkpt lat="49.14359" lon="-1.58949">
        <ele>5.3</ele>
        <time>2020-06-12T05:41:17Z</time>
      </trkpt>
      <trkpt lat="49.14364" lon="-1.58947">
        <ele>5.2</ele>
        <time>2020-06-12T05:41:18Z</time>
      </trkpt>
      <trkpt lat="49.14369" lon="-1.58945">
        <ele>5.2</ele>
        <time>2020-06-12T05:41:19Z</time>
      </trkpt>
      <trkpt lat="49.14375" lon="-1.58944">
        <ele>5.1</ele>
        <time>2020-06-12T05:41:20Z</time>
      </trkpt>
      <trkpt lat="49.1438" lon="-1.58942">
        <ele>5.1</ele>
        <time>2020-06-12T05:41:21Z</time>
      </trkpt>
      <trkpt lat="49.14385" lon="-1.5894">
        <ele>5</ele>
        <time>2020-06-12T05:41:22Z</time>
      </trkpt>
      <trkpt lat="49.14391" lon="-1.58939">
        <ele>5</ele>
        <time>2020-06-12T05:41:23Z</time>
      </trkpt>
      <trkpt lat="49.14396" lon="-1.58937">
        <ele>5</ele>
        <time>2020-06-12T05:41:24Z</time>
      </trkpt>
      <trkpt lat="49.14402" lon="-1.58936">
        <ele>4.9</ele>
        <time>2020-06-12T05:41:25Z</time>
      </trkpt>
      <trkpt lat="49.14407" lon="-1.58934">
        <ele>4.9</ele>
        <time>2020-06-12T05:41:26Z</time>
      </trkpt>
      <trkpt lat="49.14412" lon="-1.58933">
        <ele>4.9</ele>
        <time>2020-06-12T05:41:27Z</time>
      </trkpt>
      <trkpt lat="49.14417" lon="-1.58932">
        <ele>4.8</ele>
        <time>2020-06-12T05:41:28Z</time>
      </trkpt>
      <trkpt lat="49.14423" lon="-1.58929">
        <ele>4.8</ele>
        <time>2020-06-12T05:41:29Z</time>
      </trkpt>
      <trkpt lat="49.14428" lon="-1.58927">
        <ele>4.8</ele>
        <time>2020-06-12T05:41:30Z</time>
      </trkpt>
      <trkpt lat="49.14434" lon="-1.58925">
        <ele>4.7</ele>
        <time>2020-06-12T05:41:31Z</time>
      </trkpt>
      <trkpt lat="49.1444" lon="-1.58923">
        <ele>4.7</ele>
        <time>2020-06-12T05:41:32Z</time>
      </trkpt>
      <trkpt lat="49.14446" lon="-1.58921">
        <ele>4.7</ele>
        <time>2020-06-12T05:41:33Z</time>
      </trkpt>
      <trkpt lat="49.14451" lon="-1.5892">
        <ele>4.6</ele>
        <time>2020-06-12T05:41:34Z</time>
      </trkpt>
      <trkpt lat="49.14457" lon="-1.58918">
        <ele>4.6</ele>
        <time>2020-06-12T05:41:35Z</time>
      </trkpt>
      <trkpt lat="49.14463" lon="-1.58917">
        <ele>4.5</ele>
        <time>2020-06-12T05:41:36Z</time>
      </trkpt>
      <trkpt lat="49.14468" lon="-1.58916">
        <ele>4.5</ele>
        <time>2020-06-12T05:41:37Z</time>
      </trkpt>
      <trkpt lat="49.14474" lon="-1.58915">
        <ele>4.4</ele>
        <time>2020-06-12T05:41:38Z</time>
      </trkpt>
      <trkpt lat="49.1448" lon="-1.58914">
        <ele>4.4</ele>
        <time>2020-06-12T05:41:39Z</time>
      </trkpt>
      <trkpt lat="49.14485" lon="-1.58912">
        <ele>4.3</ele>
        <time>2020-06-12T05:41:40Z</time>
      </trkpt>
      <trkpt lat="49.1449" lon="-1.5891">
        <ele>4.3</ele>
        <time>2020-06-12T05:41:41Z</time>
      </trkpt>
      <trkpt lat="49.14496" lon="-1.58908">
        <ele>4.3</ele>
        <time>2020-06-12T05:41:42Z</time>
      </trkpt>
      <trkpt lat="49.14502" lon="-1.58907">
        <ele>4.3</ele>
        <time>2020-06-12T05:41:43Z</time>
      </trkpt>
      <trkpt lat="49.14507" lon="-1.58906">
        <ele>4.3</ele>
        <time>2020-06-12T05:41:44Z</time>
      </trkpt>
      <trkpt lat="49.14512" lon="-1.58905">
        <ele>4.3</ele>
        <time>2020-06-12T05:41:45Z</time>
      </trkpt>
      <trkpt lat="49.14517" lon="-1.58903">
        <ele>4.3</ele>
        <time>2020-06-12T05:41:46Z</time>
      </trkpt>
      <trkpt lat="49.14522" lon="-1.58902">
        <ele>4.3</ele>
        <time>2020-06-12T05:41:47Z</time>
      </trkpt>
      <trkpt lat="49.14527" lon="-1.58901">
        <ele>4.4</ele>
        <time>2020-06-12T05:41:48Z</time>
      </trkpt>
      <trkpt lat="49.14532" lon="-1.589">
        <ele>4.5</ele>
        <time>2020-06-12T05:41:49Z</time>
      </trkpt>
      <trkpt lat="49.14538" lon="-1.58898">
        <ele>4.5</ele>
        <time>2020-06-12T05:41:50Z</time>
      </trkpt>
      <trkpt lat="49.14544" lon="-1.58895">
        <ele>4.4</ele>
        <time>2020-06-12T05:41:51Z</time>
      </trkpt>
      <trkpt lat="49.14549" lon="-1.58894">
        <ele>4.3</ele>
        <time>2020-06-12T05:41:52Z</time>
      </trkpt>
      <trkpt lat="49.14555" lon="-1.58894">
        <ele>4.3</ele>
        <time>2020-06-12T05:41:53Z</time>
      </trkpt>
      <trkpt lat="49.1456" lon="-1.58892">
        <ele>4.2</ele>
        <time>2020-06-12T05:41:54Z</time>
      </trkpt>
      <trkpt lat="49.14566" lon="-1.5889">
        <ele>4.2</ele>
        <time>2020-06-12T05:41:55Z</time>
      </trkpt>
      <trkpt lat="49.14571" lon="-1.58888">
        <ele>4.2</ele>
        <time>2020-06-12T05:41:56Z</time>
      </trkpt>
      <trkpt lat="49.14576" lon="-1.58887">
        <ele>4.1</ele>
        <time>2020-06-12T05:41:57Z</time>
      </trkpt>
      <trkpt lat="49.14581" lon="-1.58885">
        <ele>4.1</ele>
        <time>2020-06-12T05:41:58Z</time>
      </trkpt>
      <trkpt lat="49.14586" lon="-1.58884">
        <ele>4.1</ele>
        <time>2020-06-12T05:41:59Z</time>
      </trkpt>
      <trkpt lat="49.14591" lon="-1.58882">
        <ele>4.1</ele>
        <time>2020-06-12T05:42:00Z</time>
      </trkpt>
      <trkpt lat="49.14597" lon="-1.5888">
        <ele>4</ele>
        <time>2020-06-12T05:42:01Z</time>
      </trkpt>
      <trkpt lat="49.14603" lon="-1.58879">
        <ele>4</ele>
        <time>2020-06-12T05:42:02Z</time>
      </trkpt>
      <trkpt lat="49.14609" lon="-1.58878">
        <ele>4</ele>
        <time>2020-06-12T05:42:03Z</time>
      </trkpt>
      <trkpt lat="49.14615" lon="-1.58876">
        <ele>4</ele>
        <time>2020-06-12T05:42:04Z</time>
      </trkpt>
      <trkpt lat="49.14621" lon="-1.58874">
        <ele>4</ele>
        <time>2020-06-12T05:42:05Z</time>
      </trkpt>
      <trkpt lat="49.14627" lon="-1.58872">
        <ele>4</ele>
        <time>2020-06-12T05:42:06Z</time>
      </trkpt>
      <trkpt lat="49.14633" lon="-1.5887">
        <ele>4</ele>
        <time>2020-06-12T05:42:07Z</time>
      </trkpt>
      <trkpt lat="49.14638" lon="-1.58869">
        <ele>3.9</ele>
        <time>2020-06-12T05:42:08Z</time>
      </trkpt>
      <trkpt lat="49.14644" lon="-1.58868">
        <ele>3.9</ele>
        <time>2020-06-12T05:42:09Z</time>
      </trkpt>
      <trkpt lat="49.14649" lon="-1.58867">
        <ele>3.9</ele>
        <time>2020-06-12T05:42:10Z</time>
      </trkpt>
      <trkpt lat="49.14654" lon="-1.58866">
        <ele>3.9</ele>
        <time>2020-06-12T05:42:11Z</time>
      </trkpt>
      <trkpt lat="49.14659" lon="-1.58864">
        <ele>3.9</ele>
        <time>2020-06-12T05:42:12Z</time>
      </trkpt>
      <trkpt lat="49.14664" lon="-1.58862">
        <ele>3.9</ele>
        <time>2020-06-12T05:42:13Z</time>
      </trkpt>
      <trkpt lat="49.1467" lon="-1.58859">
        <ele>3.9</ele>
        <time>2020-06-12T05:42:14Z</time>
      </trkpt>
      <trkpt lat="49.14675" lon="-1.58858">
        <ele>3.9</ele>
        <time>2020-06-12T05:42:15Z</time>
      </trkpt>
      <trkpt lat="49.14681" lon="-1.58857">
        <ele>4</ele>
        <time>2020-06-12T05:42:16Z</time>
      </trkpt>
      <trkpt lat="49.14685" lon="-1.58856">
        <ele>4</ele>
        <time>2020-06-12T05:42:17Z</time>
      </trkpt>
      <trkpt lat="49.14691" lon="-1.58855">
        <ele>4</ele>
        <time>2020-06-12T05:42:18Z</time>
      </trkpt>
      <trkpt lat="49.14695" lon="-1.58853">
        <ele>4</ele>
        <time>2020-06-12T05:42:19Z</time>
      </trkpt>
      <trkpt lat="49.147" lon="-1.58852">
        <ele>4</ele>
        <time>2020-06-12T05:42:20Z</time>
      </trkpt>
      <trkpt lat="49.14705" lon="-1.58851">
        <ele>4</ele>
        <time>2020-06-12T05:42:21Z</time>
      </trkpt>
      <trkpt lat="49.1471" lon="-1.58849">
        <ele>4</ele>
        <time>2020-06-12T05:42:22Z</time>
      </trkpt>
      <trkpt lat="49.14716" lon="-1.58848">
        <ele>4</ele>
        <time>2020-06-12T05:42:23Z</time>
      </trkpt>
      <trkpt lat="49.14721" lon="-1.58847">
        <ele>4</ele>
        <time>2020-06-12T05:42:24Z</time>
      </trkpt>
      <trkpt lat="49.14727" lon="-1.58845">
        <ele>4</ele>
        <time>2020-06-12T05:42:25Z</time>
      </trkpt>
      <trkpt lat="49.14732" lon="-1.58843">
        <ele>4</ele>
        <time>2020-06-12T05:42:26Z</time>
      </trkpt>
      <trkpt lat="49.14737" lon="-1.58842">
        <ele>4.1</ele>
        <time>2020-06-12T05:42:27Z</time>
      </trkpt>
      <trkpt lat="49.14743" lon="-1.58841">
        <ele>4.1</ele>
        <time>2020-06-12T05:42:28Z</time>
      </trkpt>
      <trkpt lat="49.14748" lon="-1.58839">
        <ele>4.1</ele>
        <time>2020-06-12T05:42:29Z</time>
      </trkpt>
      <trkpt lat="49.14753" lon="-1.58838">
        <ele>4.1</ele>
        <time>2020-06-12T05:42:30Z</time>
      </trkpt>
      <trkpt lat="49.14758" lon="-1.58836">
        <ele>4.1</ele>
        <time>2020-06-12T05:42:31Z</time>
      </trkpt>
      <trkpt lat="49.14764" lon="-1.58834">
        <ele>4.1</ele>
        <time>2020-06-12T05:42:32Z</time>
      </trkpt>
      <trkpt lat="49.14769" lon="-1.58832">
        <ele>4.1</ele>
        <time>2020-06-12T05:42:33Z</time>
      </trkpt>
      <trkpt lat="49.14774" lon="-1.5883">
        <ele>4.1</ele>
        <time>2020-06-12T05:42:34Z</time>
      </trkpt>
      <trkpt lat="49.14779" lon="-1.58828">
        <ele>4.1</ele>
        <time>2020-06-12T05:42:35Z</time>
      </trkpt>
      <trkpt lat="49.14785" lon="-1.58826">
        <ele>4.1</ele>
        <time>2020-06-12T05:42:36Z</time>
      </trkpt>
      <trkpt lat="49.1479" lon="-1.58825">
        <ele>4.1</ele>
        <time>2020-06-12T05:42:37Z</time>
      </trkpt>
      <trkpt lat="49.14795" lon="-1.58823">
        <ele>4.1</ele>
        <time>2020-06-12T05:42:38Z</time>
      </trkpt>
      <trkpt lat="49.14801" lon="-1.58821">
        <ele>4.1</ele>
        <time>2020-06-12T05:42:39Z</time>
      </trkpt>
      <trkpt lat="49.14807" lon="-1.58819">
        <ele>4.1</ele>
        <time>2020-06-12T05:42:40Z</time>
      </trkpt>
      <trkpt lat="49.14813" lon="-1.58818">
        <ele>4.1</ele>
        <time>2020-06-12T05:42:41Z</time>
      </trkpt>
      <trkpt lat="49.14818" lon="-1.58816">
        <ele>4.1</ele>
        <time>2020-06-12T05:42:42Z</time>
      </trkpt>
      <trkpt lat="49.14824" lon="-1.58815">
        <ele>4</ele>
        <time>2020-06-12T05:42:43Z</time>
      </trkpt>
      <trkpt lat="49.14829" lon="-1.58813">
        <ele>4</ele>
        <time>2020-06-12T05:42:44Z</time>
      </trkpt>
      <trkpt lat="49.14834" lon="-1.58811">
        <ele>4</ele>
        <time>2020-06-12T05:42:45Z</time>
      </trkpt>
      <trkpt lat="49.1484" lon="-1.58809">
        <ele>4</ele>
        <time>2020-06-12T05:42:46Z</time>
      </trkpt>
      <trkpt lat="49.14845" lon="-1.58807">
        <ele>4.1</ele>
        <time>2020-06-12T05:42:47Z</time>
      </trkpt>
      <trkpt lat="49.1485" lon="-1.58806">
        <ele>4.1</ele>
        <time>2020-06-12T05:42:48Z</time>
      </trkpt>
      <trkpt lat="49.14855" lon="-1.58804">
        <ele>4.1</ele>
        <time>2020-06-12T05:42:49Z</time>
      </trkpt>
      <trkpt lat="49.14861" lon="-1.58802">
        <ele>4.1</ele>
        <time>2020-06-12T05:42:50Z</time>
      </trkpt>
      <trkpt lat="49.14867" lon="-1.58801">
        <ele>4.1</ele>
        <time>2020-06-12T05:42:51Z</time>
      </trkpt>
      <trkpt lat="49.14872" lon="-1.58799">
        <ele>4.1</ele>
        <time>2020-06-12T05:42:52Z</time>
      </trkpt>
      <trkpt lat="49.14878" lon="-1.58797">
        <ele>4.1</ele>
        <time>2020-06-12T05:42:53Z</time>
      </trkpt>
      <trkpt lat="49.14883" lon="-1.58796">
        <ele>4.1</ele>
        <time>2020-06-12T05:42:54Z</time>
      </trkpt>
      <trkpt lat="49.14888" lon="-1.58795">
        <ele>4.1</ele>
        <time>2020-06-12T05:42:55Z</time>
      </trkpt>
      <trkpt lat="49.14893" lon="-1.58794">
        <ele>4.1</ele>
        <time>2020-06-12T05:42:56Z</time>
      </trkpt>
      <trkpt lat="49.14899" lon="-1.58792">
        <ele>4.2</ele>
        <time>2020-06-12T05:42:57Z</time>
      </trkpt>
      <trkpt lat="49.14905" lon="-1.58791">
        <ele>4.2</ele>
        <time>2020-06-12T05:42:58Z</time>
      </trkpt>
      <trkpt lat="49.1491" lon="-1.58789">
        <ele>4.2</ele>
        <time>2020-06-12T05:42:59Z</time>
      </trkpt>
      <trkpt lat="49.14915" lon="-1.58787">
        <ele>4.2</ele>
        <time>2020-06-12T05:43:00Z</time>
      </trkpt>
      <trkpt lat="49.1492" lon="-1.58785">
        <ele>4.2</ele>
        <time>2020-06-12T05:43:01Z</time>
      </trkpt>
      <trkpt lat="49.14925" lon="-1.58784">
        <ele>4.1</ele>
        <time>2020-06-12T05:43:02Z</time>
      </trkpt>
      <trkpt lat="49.14931" lon="-1.58783">
        <ele>4.1</ele>
        <time>2020-06-12T05:43:03Z</time>
      </trkpt>
      <trkpt lat="49.14936" lon="-1.58782">
        <ele>4.1</ele>
        <time>2020-06-12T05:43:04Z</time>
      </trkpt>
      <trkpt lat="49.14941" lon="-1.5878">
        <ele>4.1</ele>
        <time>2020-06-12T05:43:05Z</time>
      </trkpt>
      <trkpt lat="49.14947" lon="-1.58778">
        <ele>4.2</ele>
        <time>2020-06-12T05:43:06Z</time>
      </trkpt>
      <trkpt lat="49.14952" lon="-1.58776">
        <ele>4.2</ele>
        <time>2020-06-12T05:43:07Z</time>
      </trkpt>
      <trkpt lat="49.14958" lon="-1.58775">
        <ele>4.2</ele>
        <time>2020-06-12T05:43:08Z</time>
      </trkpt>
      <trkpt lat="49.14964" lon="-1.58775">
        <ele>4.2</ele>
        <time>2020-06-12T05:43:09Z</time>
      </trkpt>
      <trkpt lat="49.1497" lon="-1.58774">
        <ele>4.2</ele>
        <time>2020-06-12T05:43:10Z</time>
      </trkpt>
      <trkpt lat="49.14976" lon="-1.58772">
        <ele>4.2</ele>
        <time>2020-06-12T05:43:11Z</time>
      </trkpt>
      <trkpt lat="49.14981" lon="-1.58771">
        <ele>4.2</ele>
        <time>2020-06-12T05:43:12Z</time>
      </trkpt>
      <trkpt lat="49.14986" lon="-1.5877">
        <ele>4.2</ele>
        <time>2020-06-12T05:43:13Z</time>
      </trkpt>
      <trkpt lat="49.14992" lon="-1.58769">
        <ele>4.2</ele>
        <time>2020-06-12T05:43:14Z</time>
      </trkpt>
      <trkpt lat="49.14998" lon="-1.58768">
        <ele>4.2</ele>
        <time>2020-06-12T05:43:15Z</time>
      </trkpt>
      <trkpt lat="49.15003" lon="-1.58767">
        <ele>4.2</ele>
        <time>2020-06-12T05:43:16Z</time>
      </trkpt>
      <trkpt lat="49.15009" lon="-1.58765">
        <ele>4.3</ele>
        <time>2020-06-12T05:43:17Z</time>
      </trkpt>
      <trkpt lat="49.15014" lon="-1.58764">
        <ele>4.3</ele>
        <time>2020-06-12T05:43:18Z</time>
      </trkpt>
      <trkpt lat="49.1502" lon="-1.58762">
        <ele>4.4</ele>
        <time>2020-06-12T05:43:19Z</time>
      </trkpt>
      <trkpt lat="49.15025" lon="-1.58759">
        <ele>4.4</ele>
        <time>2020-06-12T05:43:20Z</time>
      </trkpt>
      <trkpt lat="49.15031" lon="-1.58758">
        <ele>4.4</ele>
        <time>2020-06-12T05:43:21Z</time>
      </trkpt>
      <trkpt lat="49.15036" lon="-1.58756">
        <ele>4.5</ele>
        <time>2020-06-12T05:43:22Z</time>
      </trkpt>
      <trkpt lat="49.1504" lon="-1.58754">
        <ele>4.5</ele>
        <time>2020-06-12T05:43:23Z</time>
      </trkpt>
      <trkpt lat="49.15045" lon="-1.58753">
        <ele>4.5</ele>
        <time>2020-06-12T05:43:24Z</time>
      </trkpt>
      <trkpt lat="49.15049" lon="-1.58752">
        <ele>4.5</ele>
        <time>2020-06-12T05:43:25Z</time>
      </trkpt>
      <trkpt lat="49.15054" lon="-1.5875">
        <ele>4.5</ele>
        <time>2020-06-12T05:43:26Z</time>
      </trkpt>
      <trkpt lat="49.15059" lon="-1.58749">
        <ele>4.5</ele>
        <time>2020-06-12T05:43:27Z</time>
      </trkpt>
      <trkpt lat="49.15065" lon="-1.58748">
        <ele>4.5</ele>
        <time>2020-06-12T05:43:28Z</time>
      </trkpt>
      <trkpt lat="49.1507" lon="-1.58746">
        <ele>4.5</ele>
        <time>2020-06-12T05:43:29Z</time>
      </trkpt>
      <trkpt lat="49.15076" lon="-1.58744">
        <ele>4.5</ele>
        <time>2020-06-12T05:43:30Z</time>
      </trkpt>
      <trkpt lat="49.15081" lon="-1.58742">
        <ele>4.5</ele>
        <time>2020-06-12T05:43:31Z</time>
      </trkpt>
      <trkpt lat="49.15086" lon="-1.58742">
        <ele>4.5</ele>
        <time>2020-06-12T05:43:32Z</time>
      </trkpt>
      <trkpt lat="49.1509" lon="-1.58741">
        <ele>4.5</ele>
        <time>2020-06-12T05:43:33Z</time>
      </trkpt>
      <trkpt lat="49.15095" lon="-1.58741">
        <ele>4.5</ele>
        <time>2020-06-12T05:43:34Z</time>
      </trkpt>
      <trkpt lat="49.151" lon="-1.5874">
        <ele>4.5</ele>
        <time>2020-06-12T05:43:35Z</time>
      </trkpt>
      <trkpt lat="49.15105" lon="-1.58739">
        <ele>4.6</ele>
        <time>2020-06-12T05:43:36Z</time>
      </trkpt>
      <trkpt lat="49.1511" lon="-1.58739">
        <ele>4.6</ele>
        <time>2020-06-12T05:43:37Z</time>
      </trkpt>
      <trkpt lat="49.15115" lon="-1.58737">
        <ele>4.6</ele>
        <time>2020-06-12T05:43:38Z</time>
      </trkpt>
      <trkpt lat="49.15119" lon="-1.58736">
        <ele>4.6</ele>
        <time>2020-06-12T05:43:39Z</time>
      </trkpt>
      <trkpt lat="49.15125" lon="-1.58735">
        <ele>4.6</ele>
        <time>2020-06-12T05:43:40Z</time>
      </trkpt>
      <trkpt lat="49.1513" lon="-1.58735">
        <ele>4.6</ele>
        <time>2020-06-12T05:43:41Z</time>
      </trkpt>
      <trkpt lat="49.15136" lon="-1.58735">
        <ele>4.6</ele>
        <time>2020-06-12T05:43:42Z</time>
      </trkpt>
      <trkpt lat="49.15141" lon="-1.58735">
        <ele>4.6</ele>
        <time>2020-06-12T05:43:43Z</time>
      </trkpt>
      <trkpt lat="49.15146" lon="-1.58734">
        <ele>4.7</ele>
        <time>2020-06-12T05:43:44Z</time>
      </trkpt>
      <trkpt lat="49.15151" lon="-1.58733">
        <ele>4.7</ele>
        <time>2020-06-12T05:43:45Z</time>
      </trkpt>
      <trkpt lat="49.15157" lon="-1.58734">
        <ele>4.7</ele>
        <time>2020-06-12T05:43:46Z</time>
      </trkpt>
      <trkpt lat="49.15162" lon="-1.58734">
        <ele>4.7</ele>
        <time>2020-06-12T05:43:47Z</time>
      </trkpt>
      <trkpt lat="49.15167" lon="-1.58733">
        <ele>4.7</ele>
        <time>2020-06-12T05:43:48Z</time>
      </trkpt>
      <trkpt lat="49.15172" lon="-1.58732">
        <ele>4.8</ele>
        <time>2020-06-12T05:43:49Z</time>
      </trkpt>
      <trkpt lat="49.15178" lon="-1.58732">
        <ele>4.8</ele>
        <time>2020-06-12T05:43:50Z</time>
      </trkpt>
      <trkpt lat="49.15184" lon="-1.58732">
        <ele>4.9</ele>
        <time>2020-06-12T05:43:51Z</time>
      </trkpt>
      <trkpt lat="49.1519" lon="-1.58733">
        <ele>5</ele>
        <time>2020-06-12T05:43:52Z</time>
      </trkpt>
      <trkpt lat="49.15196" lon="-1.58735">
        <ele>5.1</ele>
        <time>2020-06-12T05:43:53Z</time>
      </trkpt>
      <trkpt lat="49.15201" lon="-1.58736">
        <ele>5.2</ele>
        <time>2020-06-12T05:43:54Z</time>
      </trkpt>
      <trkpt lat="49.15207" lon="-1.58735">
        <ele>5.4</ele>
        <time>2020-06-12T05:43:55Z</time>
      </trkpt>
      <trkpt lat="49.15213" lon="-1.58736">
        <ele>5.5</ele>
        <time>2020-06-12T05:43:56Z</time>
      </trkpt>
      <trkpt lat="49.15218" lon="-1.58736">
        <ele>5.6</ele>
        <time>2020-06-12T05:43:57Z</time>
      </trkpt>
      <trkpt lat="49.15224" lon="-1.58737">
        <ele>5.6</ele>
        <time>2020-06-12T05:43:58Z</time>
      </trkpt>
      <trkpt lat="49.15229" lon="-1.58739">
        <ele>5.6</ele>
        <time>2020-06-12T05:43:59Z</time>
      </trkpt>
      <trkpt lat="49.15234" lon="-1.5874">
        <ele>5.6</ele>
        <time>2020-06-12T05:44:00Z</time>
      </trkpt>
      <trkpt lat="49.1524" lon="-1.58741">
        <ele>5.6</ele>
        <time>2020-06-12T05:44:01Z</time>
      </trkpt>
      <trkpt lat="49.15245" lon="-1.58743">
        <ele>5.6</ele>
        <time>2020-06-12T05:44:02Z</time>
      </trkpt>
      <trkpt lat="49.15251" lon="-1.58744">
        <ele>5.6</ele>
        <time>2020-06-12T05:44:03Z</time>
      </trkpt>
      <trkpt lat="49.15257" lon="-1.58744">
        <ele>5.6</ele>
        <time>2020-06-12T05:44:04Z</time>
      </trkpt>
      <trkpt lat="49.15263" lon="-1.58745">
        <ele>5.6</ele>
        <time>2020-06-12T05:44:05Z</time>
      </trkpt>
      <trkpt lat="49.15269" lon="-1.58747">
        <ele>5.6</ele>
        <time>2020-06-12T05:44:06Z</time>
      </trkpt>
      <trkpt lat="49.15274" lon="-1.58746">
        <ele>5.6</ele>
        <time>2020-06-12T05:44:07Z</time>
      </trkpt>
      <trkpt lat="49.1528" lon="-1.58749">
        <ele>5.6</ele>
        <time>2020-06-12T05:44:08Z</time>
      </trkpt>
      <trkpt lat="49.15285" lon="-1.5875">
        <ele>5.7</ele>
        <time>2020-06-12T05:44:09Z</time>
      </trkpt>
      <trkpt lat="49.15291" lon="-1.58749">
        <ele>5.7</ele>
        <time>2020-06-12T05:44:10Z</time>
      </trkpt>
      <trkpt lat="49.15296" lon="-1.58751">
        <ele>5.7</ele>
        <time>2020-06-12T05:44:11Z</time>
      </trkpt>
      <trkpt lat="49.15301" lon="-1.58753">
        <ele>5.7</ele>
        <time>2020-06-12T05:44:12Z</time>
      </trkpt>
      <trkpt lat="49.15307" lon="-1.58754">
        <ele>5.8</ele>
        <time>2020-06-12T05:44:13Z</time>
      </trkpt>
      <trkpt lat="49.15312" lon="-1.58756">
        <ele>5.8</ele>
        <time>2020-06-12T05:44:14Z</time>
      </trkpt>
      <trkpt lat="49.15317" lon="-1.58757">
        <ele>5.8</ele>
        <time>2020-06-12T05:44:15Z</time>
      </trkpt>
      <trkpt lat="49.15323" lon="-1.58759">
        <ele>5.8</ele>
        <time>2020-06-12T05:44:16Z</time>
      </trkpt>
      <trkpt lat="49.15329" lon="-1.58759">
        <ele>5.8</ele>
        <time>2020-06-12T05:44:17Z</time>
      </trkpt>
      <trkpt lat="49.15334" lon="-1.58761">
        <ele>5.8</ele>
        <time>2020-06-12T05:44:18Z</time>
      </trkpt>
      <trkpt lat="49.1534" lon="-1.58762">
        <ele>5.8</ele>
        <time>2020-06-12T05:44:19Z</time>
      </trkpt>
      <trkpt lat="49.15346" lon="-1.58763">
        <ele>5.8</ele>
        <time>2020-06-12T05:44:20Z</time>
      </trkpt>
      <trkpt lat="49.15352" lon="-1.58765">
        <ele>5.8</ele>
        <time>2020-06-12T05:44:21Z</time>
      </trkpt>
      <trkpt lat="49.15357" lon="-1.58766">
        <ele>5.8</ele>
        <time>2020-06-12T05:44:22Z</time>
      </trkpt>
      <trkpt lat="49.15363" lon="-1.58768">
        <ele>5.9</ele>
        <time>2020-06-12T05:44:23Z</time>
      </trkpt>
      <trkpt lat="49.15369" lon="-1.58769">
        <ele>5.9</ele>
        <time>2020-06-12T05:44:24Z</time>
      </trkpt>
      <trkpt lat="49.15375" lon="-1.58771">
        <ele>6</ele>
        <time>2020-06-12T05:44:25Z</time>
      </trkpt>
      <trkpt lat="49.1538" lon="-1.58772">
        <ele>6</ele>
        <time>2020-06-12T05:44:26Z</time>
      </trkpt>
      <trkpt lat="49.15385" lon="-1.58774">
        <ele>6</ele>
        <time>2020-06-12T05:44:27Z</time>
      </trkpt>
      <trkpt lat="49.15391" lon="-1.58775">
        <ele>6</ele>
        <time>2020-06-12T05:44:28Z</time>
      </trkpt>
      <trkpt lat="49.15396" lon="-1.58777">
        <ele>6</ele>
        <time>2020-06-12T05:44:29Z</time>
      </trkpt>
      <trkpt lat="49.154" lon="-1.58777">
        <ele>6</ele>
        <time>2020-06-12T05:44:30Z</time>
      </trkpt>
      <trkpt lat="49.15405" lon="-1.58779">
        <ele>6</ele>
        <time>2020-06-12T05:44:31Z</time>
      </trkpt>
      <trkpt lat="49.15411" lon="-1.58781">
        <ele>6</ele>
        <time>2020-06-12T05:44:32Z</time>
      </trkpt>
      <trkpt lat="49.15416" lon="-1.58783">
        <ele>6</ele>
        <time>2020-06-12T05:44:33Z</time>
      </trkpt>
      <trkpt lat="49.15421" lon="-1.58784">
        <ele>6</ele>
        <time>2020-06-12T05:44:34Z</time>
      </trkpt>
      <trkpt lat="49.15427" lon="-1.58786">
        <ele>6</ele>
        <time>2020-06-12T05:44:35Z</time>
      </trkpt>
      <trkpt lat="49.15432" lon="-1.5879">
        <ele>6</ele>
        <time>2020-06-12T05:44:36Z</time>
      </trkpt>
      <trkpt lat="49.15437" lon="-1.58791">
        <ele>6.1</ele>
        <time>2020-06-12T05:44:37Z</time>
      </trkpt>
      <trkpt lat="49.15443" lon="-1.58791">
        <ele>6.1</ele>
        <time>2020-06-12T05:44:38Z</time>
      </trkpt>
      <trkpt lat="49.15448" lon="-1.58793">
        <ele>6.1</ele>
        <time>2020-06-12T05:44:39Z</time>
      </trkpt>
      <trkpt lat="49.15453" lon="-1.58795">
        <ele>6.1</ele>
        <time>2020-06-12T05:44:40Z</time>
      </trkpt>
      <trkpt lat="49.15457" lon="-1.58797">
        <ele>6.2</ele>
        <time>2020-06-12T05:44:41Z</time>
      </trkpt>
      <trkpt lat="49.15463" lon="-1.58799">
        <ele>6.2</ele>
        <time>2020-06-12T05:44:42Z</time>
      </trkpt>
      <trkpt lat="49.15469" lon="-1.588">
        <ele>6.2</ele>
        <time>2020-06-12T05:44:43Z</time>
      </trkpt>
      <trkpt lat="49.15475" lon="-1.58801">
        <ele>6.2</ele>
        <time>2020-06-12T05:44:44Z</time>
      </trkpt>
      <trkpt lat="49.1548" lon="-1.58802">
        <ele>6.2</ele>
        <time>2020-06-12T05:44:45Z</time>
      </trkpt>
      <trkpt lat="49.15485" lon="-1.58804">
        <ele>6.2</ele>
        <time>2020-06-12T05:44:46Z</time>
      </trkpt>
      <trkpt lat="49.15491" lon="-1.58805">
        <ele>6.3</ele>
        <time>2020-06-12T05:44:47Z</time>
      </trkpt>
      <trkpt lat="49.15496" lon="-1.58806">
        <ele>6.3</ele>
        <time>2020-06-12T05:44:48Z</time>
      </trkpt>
      <trkpt lat="49.15501" lon="-1.58807">
        <ele>6.3</ele>
        <time>2020-06-12T05:44:49Z</time>
      </trkpt>
      <trkpt lat="49.15507" lon="-1.58808">
        <ele>6.3</ele>
        <time>2020-06-12T05:44:50Z</time>
      </trkpt>
      <trkpt lat="49.15512" lon="-1.5881">
        <ele>6.3</ele>
        <time>2020-06-12T05:44:51Z</time>
      </trkpt>
      <trkpt lat="49.15517" lon="-1.58812">
        <ele>6.3</ele>
        <time>2020-06-12T05:44:52Z</time>
      </trkpt>
      <trkpt lat="49.15522" lon="-1.58814">
        <ele>6.3</ele>
        <time>2020-06-12T05:44:53Z</time>
      </trkpt>
      <trkpt lat="49.15527" lon="-1.58815">
        <ele>6.4</ele>
        <time>2020-06-12T05:44:54Z</time>
      </trkpt>
      <trkpt lat="49.15532" lon="-1.58817">
        <ele>6.4</ele>
        <time>2020-06-12T05:44:55Z</time>
      </trkpt>
      <trkpt lat="49.15538" lon="-1.58817">
        <ele>6.4</ele>
        <time>2020-06-12T05:44:56Z</time>
      </trkpt>
      <trkpt lat="49.15544" lon="-1.58818">
        <ele>6.4</ele>
        <time>2020-06-12T05:44:57Z</time>
      </trkpt>
      <trkpt lat="49.15551" lon="-1.58819">
        <ele>6.5</ele>
        <time>2020-06-12T05:44:58Z</time>
      </trkpt>
      <trkpt lat="49.15556" lon="-1.58821">
        <ele>6.5</ele>
        <time>2020-06-12T05:44:59Z</time>
      </trkpt>
      <trkpt lat="49.15561" lon="-1.58823">
        <ele>6.6</ele>
        <time>2020-06-12T05:45:00Z</time>
      </trkpt>
      <trkpt lat="49.15566" lon="-1.58824">
        <ele>6.6</ele>
        <time>2020-06-12T05:45:01Z</time>
      </trkpt>
      <trkpt lat="49.1557" lon="-1.58826">
        <ele>6.7</ele>
        <time>2020-06-12T05:45:02Z</time>
      </trkpt>
      <trkpt lat="49.15576" lon="-1.58827">
        <ele>6.7</ele>
        <time>2020-06-12T05:45:03Z</time>
      </trkpt>
      <trkpt lat="49.15582" lon="-1.58828">
        <ele>6.8</ele>
        <time>2020-06-12T05:45:04Z</time>
      </trkpt>
      <trkpt lat="49.15587" lon="-1.5883">
        <ele>6.8</ele>
        <time>2020-06-12T05:45:05Z</time>
      </trkpt>
      <trkpt lat="49.15592" lon="-1.58831">
        <ele>6.8</ele>
        <time>2020-06-12T05:45:06Z</time>
      </trkpt>
      <trkpt lat="49.15597" lon="-1.58831">
        <ele>6.8</ele>
        <time>2020-06-12T05:45:07Z</time>
      </trkpt>
      <trkpt lat="49.15603" lon="-1.58832">
        <ele>6.8</ele>
        <time>2020-06-12T05:45:08Z</time>
      </trkpt>
      <trkpt lat="49.15608" lon="-1.58833">
        <ele>6.8</ele>
        <time>2020-06-12T05:45:09Z</time>
      </trkpt>
      <trkpt lat="49.15614" lon="-1.58834">
        <ele>6.8</ele>
        <time>2020-06-12T05:45:10Z</time>
      </trkpt>
      <trkpt lat="49.1562" lon="-1.58835">
        <ele>6.8</ele>
        <time>2020-06-12T05:45:11Z</time>
      </trkpt>
      <trkpt lat="49.15626" lon="-1.58836">
        <ele>6.8</ele>
        <time>2020-06-12T05:45:12Z</time>
      </trkpt>
      <trkpt lat="49.1563" lon="-1.58838">
        <ele>6.8</ele>
        <time>2020-06-12T05:45:13Z</time>
      </trkpt>
      <trkpt lat="49.15635" lon="-1.5884">
        <ele>6.8</ele>
        <time>2020-06-12T05:45:14Z</time>
      </trkpt>
      <trkpt lat="49.15641" lon="-1.58841">
        <ele>6.9</ele>
        <time>2020-06-12T05:45:15Z</time>
      </trkpt>
      <trkpt lat="49.15646" lon="-1.58842">
        <ele>6.9</ele>
        <time>2020-06-12T05:45:16Z</time>
      </trkpt>
      <trkpt lat="49.15651" lon="-1.58844">
        <ele>6.9</ele>
        <time>2020-06-12T05:45:17Z</time>
      </trkpt>
      <trkpt lat="49.15656" lon="-1.58845">
        <ele>6.9</ele>
        <time>2020-06-12T05:45:18Z</time>
      </trkpt>
      <trkpt lat="49.15661" lon="-1.58845">
        <ele>7</ele>
        <time>2020-06-12T05:45:19Z</time>
      </trkpt>
      <trkpt lat="49.15666" lon="-1.58846">
        <ele>7.1</ele>
        <time>2020-06-12T05:45:20Z</time>
      </trkpt>
      <trkpt lat="49.15671" lon="-1.58847">
        <ele>7.1</ele>
        <time>2020-06-12T05:45:21Z</time>
      </trkpt>
      <trkpt lat="49.15676" lon="-1.58848">
        <ele>7.2</ele>
        <time>2020-06-12T05:45:22Z</time>
      </trkpt>
      <trkpt lat="49.15682" lon="-1.58849">
        <ele>7.3</ele>
        <time>2020-06-12T05:45:23Z</time>
      </trkpt>
      <trkpt lat="49.15687" lon="-1.58851">
        <ele>7.4</ele>
        <time>2020-06-12T05:45:24Z</time>
      </trkpt>
      <trkpt lat="49.15693" lon="-1.58851">
        <ele>7.4</ele>
        <time>2020-06-12T05:45:25Z</time>
      </trkpt>
      <trkpt lat="49.15699" lon="-1.58852">
        <ele>7.5</ele>
        <time>2020-06-12T05:45:26Z</time>
      </trkpt>
      <trkpt lat="49.15703" lon="-1.58853">
        <ele>7.5</ele>
        <time>2020-06-12T05:45:27Z</time>
      </trkpt>
      <trkpt lat="49.15708" lon="-1.58853">
        <ele>7.5</ele>
        <time>2020-06-12T05:45:28Z</time>
      </trkpt>
      <trkpt lat="49.15713" lon="-1.58854">
        <ele>7.5</ele>
        <time>2020-06-12T05:45:29Z</time>
      </trkpt>
      <trkpt lat="49.15719" lon="-1.58854">
        <ele>7.6</ele>
        <time>2020-06-12T05:45:30Z</time>
      </trkpt>
      <trkpt lat="49.15724" lon="-1.58855">
        <ele>7.6</ele>
        <time>2020-06-12T05:45:31Z</time>
      </trkpt>
      <trkpt lat="49.15729" lon="-1.58856">
        <ele>7.6</ele>
        <time>2020-06-12T05:45:32Z</time>
      </trkpt>
      <trkpt lat="49.15735" lon="-1.58856">
        <ele>7.6</ele>
        <time>2020-06-12T05:45:33Z</time>
      </trkpt>
      <trkpt lat="49.15741" lon="-1.58857">
        <ele>7.6</ele>
        <time>2020-06-12T05:45:34Z</time>
      </trkpt>
      <trkpt lat="49.15747" lon="-1.58857">
        <ele>7.6</ele>
        <time>2020-06-12T05:45:35Z</time>
      </trkpt>
      <trkpt lat="49.15752" lon="-1.58857">
        <ele>7.6</ele>
        <time>2020-06-12T05:45:36Z</time>
      </trkpt>
      <trkpt lat="49.15758" lon="-1.58858">
        <ele>7.6</ele>
        <time>2020-06-12T05:45:37Z</time>
      </trkpt>
      <trkpt lat="49.15763" lon="-1.58858">
        <ele>7.6</ele>
        <time>2020-06-12T05:45:38Z</time>
      </trkpt>
      <trkpt lat="49.15769" lon="-1.58859">
        <ele>7.7</ele>
        <time>2020-06-12T05:45:39Z</time>
      </trkpt>
      <trkpt lat="49.15774" lon="-1.5886">
        <ele>7.7</ele>
        <time>2020-06-12T05:45:40Z</time>
      </trkpt>
      <trkpt lat="49.1578" lon="-1.58861">
        <ele>7.7</ele>
        <time>2020-06-12T05:45:41Z</time>
      </trkpt>
      <trkpt lat="49.15785" lon="-1.58861">
        <ele>7.7</ele>
        <time>2020-06-12T05:45:42Z</time>
      </trkpt>
      <trkpt lat="49.15791" lon="-1.58862">
        <ele>7.7</ele>
        <time>2020-06-12T05:45:43Z</time>
      </trkpt>
      <trkpt lat="49.15796" lon="-1.58863">
        <ele>7.7</ele>
        <time>2020-06-12T05:45:44Z</time>
      </trkpt>
      <trkpt lat="49.15802" lon="-1.58864">
        <ele>7.7</ele>
        <time>2020-06-12T05:45:45Z</time>
      </trkpt>
      <trkpt lat="49.15807" lon="-1.58865">
        <ele>7.7</ele>
        <time>2020-06-12T05:45:46Z</time>
      </trkpt>
      <trkpt lat="49.15812" lon="-1.58865">
        <ele>7.7</ele>
        <time>2020-06-12T05:45:47Z</time>
      </trkpt>
      <trkpt lat="49.15818" lon="-1.58867">
        <ele>7.7</ele>
        <time>2020-06-12T05:45:48Z</time>
      </trkpt>
      <trkpt lat="49.15825" lon="-1.58868">
        <ele>7.7</ele>
        <time>2020-06-12T05:45:49Z</time>
      </trkpt>
      <trkpt lat="49.1583" lon="-1.58869">
        <ele>7.8</ele>
        <time>2020-06-12T05:45:50Z</time>
      </trkpt>
      <trkpt lat="49.15836" lon="-1.5887">
        <ele>7.8</ele>
        <time>2020-06-12T05:45:51Z</time>
      </trkpt>
      <trkpt lat="49.15841" lon="-1.58871">
        <ele>7.8</ele>
        <time>2020-06-12T05:45:52Z</time>
      </trkpt>
      <trkpt lat="49.15847" lon="-1.58871">
        <ele>7.8</ele>
        <time>2020-06-12T05:45:53Z</time>
      </trkpt>
      <trkpt lat="49.15853" lon="-1.58871">
        <ele>7.9</ele>
        <time>2020-06-12T05:45:54Z</time>
      </trkpt>
      <trkpt lat="49.15858" lon="-1.58871">
        <ele>7.9</ele>
        <time>2020-06-12T05:45:55Z</time>
      </trkpt>
      <trkpt lat="49.15863" lon="-1.58871">
        <ele>7.9</ele>
        <time>2020-06-12T05:45:56Z</time>
      </trkpt>
      <trkpt lat="49.15869" lon="-1.58872">
        <ele>7.9</ele>
        <time>2020-06-12T05:45:57Z</time>
      </trkpt>
      <trkpt lat="49.15874" lon="-1.58874">
        <ele>8</ele>
        <time>2020-06-12T05:45:58Z</time>
      </trkpt>
      <trkpt lat="49.15879" lon="-1.58874">
        <ele>8</ele>
        <time>2020-06-12T05:45:59Z</time>
      </trkpt>
      <trkpt lat="49.15884" lon="-1.58875">
        <ele>8</ele>
        <time>2020-06-12T05:46:00Z</time>
      </trkpt>
      <trkpt lat="49.1589" lon="-1.58876">
        <ele>8</ele>
        <time>2020-06-12T05:46:01Z</time>
      </trkpt>
      <trkpt lat="49.15896" lon="-1.58876">
        <ele>8</ele>
        <time>2020-06-12T05:46:02Z</time>
      </trkpt>
      <trkpt lat="49.15901" lon="-1.58876">
        <ele>8.1</ele>
        <time>2020-06-12T05:46:03Z</time>
      </trkpt>
      <trkpt lat="49.15906" lon="-1.58876">
        <ele>8.1</ele>
        <time>2020-06-12T05:46:04Z</time>
      </trkpt>
      <trkpt lat="49.15911" lon="-1.58876">
        <ele>8.1</ele>
        <time>2020-06-12T05:46:05Z</time>
      </trkpt>
      <trkpt lat="49.15916" lon="-1.58875">
        <ele>8.1</ele>
        <time>2020-06-12T05:46:06Z</time>
      </trkpt>
      <trkpt lat="49.15921" lon="-1.58876">
        <ele>8.1</ele>
        <time>2020-06-12T05:46:07Z</time>
      </trkpt>
      <trkpt lat="49.15927" lon="-1.58876">
        <ele>8.2</ele>
        <time>2020-06-12T05:46:08Z</time>
      </trkpt>
      <trkpt lat="49.15932" lon="-1.58877">
        <ele>8.2</ele>
        <time>2020-06-12T05:46:09Z</time>
      </trkpt>
      <trkpt lat="49.15938" lon="-1.5888">
        <ele>8.2</ele>
        <time>2020-06-12T05:46:10Z</time>
      </trkpt>
      <trkpt lat="49.15943" lon="-1.58881">
        <ele>8.2</ele>
        <time>2020-06-12T05:46:11Z</time>
      </trkpt>
      <trkpt lat="49.15949" lon="-1.58881">
        <ele>8.3</ele>
        <time>2020-06-12T05:46:12Z</time>
      </trkpt>
      <trkpt lat="49.15954" lon="-1.58882">
        <ele>8.3</ele>
        <time>2020-06-12T05:46:13Z</time>
      </trkpt>
      <trkpt lat="49.1596" lon="-1.58883">
        <ele>8.3</ele>
        <time>2020-06-12T05:46:14Z</time>
      </trkpt>
      <trkpt lat="49.15965" lon="-1.58883">
        <ele>8.3</ele>
        <time>2020-06-12T05:46:15Z</time>
      </trkpt>
      <trkpt lat="49.15971" lon="-1.58883">
        <ele>8.3</ele>
        <time>2020-06-12T05:46:16Z</time>
      </trkpt>
      <trkpt lat="49.15977" lon="-1.58881">
        <ele>8.3</ele>
        <time>2020-06-12T05:46:17Z</time>
      </trkpt>
      <trkpt lat="49.15981" lon="-1.58882">
        <ele>8.3</ele>
        <time>2020-06-12T05:46:18Z</time>
      </trkpt>
      <trkpt lat="49.15986" lon="-1.58882">
        <ele>8.3</ele>
        <time>2020-06-12T05:46:19Z</time>
      </trkpt>
      <trkpt lat="49.1599" lon="-1.58883">
        <ele>8.3</ele>
        <time>2020-06-12T05:46:20Z</time>
      </trkpt>
      <trkpt lat="49.15996" lon="-1.58884">
        <ele>8.4</ele>
        <time>2020-06-12T05:46:21Z</time>
      </trkpt>
      <trkpt lat="49.16002" lon="-1.58885">
        <ele>8.4</ele>
        <time>2020-06-12T05:46:22Z</time>
      </trkpt>
      <trkpt lat="49.16007" lon="-1.58886">
        <ele>8.4</ele>
        <time>2020-06-12T05:46:23Z</time>
      </trkpt>
      <trkpt lat="49.16012" lon="-1.58887">
        <ele>8.4</ele>
        <time>2020-06-12T05:46:24Z</time>
      </trkpt>
      <trkpt lat="49.16017" lon="-1.58888">
        <ele>8.4</ele>
        <time>2020-06-12T05:46:25Z</time>
      </trkpt>
      <trkpt lat="49.16022" lon="-1.58889">
        <ele>8.4</ele>
        <time>2020-06-12T05:46:26Z</time>
      </trkpt>
      <trkpt lat="49.16026" lon="-1.5889">
        <ele>8.4</ele>
        <time>2020-06-12T05:46:27Z</time>
      </trkpt>
      <trkpt lat="49.16031" lon="-1.5889">
        <ele>8.4</ele>
        <time>2020-06-12T05:46:28Z</time>
      </trkpt>
      <trkpt lat="49.16036" lon="-1.5889">
        <ele>8.4</ele>
        <time>2020-06-12T05:46:29Z</time>
      </trkpt>
      <trkpt lat="49.16042" lon="-1.5889">
        <ele>8.4</ele>
        <time>2020-06-12T05:46:30Z</time>
      </trkpt>
      <trkpt lat="49.16048" lon="-1.58889">
        <ele>8.4</ele>
        <time>2020-06-12T05:46:31Z</time>
      </trkpt>
      <trkpt lat="49.16053" lon="-1.5889">
        <ele>8.5</ele>
        <time>2020-06-12T05:46:32Z</time>
      </trkpt>
      <trkpt lat="49.16058" lon="-1.5889">
        <ele>8.5</ele>
        <time>2020-06-12T05:46:33Z</time>
      </trkpt>
      <trkpt lat="49.16064" lon="-1.58891">
        <ele>8.5</ele>
        <time>2020-06-12T05:46:34Z</time>
      </trkpt>
      <trkpt lat="49.16069" lon="-1.58893">
        <ele>8.6</ele>
        <time>2020-06-12T05:46:35Z</time>
      </trkpt>
      <trkpt lat="49.16074" lon="-1.58893">
        <ele>8.6</ele>
        <time>2020-06-12T05:46:36Z</time>
      </trkpt>
      <trkpt lat="49.1608" lon="-1.58894">
        <ele>8.6</ele>
        <time>2020-06-12T05:46:37Z</time>
      </trkpt>
      <trkpt lat="49.16085" lon="-1.58894">
        <ele>8.6</ele>
        <time>2020-06-12T05:46:38Z</time>
      </trkpt>
      <trkpt lat="49.16089" lon="-1.58895">
        <ele>8.6</ele>
        <time>2020-06-12T05:46:39Z</time>
      </trkpt>
      <trkpt lat="49.16094" lon="-1.58896">
        <ele>8.6</ele>
        <time>2020-06-12T05:46:40Z</time>
      </trkpt>
      <trkpt lat="49.161" lon="-1.58896">
        <ele>8.6</ele>
        <time>2020-06-12T05:46:41Z</time>
      </trkpt>
      <trkpt lat="49.16106" lon="-1.58896">
        <ele>8.6</ele>
        <time>2020-06-12T05:46:42Z</time>
      </trkpt>
      <trkpt lat="49.16111" lon="-1.58897">
        <ele>8.6</ele>
        <time>2020-06-12T05:46:43Z</time>
      </trkpt>
      <trkpt lat="49.16116" lon="-1.58898">
        <ele>8.6</ele>
        <time>2020-06-12T05:46:44Z</time>
      </trkpt>
      <trkpt lat="49.16122" lon="-1.58898">
        <ele>8.7</ele>
        <time>2020-06-12T05:46:45Z</time>
      </trkpt>
      <trkpt lat="49.16128" lon="-1.58899">
        <ele>8.7</ele>
        <time>2020-06-12T05:46:46Z</time>
      </trkpt>
      <trkpt lat="49.16133" lon="-1.589">
        <ele>8.7</ele>
        <time>2020-06-12T05:46:47Z</time>
      </trkpt>
      <trkpt lat="49.16139" lon="-1.589">
        <ele>8.7</ele>
        <time>2020-06-12T05:46:48Z</time>
      </trkpt>
      <trkpt lat="49.16144" lon="-1.58901">
        <ele>8.7</ele>
        <time>2020-06-12T05:46:49Z</time>
      </trkpt>
      <trkpt lat="49.16149" lon="-1.58902">
        <ele>8.7</ele>
        <time>2020-06-12T05:46:50Z</time>
      </trkpt>
      <trkpt lat="49.16155" lon="-1.58903">
        <ele>8.7</ele>
        <time>2020-06-12T05:46:51Z</time>
      </trkpt>
      <trkpt lat="49.1616" lon="-1.58903">
        <ele>8.8</ele>
        <time>2020-06-12T05:46:52Z</time>
      </trkpt>
      <trkpt lat="49.16166" lon="-1.58904">
        <ele>8.8</ele>
        <time>2020-06-12T05:46:53Z</time>
      </trkpt>
      <trkpt lat="49.16172" lon="-1.58905">
        <ele>8.9</ele>
        <time>2020-06-12T05:46:54Z</time>
      </trkpt>
      <trkpt lat="49.16176" lon="-1.58905">
        <ele>8.9</ele>
        <time>2020-06-12T05:46:55Z</time>
      </trkpt>
      <trkpt lat="49.16181" lon="-1.58905">
        <ele>8.9</ele>
        <time>2020-06-12T05:46:56Z</time>
      </trkpt>
      <trkpt lat="49.16186" lon="-1.58906">
        <ele>9</ele>
        <time>2020-06-12T05:46:57Z</time>
      </trkpt>
      <trkpt lat="49.16191" lon="-1.58906">
        <ele>9</ele>
        <time>2020-06-12T05:46:58Z</time>
      </trkpt>
      <trkpt lat="49.16196" lon="-1.58907">
        <ele>9</ele>
        <time>2020-06-12T05:46:59Z</time>
      </trkpt>
      <trkpt lat="49.16201" lon="-1.58907">
        <ele>9</ele>
        <time>2020-06-12T05:47:00Z</time>
      </trkpt>
      <trkpt lat="49.16207" lon="-1.58907">
        <ele>9</ele>
        <time>2020-06-12T05:47:01Z</time>
      </trkpt>
      <trkpt lat="49.16212" lon="-1.58908">
        <ele>9</ele>
        <time>2020-06-12T05:47:02Z</time>
      </trkpt>
      <trkpt lat="49.16217" lon="-1.58909">
        <ele>9.1</ele>
        <time>2020-06-12T05:47:03Z</time>
      </trkpt>
      <trkpt lat="49.16224" lon="-1.5891">
        <ele>9.1</ele>
        <time>2020-06-12T05:47:04Z</time>
      </trkpt>
      <trkpt lat="49.1623" lon="-1.5891">
        <ele>9.1</ele>
        <time>2020-06-12T05:47:05Z</time>
      </trkpt>
      <trkpt lat="49.16236" lon="-1.5891">
        <ele>9.2</ele>
        <time>2020-06-12T05:47:06Z</time>
      </trkpt>
      <trkpt lat="49.16242" lon="-1.5891">
        <ele>9.2</ele>
        <time>2020-06-12T05:47:07Z</time>
      </trkpt>
      <trkpt lat="49.16247" lon="-1.5891">
        <ele>9.2</ele>
        <time>2020-06-12T05:47:08Z</time>
      </trkpt>
      <trkpt lat="49.16252" lon="-1.58911">
        <ele>9.1</ele>
        <time>2020-06-12T05:47:09Z</time>
      </trkpt>
      <trkpt lat="49.16257" lon="-1.58912">
        <ele>9.1</ele>
        <time>2020-06-12T05:47:10Z</time>
      </trkpt>
      <trkpt lat="49.16262" lon="-1.58912">
        <ele>9.1</ele>
        <time>2020-06-12T05:47:11Z</time>
      </trkpt>
      <trkpt lat="49.16267" lon="-1.58913">
        <ele>9.2</ele>
        <time>2020-06-12T05:47:12Z</time>
      </trkpt>
      <trkpt lat="49.16272" lon="-1.58913">
        <ele>9.2</ele>
        <time>2020-06-12T05:47:13Z</time>
      </trkpt>
      <trkpt lat="49.16278" lon="-1.58914">
        <ele>9.2</ele>
        <time>2020-06-12T05:47:14Z</time>
      </trkpt>
      <trkpt lat="49.16283" lon="-1.58915">
        <ele>9.2</ele>
        <time>2020-06-12T05:47:15Z</time>
      </trkpt>
      <trkpt lat="49.16288" lon="-1.58916">
        <ele>9.2</ele>
        <time>2020-06-12T05:47:16Z</time>
      </trkpt>
      <trkpt lat="49.16293" lon="-1.58916">
        <ele>9.2</ele>
        <time>2020-06-12T05:47:17Z</time>
      </trkpt>
      <trkpt lat="49.16299" lon="-1.58914">
        <ele>9.2</ele>
        <time>2020-06-12T05:47:18Z</time>
      </trkpt>
      <trkpt lat="49.16305" lon="-1.58913">
        <ele>9.2</ele>
        <time>2020-06-12T05:47:19Z</time>
      </trkpt>
      <trkpt lat="49.16311" lon="-1.58914">
        <ele>9.2</ele>
        <time>2020-06-12T05:47:20Z</time>
      </trkpt>
      <trkpt lat="49.16316" lon="-1.58914">
        <ele>9.2</ele>
        <time>2020-06-12T05:47:21Z</time>
      </trkpt>
      <trkpt lat="49.16322" lon="-1.58913">
        <ele>9.2</ele>
        <time>2020-06-12T05:47:22Z</time>
      </trkpt>
      <trkpt lat="49.16328" lon="-1.58913">
        <ele>9.2</ele>
        <time>2020-06-12T05:47:23Z</time>
      </trkpt>
      <trkpt lat="49.16333" lon="-1.58913">
        <ele>9.2</ele>
        <time>2020-06-12T05:47:24Z</time>
      </trkpt>
      <trkpt lat="49.16338" lon="-1.58914">
        <ele>9.2</ele>
        <time>2020-06-12T05:47:25Z</time>
      </trkpt>
      <trkpt lat="49.16343" lon="-1.58914">
        <ele>9.2</ele>
        <time>2020-06-12T05:47:26Z</time>
      </trkpt>
      <trkpt lat="49.16349" lon="-1.58915">
        <ele>9.2</ele>
        <time>2020-06-12T05:47:27Z</time>
      </trkpt>
      <trkpt lat="49.16355" lon="-1.58915">
        <ele>9.2</ele>
        <time>2020-06-12T05:47:28Z</time>
      </trkpt>
      <trkpt lat="49.16361" lon="-1.58914">
        <ele>9.1</ele>
        <time>2020-06-12T05:47:29Z</time>
      </trkpt>
      <trkpt lat="49.16367" lon="-1.58914">
        <ele>9.1</ele>
        <time>2020-06-12T05:47:30Z</time>
      </trkpt>
      <trkpt lat="49.16372" lon="-1.58913">
        <ele>9.1</ele>
        <time>2020-06-12T05:47:31Z</time>
      </trkpt>
      <trkpt lat="49.16378" lon="-1.58912">
        <ele>9</ele>
        <time>2020-06-12T05:47:32Z</time>
      </trkpt>
      <trkpt lat="49.16384" lon="-1.58912">
        <ele>9</ele>
        <time>2020-06-12T05:47:33Z</time>
      </trkpt>
      <trkpt lat="49.1639" lon="-1.58912">
        <ele>9</ele>
        <time>2020-06-12T05:47:34Z</time>
      </trkpt>
      <trkpt lat="49.16395" lon="-1.58911">
        <ele>9</ele>
        <time>2020-06-12T05:47:35Z</time>
      </trkpt>
      <trkpt lat="49.16401" lon="-1.58912">
        <ele>8.9</ele>
        <time>2020-06-12T05:47:36Z</time>
      </trkpt>
      <trkpt lat="49.16406" lon="-1.58911">
        <ele>8.9</ele>
        <time>2020-06-12T05:47:37Z</time>
      </trkpt>
      <trkpt lat="49.16412" lon="-1.58912">
        <ele>8.8</ele>
        <time>2020-06-12T05:47:38Z</time>
      </trkpt>
      <trkpt lat="49.16417" lon="-1.58911">
        <ele>8.8</ele>
        <time>2020-06-12T05:47:39Z</time>
      </trkpt>
      <trkpt lat="49.16424" lon="-1.5891">
        <ele>8.8</ele>
        <time>2020-06-12T05:47:40Z</time>
      </trkpt>
      <trkpt lat="49.1643" lon="-1.58911">
        <ele>8.7</ele>
        <time>2020-06-12T05:47:41Z</time>
      </trkpt>
      <trkpt lat="49.16435" lon="-1.58911">
        <ele>8.7</ele>
        <time>2020-06-12T05:47:42Z</time>
      </trkpt>
      <trkpt lat="49.16441" lon="-1.58909">
        <ele>8.7</ele>
        <time>2020-06-12T05:47:43Z</time>
      </trkpt>
      <trkpt lat="49.16446" lon="-1.5891">
        <ele>8.7</ele>
        <time>2020-06-12T05:47:44Z</time>
      </trkpt>
      <trkpt lat="49.16451" lon="-1.5891">
        <ele>8.7</ele>
        <time>2020-06-12T05:47:45Z</time>
      </trkpt>
      <trkpt lat="49.16455" lon="-1.58909">
        <ele>8.7</ele>
        <time>2020-06-12T05:47:46Z</time>
      </trkpt>
      <trkpt lat="49.1646" lon="-1.58909">
        <ele>8.7</ele>
        <time>2020-06-12T05:47:47Z</time>
      </trkpt>
      <trkpt lat="49.16466" lon="-1.58908">
        <ele>8.7</ele>
        <time>2020-06-12T05:47:48Z</time>
      </trkpt>
      <trkpt lat="49.16471" lon="-1.58907">
        <ele>8.6</ele>
        <time>2020-06-12T05:47:49Z</time>
      </trkpt>
      <trkpt lat="49.16476" lon="-1.58907">
        <ele>8.6</ele>
        <time>2020-06-12T05:47:50Z</time>
      </trkpt>
      <trkpt lat="49.16482" lon="-1.58908">
        <ele>8.5</ele>
        <time>2020-06-12T05:47:51Z</time>
      </trkpt>
      <trkpt lat="49.16488" lon="-1.58909">
        <ele>8.5</ele>
        <time>2020-06-12T05:47:52Z</time>
      </trkpt>
      <trkpt lat="49.16493" lon="-1.58908">
        <ele>8.4</ele>
        <time>2020-06-12T05:47:53Z</time>
      </trkpt>
      <trkpt lat="49.16499" lon="-1.58908">
        <ele>8.4</ele>
        <time>2020-06-12T05:47:54Z</time>
      </trkpt>
      <trkpt lat="49.16504" lon="-1.58907">
        <ele>8.3</ele>
        <time>2020-06-12T05:47:55Z</time>
      </trkpt>
      <trkpt lat="49.1651" lon="-1.58907">
        <ele>8.3</ele>
        <time>2020-06-12T05:47:56Z</time>
      </trkpt>
      <trkpt lat="49.16516" lon="-1.58908">
        <ele>8.3</ele>
        <time>2020-06-12T05:47:57Z</time>
      </trkpt>
      <trkpt lat="49.16522" lon="-1.58907">
        <ele>8.3</ele>
        <time>2020-06-12T05:47:58Z</time>
      </trkpt>
      <trkpt lat="49.16528" lon="-1.58908">
        <ele>8.4</ele>
        <time>2020-06-12T05:47:59Z</time>
      </trkpt>
      <trkpt lat="49.16533" lon="-1.58908">
        <ele>8.4</ele>
        <time>2020-06-12T05:48:00Z</time>
      </trkpt>
      <trkpt lat="49.1654" lon="-1.58907">
        <ele>8.3</ele>
        <time>2020-06-12T05:48:01Z</time>
      </trkpt>
      <trkpt lat="49.16546" lon="-1.58907">
        <ele>8.3</ele>
        <time>2020-06-12T05:48:02Z</time>
      </trkpt>
      <trkpt lat="49.16552" lon="-1.58906">
        <ele>8.2</ele>
        <time>2020-06-12T05:48:03Z</time>
      </trkpt>
      <trkpt lat="49.16557" lon="-1.58905">
        <ele>8.2</ele>
        <time>2020-06-12T05:48:04Z</time>
      </trkpt>
      <trkpt lat="49.16563" lon="-1.58905">
        <ele>8.1</ele>
        <time>2020-06-12T05:48:05Z</time>
      </trkpt>
      <trkpt lat="49.16568" lon="-1.58906">
        <ele>8.1</ele>
        <time>2020-06-12T05:48:06Z</time>
      </trkpt>
      <trkpt lat="49.16574" lon="-1.58907">
        <ele>8.1</ele>
        <time>2020-06-12T05:48:07Z</time>
      </trkpt>
      <trkpt lat="49.1658" lon="-1.58906">
        <ele>8</ele>
        <time>2020-06-12T05:48:08Z</time>
      </trkpt>
      <trkpt lat="49.16585" lon="-1.58906">
        <ele>8</ele>
        <time>2020-06-12T05:48:09Z</time>
      </trkpt>
      <trkpt lat="49.1659" lon="-1.58906">
        <ele>8</ele>
        <time>2020-06-12T05:48:10Z</time>
      </trkpt>
      <trkpt lat="49.16596" lon="-1.58907">
        <ele>8</ele>
        <time>2020-06-12T05:48:11Z</time>
      </trkpt>
      <trkpt lat="49.16602" lon="-1.58907">
        <ele>8.1</ele>
        <time>2020-06-12T05:48:12Z</time>
      </trkpt>
      <trkpt lat="49.16608" lon="-1.58907">
        <ele>8.1</ele>
        <time>2020-06-12T05:48:13Z</time>
      </trkpt>
      <trkpt lat="49.16614" lon="-1.58908">
        <ele>8.1</ele>
        <time>2020-06-12T05:48:14Z</time>
      </trkpt>
      <trkpt lat="49.1662" lon="-1.58908">
        <ele>8.1</ele>
        <time>2020-06-12T05:48:15Z</time>
      </trkpt>
      <trkpt lat="49.16626" lon="-1.58908">
        <ele>8</ele>
        <time>2020-06-12T05:48:16Z</time>
      </trkpt>
      <trkpt lat="49.16632" lon="-1.58909">
        <ele>8</ele>
        <time>2020-06-12T05:48:17Z</time>
      </trkpt>
      <trkpt lat="49.16638" lon="-1.5891">
        <ele>8</ele>
        <time>2020-06-12T05:48:18Z</time>
      </trkpt>
      <trkpt lat="49.16644" lon="-1.58911">
        <ele>8</ele>
        <time>2020-06-12T05:48:19Z</time>
      </trkpt>
      <trkpt lat="49.1665" lon="-1.58912">
        <ele>8</ele>
        <time>2020-06-12T05:48:20Z</time>
      </trkpt>
      <trkpt lat="49.16656" lon="-1.58913">
        <ele>7.9</ele>
        <time>2020-06-12T05:48:21Z</time>
      </trkpt>
      <trkpt lat="49.16662" lon="-1.58913">
        <ele>7.9</ele>
        <time>2020-06-12T05:48:22Z</time>
      </trkpt>
      <trkpt lat="49.16667" lon="-1.58915">
        <ele>7.9</ele>
        <time>2020-06-12T05:48:23Z</time>
      </trkpt>
      <trkpt lat="49.16673" lon="-1.58916">
        <ele>7.9</ele>
        <time>2020-06-12T05:48:24Z</time>
      </trkpt>
      <trkpt lat="49.16678" lon="-1.58916">
        <ele>7.9</ele>
        <time>2020-06-12T05:48:25Z</time>
      </trkpt>
      <trkpt lat="49.16684" lon="-1.58917">
        <ele>7.9</ele>
        <time>2020-06-12T05:48:26Z</time>
      </trkpt>
      <trkpt lat="49.1669" lon="-1.58918">
        <ele>7.9</ele>
        <time>2020-06-12T05:48:27Z</time>
      </trkpt>
      <trkpt lat="49.16696" lon="-1.58917">
        <ele>7.9</ele>
        <time>2020-06-12T05:48:28Z</time>
      </trkpt>
      <trkpt lat="49.16701" lon="-1.58916">
        <ele>7.9</ele>
        <time>2020-06-12T05:48:29Z</time>
      </trkpt>
      <trkpt lat="49.16707" lon="-1.58914">
        <ele>7.9</ele>
        <time>2020-06-12T05:48:30Z</time>
      </trkpt>
      <trkpt lat="49.16713" lon="-1.58912">
        <ele>7.9</ele>
        <time>2020-06-12T05:48:31Z</time>
      </trkpt>
      <trkpt lat="49.16719" lon="-1.58911">
        <ele>7.9</ele>
        <time>2020-06-12T05:48:32Z</time>
      </trkpt>
      <trkpt lat="49.16725" lon="-1.5891">
        <ele>7.9</ele>
        <time>2020-06-12T05:48:33Z</time>
      </trkpt>
      <trkpt lat="49.1673" lon="-1.58908">
        <ele>7.9</ele>
        <time>2020-06-12T05:48:34Z</time>
      </trkpt>
      <trkpt lat="49.16736" lon="-1.58906">
        <ele>7.9</ele>
        <time>2020-06-12T05:48:35Z</time>
      </trkpt>
      <trkpt lat="49.16742" lon="-1.58903">
        <ele>7.8</ele>
        <time>2020-06-12T05:48:36Z</time>
      </trkpt>
      <trkpt lat="49.16748" lon="-1.58899">
        <ele>7.7</ele>
        <time>2020-06-12T05:48:37Z</time>
      </trkpt>
      <trkpt lat="49.16752" lon="-1.58894">
        <ele>7.6</ele>
        <time>2020-06-12T05:48:38Z</time>
      </trkpt>
      <trkpt lat="49.16757" lon="-1.5889">
        <ele>7.6</ele>
        <time>2020-06-12T05:48:39Z</time>
      </trkpt>
      <trkpt lat="49.16762" lon="-1.58887">
        <ele>7.5</ele>
        <time>2020-06-12T05:48:40Z</time>
      </trkpt>
      <trkpt lat="49.16767" lon="-1.58886">
        <ele>7.5</ele>
        <time>2020-06-12T05:48:41Z</time>
      </trkpt>
      <trkpt lat="49.16773" lon="-1.58885">
        <ele>7.4</ele>
        <time>2020-06-12T05:48:42Z</time>
      </trkpt>
      <trkpt lat="49.16778" lon="-1.58887">
        <ele>7.4</ele>
        <time>2020-06-12T05:48:43Z</time>
      </trkpt>
      <trkpt lat="49.16782" lon="-1.58892">
        <ele>7.5</ele>
        <time>2020-06-12T05:48:44Z</time>
      </trkpt>
      <trkpt lat="49.16787" lon="-1.58899">
        <ele>7.5</ele>
        <time>2020-06-12T05:48:45Z</time>
      </trkpt>
      <trkpt lat="49.16791" lon="-1.58904">
        <ele>7.5</ele>
        <time>2020-06-12T05:48:46Z</time>
      </trkpt>
      <trkpt lat="49.16796" lon="-1.5891">
        <ele>7.5</ele>
        <time>2020-06-12T05:48:47Z</time>
      </trkpt>
      <trkpt lat="49.16802" lon="-1.58914">
        <ele>7.5</ele>
        <time>2020-06-12T05:48:48Z</time>
      </trkpt>
      <trkpt lat="49.16807" lon="-1.58916">
        <ele>7.4</ele>
        <time>2020-06-12T05:48:49Z</time>
      </trkpt>
      <trkpt lat="49.16813" lon="-1.58916">
        <ele>7.4</ele>
        <time>2020-06-12T05:48:50Z</time>
      </trkpt>
      <trkpt lat="49.16819" lon="-1.58916">
        <ele>7.4</ele>
        <time>2020-06-12T05:48:51Z</time>
      </trkpt>
      <trkpt lat="49.16825" lon="-1.58916">
        <ele>7.4</ele>
        <time>2020-06-12T05:48:52Z</time>
      </trkpt>
      <trkpt lat="49.16831" lon="-1.58916">
        <ele>7.3</ele>
        <time>2020-06-12T05:48:53Z</time>
      </trkpt>
      <trkpt lat="49.16837" lon="-1.58917">
        <ele>7.3</ele>
        <time>2020-06-12T05:48:54Z</time>
      </trkpt>
      <trkpt lat="49.16844" lon="-1.58917">
        <ele>7.3</ele>
        <time>2020-06-12T05:48:55Z</time>
      </trkpt>
      <trkpt lat="49.1685" lon="-1.58917">
        <ele>7.3</ele>
        <time>2020-06-12T05:48:56Z</time>
      </trkpt>
      <trkpt lat="49.16856" lon="-1.58918">
        <ele>7.3</ele>
        <time>2020-06-12T05:48:57Z</time>
      </trkpt>
      <trkpt lat="49.16862" lon="-1.58918">
        <ele>7.2</ele>
        <time>2020-06-12T05:48:58Z</time>
      </trkpt>
      <trkpt lat="49.16867" lon="-1.58918">
        <ele>7.2</ele>
        <time>2020-06-12T05:48:59Z</time>
      </trkpt>
      <trkpt lat="49.16873" lon="-1.58918">
        <ele>7.2</ele>
        <time>2020-06-12T05:49:00Z</time>
      </trkpt>
      <trkpt lat="49.16878" lon="-1.58918">
        <ele>7.1</ele>
        <time>2020-06-12T05:49:01Z</time>
      </trkpt>
      <trkpt lat="49.16884" lon="-1.58919">
        <ele>7.1</ele>
        <time>2020-06-12T05:49:02Z</time>
      </trkpt>
      <trkpt lat="49.1689" lon="-1.5892">
        <ele>7.1</ele>
        <time>2020-06-12T05:49:03Z</time>
      </trkpt>
      <trkpt lat="49.16895" lon="-1.58921">
        <ele>7.1</ele>
        <time>2020-06-12T05:49:04Z</time>
      </trkpt>
      <trkpt lat="49.169" lon="-1.58923">
        <ele>7</ele>
        <time>2020-06-12T05:49:05Z</time>
      </trkpt>
      <trkpt lat="49.16906" lon="-1.58922">
        <ele>7</ele>
        <time>2020-06-12T05:49:06Z</time>
      </trkpt>
      <trkpt lat="49.16912" lon="-1.58922">
        <ele>7</ele>
        <time>2020-06-12T05:49:07Z</time>
      </trkpt>
      <trkpt lat="49.16919" lon="-1.58923">
        <ele>7</ele>
        <time>2020-06-12T05:49:08Z</time>
      </trkpt>
      <trkpt lat="49.16925" lon="-1.58924">
        <ele>7</ele>
        <time>2020-06-12T05:49:09Z</time>
      </trkpt>
      <trkpt lat="49.16931" lon="-1.58925">
        <ele>7</ele>
        <time>2020-06-12T05:49:10Z</time>
      </trkpt>
      <trkpt lat="49.16937" lon="-1.58927">
        <ele>7</ele>
        <time>2020-06-12T05:49:11Z</time>
      </trkpt>
      <trkpt lat="49.16942" lon="-1.58927">
        <ele>7</ele>
        <time>2020-06-12T05:49:12Z</time>
      </trkpt>
      <trkpt lat="49.16947" lon="-1.58928">
        <ele>7</ele>
        <time>2020-06-12T05:49:13Z</time>
      </trkpt>
      <trkpt lat="49.16953" lon="-1.58929">
        <ele>7.1</ele>
        <time>2020-06-12T05:49:14Z</time>
      </trkpt>
      <trkpt lat="49.16959" lon="-1.5893">
        <ele>7.1</ele>
        <time>2020-06-12T05:49:15Z</time>
      </trkpt>
      <trkpt lat="49.16965" lon="-1.58932">
        <ele>7.1</ele>
        <time>2020-06-12T05:49:16Z</time>
      </trkpt>
      <trkpt lat="49.16971" lon="-1.58932">
        <ele>7.1</ele>
        <time>2020-06-12T05:49:17Z</time>
      </trkpt>
      <trkpt lat="49.16976" lon="-1.58932">
        <ele>7.1</ele>
        <time>2020-06-12T05:49:18Z</time>
      </trkpt>
      <trkpt lat="49.16982" lon="-1.58933">
        <ele>7.1</ele>
        <time>2020-06-12T05:49:19Z</time>
      </trkpt>
      <trkpt lat="49.16988" lon="-1.58933">
        <ele>7.1</ele>
        <time>2020-06-12T05:49:20Z</time>
      </trkpt>
      <trkpt lat="49.16993" lon="-1.58933">
        <ele>7.1</ele>
        <time>2020-06-12T05:49:21Z</time>
      </trkpt>
      <trkpt lat="49.16999" lon="-1.58933">
        <ele>7.1</ele>
        <time>2020-06-12T05:49:22Z</time>
      </trkpt>
      <trkpt lat="49.17005" lon="-1.58933">
        <ele>7.2</ele>
        <time>2020-06-12T05:49:23Z</time>
      </trkpt>
      <trkpt lat="49.1701" lon="-1.58933">
        <ele>7.2</ele>
        <time>2020-06-12T05:49:24Z</time>
      </trkpt>
      <trkpt lat="49.17015" lon="-1.58933">
        <ele>7.2</ele>
        <time>2020-06-12T05:49:25Z</time>
      </trkpt>
      <trkpt lat="49.17021" lon="-1.58932">
        <ele>7.2</ele>
        <time>2020-06-12T05:49:26Z</time>
      </trkpt>
      <trkpt lat="49.17027" lon="-1.58931">
        <ele>7.2</ele>
        <time>2020-06-12T05:49:27Z</time>
      </trkpt>
      <trkpt lat="49.17032" lon="-1.58931">
        <ele>7.3</ele>
        <time>2020-06-12T05:49:28Z</time>
      </trkpt>
      <trkpt lat="49.17037" lon="-1.58931">
        <ele>7.3</ele>
        <time>2020-06-12T05:49:29Z</time>
      </trkpt>
      <trkpt lat="49.17042" lon="-1.58932">
        <ele>7.3</ele>
        <time>2020-06-12T05:49:30Z</time>
      </trkpt>
      <trkpt lat="49.17047" lon="-1.58932">
        <ele>7.3</ele>
        <time>2020-06-12T05:49:31Z</time>
      </trkpt>
      <trkpt lat="49.17053" lon="-1.58932">
        <ele>7.4</ele>
        <time>2020-06-12T05:49:32Z</time>
      </trkpt>
      <trkpt lat="49.17058" lon="-1.58933">
        <ele>7.4</ele>
        <time>2020-06-12T05:49:33Z</time>
      </trkpt>
      <trkpt lat="49.17063" lon="-1.58932">
        <ele>7.4</ele>
        <time>2020-06-12T05:49:34Z</time>
      </trkpt>
      <trkpt lat="49.17069" lon="-1.58931">
        <ele>7.5</ele>
        <time>2020-06-12T05:49:35Z</time>
      </trkpt>
      <trkpt lat="49.17074" lon="-1.5893">
        <ele>7.5</ele>
        <time>2020-06-12T05:49:36Z</time>
      </trkpt>
      <trkpt lat="49.1708" lon="-1.5893">
        <ele>7.5</ele>
        <time>2020-06-12T05:49:37Z</time>
      </trkpt>
      <trkpt lat="49.17085" lon="-1.5893">
        <ele>7.6</ele>
        <time>2020-06-12T05:49:38Z</time>
      </trkpt>
      <trkpt lat="49.17091" lon="-1.58929">
        <ele>7.7</ele>
        <time>2020-06-12T05:49:39Z</time>
      </trkpt>
      <trkpt lat="49.17096" lon="-1.58929">
        <ele>7.8</ele>
        <time>2020-06-12T05:49:40Z</time>
      </trkpt>
      <trkpt lat="49.17101" lon="-1.58928">
        <ele>7.9</ele>
        <time>2020-06-12T05:49:41Z</time>
      </trkpt>
      <trkpt lat="49.17107" lon="-1.58926">
        <ele>8.2</ele>
        <time>2020-06-12T05:49:42Z</time>
      </trkpt>
      <trkpt lat="49.17112" lon="-1.58924">
        <ele>8.2</ele>
        <time>2020-06-12T05:49:43Z</time>
      </trkpt>
      <trkpt lat="49.17118" lon="-1.58923">
        <ele>8.3</ele>
        <time>2020-06-12T05:49:44Z</time>
      </trkpt>
      <trkpt lat="49.17123" lon="-1.58923">
        <ele>8.3</ele>
        <time>2020-06-12T05:49:45Z</time>
      </trkpt>
      <trkpt lat="49.17128" lon="-1.58922">
        <ele>8.3</ele>
        <time>2020-06-12T05:49:46Z</time>
      </trkpt>
      <trkpt lat="49.17133" lon="-1.58921">
        <ele>8.3</ele>
        <time>2020-06-12T05:49:47Z</time>
      </trkpt>
      <trkpt lat="49.17139" lon="-1.58919">
        <ele>8.4</ele>
        <time>2020-06-12T05:49:48Z</time>
      </trkpt>
      <trkpt lat="49.17145" lon="-1.58918">
        <ele>8.4</ele>
        <time>2020-06-12T05:49:49Z</time>
      </trkpt>
      <trkpt lat="49.17151" lon="-1.58916">
        <ele>8.4</ele>
        <time>2020-06-12T05:49:50Z</time>
      </trkpt>
      <trkpt lat="49.17156" lon="-1.58915">
        <ele>8.5</ele>
        <time>2020-06-12T05:49:51Z</time>
      </trkpt>
      <trkpt lat="49.17162" lon="-1.58913">
        <ele>8.5</ele>
        <time>2020-06-12T05:49:52Z</time>
      </trkpt>
      <trkpt lat="49.17168" lon="-1.58911">
        <ele>8.5</ele>
        <time>2020-06-12T05:49:53Z</time>
      </trkpt>
      <trkpt lat="49.17174" lon="-1.58909">
        <ele>8.5</ele>
        <time>2020-06-12T05:49:54Z</time>
      </trkpt>
      <trkpt lat="49.17179" lon="-1.58906">
        <ele>8.6</ele>
        <time>2020-06-12T05:49:55Z</time>
      </trkpt>
      <trkpt lat="49.17185" lon="-1.58905">
        <ele>8.6</ele>
        <time>2020-06-12T05:49:56Z</time>
      </trkpt>
      <trkpt lat="49.1719" lon="-1.58904">
        <ele>8.6</ele>
        <time>2020-06-12T05:49:57Z</time>
      </trkpt>
      <trkpt lat="49.17195" lon="-1.58902">
        <ele>8.6</ele>
        <time>2020-06-12T05:49:58Z</time>
      </trkpt>
      <trkpt lat="49.172" lon="-1.589">
        <ele>8.7</ele>
        <time>2020-06-12T05:49:59Z</time>
      </trkpt>
      <trkpt lat="49.17205" lon="-1.58898">
        <ele>8.7</ele>
        <time>2020-06-12T05:50:00Z</time>
      </trkpt>
      <trkpt lat="49.17211" lon="-1.58896">
        <ele>8.7</ele>
        <time>2020-06-12T05:50:01Z</time>
      </trkpt>
      <trkpt lat="49.17216" lon="-1.58894">
        <ele>8.7</ele>
        <time>2020-06-12T05:50:02Z</time>
      </trkpt>
      <trkpt lat="49.17221" lon="-1.58892">
        <ele>8.7</ele>
        <time>2020-06-12T05:50:03Z</time>
      </trkpt>
      <trkpt lat="49.17227" lon="-1.5889">
        <ele>8.7</ele>
        <time>2020-06-12T05:50:04Z</time>
      </trkpt>
      <trkpt lat="49.17232" lon="-1.58887">
        <ele>8.7</ele>
        <time>2020-06-12T05:50:05Z</time>
      </trkpt>
      <trkpt lat="49.17237" lon="-1.58885">
        <ele>8.7</ele>
        <time>2020-06-12T05:50:06Z</time>
      </trkpt>
      <trkpt lat="49.17242" lon="-1.58882">
        <ele>8.6</ele>
        <time>2020-06-12T05:50:07Z</time>
      </trkpt>
      <trkpt lat="49.17247" lon="-1.5888">
        <ele>8.6</ele>
        <time>2020-06-12T05:50:08Z</time>
      </trkpt>
      <trkpt lat="49.17253" lon="-1.58877">
        <ele>8.6</ele>
        <time>2020-06-12T05:50:09Z</time>
      </trkpt>
      <trkpt lat="49.17258" lon="-1.58875">
        <ele>8.6</ele>
        <time>2020-06-12T05:50:10Z</time>
      </trkpt>
      <trkpt lat="49.17264" lon="-1.58873">
        <ele>8.6</ele>
        <time>2020-06-12T05:50:11Z</time>
      </trkpt>
      <trkpt lat="49.17269" lon="-1.58871">
        <ele>8.6</ele>
        <time>2020-06-12T05:50:12Z</time>
      </trkpt>
      <trkpt lat="49.17275" lon="-1.58869">
        <ele>8.6</ele>
        <time>2020-06-12T05:50:13Z</time>
      </trkpt>
      <trkpt lat="49.1728" lon="-1.58867">
        <ele>8.6</ele>
        <time>2020-06-12T05:50:14Z</time>
      </trkpt>
      <trkpt lat="49.17285" lon="-1.58864">
        <ele>8.7</ele>
        <time>2020-06-12T05:50:15Z</time>
      </trkpt>
      <trkpt lat="49.17291" lon="-1.58862">
        <ele>8.7</ele>
        <time>2020-06-12T05:50:16Z</time>
      </trkpt>
      <trkpt lat="49.17297" lon="-1.5886">
        <ele>8.6</ele>
        <time>2020-06-12T05:50:17Z</time>
      </trkpt>
      <trkpt lat="49.17303" lon="-1.58858">
        <ele>8.6</ele>
        <time>2020-06-12T05:50:18Z</time>
      </trkpt>
      <trkpt lat="49.17308" lon="-1.58855">
        <ele>8.6</ele>
        <time>2020-06-12T05:50:19Z</time>
      </trkpt>
      <trkpt lat="49.17313" lon="-1.58852">
        <ele>8.5</ele>
        <time>2020-06-12T05:50:20Z</time>
      </trkpt>
      <trkpt lat="49.17319" lon="-1.5885">
        <ele>8.5</ele>
        <time>2020-06-12T05:50:21Z</time>
      </trkpt>
      <trkpt lat="49.17325" lon="-1.58848">
        <ele>8.4</ele>
        <time>2020-06-12T05:50:22Z</time>
      </trkpt>
      <trkpt lat="49.17331" lon="-1.58846">
        <ele>8.4</ele>
        <time>2020-06-12T05:50:23Z</time>
      </trkpt>
      <trkpt lat="49.17336" lon="-1.58844">
        <ele>8.4</ele>
        <time>2020-06-12T05:50:24Z</time>
      </trkpt>
      <trkpt lat="49.17342" lon="-1.58842">
        <ele>8.4</ele>
        <time>2020-06-12T05:50:25Z</time>
      </trkpt>
      <trkpt lat="49.17348" lon="-1.5884">
        <ele>8.4</ele>
        <time>2020-06-12T05:50:26Z</time>
      </trkpt>
      <trkpt lat="49.17353" lon="-1.58838">
        <ele>8.3</ele>
        <time>2020-06-12T05:50:27Z</time>
      </trkpt>
      <trkpt lat="49.17359" lon="-1.58835">
        <ele>8.3</ele>
        <time>2020-06-12T05:50:28Z</time>
      </trkpt>
      <trkpt lat="49.17364" lon="-1.58833">
        <ele>8.3</ele>
        <time>2020-06-12T05:50:29Z</time>
      </trkpt>
      <trkpt lat="49.1737" lon="-1.5883">
        <ele>8.3</ele>
        <time>2020-06-12T05:50:30Z</time>
      </trkpt>
      <trkpt lat="49.17376" lon="-1.58827">
        <ele>8.3</ele>
        <time>2020-06-12T05:50:31Z</time>
      </trkpt>
      <trkpt lat="49.17381" lon="-1.58825">
        <ele>8.3</ele>
        <time>2020-06-12T05:50:32Z</time>
      </trkpt>
      <trkpt lat="49.17387" lon="-1.58823">
        <ele>8.2</ele>
        <time>2020-06-12T05:50:33Z</time>
      </trkpt>
      <trkpt lat="49.17393" lon="-1.58821">
        <ele>8.2</ele>
        <time>2020-06-12T05:50:34Z</time>
      </trkpt>
      <trkpt lat="49.17398" lon="-1.58818">
        <ele>8.2</ele>
        <time>2020-06-12T05:50:35Z</time>
      </trkpt>
      <trkpt lat="49.17404" lon="-1.58816">
        <ele>8.2</ele>
        <time>2020-06-12T05:50:36Z</time>
      </trkpt>
      <trkpt lat="49.17409" lon="-1.58814">
        <ele>8.2</ele>
        <time>2020-06-12T05:50:37Z</time>
      </trkpt>
      <trkpt lat="49.17414" lon="-1.58811">
        <ele>8.2</ele>
        <time>2020-06-12T05:50:38Z</time>
      </trkpt>
      <trkpt lat="49.1742" lon="-1.5881">
        <ele>8.1</ele>
        <time>2020-06-12T05:50:39Z</time>
      </trkpt>
      <trkpt lat="49.17426" lon="-1.58808">
        <ele>8.1</ele>
        <time>2020-06-12T05:50:40Z</time>
      </trkpt>
      <trkpt lat="49.17432" lon="-1.58805">
        <ele>8.1</ele>
        <time>2020-06-12T05:50:41Z</time>
      </trkpt>
      <trkpt lat="49.17438" lon="-1.58803">
        <ele>8.1</ele>
        <time>2020-06-12T05:50:42Z</time>
      </trkpt>
      <trkpt lat="49.17444" lon="-1.588">
        <ele>8.1</ele>
        <time>2020-06-12T05:50:43Z</time>
      </trkpt>
      <trkpt lat="49.1745" lon="-1.58797">
        <ele>8.2</ele>
        <time>2020-06-12T05:50:44Z</time>
      </trkpt>
      <trkpt lat="49.17456" lon="-1.58795">
        <ele>8.2</ele>
        <time>2020-06-12T05:50:45Z</time>
      </trkpt>
      <trkpt lat="49.17461" lon="-1.58793">
        <ele>8.2</ele>
        <time>2020-06-12T05:50:46Z</time>
      </trkpt>
      <trkpt lat="49.17467" lon="-1.5879">
        <ele>8.1</ele>
        <time>2020-06-12T05:50:47Z</time>
      </trkpt>
      <trkpt lat="49.17473" lon="-1.58788">
        <ele>8.1</ele>
        <time>2020-06-12T05:50:48Z</time>
      </trkpt>
      <trkpt lat="49.17479" lon="-1.58785">
        <ele>8.1</ele>
        <time>2020-06-12T05:50:49Z</time>
      </trkpt>
      <trkpt lat="49.17484" lon="-1.58783">
        <ele>8</ele>
        <time>2020-06-12T05:50:50Z</time>
      </trkpt>
      <trkpt lat="49.17489" lon="-1.58781">
        <ele>8</ele>
        <time>2020-06-12T05:50:51Z</time>
      </trkpt>
      <trkpt lat="49.17495" lon="-1.58778">
        <ele>8</ele>
        <time>2020-06-12T05:50:52Z</time>
      </trkpt>
      <trkpt lat="49.17501" lon="-1.58775">
        <ele>8</ele>
        <time>2020-06-12T05:50:53Z</time>
      </trkpt>
      <trkpt lat="49.17507" lon="-1.58773">
        <ele>7.9</ele>
        <time>2020-06-12T05:50:54Z</time>
      </trkpt>
      <trkpt lat="49.17513" lon="-1.5877">
        <ele>7.9</ele>
        <time>2020-06-12T05:50:55Z</time>
      </trkpt>
      <trkpt lat="49.1752" lon="-1.58767">
        <ele>7.9</ele>
        <time>2020-06-12T05:50:56Z</time>
      </trkpt>
      <trkpt lat="49.17525" lon="-1.58764">
        <ele>7.8</ele>
        <time>2020-06-12T05:50:57Z</time>
      </trkpt>
      <trkpt lat="49.17532" lon="-1.58761">
        <ele>7.8</ele>
        <time>2020-06-12T05:50:58Z</time>
      </trkpt>
      <trkpt lat="49.17537" lon="-1.58759">
        <ele>7.8</ele>
        <time>2020-06-12T05:50:59Z</time>
      </trkpt>
      <trkpt lat="49.17543" lon="-1.58757">
        <ele>7.8</ele>
        <time>2020-06-12T05:51:00Z</time>
      </trkpt>
      <trkpt lat="49.17549" lon="-1.58755">
        <ele>7.7</ele>
        <time>2020-06-12T05:51:01Z</time>
      </trkpt>
      <trkpt lat="49.17555" lon="-1.58753">
        <ele>7.7</ele>
        <time>2020-06-12T05:51:02Z</time>
      </trkpt>
      <trkpt lat="49.17561" lon="-1.5875">
        <ele>7.6</ele>
        <time>2020-06-12T05:51:03Z</time>
      </trkpt>
      <trkpt lat="49.17568" lon="-1.58748">
        <ele>7.6</ele>
        <time>2020-06-12T05:51:04Z</time>
      </trkpt>
      <trkpt lat="49.17573" lon="-1.58745">
        <ele>7.5</ele>
        <time>2020-06-12T05:51:05Z</time>
      </trkpt>
      <trkpt lat="49.17579" lon="-1.58743">
        <ele>7.5</ele>
        <time>2020-06-12T05:51:06Z</time>
      </trkpt>
      <trkpt lat="49.17585" lon="-1.5874">
        <ele>7.5</ele>
        <time>2020-06-12T05:51:07Z</time>
      </trkpt>
      <trkpt lat="49.1759" lon="-1.58739">
        <ele>7.5</ele>
        <time>2020-06-12T05:51:08Z</time>
      </trkpt>
      <trkpt lat="49.17596" lon="-1.58737">
        <ele>7.5</ele>
        <time>2020-06-12T05:51:09Z</time>
      </trkpt>
      <trkpt lat="49.17602" lon="-1.58735">
        <ele>7.5</ele>
        <time>2020-06-12T05:51:10Z</time>
      </trkpt>
      <trkpt lat="49.17608" lon="-1.58733">
        <ele>7.5</ele>
        <time>2020-06-12T05:51:11Z</time>
      </trkpt>
      <trkpt lat="49.17614" lon="-1.5873">
        <ele>7.5</ele>
        <time>2020-06-12T05:51:12Z</time>
      </trkpt>
      <trkpt lat="49.1762" lon="-1.58728">
        <ele>7.5</ele>
        <time>2020-06-12T05:51:13Z</time>
      </trkpt>
      <trkpt lat="49.17626" lon="-1.58726">
        <ele>7.5</ele>
        <time>2020-06-12T05:51:14Z</time>
      </trkpt>
      <trkpt lat="49.17631" lon="-1.58724">
        <ele>7.5</ele>
        <time>2020-06-12T05:51:15Z</time>
      </trkpt>
      <trkpt lat="49.17636" lon="-1.58721">
        <ele>7.4</ele>
        <time>2020-06-12T05:51:16Z</time>
      </trkpt>
      <trkpt lat="49.17641" lon="-1.58719">
        <ele>7.3</ele>
        <time>2020-06-12T05:51:17Z</time>
      </trkpt>
      <trkpt lat="49.17646" lon="-1.58716">
        <ele>7.3</ele>
        <time>2020-06-12T05:51:18Z</time>
      </trkpt>
      <trkpt lat="49.17651" lon="-1.58714">
        <ele>7.3</ele>
        <time>2020-06-12T05:51:19Z</time>
      </trkpt>
      <trkpt lat="49.17658" lon="-1.58712">
        <ele>7.2</ele>
        <time>2020-06-12T05:51:20Z</time>
      </trkpt>
      <trkpt lat="49.17664" lon="-1.5871">
        <ele>7.1</ele>
        <time>2020-06-12T05:51:21Z</time>
      </trkpt>
      <trkpt lat="49.1767" lon="-1.58709">
        <ele>7.1</ele>
        <time>2020-06-12T05:51:22Z</time>
      </trkpt>
      <trkpt lat="49.17676" lon="-1.58707">
        <ele>7.1</ele>
        <time>2020-06-12T05:51:23Z</time>
      </trkpt>
      <trkpt lat="49.17683" lon="-1.58705">
        <ele>7.1</ele>
        <time>2020-06-12T05:51:24Z</time>
      </trkpt>
      <trkpt lat="49.17689" lon="-1.58703">
        <ele>7.1</ele>
        <time>2020-06-12T05:51:25Z</time>
      </trkpt>
      <trkpt lat="49.17696" lon="-1.587">
        <ele>7.1</ele>
        <time>2020-06-12T05:51:26Z</time>
      </trkpt>
      <trkpt lat="49.17702" lon="-1.58698">
        <ele>7</ele>
        <time>2020-06-12T05:51:27Z</time>
      </trkpt>
      <trkpt lat="49.17707" lon="-1.58695">
        <ele>7</ele>
        <time>2020-06-12T05:51:28Z</time>
      </trkpt>
      <trkpt lat="49.17712" lon="-1.58693">
        <ele>7</ele>
        <time>2020-06-12T05:51:29Z</time>
      </trkpt>
      <trkpt lat="49.17718" lon="-1.5869">
        <ele>7</ele>
        <time>2020-06-12T05:51:30Z</time>
      </trkpt>
      <trkpt lat="49.17724" lon="-1.58688">
        <ele>7</ele>
        <time>2020-06-12T05:51:31Z</time>
      </trkpt>
      <trkpt lat="49.1773" lon="-1.58685">
        <ele>7</ele>
        <time>2020-06-12T05:51:32Z</time>
      </trkpt>
      <trkpt lat="49.17735" lon="-1.58683">
        <ele>7</ele>
        <time>2020-06-12T05:51:33Z</time>
      </trkpt>
      <trkpt lat="49.17741" lon="-1.58682">
        <ele>7</ele>
        <time>2020-06-12T05:51:34Z</time>
      </trkpt>
      <trkpt lat="49.17748" lon="-1.58679">
        <ele>7.1</ele>
        <time>2020-06-12T05:51:35Z</time>
      </trkpt>
      <trkpt lat="49.17755" lon="-1.58677">
        <ele>7.2</ele>
        <time>2020-06-12T05:51:36Z</time>
      </trkpt>
      <trkpt lat="49.17761" lon="-1.58674">
        <ele>7.1</ele>
        <time>2020-06-12T05:51:37Z</time>
      </trkpt>
      <trkpt lat="49.17766" lon="-1.58672">
        <ele>7.1</ele>
        <time>2020-06-12T05:51:38Z</time>
      </trkpt>
      <trkpt lat="49.17773" lon="-1.58671">
        <ele>7.1</ele>
        <time>2020-06-12T05:51:39Z</time>
      </trkpt>
      <trkpt lat="49.17778" lon="-1.58669">
        <ele>7.1</ele>
        <time>2020-06-12T05:51:40Z</time>
      </trkpt>
      <trkpt lat="49.17783" lon="-1.58668">
        <ele>7.1</ele>
        <time>2020-06-12T05:51:41Z</time>
      </trkpt>
      <trkpt lat="49.1779" lon="-1.58665">
        <ele>7.1</ele>
        <time>2020-06-12T05:51:42Z</time>
      </trkpt>
      <trkpt lat="49.17795" lon="-1.58663">
        <ele>7.2</ele>
        <time>2020-06-12T05:51:43Z</time>
      </trkpt>
      <trkpt lat="49.17801" lon="-1.58661">
        <ele>7.3</ele>
        <time>2020-06-12T05:51:44Z</time>
      </trkpt>
      <trkpt lat="49.17809" lon="-1.58657">
        <ele>7.3</ele>
        <time>2020-06-12T05:51:45Z</time>
      </trkpt>
      <trkpt lat="49.17814" lon="-1.58655">
        <ele>7.3</ele>
        <time>2020-06-12T05:51:46Z</time>
      </trkpt>
      <trkpt lat="49.17821" lon="-1.58652">
        <ele>7.3</ele>
        <time>2020-06-12T05:51:47Z</time>
      </trkpt>
      <trkpt lat="49.17826" lon="-1.58649">
        <ele>7.3</ele>
        <time>2020-06-12T05:51:48Z</time>
      </trkpt>
      <trkpt lat="49.17832" lon="-1.58647">
        <ele>7.3</ele>
        <time>2020-06-12T05:51:49Z</time>
      </trkpt>
      <trkpt lat="49.17838" lon="-1.58646">
        <ele>7.3</ele>
        <time>2020-06-12T05:51:50Z</time>
      </trkpt>
      <trkpt lat="49.17845" lon="-1.58643">
        <ele>7.3</ele>
        <time>2020-06-12T05:51:51Z</time>
      </trkpt>
      <trkpt lat="49.17851" lon="-1.58642">
        <ele>7.2</ele>
        <time>2020-06-12T05:51:52Z</time>
      </trkpt>
      <trkpt lat="49.17858" lon="-1.5864">
        <ele>7.2</ele>
        <time>2020-06-12T05:51:53Z</time>
      </trkpt>
      <trkpt lat="49.17864" lon="-1.58638">
        <ele>7.2</ele>
        <time>2020-06-12T05:51:54Z</time>
      </trkpt>
      <trkpt lat="49.1787" lon="-1.58635">
        <ele>7.2</ele>
        <time>2020-06-12T05:51:55Z</time>
      </trkpt>
      <trkpt lat="49.17877" lon="-1.58632">
        <ele>7.2</ele>
        <time>2020-06-12T05:51:56Z</time>
      </trkpt>
      <trkpt lat="49.17882" lon="-1.5863">
        <ele>7.3</ele>
        <time>2020-06-12T05:51:57Z</time>
      </trkpt>
      <trkpt lat="49.17888" lon="-1.58627">
        <ele>7.3</ele>
        <time>2020-06-12T05:51:58Z</time>
      </trkpt>
      <trkpt lat="49.17894" lon="-1.58624">
        <ele>7.3</ele>
        <time>2020-06-12T05:51:59Z</time>
      </trkpt>
      <trkpt lat="49.17899" lon="-1.58621">
        <ele>7.3</ele>
        <time>2020-06-12T05:52:00Z</time>
      </trkpt>
      <trkpt lat="49.17905" lon="-1.58618">
        <ele>7.3</ele>
        <time>2020-06-12T05:52:01Z</time>
      </trkpt>
      <trkpt lat="49.17912" lon="-1.58614">
        <ele>7.3</ele>
        <time>2020-06-12T05:52:02Z</time>
      </trkpt>
      <trkpt lat="49.17918" lon="-1.58611">
        <ele>7.3</ele>
        <time>2020-06-12T05:52:03Z</time>
      </trkpt>
      <trkpt lat="49.17924" lon="-1.58608">
        <ele>7.3</ele>
        <time>2020-06-12T05:52:04Z</time>
      </trkpt>
      <trkpt lat="49.17929" lon="-1.58606">
        <ele>7.3</ele>
        <time>2020-06-12T05:52:05Z</time>
      </trkpt>
      <trkpt lat="49.17934" lon="-1.58603">
        <ele>7.3</ele>
        <time>2020-06-12T05:52:06Z</time>
      </trkpt>
      <trkpt lat="49.17939" lon="-1.586">
        <ele>7.3</ele>
        <time>2020-06-12T05:52:07Z</time>
      </trkpt>
      <trkpt lat="49.17944" lon="-1.58597">
        <ele>7.3</ele>
        <time>2020-06-12T05:52:08Z</time>
      </trkpt>
      <trkpt lat="49.17949" lon="-1.58594">
        <ele>7.4</ele>
        <time>2020-06-12T05:52:09Z</time>
      </trkpt>
      <trkpt lat="49.17954" lon="-1.58592">
        <ele>7.4</ele>
        <time>2020-06-12T05:52:10Z</time>
      </trkpt>
      <trkpt lat="49.17959" lon="-1.58589">
        <ele>7.5</ele>
        <time>2020-06-12T05:52:11Z</time>
      </trkpt>
      <trkpt lat="49.17964" lon="-1.58585">
        <ele>7.5</ele>
        <time>2020-06-12T05:52:12Z</time>
      </trkpt>
      <trkpt lat="49.17968" lon="-1.58581">
        <ele>7.5</ele>
        <time>2020-06-12T05:52:13Z</time>
      </trkpt>
      <trkpt lat="49.17973" lon="-1.58577">
        <ele>7.4</ele>
        <time>2020-06-12T05:52:14Z</time>
      </trkpt>
      <trkpt lat="49.17978" lon="-1.58572">
        <ele>7.4</ele>
        <time>2020-06-12T05:52:15Z</time>
      </trkpt>
      <trkpt lat="49.17984" lon="-1.58568">
        <ele>7.4</ele>
        <time>2020-06-12T05:52:16Z</time>
      </trkpt>
      <trkpt lat="49.1799" lon="-1.58564">
        <ele>7.3</ele>
        <time>2020-06-12T05:52:17Z</time>
      </trkpt>
      <trkpt lat="49.17995" lon="-1.58559">
        <ele>7.3</ele>
        <time>2020-06-12T05:52:18Z</time>
      </trkpt>
      <trkpt lat="49.17999" lon="-1.58556">
        <ele>7.3</ele>
        <time>2020-06-12T05:52:19Z</time>
      </trkpt>
      <trkpt lat="49.18005" lon="-1.58552">
        <ele>7.3</ele>
        <time>2020-06-12T05:52:20Z</time>
      </trkpt>
      <trkpt lat="49.1801" lon="-1.58548">
        <ele>7.3</ele>
        <time>2020-06-12T05:52:21Z</time>
      </trkpt>
      <trkpt lat="49.18015" lon="-1.58544">
        <ele>7.3</ele>
        <time>2020-06-12T05:52:22Z</time>
      </trkpt>
      <trkpt lat="49.18019" lon="-1.5854">
        <ele>7.3</ele>
        <time>2020-06-12T05:52:23Z</time>
      </trkpt>
      <trkpt lat="49.18025" lon="-1.58536">
        <ele>7.3</ele>
        <time>2020-06-12T05:52:24Z</time>
      </trkpt>
      <trkpt lat="49.18029" lon="-1.58532">
        <ele>7.3</ele>
        <time>2020-06-12T05:52:25Z</time>
      </trkpt>
      <trkpt lat="49.18035" lon="-1.58527">
        <ele>7.3</ele>
        <time>2020-06-12T05:52:26Z</time>
      </trkpt>
      <trkpt lat="49.18039" lon="-1.58523">
        <ele>7.3</ele>
        <time>2020-06-12T05:52:27Z</time>
      </trkpt>
      <trkpt lat="49.18045" lon="-1.5852">
        <ele>7.3</ele>
        <time>2020-06-12T05:52:28Z</time>
      </trkpt>
      <trkpt lat="49.1805" lon="-1.58517">
        <ele>7.3</ele>
        <time>2020-06-12T05:52:29Z</time>
      </trkpt>
      <trkpt lat="49.18054" lon="-1.58514">
        <ele>7.3</ele>
        <time>2020-06-12T05:52:30Z</time>
      </trkpt>
      <trkpt lat="49.18059" lon="-1.5851">
        <ele>7.4</ele>
        <time>2020-06-12T05:52:31Z</time>
      </trkpt>
      <trkpt lat="49.18065" lon="-1.58506">
        <ele>7.4</ele>
        <time>2020-06-12T05:52:32Z</time>
      </trkpt>
      <trkpt lat="49.1807" lon="-1.58502">
        <ele>7.4</ele>
        <time>2020-06-12T05:52:33Z</time>
      </trkpt>
      <trkpt lat="49.18075" lon="-1.58498">
        <ele>7.4</ele>
        <time>2020-06-12T05:52:34Z</time>
      </trkpt>
      <trkpt lat="49.1808" lon="-1.58494">
        <ele>7.4</ele>
        <time>2020-06-12T05:52:35Z</time>
      </trkpt>
      <trkpt lat="49.18084" lon="-1.5849">
        <ele>7.4</ele>
        <time>2020-06-12T05:52:36Z</time>
      </trkpt>
      <trkpt lat="49.18088" lon="-1.58487">
        <ele>7.4</ele>
        <time>2020-06-12T05:52:37Z</time>
      </trkpt>
      <trkpt lat="49.18094" lon="-1.58483">
        <ele>7.4</ele>
        <time>2020-06-12T05:52:38Z</time>
      </trkpt>
      <trkpt lat="49.18099" lon="-1.58479">
        <ele>7.4</ele>
        <time>2020-06-12T05:52:39Z</time>
      </trkpt>
      <trkpt lat="49.18103" lon="-1.58476">
        <ele>7.4</ele>
        <time>2020-06-12T05:52:40Z</time>
      </trkpt>
      <trkpt lat="49.18107" lon="-1.58472">
        <ele>7.4</ele>
        <time>2020-06-12T05:52:41Z</time>
      </trkpt>
      <trkpt lat="49.18112" lon="-1.58469">
        <ele>7.4</ele>
        <time>2020-06-12T05:52:42Z</time>
      </trkpt>
      <trkpt lat="49.18116" lon="-1.58465">
        <ele>7.5</ele>
        <time>2020-06-12T05:52:43Z</time>
      </trkpt>
      <trkpt lat="49.1812" lon="-1.5846">
        <ele>7.6</ele>
        <time>2020-06-12T05:52:44Z</time>
      </trkpt>
      <trkpt lat="49.18125" lon="-1.58456">
        <ele>7.7</ele>
        <time>2020-06-12T05:52:45Z</time>
      </trkpt>
      <trkpt lat="49.18129" lon="-1.58451">
        <ele>7.9</ele>
        <time>2020-06-12T05:52:46Z</time>
      </trkpt>
      <trkpt lat="49.18135" lon="-1.58447">
        <ele>7.9</ele>
        <time>2020-06-12T05:52:47Z</time>
      </trkpt>
      <trkpt lat="49.18139" lon="-1.58443">
        <ele>7.9</ele>
        <time>2020-06-12T05:52:48Z</time>
      </trkpt>
      <trkpt lat="49.18145" lon="-1.58439">
        <ele>7.9</ele>
        <time>2020-06-12T05:52:49Z</time>
      </trkpt>
      <trkpt lat="49.18149" lon="-1.58435">
        <ele>7.8</ele>
        <time>2020-06-12T05:52:50Z</time>
      </trkpt>
      <trkpt lat="49.18154" lon="-1.5843">
        <ele>7.8</ele>
        <time>2020-06-12T05:52:51Z</time>
      </trkpt>
      <trkpt lat="49.18159" lon="-1.58427">
        <ele>7.8</ele>
        <time>2020-06-12T05:52:52Z</time>
      </trkpt>
      <trkpt lat="49.18164" lon="-1.58424">
        <ele>7.8</ele>
        <time>2020-06-12T05:52:53Z</time>
      </trkpt>
      <trkpt lat="49.18169" lon="-1.58421">
        <ele>7.7</ele>
        <time>2020-06-12T05:52:54Z</time>
      </trkpt>
      <trkpt lat="49.18174" lon="-1.58418">
        <ele>7.7</ele>
        <time>2020-06-12T05:52:55Z</time>
      </trkpt>
      <trkpt lat="49.1818" lon="-1.58414">
        <ele>7.7</ele>
        <time>2020-06-12T05:52:56Z</time>
      </trkpt>
      <trkpt lat="49.18185" lon="-1.58411">
        <ele>7.7</ele>
        <time>2020-06-12T05:52:57Z</time>
      </trkpt>
      <trkpt lat="49.1819" lon="-1.58408">
        <ele>7.6</ele>
        <time>2020-06-12T05:52:58Z</time>
      </trkpt>
      <trkpt lat="49.18195" lon="-1.58404">
        <ele>7.6</ele>
        <time>2020-06-12T05:52:59Z</time>
      </trkpt>
      <trkpt lat="49.18201" lon="-1.584">
        <ele>7.6</ele>
        <time>2020-06-12T05:53:00Z</time>
      </trkpt>
      <trkpt lat="49.18206" lon="-1.58396">
        <ele>7.5</ele>
        <time>2020-06-12T05:53:01Z</time>
      </trkpt>
      <trkpt lat="49.18212" lon="-1.58392">
        <ele>7.5</ele>
        <time>2020-06-12T05:53:02Z</time>
      </trkpt>
      <trkpt lat="49.18218" lon="-1.58388">
        <ele>7.5</ele>
        <time>2020-06-12T05:53:03Z</time>
      </trkpt>
      <trkpt lat="49.18223" lon="-1.58384">
        <ele>7.4</ele>
        <time>2020-06-12T05:53:04Z</time>
      </trkpt>
      <trkpt lat="49.18229" lon="-1.58381">
        <ele>7.4</ele>
        <time>2020-06-12T05:53:05Z</time>
      </trkpt>
      <trkpt lat="49.18236" lon="-1.58378">
        <ele>7.4</ele>
        <time>2020-06-12T05:53:06Z</time>
      </trkpt>
      <trkpt lat="49.18242" lon="-1.58376">
        <ele>7.4</ele>
        <time>2020-06-12T05:53:07Z</time>
      </trkpt>
      <trkpt lat="49.18248" lon="-1.58373">
        <ele>7.4</ele>
        <time>2020-06-12T05:53:08Z</time>
      </trkpt>
      <trkpt lat="49.18254" lon="-1.58371">
        <ele>7.3</ele>
        <time>2020-06-12T05:53:09Z</time>
      </trkpt>
      <trkpt lat="49.1826" lon="-1.58369">
        <ele>7.3</ele>
        <time>2020-06-12T05:53:10Z</time>
      </trkpt>
      <trkpt lat="49.18266" lon="-1.58366">
        <ele>7.3</ele>
        <time>2020-06-12T05:53:11Z</time>
      </trkpt>
      <trkpt lat="49.18272" lon="-1.58364">
        <ele>7.3</ele>
        <time>2020-06-12T05:53:12Z</time>
      </trkpt>
      <trkpt lat="49.18277" lon="-1.58361">
        <ele>7.3</ele>
        <time>2020-06-12T05:53:13Z</time>
      </trkpt>
      <trkpt lat="49.18284" lon="-1.58359">
        <ele>7.4</ele>
        <time>2020-06-12T05:53:14Z</time>
      </trkpt>
      <trkpt lat="49.1829" lon="-1.58356">
        <ele>7.4</ele>
        <time>2020-06-12T05:53:15Z</time>
      </trkpt>
      <trkpt lat="49.18296" lon="-1.58354">
        <ele>7.3</ele>
        <time>2020-06-12T05:53:16Z</time>
      </trkpt>
      <trkpt lat="49.18301" lon="-1.58352">
        <ele>7.1</ele>
        <time>2020-06-12T05:53:17Z</time>
      </trkpt>
      <trkpt lat="49.18306" lon="-1.58349">
        <ele>7</ele>
        <time>2020-06-12T05:53:18Z</time>
      </trkpt>
      <trkpt lat="49.18312" lon="-1.58347">
        <ele>6.9</ele>
        <time>2020-06-12T05:53:19Z</time>
      </trkpt>
      <trkpt lat="49.18318" lon="-1.58344">
        <ele>6.9</ele>
        <time>2020-06-12T05:53:20Z</time>
      </trkpt>
      <trkpt lat="49.18324" lon="-1.58342">
        <ele>6.9</ele>
        <time>2020-06-12T05:53:21Z</time>
      </trkpt>
      <trkpt lat="49.1833" lon="-1.5834">
        <ele>6.9</ele>
        <time>2020-06-12T05:53:22Z</time>
      </trkpt>
      <trkpt lat="49.18335" lon="-1.58337">
        <ele>6.8</ele>
        <time>2020-06-12T05:53:23Z</time>
      </trkpt>
      <trkpt lat="49.18341" lon="-1.58335">
        <ele>6.8</ele>
        <time>2020-06-12T05:53:24Z</time>
      </trkpt>
      <trkpt lat="49.18346" lon="-1.58332">
        <ele>6.8</ele>
        <time>2020-06-12T05:53:25Z</time>
      </trkpt>
      <trkpt lat="49.18352" lon="-1.58331">
        <ele>6.7</ele>
        <time>2020-06-12T05:53:26Z</time>
      </trkpt>
      <trkpt lat="49.18357" lon="-1.58329">
        <ele>6.7</ele>
        <time>2020-06-12T05:53:27Z</time>
      </trkpt>
      <trkpt lat="49.18363" lon="-1.58326">
        <ele>6.7</ele>
        <time>2020-06-12T05:53:28Z</time>
      </trkpt>
      <trkpt lat="49.18369" lon="-1.58324">
        <ele>6.7</ele>
        <time>2020-06-12T05:53:29Z</time>
      </trkpt>
      <trkpt lat="49.18374" lon="-1.58321">
        <ele>6.6</ele>
        <time>2020-06-12T05:53:30Z</time>
      </trkpt>
      <trkpt lat="49.1838" lon="-1.58319">
        <ele>6.6</ele>
        <time>2020-06-12T05:53:31Z</time>
      </trkpt>
      <trkpt lat="49.18386" lon="-1.58317">
        <ele>6.6</ele>
        <time>2020-06-12T05:53:32Z</time>
      </trkpt>
      <trkpt lat="49.18391" lon="-1.58316">
        <ele>6.6</ele>
        <time>2020-06-12T05:53:33Z</time>
      </trkpt>
      <trkpt lat="49.18396" lon="-1.58314">
        <ele>6.6</ele>
        <time>2020-06-12T05:53:34Z</time>
      </trkpt>
      <trkpt lat="49.18402" lon="-1.58312">
        <ele>6.6</ele>
        <time>2020-06-12T05:53:35Z</time>
      </trkpt>
      <trkpt lat="49.18408" lon="-1.5831">
        <ele>6.7</ele>
        <time>2020-06-12T05:53:36Z</time>
      </trkpt>
      <trkpt lat="49.18414" lon="-1.58308">
        <ele>6.7</ele>
        <time>2020-06-12T05:53:37Z</time>
      </trkpt>
      <trkpt lat="49.18417" lon="-1.58306">
        <ele>6.7</ele>
        <time>2020-06-12T05:53:38Z</time>
      </trkpt>
      <trkpt lat="49.18422" lon="-1.58304">
        <ele>6.7</ele>
        <time>2020-06-12T05:53:39Z</time>
      </trkpt>
      <trkpt lat="49.18427" lon="-1.58302">
        <ele>6.8</ele>
        <time>2020-06-12T05:53:40Z</time>
      </trkpt>
      <trkpt lat="49.18433" lon="-1.58299">
        <ele>6.9</ele>
        <time>2020-06-12T05:53:41Z</time>
      </trkpt>
      <trkpt lat="49.18438" lon="-1.58296">
        <ele>7</ele>
        <time>2020-06-12T05:53:42Z</time>
      </trkpt>
      <trkpt lat="49.18444" lon="-1.58293">
        <ele>7.2</ele>
        <time>2020-06-12T05:53:43Z</time>
      </trkpt>
      <trkpt lat="49.1845" lon="-1.58291">
        <ele>7.1</ele>
        <time>2020-06-12T05:53:44Z</time>
      </trkpt>
      <trkpt lat="49.18455" lon="-1.58289">
        <ele>7</ele>
        <time>2020-06-12T05:53:45Z</time>
      </trkpt>
      <trkpt lat="49.18461" lon="-1.58287">
        <ele>7</ele>
        <time>2020-06-12T05:53:46Z</time>
      </trkpt>
      <trkpt lat="49.18467" lon="-1.58286">
        <ele>7</ele>
        <time>2020-06-12T05:53:47Z</time>
      </trkpt>
      <trkpt lat="49.18472" lon="-1.58283">
        <ele>7</ele>
        <time>2020-06-12T05:53:48Z</time>
      </trkpt>
      <trkpt lat="49.18478" lon="-1.58281">
        <ele>7</ele>
        <time>2020-06-12T05:53:49Z</time>
      </trkpt>
      <trkpt lat="49.18483" lon="-1.58279">
        <ele>7</ele>
        <time>2020-06-12T05:53:50Z</time>
      </trkpt>
      <trkpt lat="49.18487" lon="-1.58277">
        <ele>7.1</ele>
        <time>2020-06-12T05:53:51Z</time>
      </trkpt>
      <trkpt lat="49.18491" lon="-1.58275">
        <ele>7.1</ele>
        <time>2020-06-12T05:53:52Z</time>
      </trkpt>
      <trkpt lat="49.18496" lon="-1.58273">
        <ele>7.1</ele>
        <time>2020-06-12T05:53:53Z</time>
      </trkpt>
      <trkpt lat="49.18501" lon="-1.5827">
        <ele>7.2</ele>
        <time>2020-06-12T05:53:54Z</time>
      </trkpt>
      <trkpt lat="49.18506" lon="-1.58269">
        <ele>7.2</ele>
        <time>2020-06-12T05:53:55Z</time>
      </trkpt>
      <trkpt lat="49.18511" lon="-1.58267">
        <ele>7.3</ele>
        <time>2020-06-12T05:53:56Z</time>
      </trkpt>
      <trkpt lat="49.18516" lon="-1.58266">
        <ele>7.3</ele>
        <time>2020-06-12T05:53:57Z</time>
      </trkpt>
      <trkpt lat="49.18521" lon="-1.58263">
        <ele>7.3</ele>
        <time>2020-06-12T05:53:58Z</time>
      </trkpt>
      <trkpt lat="49.18526" lon="-1.58261">
        <ele>7.3</ele>
        <time>2020-06-12T05:53:59Z</time>
      </trkpt>
      <trkpt lat="49.1853" lon="-1.58259">
        <ele>7.3</ele>
        <time>2020-06-12T05:54:00Z</time>
      </trkpt>
      <trkpt lat="49.18535" lon="-1.58257">
        <ele>7.4</ele>
        <time>2020-06-12T05:54:01Z</time>
      </trkpt>
      <trkpt lat="49.18541" lon="-1.58254">
        <ele>7.4</ele>
        <time>2020-06-12T05:54:02Z</time>
      </trkpt>
      <trkpt lat="49.18546" lon="-1.58252">
        <ele>7.4</ele>
        <time>2020-06-12T05:54:03Z</time>
      </trkpt>
      <trkpt lat="49.18551" lon="-1.58249">
        <ele>7.5</ele>
        <time>2020-06-12T05:54:04Z</time>
      </trkpt>
      <trkpt lat="49.18556" lon="-1.58247">
        <ele>7.5</ele>
        <time>2020-06-12T05:54:05Z</time>
      </trkpt>
      <trkpt lat="49.18562" lon="-1.58246">
        <ele>7.5</ele>
        <time>2020-06-12T05:54:06Z</time>
      </trkpt>
      <trkpt lat="49.18567" lon="-1.58245">
        <ele>7.5</ele>
        <time>2020-06-12T05:54:07Z</time>
      </trkpt>
      <trkpt lat="49.18573" lon="-1.58243">
        <ele>7.6</ele>
        <time>2020-06-12T05:54:08Z</time>
      </trkpt>
      <trkpt lat="49.18578" lon="-1.58242">
        <ele>7.6</ele>
        <time>2020-06-12T05:54:09Z</time>
      </trkpt>
      <trkpt lat="49.18584" lon="-1.5824">
        <ele>7.6</ele>
        <time>2020-06-12T05:54:10Z</time>
      </trkpt>
      <trkpt lat="49.18589" lon="-1.58238">
        <ele>7.6</ele>
        <time>2020-06-12T05:54:11Z</time>
      </trkpt>
      <trkpt lat="49.18594" lon="-1.58235">
        <ele>7.5</ele>
        <time>2020-06-12T05:54:12Z</time>
      </trkpt>
      <trkpt lat="49.18599" lon="-1.58233">
        <ele>7.5</ele>
        <time>2020-06-12T05:54:13Z</time>
      </trkpt>
      <trkpt lat="49.18604" lon="-1.58231">
        <ele>7.5</ele>
        <time>2020-06-12T05:54:14Z</time>
      </trkpt>
      <trkpt lat="49.18609" lon="-1.58229">
        <ele>7.5</ele>
        <time>2020-06-12T05:54:15Z</time>
      </trkpt>
      <trkpt lat="49.18613" lon="-1.58227">
        <ele>7.6</ele>
        <time>2020-06-12T05:54:16Z</time>
      </trkpt>
      <trkpt lat="49.18618" lon="-1.58225">
        <ele>7.6</ele>
        <time>2020-06-12T05:54:17Z</time>
      </trkpt>
      <trkpt lat="49.18623" lon="-1.58222">
        <ele>7.6</ele>
        <time>2020-06-12T05:54:18Z</time>
      </trkpt>
      <trkpt lat="49.18629" lon="-1.5822">
        <ele>7.6</ele>
        <time>2020-06-12T05:54:19Z</time>
      </trkpt>
      <trkpt lat="49.18634" lon="-1.58217">
        <ele>7.7</ele>
        <time>2020-06-12T05:54:20Z</time>
      </trkpt>
      <trkpt lat="49.18639" lon="-1.58214">
        <ele>7.7</ele>
        <time>2020-06-12T05:54:21Z</time>
      </trkpt>
      <trkpt lat="49.18644" lon="-1.58213">
        <ele>7.7</ele>
        <time>2020-06-12T05:54:22Z</time>
      </trkpt>
      <trkpt lat="49.18649" lon="-1.5821">
        <ele>7.7</ele>
        <time>2020-06-12T05:54:23Z</time>
      </trkpt>
      <trkpt lat="49.18654" lon="-1.58208">
        <ele>7.7</ele>
        <time>2020-06-12T05:54:24Z</time>
      </trkpt>
      <trkpt lat="49.1866" lon="-1.58207">
        <ele>7.7</ele>
        <time>2020-06-12T05:54:25Z</time>
      </trkpt>
      <trkpt lat="49.18663" lon="-1.58204">
        <ele>7.7</ele>
        <time>2020-06-12T05:54:26Z</time>
      </trkpt>
      <trkpt lat="49.18669" lon="-1.58202">
        <ele>7.7</ele>
        <time>2020-06-12T05:54:27Z</time>
      </trkpt>
      <trkpt lat="49.18675" lon="-1.58199">
        <ele>7.7</ele>
        <time>2020-06-12T05:54:28Z</time>
      </trkpt>
      <trkpt lat="49.1868" lon="-1.58197">
        <ele>7.7</ele>
        <time>2020-06-12T05:54:29Z</time>
      </trkpt>
      <trkpt lat="49.18685" lon="-1.58195">
        <ele>7.6</ele>
        <time>2020-06-12T05:54:30Z</time>
      </trkpt>
      <trkpt lat="49.18691" lon="-1.58193">
        <ele>7.6</ele>
        <time>2020-06-12T05:54:31Z</time>
      </trkpt>
      <trkpt lat="49.18696" lon="-1.58191">
        <ele>7.7</ele>
        <time>2020-06-12T05:54:32Z</time>
      </trkpt>
      <trkpt lat="49.18702" lon="-1.58189">
        <ele>7.7</ele>
        <time>2020-06-12T05:54:33Z</time>
      </trkpt>
      <trkpt lat="49.18707" lon="-1.58188">
        <ele>7.7</ele>
        <time>2020-06-12T05:54:34Z</time>
      </trkpt>
      <trkpt lat="49.18712" lon="-1.58187">
        <ele>7.7</ele>
        <time>2020-06-12T05:54:35Z</time>
      </trkpt>
      <trkpt lat="49.18717" lon="-1.58186">
        <ele>7.7</ele>
        <time>2020-06-12T05:54:36Z</time>
      </trkpt>
      <trkpt lat="49.18723" lon="-1.58184">
        <ele>7.7</ele>
        <time>2020-06-12T05:54:37Z</time>
      </trkpt>
      <trkpt lat="49.18728" lon="-1.58182">
        <ele>7.7</ele>
        <time>2020-06-12T05:54:38Z</time>
      </trkpt>
      <trkpt lat="49.18734" lon="-1.58181">
        <ele>7.7</ele>
        <time>2020-06-12T05:54:39Z</time>
      </trkpt>
      <trkpt lat="49.1874" lon="-1.58179">
        <ele>7.8</ele>
        <time>2020-06-12T05:54:40Z</time>
      </trkpt>
      <trkpt lat="49.18745" lon="-1.58177">
        <ele>7.8</ele>
        <time>2020-06-12T05:54:41Z</time>
      </trkpt>
      <trkpt lat="49.18751" lon="-1.58174">
        <ele>7.8</ele>
        <time>2020-06-12T05:54:42Z</time>
      </trkpt>
      <trkpt lat="49.18757" lon="-1.58172">
        <ele>7.8</ele>
        <time>2020-06-12T05:54:43Z</time>
      </trkpt>
      <trkpt lat="49.18762" lon="-1.5817">
        <ele>7.8</ele>
        <time>2020-06-12T05:54:44Z</time>
      </trkpt>
      <trkpt lat="49.18767" lon="-1.58168">
        <ele>7.8</ele>
        <time>2020-06-12T05:54:45Z</time>
      </trkpt>
      <trkpt lat="49.18772" lon="-1.58167">
        <ele>7.8</ele>
        <time>2020-06-12T05:54:46Z</time>
      </trkpt>
      <trkpt lat="49.18778" lon="-1.58165">
        <ele>7.8</ele>
        <time>2020-06-12T05:54:47Z</time>
      </trkpt>
      <trkpt lat="49.18783" lon="-1.58164">
        <ele>7.8</ele>
        <time>2020-06-12T05:54:48Z</time>
      </trkpt>
      <trkpt lat="49.18788" lon="-1.58163">
        <ele>7.8</ele>
        <time>2020-06-12T05:54:49Z</time>
      </trkpt>
      <trkpt lat="49.18793" lon="-1.58162">
        <ele>7.8</ele>
        <time>2020-06-12T05:54:50Z</time>
      </trkpt>
      <trkpt lat="49.18798" lon="-1.58161">
        <ele>7.8</ele>
        <time>2020-06-12T05:54:51Z</time>
      </trkpt>
      <trkpt lat="49.18804" lon="-1.58159">
        <ele>7.9</ele>
        <time>2020-06-12T05:54:52Z</time>
      </trkpt>
      <trkpt lat="49.18809" lon="-1.58158">
        <ele>7.9</ele>
        <time>2020-06-12T05:54:53Z</time>
      </trkpt>
      <trkpt lat="49.18814" lon="-1.58156">
        <ele>7.9</ele>
        <time>2020-06-12T05:54:54Z</time>
      </trkpt>
      <trkpt lat="49.18819" lon="-1.58154">
        <ele>7.9</ele>
        <time>2020-06-12T05:54:55Z</time>
      </trkpt>
      <trkpt lat="49.18824" lon="-1.58152">
        <ele>7.9</ele>
        <time>2020-06-12T05:54:56Z</time>
      </trkpt>
      <trkpt lat="49.18829" lon="-1.58151">
        <ele>8</ele>
        <time>2020-06-12T05:54:57Z</time>
      </trkpt>
      <trkpt lat="49.18834" lon="-1.58149">
        <ele>8</ele>
        <time>2020-06-12T05:54:58Z</time>
      </trkpt>
      <trkpt lat="49.18839" lon="-1.58147">
        <ele>8</ele>
        <time>2020-06-12T05:54:59Z</time>
      </trkpt>
      <trkpt lat="49.18844" lon="-1.58146">
        <ele>8</ele>
        <time>2020-06-12T05:55:00Z</time>
      </trkpt>
      <trkpt lat="49.18849" lon="-1.58144">
        <ele>8</ele>
        <time>2020-06-12T05:55:01Z</time>
      </trkpt>
      <trkpt lat="49.18856" lon="-1.58144">
        <ele>8</ele>
        <time>2020-06-12T05:55:02Z</time>
      </trkpt>
      <trkpt lat="49.18861" lon="-1.58143">
        <ele>8</ele>
        <time>2020-06-12T05:55:03Z</time>
      </trkpt>
      <trkpt lat="49.18867" lon="-1.58141">
        <ele>8.1</ele>
        <time>2020-06-12T05:55:04Z</time>
      </trkpt>
      <trkpt lat="49.18873" lon="-1.5814">
        <ele>8.1</ele>
        <time>2020-06-12T05:55:05Z</time>
      </trkpt>
      <trkpt lat="49.18879" lon="-1.58138">
        <ele>8.1</ele>
        <time>2020-06-12T05:55:06Z</time>
      </trkpt>
      <trkpt lat="49.18884" lon="-1.58137">
        <ele>8.1</ele>
        <time>2020-06-12T05:55:07Z</time>
      </trkpt>
      <trkpt lat="49.1889" lon="-1.58136">
        <ele>8.1</ele>
        <time>2020-06-12T05:55:08Z</time>
      </trkpt>
      <trkpt lat="49.18895" lon="-1.58134">
        <ele>8.1</ele>
        <time>2020-06-12T05:55:09Z</time>
      </trkpt>
      <trkpt lat="49.18901" lon="-1.58133">
        <ele>8.1</ele>
        <time>2020-06-12T05:55:10Z</time>
      </trkpt>
      <trkpt lat="49.18906" lon="-1.58132">
        <ele>8.1</ele>
        <time>2020-06-12T05:55:11Z</time>
      </trkpt>
      <trkpt lat="49.18912" lon="-1.58131">
        <ele>8.1</ele>
        <time>2020-06-12T05:55:12Z</time>
      </trkpt>
      <trkpt lat="49.18918" lon="-1.5813">
        <ele>8.1</ele>
        <time>2020-06-12T05:55:13Z</time>
      </trkpt>
      <trkpt lat="49.18923" lon="-1.58128">
        <ele>8.2</ele>
        <time>2020-06-12T05:55:14Z</time>
      </trkpt>
      <trkpt lat="49.18929" lon="-1.58127">
        <ele>8.2</ele>
        <time>2020-06-12T05:55:15Z</time>
      </trkpt>
      <trkpt lat="49.18934" lon="-1.58125">
        <ele>8.2</ele>
        <time>2020-06-12T05:55:16Z</time>
      </trkpt>
      <trkpt lat="49.1894" lon="-1.58124">
        <ele>8.2</ele>
        <time>2020-06-12T05:55:17Z</time>
      </trkpt>
      <trkpt lat="49.18945" lon="-1.58122">
        <ele>8.2</ele>
        <time>2020-06-12T05:55:18Z</time>
      </trkpt>
      <trkpt lat="49.1895" lon="-1.5812">
        <ele>8.3</ele>
        <time>2020-06-12T05:55:19Z</time>
      </trkpt>
      <trkpt lat="49.18955" lon="-1.58119">
        <ele>8.3</ele>
        <time>2020-06-12T05:55:20Z</time>
      </trkpt>
      <trkpt lat="49.1896" lon="-1.58117">
        <ele>8.4</ele>
        <time>2020-06-12T05:55:21Z</time>
      </trkpt>
      <trkpt lat="49.18965" lon="-1.58116">
        <ele>8.5</ele>
        <time>2020-06-12T05:55:22Z</time>
      </trkpt>
      <trkpt lat="49.18971" lon="-1.58115">
        <ele>8.6</ele>
        <time>2020-06-12T05:55:23Z</time>
      </trkpt>
      <trkpt lat="49.18977" lon="-1.58113">
        <ele>8.6</ele>
        <time>2020-06-12T05:55:24Z</time>
      </trkpt>
      <trkpt lat="49.18982" lon="-1.58112">
        <ele>8.6</ele>
        <time>2020-06-12T05:55:25Z</time>
      </trkpt>
      <trkpt lat="49.18988" lon="-1.5811">
        <ele>8.6</ele>
        <time>2020-06-12T05:55:26Z</time>
      </trkpt>
      <trkpt lat="49.18993" lon="-1.58109">
        <ele>8.6</ele>
        <time>2020-06-12T05:55:27Z</time>
      </trkpt>
      <trkpt lat="49.18999" lon="-1.58107">
        <ele>8.6</ele>
        <time>2020-06-12T05:55:28Z</time>
      </trkpt>
      <trkpt lat="49.19004" lon="-1.58106">
        <ele>8.6</ele>
        <time>2020-06-12T05:55:29Z</time>
      </trkpt>
      <trkpt lat="49.19009" lon="-1.58104">
        <ele>8.6</ele>
        <time>2020-06-12T05:55:30Z</time>
      </trkpt>
      <trkpt lat="49.19014" lon="-1.58102">
        <ele>8.6</ele>
        <time>2020-06-12T05:55:31Z</time>
      </trkpt>
      <trkpt lat="49.1902" lon="-1.58101">
        <ele>8.6</ele>
        <time>2020-06-12T05:55:32Z</time>
      </trkpt>
      <trkpt lat="49.19025" lon="-1.581">
        <ele>8.7</ele>
        <time>2020-06-12T05:55:33Z</time>
      </trkpt>
      <trkpt lat="49.19031" lon="-1.58098">
        <ele>8.7</ele>
        <time>2020-06-12T05:55:34Z</time>
      </trkpt>
      <trkpt lat="49.19036" lon="-1.58096">
        <ele>8.8</ele>
        <time>2020-06-12T05:55:35Z</time>
      </trkpt>
      <trkpt lat="49.19041" lon="-1.58095">
        <ele>8.8</ele>
        <time>2020-06-12T05:55:36Z</time>
      </trkpt>
      <trkpt lat="49.19046" lon="-1.58093">
        <ele>8.8</ele>
        <time>2020-06-12T05:55:37Z</time>
      </trkpt>
      <trkpt lat="49.19052" lon="-1.58091">
        <ele>8.8</ele>
        <time>2020-06-12T05:55:38Z</time>
      </trkpt>
      <trkpt lat="49.19057" lon="-1.5809">
        <ele>8.8</ele>
        <time>2020-06-12T05:55:39Z</time>
      </trkpt>
      <trkpt lat="49.19063" lon="-1.58088">
        <ele>8.8</ele>
        <time>2020-06-12T05:55:40Z</time>
      </trkpt>
      <trkpt lat="49.19068" lon="-1.58086">
        <ele>8.8</ele>
        <time>2020-06-12T05:55:41Z</time>
      </trkpt>
      <trkpt lat="49.19074" lon="-1.58084">
        <ele>8.8</ele>
        <time>2020-06-12T05:55:42Z</time>
      </trkpt>
      <trkpt lat="49.19079" lon="-1.58082">
        <ele>8.8</ele>
        <time>2020-06-12T05:55:43Z</time>
      </trkpt>
      <trkpt lat="49.19085" lon="-1.5808">
        <ele>8.8</ele>
        <time>2020-06-12T05:55:44Z</time>
      </trkpt>
      <trkpt lat="49.19089" lon="-1.58078">
        <ele>8.8</ele>
        <time>2020-06-12T05:55:45Z</time>
      </trkpt>
      <trkpt lat="49.19094" lon="-1.58076">
        <ele>8.8</ele>
        <time>2020-06-12T05:55:46Z</time>
      </trkpt>
      <trkpt lat="49.19099" lon="-1.58073">
        <ele>8.8</ele>
        <time>2020-06-12T05:55:47Z</time>
      </trkpt>
      <trkpt lat="49.19104" lon="-1.5807">
        <ele>8.8</ele>
        <time>2020-06-12T05:55:48Z</time>
      </trkpt>
      <trkpt lat="49.19109" lon="-1.58068">
        <ele>8.8</ele>
        <time>2020-06-12T05:55:49Z</time>
      </trkpt>
      <trkpt lat="49.19114" lon="-1.58066">
        <ele>8.8</ele>
        <time>2020-06-12T05:55:50Z</time>
      </trkpt>
      <trkpt lat="49.1912" lon="-1.58063">
        <ele>8.9</ele>
        <time>2020-06-12T05:55:51Z</time>
      </trkpt>
      <trkpt lat="49.19127" lon="-1.58061">
        <ele>8.9</ele>
        <time>2020-06-12T05:55:52Z</time>
      </trkpt>
      <trkpt lat="49.19132" lon="-1.58058">
        <ele>9</ele>
        <time>2020-06-12T05:55:53Z</time>
      </trkpt>
      <trkpt lat="49.19137" lon="-1.58055">
        <ele>9</ele>
        <time>2020-06-12T05:55:54Z</time>
      </trkpt>
      <trkpt lat="49.19142" lon="-1.58052">
        <ele>9</ele>
        <time>2020-06-12T05:55:55Z</time>
      </trkpt>
      <trkpt lat="49.19147" lon="-1.58049">
        <ele>9</ele>
        <time>2020-06-12T05:55:56Z</time>
      </trkpt>
      <trkpt lat="49.19152" lon="-1.58046">
        <ele>8.9</ele>
        <time>2020-06-12T05:55:57Z</time>
      </trkpt>
      <trkpt lat="49.19157" lon="-1.58043">
        <ele>8.9</ele>
        <time>2020-06-12T05:55:58Z</time>
      </trkpt>
      <trkpt lat="49.19162" lon="-1.5804">
        <ele>8.9</ele>
        <time>2020-06-12T05:55:59Z</time>
      </trkpt>
      <trkpt lat="49.19167" lon="-1.58037">
        <ele>9</ele>
        <time>2020-06-12T05:56:00Z</time>
      </trkpt>
      <trkpt lat="49.19173" lon="-1.58035">
        <ele>9</ele>
        <time>2020-06-12T05:56:01Z</time>
      </trkpt>
      <trkpt lat="49.19178" lon="-1.58032">
        <ele>9</ele>
        <time>2020-06-12T05:56:02Z</time>
      </trkpt>
      <trkpt lat="49.19182" lon="-1.58029">
        <ele>8.9</ele>
        <time>2020-06-12T05:56:03Z</time>
      </trkpt>
      <trkpt lat="49.19187" lon="-1.58026">
        <ele>8.9</ele>
        <time>2020-06-12T05:56:04Z</time>
      </trkpt>
      <trkpt lat="49.19192" lon="-1.58022">
        <ele>8.8</ele>
        <time>2020-06-12T05:56:05Z</time>
      </trkpt>
      <trkpt lat="49.19197" lon="-1.58019">
        <ele>8.8</ele>
        <time>2020-06-12T05:56:06Z</time>
      </trkpt>
      <trkpt lat="49.19203" lon="-1.58016">
        <ele>8.7</ele>
        <time>2020-06-12T05:56:07Z</time>
      </trkpt>
      <trkpt lat="49.19207" lon="-1.58012">
        <ele>8.7</ele>
        <time>2020-06-12T05:56:08Z</time>
      </trkpt>
      <trkpt lat="49.19213" lon="-1.58008">
        <ele>8.7</ele>
        <time>2020-06-12T05:56:09Z</time>
      </trkpt>
      <trkpt lat="49.19218" lon="-1.58004">
        <ele>8.7</ele>
        <time>2020-06-12T05:56:10Z</time>
      </trkpt>
      <trkpt lat="49.19223" lon="-1.57999">
        <ele>8.6</ele>
        <time>2020-06-12T05:56:11Z</time>
      </trkpt>
      <trkpt lat="49.19228" lon="-1.57995">
        <ele>8.6</ele>
        <time>2020-06-12T05:56:12Z</time>
      </trkpt>
      <trkpt lat="49.19232" lon="-1.5799">
        <ele>8.6</ele>
        <time>2020-06-12T05:56:13Z</time>
      </trkpt>
      <trkpt lat="49.19236" lon="-1.57986">
        <ele>8.6</ele>
        <time>2020-06-12T05:56:14Z</time>
      </trkpt>
      <trkpt lat="49.19239" lon="-1.57982">
        <ele>8.6</ele>
        <time>2020-06-12T05:56:15Z</time>
      </trkpt>
      <trkpt lat="49.19244" lon="-1.5798">
        <ele>8.6</ele>
        <time>2020-06-12T05:56:16Z</time>
      </trkpt>
      <trkpt lat="49.19248" lon="-1.57976">
        <ele>8.6</ele>
        <time>2020-06-12T05:56:17Z</time>
      </trkpt>
      <trkpt lat="49.19253" lon="-1.57972">
        <ele>8.6</ele>
        <time>2020-06-12T05:56:18Z</time>
      </trkpt>
      <trkpt lat="49.19257" lon="-1.57968">
        <ele>8.6</ele>
        <time>2020-06-12T05:56:19Z</time>
      </trkpt>
      <trkpt lat="49.19262" lon="-1.57963">
        <ele>8.5</ele>
        <time>2020-06-12T05:56:20Z</time>
      </trkpt>
      <trkpt lat="49.19266" lon="-1.5796">
        <ele>8.5</ele>
        <time>2020-06-12T05:56:21Z</time>
      </trkpt>
      <trkpt lat="49.1927" lon="-1.57956">
        <ele>8.5</ele>
        <time>2020-06-12T05:56:22Z</time>
      </trkpt>
      <trkpt lat="49.19275" lon="-1.57952">
        <ele>8.4</ele>
        <time>2020-06-12T05:56:23Z</time>
      </trkpt>
      <trkpt lat="49.1928" lon="-1.57947">
        <ele>8.4</ele>
        <time>2020-06-12T05:56:24Z</time>
      </trkpt>
      <trkpt lat="49.19285" lon="-1.57943">
        <ele>8.4</ele>
        <time>2020-06-12T05:56:25Z</time>
      </trkpt>
      <trkpt lat="49.1929" lon="-1.57939">
        <ele>8.4</ele>
        <time>2020-06-12T05:56:26Z</time>
      </trkpt>
      <trkpt lat="49.19295" lon="-1.57935">
        <ele>8.4</ele>
        <time>2020-06-12T05:56:27Z</time>
      </trkpt>
      <trkpt lat="49.19299" lon="-1.5793">
        <ele>8.4</ele>
        <time>2020-06-12T05:56:28Z</time>
      </trkpt>
      <trkpt lat="49.19303" lon="-1.57927">
        <ele>8.4</ele>
        <time>2020-06-12T05:56:29Z</time>
      </trkpt>
      <trkpt lat="49.19308" lon="-1.57923">
        <ele>8.4</ele>
        <time>2020-06-12T05:56:30Z</time>
      </trkpt>
      <trkpt lat="49.19312" lon="-1.57918">
        <ele>8.4</ele>
        <time>2020-06-12T05:56:31Z</time>
      </trkpt>
      <trkpt lat="49.19317" lon="-1.57915">
        <ele>8.4</ele>
        <time>2020-06-12T05:56:32Z</time>
      </trkpt>
      <trkpt lat="49.19322" lon="-1.57911">
        <ele>8.4</ele>
        <time>2020-06-12T05:56:33Z</time>
      </trkpt>
      <trkpt lat="49.19327" lon="-1.57907">
        <ele>8.5</ele>
        <time>2020-06-12T05:56:34Z</time>
      </trkpt>
      <trkpt lat="49.19331" lon="-1.57903">
        <ele>8.5</ele>
        <time>2020-06-12T05:56:35Z</time>
      </trkpt>
      <trkpt lat="49.19335" lon="-1.57899">
        <ele>8.4</ele>
        <time>2020-06-12T05:56:36Z</time>
      </trkpt>
      <trkpt lat="49.1934" lon="-1.57895">
        <ele>8.4</ele>
        <time>2020-06-12T05:56:37Z</time>
      </trkpt>
      <trkpt lat="49.19345" lon="-1.57891">
        <ele>8.4</ele>
        <time>2020-06-12T05:56:38Z</time>
      </trkpt>
      <trkpt lat="49.19349" lon="-1.57887">
        <ele>8.4</ele>
        <time>2020-06-12T05:56:39Z</time>
      </trkpt>
      <trkpt lat="49.19354" lon="-1.57883">
        <ele>8.4</ele>
        <time>2020-06-12T05:56:40Z</time>
      </trkpt>
      <trkpt lat="49.19358" lon="-1.57879">
        <ele>8.4</ele>
        <time>2020-06-12T05:56:41Z</time>
      </trkpt>
      <trkpt lat="49.19363" lon="-1.57876">
        <ele>8.3</ele>
        <time>2020-06-12T05:56:42Z</time>
      </trkpt>
      <trkpt lat="49.19367" lon="-1.57872">
        <ele>8.3</ele>
        <time>2020-06-12T05:56:43Z</time>
      </trkpt>
      <trkpt lat="49.19372" lon="-1.57868">
        <ele>8.3</ele>
        <time>2020-06-12T05:56:44Z</time>
      </trkpt>
      <trkpt lat="49.19376" lon="-1.57864">
        <ele>8.3</ele>
        <time>2020-06-12T05:56:45Z</time>
      </trkpt>
      <trkpt lat="49.19381" lon="-1.5786">
        <ele>8.3</ele>
        <time>2020-06-12T05:56:46Z</time>
      </trkpt>
      <trkpt lat="49.19386" lon="-1.57856">
        <ele>8.3</ele>
        <time>2020-06-12T05:56:47Z</time>
      </trkpt>
      <trkpt lat="49.1939" lon="-1.57852">
        <ele>8.3</ele>
        <time>2020-06-12T05:56:48Z</time>
      </trkpt>
      <trkpt lat="49.19395" lon="-1.57848">
        <ele>8.2</ele>
        <time>2020-06-12T05:56:49Z</time>
      </trkpt>
      <trkpt lat="49.19399" lon="-1.57845">
        <ele>8.2</ele>
        <time>2020-06-12T05:56:50Z</time>
      </trkpt>
      <trkpt lat="49.19405" lon="-1.57841">
        <ele>8.2</ele>
        <time>2020-06-12T05:56:51Z</time>
      </trkpt>
      <trkpt lat="49.19409" lon="-1.57839">
        <ele>8.2</ele>
        <time>2020-06-12T05:56:52Z</time>
      </trkpt>
      <trkpt lat="49.19413" lon="-1.57836">
        <ele>8.3</ele>
        <time>2020-06-12T05:56:53Z</time>
      </trkpt>
      <trkpt lat="49.19419" lon="-1.57832">
        <ele>8.3</ele>
        <time>2020-06-12T05:56:54Z</time>
      </trkpt>
      <trkpt lat="49.19423" lon="-1.5783">
        <ele>8.3</ele>
        <time>2020-06-12T05:56:55Z</time>
      </trkpt>
      <trkpt lat="49.19428" lon="-1.57827">
        <ele>8.3</ele>
        <time>2020-06-12T05:56:56Z</time>
      </trkpt>
      <trkpt lat="49.19433" lon="-1.57824">
        <ele>8.3</ele>
        <time>2020-06-12T05:56:57Z</time>
      </trkpt>
      <trkpt lat="49.19437" lon="-1.57819">
        <ele>8.3</ele>
        <time>2020-06-12T05:56:58Z</time>
      </trkpt>
      <trkpt lat="49.19442" lon="-1.57817">
        <ele>8.3</ele>
        <time>2020-06-12T05:56:59Z</time>
      </trkpt>
      <trkpt lat="49.19447" lon="-1.57815">
        <ele>8.2</ele>
        <time>2020-06-12T05:57:00Z</time>
      </trkpt>
      <trkpt lat="49.19452" lon="-1.57812">
        <ele>8.2</ele>
        <time>2020-06-12T05:57:01Z</time>
      </trkpt>
      <trkpt lat="49.19457" lon="-1.57809">
        <ele>8.2</ele>
        <time>2020-06-12T05:57:02Z</time>
      </trkpt>
      <trkpt lat="49.19462" lon="-1.57806">
        <ele>8.2</ele>
        <time>2020-06-12T05:57:03Z</time>
      </trkpt>
      <trkpt lat="49.19467" lon="-1.57803">
        <ele>8.2</ele>
        <time>2020-06-12T05:57:04Z</time>
      </trkpt>
      <trkpt lat="49.19472" lon="-1.578">
        <ele>8.2</ele>
        <time>2020-06-12T05:57:05Z</time>
      </trkpt>
      <trkpt lat="49.19476" lon="-1.57799">
        <ele>8.2</ele>
        <time>2020-06-12T05:57:06Z</time>
      </trkpt>
      <trkpt lat="49.19481" lon="-1.57797">
        <ele>8.2</ele>
        <time>2020-06-12T05:57:07Z</time>
      </trkpt>
      <trkpt lat="49.19486" lon="-1.57794">
        <ele>8.1</ele>
        <time>2020-06-12T05:57:08Z</time>
      </trkpt>
      <trkpt lat="49.19492" lon="-1.57791">
        <ele>8.1</ele>
        <time>2020-06-12T05:57:09Z</time>
      </trkpt>
      <trkpt lat="49.19497" lon="-1.57789">
        <ele>8.1</ele>
        <time>2020-06-12T05:57:10Z</time>
      </trkpt>
      <trkpt lat="49.19502" lon="-1.57786">
        <ele>8</ele>
        <time>2020-06-12T05:57:11Z</time>
      </trkpt>
      <trkpt lat="49.19508" lon="-1.57784">
        <ele>8</ele>
        <time>2020-06-12T05:57:12Z</time>
      </trkpt>
      <trkpt lat="49.19514" lon="-1.57782">
        <ele>8</ele>
        <time>2020-06-12T05:57:13Z</time>
      </trkpt>
      <trkpt lat="49.19519" lon="-1.57781">
        <ele>8</ele>
        <time>2020-06-12T05:57:14Z</time>
      </trkpt>
      <trkpt lat="49.19525" lon="-1.57779">
        <ele>8</ele>
        <time>2020-06-12T05:57:15Z</time>
      </trkpt>
      <trkpt lat="49.1953" lon="-1.57776">
        <ele>8</ele>
        <time>2020-06-12T05:57:16Z</time>
      </trkpt>
      <trkpt lat="49.19536" lon="-1.57773">
        <ele>8</ele>
        <time>2020-06-12T05:57:17Z</time>
      </trkpt>
      <trkpt lat="49.19541" lon="-1.57771">
        <ele>8</ele>
        <time>2020-06-12T05:57:18Z</time>
      </trkpt>
      <trkpt lat="49.19546" lon="-1.57767">
        <ele>8</ele>
        <time>2020-06-12T05:57:19Z</time>
      </trkpt>
      <trkpt lat="49.19551" lon="-1.57764">
        <ele>7.9</ele>
        <time>2020-06-12T05:57:20Z</time>
      </trkpt>
      <trkpt lat="49.19556" lon="-1.57761">
        <ele>7.9</ele>
        <time>2020-06-12T05:57:21Z</time>
      </trkpt>
      <trkpt lat="49.1956" lon="-1.5776">
        <ele>7.9</ele>
        <time>2020-06-12T05:57:22Z</time>
      </trkpt>
      <trkpt lat="49.19565" lon="-1.57757">
        <ele>7.9</ele>
        <time>2020-06-12T05:57:23Z</time>
      </trkpt>
      <trkpt lat="49.1957" lon="-1.57756">
        <ele>7.9</ele>
        <time>2020-06-12T05:57:24Z</time>
      </trkpt>
      <trkpt lat="49.19574" lon="-1.57753">
        <ele>7.9</ele>
        <time>2020-06-12T05:57:25Z</time>
      </trkpt>
      <trkpt lat="49.1958" lon="-1.57751">
        <ele>7.9</ele>
        <time>2020-06-12T05:57:26Z</time>
      </trkpt>
      <trkpt lat="49.19585" lon="-1.57749">
        <ele>7.8</ele>
        <time>2020-06-12T05:57:27Z</time>
      </trkpt>
      <trkpt lat="49.1959" lon="-1.57747">
        <ele>7.8</ele>
        <time>2020-06-12T05:57:28Z</time>
      </trkpt>
      <trkpt lat="49.19595" lon="-1.57744">
        <ele>7.8</ele>
        <time>2020-06-12T05:57:29Z</time>
      </trkpt>
      <trkpt lat="49.196" lon="-1.57742">
        <ele>7.8</ele>
        <time>2020-06-12T05:57:30Z</time>
      </trkpt>
      <trkpt lat="49.19605" lon="-1.5774">
        <ele>7.8</ele>
        <time>2020-06-12T05:57:31Z</time>
      </trkpt>
      <trkpt lat="49.19611" lon="-1.57738">
        <ele>7.8</ele>
        <time>2020-06-12T05:57:32Z</time>
      </trkpt>
      <trkpt lat="49.19617" lon="-1.57735">
        <ele>7.8</ele>
        <time>2020-06-12T05:57:33Z</time>
      </trkpt>
      <trkpt lat="49.19622" lon="-1.57732">
        <ele>7.8</ele>
        <time>2020-06-12T05:57:34Z</time>
      </trkpt>
      <trkpt lat="49.19627" lon="-1.5773">
        <ele>7.7</ele>
        <time>2020-06-12T05:57:35Z</time>
      </trkpt>
      <trkpt lat="49.19632" lon="-1.57728">
        <ele>7.7</ele>
        <time>2020-06-12T05:57:36Z</time>
      </trkpt>
      <trkpt lat="49.19637" lon="-1.57726">
        <ele>7.7</ele>
        <time>2020-06-12T05:57:37Z</time>
      </trkpt>
      <trkpt lat="49.19642" lon="-1.57724">
        <ele>7.7</ele>
        <time>2020-06-12T05:57:38Z</time>
      </trkpt>
      <trkpt lat="49.19647" lon="-1.57722">
        <ele>7.7</ele>
        <time>2020-06-12T05:57:39Z</time>
      </trkpt>
      <trkpt lat="49.19651" lon="-1.57721">
        <ele>7.7</ele>
        <time>2020-06-12T05:57:40Z</time>
      </trkpt>
      <trkpt lat="49.19657" lon="-1.57718">
        <ele>7.7</ele>
        <time>2020-06-12T05:57:41Z</time>
      </trkpt>
      <trkpt lat="49.19662" lon="-1.57715">
        <ele>7.7</ele>
        <time>2020-06-12T05:57:42Z</time>
      </trkpt>
      <trkpt lat="49.19666" lon="-1.57714">
        <ele>7.7</ele>
        <time>2020-06-12T05:57:43Z</time>
      </trkpt>
      <trkpt lat="49.19671" lon="-1.57712">
        <ele>7.7</ele>
        <time>2020-06-12T05:57:44Z</time>
      </trkpt>
      <trkpt lat="49.19676" lon="-1.57709">
        <ele>7.6</ele>
        <time>2020-06-12T05:57:45Z</time>
      </trkpt>
      <trkpt lat="49.19681" lon="-1.57707">
        <ele>7.6</ele>
        <time>2020-06-12T05:57:46Z</time>
      </trkpt>
      <trkpt lat="49.19686" lon="-1.57706">
        <ele>7.6</ele>
        <time>2020-06-12T05:57:47Z</time>
      </trkpt>
      <trkpt lat="49.19691" lon="-1.57704">
        <ele>7.6</ele>
        <time>2020-06-12T05:57:48Z</time>
      </trkpt>
      <trkpt lat="49.19695" lon="-1.57702">
        <ele>7.6</ele>
        <time>2020-06-12T05:57:49Z</time>
      </trkpt>
      <trkpt lat="49.197" lon="-1.57701">
        <ele>7.6</ele>
        <time>2020-06-12T05:57:50Z</time>
      </trkpt>
      <trkpt lat="49.19704" lon="-1.57701">
        <ele>7.6</ele>
        <time>2020-06-12T05:57:51Z</time>
      </trkpt>
      <trkpt lat="49.19709" lon="-1.57698">
        <ele>7.6</ele>
        <time>2020-06-12T05:57:52Z</time>
      </trkpt>
      <trkpt lat="49.19713" lon="-1.57696">
        <ele>7.6</ele>
        <time>2020-06-12T05:57:53Z</time>
      </trkpt>
      <trkpt lat="49.19717" lon="-1.57693">
        <ele>7.6</ele>
        <time>2020-06-12T05:57:54Z</time>
      </trkpt>
      <trkpt lat="49.19722" lon="-1.57691">
        <ele>7.5</ele>
        <time>2020-06-12T05:57:55Z</time>
      </trkpt>
      <trkpt lat="49.19727" lon="-1.57689">
        <ele>7.5</ele>
        <time>2020-06-12T05:57:56Z</time>
      </trkpt>
      <trkpt lat="49.19732" lon="-1.57686">
        <ele>7.5</ele>
        <time>2020-06-12T05:57:57Z</time>
      </trkpt>
      <trkpt lat="49.19736" lon="-1.57684">
        <ele>7.5</ele>
        <time>2020-06-12T05:57:58Z</time>
      </trkpt>
      <trkpt lat="49.19741" lon="-1.57682">
        <ele>7.5</ele>
        <time>2020-06-12T05:57:59Z</time>
      </trkpt>
      <trkpt lat="49.19746" lon="-1.5768">
        <ele>7.5</ele>
        <time>2020-06-12T05:58:00Z</time>
      </trkpt>
      <trkpt lat="49.1975" lon="-1.57678">
        <ele>7.5</ele>
        <time>2020-06-12T05:58:01Z</time>
      </trkpt>
      <trkpt lat="49.19755" lon="-1.57676">
        <ele>7.5</ele>
        <time>2020-06-12T05:58:02Z</time>
      </trkpt>
      <trkpt lat="49.1976" lon="-1.57673">
        <ele>7.4</ele>
        <time>2020-06-12T05:58:03Z</time>
      </trkpt>
      <trkpt lat="49.19765" lon="-1.5767">
        <ele>7.4</ele>
        <time>2020-06-12T05:58:04Z</time>
      </trkpt>
      <trkpt lat="49.1977" lon="-1.57668">
        <ele>7.4</ele>
        <time>2020-06-12T05:58:05Z</time>
      </trkpt>
      <trkpt lat="49.19775" lon="-1.57667">
        <ele>7.4</ele>
        <time>2020-06-12T05:58:06Z</time>
      </trkpt>
      <trkpt lat="49.1978" lon="-1.57665">
        <ele>7.4</ele>
        <time>2020-06-12T05:58:07Z</time>
      </trkpt>
      <trkpt lat="49.19785" lon="-1.57663">
        <ele>7.4</ele>
        <time>2020-06-12T05:58:08Z</time>
      </trkpt>
      <trkpt lat="49.1979" lon="-1.5766">
        <ele>7.4</ele>
        <time>2020-06-12T05:58:09Z</time>
      </trkpt>
      <trkpt lat="49.19795" lon="-1.57659">
        <ele>7.4</ele>
        <time>2020-06-12T05:58:10Z</time>
      </trkpt>
      <trkpt lat="49.198" lon="-1.57656">
        <ele>7.3</ele>
        <time>2020-06-12T05:58:11Z</time>
      </trkpt>
      <trkpt lat="49.19805" lon="-1.57656">
        <ele>7.3</ele>
        <time>2020-06-12T05:58:12Z</time>
      </trkpt>
      <trkpt lat="49.1981" lon="-1.57655">
        <ele>7.3</ele>
        <time>2020-06-12T05:58:13Z</time>
      </trkpt>
      <trkpt lat="49.19816" lon="-1.57653">
        <ele>7.3</ele>
        <time>2020-06-12T05:58:14Z</time>
      </trkpt>
      <trkpt lat="49.19821" lon="-1.57651">
        <ele>7.2</ele>
        <time>2020-06-12T05:58:15Z</time>
      </trkpt>
      <trkpt lat="49.19827" lon="-1.57648">
        <ele>7.2</ele>
        <time>2020-06-12T05:58:16Z</time>
      </trkpt>
      <trkpt lat="49.19832" lon="-1.57646">
        <ele>7.2</ele>
        <time>2020-06-12T05:58:17Z</time>
      </trkpt>
      <trkpt lat="49.19837" lon="-1.57645">
        <ele>7.2</ele>
        <time>2020-06-12T05:58:18Z</time>
      </trkpt>
      <trkpt lat="49.19842" lon="-1.57643">
        <ele>7.1</ele>
        <time>2020-06-12T05:58:19Z</time>
      </trkpt>
      <trkpt lat="49.19847" lon="-1.57642">
        <ele>7.1</ele>
        <time>2020-06-12T05:58:20Z</time>
      </trkpt>
      <trkpt lat="49.19853" lon="-1.57641">
        <ele>7.1</ele>
        <time>2020-06-12T05:58:21Z</time>
      </trkpt>
      <trkpt lat="49.19858" lon="-1.57641">
        <ele>7.1</ele>
        <time>2020-06-12T05:58:22Z</time>
      </trkpt>
      <trkpt lat="49.19863" lon="-1.5764">
        <ele>7.1</ele>
        <time>2020-06-12T05:58:23Z</time>
      </trkpt>
      <trkpt lat="49.19868" lon="-1.57639">
        <ele>7.1</ele>
        <time>2020-06-12T05:58:24Z</time>
      </trkpt>
      <trkpt lat="49.19873" lon="-1.57638">
        <ele>7.1</ele>
        <time>2020-06-12T05:58:25Z</time>
      </trkpt>
      <trkpt lat="49.19878" lon="-1.57637">
        <ele>7.1</ele>
        <time>2020-06-12T05:58:26Z</time>
      </trkpt>
      <trkpt lat="49.19883" lon="-1.57635">
        <ele>7.1</ele>
        <time>2020-06-12T05:58:27Z</time>
      </trkpt>
      <trkpt lat="49.19888" lon="-1.57634">
        <ele>7.1</ele>
        <time>2020-06-12T05:58:28Z</time>
      </trkpt>
      <trkpt lat="49.19894" lon="-1.57632">
        <ele>7.2</ele>
        <time>2020-06-12T05:58:29Z</time>
      </trkpt>
      <trkpt lat="49.19899" lon="-1.5763">
        <ele>7.2</ele>
        <time>2020-06-12T05:58:30Z</time>
      </trkpt>
      <trkpt lat="49.19904" lon="-1.5763">
        <ele>7.2</ele>
        <time>2020-06-12T05:58:31Z</time>
      </trkpt>
      <trkpt lat="49.19909" lon="-1.57629">
        <ele>7.3</ele>
        <time>2020-06-12T05:58:32Z</time>
      </trkpt>
      <trkpt lat="49.19915" lon="-1.57627">
        <ele>7.3</ele>
        <time>2020-06-12T05:58:33Z</time>
      </trkpt>
      <trkpt lat="49.19919" lon="-1.57625">
        <ele>7.3</ele>
        <time>2020-06-12T05:58:34Z</time>
      </trkpt>
      <trkpt lat="49.19924" lon="-1.57624">
        <ele>7.3</ele>
        <time>2020-06-12T05:58:35Z</time>
      </trkpt>
      <trkpt lat="49.19929" lon="-1.57623">
        <ele>7.3</ele>
        <time>2020-06-12T05:58:36Z</time>
      </trkpt>
      <trkpt lat="49.19933" lon="-1.57623">
        <ele>7.3</ele>
        <time>2020-06-12T05:58:37Z</time>
      </trkpt>
      <trkpt lat="49.19938" lon="-1.57623">
        <ele>7.3</ele>
        <time>2020-06-12T05:58:38Z</time>
      </trkpt>
      <trkpt lat="49.19942" lon="-1.57622">
        <ele>7.3</ele>
        <time>2020-06-12T05:58:39Z</time>
      </trkpt>
      <trkpt lat="49.19947" lon="-1.5762">
        <ele>7.3</ele>
        <time>2020-06-12T05:58:40Z</time>
      </trkpt>
      <trkpt lat="49.19952" lon="-1.57616">
        <ele>7.2</ele>
        <time>2020-06-12T05:58:41Z</time>
      </trkpt>
      <trkpt lat="49.19955" lon="-1.57612">
        <ele>8.4</ele>
        <time>2020-06-12T05:58:42Z</time>
      </trkpt>
      <trkpt lat="49.19958" lon="-1.57607">
        <ele>8.2</ele>
        <time>2020-06-12T05:58:43Z</time>
      </trkpt>
      <trkpt lat="49.19961" lon="-1.57602">
        <ele>8</ele>
        <time>2020-06-12T05:58:44Z</time>
      </trkpt>
      <trkpt lat="49.19965" lon="-1.57596">
        <ele>7.7</ele>
        <time>2020-06-12T05:58:45Z</time>
      </trkpt>
      <trkpt lat="49.1997" lon="-1.57591">
        <ele>7.4</ele>
        <time>2020-06-12T05:58:46Z</time>
      </trkpt>
      <trkpt lat="49.19974" lon="-1.57587">
        <ele>7.2</ele>
        <time>2020-06-12T05:58:47Z</time>
      </trkpt>
      <trkpt lat="49.19978" lon="-1.57585">
        <ele>7</ele>
        <time>2020-06-12T05:58:48Z</time>
      </trkpt>
      <trkpt lat="49.19982" lon="-1.57582">
        <ele>6.7</ele>
        <time>2020-06-12T05:58:49Z</time>
      </trkpt>
      <trkpt lat="49.19986" lon="-1.57581">
        <ele>6.5</ele>
        <time>2020-06-12T05:58:50Z</time>
      </trkpt>
      <trkpt lat="49.19991" lon="-1.57584">
        <ele>6.6</ele>
        <time>2020-06-12T05:58:51Z</time>
      </trkpt>
      <trkpt lat="49.19995" lon="-1.57587">
        <ele>6.6</ele>
        <time>2020-06-12T05:58:52Z</time>
      </trkpt>
      <trkpt lat="49.19999" lon="-1.5759">
        <ele>6.7</ele>
        <time>2020-06-12T05:58:53Z</time>
      </trkpt>
      <trkpt lat="49.20003" lon="-1.57594">
        <ele>6.7</ele>
        <time>2020-06-12T05:58:54Z</time>
      </trkpt>
      <trkpt lat="49.20007" lon="-1.576">
        <ele>6.8</ele>
        <time>2020-06-12T05:58:55Z</time>
      </trkpt>
      <trkpt lat="49.20011" lon="-1.57604">
        <ele>6.8</ele>
        <time>2020-06-12T05:58:56Z</time>
      </trkpt>
      <trkpt lat="49.20015" lon="-1.57607">
        <ele>6.8</ele>
        <time>2020-06-12T05:58:57Z</time>
      </trkpt>
      <trkpt lat="49.20019" lon="-1.57608">
        <ele>6.8</ele>
        <time>2020-06-12T05:58:58Z</time>
      </trkpt>
      <trkpt lat="49.20024" lon="-1.57608">
        <ele>6.8</ele>
        <time>2020-06-12T05:58:59Z</time>
      </trkpt>
      <trkpt lat="49.20029" lon="-1.57607">
        <ele>6.8</ele>
        <time>2020-06-12T05:59:00Z</time>
      </trkpt>
      <trkpt lat="49.20033" lon="-1.57607">
        <ele>6.8</ele>
        <time>2020-06-12T05:59:01Z</time>
      </trkpt>
      <trkpt lat="49.20038" lon="-1.57606">
        <ele>6.8</ele>
        <time>2020-06-12T05:59:02Z</time>
      </trkpt>
      <trkpt lat="49.20043" lon="-1.57606">
        <ele>6.8</ele>
        <time>2020-06-12T05:59:03Z</time>
      </trkpt>
      <trkpt lat="49.20047" lon="-1.57605">
        <ele>6.8</ele>
        <time>2020-06-12T05:59:04Z</time>
      </trkpt>
      <trkpt lat="49.20052" lon="-1.57605">
        <ele>6.8</ele>
        <time>2020-06-12T05:59:05Z</time>
      </trkpt>
      <trkpt lat="49.20057" lon="-1.57605">
        <ele>6.8</ele>
        <time>2020-06-12T05:59:06Z</time>
      </trkpt>
      <trkpt lat="49.20062" lon="-1.57604">
        <ele>6.8</ele>
        <time>2020-06-12T05:59:07Z</time>
      </trkpt>
      <trkpt lat="49.20067" lon="-1.57603">
        <ele>6.7</ele>
        <time>2020-06-12T05:59:08Z</time>
      </trkpt>
      <trkpt lat="49.20071" lon="-1.57605">
        <ele>6.7</ele>
        <time>2020-06-12T05:59:09Z</time>
      </trkpt>
      <trkpt lat="49.20075" lon="-1.57605">
        <ele>6.7</ele>
        <time>2020-06-12T05:59:10Z</time>
      </trkpt>
      <trkpt lat="49.2008" lon="-1.57604">
        <ele>6.8</ele>
        <time>2020-06-12T05:59:11Z</time>
      </trkpt>
      <trkpt lat="49.20085" lon="-1.57604">
        <ele>6.8</ele>
        <time>2020-06-12T05:59:12Z</time>
      </trkpt>
      <trkpt lat="49.2009" lon="-1.57604">
        <ele>6.8</ele>
        <time>2020-06-12T05:59:13Z</time>
      </trkpt>
      <trkpt lat="49.20094" lon="-1.57604">
        <ele>6.8</ele>
        <time>2020-06-12T05:59:14Z</time>
      </trkpt>
      <trkpt lat="49.20099" lon="-1.57603">
        <ele>6.9</ele>
        <time>2020-06-12T05:59:15Z</time>
      </trkpt>
      <trkpt lat="49.20105" lon="-1.57602">
        <ele>6.9</ele>
        <time>2020-06-12T05:59:16Z</time>
      </trkpt>
      <trkpt lat="49.2011" lon="-1.57601">
        <ele>6.9</ele>
        <time>2020-06-12T05:59:17Z</time>
      </trkpt>
      <trkpt lat="49.20115" lon="-1.576">
        <ele>7</ele>
        <time>2020-06-12T05:59:18Z</time>
      </trkpt>
      <trkpt lat="49.2012" lon="-1.57599">
        <ele>7</ele>
        <time>2020-06-12T05:59:19Z</time>
      </trkpt>
      <trkpt lat="49.20125" lon="-1.57598">
        <ele>7</ele>
        <time>2020-06-12T05:59:20Z</time>
      </trkpt>
      <trkpt lat="49.2013" lon="-1.57597">
        <ele>7.1</ele>
        <time>2020-06-12T05:59:21Z</time>
      </trkpt>
      <trkpt lat="49.20135" lon="-1.57596">
        <ele>7.1</ele>
        <time>2020-06-12T05:59:22Z</time>
      </trkpt>
      <trkpt lat="49.2014" lon="-1.57596">
        <ele>7.1</ele>
        <time>2020-06-12T05:59:23Z</time>
      </trkpt>
      <trkpt lat="49.20145" lon="-1.57595">
        <ele>7.2</ele>
        <time>2020-06-12T05:59:24Z</time>
      </trkpt>
      <trkpt lat="49.20151" lon="-1.57594">
        <ele>7.2</ele>
        <time>2020-06-12T05:59:25Z</time>
      </trkpt>
      <trkpt lat="49.20155" lon="-1.57594">
        <ele>7.3</ele>
        <time>2020-06-12T05:59:26Z</time>
      </trkpt>
      <trkpt lat="49.20161" lon="-1.57592">
        <ele>7.3</ele>
        <time>2020-06-12T05:59:27Z</time>
      </trkpt>
      <trkpt lat="49.20166" lon="-1.5759">
        <ele>7.4</ele>
        <time>2020-06-12T05:59:28Z</time>
      </trkpt>
      <trkpt lat="49.20171" lon="-1.57588">
        <ele>7.5</ele>
        <time>2020-06-12T05:59:29Z</time>
      </trkpt>
      <trkpt lat="49.20176" lon="-1.57587">
        <ele>7.5</ele>
        <time>2020-06-12T05:59:30Z</time>
      </trkpt>
      <trkpt lat="49.20181" lon="-1.57586">
        <ele>7.6</ele>
        <time>2020-06-12T05:59:31Z</time>
      </trkpt>
      <trkpt lat="49.20185" lon="-1.57585">
        <ele>7.7</ele>
        <time>2020-06-12T05:59:32Z</time>
      </trkpt>
      <trkpt lat="49.2019" lon="-1.57584">
        <ele>7.7</ele>
        <time>2020-06-12T05:59:33Z</time>
      </trkpt>
      <trkpt lat="49.20195" lon="-1.57582">
        <ele>7.7</ele>
        <time>2020-06-12T05:59:34Z</time>
      </trkpt>
      <trkpt lat="49.202" lon="-1.57583">
        <ele>7.7</ele>
        <time>2020-06-12T05:59:35Z</time>
      </trkpt>
      <trkpt lat="49.20205" lon="-1.57583">
        <ele>7.7</ele>
        <time>2020-06-12T05:59:36Z</time>
      </trkpt>
      <trkpt lat="49.2021" lon="-1.57583">
        <ele>7.7</ele>
        <time>2020-06-12T05:59:37Z</time>
      </trkpt>
      <trkpt lat="49.20216" lon="-1.57582">
        <ele>7.7</ele>
        <time>2020-06-12T05:59:38Z</time>
      </trkpt>
      <trkpt lat="49.20221" lon="-1.57581">
        <ele>7.7</ele>
        <time>2020-06-12T05:59:39Z</time>
      </trkpt>
      <trkpt lat="49.20226" lon="-1.57581">
        <ele>7.7</ele>
        <time>2020-06-12T05:59:40Z</time>
      </trkpt>
      <trkpt lat="49.2023" lon="-1.5758">
        <ele>7.6</ele>
        <time>2020-06-12T05:59:41Z</time>
      </trkpt>
      <trkpt lat="49.20236" lon="-1.57581">
        <ele>7.6</ele>
        <time>2020-06-12T05:59:42Z</time>
      </trkpt>
      <trkpt lat="49.2024" lon="-1.57581">
        <ele>7.6</ele>
        <time>2020-06-12T05:59:43Z</time>
      </trkpt>
      <trkpt lat="49.20245" lon="-1.5758">
        <ele>7.6</ele>
        <time>2020-06-12T05:59:44Z</time>
      </trkpt>
      <trkpt lat="49.2025" lon="-1.5758">
        <ele>7.6</ele>
        <time>2020-06-12T05:59:45Z</time>
      </trkpt>
      <trkpt lat="49.20255" lon="-1.5758">
        <ele>7.6</ele>
        <time>2020-06-12T05:59:46Z</time>
      </trkpt>
      <trkpt lat="49.2026" lon="-1.5758">
        <ele>7.6</ele>
        <time>2020-06-12T05:59:47Z</time>
      </trkpt>
      <trkpt lat="49.20266" lon="-1.5758">
        <ele>7.6</ele>
        <time>2020-06-12T05:59:48Z</time>
      </trkpt>
      <trkpt lat="49.20271" lon="-1.5758">
        <ele>7.6</ele>
        <time>2020-06-12T05:59:49Z</time>
      </trkpt>
      <trkpt lat="49.20276" lon="-1.5758">
        <ele>7.6</ele>
        <time>2020-06-12T05:59:50Z</time>
      </trkpt>
      <trkpt lat="49.20281" lon="-1.5758">
        <ele>7.6</ele>
        <time>2020-06-12T05:59:51Z</time>
      </trkpt>
      <trkpt lat="49.20285" lon="-1.57579">
        <ele>7.6</ele>
        <time>2020-06-12T05:59:52Z</time>
      </trkpt>
      <trkpt lat="49.20291" lon="-1.57579">
        <ele>7.7</ele>
        <time>2020-06-12T05:59:53Z</time>
      </trkpt>
      <trkpt lat="49.20296" lon="-1.57579">
        <ele>7.7</ele>
        <time>2020-06-12T05:59:54Z</time>
      </trkpt>
      <trkpt lat="49.20302" lon="-1.5758">
        <ele>7.7</ele>
        <time>2020-06-12T05:59:55Z</time>
      </trkpt>
      <trkpt lat="49.20308" lon="-1.57581">
        <ele>7.6</ele>
        <time>2020-06-12T05:59:56Z</time>
      </trkpt>
      <trkpt lat="49.20314" lon="-1.57581">
        <ele>7.6</ele>
        <time>2020-06-12T05:59:57Z</time>
      </trkpt>
      <trkpt lat="49.20319" lon="-1.57582">
        <ele>7.6</ele>
        <time>2020-06-12T05:59:58Z</time>
      </trkpt>
      <trkpt lat="49.20325" lon="-1.57582">
        <ele>7.5</ele>
        <time>2020-06-12T05:59:59Z</time>
      </trkpt>
      <trkpt lat="49.2033" lon="-1.57581">
        <ele>7.5</ele>
        <time>2020-06-12T06:00:00Z</time>
      </trkpt>
      <trkpt lat="49.20337" lon="-1.57581">
        <ele>7.4</ele>
        <time>2020-06-12T06:00:01Z</time>
      </trkpt>
      <trkpt lat="49.20343" lon="-1.57582">
        <ele>7.4</ele>
        <time>2020-06-12T06:00:02Z</time>
      </trkpt>
      <trkpt lat="49.20349" lon="-1.57582">
        <ele>7.3</ele>
        <time>2020-06-12T06:00:03Z</time>
      </trkpt>
      <trkpt lat="49.20354" lon="-1.57582">
        <ele>7.3</ele>
        <time>2020-06-12T06:00:04Z</time>
      </trkpt>
      <trkpt lat="49.2036" lon="-1.57581">
        <ele>7.3</ele>
        <time>2020-06-12T06:00:05Z</time>
      </trkpt>
      <trkpt lat="49.20365" lon="-1.57582">
        <ele>7.3</ele>
        <time>2020-06-12T06:00:06Z</time>
      </trkpt>
      <trkpt lat="49.20371" lon="-1.57582">
        <ele>7.3</ele>
        <time>2020-06-12T06:00:07Z</time>
      </trkpt>
      <trkpt lat="49.20377" lon="-1.57582">
        <ele>7.3</ele>
        <time>2020-06-12T06:00:08Z</time>
      </trkpt>
      <trkpt lat="49.20382" lon="-1.57582">
        <ele>7.3</ele>
        <time>2020-06-12T06:00:09Z</time>
      </trkpt>
      <trkpt lat="49.20389" lon="-1.57582">
        <ele>7.3</ele>
        <time>2020-06-12T06:00:10Z</time>
      </trkpt>
      <trkpt lat="49.20395" lon="-1.57583">
        <ele>7.4</ele>
        <time>2020-06-12T06:00:11Z</time>
      </trkpt>
      <trkpt lat="49.20401" lon="-1.57582">
        <ele>7.4</ele>
        <time>2020-06-12T06:00:12Z</time>
      </trkpt>
      <trkpt lat="49.20406" lon="-1.57582">
        <ele>7.4</ele>
        <time>2020-06-12T06:00:13Z</time>
      </trkpt>
      <trkpt lat="49.20412" lon="-1.57582">
        <ele>7.4</ele>
        <time>2020-06-12T06:00:14Z</time>
      </trkpt>
      <trkpt lat="49.20418" lon="-1.57581">
        <ele>7.4</ele>
        <time>2020-06-12T06:00:15Z</time>
      </trkpt>
      <trkpt lat="49.20424" lon="-1.5758">
        <ele>7.4</ele>
        <time>2020-06-12T06:00:16Z</time>
      </trkpt>
      <trkpt lat="49.20429" lon="-1.5758">
        <ele>7.3</ele>
        <time>2020-06-12T06:00:17Z</time>
      </trkpt>
      <trkpt lat="49.20435" lon="-1.5758">
        <ele>7.3</ele>
        <time>2020-06-12T06:00:18Z</time>
      </trkpt>
      <trkpt lat="49.2044" lon="-1.57581">
        <ele>7.3</ele>
        <time>2020-06-12T06:00:19Z</time>
      </trkpt>
      <trkpt lat="49.20445" lon="-1.57581">
        <ele>7.3</ele>
        <time>2020-06-12T06:00:20Z</time>
      </trkpt>
      <trkpt lat="49.2045" lon="-1.57582">
        <ele>7.3</ele>
        <time>2020-06-12T06:00:21Z</time>
      </trkpt>
      <trkpt lat="49.20456" lon="-1.57583">
        <ele>7.3</ele>
        <time>2020-06-12T06:00:22Z</time>
      </trkpt>
      <trkpt lat="49.20461" lon="-1.57583">
        <ele>7.3</ele>
        <time>2020-06-12T06:00:23Z</time>
      </trkpt>
      <trkpt lat="49.20466" lon="-1.57583">
        <ele>7.3</ele>
        <time>2020-06-12T06:00:24Z</time>
      </trkpt>
      <trkpt lat="49.20471" lon="-1.57583">
        <ele>7.3</ele>
        <time>2020-06-12T06:00:25Z</time>
      </trkpt>
      <trkpt lat="49.20477" lon="-1.57583">
        <ele>7.2</ele>
        <time>2020-06-12T06:00:26Z</time>
      </trkpt>
      <trkpt lat="49.20483" lon="-1.57584">
        <ele>7.2</ele>
        <time>2020-06-12T06:00:27Z</time>
      </trkpt>
      <trkpt lat="49.20489" lon="-1.57584">
        <ele>7.1</ele>
        <time>2020-06-12T06:00:28Z</time>
      </trkpt>
      <trkpt lat="49.20495" lon="-1.57583">
        <ele>7.1</ele>
        <time>2020-06-12T06:00:29Z</time>
      </trkpt>
      <trkpt lat="49.205" lon="-1.57583">
        <ele>7</ele>
        <time>2020-06-12T06:00:30Z</time>
      </trkpt>
      <trkpt lat="49.20505" lon="-1.57583">
        <ele>7</ele>
        <time>2020-06-12T06:00:31Z</time>
      </trkpt>
      <trkpt lat="49.20511" lon="-1.57582">
        <ele>7</ele>
        <time>2020-06-12T06:00:32Z</time>
      </trkpt>
      <trkpt lat="49.20517" lon="-1.57582">
        <ele>7</ele>
        <time>2020-06-12T06:00:33Z</time>
      </trkpt>
      <trkpt lat="49.20522" lon="-1.57582">
        <ele>7</ele>
        <time>2020-06-12T06:00:34Z</time>
      </trkpt>
      <trkpt lat="49.20527" lon="-1.57582">
        <ele>7</ele>
        <time>2020-06-12T06:00:35Z</time>
      </trkpt>
      <trkpt lat="49.20532" lon="-1.57582">
        <ele>7</ele>
        <time>2020-06-12T06:00:36Z</time>
      </trkpt>
      <trkpt lat="49.20537" lon="-1.57581">
        <ele>7</ele>
        <time>2020-06-12T06:00:37Z</time>
      </trkpt>
      <trkpt lat="49.20543" lon="-1.5758">
        <ele>7</ele>
        <time>2020-06-12T06:00:38Z</time>
      </trkpt>
      <trkpt lat="49.20548" lon="-1.57579">
        <ele>6.9</ele>
        <time>2020-06-12T06:00:39Z</time>
      </trkpt>
      <trkpt lat="49.20553" lon="-1.57577">
        <ele>6.9</ele>
        <time>2020-06-12T06:00:40Z</time>
      </trkpt>
      <trkpt lat="49.20559" lon="-1.57576">
        <ele>6.9</ele>
        <time>2020-06-12T06:00:41Z</time>
      </trkpt>
      <trkpt lat="49.20564" lon="-1.57575">
        <ele>6.9</ele>
        <time>2020-06-12T06:00:42Z</time>
      </trkpt>
      <trkpt lat="49.20569" lon="-1.57574">
        <ele>6.9</ele>
        <time>2020-06-12T06:00:43Z</time>
      </trkpt>
      <trkpt lat="49.20574" lon="-1.57573">
        <ele>6.9</ele>
        <time>2020-06-12T06:00:44Z</time>
      </trkpt>
      <trkpt lat="49.20579" lon="-1.57572">
        <ele>6.9</ele>
        <time>2020-06-12T06:00:45Z</time>
      </trkpt>
      <trkpt lat="49.20585" lon="-1.57571">
        <ele>6.9</ele>
        <time>2020-06-12T06:00:46Z</time>
      </trkpt>
      <trkpt lat="49.2059" lon="-1.5757">
        <ele>6.9</ele>
        <time>2020-06-12T06:00:47Z</time>
      </trkpt>
      <trkpt lat="49.20596" lon="-1.57568">
        <ele>6.9</ele>
        <time>2020-06-12T06:00:48Z</time>
      </trkpt>
      <trkpt lat="49.20601" lon="-1.57566">
        <ele>6.9</ele>
        <time>2020-06-12T06:00:49Z</time>
      </trkpt>
      <trkpt lat="49.20606" lon="-1.57564">
        <ele>6.9</ele>
        <time>2020-06-12T06:00:50Z</time>
      </trkpt>
      <trkpt lat="49.20612" lon="-1.57563">
        <ele>6.9</ele>
        <time>2020-06-12T06:00:51Z</time>
      </trkpt>
      <trkpt lat="49.20617" lon="-1.57562">
        <ele>6.9</ele>
        <time>2020-06-12T06:00:52Z</time>
      </trkpt>
      <trkpt lat="49.20622" lon="-1.57561">
        <ele>6.9</ele>
        <time>2020-06-12T06:00:53Z</time>
      </trkpt>
      <trkpt lat="49.20628" lon="-1.57559">
        <ele>6.9</ele>
        <time>2020-06-12T06:00:54Z</time>
      </trkpt>
      <trkpt lat="49.20634" lon="-1.57557">
        <ele>6.8</ele>
        <time>2020-06-12T06:00:55Z</time>
      </trkpt>
      <trkpt lat="49.20639" lon="-1.57555">
        <ele>6.8</ele>
        <time>2020-06-12T06:00:56Z</time>
      </trkpt>
      <trkpt lat="49.20645" lon="-1.57554">
        <ele>6.8</ele>
        <time>2020-06-12T06:00:57Z</time>
      </trkpt>
      <trkpt lat="49.2065" lon="-1.57552">
        <ele>6.7</ele>
        <time>2020-06-12T06:00:58Z</time>
      </trkpt>
      <trkpt lat="49.20655" lon="-1.5755">
        <ele>6.7</ele>
        <time>2020-06-12T06:00:59Z</time>
      </trkpt>
      <trkpt lat="49.2066" lon="-1.57548">
        <ele>6.7</ele>
        <time>2020-06-12T06:01:00Z</time>
      </trkpt>
      <trkpt lat="49.20666" lon="-1.57546">
        <ele>6.7</ele>
        <time>2020-06-12T06:01:01Z</time>
      </trkpt>
      <trkpt lat="49.20671" lon="-1.57545">
        <ele>6.6</ele>
        <time>2020-06-12T06:01:02Z</time>
      </trkpt>
      <trkpt lat="49.20677" lon="-1.57543">
        <ele>6.6</ele>
        <time>2020-06-12T06:01:03Z</time>
      </trkpt>
      <trkpt lat="49.20682" lon="-1.57541">
        <ele>6.5</ele>
        <time>2020-06-12T06:01:04Z</time>
      </trkpt>
      <trkpt lat="49.20688" lon="-1.57539">
        <ele>6.5</ele>
        <time>2020-06-12T06:01:05Z</time>
      </trkpt>
      <trkpt lat="49.20693" lon="-1.57537">
        <ele>6.4</ele>
        <time>2020-06-12T06:01:06Z</time>
      </trkpt>
      <trkpt lat="49.20699" lon="-1.57535">
        <ele>6.3</ele>
        <time>2020-06-12T06:01:07Z</time>
      </trkpt>
      <trkpt lat="49.20704" lon="-1.57533">
        <ele>6.3</ele>
        <time>2020-06-12T06:01:08Z</time>
      </trkpt>
      <trkpt lat="49.20709" lon="-1.57532">
        <ele>6.3</ele>
        <time>2020-06-12T06:01:09Z</time>
      </trkpt>
      <trkpt lat="49.20715" lon="-1.5753">
        <ele>6.2</ele>
        <time>2020-06-12T06:01:10Z</time>
      </trkpt>
      <trkpt lat="49.2072" lon="-1.57528">
        <ele>6.2</ele>
        <time>2020-06-12T06:01:11Z</time>
      </trkpt>
      <trkpt lat="49.20726" lon="-1.57526">
        <ele>6.2</ele>
        <time>2020-06-12T06:01:12Z</time>
      </trkpt>
      <trkpt lat="49.20732" lon="-1.57524">
        <ele>6.1</ele>
        <time>2020-06-12T06:01:13Z</time>
      </trkpt>
      <trkpt lat="49.20737" lon="-1.57522">
        <ele>6.1</ele>
        <time>2020-06-12T06:01:14Z</time>
      </trkpt>
      <trkpt lat="49.20742" lon="-1.5752">
        <ele>6.1</ele>
        <time>2020-06-12T06:01:15Z</time>
      </trkpt>
      <trkpt lat="49.20748" lon="-1.57518">
        <ele>6</ele>
        <time>2020-06-12T06:01:16Z</time>
      </trkpt>
      <trkpt lat="49.20753" lon="-1.57516">
        <ele>6</ele>
        <time>2020-06-12T06:01:17Z</time>
      </trkpt>
      <trkpt lat="49.20758" lon="-1.57515">
        <ele>6</ele>
        <time>2020-06-12T06:01:18Z</time>
      </trkpt>
      <trkpt lat="49.20763" lon="-1.57513">
        <ele>5.9</ele>
        <time>2020-06-12T06:01:19Z</time>
      </trkpt>
      <trkpt lat="49.20768" lon="-1.57511">
        <ele>5.9</ele>
        <time>2020-06-12T06:01:20Z</time>
      </trkpt>
      <trkpt lat="49.20772" lon="-1.57509">
        <ele>5.9</ele>
        <time>2020-06-12T06:01:21Z</time>
      </trkpt>
      <trkpt lat="49.20777" lon="-1.57508">
        <ele>5.9</ele>
        <time>2020-06-12T06:01:22Z</time>
      </trkpt>
      <trkpt lat="49.20782" lon="-1.57506">
        <ele>5.9</ele>
        <time>2020-06-12T06:01:23Z</time>
      </trkpt>
      <trkpt lat="49.20788" lon="-1.57504">
        <ele>5.9</ele>
        <time>2020-06-12T06:01:24Z</time>
      </trkpt>
      <trkpt lat="49.20794" lon="-1.57502">
        <ele>5.9</ele>
        <time>2020-06-12T06:01:25Z</time>
      </trkpt>
      <trkpt lat="49.20799" lon="-1.575">
        <ele>5.9</ele>
        <time>2020-06-12T06:01:26Z</time>
      </trkpt>
      <trkpt lat="49.20804" lon="-1.57499">
        <ele>5.9</ele>
        <time>2020-06-12T06:01:27Z</time>
      </trkpt>
      <trkpt lat="49.20809" lon="-1.57497">
        <ele>5.9</ele>
        <time>2020-06-12T06:01:28Z</time>
      </trkpt>
      <trkpt lat="49.20815" lon="-1.57496">
        <ele>5.9</ele>
        <time>2020-06-12T06:01:29Z</time>
      </trkpt>
      <trkpt lat="49.2082" lon="-1.57493">
        <ele>6</ele>
        <time>2020-06-12T06:01:30Z</time>
      </trkpt>
      <trkpt lat="49.20826" lon="-1.57492">
        <ele>6</ele>
        <time>2020-06-12T06:01:31Z</time>
      </trkpt>
      <trkpt lat="49.20831" lon="-1.5749">
        <ele>6.1</ele>
        <time>2020-06-12T06:01:32Z</time>
      </trkpt>
      <trkpt lat="49.20837" lon="-1.57489">
        <ele>6.2</ele>
        <time>2020-06-12T06:01:33Z</time>
      </trkpt>
      <trkpt lat="49.20842" lon="-1.57487">
        <ele>6.2</ele>
        <time>2020-06-12T06:01:34Z</time>
      </trkpt>
      <trkpt lat="49.20847" lon="-1.57485">
        <ele>6.3</ele>
        <time>2020-06-12T06:01:35Z</time>
      </trkpt>
      <trkpt lat="49.20851" lon="-1.57483">
        <ele>6.3</ele>
        <time>2020-06-12T06:01:36Z</time>
      </trkpt>
      <trkpt lat="49.20856" lon="-1.57482">
        <ele>6.3</ele>
        <time>2020-06-12T06:01:37Z</time>
      </trkpt>
      <trkpt lat="49.20861" lon="-1.57481">
        <ele>6.3</ele>
        <time>2020-06-12T06:01:38Z</time>
      </trkpt>
      <trkpt lat="49.20866" lon="-1.57479">
        <ele>6.3</ele>
        <time>2020-06-12T06:01:39Z</time>
      </trkpt>
      <trkpt lat="49.2087" lon="-1.57477">
        <ele>6.3</ele>
        <time>2020-06-12T06:01:40Z</time>
      </trkpt>
      <trkpt lat="49.20876" lon="-1.57475">
        <ele>6.3</ele>
        <time>2020-06-12T06:01:41Z</time>
      </trkpt>
      <trkpt lat="49.20881" lon="-1.57474">
        <ele>6.3</ele>
        <time>2020-06-12T06:01:42Z</time>
      </trkpt>
      <trkpt lat="49.20886" lon="-1.57472">
        <ele>6.3</ele>
        <time>2020-06-12T06:01:43Z</time>
      </trkpt>
      <trkpt lat="49.20891" lon="-1.57471">
        <ele>6.3</ele>
        <time>2020-06-12T06:01:44Z</time>
      </trkpt>
      <trkpt lat="49.20897" lon="-1.57469">
        <ele>6.3</ele>
        <time>2020-06-12T06:01:45Z</time>
      </trkpt>
      <trkpt lat="49.20901" lon="-1.57468">
        <ele>6.3</ele>
        <time>2020-06-12T06:01:46Z</time>
      </trkpt>
      <trkpt lat="49.20906" lon="-1.57466">
        <ele>6.3</ele>
        <time>2020-06-12T06:01:47Z</time>
      </trkpt>
      <trkpt lat="49.2091" lon="-1.57465">
        <ele>6.4</ele>
        <time>2020-06-12T06:01:48Z</time>
      </trkpt>
      <trkpt lat="49.20915" lon="-1.57463">
        <ele>6.4</ele>
        <time>2020-06-12T06:01:49Z</time>
      </trkpt>
      <trkpt lat="49.20919" lon="-1.57462">
        <ele>6.4</ele>
        <time>2020-06-12T06:01:50Z</time>
      </trkpt>
      <trkpt lat="49.20924" lon="-1.5746">
        <ele>6.4</ele>
        <time>2020-06-12T06:01:51Z</time>
      </trkpt>
      <trkpt lat="49.2093" lon="-1.57458">
        <ele>6.4</ele>
        <time>2020-06-12T06:01:52Z</time>
      </trkpt>
      <trkpt lat="49.20935" lon="-1.57457">
        <ele>6.4</ele>
        <time>2020-06-12T06:01:53Z</time>
      </trkpt>
      <trkpt lat="49.2094" lon="-1.57455">
        <ele>6.4</ele>
        <time>2020-06-12T06:01:54Z</time>
      </trkpt>
      <trkpt lat="49.20945" lon="-1.57454">
        <ele>6.4</ele>
        <time>2020-06-12T06:01:55Z</time>
      </trkpt>
      <trkpt lat="49.2095" lon="-1.57452">
        <ele>6.4</ele>
        <time>2020-06-12T06:01:56Z</time>
      </trkpt>
      <trkpt lat="49.20955" lon="-1.57451">
        <ele>6.4</ele>
        <time>2020-06-12T06:01:57Z</time>
      </trkpt>
      <trkpt lat="49.2096" lon="-1.57449">
        <ele>6.4</ele>
        <time>2020-06-12T06:01:58Z</time>
      </trkpt>
      <trkpt lat="49.20965" lon="-1.57447">
        <ele>6.4</ele>
        <time>2020-06-12T06:01:59Z</time>
      </trkpt>
      <trkpt lat="49.2097" lon="-1.57446">
        <ele>6.4</ele>
        <time>2020-06-12T06:02:00Z</time>
      </trkpt>
      <trkpt lat="49.20975" lon="-1.57444">
        <ele>6.4</ele>
        <time>2020-06-12T06:02:01Z</time>
      </trkpt>
      <trkpt lat="49.20981" lon="-1.57442">
        <ele>6.4</ele>
        <time>2020-06-12T06:02:02Z</time>
      </trkpt>
      <trkpt lat="49.20986" lon="-1.57441">
        <ele>6.4</ele>
        <time>2020-06-12T06:02:03Z</time>
      </trkpt>
      <trkpt lat="49.20991" lon="-1.57439">
        <ele>6.4</ele>
        <time>2020-06-12T06:02:04Z</time>
      </trkpt>
      <trkpt lat="49.20995" lon="-1.57437">
        <ele>6.4</ele>
        <time>2020-06-12T06:02:05Z</time>
      </trkpt>
      <trkpt lat="49.20999" lon="-1.57435">
        <ele>6.5</ele>
        <time>2020-06-12T06:02:06Z</time>
      </trkpt>
      <trkpt lat="49.21004" lon="-1.57434">
        <ele>6.5</ele>
        <time>2020-06-12T06:02:07Z</time>
      </trkpt>
      <trkpt lat="49.2101" lon="-1.57432">
        <ele>6.5</ele>
        <time>2020-06-12T06:02:08Z</time>
      </trkpt>
      <trkpt lat="49.21014" lon="-1.57431">
        <ele>6.5</ele>
        <time>2020-06-12T06:02:09Z</time>
      </trkpt>
      <trkpt lat="49.21019" lon="-1.57429">
        <ele>6.5</ele>
        <time>2020-06-12T06:02:10Z</time>
      </trkpt>
      <trkpt lat="49.21024" lon="-1.57427">
        <ele>6.5</ele>
        <time>2020-06-12T06:02:11Z</time>
      </trkpt>
      <trkpt lat="49.21029" lon="-1.57425">
        <ele>6.5</ele>
        <time>2020-06-12T06:02:12Z</time>
      </trkpt>
      <trkpt lat="49.21034" lon="-1.57423">
        <ele>6.5</ele>
        <time>2020-06-12T06:02:13Z</time>
      </trkpt>
      <trkpt lat="49.21039" lon="-1.57421">
        <ele>6.5</ele>
        <time>2020-06-12T06:02:14Z</time>
      </trkpt>
      <trkpt lat="49.21044" lon="-1.57418">
        <ele>6.5</ele>
        <time>2020-06-12T06:02:15Z</time>
      </trkpt>
      <trkpt lat="49.21048" lon="-1.57415">
        <ele>6.5</ele>
        <time>2020-06-12T06:02:16Z</time>
      </trkpt>
      <trkpt lat="49.21053" lon="-1.57413">
        <ele>6.5</ele>
        <time>2020-06-12T06:02:17Z</time>
      </trkpt>
      <trkpt lat="49.21057" lon="-1.57411">
        <ele>6.5</ele>
        <time>2020-06-12T06:02:18Z</time>
      </trkpt>
      <trkpt lat="49.21063" lon="-1.57408">
        <ele>6.6</ele>
        <time>2020-06-12T06:02:19Z</time>
      </trkpt>
      <trkpt lat="49.21068" lon="-1.57406">
        <ele>6.6</ele>
        <time>2020-06-12T06:02:20Z</time>
      </trkpt>
      <trkpt lat="49.21072" lon="-1.57404">
        <ele>6.6</ele>
        <time>2020-06-12T06:02:21Z</time>
      </trkpt>
      <trkpt lat="49.21076" lon="-1.57401">
        <ele>6.6</ele>
        <time>2020-06-12T06:02:22Z</time>
      </trkpt>
      <trkpt lat="49.21081" lon="-1.57398">
        <ele>6.6</ele>
        <time>2020-06-12T06:02:23Z</time>
      </trkpt>
      <trkpt lat="49.21086" lon="-1.57395">
        <ele>6.6</ele>
        <time>2020-06-12T06:02:24Z</time>
      </trkpt>
      <trkpt lat="49.21091" lon="-1.57392">
        <ele>6.6</ele>
        <time>2020-06-12T06:02:25Z</time>
      </trkpt>
      <trkpt lat="49.21096" lon="-1.5739">
        <ele>6.6</ele>
        <time>2020-06-12T06:02:26Z</time>
      </trkpt>
      <trkpt lat="49.211" lon="-1.57387">
        <ele>6.5</ele>
        <time>2020-06-12T06:02:27Z</time>
      </trkpt>
      <trkpt lat="49.21104" lon="-1.57385">
        <ele>6.5</ele>
        <time>2020-06-12T06:02:28Z</time>
      </trkpt>
      <trkpt lat="49.21109" lon="-1.57382">
        <ele>6.5</ele>
        <time>2020-06-12T06:02:29Z</time>
      </trkpt>
      <trkpt lat="49.21115" lon="-1.57379">
        <ele>6.5</ele>
        <time>2020-06-12T06:02:30Z</time>
      </trkpt>
      <trkpt lat="49.2112" lon="-1.57375">
        <ele>6.5</ele>
        <time>2020-06-12T06:02:31Z</time>
      </trkpt>
      <trkpt lat="49.21125" lon="-1.57372">
        <ele>6.5</ele>
        <time>2020-06-12T06:02:32Z</time>
      </trkpt>
      <trkpt lat="49.2113" lon="-1.57368">
        <ele>6.5</ele>
        <time>2020-06-12T06:02:33Z</time>
      </trkpt>
      <trkpt lat="49.21135" lon="-1.57365">
        <ele>6.5</ele>
        <time>2020-06-12T06:02:34Z</time>
      </trkpt>
      <trkpt lat="49.2114" lon="-1.57361">
        <ele>6.5</ele>
        <time>2020-06-12T06:02:35Z</time>
      </trkpt>
      <trkpt lat="49.21144" lon="-1.57357">
        <ele>6.5</ele>
        <time>2020-06-12T06:02:36Z</time>
      </trkpt>
      <trkpt lat="49.21149" lon="-1.57354">
        <ele>6.5</ele>
        <time>2020-06-12T06:02:37Z</time>
      </trkpt>
      <trkpt lat="49.21154" lon="-1.5735">
        <ele>6.5</ele>
        <time>2020-06-12T06:02:38Z</time>
      </trkpt>
      <trkpt lat="49.21158" lon="-1.57347">
        <ele>6.5</ele>
        <time>2020-06-12T06:02:39Z</time>
      </trkpt>
      <trkpt lat="49.21162" lon="-1.57344">
        <ele>6.5</ele>
        <time>2020-06-12T06:02:40Z</time>
      </trkpt>
      <trkpt lat="49.21167" lon="-1.57341">
        <ele>6.5</ele>
        <time>2020-06-12T06:02:41Z</time>
      </trkpt>
      <trkpt lat="49.21171" lon="-1.57338">
        <ele>6.5</ele>
        <time>2020-06-12T06:02:42Z</time>
      </trkpt>
      <trkpt lat="49.21176" lon="-1.57335">
        <ele>6.6</ele>
        <time>2020-06-12T06:02:43Z</time>
      </trkpt>
      <trkpt lat="49.21181" lon="-1.57331">
        <ele>6.6</ele>
        <time>2020-06-12T06:02:44Z</time>
      </trkpt>
      <trkpt lat="49.21186" lon="-1.57327">
        <ele>6.6</ele>
        <time>2020-06-12T06:02:45Z</time>
      </trkpt>
      <trkpt lat="49.21191" lon="-1.57324">
        <ele>6.6</ele>
        <time>2020-06-12T06:02:46Z</time>
      </trkpt>
      <trkpt lat="49.21196" lon="-1.57321">
        <ele>6.5</ele>
        <time>2020-06-12T06:02:47Z</time>
      </trkpt>
      <trkpt lat="49.212" lon="-1.57317">
        <ele>6.5</ele>
        <time>2020-06-12T06:02:48Z</time>
      </trkpt>
      <trkpt lat="49.21205" lon="-1.57313">
        <ele>6.4</ele>
        <time>2020-06-12T06:02:49Z</time>
      </trkpt>
      <trkpt lat="49.2121" lon="-1.57308">
        <ele>6.4</ele>
        <time>2020-06-12T06:02:50Z</time>
      </trkpt>
      <trkpt lat="49.21215" lon="-1.57304">
        <ele>6.3</ele>
        <time>2020-06-12T06:02:51Z</time>
      </trkpt>
      <trkpt lat="49.2122" lon="-1.573">
        <ele>6.3</ele>
        <time>2020-06-12T06:02:52Z</time>
      </trkpt>
      <trkpt lat="49.21225" lon="-1.57296">
        <ele>6.3</ele>
        <time>2020-06-12T06:02:53Z</time>
      </trkpt>
      <trkpt lat="49.2123" lon="-1.57293">
        <ele>6.3</ele>
        <time>2020-06-12T06:02:54Z</time>
      </trkpt>
      <trkpt lat="49.21235" lon="-1.57289">
        <ele>6.3</ele>
        <time>2020-06-12T06:02:55Z</time>
      </trkpt>
      <trkpt lat="49.21239" lon="-1.57285">
        <ele>6.3</ele>
        <time>2020-06-12T06:02:56Z</time>
      </trkpt>
      <trkpt lat="49.21244" lon="-1.57282">
        <ele>6.3</ele>
        <time>2020-06-12T06:02:57Z</time>
      </trkpt>
      <trkpt lat="49.21248" lon="-1.57278">
        <ele>6.3</ele>
        <time>2020-06-12T06:02:58Z</time>
      </trkpt>
      <trkpt lat="49.21253" lon="-1.57275">
        <ele>6.3</ele>
        <time>2020-06-12T06:02:59Z</time>
      </trkpt>
      <trkpt lat="49.21258" lon="-1.57271">
        <ele>6.3</ele>
        <time>2020-06-12T06:03:00Z</time>
      </trkpt>
      <trkpt lat="49.21263" lon="-1.57266">
        <ele>6.4</ele>
        <time>2020-06-12T06:03:01Z</time>
      </trkpt>
      <trkpt lat="49.21268" lon="-1.57262">
        <ele>6.4</ele>
        <time>2020-06-12T06:03:02Z</time>
      </trkpt>
      <trkpt lat="49.21272" lon="-1.57259">
        <ele>6.4</ele>
        <time>2020-06-12T06:03:03Z</time>
      </trkpt>
      <trkpt lat="49.21277" lon="-1.57255">
        <ele>6.4</ele>
        <time>2020-06-12T06:03:04Z</time>
      </trkpt>
      <trkpt lat="49.21282" lon="-1.57252">
        <ele>6.5</ele>
        <time>2020-06-12T06:03:05Z</time>
      </trkpt>
      <trkpt lat="49.21287" lon="-1.57249">
        <ele>6.5</ele>
        <time>2020-06-12T06:03:06Z</time>
      </trkpt>
      <trkpt lat="49.21292" lon="-1.57245">
        <ele>6.6</ele>
        <time>2020-06-12T06:03:07Z</time>
      </trkpt>
      <trkpt lat="49.21297" lon="-1.57242">
        <ele>6.6</ele>
        <time>2020-06-12T06:03:08Z</time>
      </trkpt>
      <trkpt lat="49.213" lon="-1.57239">
        <ele>6.7</ele>
        <time>2020-06-12T06:03:09Z</time>
      </trkpt>
      <trkpt lat="49.21305" lon="-1.57235">
        <ele>6.7</ele>
        <time>2020-06-12T06:03:10Z</time>
      </trkpt>
      <trkpt lat="49.21309" lon="-1.57232">
        <ele>6.7</ele>
        <time>2020-06-12T06:03:11Z</time>
      </trkpt>
      <trkpt lat="49.21314" lon="-1.57228">
        <ele>6.7</ele>
        <time>2020-06-12T06:03:12Z</time>
      </trkpt>
      <trkpt lat="49.21318" lon="-1.57225">
        <ele>6.6</ele>
        <time>2020-06-12T06:03:13Z</time>
      </trkpt>
      <trkpt lat="49.21323" lon="-1.57221">
        <ele>6.6</ele>
        <time>2020-06-12T06:03:14Z</time>
      </trkpt>
      <trkpt lat="49.21327" lon="-1.57218">
        <ele>6.6</ele>
        <time>2020-06-12T06:03:15Z</time>
      </trkpt>
      <trkpt lat="49.21331" lon="-1.57216">
        <ele>6.5</ele>
        <time>2020-06-12T06:03:16Z</time>
      </trkpt>
      <trkpt lat="49.21335" lon="-1.57214">
        <ele>6.5</ele>
        <time>2020-06-12T06:03:17Z</time>
      </trkpt>
      <trkpt lat="49.21339" lon="-1.57212">
        <ele>6.5</ele>
        <time>2020-06-12T06:03:18Z</time>
      </trkpt>
      <trkpt lat="49.21344" lon="-1.57209">
        <ele>6.5</ele>
        <time>2020-06-12T06:03:19Z</time>
      </trkpt>
      <trkpt lat="49.21348" lon="-1.57207">
        <ele>6.5</ele>
        <time>2020-06-12T06:03:20Z</time>
      </trkpt>
      <trkpt lat="49.21353" lon="-1.57205">
        <ele>6.5</ele>
        <time>2020-06-12T06:03:21Z</time>
      </trkpt>
      <trkpt lat="49.21357" lon="-1.57202">
        <ele>6.5</ele>
        <time>2020-06-12T06:03:22Z</time>
      </trkpt>
      <trkpt lat="49.21362" lon="-1.57199">
        <ele>6.5</ele>
        <time>2020-06-12T06:03:23Z</time>
      </trkpt>
      <trkpt lat="49.21367" lon="-1.57196">
        <ele>6.5</ele>
        <time>2020-06-12T06:03:24Z</time>
      </trkpt>
      <trkpt lat="49.21371" lon="-1.57193">
        <ele>6.5</ele>
        <time>2020-06-12T06:03:25Z</time>
      </trkpt>
      <trkpt lat="49.21376" lon="-1.5719">
        <ele>6.4</ele>
        <time>2020-06-12T06:03:26Z</time>
      </trkpt>
      <trkpt lat="49.21379" lon="-1.57188">
        <ele>6.4</ele>
        <time>2020-06-12T06:03:27Z</time>
      </trkpt>
      <trkpt lat="49.21384" lon="-1.57186">
        <ele>6.4</ele>
        <time>2020-06-12T06:03:28Z</time>
      </trkpt>
      <trkpt lat="49.21388" lon="-1.57183">
        <ele>6.4</ele>
        <time>2020-06-12T06:03:29Z</time>
      </trkpt>
      <trkpt lat="49.21392" lon="-1.5718">
        <ele>6.4</ele>
        <time>2020-06-12T06:03:30Z</time>
      </trkpt>
      <trkpt lat="49.21397" lon="-1.57176">
        <ele>6.4</ele>
        <time>2020-06-12T06:03:31Z</time>
      </trkpt>
      <trkpt lat="49.21401" lon="-1.57172">
        <ele>6.4</ele>
        <time>2020-06-12T06:03:32Z</time>
      </trkpt>
      <trkpt lat="49.21406" lon="-1.57167">
        <ele>6.4</ele>
        <time>2020-06-12T06:03:33Z</time>
      </trkpt>
      <trkpt lat="49.2141" lon="-1.57162">
        <ele>6.4</ele>
        <time>2020-06-12T06:03:34Z</time>
      </trkpt>
      <trkpt lat="49.21414" lon="-1.57159">
        <ele>6.4</ele>
        <time>2020-06-12T06:03:35Z</time>
      </trkpt>
      <trkpt lat="49.21417" lon="-1.57156">
        <ele>6.4</ele>
        <time>2020-06-12T06:03:36Z</time>
      </trkpt>
      <trkpt lat="49.2142" lon="-1.57154">
        <ele>6.4</ele>
        <time>2020-06-12T06:03:37Z</time>
      </trkpt>
      <trkpt lat="49.21425" lon="-1.57151">
        <ele>6.4</ele>
        <time>2020-06-12T06:03:38Z</time>
      </trkpt>
      <trkpt lat="49.21428" lon="-1.57149">
        <ele>6.4</ele>
        <time>2020-06-12T06:03:39Z</time>
      </trkpt>
      <trkpt lat="49.21433" lon="-1.57146">
        <ele>6.4</ele>
        <time>2020-06-12T06:03:40Z</time>
      </trkpt>
      <trkpt lat="49.21437" lon="-1.57142">
        <ele>6.4</ele>
        <time>2020-06-12T06:03:41Z</time>
      </trkpt>
      <trkpt lat="49.21442" lon="-1.57139">
        <ele>6.3</ele>
        <time>2020-06-12T06:03:42Z</time>
      </trkpt>
      <trkpt lat="49.21446" lon="-1.57135">
        <ele>6.3</ele>
        <time>2020-06-12T06:03:43Z</time>
      </trkpt>
      <trkpt lat="49.2145" lon="-1.57131">
        <ele>6.3</ele>
        <time>2020-06-12T06:03:44Z</time>
      </trkpt>
      <trkpt lat="49.21454" lon="-1.57128">
        <ele>6.3</ele>
        <time>2020-06-12T06:03:45Z</time>
      </trkpt>
      <trkpt lat="49.21458" lon="-1.57125">
        <ele>6.2</ele>
        <time>2020-06-12T06:03:46Z</time>
      </trkpt>
      <trkpt lat="49.21463" lon="-1.57121">
        <ele>6.2</ele>
        <time>2020-06-12T06:03:47Z</time>
      </trkpt>
      <trkpt lat="49.21467" lon="-1.57118">
        <ele>6.3</ele>
        <time>2020-06-12T06:03:48Z</time>
      </trkpt>
      <trkpt lat="49.21472" lon="-1.57114">
        <ele>6.3</ele>
        <time>2020-06-12T06:03:49Z</time>
      </trkpt>
      <trkpt lat="49.21477" lon="-1.57111">
        <ele>6.3</ele>
        <time>2020-06-12T06:03:50Z</time>
      </trkpt>
      <trkpt lat="49.21482" lon="-1.57107">
        <ele>6.3</ele>
        <time>2020-06-12T06:03:51Z</time>
      </trkpt>
      <trkpt lat="49.21487" lon="-1.57103">
        <ele>6.3</ele>
        <time>2020-06-12T06:03:52Z</time>
      </trkpt>
      <trkpt lat="49.21492" lon="-1.57099">
        <ele>6.2</ele>
        <time>2020-06-12T06:03:53Z</time>
      </trkpt>
      <trkpt lat="49.21497" lon="-1.57095">
        <ele>6.2</ele>
        <time>2020-06-12T06:03:54Z</time>
      </trkpt>
      <trkpt lat="49.21502" lon="-1.57091">
        <ele>6.2</ele>
        <time>2020-06-12T06:03:55Z</time>
      </trkpt>
      <trkpt lat="49.21507" lon="-1.57087">
        <ele>6.2</ele>
        <time>2020-06-12T06:03:56Z</time>
      </trkpt>
      <trkpt lat="49.21513" lon="-1.57082">
        <ele>6.2</ele>
        <time>2020-06-12T06:03:57Z</time>
      </trkpt>
      <trkpt lat="49.21518" lon="-1.57078">
        <ele>6.1</ele>
        <time>2020-06-12T06:03:58Z</time>
      </trkpt>
      <trkpt lat="49.21523" lon="-1.57074">
        <ele>6.1</ele>
        <time>2020-06-12T06:03:59Z</time>
      </trkpt>
      <trkpt lat="49.21528" lon="-1.57071">
        <ele>6.1</ele>
        <time>2020-06-12T06:04:00Z</time>
      </trkpt>
      <trkpt lat="49.21533" lon="-1.57067">
        <ele>6.1</ele>
        <time>2020-06-12T06:04:01Z</time>
      </trkpt>
      <trkpt lat="49.21538" lon="-1.57064">
        <ele>6.1</ele>
        <time>2020-06-12T06:04:02Z</time>
      </trkpt>
      <trkpt lat="49.21543" lon="-1.5706">
        <ele>6.1</ele>
        <time>2020-06-12T06:04:03Z</time>
      </trkpt>
      <trkpt lat="49.21547" lon="-1.57057">
        <ele>6.1</ele>
        <time>2020-06-12T06:04:04Z</time>
      </trkpt>
      <trkpt lat="49.21553" lon="-1.57054">
        <ele>6.1</ele>
        <time>2020-06-12T06:04:05Z</time>
      </trkpt>
      <trkpt lat="49.21558" lon="-1.57051">
        <ele>6</ele>
        <time>2020-06-12T06:04:06Z</time>
      </trkpt>
      <trkpt lat="49.21563" lon="-1.57047">
        <ele>6</ele>
        <time>2020-06-12T06:04:07Z</time>
      </trkpt>
      <trkpt lat="49.21568" lon="-1.57043">
        <ele>6</ele>
        <time>2020-06-12T06:04:08Z</time>
      </trkpt>
      <trkpt lat="49.21574" lon="-1.57039">
        <ele>6</ele>
        <time>2020-06-12T06:04:09Z</time>
      </trkpt>
      <trkpt lat="49.21579" lon="-1.57036">
        <ele>5.9</ele>
        <time>2020-06-12T06:04:10Z</time>
      </trkpt>
      <trkpt lat="49.21584" lon="-1.57032">
        <ele>5.9</ele>
        <time>2020-06-12T06:04:11Z</time>
      </trkpt>
      <trkpt lat="49.21588" lon="-1.57028">
        <ele>5.9</ele>
        <time>2020-06-12T06:04:12Z</time>
      </trkpt>
      <trkpt lat="49.21593" lon="-1.57025">
        <ele>5.9</ele>
        <time>2020-06-12T06:04:13Z</time>
      </trkpt>
      <trkpt lat="49.21598" lon="-1.57022">
        <ele>5.9</ele>
        <time>2020-06-12T06:04:14Z</time>
      </trkpt>
      <trkpt lat="49.21604" lon="-1.57019">
        <ele>5.9</ele>
        <time>2020-06-12T06:04:15Z</time>
      </trkpt>
      <trkpt lat="49.21608" lon="-1.57015">
        <ele>5.9</ele>
        <time>2020-06-12T06:04:16Z</time>
      </trkpt>
      <trkpt lat="49.21613" lon="-1.57012">
        <ele>5.9</ele>
        <time>2020-06-12T06:04:17Z</time>
      </trkpt>
      <trkpt lat="49.21618" lon="-1.57008">
        <ele>5.9</ele>
        <time>2020-06-12T06:04:18Z</time>
      </trkpt>
      <trkpt lat="49.21623" lon="-1.57005">
        <ele>6</ele>
        <time>2020-06-12T06:04:19Z</time>
      </trkpt>
      <trkpt lat="49.21628" lon="-1.57001">
        <ele>6</ele>
        <time>2020-06-12T06:04:20Z</time>
      </trkpt>
      <trkpt lat="49.21633" lon="-1.56998">
        <ele>6</ele>
        <time>2020-06-12T06:04:21Z</time>
      </trkpt>
      <trkpt lat="49.21637" lon="-1.56995">
        <ele>6</ele>
        <time>2020-06-12T06:04:22Z</time>
      </trkpt>
      <trkpt lat="49.21641" lon="-1.56992">
        <ele>6</ele>
        <time>2020-06-12T06:04:23Z</time>
      </trkpt>
      <trkpt lat="49.21646" lon="-1.56988">
        <ele>6</ele>
        <time>2020-06-12T06:04:24Z</time>
      </trkpt>
      <trkpt lat="49.21651" lon="-1.56985">
        <ele>6</ele>
        <time>2020-06-12T06:04:25Z</time>
      </trkpt>
      <trkpt lat="49.21656" lon="-1.56981">
        <ele>6</ele>
        <time>2020-06-12T06:04:26Z</time>
      </trkpt>
      <trkpt lat="49.2166" lon="-1.56978">
        <ele>6</ele>
        <time>2020-06-12T06:04:27Z</time>
      </trkpt>
      <trkpt lat="49.21665" lon="-1.56975">
        <ele>6</ele>
        <time>2020-06-12T06:04:28Z</time>
      </trkpt>
      <trkpt lat="49.2167" lon="-1.56972">
        <ele>6</ele>
        <time>2020-06-12T06:04:29Z</time>
      </trkpt>
      <trkpt lat="49.21675" lon="-1.56969">
        <ele>5.9</ele>
        <time>2020-06-12T06:04:30Z</time>
      </trkpt>
      <trkpt lat="49.2168" lon="-1.56965">
        <ele>5.9</ele>
        <time>2020-06-12T06:04:31Z</time>
      </trkpt>
      <trkpt lat="49.21684" lon="-1.56962">
        <ele>5.8</ele>
        <time>2020-06-12T06:04:32Z</time>
      </trkpt>
      <trkpt lat="49.21689" lon="-1.56958">
        <ele>5.8</ele>
        <time>2020-06-12T06:04:33Z</time>
      </trkpt>
      <trkpt lat="49.21694" lon="-1.56954">
        <ele>5.8</ele>
        <time>2020-06-12T06:04:34Z</time>
      </trkpt>
      <trkpt lat="49.21699" lon="-1.56951">
        <ele>5.8</ele>
        <time>2020-06-12T06:04:35Z</time>
      </trkpt>
      <trkpt lat="49.21704" lon="-1.56948">
        <ele>5.8</ele>
        <time>2020-06-12T06:04:36Z</time>
      </trkpt>
      <trkpt lat="49.21709" lon="-1.56945">
        <ele>5.8</ele>
        <time>2020-06-12T06:04:37Z</time>
      </trkpt>
      <trkpt lat="49.21714" lon="-1.56942">
        <ele>5.8</ele>
        <time>2020-06-12T06:04:38Z</time>
      </trkpt>
      <trkpt lat="49.21718" lon="-1.56939">
        <ele>5.8</ele>
        <time>2020-06-12T06:04:39Z</time>
      </trkpt>
      <trkpt lat="49.21723" lon="-1.56936">
        <ele>5.8</ele>
        <time>2020-06-12T06:04:40Z</time>
      </trkpt>
      <trkpt lat="49.21728" lon="-1.56933">
        <ele>5.8</ele>
        <time>2020-06-12T06:04:41Z</time>
      </trkpt>
      <trkpt lat="49.21732" lon="-1.56929">
        <ele>5.8</ele>
        <time>2020-06-12T06:04:42Z</time>
      </trkpt>
      <trkpt lat="49.21737" lon="-1.56926">
        <ele>5.8</ele>
        <time>2020-06-12T06:04:43Z</time>
      </trkpt>
      <trkpt lat="49.21742" lon="-1.56923">
        <ele>5.8</ele>
        <time>2020-06-12T06:04:44Z</time>
      </trkpt>
      <trkpt lat="49.21748" lon="-1.56919">
        <ele>5.8</ele>
        <time>2020-06-12T06:04:45Z</time>
      </trkpt>
      <trkpt lat="49.21752" lon="-1.56916">
        <ele>5.8</ele>
        <time>2020-06-12T06:04:46Z</time>
      </trkpt>
      <trkpt lat="49.21757" lon="-1.56913">
        <ele>5.8</ele>
        <time>2020-06-12T06:04:47Z</time>
      </trkpt>
      <trkpt lat="49.21761" lon="-1.5691">
        <ele>5.8</ele>
        <time>2020-06-12T06:04:48Z</time>
      </trkpt>
      <trkpt lat="49.21766" lon="-1.56907">
        <ele>5.8</ele>
        <time>2020-06-12T06:04:49Z</time>
      </trkpt>
      <trkpt lat="49.21771" lon="-1.56905">
        <ele>5.8</ele>
        <time>2020-06-12T06:04:50Z</time>
      </trkpt>
      <trkpt lat="49.21775" lon="-1.56903">
        <ele>5.8</ele>
        <time>2020-06-12T06:04:51Z</time>
      </trkpt>
      <trkpt lat="49.21779" lon="-1.569">
        <ele>5.8</ele>
        <time>2020-06-12T06:04:52Z</time>
      </trkpt>
      <trkpt lat="49.21783" lon="-1.56898">
        <ele>5.9</ele>
        <time>2020-06-12T06:04:53Z</time>
      </trkpt>
      <trkpt lat="49.21787" lon="-1.56896">
        <ele>5.9</ele>
        <time>2020-06-12T06:04:54Z</time>
      </trkpt>
      <trkpt lat="49.2179" lon="-1.56894">
        <ele>6</ele>
        <time>2020-06-12T06:04:55Z</time>
      </trkpt>
      <trkpt lat="49.21794" lon="-1.56891">
        <ele>6</ele>
        <time>2020-06-12T06:04:56Z</time>
      </trkpt>
      <trkpt lat="49.21797" lon="-1.56889">
        <ele>6</ele>
        <time>2020-06-12T06:04:57Z</time>
      </trkpt>
      <trkpt lat="49.21801" lon="-1.56887">
        <ele>6</ele>
        <time>2020-06-12T06:04:58Z</time>
      </trkpt>
      <trkpt lat="49.21804" lon="-1.56885">
        <ele>6</ele>
        <time>2020-06-12T06:04:59Z</time>
      </trkpt>
      <trkpt lat="49.21807" lon="-1.56883">
        <ele>6</ele>
        <time>2020-06-12T06:05:00Z</time>
      </trkpt>
      <trkpt lat="49.2181" lon="-1.56881">
        <ele>6</ele>
        <time>2020-06-12T06:05:01Z</time>
      </trkpt>
      <trkpt lat="49.21813" lon="-1.56878">
        <ele>5.9</ele>
        <time>2020-06-12T06:05:02Z</time>
      </trkpt>
      <trkpt lat="49.21816" lon="-1.56876">
        <ele>5.9</ele>
        <time>2020-06-12T06:05:03Z</time>
      </trkpt>
      <trkpt lat="49.21819" lon="-1.56874">
        <ele>5.9</ele>
        <time>2020-06-12T06:05:04Z</time>
      </trkpt>
      <trkpt lat="49.21822" lon="-1.56872">
        <ele>5.8</ele>
        <time>2020-06-12T06:05:05Z</time>
      </trkpt>
      <trkpt lat="49.21823" lon="-1.56871">
        <ele>5.8</ele>
        <time>2020-06-12T06:05:06Z</time>
      </trkpt>
      <trkpt lat="49.21826" lon="-1.56869">
        <ele>5.8</ele>
        <time>2020-06-12T06:05:07Z</time>
      </trkpt>
      <trkpt lat="49.21828" lon="-1.56866">
        <ele>5.8</ele>
        <time>2020-06-12T06:05:08Z</time>
      </trkpt>
      <trkpt lat="49.21829" lon="-1.56864">
        <ele>5.8</ele>
        <time>2020-06-12T06:05:09Z</time>
      </trkpt>
      <trkpt lat="49.21832" lon="-1.56862">
        <ele>5.8</ele>
        <time>2020-06-12T06:05:10Z</time>
      </trkpt>
      <trkpt lat="49.21836" lon="-1.5686">
        <ele>5.8</ele>
        <time>2020-06-12T06:05:11Z</time>
      </trkpt>
      <trkpt lat="49.21837" lon="-1.56859">
        <ele>5.8</ele>
        <time>2020-06-12T06:05:12Z</time>
      </trkpt>
      <trkpt lat="49.21841" lon="-1.56856">
        <ele>5.8</ele>
        <time>2020-06-12T06:05:13Z</time>
      </trkpt>
      <trkpt lat="49.21842" lon="-1.56855">
        <ele>5.8</ele>
        <time>2020-06-12T06:05:14Z</time>
      </trkpt>
      <trkpt lat="49.21844" lon="-1.56853">
        <ele>5.8</ele>
        <time>2020-06-12T06:05:15Z</time>
      </trkpt>
      <trkpt lat="49.21848" lon="-1.56851">
        <ele>5.8</ele>
        <time>2020-06-12T06:05:16Z</time>
      </trkpt>
      <trkpt lat="49.21851" lon="-1.56849">
        <ele>5.8</ele>
        <time>2020-06-12T06:05:17Z</time>
      </trkpt>
      <trkpt lat="49.21855" lon="-1.56846">
        <ele>5.8</ele>
        <time>2020-06-12T06:05:18Z</time>
      </trkpt>
      <trkpt lat="49.21859" lon="-1.56845">
        <ele>5.8</ele>
        <time>2020-06-12T06:05:19Z</time>
      </trkpt>
      <trkpt lat="49.21862" lon="-1.56843">
        <ele>5.8</ele>
        <time>2020-06-12T06:05:20Z</time>
      </trkpt>
      <trkpt lat="49.21866" lon="-1.5684">
        <ele>5.8</ele>
        <time>2020-06-12T06:05:21Z</time>
      </trkpt>
      <trkpt lat="49.2187" lon="-1.56837">
        <ele>5.8</ele>
        <time>2020-06-12T06:05:22Z</time>
      </trkpt>
      <trkpt lat="49.21874" lon="-1.56835">
        <ele>5.8</ele>
        <time>2020-06-12T06:05:23Z</time>
      </trkpt>
      <trkpt lat="49.21878" lon="-1.56833">
        <ele>5.8</ele>
        <time>2020-06-12T06:05:24Z</time>
      </trkpt>
      <trkpt lat="49.21883" lon="-1.5683">
        <ele>5.9</ele>
        <time>2020-06-12T06:05:25Z</time>
      </trkpt>
      <trkpt lat="49.21887" lon="-1.56827">
        <ele>5.9</ele>
        <time>2020-06-12T06:05:26Z</time>
      </trkpt>
      <trkpt lat="49.21891" lon="-1.56823">
        <ele>5.9</ele>
        <time>2020-06-12T06:05:27Z</time>
      </trkpt>
      <trkpt lat="49.21896" lon="-1.5682">
        <ele>5.9</ele>
        <time>2020-06-12T06:05:28Z</time>
      </trkpt>
      <trkpt lat="49.21901" lon="-1.56816">
        <ele>5.9</ele>
        <time>2020-06-12T06:05:29Z</time>
      </trkpt>
      <trkpt lat="49.21905" lon="-1.56813">
        <ele>5.9</ele>
        <time>2020-06-12T06:05:30Z</time>
      </trkpt>
      <trkpt lat="49.2191" lon="-1.56809">
        <ele>6</ele>
        <time>2020-06-12T06:05:31Z</time>
      </trkpt>
      <trkpt lat="49.21914" lon="-1.56806">
        <ele>6</ele>
        <time>2020-06-12T06:05:32Z</time>
      </trkpt>
      <trkpt lat="49.21919" lon="-1.56804">
        <ele>6.1</ele>
        <time>2020-06-12T06:05:33Z</time>
      </trkpt>
      <trkpt lat="49.21922" lon="-1.56801">
        <ele>6.2</ele>
        <time>2020-06-12T06:05:34Z</time>
      </trkpt>
      <trkpt lat="49.21926" lon="-1.56798">
        <ele>6.2</ele>
        <time>2020-06-12T06:05:35Z</time>
      </trkpt>
      <trkpt lat="49.2193" lon="-1.56795">
        <ele>6.3</ele>
        <time>2020-06-12T06:05:36Z</time>
      </trkpt>
      <trkpt lat="49.21935" lon="-1.56792">
        <ele>6.3</ele>
        <time>2020-06-12T06:05:37Z</time>
      </trkpt>
      <trkpt lat="49.2194" lon="-1.56789">
        <ele>6.4</ele>
        <time>2020-06-12T06:05:38Z</time>
      </trkpt>
      <trkpt lat="49.21944" lon="-1.56785">
        <ele>6.4</ele>
        <time>2020-06-12T06:05:39Z</time>
      </trkpt>
      <trkpt lat="49.21948" lon="-1.56783">
        <ele>6.4</ele>
        <time>2020-06-12T06:05:40Z</time>
      </trkpt>
      <trkpt lat="49.21952" lon="-1.5678">
        <ele>6.5</ele>
        <time>2020-06-12T06:05:41Z</time>
      </trkpt>
      <trkpt lat="49.21956" lon="-1.56777">
        <ele>6.5</ele>
        <time>2020-06-12T06:05:42Z</time>
      </trkpt>
      <trkpt lat="49.21962" lon="-1.56772">
        <ele>6.6</ele>
        <time>2020-06-12T06:05:43Z</time>
      </trkpt>
      <trkpt lat="49.21965" lon="-1.5677">
        <ele>6.6</ele>
        <time>2020-06-12T06:05:44Z</time>
      </trkpt>
      <trkpt lat="49.21969" lon="-1.56766">
        <ele>6.7</ele>
        <time>2020-06-12T06:05:45Z</time>
      </trkpt>
      <trkpt lat="49.21974" lon="-1.56762">
        <ele>6.8</ele>
        <time>2020-06-12T06:05:46Z</time>
      </trkpt>
      <trkpt lat="49.21977" lon="-1.56759">
        <ele>6.8</ele>
        <time>2020-06-12T06:05:47Z</time>
      </trkpt>
      <trkpt lat="49.21981" lon="-1.56756">
        <ele>6.9</ele>
        <time>2020-06-12T06:05:48Z</time>
      </trkpt>
      <trkpt lat="49.21985" lon="-1.56754">
        <ele>7</ele>
        <time>2020-06-12T06:05:49Z</time>
      </trkpt>
      <trkpt lat="49.2199" lon="-1.5675">
        <ele>7.1</ele>
        <time>2020-06-12T06:05:50Z</time>
      </trkpt>
      <trkpt lat="49.21994" lon="-1.56747">
        <ele>7.2</ele>
        <time>2020-06-12T06:05:51Z</time>
      </trkpt>
      <trkpt lat="49.21998" lon="-1.56743">
        <ele>7.3</ele>
        <time>2020-06-12T06:05:52Z</time>
      </trkpt>
      <trkpt lat="49.22003" lon="-1.56739">
        <ele>7.3</ele>
        <time>2020-06-12T06:05:53Z</time>
      </trkpt>
      <trkpt lat="49.22007" lon="-1.56734">
        <ele>7.4</ele>
        <time>2020-06-12T06:05:54Z</time>
      </trkpt>
      <trkpt lat="49.22011" lon="-1.56731">
        <ele>7.5</ele>
        <time>2020-06-12T06:05:55Z</time>
      </trkpt>
      <trkpt lat="49.22015" lon="-1.56729">
        <ele>7.5</ele>
        <time>2020-06-12T06:05:56Z</time>
      </trkpt>
      <trkpt lat="49.22019" lon="-1.56726">
        <ele>7.6</ele>
        <time>2020-06-12T06:05:57Z</time>
      </trkpt>
      <trkpt lat="49.22023" lon="-1.56723">
        <ele>7.7</ele>
        <time>2020-06-12T06:05:58Z</time>
      </trkpt>
      <trkpt lat="49.22027" lon="-1.5672">
        <ele>7.7</ele>
        <time>2020-06-12T06:05:59Z</time>
      </trkpt>
      <trkpt lat="49.22031" lon="-1.56717">
        <ele>7.8</ele>
        <time>2020-06-12T06:06:00Z</time>
      </trkpt>
      <trkpt lat="49.22035" lon="-1.56714">
        <ele>7.9</ele>
        <time>2020-06-12T06:06:01Z</time>
      </trkpt>
      <trkpt lat="49.2204" lon="-1.56711">
        <ele>7.9</ele>
        <time>2020-06-12T06:06:02Z</time>
      </trkpt>
      <trkpt lat="49.22044" lon="-1.56709">
        <ele>8</ele>
        <time>2020-06-12T06:06:03Z</time>
      </trkpt>
      <trkpt lat="49.22048" lon="-1.56707">
        <ele>8.1</ele>
        <time>2020-06-12T06:06:04Z</time>
      </trkpt>
      <trkpt lat="49.22052" lon="-1.56705">
        <ele>8.1</ele>
        <time>2020-06-12T06:06:05Z</time>
      </trkpt>
      <trkpt lat="49.22056" lon="-1.56702">
        <ele>8.2</ele>
        <time>2020-06-12T06:06:06Z</time>
      </trkpt>
      <trkpt lat="49.2206" lon="-1.567">
        <ele>8.3</ele>
        <time>2020-06-12T06:06:07Z</time>
      </trkpt>
      <trkpt lat="49.22065" lon="-1.56697">
        <ele>8.3</ele>
        <time>2020-06-12T06:06:08Z</time>
      </trkpt>
      <trkpt lat="49.22069" lon="-1.56694">
        <ele>8.4</ele>
        <time>2020-06-12T06:06:09Z</time>
      </trkpt>
      <trkpt lat="49.22073" lon="-1.5669">
        <ele>8.5</ele>
        <time>2020-06-12T06:06:10Z</time>
      </trkpt>
      <trkpt lat="49.22077" lon="-1.56687">
        <ele>8.6</ele>
        <time>2020-06-12T06:06:11Z</time>
      </trkpt>
      <trkpt lat="49.22081" lon="-1.56684">
        <ele>8.7</ele>
        <time>2020-06-12T06:06:12Z</time>
      </trkpt>
      <trkpt lat="49.22085" lon="-1.56681">
        <ele>8.8</ele>
        <time>2020-06-12T06:06:13Z</time>
      </trkpt>
      <trkpt lat="49.22089" lon="-1.56679">
        <ele>8.9</ele>
        <time>2020-06-12T06:06:14Z</time>
      </trkpt>
      <trkpt lat="49.22094" lon="-1.56675">
        <ele>9.1</ele>
        <time>2020-06-12T06:06:15Z</time>
      </trkpt>
      <trkpt lat="49.22097" lon="-1.56673">
        <ele>9.2</ele>
        <time>2020-06-12T06:06:16Z</time>
      </trkpt>
      <trkpt lat="49.22101" lon="-1.56671">
        <ele>9.3</ele>
        <time>2020-06-12T06:06:17Z</time>
      </trkpt>
      <trkpt lat="49.22105" lon="-1.56668">
        <ele>9.5</ele>
        <time>2020-06-12T06:06:18Z</time>
      </trkpt>
      <trkpt lat="49.22109" lon="-1.56665">
        <ele>9.5</ele>
        <time>2020-06-12T06:06:19Z</time>
      </trkpt>
      <trkpt lat="49.22113" lon="-1.56663">
        <ele>9.6</ele>
        <time>2020-06-12T06:06:20Z</time>
      </trkpt>
      <trkpt lat="49.22117" lon="-1.56661">
        <ele>9.7</ele>
        <time>2020-06-12T06:06:21Z</time>
      </trkpt>
      <trkpt lat="49.22121" lon="-1.56658">
        <ele>9.7</ele>
        <time>2020-06-12T06:06:22Z</time>
      </trkpt>
      <trkpt lat="49.22124" lon="-1.56655">
        <ele>9.7</ele>
        <time>2020-06-12T06:06:23Z</time>
      </trkpt>
      <trkpt lat="49.22128" lon="-1.56653">
        <ele>9.8</ele>
        <time>2020-06-12T06:06:24Z</time>
      </trkpt>
      <trkpt lat="49.22132" lon="-1.5665">
        <ele>9.9</ele>
        <time>2020-06-12T06:06:25Z</time>
      </trkpt>
      <trkpt lat="49.22135" lon="-1.56648">
        <ele>9.9</ele>
        <time>2020-06-12T06:06:26Z</time>
      </trkpt>
      <trkpt lat="49.22139" lon="-1.56645">
        <ele>10</ele>
        <time>2020-06-12T06:06:27Z</time>
      </trkpt>
      <trkpt lat="49.22143" lon="-1.56641">
        <ele>10.1</ele>
        <time>2020-06-12T06:06:28Z</time>
      </trkpt>
      <trkpt lat="49.22147" lon="-1.56638">
        <ele>10.2</ele>
        <time>2020-06-12T06:06:29Z</time>
      </trkpt>
      <trkpt lat="49.22152" lon="-1.56635">
        <ele>10.2</ele>
        <time>2020-06-12T06:06:30Z</time>
      </trkpt>
      <trkpt lat="49.22156" lon="-1.56632">
        <ele>10.3</ele>
        <time>2020-06-12T06:06:31Z</time>
      </trkpt>
      <trkpt lat="49.22161" lon="-1.5663">
        <ele>10.4</ele>
        <time>2020-06-12T06:06:32Z</time>
      </trkpt>
      <trkpt lat="49.22164" lon="-1.56627">
        <ele>10.5</ele>
        <time>2020-06-12T06:06:33Z</time>
      </trkpt>
      <trkpt lat="49.22169" lon="-1.56624">
        <ele>10.6</ele>
        <time>2020-06-12T06:06:34Z</time>
      </trkpt>
      <trkpt lat="49.22173" lon="-1.56622">
        <ele>10.7</ele>
        <time>2020-06-12T06:06:35Z</time>
      </trkpt>
      <trkpt lat="49.22177" lon="-1.56619">
        <ele>10.8</ele>
        <time>2020-06-12T06:06:36Z</time>
      </trkpt>
      <trkpt lat="49.22181" lon="-1.56616">
        <ele>10.8</ele>
        <time>2020-06-12T06:06:37Z</time>
      </trkpt>
      <trkpt lat="49.22185" lon="-1.56614">
        <ele>10.9</ele>
        <time>2020-06-12T06:06:38Z</time>
      </trkpt>
      <trkpt lat="49.22189" lon="-1.56611">
        <ele>11</ele>
        <time>2020-06-12T06:06:39Z</time>
      </trkpt>
      <trkpt lat="49.22193" lon="-1.56609">
        <ele>11.1</ele>
        <time>2020-06-12T06:06:40Z</time>
      </trkpt>
      <trkpt lat="49.22197" lon="-1.56606">
        <ele>11.2</ele>
        <time>2020-06-12T06:06:41Z</time>
      </trkpt>
      <trkpt lat="49.22201" lon="-1.56603">
        <ele>11.3</ele>
        <time>2020-06-12T06:06:42Z</time>
      </trkpt>
      <trkpt lat="49.22205" lon="-1.566">
        <ele>11.4</ele>
        <time>2020-06-12T06:06:43Z</time>
      </trkpt>
      <trkpt lat="49.2221" lon="-1.56597">
        <ele>11.5</ele>
        <time>2020-06-12T06:06:44Z</time>
      </trkpt>
      <trkpt lat="49.22214" lon="-1.56594">
        <ele>11.5</ele>
        <time>2020-06-12T06:06:45Z</time>
      </trkpt>
      <trkpt lat="49.22218" lon="-1.56591">
        <ele>11.6</ele>
        <time>2020-06-12T06:06:46Z</time>
      </trkpt>
      <trkpt lat="49.22221" lon="-1.56588">
        <ele>11.7</ele>
        <time>2020-06-12T06:06:47Z</time>
      </trkpt>
      <trkpt lat="49.22225" lon="-1.56585">
        <ele>11.8</ele>
        <time>2020-06-12T06:06:48Z</time>
      </trkpt>
      <trkpt lat="49.22229" lon="-1.56583">
        <ele>11.8</ele>
        <time>2020-06-12T06:06:49Z</time>
      </trkpt>
      <trkpt lat="49.22232" lon="-1.5658">
        <ele>11.9</ele>
        <time>2020-06-12T06:06:50Z</time>
      </trkpt>
      <trkpt lat="49.22236" lon="-1.56577">
        <ele>12</ele>
        <time>2020-06-12T06:06:51Z</time>
      </trkpt>
      <trkpt lat="49.2224" lon="-1.56574">
        <ele>12</ele>
        <time>2020-06-12T06:06:52Z</time>
      </trkpt>
      <trkpt lat="49.22244" lon="-1.56571">
        <ele>12.1</ele>
        <time>2020-06-12T06:06:53Z</time>
      </trkpt>
      <trkpt lat="49.22248" lon="-1.56568">
        <ele>12.2</ele>
        <time>2020-06-12T06:06:54Z</time>
      </trkpt>
      <trkpt lat="49.22251" lon="-1.56565">
        <ele>12.3</ele>
        <time>2020-06-12T06:06:55Z</time>
      </trkpt>
      <trkpt lat="49.22255" lon="-1.56562">
        <ele>12.4</ele>
        <time>2020-06-12T06:06:56Z</time>
      </trkpt>
      <trkpt lat="49.22259" lon="-1.56559">
        <ele>12.5</ele>
        <time>2020-06-12T06:06:57Z</time>
      </trkpt>
      <trkpt lat="49.22264" lon="-1.56556">
        <ele>12.5</ele>
        <time>2020-06-12T06:06:58Z</time>
      </trkpt>
      <trkpt lat="49.22269" lon="-1.56552">
        <ele>12.6</ele>
        <time>2020-06-12T06:06:59Z</time>
      </trkpt>
      <trkpt lat="49.22274" lon="-1.56549">
        <ele>12.7</ele>
        <time>2020-06-12T06:07:00Z</time>
      </trkpt>
      <trkpt lat="49.22277" lon="-1.56547">
        <ele>12.8</ele>
        <time>2020-06-12T06:07:01Z</time>
      </trkpt>
      <trkpt lat="49.22281" lon="-1.56544">
        <ele>12.9</ele>
        <time>2020-06-12T06:07:02Z</time>
      </trkpt>
      <trkpt lat="49.22285" lon="-1.56541">
        <ele>12.9</ele>
        <time>2020-06-12T06:07:03Z</time>
      </trkpt>
      <trkpt lat="49.22288" lon="-1.56538">
        <ele>13</ele>
        <time>2020-06-12T06:07:04Z</time>
      </trkpt>
      <trkpt lat="49.22292" lon="-1.56535">
        <ele>13.1</ele>
        <time>2020-06-12T06:07:05Z</time>
      </trkpt>
      <trkpt lat="49.22296" lon="-1.56532">
        <ele>13.1</ele>
        <time>2020-06-12T06:07:06Z</time>
      </trkpt>
      <trkpt lat="49.223" lon="-1.56529">
        <ele>13.2</ele>
        <time>2020-06-12T06:07:07Z</time>
      </trkpt>
      <trkpt lat="49.22304" lon="-1.56527">
        <ele>13.2</ele>
        <time>2020-06-12T06:07:08Z</time>
      </trkpt>
      <trkpt lat="49.22307" lon="-1.56524">
        <ele>13.2</ele>
        <time>2020-06-12T06:07:09Z</time>
      </trkpt>
      <trkpt lat="49.22311" lon="-1.56521">
        <ele>13.3</ele>
        <time>2020-06-12T06:07:10Z</time>
      </trkpt>
      <trkpt lat="49.22315" lon="-1.56519">
        <ele>13.3</ele>
        <time>2020-06-12T06:07:11Z</time>
      </trkpt>
      <trkpt lat="49.22319" lon="-1.56515">
        <ele>13.3</ele>
        <time>2020-06-12T06:07:12Z</time>
      </trkpt>
      <trkpt lat="49.22323" lon="-1.56512">
        <ele>13.3</ele>
        <time>2020-06-12T06:07:13Z</time>
      </trkpt>
      <trkpt lat="49.22327" lon="-1.56509">
        <ele>13.4</ele>
        <time>2020-06-12T06:07:14Z</time>
      </trkpt>
      <trkpt lat="49.22332" lon="-1.56506">
        <ele>13.4</ele>
        <time>2020-06-12T06:07:15Z</time>
      </trkpt>
      <trkpt lat="49.22336" lon="-1.56503">
        <ele>13.4</ele>
        <time>2020-06-12T06:07:16Z</time>
      </trkpt>
      <trkpt lat="49.2234" lon="-1.56501">
        <ele>13.5</ele>
        <time>2020-06-12T06:07:17Z</time>
      </trkpt>
      <trkpt lat="49.22345" lon="-1.56498">
        <ele>13.5</ele>
        <time>2020-06-12T06:07:18Z</time>
      </trkpt>
      <trkpt lat="49.22348" lon="-1.56495">
        <ele>13.5</ele>
        <time>2020-06-12T06:07:19Z</time>
      </trkpt>
      <trkpt lat="49.22352" lon="-1.56492">
        <ele>13.6</ele>
        <time>2020-06-12T06:07:20Z</time>
      </trkpt>
      <trkpt lat="49.22356" lon="-1.56489">
        <ele>13.6</ele>
        <time>2020-06-12T06:07:21Z</time>
      </trkpt>
      <trkpt lat="49.2236" lon="-1.56486">
        <ele>13.6</ele>
        <time>2020-06-12T06:07:22Z</time>
      </trkpt>
      <trkpt lat="49.22363" lon="-1.56483">
        <ele>13.6</ele>
        <time>2020-06-12T06:07:23Z</time>
      </trkpt>
      <trkpt lat="49.22367" lon="-1.56481">
        <ele>13.6</ele>
        <time>2020-06-12T06:07:24Z</time>
      </trkpt>
      <trkpt lat="49.22371" lon="-1.56479">
        <ele>13.7</ele>
        <time>2020-06-12T06:07:25Z</time>
      </trkpt>
      <trkpt lat="49.22375" lon="-1.56476">
        <ele>13.7</ele>
        <time>2020-06-12T06:07:26Z</time>
      </trkpt>
      <trkpt lat="49.2238" lon="-1.56473">
        <ele>13.7</ele>
        <time>2020-06-12T06:07:27Z</time>
      </trkpt>
      <trkpt lat="49.22384" lon="-1.5647">
        <ele>13.7</ele>
        <time>2020-06-12T06:07:28Z</time>
      </trkpt>
      <trkpt lat="49.22389" lon="-1.56469">
        <ele>13.7</ele>
        <time>2020-06-12T06:07:29Z</time>
      </trkpt>
      <trkpt lat="49.22393" lon="-1.56467">
        <ele>13.7</ele>
        <time>2020-06-12T06:07:30Z</time>
      </trkpt>
      <trkpt lat="49.22397" lon="-1.56464">
        <ele>13.8</ele>
        <time>2020-06-12T06:07:31Z</time>
      </trkpt>
      <trkpt lat="49.22401" lon="-1.56463">
        <ele>13.8</ele>
        <time>2020-06-12T06:07:32Z</time>
      </trkpt>
      <trkpt lat="49.22406" lon="-1.56461">
        <ele>13.8</ele>
        <time>2020-06-12T06:07:33Z</time>
      </trkpt>
      <trkpt lat="49.22411" lon="-1.56459">
        <ele>13.8</ele>
        <time>2020-06-12T06:07:34Z</time>
      </trkpt>
      <trkpt lat="49.22416" lon="-1.56457">
        <ele>13.8</ele>
        <time>2020-06-12T06:07:35Z</time>
      </trkpt>
      <trkpt lat="49.22421" lon="-1.56455">
        <ele>13.9</ele>
        <time>2020-06-12T06:07:36Z</time>
      </trkpt>
      <trkpt lat="49.22426" lon="-1.56453">
        <ele>13.9</ele>
        <time>2020-06-12T06:07:37Z</time>
      </trkpt>
      <trkpt lat="49.22431" lon="-1.56451">
        <ele>14</ele>
        <time>2020-06-12T06:07:38Z</time>
      </trkpt>
      <trkpt lat="49.22436" lon="-1.5645">
        <ele>14</ele>
        <time>2020-06-12T06:07:39Z</time>
      </trkpt>
      <trkpt lat="49.22441" lon="-1.56449">
        <ele>14</ele>
        <time>2020-06-12T06:07:40Z</time>
      </trkpt>
      <trkpt lat="49.22446" lon="-1.56448">
        <ele>14.1</ele>
        <time>2020-06-12T06:07:41Z</time>
      </trkpt>
      <trkpt lat="49.22451" lon="-1.56447">
        <ele>14.1</ele>
        <time>2020-06-12T06:07:42Z</time>
      </trkpt>
      <trkpt lat="49.22455" lon="-1.56445">
        <ele>14.1</ele>
        <time>2020-06-12T06:07:43Z</time>
      </trkpt>
      <trkpt lat="49.22459" lon="-1.56445">
        <ele>14.1</ele>
        <time>2020-06-12T06:07:44Z</time>
      </trkpt>
      <trkpt lat="49.22462" lon="-1.56444">
        <ele>14.2</ele>
        <time>2020-06-12T06:07:45Z</time>
      </trkpt>
      <trkpt lat="49.22466" lon="-1.56443">
        <ele>14.2</ele>
        <time>2020-06-12T06:07:46Z</time>
      </trkpt>
      <trkpt lat="49.2247" lon="-1.56442">
        <ele>14.2</ele>
        <time>2020-06-12T06:07:47Z</time>
      </trkpt>
      <trkpt lat="49.22475" lon="-1.56442">
        <ele>14.2</ele>
        <time>2020-06-12T06:07:48Z</time>
      </trkpt>
      <trkpt lat="49.22479" lon="-1.56441">
        <ele>14.3</ele>
        <time>2020-06-12T06:07:49Z</time>
      </trkpt>
      <trkpt lat="49.22484" lon="-1.5644">
        <ele>14.3</ele>
        <time>2020-06-12T06:07:50Z</time>
      </trkpt>
      <trkpt lat="49.22489" lon="-1.5644">
        <ele>14.4</ele>
        <time>2020-06-12T06:07:51Z</time>
      </trkpt>
      <trkpt lat="49.22493" lon="-1.5644">
        <ele>14.4</ele>
        <time>2020-06-12T06:07:52Z</time>
      </trkpt>
      <trkpt lat="49.22497" lon="-1.56439">
        <ele>14.4</ele>
        <time>2020-06-12T06:07:53Z</time>
      </trkpt>
      <trkpt lat="49.22501" lon="-1.56438">
        <ele>14.4</ele>
        <time>2020-06-12T06:07:54Z</time>
      </trkpt>
      <trkpt lat="49.22506" lon="-1.56437">
        <ele>14.4</ele>
        <time>2020-06-12T06:07:55Z</time>
      </trkpt>
      <trkpt lat="49.22511" lon="-1.56435">
        <ele>14.4</ele>
        <time>2020-06-12T06:07:56Z</time>
      </trkpt>
      <trkpt lat="49.22516" lon="-1.56435">
        <ele>14.3</ele>
        <time>2020-06-12T06:07:57Z</time>
      </trkpt>
      <trkpt lat="49.22522" lon="-1.56435">
        <ele>14.3</ele>
        <time>2020-06-12T06:07:58Z</time>
      </trkpt>
      <trkpt lat="49.22527" lon="-1.56435">
        <ele>14.4</ele>
        <time>2020-06-12T06:07:59Z</time>
      </trkpt>
      <trkpt lat="49.22531" lon="-1.56435">
        <ele>14.4</ele>
        <time>2020-06-12T06:08:00Z</time>
      </trkpt>
      <trkpt lat="49.22535" lon="-1.56435">
        <ele>14.4</ele>
        <time>2020-06-12T06:08:01Z</time>
      </trkpt>
      <trkpt lat="49.22539" lon="-1.56436">
        <ele>14.4</ele>
        <time>2020-06-12T06:08:02Z</time>
      </trkpt>
      <trkpt lat="49.22543" lon="-1.56435">
        <ele>14.5</ele>
        <time>2020-06-12T06:08:03Z</time>
      </trkpt>
      <trkpt lat="49.22548" lon="-1.56435">
        <ele>14.5</ele>
        <time>2020-06-12T06:08:04Z</time>
      </trkpt>
      <trkpt lat="49.22553" lon="-1.56435">
        <ele>14.5</ele>
        <time>2020-06-12T06:08:05Z</time>
      </trkpt>
      <trkpt lat="49.22557" lon="-1.56435">
        <ele>14.6</ele>
        <time>2020-06-12T06:08:06Z</time>
      </trkpt>
      <trkpt lat="49.22561" lon="-1.56436">
        <ele>14.6</ele>
        <time>2020-06-12T06:08:07Z</time>
      </trkpt>
      <trkpt lat="49.22566" lon="-1.56436">
        <ele>14.6</ele>
        <time>2020-06-12T06:08:08Z</time>
      </trkpt>
      <trkpt lat="49.22571" lon="-1.56437">
        <ele>14.6</ele>
        <time>2020-06-12T06:08:09Z</time>
      </trkpt>
      <trkpt lat="49.22576" lon="-1.56438">
        <ele>14.6</ele>
        <time>2020-06-12T06:08:10Z</time>
      </trkpt>
      <trkpt lat="49.2258" lon="-1.56439">
        <ele>14.6</ele>
        <time>2020-06-12T06:08:11Z</time>
      </trkpt>
      <trkpt lat="49.22585" lon="-1.56443">
        <ele>14.7</ele>
        <time>2020-06-12T06:08:12Z</time>
      </trkpt>
      <trkpt lat="49.2259" lon="-1.56446">
        <ele>14.7</ele>
        <time>2020-06-12T06:08:13Z</time>
      </trkpt>
      <trkpt lat="49.22594" lon="-1.56448">
        <ele>14.7</ele>
        <time>2020-06-12T06:08:14Z</time>
      </trkpt>
      <trkpt lat="49.22598" lon="-1.5645">
        <ele>14.7</ele>
        <time>2020-06-12T06:08:15Z</time>
      </trkpt>
      <trkpt lat="49.22603" lon="-1.56453">
        <ele>14.7</ele>
        <time>2020-06-12T06:08:16Z</time>
      </trkpt>
      <trkpt lat="49.22607" lon="-1.56454">
        <ele>14.7</ele>
        <time>2020-06-12T06:08:17Z</time>
      </trkpt>
      <trkpt lat="49.22612" lon="-1.56456">
        <ele>14.8</ele>
        <time>2020-06-12T06:08:18Z</time>
      </trkpt>
      <trkpt lat="49.22617" lon="-1.56457">
        <ele>14.8</ele>
        <time>2020-06-12T06:08:19Z</time>
      </trkpt>
      <trkpt lat="49.22622" lon="-1.56458">
        <ele>14.8</ele>
        <time>2020-06-12T06:08:20Z</time>
      </trkpt>
      <trkpt lat="49.22627" lon="-1.5646">
        <ele>14.9</ele>
        <time>2020-06-12T06:08:21Z</time>
      </trkpt>
      <trkpt lat="49.22633" lon="-1.56462">
        <ele>14.9</ele>
        <time>2020-06-12T06:08:22Z</time>
      </trkpt>
      <trkpt lat="49.22638" lon="-1.56463">
        <ele>15</ele>
        <time>2020-06-12T06:08:23Z</time>
      </trkpt>
      <trkpt lat="49.22643" lon="-1.56463">
        <ele>15</ele>
        <time>2020-06-12T06:08:24Z</time>
      </trkpt>
      <trkpt lat="49.22648" lon="-1.56465">
        <ele>15</ele>
        <time>2020-06-12T06:08:25Z</time>
      </trkpt>
      <trkpt lat="49.22653" lon="-1.56467">
        <ele>15</ele>
        <time>2020-06-12T06:08:26Z</time>
      </trkpt>
      <trkpt lat="49.22658" lon="-1.56469">
        <ele>15</ele>
        <time>2020-06-12T06:08:27Z</time>
      </trkpt>
      <trkpt lat="49.22662" lon="-1.56472">
        <ele>15.1</ele>
        <time>2020-06-12T06:08:28Z</time>
      </trkpt>
      <trkpt lat="49.22667" lon="-1.56474">
        <ele>15.1</ele>
        <time>2020-06-12T06:08:29Z</time>
      </trkpt>
      <trkpt lat="49.22672" lon="-1.56477">
        <ele>15.1</ele>
        <time>2020-06-12T06:08:30Z</time>
      </trkpt>
      <trkpt lat="49.22677" lon="-1.56479">
        <ele>15.2</ele>
        <time>2020-06-12T06:08:31Z</time>
      </trkpt>
      <trkpt lat="49.22681" lon="-1.56481">
        <ele>15.2</ele>
        <time>2020-06-12T06:08:32Z</time>
      </trkpt>
      <trkpt lat="49.22686" lon="-1.56484">
        <ele>15.2</ele>
        <time>2020-06-12T06:08:33Z</time>
      </trkpt>
      <trkpt lat="49.22691" lon="-1.56487">
        <ele>15.3</ele>
        <time>2020-06-12T06:08:34Z</time>
      </trkpt>
      <trkpt lat="49.22695" lon="-1.5649">
        <ele>15.3</ele>
        <time>2020-06-12T06:08:35Z</time>
      </trkpt>
      <trkpt lat="49.227" lon="-1.56493">
        <ele>15.3</ele>
        <time>2020-06-12T06:08:36Z</time>
      </trkpt>
      <trkpt lat="49.22705" lon="-1.56495">
        <ele>15.3</ele>
        <time>2020-06-12T06:08:37Z</time>
      </trkpt>
      <trkpt lat="49.22709" lon="-1.56498">
        <ele>15.4</ele>
        <time>2020-06-12T06:08:38Z</time>
      </trkpt>
      <trkpt lat="49.22714" lon="-1.56499">
        <ele>15.4</ele>
        <time>2020-06-12T06:08:39Z</time>
      </trkpt>
      <trkpt lat="49.22718" lon="-1.56501">
        <ele>15.4</ele>
        <time>2020-06-12T06:08:40Z</time>
      </trkpt>
      <trkpt lat="49.22723" lon="-1.56503">
        <ele>15.4</ele>
        <time>2020-06-12T06:08:41Z</time>
      </trkpt>
      <trkpt lat="49.22727" lon="-1.56506">
        <ele>15.4</ele>
        <time>2020-06-12T06:08:42Z</time>
      </trkpt>
      <trkpt lat="49.22732" lon="-1.56509">
        <ele>15.5</ele>
        <time>2020-06-12T06:08:43Z</time>
      </trkpt>
      <trkpt lat="49.22737" lon="-1.5651">
        <ele>15.5</ele>
        <time>2020-06-12T06:08:44Z</time>
      </trkpt>
      <trkpt lat="49.22742" lon="-1.56512">
        <ele>15.6</ele>
        <time>2020-06-12T06:08:45Z</time>
      </trkpt>
      <trkpt lat="49.22746" lon="-1.56515">
        <ele>15.6</ele>
        <time>2020-06-12T06:08:46Z</time>
      </trkpt>
      <trkpt lat="49.2275" lon="-1.56517">
        <ele>15.6</ele>
        <time>2020-06-12T06:08:47Z</time>
      </trkpt>
      <trkpt lat="49.22755" lon="-1.5652">
        <ele>15.6</ele>
        <time>2020-06-12T06:08:48Z</time>
      </trkpt>
      <trkpt lat="49.2276" lon="-1.56522">
        <ele>15.6</ele>
        <time>2020-06-12T06:08:49Z</time>
      </trkpt>
      <trkpt lat="49.22765" lon="-1.56524">
        <ele>15.6</ele>
        <time>2020-06-12T06:08:50Z</time>
      </trkpt>
      <trkpt lat="49.2277" lon="-1.56526">
        <ele>15.6</ele>
        <time>2020-06-12T06:08:51Z</time>
      </trkpt>
      <trkpt lat="49.22775" lon="-1.56528">
        <ele>15.6</ele>
        <time>2020-06-12T06:08:52Z</time>
      </trkpt>
      <trkpt lat="49.2278" lon="-1.56531">
        <ele>15.6</ele>
        <time>2020-06-12T06:08:53Z</time>
      </trkpt>
      <trkpt lat="49.22784" lon="-1.56533">
        <ele>15.6</ele>
        <time>2020-06-12T06:08:54Z</time>
      </trkpt>
      <trkpt lat="49.22788" lon="-1.56535">
        <ele>15.7</ele>
        <time>2020-06-12T06:08:55Z</time>
      </trkpt>
      <trkpt lat="49.22793" lon="-1.56536">
        <ele>15.7</ele>
        <time>2020-06-12T06:08:56Z</time>
      </trkpt>
      <trkpt lat="49.22798" lon="-1.56538">
        <ele>15.7</ele>
        <time>2020-06-12T06:08:57Z</time>
      </trkpt>
      <trkpt lat="49.22803" lon="-1.5654">
        <ele>15.7</ele>
        <time>2020-06-12T06:08:58Z</time>
      </trkpt>
      <trkpt lat="49.22808" lon="-1.56542">
        <ele>15.7</ele>
        <time>2020-06-12T06:08:59Z</time>
      </trkpt>
      <trkpt lat="49.22813" lon="-1.56544">
        <ele>15.8</ele>
        <time>2020-06-12T06:09:00Z</time>
      </trkpt>
      <trkpt lat="49.22817" lon="-1.56547">
        <ele>15.8</ele>
        <time>2020-06-12T06:09:01Z</time>
      </trkpt>
      <trkpt lat="49.22822" lon="-1.5655">
        <ele>15.9</ele>
        <time>2020-06-12T06:09:02Z</time>
      </trkpt>
      <trkpt lat="49.22826" lon="-1.56552">
        <ele>16</ele>
        <time>2020-06-12T06:09:03Z</time>
      </trkpt>
      <trkpt lat="49.2283" lon="-1.56554">
        <ele>16.1</ele>
        <time>2020-06-12T06:09:04Z</time>
      </trkpt>
      <trkpt lat="49.22836" lon="-1.56558">
        <ele>16.2</ele>
        <time>2020-06-12T06:09:05Z</time>
      </trkpt>
      <trkpt lat="49.2284" lon="-1.56561">
        <ele>16.3</ele>
        <time>2020-06-12T06:09:06Z</time>
      </trkpt>
      <trkpt lat="49.22844" lon="-1.56563">
        <ele>16.4</ele>
        <time>2020-06-12T06:09:07Z</time>
      </trkpt>
      <trkpt lat="49.22847" lon="-1.56565">
        <ele>16.4</ele>
        <time>2020-06-12T06:09:08Z</time>
      </trkpt>
      <trkpt lat="49.22851" lon="-1.56568">
        <ele>16.4</ele>
        <time>2020-06-12T06:09:09Z</time>
      </trkpt>
      <trkpt lat="49.22855" lon="-1.56571">
        <ele>16.4</ele>
        <time>2020-06-12T06:09:10Z</time>
      </trkpt>
      <trkpt lat="49.22859" lon="-1.56573">
        <ele>16.4</ele>
        <time>2020-06-12T06:09:11Z</time>
      </trkpt>
      <trkpt lat="49.22862" lon="-1.56577">
        <ele>16.4</ele>
        <time>2020-06-12T06:09:12Z</time>
      </trkpt>
      <trkpt lat="49.22867" lon="-1.5658">
        <ele>16.4</ele>
        <time>2020-06-12T06:09:13Z</time>
      </trkpt>
      <trkpt lat="49.22871" lon="-1.56584">
        <ele>16.4</ele>
        <time>2020-06-12T06:09:14Z</time>
      </trkpt>
      <trkpt lat="49.22876" lon="-1.56586">
        <ele>16.5</ele>
        <time>2020-06-12T06:09:15Z</time>
      </trkpt>
      <trkpt lat="49.22879" lon="-1.56589">
        <ele>16.5</ele>
        <time>2020-06-12T06:09:16Z</time>
      </trkpt>
      <trkpt lat="49.22883" lon="-1.56592">
        <ele>16.5</ele>
        <time>2020-06-12T06:09:17Z</time>
      </trkpt>
      <trkpt lat="49.22887" lon="-1.56596">
        <ele>16.5</ele>
        <time>2020-06-12T06:09:18Z</time>
      </trkpt>
      <trkpt lat="49.22891" lon="-1.56599">
        <ele>16.5</ele>
        <time>2020-06-12T06:09:19Z</time>
      </trkpt>
      <trkpt lat="49.22896" lon="-1.56603">
        <ele>16.5</ele>
        <time>2020-06-12T06:09:20Z</time>
      </trkpt>
      <trkpt lat="49.229" lon="-1.56607">
        <ele>16.5</ele>
        <time>2020-06-12T06:09:21Z</time>
      </trkpt>
      <trkpt lat="49.22904" lon="-1.56612">
        <ele>16.5</ele>
        <time>2020-06-12T06:09:22Z</time>
      </trkpt>
      <trkpt lat="49.22908" lon="-1.56615">
        <ele>16.5</ele>
        <time>2020-06-12T06:09:23Z</time>
      </trkpt>
      <trkpt lat="49.22913" lon="-1.56619">
        <ele>16.5</ele>
        <time>2020-06-12T06:09:24Z</time>
      </trkpt>
      <trkpt lat="49.22917" lon="-1.56623">
        <ele>16.5</ele>
        <time>2020-06-12T06:09:25Z</time>
      </trkpt>
      <trkpt lat="49.2292" lon="-1.56626">
        <ele>16.5</ele>
        <time>2020-06-12T06:09:26Z</time>
      </trkpt>
      <trkpt lat="49.22926" lon="-1.56631">
        <ele>16.5</ele>
        <time>2020-06-12T06:09:27Z</time>
      </trkpt>
      <trkpt lat="49.2293" lon="-1.56635">
        <ele>16.5</ele>
        <time>2020-06-12T06:09:28Z</time>
      </trkpt>
      <trkpt lat="49.22934" lon="-1.56639">
        <ele>16.5</ele>
        <time>2020-06-12T06:09:29Z</time>
      </trkpt>
      <trkpt lat="49.22939" lon="-1.56644">
        <ele>16.5</ele>
        <time>2020-06-12T06:09:30Z</time>
      </trkpt>
      <trkpt lat="49.22944" lon="-1.56649">
        <ele>16.4</ele>
        <time>2020-06-12T06:09:31Z</time>
      </trkpt>
      <trkpt lat="49.22948" lon="-1.56653">
        <ele>16.4</ele>
        <time>2020-06-12T06:09:32Z</time>
      </trkpt>
      <trkpt lat="49.22952" lon="-1.56657">
        <ele>16.4</ele>
        <time>2020-06-12T06:09:33Z</time>
      </trkpt>
      <trkpt lat="49.22957" lon="-1.56662">
        <ele>16.4</ele>
        <time>2020-06-12T06:09:34Z</time>
      </trkpt>
      <trkpt lat="49.22961" lon="-1.56669">
        <ele>16.3</ele>
        <time>2020-06-12T06:09:35Z</time>
      </trkpt>
      <trkpt lat="49.22966" lon="-1.56674">
        <ele>16.2</ele>
        <time>2020-06-12T06:09:36Z</time>
      </trkpt>
      <trkpt lat="49.2297" lon="-1.56679">
        <ele>16.1</ele>
        <time>2020-06-12T06:09:37Z</time>
      </trkpt>
      <trkpt lat="49.22975" lon="-1.56687">
        <ele>16</ele>
        <time>2020-06-12T06:09:38Z</time>
      </trkpt>
      <trkpt lat="49.22979" lon="-1.56691">
        <ele>15.9</ele>
        <time>2020-06-12T06:09:39Z</time>
      </trkpt>
      <trkpt lat="49.22985" lon="-1.56696">
        <ele>15.8</ele>
        <time>2020-06-12T06:09:40Z</time>
      </trkpt>
      <trkpt lat="49.22989" lon="-1.56702">
        <ele>15.7</ele>
        <time>2020-06-12T06:09:41Z</time>
      </trkpt>
      <trkpt lat="49.22994" lon="-1.56709">
        <ele>15.6</ele>
        <time>2020-06-12T06:09:42Z</time>
      </trkpt>
      <trkpt lat="49.22997" lon="-1.56715">
        <ele>15.6</ele>
        <time>2020-06-12T06:09:43Z</time>
      </trkpt>
      <trkpt lat="49.23001" lon="-1.56721">
        <ele>15.5</ele>
        <time>2020-06-12T06:09:44Z</time>
      </trkpt>
      <trkpt lat="49.23005" lon="-1.56727">
        <ele>15.4</ele>
        <time>2020-06-12T06:09:45Z</time>
      </trkpt>
      <trkpt lat="49.23009" lon="-1.56734">
        <ele>15.3</ele>
        <time>2020-06-12T06:09:46Z</time>
      </trkpt>
      <trkpt lat="49.23013" lon="-1.56741">
        <ele>15.2</ele>
        <time>2020-06-12T06:09:47Z</time>
      </trkpt>
      <trkpt lat="49.23017" lon="-1.56748">
        <ele>15.1</ele>
        <time>2020-06-12T06:09:48Z</time>
      </trkpt>
      <trkpt lat="49.23021" lon="-1.56755">
        <ele>15</ele>
        <time>2020-06-12T06:09:49Z</time>
      </trkpt>
      <trkpt lat="49.23027" lon="-1.56764">
        <ele>14.9</ele>
        <time>2020-06-12T06:09:50Z</time>
      </trkpt>
      <trkpt lat="49.23031" lon="-1.56773">
        <ele>14.8</ele>
        <time>2020-06-12T06:09:51Z</time>
      </trkpt>
      <trkpt lat="49.23035" lon="-1.56781">
        <ele>14.7</ele>
        <time>2020-06-12T06:09:52Z</time>
      </trkpt>
      <trkpt lat="49.23039" lon="-1.56788">
        <ele>14.6</ele>
        <time>2020-06-12T06:09:53Z</time>
      </trkpt>
      <trkpt lat="49.23043" lon="-1.56795">
        <ele>14.5</ele>
        <time>2020-06-12T06:09:54Z</time>
      </trkpt>
      <trkpt lat="49.23048" lon="-1.56802">
        <ele>14.4</ele>
        <time>2020-06-12T06:09:55Z</time>
      </trkpt>
      <trkpt lat="49.23052" lon="-1.56809">
        <ele>14.3</ele>
        <time>2020-06-12T06:09:56Z</time>
      </trkpt>
      <trkpt lat="49.23055" lon="-1.56815">
        <ele>14.2</ele>
        <time>2020-06-12T06:09:57Z</time>
      </trkpt>
      <trkpt lat="49.23059" lon="-1.56824">
        <ele>14</ele>
        <time>2020-06-12T06:09:58Z</time>
      </trkpt>
      <trkpt lat="49.23063" lon="-1.56832">
        <ele>13.9</ele>
        <time>2020-06-12T06:09:59Z</time>
      </trkpt>
      <trkpt lat="49.23066" lon="-1.56838">
        <ele>13.8</ele>
        <time>2020-06-12T06:10:00Z</time>
      </trkpt>
      <trkpt lat="49.2307" lon="-1.56845">
        <ele>13.7</ele>
        <time>2020-06-12T06:10:01Z</time>
      </trkpt>
      <trkpt lat="49.23075" lon="-1.56854">
        <ele>13.5</ele>
        <time>2020-06-12T06:10:02Z</time>
      </trkpt>
      <trkpt lat="49.23079" lon="-1.56862">
        <ele>13.4</ele>
        <time>2020-06-12T06:10:03Z</time>
      </trkpt>
      <trkpt lat="49.23084" lon="-1.5687">
        <ele>13.2</ele>
        <time>2020-06-12T06:10:04Z</time>
      </trkpt>
      <trkpt lat="49.23089" lon="-1.56878">
        <ele>13.1</ele>
        <time>2020-06-12T06:10:05Z</time>
      </trkpt>
      <trkpt lat="49.23092" lon="-1.56885">
        <ele>12.9</ele>
        <time>2020-06-12T06:10:06Z</time>
      </trkpt>
      <trkpt lat="49.23097" lon="-1.56892">
        <ele>12.8</ele>
        <time>2020-06-12T06:10:07Z</time>
      </trkpt>
      <trkpt lat="49.231" lon="-1.569">
        <ele>12.7</ele>
        <time>2020-06-12T06:10:08Z</time>
      </trkpt>
      <trkpt lat="49.23105" lon="-1.56908">
        <ele>12.6</ele>
        <time>2020-06-12T06:10:09Z</time>
      </trkpt>
      <trkpt lat="49.23108" lon="-1.56917">
        <ele>12.4</ele>
        <time>2020-06-12T06:10:10Z</time>
      </trkpt>
      <trkpt lat="49.23111" lon="-1.56925">
        <ele>12.3</ele>
        <time>2020-06-12T06:10:11Z</time>
      </trkpt>
      <trkpt lat="49.23115" lon="-1.56933">
        <ele>12.1</ele>
        <time>2020-06-12T06:10:12Z</time>
      </trkpt>
      <trkpt lat="49.23119" lon="-1.56941">
        <ele>12</ele>
        <time>2020-06-12T06:10:13Z</time>
      </trkpt>
      <trkpt lat="49.23123" lon="-1.56949">
        <ele>11.8</ele>
        <time>2020-06-12T06:10:14Z</time>
      </trkpt>
      <trkpt lat="49.23128" lon="-1.56957">
        <ele>11.7</ele>
        <time>2020-06-12T06:10:15Z</time>
      </trkpt>
      <trkpt lat="49.23132" lon="-1.56966">
        <ele>11.5</ele>
        <time>2020-06-12T06:10:16Z</time>
      </trkpt>
      <trkpt lat="49.23136" lon="-1.56973">
        <ele>11.4</ele>
        <time>2020-06-12T06:10:17Z</time>
      </trkpt>
      <trkpt lat="49.2314" lon="-1.5698">
        <ele>11.3</ele>
        <time>2020-06-12T06:10:18Z</time>
      </trkpt>
      <trkpt lat="49.23145" lon="-1.56988">
        <ele>11.2</ele>
        <time>2020-06-12T06:10:19Z</time>
      </trkpt>
      <trkpt lat="49.23149" lon="-1.56995">
        <ele>11.2</ele>
        <time>2020-06-12T06:10:20Z</time>
      </trkpt>
      <trkpt lat="49.23154" lon="-1.57003">
        <ele>11.2</ele>
        <time>2020-06-12T06:10:21Z</time>
      </trkpt>
      <trkpt lat="49.23159" lon="-1.5701">
        <ele>11.2</ele>
        <time>2020-06-12T06:10:22Z</time>
      </trkpt>
      <trkpt lat="49.23164" lon="-1.57018">
        <ele>11.3</ele>
        <time>2020-06-12T06:10:23Z</time>
      </trkpt>
      <trkpt lat="49.23168" lon="-1.57025">
        <ele>11.2</ele>
        <time>2020-06-12T06:10:24Z</time>
      </trkpt>
      <trkpt lat="49.23172" lon="-1.57032">
        <ele>11.1</ele>
        <time>2020-06-12T06:10:25Z</time>
      </trkpt>
      <trkpt lat="49.23176" lon="-1.5704">
        <ele>11.1</ele>
        <time>2020-06-12T06:10:26Z</time>
      </trkpt>
      <trkpt lat="49.2318" lon="-1.57048">
        <ele>11</ele>
        <time>2020-06-12T06:10:27Z</time>
      </trkpt>
      <trkpt lat="49.23184" lon="-1.57055">
        <ele>10.9</ele>
        <time>2020-06-12T06:10:28Z</time>
      </trkpt>
      <trkpt lat="49.23188" lon="-1.57063">
        <ele>10.9</ele>
        <time>2020-06-12T06:10:29Z</time>
      </trkpt>
      <trkpt lat="49.23191" lon="-1.57069">
        <ele>10.8</ele>
        <time>2020-06-12T06:10:30Z</time>
      </trkpt>
      <trkpt lat="49.23195" lon="-1.57077">
        <ele>10.7</ele>
        <time>2020-06-12T06:10:31Z</time>
      </trkpt>
      <trkpt lat="49.23199" lon="-1.57085">
        <ele>10.7</ele>
        <time>2020-06-12T06:10:32Z</time>
      </trkpt>
      <trkpt lat="49.23204" lon="-1.57091">
        <ele>10.7</ele>
        <time>2020-06-12T06:10:33Z</time>
      </trkpt>
      <trkpt lat="49.23207" lon="-1.57098">
        <ele>10.7</ele>
        <time>2020-06-12T06:10:34Z</time>
      </trkpt>
      <trkpt lat="49.23212" lon="-1.57108">
        <ele>10.7</ele>
        <time>2020-06-12T06:10:35Z</time>
      </trkpt>
      <trkpt lat="49.23216" lon="-1.57115">
        <ele>10.7</ele>
        <time>2020-06-12T06:10:36Z</time>
      </trkpt>
      <trkpt lat="49.23219" lon="-1.57121">
        <ele>10.7</ele>
        <time>2020-06-12T06:10:37Z</time>
      </trkpt>
      <trkpt lat="49.23222" lon="-1.57126">
        <ele>10.7</ele>
        <time>2020-06-12T06:10:38Z</time>
      </trkpt>
      <trkpt lat="49.23226" lon="-1.57134">
        <ele>10.7</ele>
        <time>2020-06-12T06:10:39Z</time>
      </trkpt>
      <trkpt lat="49.2323" lon="-1.57142">
        <ele>10.6</ele>
        <time>2020-06-12T06:10:40Z</time>
      </trkpt>
      <trkpt lat="49.23234" lon="-1.57151">
        <ele>10.6</ele>
        <time>2020-06-12T06:10:41Z</time>
      </trkpt>
      <trkpt lat="49.23237" lon="-1.57157">
        <ele>10.6</ele>
        <time>2020-06-12T06:10:42Z</time>
      </trkpt>
      <trkpt lat="49.23241" lon="-1.57165">
        <ele>10.6</ele>
        <time>2020-06-12T06:10:43Z</time>
      </trkpt>
      <trkpt lat="49.23244" lon="-1.57171">
        <ele>10.6</ele>
        <time>2020-06-12T06:10:44Z</time>
      </trkpt>
      <trkpt lat="49.23249" lon="-1.5718">
        <ele>10.6</ele>
        <time>2020-06-12T06:10:45Z</time>
      </trkpt>
      <trkpt lat="49.23252" lon="-1.57187">
        <ele>10.6</ele>
        <time>2020-06-12T06:10:46Z</time>
      </trkpt>
      <trkpt lat="49.23255" lon="-1.57195">
        <ele>10.6</ele>
        <time>2020-06-12T06:10:47Z</time>
      </trkpt>
      <trkpt lat="49.23258" lon="-1.57201">
        <ele>10.6</ele>
        <time>2020-06-12T06:10:48Z</time>
      </trkpt>
      <trkpt lat="49.23261" lon="-1.57207">
        <ele>10.6</ele>
        <time>2020-06-12T06:10:49Z</time>
      </trkpt>
      <trkpt lat="49.23265" lon="-1.57215">
        <ele>10.6</ele>
        <time>2020-06-12T06:10:50Z</time>
      </trkpt>
      <trkpt lat="49.23268" lon="-1.57222">
        <ele>10.7</ele>
        <time>2020-06-12T06:10:51Z</time>
      </trkpt>
      <trkpt lat="49.2327" lon="-1.57227">
        <ele>10.7</ele>
        <time>2020-06-12T06:10:52Z</time>
      </trkpt>
      <trkpt lat="49.23273" lon="-1.57234">
        <ele>10.7</ele>
        <time>2020-06-12T06:10:53Z</time>
      </trkpt>
      <trkpt lat="49.23276" lon="-1.5724">
        <ele>10.7</ele>
        <time>2020-06-12T06:10:54Z</time>
      </trkpt>
      <trkpt lat="49.23278" lon="-1.57246">
        <ele>10.8</ele>
        <time>2020-06-12T06:10:55Z</time>
      </trkpt>
      <trkpt lat="49.23282" lon="-1.57253">
        <ele>10.8</ele>
        <time>2020-06-12T06:10:56Z</time>
      </trkpt>
      <trkpt lat="49.23284" lon="-1.57259">
        <ele>10.8</ele>
        <time>2020-06-12T06:10:57Z</time>
      </trkpt>
      <trkpt lat="49.23287" lon="-1.57264">
        <ele>10.9</ele>
        <time>2020-06-12T06:10:58Z</time>
      </trkpt>
      <trkpt lat="49.2329" lon="-1.5727">
        <ele>10.9</ele>
        <time>2020-06-12T06:10:59Z</time>
      </trkpt>
      <trkpt lat="49.23292" lon="-1.57276">
        <ele>11</ele>
        <time>2020-06-12T06:11:00Z</time>
      </trkpt>
      <trkpt lat="49.23295" lon="-1.57282">
        <ele>11</ele>
        <time>2020-06-12T06:11:01Z</time>
      </trkpt>
      <trkpt lat="49.23297" lon="-1.57288">
        <ele>11.1</ele>
        <time>2020-06-12T06:11:02Z</time>
      </trkpt>
      <trkpt lat="49.233" lon="-1.57294">
        <ele>11.2</ele>
        <time>2020-06-12T06:11:03Z</time>
      </trkpt>
      <trkpt lat="49.23302" lon="-1.573">
        <ele>11.2</ele>
        <time>2020-06-12T06:11:04Z</time>
      </trkpt>
      <trkpt lat="49.23304" lon="-1.57306">
        <ele>11.3</ele>
        <time>2020-06-12T06:11:05Z</time>
      </trkpt>
      <trkpt lat="49.23306" lon="-1.57311">
        <ele>11.3</ele>
        <time>2020-06-12T06:11:06Z</time>
      </trkpt>
      <trkpt lat="49.23308" lon="-1.57316">
        <ele>11.4</ele>
        <time>2020-06-12T06:11:07Z</time>
      </trkpt>
      <trkpt lat="49.2331" lon="-1.57319">
        <ele>11.4</ele>
        <time>2020-06-12T06:11:08Z</time>
      </trkpt>
      <trkpt lat="49.23313" lon="-1.5732">
        <ele>11.4</ele>
        <time>2020-06-12T06:11:09Z</time>
      </trkpt>
      <trkpt lat="49.23316" lon="-1.57321">
        <ele>11.4</ele>
        <time>2020-06-12T06:11:10Z</time>
      </trkpt>
      <trkpt lat="49.23319" lon="-1.57321">
        <ele>11.4</ele>
        <time>2020-06-12T06:11:11Z</time>
      </trkpt>
      <trkpt lat="49.23323" lon="-1.57321">
        <ele>11.4</ele>
        <time>2020-06-12T06:11:12Z</time>
      </trkpt>
      <trkpt lat="49.23327" lon="-1.57318">
        <ele>11.3</ele>
        <time>2020-06-12T06:11:13Z</time>
      </trkpt>
      <trkpt lat="49.23328" lon="-1.57317">
        <ele>11.3</ele>
        <time>2020-06-12T06:11:14Z</time>
      </trkpt>
      <trkpt lat="49.23331" lon="-1.57313">
        <ele>11.4</ele>
        <time>2020-06-12T06:11:15Z</time>
      </trkpt>
      <trkpt lat="49.23333" lon="-1.5731">
        <ele>11.4</ele>
        <time>2020-06-12T06:11:16Z</time>
      </trkpt>
      <trkpt lat="49.23334" lon="-1.57306">
        <ele>11.4</ele>
        <time>2020-06-12T06:11:17Z</time>
      </trkpt>
      <trkpt lat="49.23335" lon="-1.57305">
        <ele>11.4</ele>
        <time>2020-06-12T06:11:18Z</time>
      </trkpt>
      <trkpt lat="49.23337" lon="-1.573">
        <ele>11.4</ele>
        <time>2020-06-12T06:11:19Z</time>
      </trkpt>
      <trkpt lat="49.23337" lon="-1.57299">
        <ele>11.4</ele>
        <time>2020-06-12T06:11:20Z</time>
      </trkpt>
      <trkpt lat="49.23337" lon="-1.57294">
        <ele>11.4</ele>
        <time>2020-06-12T06:11:21Z</time>
      </trkpt>
      <trkpt lat="49.23337" lon="-1.57292">
        <ele>11.4</ele>
        <time>2020-06-12T06:11:22Z</time>
      </trkpt>
      <trkpt lat="49.23337" lon="-1.57288">
        <ele>11.4</ele>
        <time>2020-06-12T06:11:23Z</time>
      </trkpt>
      <trkpt lat="49.23337" lon="-1.57286">
        <ele>11.3</ele>
        <time>2020-06-12T06:11:24Z</time>
      </trkpt>
      <trkpt lat="49.23337" lon="-1.5728">
        <ele>11.3</ele>
        <time>2020-06-12T06:11:25Z</time>
      </trkpt>
      <trkpt lat="49.23337" lon="-1.57278">
        <ele>11.3</ele>
        <time>2020-06-12T06:11:26Z</time>
      </trkpt>
      <trkpt lat="49.23336" lon="-1.57276">
        <ele>11.3</ele>
        <time>2020-06-12T06:11:27Z</time>
      </trkpt>
      <trkpt lat="49.23334" lon="-1.57274">
        <ele>11.3</ele>
        <time>2020-06-12T06:11:28Z</time>
      </trkpt>
      <trkpt lat="49.23331" lon="-1.57276">
        <ele>11.3</ele>
        <time>2020-06-12T06:11:29Z</time>
      </trkpt>
      <trkpt lat="49.2333" lon="-1.57276">
        <ele>11.3</ele>
        <time>2020-06-12T06:11:30Z</time>
      </trkpt>
      <trkpt lat="49.23327" lon="-1.57277">
        <ele>11.3</ele>
        <time>2020-06-12T06:11:31Z</time>
      </trkpt>
      <trkpt lat="49.23326" lon="-1.57277">
        <ele>11.3</ele>
        <time>2020-06-12T06:11:32Z</time>
      </trkpt>
      <trkpt lat="49.23325" lon="-1.57278">
        <ele>11.3</ele>
        <time>2020-06-12T06:11:33Z</time>
      </trkpt>
      <trkpt lat="49.23324" lon="-1.57278">
        <ele>11.3</ele>
        <time>2020-06-12T06:11:34Z</time>
      </trkpt>
      <trkpt lat="49.23322" lon="-1.57279">
        <ele>11.3</ele>
        <time>2020-06-12T06:11:35Z</time>
      </trkpt>
      <trkpt lat="49.2332" lon="-1.57279">
        <ele>11.3</ele>
        <time>2020-06-12T06:11:36Z</time>
      </trkpt>
      <trkpt lat="49.23317" lon="-1.5728">
        <ele>11.2</ele>
        <time>2020-06-12T06:11:37Z</time>
      </trkpt>
      <trkpt lat="49.23314" lon="-1.5728">
        <ele>11.2</ele>
        <time>2020-06-12T06:11:38Z</time>
      </trkpt>
      <trkpt lat="49.23312" lon="-1.5728">
        <ele>11.2</ele>
        <time>2020-06-12T06:11:39Z</time>
      </trkpt>
      <trkpt lat="49.23311" lon="-1.57279">
        <ele>11.2</ele>
        <time>2020-06-12T06:11:40Z</time>
      </trkpt>
      <trkpt lat="49.23311" lon="-1.57277">
        <ele>11.2</ele>
        <time>2020-06-12T06:11:41Z</time>
      </trkpt>
      <trkpt lat="49.2331" lon="-1.57277">
        <ele>11.2</ele>
        <time>2020-06-12T06:11:42Z</time>
      </trkpt>
      <trkpt lat="49.2331" lon="-1.57277">
        <ele>11.2</ele>
        <time>2020-06-12T06:11:43Z</time>
      </trkpt>
      <trkpt lat="49.2331" lon="-1.57277">
        <ele>11.2</ele>
        <time>2020-06-12T06:11:44Z</time>
      </trkpt>
      <trkpt lat="49.2331" lon="-1.57278">
        <ele>11.2</ele>
        <time>2020-06-12T06:11:45Z</time>
      </trkpt>
      <trkpt lat="49.2331" lon="-1.57279">
        <ele>11.2</ele>
        <time>2020-06-12T06:11:46Z</time>
      </trkpt>
      <trkpt lat="49.2331" lon="-1.57279">
        <ele>11.2</ele>
        <time>2020-06-12T06:11:47Z</time>
      </trkpt>
      <trkpt lat="49.2331" lon="-1.57279">
        <ele>11.2</ele>
        <time>2020-06-12T06:11:48Z</time>
      </trkpt>
      <trkpt lat="49.2331" lon="-1.57278">
        <ele>11.2</ele>
        <time>2020-06-12T06:11:49Z</time>
      </trkpt>
      <trkpt lat="49.2331" lon="-1.57279">
        <ele>11.2</ele>
        <time>2020-06-12T06:11:50Z</time>
      </trkpt>
      <trkpt lat="49.2331" lon="-1.5728">
        <ele>11.2</ele>
        <time>2020-06-12T06:11:51Z</time>
      </trkpt>
      <trkpt lat="49.23306" lon="-1.57274">
        <ele>11.2</ele>
        <time>2020-06-12T06:23:37Z</time>
      </trkpt>
      <trkpt lat="49.23305" lon="-1.57275">
        <ele>11.2</ele>
        <time>2020-06-12T06:23:38Z</time>
      </trkpt>
      <trkpt lat="49.23304" lon="-1.57275">
        <ele>11.2</ele>
        <time>2020-06-12T06:23:39Z</time>
      </trkpt>
      <trkpt lat="49.23302" lon="-1.57275">
        <ele>11.2</ele>
        <time>2020-06-12T06:23:40Z</time>
      </trkpt>
      <trkpt lat="49.23302" lon="-1.57275">
        <ele>11.2</ele>
        <time>2020-06-12T06:23:41Z</time>
      </trkpt>
      <trkpt lat="49.23301" lon="-1.57276">
        <ele>11.2</ele>
        <time>2020-06-12T06:23:42Z</time>
      </trkpt>
      <trkpt lat="49.23301" lon="-1.57276">
        <ele>11.2</ele>
        <time>2020-06-12T06:23:43Z</time>
      </trkpt>
      <trkpt lat="49.23301" lon="-1.57276">
        <ele>11.2</ele>
        <time>2020-06-12T06:23:44Z</time>
      </trkpt>
      <trkpt lat="49.23301" lon="-1.57278">
        <ele>11.2</ele>
        <time>2020-06-12T06:23:45Z</time>
      </trkpt>
      <trkpt lat="49.233" lon="-1.57278">
        <ele>11.2</ele>
        <time>2020-06-12T06:23:46Z</time>
      </trkpt>
      <trkpt lat="49.233" lon="-1.57278">
        <ele>11.2</ele>
        <time>2020-06-12T06:23:47Z</time>
      </trkpt>
      <trkpt lat="49.233" lon="-1.57278">
        <ele>11.2</ele>
        <time>2020-06-12T06:23:48Z</time>
      </trkpt>
      <trkpt lat="49.233" lon="-1.57278">
        <ele>11.2</ele>
        <time>2020-06-12T06:23:49Z</time>
      </trkpt>
      <trkpt lat="49.233" lon="-1.57279">
        <ele>11.2</ele>
        <time>2020-06-12T06:23:50Z</time>
      </trkpt>
      <trkpt lat="49.233" lon="-1.57279">
        <ele>11.2</ele>
        <time>2020-06-12T06:23:51Z</time>
      </trkpt>
      <trkpt lat="49.233" lon="-1.57279">
        <ele>11.2</ele>
        <time>2020-06-12T06:23:52Z</time>
      </trkpt>
      <trkpt lat="49.233" lon="-1.57279">
        <ele>11.2</ele>
        <time>2020-06-12T06:23:53Z</time>
      </trkpt>
      <trkpt lat="49.23308" lon="-1.57283">
        <ele>11.2</ele>
        <time>2020-06-12T06:24:04Z</time>
      </trkpt>
      <trkpt lat="49.23309" lon="-1.57284">
        <ele>11.2</ele>
        <time>2020-06-12T06:24:05Z</time>
      </trkpt>
      <trkpt lat="49.23309" lon="-1.57283">
        <ele>11.2</ele>
        <time>2020-06-12T06:24:06Z</time>
      </trkpt>
      <trkpt lat="49.23309" lon="-1.57283">
        <ele>11.2</ele>
        <time>2020-06-12T06:24:07Z</time>
      </trkpt>
      <trkpt lat="49.23309" lon="-1.57283">
        <ele>11.2</ele>
        <time>2020-06-12T06:24:08Z</time>
      </trkpt>
      <trkpt lat="49.23309" lon="-1.57283">
        <ele>11.2</ele>
        <time>2020-06-12T06:24:09Z</time>
      </trkpt>
      <trkpt lat="49.23309" lon="-1.57284">
        <ele>11.2</ele>
        <time>2020-06-12T06:24:10Z</time>
      </trkpt>
      <trkpt lat="49.2331" lon="-1.57284">
        <ele>11.2</ele>
        <time>2020-06-12T06:24:11Z</time>
      </trkpt>
      <trkpt lat="49.23311" lon="-1.57283">
        <ele>11.2</ele>
        <time>2020-06-12T06:24:12Z</time>
      </trkpt>
      <trkpt lat="49.23312" lon="-1.57282">
        <ele>11.2</ele>
        <time>2020-06-12T06:24:13Z</time>
      </trkpt>
      <trkpt lat="49.23312" lon="-1.57282">
        <ele>11.2</ele>
        <time>2020-06-12T06:24:14Z</time>
      </trkpt>
      <trkpt lat="49.23312" lon="-1.57281">
        <ele>11.2</ele>
        <time>2020-06-12T06:24:15Z</time>
      </trkpt>
      <trkpt lat="49.23313" lon="-1.57281">
        <ele>11.2</ele>
        <time>2020-06-12T06:24:16Z</time>
      </trkpt>
      <trkpt lat="49.23313" lon="-1.57281">
        <ele>11.2</ele>
        <time>2020-06-12T06:24:17Z</time>
      </trkpt>
      <trkpt lat="49.23315" lon="-1.57282">
        <ele>11.2</ele>
        <time>2020-06-12T06:24:18Z</time>
      </trkpt>
      <trkpt lat="49.23316" lon="-1.57282">
        <ele>11.2</ele>
        <time>2020-06-12T06:24:19Z</time>
      </trkpt>
      <trkpt lat="49.23316" lon="-1.57282">
        <ele>11.2</ele>
        <time>2020-06-12T06:24:20Z</time>
      </trkpt>
      <trkpt lat="49.23317" lon="-1.57283">
        <ele>11.2</ele>
        <time>2020-06-12T06:24:21Z</time>
      </trkpt>
      <trkpt lat="49.2332" lon="-1.57281">
        <ele>11.3</ele>
        <time>2020-06-12T06:24:22Z</time>
      </trkpt>
      <trkpt lat="49.23321" lon="-1.5728">
        <ele>11.3</ele>
        <time>2020-06-12T06:24:23Z</time>
      </trkpt>
      <trkpt lat="49.23324" lon="-1.57278">
        <ele>11.3</ele>
        <time>2020-06-12T06:24:24Z</time>
      </trkpt>
      <trkpt lat="49.23325" lon="-1.57278">
        <ele>11.3</ele>
        <time>2020-06-12T06:24:25Z</time>
      </trkpt>
      <trkpt lat="49.23326" lon="-1.57276">
        <ele>11.3</ele>
        <time>2020-06-12T06:24:26Z</time>
      </trkpt>
      <trkpt lat="49.23327" lon="-1.57274">
        <ele>11.3</ele>
        <time>2020-06-12T06:24:27Z</time>
      </trkpt>
      <trkpt lat="49.23328" lon="-1.57273">
        <ele>11.3</ele>
        <time>2020-06-12T06:24:28Z</time>
      </trkpt>
      <trkpt lat="49.23329" lon="-1.57271">
        <ele>11.3</ele>
        <time>2020-06-12T06:24:29Z</time>
      </trkpt>
      <trkpt lat="49.2333" lon="-1.57271">
        <ele>11.3</ele>
        <time>2020-06-12T06:24:30Z</time>
      </trkpt>
      <trkpt lat="49.23332" lon="-1.57271">
        <ele>11.3</ele>
        <time>2020-06-12T06:24:31Z</time>
      </trkpt>
      <trkpt lat="49.23332" lon="-1.57271">
        <ele>11.3</ele>
        <time>2020-06-12T06:24:32Z</time>
      </trkpt>
      <trkpt lat="49.23335" lon="-1.57271">
        <ele>11.3</ele>
        <time>2020-06-12T06:24:33Z</time>
      </trkpt>
      <trkpt lat="49.23336" lon="-1.57271">
        <ele>11.3</ele>
        <time>2020-06-12T06:24:34Z</time>
      </trkpt>
      <trkpt lat="49.23338" lon="-1.57276">
        <ele>11.3</ele>
        <time>2020-06-12T06:24:35Z</time>
      </trkpt>
      <trkpt lat="49.23338" lon="-1.57282">
        <ele>11.3</ele>
        <time>2020-06-12T06:24:36Z</time>
      </trkpt>
      <trkpt lat="49.23339" lon="-1.57288">
        <ele>11.3</ele>
        <time>2020-06-12T06:24:37Z</time>
      </trkpt>
      <trkpt lat="49.23339" lon="-1.57293">
        <ele>11.4</ele>
        <time>2020-06-12T06:24:38Z</time>
      </trkpt>
      <trkpt lat="49.23339" lon="-1.57298">
        <ele>11.4</ele>
        <time>2020-06-12T06:24:39Z</time>
      </trkpt>
      <trkpt lat="49.23338" lon="-1.57304">
        <ele>11.4</ele>
        <time>2020-06-12T06:24:40Z</time>
      </trkpt>
      <trkpt lat="49.23338" lon="-1.57311">
        <ele>11.4</ele>
        <time>2020-06-12T06:24:41Z</time>
      </trkpt>
      <trkpt lat="49.23338" lon="-1.57317">
        <ele>11.5</ele>
        <time>2020-06-12T06:24:42Z</time>
      </trkpt>
      <trkpt lat="49.23336" lon="-1.57324">
        <ele>11.5</ele>
        <time>2020-06-12T06:24:43Z</time>
      </trkpt>
      <trkpt lat="49.23335" lon="-1.5733">
        <ele>11.5</ele>
        <time>2020-06-12T06:24:44Z</time>
      </trkpt>
      <trkpt lat="49.23333" lon="-1.57337">
        <ele>11.5</ele>
        <time>2020-06-12T06:24:45Z</time>
      </trkpt>
      <trkpt lat="49.23331" lon="-1.57342">
        <ele>11.5</ele>
        <time>2020-06-12T06:24:46Z</time>
      </trkpt>
      <trkpt lat="49.23329" lon="-1.57347">
        <ele>11.6</ele>
        <time>2020-06-12T06:24:47Z</time>
      </trkpt>
      <trkpt lat="49.23327" lon="-1.57352">
        <ele>11.5</ele>
        <time>2020-06-12T06:24:48Z</time>
      </trkpt>
      <trkpt lat="49.23327" lon="-1.57359">
        <ele>11.5</ele>
        <time>2020-06-12T06:24:49Z</time>
      </trkpt>
      <trkpt lat="49.23328" lon="-1.57365">
        <ele>11.4</ele>
        <time>2020-06-12T06:24:50Z</time>
      </trkpt>
      <trkpt lat="49.23329" lon="-1.5737">
        <ele>11.4</ele>
        <time>2020-06-12T06:24:51Z</time>
      </trkpt>
      <trkpt lat="49.23331" lon="-1.57376">
        <ele>11.4</ele>
        <time>2020-06-12T06:24:52Z</time>
      </trkpt>
      <trkpt lat="49.23335" lon="-1.57381">
        <ele>11.3</ele>
        <time>2020-06-12T06:24:53Z</time>
      </trkpt>
      <trkpt lat="49.23338" lon="-1.57385">
        <ele>11.3</ele>
        <time>2020-06-12T06:24:54Z</time>
      </trkpt>
      <trkpt lat="49.23341" lon="-1.57391">
        <ele>11.3</ele>
        <time>2020-06-12T06:24:55Z</time>
      </trkpt>
      <trkpt lat="49.23344" lon="-1.57397">
        <ele>11.3</ele>
        <time>2020-06-12T06:24:56Z</time>
      </trkpt>
      <trkpt lat="49.23347" lon="-1.57403">
        <ele>11.4</ele>
        <time>2020-06-12T06:24:57Z</time>
      </trkpt>
      <trkpt lat="49.2335" lon="-1.57409">
        <ele>11.4</ele>
        <time>2020-06-12T06:24:58Z</time>
      </trkpt>
      <trkpt lat="49.23354" lon="-1.57415">
        <ele>11.4</ele>
        <time>2020-06-12T06:24:59Z</time>
      </trkpt>
      <trkpt lat="49.23357" lon="-1.57422">
        <ele>11.4</ele>
        <time>2020-06-12T06:25:00Z</time>
      </trkpt>
      <trkpt lat="49.2336" lon="-1.5743">
        <ele>11.5</ele>
        <time>2020-06-12T06:25:01Z</time>
      </trkpt>
      <trkpt lat="49.23363" lon="-1.57437">
        <ele>11.5</ele>
        <time>2020-06-12T06:25:02Z</time>
      </trkpt>
      <trkpt lat="49.23366" lon="-1.57444">
        <ele>11.5</ele>
        <time>2020-06-12T06:25:03Z</time>
      </trkpt>
      <trkpt lat="49.23369" lon="-1.57452">
        <ele>11.5</ele>
        <time>2020-06-12T06:25:04Z</time>
      </trkpt>
      <trkpt lat="49.23372" lon="-1.5746">
        <ele>11.6</ele>
        <time>2020-06-12T06:25:05Z</time>
      </trkpt>
      <trkpt lat="49.23375" lon="-1.57466">
        <ele>11.6</ele>
        <time>2020-06-12T06:25:06Z</time>
      </trkpt>
      <trkpt lat="49.23378" lon="-1.57474">
        <ele>11.6</ele>
        <time>2020-06-12T06:25:07Z</time>
      </trkpt>
      <trkpt lat="49.23382" lon="-1.57481">
        <ele>11.6</ele>
        <time>2020-06-12T06:25:08Z</time>
      </trkpt>
      <trkpt lat="49.23384" lon="-1.57488">
        <ele>11.7</ele>
        <time>2020-06-12T06:25:09Z</time>
      </trkpt>
      <trkpt lat="49.23387" lon="-1.57495">
        <ele>11.7</ele>
        <time>2020-06-12T06:25:10Z</time>
      </trkpt>
      <trkpt lat="49.2339" lon="-1.57503">
        <ele>11.8</ele>
        <time>2020-06-12T06:25:11Z</time>
      </trkpt>
      <trkpt lat="49.23393" lon="-1.5751">
        <ele>11.8</ele>
        <time>2020-06-12T06:25:12Z</time>
      </trkpt>
      <trkpt lat="49.23395" lon="-1.57518">
        <ele>11.8</ele>
        <time>2020-06-12T06:25:13Z</time>
      </trkpt>
      <trkpt lat="49.23398" lon="-1.57525">
        <ele>11.8</ele>
        <time>2020-06-12T06:25:14Z</time>
      </trkpt>
      <trkpt lat="49.23402" lon="-1.57532">
        <ele>11.9</ele>
        <time>2020-06-12T06:25:15Z</time>
      </trkpt>
      <trkpt lat="49.23405" lon="-1.5754">
        <ele>11.9</ele>
        <time>2020-06-12T06:25:16Z</time>
      </trkpt>
      <trkpt lat="49.23409" lon="-1.57549">
        <ele>11.9</ele>
        <time>2020-06-12T06:25:17Z</time>
      </trkpt>
      <trkpt lat="49.23413" lon="-1.57557">
        <ele>11.9</ele>
        <time>2020-06-12T06:25:18Z</time>
      </trkpt>
      <trkpt lat="49.23416" lon="-1.57563">
        <ele>11.9</ele>
        <time>2020-06-12T06:25:19Z</time>
      </trkpt>
      <trkpt lat="49.2342" lon="-1.5757">
        <ele>11.9</ele>
        <time>2020-06-12T06:25:20Z</time>
      </trkpt>
      <trkpt lat="49.23423" lon="-1.57578">
        <ele>11.9</ele>
        <time>2020-06-12T06:25:21Z</time>
      </trkpt>
      <trkpt lat="49.23425" lon="-1.57585">
        <ele>11.9</ele>
        <time>2020-06-12T06:25:22Z</time>
      </trkpt>
      <trkpt lat="49.23428" lon="-1.57592">
        <ele>12</ele>
        <time>2020-06-12T06:25:23Z</time>
      </trkpt>
      <trkpt lat="49.23431" lon="-1.576">
        <ele>12</ele>
        <time>2020-06-12T06:25:24Z</time>
      </trkpt>
      <trkpt lat="49.23433" lon="-1.57608">
        <ele>12</ele>
        <time>2020-06-12T06:25:25Z</time>
      </trkpt>
      <trkpt lat="49.23436" lon="-1.57616">
        <ele>11.9</ele>
        <time>2020-06-12T06:25:26Z</time>
      </trkpt>
      <trkpt lat="49.23439" lon="-1.57623">
        <ele>11.9</ele>
        <time>2020-06-12T06:25:27Z</time>
      </trkpt>
      <trkpt lat="49.23441" lon="-1.57631">
        <ele>11.9</ele>
        <time>2020-06-12T06:25:28Z</time>
      </trkpt>
      <trkpt lat="49.23444" lon="-1.57639">
        <ele>11.8</ele>
        <time>2020-06-12T06:25:29Z</time>
      </trkpt>
      <trkpt lat="49.23448" lon="-1.57646">
        <ele>11.8</ele>
        <time>2020-06-12T06:25:30Z</time>
      </trkpt>
      <trkpt lat="49.2345" lon="-1.57655">
        <ele>11.8</ele>
        <time>2020-06-12T06:25:31Z</time>
      </trkpt>
      <trkpt lat="49.23453" lon="-1.57663">
        <ele>11.7</ele>
        <time>2020-06-12T06:25:32Z</time>
      </trkpt>
      <trkpt lat="49.23456" lon="-1.57671">
        <ele>11.7</ele>
        <time>2020-06-12T06:25:33Z</time>
      </trkpt>
      <trkpt lat="49.23458" lon="-1.57679">
        <ele>11.7</ele>
        <time>2020-06-12T06:25:34Z</time>
      </trkpt>
      <trkpt lat="49.23461" lon="-1.57686">
        <ele>11.7</ele>
        <time>2020-06-12T06:25:35Z</time>
      </trkpt>
      <trkpt lat="49.23463" lon="-1.57693">
        <ele>11.7</ele>
        <time>2020-06-12T06:25:36Z</time>
      </trkpt>
      <trkpt lat="49.23466" lon="-1.57702">
        <ele>11.7</ele>
        <time>2020-06-12T06:25:37Z</time>
      </trkpt>
      <trkpt lat="49.2347" lon="-1.57709">
        <ele>11.5</ele>
        <time>2020-06-12T06:25:38Z</time>
      </trkpt>
      <trkpt lat="49.23472" lon="-1.57717">
        <ele>11.4</ele>
        <time>2020-06-12T06:25:39Z</time>
      </trkpt>
      <trkpt lat="49.23475" lon="-1.57727">
        <ele>11.2</ele>
        <time>2020-06-12T06:25:40Z</time>
      </trkpt>
      <trkpt lat="49.23478" lon="-1.57735">
        <ele>11.1</ele>
        <time>2020-06-12T06:25:41Z</time>
      </trkpt>
      <trkpt lat="49.23481" lon="-1.57744">
        <ele>10.9</ele>
        <time>2020-06-12T06:25:42Z</time>
      </trkpt>
      <trkpt lat="49.23484" lon="-1.57753">
        <ele>10.8</ele>
        <time>2020-06-12T06:25:43Z</time>
      </trkpt>
      <trkpt lat="49.23486" lon="-1.57761">
        <ele>10.7</ele>
        <time>2020-06-12T06:25:44Z</time>
      </trkpt>
      <trkpt lat="49.23489" lon="-1.57769">
        <ele>10.6</ele>
        <time>2020-06-12T06:25:45Z</time>
      </trkpt>
      <trkpt lat="49.23492" lon="-1.57778">
        <ele>10.5</ele>
        <time>2020-06-12T06:25:46Z</time>
      </trkpt>
      <trkpt lat="49.23494" lon="-1.57787">
        <ele>10.4</ele>
        <time>2020-06-12T06:25:47Z</time>
      </trkpt>
      <trkpt lat="49.23497" lon="-1.57796">
        <ele>10.2</ele>
        <time>2020-06-12T06:25:48Z</time>
      </trkpt>
      <trkpt lat="49.235" lon="-1.57805">
        <ele>10.1</ele>
        <time>2020-06-12T06:25:49Z</time>
      </trkpt>
      <trkpt lat="49.23502" lon="-1.57814">
        <ele>9.9</ele>
        <time>2020-06-12T06:25:50Z</time>
      </trkpt>
      <trkpt lat="49.23505" lon="-1.57823">
        <ele>9.8</ele>
        <time>2020-06-12T06:25:51Z</time>
      </trkpt>
      <trkpt lat="49.23508" lon="-1.57831">
        <ele>9.7</ele>
        <time>2020-06-12T06:25:52Z</time>
      </trkpt>
      <trkpt lat="49.23511" lon="-1.57841">
        <ele>9.6</ele>
        <time>2020-06-12T06:25:53Z</time>
      </trkpt>
      <trkpt lat="49.23513" lon="-1.57851">
        <ele>9.4</ele>
        <time>2020-06-12T06:25:54Z</time>
      </trkpt>
      <trkpt lat="49.23516" lon="-1.57861">
        <ele>9.3</ele>
        <time>2020-06-12T06:25:55Z</time>
      </trkpt>
      <trkpt lat="49.23519" lon="-1.57871">
        <ele>9.1</ele>
        <time>2020-06-12T06:25:56Z</time>
      </trkpt>
      <trkpt lat="49.23522" lon="-1.57881">
        <ele>8.9</ele>
        <time>2020-06-12T06:25:57Z</time>
      </trkpt>
      <trkpt lat="49.23525" lon="-1.57892">
        <ele>8.7</ele>
        <time>2020-06-12T06:25:58Z</time>
      </trkpt>
      <trkpt lat="49.23528" lon="-1.57903">
        <ele>8.5</ele>
        <time>2020-06-12T06:25:59Z</time>
      </trkpt>
      <trkpt lat="49.2353" lon="-1.57913">
        <ele>8.4</ele>
        <time>2020-06-12T06:26:00Z</time>
      </trkpt>
      <trkpt lat="49.23533" lon="-1.57923">
        <ele>8.2</ele>
        <time>2020-06-12T06:26:01Z</time>
      </trkpt>
      <trkpt lat="49.23535" lon="-1.57933">
        <ele>8.1</ele>
        <time>2020-06-12T06:26:02Z</time>
      </trkpt>
      <trkpt lat="49.23537" lon="-1.57942">
        <ele>7.9</ele>
        <time>2020-06-12T06:26:03Z</time>
      </trkpt>
      <trkpt lat="49.23539" lon="-1.57952">
        <ele>7.7</ele>
        <time>2020-06-12T06:26:04Z</time>
      </trkpt>
      <trkpt lat="49.23542" lon="-1.57964">
        <ele>7.5</ele>
        <time>2020-06-12T06:26:05Z</time>
      </trkpt>
      <trkpt lat="49.23545" lon="-1.57976">
        <ele>7.3</ele>
        <time>2020-06-12T06:26:06Z</time>
      </trkpt>
      <trkpt lat="49.23548" lon="-1.57987">
        <ele>7.2</ele>
        <time>2020-06-12T06:26:07Z</time>
      </trkpt>
      <trkpt lat="49.23551" lon="-1.57998">
        <ele>7</ele>
        <time>2020-06-12T06:26:08Z</time>
      </trkpt>
      <trkpt lat="49.23554" lon="-1.58009">
        <ele>6.9</ele>
        <time>2020-06-12T06:26:09Z</time>
      </trkpt>
      <trkpt lat="49.23556" lon="-1.5802">
        <ele>6.8</ele>
        <time>2020-06-12T06:26:10Z</time>
      </trkpt>
      <trkpt lat="49.23558" lon="-1.58031">
        <ele>6.6</ele>
        <time>2020-06-12T06:26:11Z</time>
      </trkpt>
      <trkpt lat="49.2356" lon="-1.58042">
        <ele>6.6</ele>
        <time>2020-06-12T06:26:12Z</time>
      </trkpt>
      <trkpt lat="49.23563" lon="-1.58054">
        <ele>6.5</ele>
        <time>2020-06-12T06:26:13Z</time>
      </trkpt>
      <trkpt lat="49.23565" lon="-1.58065">
        <ele>6.5</ele>
        <time>2020-06-12T06:26:14Z</time>
      </trkpt>
      <trkpt lat="49.23567" lon="-1.58075">
        <ele>6.5</ele>
        <time>2020-06-12T06:26:15Z</time>
      </trkpt>
      <trkpt lat="49.23569" lon="-1.58085">
        <ele>6.6</ele>
        <time>2020-06-12T06:26:16Z</time>
      </trkpt>
      <trkpt lat="49.23572" lon="-1.58096">
        <ele>6.6</ele>
        <time>2020-06-12T06:26:17Z</time>
      </trkpt>
      <trkpt lat="49.23574" lon="-1.58106">
        <ele>6.6</ele>
        <time>2020-06-12T06:26:18Z</time>
      </trkpt>
      <trkpt lat="49.23576" lon="-1.58117">
        <ele>6.6</ele>
        <time>2020-06-12T06:26:19Z</time>
      </trkpt>
      <trkpt lat="49.23578" lon="-1.58128">
        <ele>6.6</ele>
        <time>2020-06-12T06:26:20Z</time>
      </trkpt>
      <trkpt lat="49.2358" lon="-1.58138">
        <ele>6.6</ele>
        <time>2020-06-12T06:26:21Z</time>
      </trkpt>
      <trkpt lat="49.23581" lon="-1.58148">
        <ele>6.7</ele>
        <time>2020-06-12T06:26:22Z</time>
      </trkpt>
      <trkpt lat="49.23582" lon="-1.58158">
        <ele>6.8</ele>
        <time>2020-06-12T06:26:23Z</time>
      </trkpt>
      <trkpt lat="49.23583" lon="-1.58168">
        <ele>6.9</ele>
        <time>2020-06-12T06:26:24Z</time>
      </trkpt>
      <trkpt lat="49.23585" lon="-1.58177">
        <ele>7</ele>
        <time>2020-06-12T06:26:25Z</time>
      </trkpt>
      <trkpt lat="49.23586" lon="-1.58187">
        <ele>7.2</ele>
        <time>2020-06-12T06:26:26Z</time>
      </trkpt>
      <trkpt lat="49.23588" lon="-1.58197">
        <ele>7.4</ele>
        <time>2020-06-12T06:26:27Z</time>
      </trkpt>
      <trkpt lat="49.2359" lon="-1.58206">
        <ele>7.5</ele>
        <time>2020-06-12T06:26:28Z</time>
      </trkpt>
      <trkpt lat="49.23591" lon="-1.58217">
        <ele>7.7</ele>
        <time>2020-06-12T06:26:29Z</time>
      </trkpt>
      <trkpt lat="49.23594" lon="-1.58226">
        <ele>7.8</ele>
        <time>2020-06-12T06:26:30Z</time>
      </trkpt>
      <trkpt lat="49.23595" lon="-1.58234">
        <ele>8</ele>
        <time>2020-06-12T06:26:31Z</time>
      </trkpt>
      <trkpt lat="49.23597" lon="-1.58243">
        <ele>8.1</ele>
        <time>2020-06-12T06:26:32Z</time>
      </trkpt>
      <trkpt lat="49.23599" lon="-1.58252">
        <ele>8.3</ele>
        <time>2020-06-12T06:26:33Z</time>
      </trkpt>
      <trkpt lat="49.23601" lon="-1.58259">
        <ele>8.5</ele>
        <time>2020-06-12T06:26:34Z</time>
      </trkpt>
      <trkpt lat="49.23603" lon="-1.58267">
        <ele>8.7</ele>
        <time>2020-06-12T06:26:35Z</time>
      </trkpt>
      <trkpt lat="49.23604" lon="-1.58275">
        <ele>8.9</ele>
        <time>2020-06-12T06:26:36Z</time>
      </trkpt>
      <trkpt lat="49.23606" lon="-1.58283">
        <ele>9.1</ele>
        <time>2020-06-12T06:26:37Z</time>
      </trkpt>
      <trkpt lat="49.23608" lon="-1.58293">
        <ele>9.3</ele>
        <time>2020-06-12T06:26:38Z</time>
      </trkpt>
      <trkpt lat="49.23609" lon="-1.58302">
        <ele>9.5</ele>
        <time>2020-06-12T06:26:39Z</time>
      </trkpt>
      <trkpt lat="49.23611" lon="-1.58309">
        <ele>9.7</ele>
        <time>2020-06-12T06:26:40Z</time>
      </trkpt>
      <trkpt lat="49.23612" lon="-1.58317">
        <ele>9.9</ele>
        <time>2020-06-12T06:26:41Z</time>
      </trkpt>
      <trkpt lat="49.23614" lon="-1.58326">
        <ele>10.1</ele>
        <time>2020-06-12T06:26:42Z</time>
      </trkpt>
      <trkpt lat="49.23615" lon="-1.58335">
        <ele>10.4</ele>
        <time>2020-06-12T06:26:43Z</time>
      </trkpt>
      <trkpt lat="49.23617" lon="-1.58342">
        <ele>10.5</ele>
        <time>2020-06-12T06:26:44Z</time>
      </trkpt>
      <trkpt lat="49.23618" lon="-1.58351">
        <ele>10.7</ele>
        <time>2020-06-12T06:26:45Z</time>
      </trkpt>
      <trkpt lat="49.23621" lon="-1.58358">
        <ele>10.9</ele>
        <time>2020-06-12T06:26:46Z</time>
      </trkpt>
      <trkpt lat="49.23622" lon="-1.58367">
        <ele>11.1</ele>
        <time>2020-06-12T06:26:47Z</time>
      </trkpt>
      <trkpt lat="49.23623" lon="-1.58374">
        <ele>11.2</ele>
        <time>2020-06-12T06:26:48Z</time>
      </trkpt>
      <trkpt lat="49.23625" lon="-1.58382">
        <ele>11.3</ele>
        <time>2020-06-12T06:26:49Z</time>
      </trkpt>
      <trkpt lat="49.23626" lon="-1.5839">
        <ele>11.4</ele>
        <time>2020-06-12T06:26:50Z</time>
      </trkpt>
      <trkpt lat="49.23627" lon="-1.58397">
        <ele>11.5</ele>
        <time>2020-06-12T06:26:51Z</time>
      </trkpt>
      <trkpt lat="49.23628" lon="-1.58404">
        <ele>11.6</ele>
        <time>2020-06-12T06:26:52Z</time>
      </trkpt>
      <trkpt lat="49.23629" lon="-1.58411">
        <ele>11.7</ele>
        <time>2020-06-12T06:26:53Z</time>
      </trkpt>
      <trkpt lat="49.2363" lon="-1.58418">
        <ele>11.8</ele>
        <time>2020-06-12T06:26:54Z</time>
      </trkpt>
      <trkpt lat="49.23632" lon="-1.58426">
        <ele>11.9</ele>
        <time>2020-06-12T06:26:55Z</time>
      </trkpt>
      <trkpt lat="49.23633" lon="-1.58433">
        <ele>12</ele>
        <time>2020-06-12T06:26:56Z</time>
      </trkpt>
      <trkpt lat="49.23634" lon="-1.58439">
        <ele>12.1</ele>
        <time>2020-06-12T06:26:57Z</time>
      </trkpt>
      <trkpt lat="49.23635" lon="-1.58446">
        <ele>12.1</ele>
        <time>2020-06-12T06:26:58Z</time>
      </trkpt>
      <trkpt lat="49.23637" lon="-1.58453">
        <ele>12.2</ele>
        <time>2020-06-12T06:26:59Z</time>
      </trkpt>
      <trkpt lat="49.23638" lon="-1.58462">
        <ele>12.3</ele>
        <time>2020-06-12T06:27:00Z</time>
      </trkpt>
      <trkpt lat="49.23639" lon="-1.5847">
        <ele>12.4</ele>
        <time>2020-06-12T06:27:01Z</time>
      </trkpt>
      <trkpt lat="49.2364" lon="-1.58478">
        <ele>12.4</ele>
        <time>2020-06-12T06:27:02Z</time>
      </trkpt>
      <trkpt lat="49.23641" lon="-1.58485">
        <ele>12.5</ele>
        <time>2020-06-12T06:27:03Z</time>
      </trkpt>
      <trkpt lat="49.23642" lon="-1.58492">
        <ele>12.5</ele>
        <time>2020-06-12T06:27:04Z</time>
      </trkpt>
      <trkpt lat="49.23643" lon="-1.585">
        <ele>12.6</ele>
        <time>2020-06-12T06:27:05Z</time>
      </trkpt>
      <trkpt lat="49.23644" lon="-1.58508">
        <ele>12.7</ele>
        <time>2020-06-12T06:27:06Z</time>
      </trkpt>
      <trkpt lat="49.23645" lon="-1.58516">
        <ele>12.7</ele>
        <time>2020-06-12T06:27:07Z</time>
      </trkpt>
      <trkpt lat="49.23647" lon="-1.58523">
        <ele>12.7</ele>
        <time>2020-06-12T06:27:08Z</time>
      </trkpt>
      <trkpt lat="49.23649" lon="-1.58531">
        <ele>12.7</ele>
        <time>2020-06-12T06:27:09Z</time>
      </trkpt>
      <trkpt lat="49.2365" lon="-1.5854">
        <ele>12.7</ele>
        <time>2020-06-12T06:27:10Z</time>
      </trkpt>
      <trkpt lat="49.23651" lon="-1.58549">
        <ele>12.7</ele>
        <time>2020-06-12T06:27:11Z</time>
      </trkpt>
      <trkpt lat="49.23652" lon="-1.58555">
        <ele>12.8</ele>
        <time>2020-06-12T06:27:12Z</time>
      </trkpt>
      <trkpt lat="49.23654" lon="-1.58563">
        <ele>12.8</ele>
        <time>2020-06-12T06:27:13Z</time>
      </trkpt>
      <trkpt lat="49.23655" lon="-1.58571">
        <ele>12.9</ele>
        <time>2020-06-12T06:27:14Z</time>
      </trkpt>
      <trkpt lat="49.23657" lon="-1.58579">
        <ele>12.9</ele>
        <time>2020-06-12T06:27:15Z</time>
      </trkpt>
      <trkpt lat="49.23659" lon="-1.58587">
        <ele>12.9</ele>
        <time>2020-06-12T06:27:16Z</time>
      </trkpt>
      <trkpt lat="49.2366" lon="-1.58595">
        <ele>13</ele>
        <time>2020-06-12T06:27:17Z</time>
      </trkpt>
      <trkpt lat="49.23661" lon="-1.58604">
        <ele>13</ele>
        <time>2020-06-12T06:27:18Z</time>
      </trkpt>
      <trkpt lat="49.23663" lon="-1.58613">
        <ele>13</ele>
        <time>2020-06-12T06:27:19Z</time>
      </trkpt>
      <trkpt lat="49.23663" lon="-1.58621">
        <ele>12.9</ele>
        <time>2020-06-12T06:27:20Z</time>
      </trkpt>
      <trkpt lat="49.23665" lon="-1.5863">
        <ele>12.8</ele>
        <time>2020-06-12T06:27:21Z</time>
      </trkpt>
      <trkpt lat="49.23667" lon="-1.58639">
        <ele>12.8</ele>
        <time>2020-06-12T06:27:22Z</time>
      </trkpt>
      <trkpt lat="49.23669" lon="-1.58647">
        <ele>12.9</ele>
        <time>2020-06-12T06:27:23Z</time>
      </trkpt>
      <trkpt lat="49.23671" lon="-1.58656">
        <ele>12.9</ele>
        <time>2020-06-12T06:27:24Z</time>
      </trkpt>
      <trkpt lat="49.23673" lon="-1.58663">
        <ele>13</ele>
        <time>2020-06-12T06:27:25Z</time>
      </trkpt>
      <trkpt lat="49.23676" lon="-1.5867">
        <ele>13.1</ele>
        <time>2020-06-12T06:27:26Z</time>
      </trkpt>
      <trkpt lat="49.2368" lon="-1.58676">
        <ele>13.9</ele>
        <time>2020-06-12T06:27:27Z</time>
      </trkpt>
      <trkpt lat="49.23683" lon="-1.58682">
        <ele>13.8</ele>
        <time>2020-06-12T06:27:28Z</time>
      </trkpt>
      <trkpt lat="49.23686" lon="-1.5869">
        <ele>13.6</ele>
        <time>2020-06-12T06:27:29Z</time>
      </trkpt>
      <trkpt lat="49.23688" lon="-1.58699">
        <ele>13.3</ele>
        <time>2020-06-12T06:27:30Z</time>
      </trkpt>
      <trkpt lat="49.23688" lon="-1.58707">
        <ele>13.2</ele>
        <time>2020-06-12T06:27:31Z</time>
      </trkpt>
      <trkpt lat="49.23687" lon="-1.58716">
        <ele>12.9</ele>
        <time>2020-06-12T06:27:32Z</time>
      </trkpt>
      <trkpt lat="49.23687" lon="-1.58725">
        <ele>12.6</ele>
        <time>2020-06-12T06:27:33Z</time>
      </trkpt>
      <trkpt lat="49.23687" lon="-1.58735">
        <ele>12.4</ele>
        <time>2020-06-12T06:27:34Z</time>
      </trkpt>
      <trkpt lat="49.23688" lon="-1.58746">
        <ele>12.4</ele>
        <time>2020-06-12T06:27:35Z</time>
      </trkpt>
      <trkpt lat="49.23689" lon="-1.58755">
        <ele>12.4</ele>
        <time>2020-06-12T06:27:36Z</time>
      </trkpt>
      <trkpt lat="49.23689" lon="-1.58765">
        <ele>12.3</ele>
        <time>2020-06-12T06:27:37Z</time>
      </trkpt>
      <trkpt lat="49.23692" lon="-1.58775">
        <ele>12.2</ele>
        <time>2020-06-12T06:27:38Z</time>
      </trkpt>
      <trkpt lat="49.23694" lon="-1.58785">
        <ele>12.1</ele>
        <time>2020-06-12T06:27:39Z</time>
      </trkpt>
      <trkpt lat="49.23695" lon="-1.58794">
        <ele>12</ele>
        <time>2020-06-12T06:27:40Z</time>
      </trkpt>
      <trkpt lat="49.23697" lon="-1.58804">
        <ele>11.9</ele>
        <time>2020-06-12T06:27:41Z</time>
      </trkpt>
      <trkpt lat="49.23698" lon="-1.58814">
        <ele>11.8</ele>
        <time>2020-06-12T06:27:42Z</time>
      </trkpt>
      <trkpt lat="49.237" lon="-1.58824">
        <ele>11.6</ele>
        <time>2020-06-12T06:27:43Z</time>
      </trkpt>
      <trkpt lat="49.23702" lon="-1.58834">
        <ele>11.4</ele>
        <time>2020-06-12T06:27:44Z</time>
      </trkpt>
      <trkpt lat="49.23703" lon="-1.58844">
        <ele>11.3</ele>
        <time>2020-06-12T06:27:45Z</time>
      </trkpt>
      <trkpt lat="49.23705" lon="-1.58856">
        <ele>11.1</ele>
        <time>2020-06-12T06:27:46Z</time>
      </trkpt>
      <trkpt lat="49.23706" lon="-1.58866">
        <ele>10.9</ele>
        <time>2020-06-12T06:27:47Z</time>
      </trkpt>
      <trkpt lat="49.23707" lon="-1.58876">
        <ele>10.8</ele>
        <time>2020-06-12T06:27:48Z</time>
      </trkpt>
      <trkpt lat="49.23708" lon="-1.58887">
        <ele>10.6</ele>
        <time>2020-06-12T06:27:49Z</time>
      </trkpt>
      <trkpt lat="49.2371" lon="-1.58898">
        <ele>10.4</ele>
        <time>2020-06-12T06:27:50Z</time>
      </trkpt>
      <trkpt lat="49.23711" lon="-1.58909">
        <ele>10.2</ele>
        <time>2020-06-12T06:27:51Z</time>
      </trkpt>
      <trkpt lat="49.23712" lon="-1.58922">
        <ele>9.9</ele>
        <time>2020-06-12T06:27:52Z</time>
      </trkpt>
      <trkpt lat="49.23714" lon="-1.58933">
        <ele>9.7</ele>
        <time>2020-06-12T06:27:53Z</time>
      </trkpt>
      <trkpt lat="49.23715" lon="-1.58945">
        <ele>9.4</ele>
        <time>2020-06-12T06:27:54Z</time>
      </trkpt>
      <trkpt lat="49.23715" lon="-1.58957">
        <ele>9.1</ele>
        <time>2020-06-12T06:27:55Z</time>
      </trkpt>
      <trkpt lat="49.23716" lon="-1.58968">
        <ele>8.9</ele>
        <time>2020-06-12T06:27:56Z</time>
      </trkpt>
      <trkpt lat="49.23717" lon="-1.5898">
        <ele>8.7</ele>
        <time>2020-06-12T06:27:57Z</time>
      </trkpt>
      <trkpt lat="49.23718" lon="-1.58991">
        <ele>8.5</ele>
        <time>2020-06-12T06:27:58Z</time>
      </trkpt>
      <trkpt lat="49.23719" lon="-1.59003">
        <ele>8.4</ele>
        <time>2020-06-12T06:27:59Z</time>
      </trkpt>
      <trkpt lat="49.23719" lon="-1.59015">
        <ele>8.3</ele>
        <time>2020-06-12T06:28:00Z</time>
      </trkpt>
      <trkpt lat="49.23719" lon="-1.59026">
        <ele>8.1</ele>
        <time>2020-06-12T06:28:01Z</time>
      </trkpt>
      <trkpt lat="49.23719" lon="-1.59038">
        <ele>8</ele>
        <time>2020-06-12T06:28:02Z</time>
      </trkpt>
      <trkpt lat="49.2372" lon="-1.59049">
        <ele>7.9</ele>
        <time>2020-06-12T06:28:03Z</time>
      </trkpt>
      <trkpt lat="49.23721" lon="-1.59061">
        <ele>7.8</ele>
        <time>2020-06-12T06:28:04Z</time>
      </trkpt>
      <trkpt lat="49.23721" lon="-1.59073">
        <ele>7.9</ele>
        <time>2020-06-12T06:28:05Z</time>
      </trkpt>
      <trkpt lat="49.23721" lon="-1.59085">
        <ele>7.9</ele>
        <time>2020-06-12T06:28:06Z</time>
      </trkpt>
      <trkpt lat="49.23722" lon="-1.59097">
        <ele>8</ele>
        <time>2020-06-12T06:28:07Z</time>
      </trkpt>
      <trkpt lat="49.23722" lon="-1.59109">
        <ele>8.4</ele>
        <time>2020-06-12T06:28:08Z</time>
      </trkpt>
      <trkpt lat="49.23722" lon="-1.5912">
        <ele>8.4</ele>
        <time>2020-06-12T06:28:09Z</time>
      </trkpt>
      <trkpt lat="49.23722" lon="-1.59131">
        <ele>8.5</ele>
        <time>2020-06-12T06:28:10Z</time>
      </trkpt>
      <trkpt lat="49.23723" lon="-1.59142">
        <ele>8.7</ele>
        <time>2020-06-12T06:28:11Z</time>
      </trkpt>
      <trkpt lat="49.23724" lon="-1.59153">
        <ele>8.8</ele>
        <time>2020-06-12T06:28:12Z</time>
      </trkpt>
      <trkpt lat="49.23724" lon="-1.59164">
        <ele>9</ele>
        <time>2020-06-12T06:28:13Z</time>
      </trkpt>
      <trkpt lat="49.23724" lon="-1.59174">
        <ele>9.1</ele>
        <time>2020-06-12T06:28:14Z</time>
      </trkpt>
      <trkpt lat="49.23725" lon="-1.59184">
        <ele>9.3</ele>
        <time>2020-06-12T06:28:15Z</time>
      </trkpt>
      <trkpt lat="49.23726" lon="-1.59193">
        <ele>9.5</ele>
        <time>2020-06-12T06:28:16Z</time>
      </trkpt>
      <trkpt lat="49.23726" lon="-1.59202">
        <ele>9.6</ele>
        <time>2020-06-12T06:28:17Z</time>
      </trkpt>
      <trkpt lat="49.23726" lon="-1.59212">
        <ele>9.8</ele>
        <time>2020-06-12T06:28:18Z</time>
      </trkpt>
      <trkpt lat="49.23726" lon="-1.59221">
        <ele>10</ele>
        <time>2020-06-12T06:28:19Z</time>
      </trkpt>
      <trkpt lat="49.23725" lon="-1.59232">
        <ele>10.2</ele>
        <time>2020-06-12T06:28:20Z</time>
      </trkpt>
      <trkpt lat="49.23725" lon="-1.59243">
        <ele>10.4</ele>
        <time>2020-06-12T06:28:21Z</time>
      </trkpt>
      <trkpt lat="49.23726" lon="-1.59252">
        <ele>10.6</ele>
        <time>2020-06-12T06:28:22Z</time>
      </trkpt>
      <trkpt lat="49.23725" lon="-1.59263">
        <ele>10.8</ele>
        <time>2020-06-12T06:28:23Z</time>
      </trkpt>
      <trkpt lat="49.23726" lon="-1.59273">
        <ele>11</ele>
        <time>2020-06-12T06:28:24Z</time>
      </trkpt>
      <trkpt lat="49.23726" lon="-1.59283">
        <ele>11.2</ele>
        <time>2020-06-12T06:28:25Z</time>
      </trkpt>
      <trkpt lat="49.23727" lon="-1.59293">
        <ele>11.4</ele>
        <time>2020-06-12T06:28:26Z</time>
      </trkpt>
      <trkpt lat="49.23727" lon="-1.59302">
        <ele>11.6</ele>
        <time>2020-06-12T06:28:27Z</time>
      </trkpt>
      <trkpt lat="49.23728" lon="-1.59311">
        <ele>11.8</ele>
        <time>2020-06-12T06:28:28Z</time>
      </trkpt>
      <trkpt lat="49.23728" lon="-1.59319">
        <ele>12</ele>
        <time>2020-06-12T06:28:29Z</time>
      </trkpt>
      <trkpt lat="49.23729" lon="-1.59326">
        <ele>12.2</ele>
        <time>2020-06-12T06:28:30Z</time>
      </trkpt>
      <trkpt lat="49.23729" lon="-1.59334">
        <ele>12.3</ele>
        <time>2020-06-12T06:28:31Z</time>
      </trkpt>
      <trkpt lat="49.23729" lon="-1.59344">
        <ele>12.4</ele>
        <time>2020-06-12T06:28:32Z</time>
      </trkpt>
      <trkpt lat="49.23729" lon="-1.59351">
        <ele>12.5</ele>
        <time>2020-06-12T06:28:33Z</time>
      </trkpt>
      <trkpt lat="49.23729" lon="-1.59359">
        <ele>12.6</ele>
        <time>2020-06-12T06:28:34Z</time>
      </trkpt>
      <trkpt lat="49.23729" lon="-1.59367">
        <ele>12.7</ele>
        <time>2020-06-12T06:28:35Z</time>
      </trkpt>
      <trkpt lat="49.23729" lon="-1.59374">
        <ele>12.8</ele>
        <time>2020-06-12T06:28:36Z</time>
      </trkpt>
      <trkpt lat="49.2373" lon="-1.59382">
        <ele>12.9</ele>
        <time>2020-06-12T06:28:37Z</time>
      </trkpt>
      <trkpt lat="49.2373" lon="-1.59391">
        <ele>13</ele>
        <time>2020-06-12T06:28:38Z</time>
      </trkpt>
      <trkpt lat="49.23731" lon="-1.59399">
        <ele>13.1</ele>
        <time>2020-06-12T06:28:39Z</time>
      </trkpt>
      <trkpt lat="49.23731" lon="-1.59407">
        <ele>13.2</ele>
        <time>2020-06-12T06:28:40Z</time>
      </trkpt>
      <trkpt lat="49.23731" lon="-1.59415">
        <ele>13.3</ele>
        <time>2020-06-12T06:28:41Z</time>
      </trkpt>
      <trkpt lat="49.23732" lon="-1.59423">
        <ele>13.4</ele>
        <time>2020-06-12T06:28:42Z</time>
      </trkpt>
      <trkpt lat="49.23732" lon="-1.59432">
        <ele>13.4</ele>
        <time>2020-06-12T06:28:43Z</time>
      </trkpt>
      <trkpt lat="49.23731" lon="-1.5944">
        <ele>13.5</ele>
        <time>2020-06-12T06:28:44Z</time>
      </trkpt>
      <trkpt lat="49.23732" lon="-1.59448">
        <ele>13.6</ele>
        <time>2020-06-12T06:28:45Z</time>
      </trkpt>
      <trkpt lat="49.23733" lon="-1.59455">
        <ele>13.6</ele>
        <time>2020-06-12T06:28:46Z</time>
      </trkpt>
      <trkpt lat="49.23733" lon="-1.59463">
        <ele>13.7</ele>
        <time>2020-06-12T06:28:47Z</time>
      </trkpt>
      <trkpt lat="49.23734" lon="-1.59472">
        <ele>13.7</ele>
        <time>2020-06-12T06:28:48Z</time>
      </trkpt>
      <trkpt lat="49.23734" lon="-1.59482">
        <ele>13.7</ele>
        <time>2020-06-12T06:28:49Z</time>
      </trkpt>
      <trkpt lat="49.23734" lon="-1.59491">
        <ele>13.8</ele>
        <time>2020-06-12T06:28:50Z</time>
      </trkpt>
      <trkpt lat="49.23734" lon="-1.59499">
        <ele>13.8</ele>
        <time>2020-06-12T06:28:51Z</time>
      </trkpt>
      <trkpt lat="49.23735" lon="-1.59507">
        <ele>13.9</ele>
        <time>2020-06-12T06:28:52Z</time>
      </trkpt>
      <trkpt lat="49.23735" lon="-1.59516">
        <ele>14</ele>
        <time>2020-06-12T06:28:53Z</time>
      </trkpt>
      <trkpt lat="49.23736" lon="-1.59525">
        <ele>14</ele>
        <time>2020-06-12T06:28:54Z</time>
      </trkpt>
      <trkpt lat="49.23736" lon="-1.59533">
        <ele>14</ele>
        <time>2020-06-12T06:28:55Z</time>
      </trkpt>
      <trkpt lat="49.23736" lon="-1.59542">
        <ele>14.1</ele>
        <time>2020-06-12T06:28:56Z</time>
      </trkpt>
      <trkpt lat="49.23738" lon="-1.59551">
        <ele>14.1</ele>
        <time>2020-06-12T06:28:57Z</time>
      </trkpt>
      <trkpt lat="49.23738" lon="-1.59561">
        <ele>14.1</ele>
        <time>2020-06-12T06:28:58Z</time>
      </trkpt>
      <trkpt lat="49.23738" lon="-1.59569">
        <ele>14.1</ele>
        <time>2020-06-12T06:28:59Z</time>
      </trkpt>
      <trkpt lat="49.23739" lon="-1.59578">
        <ele>14.1</ele>
        <time>2020-06-12T06:29:00Z</time>
      </trkpt>
      <trkpt lat="49.23739" lon="-1.59587">
        <ele>14.1</ele>
        <time>2020-06-12T06:29:01Z</time>
      </trkpt>
      <trkpt lat="49.23739" lon="-1.59595">
        <ele>14.1</ele>
        <time>2020-06-12T06:29:02Z</time>
      </trkpt>
      <trkpt lat="49.23739" lon="-1.59605">
        <ele>14.1</ele>
        <time>2020-06-12T06:29:03Z</time>
      </trkpt>
      <trkpt lat="49.23739" lon="-1.59612">
        <ele>14.1</ele>
        <time>2020-06-12T06:29:04Z</time>
      </trkpt>
      <trkpt lat="49.2374" lon="-1.59622">
        <ele>14.1</ele>
        <time>2020-06-12T06:29:05Z</time>
      </trkpt>
      <trkpt lat="49.2374" lon="-1.59631">
        <ele>14.1</ele>
        <time>2020-06-12T06:29:06Z</time>
      </trkpt>
      <trkpt lat="49.2374" lon="-1.5964">
        <ele>14.2</ele>
        <time>2020-06-12T06:29:07Z</time>
      </trkpt>
      <trkpt lat="49.23741" lon="-1.59649">
        <ele>14.2</ele>
        <time>2020-06-12T06:29:08Z</time>
      </trkpt>
      <trkpt lat="49.23741" lon="-1.59658">
        <ele>14.2</ele>
        <time>2020-06-12T06:29:09Z</time>
      </trkpt>
      <trkpt lat="49.23741" lon="-1.59668">
        <ele>14.2</ele>
        <time>2020-06-12T06:29:10Z</time>
      </trkpt>
      <trkpt lat="49.23742" lon="-1.59678">
        <ele>14.1</ele>
        <time>2020-06-12T06:29:11Z</time>
      </trkpt>
      <trkpt lat="49.23742" lon="-1.59689">
        <ele>14.1</ele>
        <time>2020-06-12T06:29:12Z</time>
      </trkpt>
      <trkpt lat="49.23742" lon="-1.59699">
        <ele>14.1</ele>
        <time>2020-06-12T06:29:13Z</time>
      </trkpt>
      <trkpt lat="49.23743" lon="-1.59711">
        <ele>14</ele>
        <time>2020-06-12T06:29:14Z</time>
      </trkpt>
      <trkpt lat="49.23743" lon="-1.59721">
        <ele>14</ele>
        <time>2020-06-12T06:29:15Z</time>
      </trkpt>
      <trkpt lat="49.23744" lon="-1.59731">
        <ele>14</ele>
        <time>2020-06-12T06:29:16Z</time>
      </trkpt>
      <trkpt lat="49.23743" lon="-1.5974">
        <ele>14.1</ele>
        <time>2020-06-12T06:29:17Z</time>
      </trkpt>
      <trkpt lat="49.23744" lon="-1.5975">
        <ele>14</ele>
        <time>2020-06-12T06:29:18Z</time>
      </trkpt>
      <trkpt lat="49.23744" lon="-1.5976">
        <ele>13.9</ele>
        <time>2020-06-12T06:29:19Z</time>
      </trkpt>
      <trkpt lat="49.23745" lon="-1.59772">
        <ele>13.7</ele>
        <time>2020-06-12T06:29:20Z</time>
      </trkpt>
      <trkpt lat="49.23745" lon="-1.59783">
        <ele>13.6</ele>
        <time>2020-06-12T06:29:21Z</time>
      </trkpt>
      <trkpt lat="49.23746" lon="-1.59795">
        <ele>13.5</ele>
        <time>2020-06-12T06:29:22Z</time>
      </trkpt>
      <trkpt lat="49.23746" lon="-1.59806">
        <ele>13.4</ele>
        <time>2020-06-12T06:29:23Z</time>
      </trkpt>
      <trkpt lat="49.23747" lon="-1.59817">
        <ele>13.2</ele>
        <time>2020-06-12T06:29:24Z</time>
      </trkpt>
      <trkpt lat="49.23747" lon="-1.59829">
        <ele>13.1</ele>
        <time>2020-06-12T06:29:25Z</time>
      </trkpt>
      <trkpt lat="49.23747" lon="-1.5984">
        <ele>13.1</ele>
        <time>2020-06-12T06:29:26Z</time>
      </trkpt>
      <trkpt lat="49.23747" lon="-1.59851">
        <ele>13</ele>
        <time>2020-06-12T06:29:27Z</time>
      </trkpt>
      <trkpt lat="49.23748" lon="-1.59862">
        <ele>12.9</ele>
        <time>2020-06-12T06:29:28Z</time>
      </trkpt>
      <trkpt lat="49.23749" lon="-1.59873">
        <ele>12.8</ele>
        <time>2020-06-12T06:29:29Z</time>
      </trkpt>
      <trkpt lat="49.23749" lon="-1.59885">
        <ele>12.6</ele>
        <time>2020-06-12T06:29:30Z</time>
      </trkpt>
      <trkpt lat="49.2375" lon="-1.59897">
        <ele>12.5</ele>
        <time>2020-06-12T06:29:31Z</time>
      </trkpt>
      <trkpt lat="49.23749" lon="-1.59908">
        <ele>12.4</ele>
        <time>2020-06-12T06:29:32Z</time>
      </trkpt>
      <trkpt lat="49.2375" lon="-1.5992">
        <ele>12.3</ele>
        <time>2020-06-12T06:29:33Z</time>
      </trkpt>
      <trkpt lat="49.2375" lon="-1.59931">
        <ele>12.2</ele>
        <time>2020-06-12T06:29:34Z</time>
      </trkpt>
      <trkpt lat="49.2375" lon="-1.59942">
        <ele>12.1</ele>
        <time>2020-06-12T06:29:35Z</time>
      </trkpt>
      <trkpt lat="49.23751" lon="-1.59953">
        <ele>12</ele>
        <time>2020-06-12T06:29:36Z</time>
      </trkpt>
      <trkpt lat="49.23751" lon="-1.59964">
        <ele>11.9</ele>
        <time>2020-06-12T06:29:37Z</time>
      </trkpt>
      <trkpt lat="49.23751" lon="-1.59977">
        <ele>11.9</ele>
        <time>2020-06-12T06:29:38Z</time>
      </trkpt>
      <trkpt lat="49.23752" lon="-1.59988">
        <ele>11.8</ele>
        <time>2020-06-12T06:29:39Z</time>
      </trkpt>
      <trkpt lat="49.23753" lon="-1.60001">
        <ele>11.7</ele>
        <time>2020-06-12T06:29:40Z</time>
      </trkpt>
      <trkpt lat="49.23753" lon="-1.60014">
        <ele>11.6</ele>
        <time>2020-06-12T06:29:41Z</time>
      </trkpt>
      <trkpt lat="49.23752" lon="-1.60026">
        <ele>11.5</ele>
        <time>2020-06-12T06:29:42Z</time>
      </trkpt>
      <trkpt lat="49.23753" lon="-1.60038">
        <ele>11.4</ele>
        <time>2020-06-12T06:29:43Z</time>
      </trkpt>
      <trkpt lat="49.23753" lon="-1.6005">
        <ele>11.3</ele>
        <time>2020-06-12T06:29:44Z</time>
      </trkpt>
      <trkpt lat="49.23753" lon="-1.60061">
        <ele>11.3</ele>
        <time>2020-06-12T06:29:45Z</time>
      </trkpt>
      <trkpt lat="49.23755" lon="-1.60073">
        <ele>11.2</ele>
        <time>2020-06-12T06:29:46Z</time>
      </trkpt>
      <trkpt lat="49.23755" lon="-1.60084">
        <ele>11.1</ele>
        <time>2020-06-12T06:29:47Z</time>
      </trkpt>
      <trkpt lat="49.23756" lon="-1.60096">
        <ele>11</ele>
        <time>2020-06-12T06:29:48Z</time>
      </trkpt>
      <trkpt lat="49.23757" lon="-1.60109">
        <ele>10.9</ele>
        <time>2020-06-12T06:29:49Z</time>
      </trkpt>
      <trkpt lat="49.23757" lon="-1.60122">
        <ele>10.9</ele>
        <time>2020-06-12T06:29:50Z</time>
      </trkpt>
      <trkpt lat="49.23758" lon="-1.60134">
        <ele>10.8</ele>
        <time>2020-06-12T06:29:51Z</time>
      </trkpt>
      <trkpt lat="49.23758" lon="-1.60146">
        <ele>10.7</ele>
        <time>2020-06-12T06:29:52Z</time>
      </trkpt>
      <trkpt lat="49.23758" lon="-1.60159">
        <ele>10.5</ele>
        <time>2020-06-12T06:29:53Z</time>
      </trkpt>
      <trkpt lat="49.23759" lon="-1.60171">
        <ele>10.4</ele>
        <time>2020-06-12T06:29:54Z</time>
      </trkpt>
      <trkpt lat="49.23759" lon="-1.60184">
        <ele>10.3</ele>
        <time>2020-06-12T06:29:55Z</time>
      </trkpt>
      <trkpt lat="49.23759" lon="-1.60197">
        <ele>10.2</ele>
        <time>2020-06-12T06:29:56Z</time>
      </trkpt>
      <trkpt lat="49.23761" lon="-1.6021">
        <ele>10.1</ele>
        <time>2020-06-12T06:29:57Z</time>
      </trkpt>
      <trkpt lat="49.23761" lon="-1.60223">
        <ele>9.9</ele>
        <time>2020-06-12T06:29:58Z</time>
      </trkpt>
      <trkpt lat="49.23762" lon="-1.60236">
        <ele>9.8</ele>
        <time>2020-06-12T06:29:59Z</time>
      </trkpt>
      <trkpt lat="49.23762" lon="-1.6025">
        <ele>9.7</ele>
        <time>2020-06-12T06:30:00Z</time>
      </trkpt>
      <trkpt lat="49.23762" lon="-1.60262">
        <ele>9.6</ele>
        <time>2020-06-12T06:30:01Z</time>
      </trkpt>
      <trkpt lat="49.23763" lon="-1.60274">
        <ele>9.5</ele>
        <time>2020-06-12T06:30:02Z</time>
      </trkpt>
      <trkpt lat="49.23763" lon="-1.60287">
        <ele>9.4</ele>
        <time>2020-06-12T06:30:03Z</time>
      </trkpt>
      <trkpt lat="49.23764" lon="-1.603">
        <ele>9.2</ele>
        <time>2020-06-12T06:30:04Z</time>
      </trkpt>
      <trkpt lat="49.23764" lon="-1.60313">
        <ele>9.1</ele>
        <time>2020-06-12T06:30:05Z</time>
      </trkpt>
      <trkpt lat="49.23765" lon="-1.60326">
        <ele>9</ele>
        <time>2020-06-12T06:30:06Z</time>
      </trkpt>
      <trkpt lat="49.23765" lon="-1.60339">
        <ele>8.9</ele>
        <time>2020-06-12T06:30:07Z</time>
      </trkpt>
      <trkpt lat="49.23766" lon="-1.60352">
        <ele>8.8</ele>
        <time>2020-06-12T06:30:08Z</time>
      </trkpt>
      <trkpt lat="49.23767" lon="-1.60365">
        <ele>8.7</ele>
        <time>2020-06-12T06:30:09Z</time>
      </trkpt>
      <trkpt lat="49.23768" lon="-1.60378">
        <ele>8.6</ele>
        <time>2020-06-12T06:30:10Z</time>
      </trkpt>
      <trkpt lat="49.23768" lon="-1.60392">
        <ele>8.5</ele>
        <time>2020-06-12T06:30:11Z</time>
      </trkpt>
      <trkpt lat="49.23768" lon="-1.60405">
        <ele>8.4</ele>
        <time>2020-06-12T06:30:12Z</time>
      </trkpt>
      <trkpt lat="49.23769" lon="-1.60418">
        <ele>8.3</ele>
        <time>2020-06-12T06:30:13Z</time>
      </trkpt>
      <trkpt lat="49.23769" lon="-1.6043">
        <ele>8.2</ele>
        <time>2020-06-12T06:30:14Z</time>
      </trkpt>
      <trkpt lat="49.2377" lon="-1.60441">
        <ele>8</ele>
        <time>2020-06-12T06:30:15Z</time>
      </trkpt>
      <trkpt lat="49.23771" lon="-1.60453">
        <ele>7.9</ele>
        <time>2020-06-12T06:30:16Z</time>
      </trkpt>
      <trkpt lat="49.23772" lon="-1.60465">
        <ele>7.8</ele>
        <time>2020-06-12T06:30:17Z</time>
      </trkpt>
      <trkpt lat="49.23773" lon="-1.60478">
        <ele>7.7</ele>
        <time>2020-06-12T06:30:18Z</time>
      </trkpt>
      <trkpt lat="49.23774" lon="-1.6049">
        <ele>7.6</ele>
        <time>2020-06-12T06:30:19Z</time>
      </trkpt>
      <trkpt lat="49.23774" lon="-1.60502">
        <ele>7.6</ele>
        <time>2020-06-12T06:30:20Z</time>
      </trkpt>
      <trkpt lat="49.23774" lon="-1.60513">
        <ele>7.5</ele>
        <time>2020-06-12T06:30:21Z</time>
      </trkpt>
      <trkpt lat="49.23775" lon="-1.60525">
        <ele>7.5</ele>
        <time>2020-06-12T06:30:22Z</time>
      </trkpt>
      <trkpt lat="49.23777" lon="-1.60538">
        <ele>7.4</ele>
        <time>2020-06-12T06:30:23Z</time>
      </trkpt>
      <trkpt lat="49.23777" lon="-1.60551">
        <ele>7.3</ele>
        <time>2020-06-12T06:30:24Z</time>
      </trkpt>
      <trkpt lat="49.23778" lon="-1.60564">
        <ele>7.3</ele>
        <time>2020-06-12T06:30:25Z</time>
      </trkpt>
      <trkpt lat="49.23779" lon="-1.60576">
        <ele>7.3</ele>
        <time>2020-06-12T06:30:26Z</time>
      </trkpt>
      <trkpt lat="49.23779" lon="-1.60586">
        <ele>7.3</ele>
        <time>2020-06-12T06:30:27Z</time>
      </trkpt>
      <trkpt lat="49.23779" lon="-1.60598">
        <ele>7.3</ele>
        <time>2020-06-12T06:30:28Z</time>
      </trkpt>
      <trkpt lat="49.23779" lon="-1.6061">
        <ele>7.3</ele>
        <time>2020-06-12T06:30:29Z</time>
      </trkpt>
      <trkpt lat="49.2378" lon="-1.60622">
        <ele>7.4</ele>
        <time>2020-06-12T06:30:30Z</time>
      </trkpt>
      <trkpt lat="49.2378" lon="-1.60634">
        <ele>7.4</ele>
        <time>2020-06-12T06:30:31Z</time>
      </trkpt>
      <trkpt lat="49.23781" lon="-1.60645">
        <ele>7.5</ele>
        <time>2020-06-12T06:30:32Z</time>
      </trkpt>
      <trkpt lat="49.23782" lon="-1.60656">
        <ele>7.5</ele>
        <time>2020-06-12T06:30:33Z</time>
      </trkpt>
      <trkpt lat="49.23782" lon="-1.60668">
        <ele>7.6</ele>
        <time>2020-06-12T06:30:34Z</time>
      </trkpt>
      <trkpt lat="49.23783" lon="-1.6068">
        <ele>7.6</ele>
        <time>2020-06-12T06:30:35Z</time>
      </trkpt>
      <trkpt lat="49.23783" lon="-1.60692">
        <ele>7.6</ele>
        <time>2020-06-12T06:30:36Z</time>
      </trkpt>
      <trkpt lat="49.23784" lon="-1.60703">
        <ele>7.6</ele>
        <time>2020-06-12T06:30:37Z</time>
      </trkpt>
      <trkpt lat="49.23784" lon="-1.60714">
        <ele>7.6</ele>
        <time>2020-06-12T06:30:38Z</time>
      </trkpt>
      <trkpt lat="49.23784" lon="-1.60724">
        <ele>7.7</ele>
        <time>2020-06-12T06:30:39Z</time>
      </trkpt>
      <trkpt lat="49.23785" lon="-1.60735">
        <ele>7.7</ele>
        <time>2020-06-12T06:30:40Z</time>
      </trkpt>
      <trkpt lat="49.23785" lon="-1.60746">
        <ele>7.7</ele>
        <time>2020-06-12T06:30:41Z</time>
      </trkpt>
      <trkpt lat="49.23785" lon="-1.60757">
        <ele>7.8</ele>
        <time>2020-06-12T06:30:42Z</time>
      </trkpt>
      <trkpt lat="49.23785" lon="-1.60768">
        <ele>7.8</ele>
        <time>2020-06-12T06:30:43Z</time>
      </trkpt>
      <trkpt lat="49.23786" lon="-1.60778">
        <ele>7.9</ele>
        <time>2020-06-12T06:30:44Z</time>
      </trkpt>
      <trkpt lat="49.23786" lon="-1.60788">
        <ele>7.9</ele>
        <time>2020-06-12T06:30:45Z</time>
      </trkpt>
      <trkpt lat="49.23786" lon="-1.60797">
        <ele>8</ele>
        <time>2020-06-12T06:30:46Z</time>
      </trkpt>
      <trkpt lat="49.23787" lon="-1.60808">
        <ele>8</ele>
        <time>2020-06-12T06:30:47Z</time>
      </trkpt>
      <trkpt lat="49.23787" lon="-1.60818">
        <ele>8.1</ele>
        <time>2020-06-12T06:30:48Z</time>
      </trkpt>
      <trkpt lat="49.23788" lon="-1.60827">
        <ele>8.2</ele>
        <time>2020-06-12T06:30:49Z</time>
      </trkpt>
      <trkpt lat="49.23789" lon="-1.60838">
        <ele>8.3</ele>
        <time>2020-06-12T06:30:50Z</time>
      </trkpt>
      <trkpt lat="49.23789" lon="-1.60849">
        <ele>8.4</ele>
        <time>2020-06-12T06:30:51Z</time>
      </trkpt>
      <trkpt lat="49.2379" lon="-1.6086">
        <ele>8.5</ele>
        <time>2020-06-12T06:30:52Z</time>
      </trkpt>
      <trkpt lat="49.23791" lon="-1.6087">
        <ele>8.6</ele>
        <time>2020-06-12T06:30:53Z</time>
      </trkpt>
      <trkpt lat="49.2379" lon="-1.6088">
        <ele>8.7</ele>
        <time>2020-06-12T06:30:54Z</time>
      </trkpt>
      <trkpt lat="49.2379" lon="-1.6089">
        <ele>8.8</ele>
        <time>2020-06-12T06:30:55Z</time>
      </trkpt>
      <trkpt lat="49.23791" lon="-1.60899">
        <ele>8.9</ele>
        <time>2020-06-12T06:30:56Z</time>
      </trkpt>
      <trkpt lat="49.23791" lon="-1.6091">
        <ele>8.9</ele>
        <time>2020-06-12T06:30:57Z</time>
      </trkpt>
      <trkpt lat="49.2379" lon="-1.60921">
        <ele>9</ele>
        <time>2020-06-12T06:30:58Z</time>
      </trkpt>
      <trkpt lat="49.23791" lon="-1.60932">
        <ele>9.1</ele>
        <time>2020-06-12T06:30:59Z</time>
      </trkpt>
      <trkpt lat="49.23792" lon="-1.60942">
        <ele>9.1</ele>
        <time>2020-06-12T06:31:00Z</time>
      </trkpt>
      <trkpt lat="49.23792" lon="-1.60952">
        <ele>9.2</ele>
        <time>2020-06-12T06:31:01Z</time>
      </trkpt>
      <trkpt lat="49.23793" lon="-1.60962">
        <ele>9.2</ele>
        <time>2020-06-12T06:31:02Z</time>
      </trkpt>
      <trkpt lat="49.23793" lon="-1.60972">
        <ele>9.2</ele>
        <time>2020-06-12T06:31:03Z</time>
      </trkpt>
      <trkpt lat="49.23793" lon="-1.60982">
        <ele>9.2</ele>
        <time>2020-06-12T06:31:04Z</time>
      </trkpt>
      <trkpt lat="49.23794" lon="-1.60992">
        <ele>9.3</ele>
        <time>2020-06-12T06:31:05Z</time>
      </trkpt>
      <trkpt lat="49.23794" lon="-1.61002">
        <ele>9.3</ele>
        <time>2020-06-12T06:31:06Z</time>
      </trkpt>
      <trkpt lat="49.23795" lon="-1.61012">
        <ele>9.3</ele>
        <time>2020-06-12T06:31:07Z</time>
      </trkpt>
      <trkpt lat="49.23796" lon="-1.61022">
        <ele>9.3</ele>
        <time>2020-06-12T06:31:08Z</time>
      </trkpt>
      <trkpt lat="49.23796" lon="-1.61031">
        <ele>9.3</ele>
        <time>2020-06-12T06:31:09Z</time>
      </trkpt>
      <trkpt lat="49.23797" lon="-1.61041">
        <ele>9.4</ele>
        <time>2020-06-12T06:31:10Z</time>
      </trkpt>
      <trkpt lat="49.23798" lon="-1.6105">
        <ele>9.4</ele>
        <time>2020-06-12T06:31:11Z</time>
      </trkpt>
      <trkpt lat="49.23799" lon="-1.6106">
        <ele>9.4</ele>
        <time>2020-06-12T06:31:12Z</time>
      </trkpt>
      <trkpt lat="49.23799" lon="-1.61071">
        <ele>9.4</ele>
        <time>2020-06-12T06:31:13Z</time>
      </trkpt>
      <trkpt lat="49.23799" lon="-1.61081">
        <ele>9.4</ele>
        <time>2020-06-12T06:31:14Z</time>
      </trkpt>
      <trkpt lat="49.238" lon="-1.61091">
        <ele>9.4</ele>
        <time>2020-06-12T06:31:15Z</time>
      </trkpt>
      <trkpt lat="49.23801" lon="-1.611">
        <ele>9.4</ele>
        <time>2020-06-12T06:31:16Z</time>
      </trkpt>
      <trkpt lat="49.23801" lon="-1.61109">
        <ele>9.4</ele>
        <time>2020-06-12T06:31:17Z</time>
      </trkpt>
      <trkpt lat="49.23802" lon="-1.6112">
        <ele>9.3</ele>
        <time>2020-06-12T06:31:18Z</time>
      </trkpt>
      <trkpt lat="49.23803" lon="-1.61129">
        <ele>9.3</ele>
        <time>2020-06-12T06:31:19Z</time>
      </trkpt>
      <trkpt lat="49.23803" lon="-1.61139">
        <ele>9.2</ele>
        <time>2020-06-12T06:31:20Z</time>
      </trkpt>
      <trkpt lat="49.23804" lon="-1.61149">
        <ele>9.2</ele>
        <time>2020-06-12T06:31:21Z</time>
      </trkpt>
      <trkpt lat="49.23804" lon="-1.61157">
        <ele>9.2</ele>
        <time>2020-06-12T06:31:22Z</time>
      </trkpt>
      <trkpt lat="49.23805" lon="-1.61165">
        <ele>9.2</ele>
        <time>2020-06-12T06:31:23Z</time>
      </trkpt>
      <trkpt lat="49.23805" lon="-1.61176">
        <ele>9</ele>
        <time>2020-06-12T06:31:24Z</time>
      </trkpt>
      <trkpt lat="49.23805" lon="-1.61188">
        <ele>9</ele>
        <time>2020-06-12T06:31:25Z</time>
      </trkpt>
      <trkpt lat="49.23805" lon="-1.61199">
        <ele>8.9</ele>
        <time>2020-06-12T06:31:26Z</time>
      </trkpt>
      <trkpt lat="49.23805" lon="-1.61209">
        <ele>8.8</ele>
        <time>2020-06-12T06:31:27Z</time>
      </trkpt>
      <trkpt lat="49.23805" lon="-1.6122">
        <ele>8.7</ele>
        <time>2020-06-12T06:31:28Z</time>
      </trkpt>
      <trkpt lat="49.23805" lon="-1.61229">
        <ele>8.6</ele>
        <time>2020-06-12T06:31:29Z</time>
      </trkpt>
      <trkpt lat="49.23805" lon="-1.61239">
        <ele>8.6</ele>
        <time>2020-06-12T06:31:30Z</time>
      </trkpt>
      <trkpt lat="49.23805" lon="-1.61249">
        <ele>8.5</ele>
        <time>2020-06-12T06:31:31Z</time>
      </trkpt>
      <trkpt lat="49.23805" lon="-1.6126">
        <ele>8.4</ele>
        <time>2020-06-12T06:31:32Z</time>
      </trkpt>
      <trkpt lat="49.23806" lon="-1.61272">
        <ele>8.3</ele>
        <time>2020-06-12T06:31:33Z</time>
      </trkpt>
      <trkpt lat="49.23807" lon="-1.61282">
        <ele>8.2</ele>
        <time>2020-06-12T06:31:34Z</time>
      </trkpt>
      <trkpt lat="49.23807" lon="-1.61296">
        <ele>8.1</ele>
        <time>2020-06-12T06:31:35Z</time>
      </trkpt>
      <trkpt lat="49.23807" lon="-1.61308">
        <ele>8.1</ele>
        <time>2020-06-12T06:31:36Z</time>
      </trkpt>
      <trkpt lat="49.23808" lon="-1.61319">
        <ele>8</ele>
        <time>2020-06-12T06:31:37Z</time>
      </trkpt>
      <trkpt lat="49.23809" lon="-1.6133">
        <ele>7.9</ele>
        <time>2020-06-12T06:31:38Z</time>
      </trkpt>
      <trkpt lat="49.23809" lon="-1.61341">
        <ele>7.8</ele>
        <time>2020-06-12T06:31:39Z</time>
      </trkpt>
      <trkpt lat="49.23809" lon="-1.61352">
        <ele>7.7</ele>
        <time>2020-06-12T06:31:40Z</time>
      </trkpt>
      <trkpt lat="49.2381" lon="-1.61363">
        <ele>7.6</ele>
        <time>2020-06-12T06:31:41Z</time>
      </trkpt>
      <trkpt lat="49.2381" lon="-1.61374">
        <ele>7.5</ele>
        <time>2020-06-12T06:31:42Z</time>
      </trkpt>
      <trkpt lat="49.23811" lon="-1.61385">
        <ele>7.5</ele>
        <time>2020-06-12T06:31:43Z</time>
      </trkpt>
      <trkpt lat="49.23811" lon="-1.61396">
        <ele>7.4</ele>
        <time>2020-06-12T06:31:44Z</time>
      </trkpt>
      <trkpt lat="49.23811" lon="-1.61407">
        <ele>7.4</ele>
        <time>2020-06-12T06:31:45Z</time>
      </trkpt>
      <trkpt lat="49.23812" lon="-1.61418">
        <ele>7.4</ele>
        <time>2020-06-12T06:31:46Z</time>
      </trkpt>
      <trkpt lat="49.23812" lon="-1.61428">
        <ele>7.3</ele>
        <time>2020-06-12T06:31:47Z</time>
      </trkpt>
      <trkpt lat="49.23812" lon="-1.6144">
        <ele>7.3</ele>
        <time>2020-06-12T06:31:48Z</time>
      </trkpt>
      <trkpt lat="49.23812" lon="-1.61451">
        <ele>7.4</ele>
        <time>2020-06-12T06:31:49Z</time>
      </trkpt>
      <trkpt lat="49.23813" lon="-1.61462">
        <ele>7.4</ele>
        <time>2020-06-12T06:31:50Z</time>
      </trkpt>
      <trkpt lat="49.23814" lon="-1.61473">
        <ele>7.5</ele>
        <time>2020-06-12T06:31:51Z</time>
      </trkpt>
      <trkpt lat="49.23814" lon="-1.61485">
        <ele>7.5</ele>
        <time>2020-06-12T06:31:52Z</time>
      </trkpt>
      <trkpt lat="49.23815" lon="-1.61496">
        <ele>7.4</ele>
        <time>2020-06-12T06:31:53Z</time>
      </trkpt>
      <trkpt lat="49.23815" lon="-1.61506">
        <ele>7.4</ele>
        <time>2020-06-12T06:31:54Z</time>
      </trkpt>
      <trkpt lat="49.23816" lon="-1.61516">
        <ele>7.4</ele>
        <time>2020-06-12T06:31:55Z</time>
      </trkpt>
      <trkpt lat="49.23816" lon="-1.61527">
        <ele>7.3</ele>
        <time>2020-06-12T06:31:56Z</time>
      </trkpt>
      <trkpt lat="49.23817" lon="-1.61537">
        <ele>7.3</ele>
        <time>2020-06-12T06:31:57Z</time>
      </trkpt>
      <trkpt lat="49.23817" lon="-1.61548">
        <ele>7.2</ele>
        <time>2020-06-12T06:31:58Z</time>
      </trkpt>
      <trkpt lat="49.23818" lon="-1.61558">
        <ele>7.2</ele>
        <time>2020-06-12T06:31:59Z</time>
      </trkpt>
      <trkpt lat="49.23819" lon="-1.61568">
        <ele>7.2</ele>
        <time>2020-06-12T06:32:00Z</time>
      </trkpt>
      <trkpt lat="49.23819" lon="-1.61577">
        <ele>7.2</ele>
        <time>2020-06-12T06:32:01Z</time>
      </trkpt>
      <trkpt lat="49.23821" lon="-1.6159">
        <ele>7.3</ele>
        <time>2020-06-12T06:32:02Z</time>
      </trkpt>
      <trkpt lat="49.23821" lon="-1.616">
        <ele>7.2</ele>
        <time>2020-06-12T06:32:03Z</time>
      </trkpt>
      <trkpt lat="49.23822" lon="-1.61611">
        <ele>7.2</ele>
        <time>2020-06-12T06:32:04Z</time>
      </trkpt>
      <trkpt lat="49.23823" lon="-1.61622">
        <ele>7.2</ele>
        <time>2020-06-12T06:32:05Z</time>
      </trkpt>
      <trkpt lat="49.23824" lon="-1.61633">
        <ele>7.2</ele>
        <time>2020-06-12T06:32:06Z</time>
      </trkpt>
      <trkpt lat="49.23826" lon="-1.61644">
        <ele>7.2</ele>
        <time>2020-06-12T06:32:07Z</time>
      </trkpt>
      <trkpt lat="49.23827" lon="-1.61654">
        <ele>7.2</ele>
        <time>2020-06-12T06:32:08Z</time>
      </trkpt>
      <trkpt lat="49.23828" lon="-1.61664">
        <ele>7.2</ele>
        <time>2020-06-12T06:32:09Z</time>
      </trkpt>
      <trkpt lat="49.23829" lon="-1.61673">
        <ele>7.2</ele>
        <time>2020-06-12T06:32:10Z</time>
      </trkpt>
      <trkpt lat="49.23831" lon="-1.61683">
        <ele>7.2</ele>
        <time>2020-06-12T06:32:11Z</time>
      </trkpt>
      <trkpt lat="49.23832" lon="-1.61693">
        <ele>7.2</ele>
        <time>2020-06-12T06:32:12Z</time>
      </trkpt>
      <trkpt lat="49.23834" lon="-1.61703">
        <ele>7.2</ele>
        <time>2020-06-12T06:32:13Z</time>
      </trkpt>
      <trkpt lat="49.23835" lon="-1.61713">
        <ele>7.2</ele>
        <time>2020-06-12T06:32:14Z</time>
      </trkpt>
      <trkpt lat="49.23837" lon="-1.61723">
        <ele>7.2</ele>
        <time>2020-06-12T06:32:15Z</time>
      </trkpt>
      <trkpt lat="49.23839" lon="-1.61732">
        <ele>7.3</ele>
        <time>2020-06-12T06:32:16Z</time>
      </trkpt>
      <trkpt lat="49.23841" lon="-1.61742">
        <ele>7.3</ele>
        <time>2020-06-12T06:32:17Z</time>
      </trkpt>
      <trkpt lat="49.23843" lon="-1.61753">
        <ele>7.3</ele>
        <time>2020-06-12T06:32:18Z</time>
      </trkpt>
      <trkpt lat="49.23845" lon="-1.61762">
        <ele>7.3</ele>
        <time>2020-06-12T06:32:19Z</time>
      </trkpt>
      <trkpt lat="49.23847" lon="-1.61772">
        <ele>7.2</ele>
        <time>2020-06-12T06:32:20Z</time>
      </trkpt>
      <trkpt lat="49.23851" lon="-1.61781">
        <ele>7.1</ele>
        <time>2020-06-12T06:32:21Z</time>
      </trkpt>
      <trkpt lat="49.23854" lon="-1.61791">
        <ele>6.9</ele>
        <time>2020-06-12T06:32:22Z</time>
      </trkpt>
      <trkpt lat="49.23856" lon="-1.61801">
        <ele>6.8</ele>
        <time>2020-06-12T06:32:23Z</time>
      </trkpt>
      <trkpt lat="49.23859" lon="-1.6181">
        <ele>6.7</ele>
        <time>2020-06-12T06:32:24Z</time>
      </trkpt>
      <trkpt lat="49.23861" lon="-1.61821">
        <ele>6.7</ele>
        <time>2020-06-12T06:32:25Z</time>
      </trkpt>
      <trkpt lat="49.23863" lon="-1.6183">
        <ele>6.6</ele>
        <time>2020-06-12T06:32:26Z</time>
      </trkpt>
      <trkpt lat="49.23866" lon="-1.6184">
        <ele>6.6</ele>
        <time>2020-06-12T06:32:27Z</time>
      </trkpt>
      <trkpt lat="49.23869" lon="-1.6185">
        <ele>6.6</ele>
        <time>2020-06-12T06:32:28Z</time>
      </trkpt>
      <trkpt lat="49.23871" lon="-1.61859">
        <ele>6.7</ele>
        <time>2020-06-12T06:32:29Z</time>
      </trkpt>
      <trkpt lat="49.23875" lon="-1.61869">
        <ele>6.7</ele>
        <time>2020-06-12T06:32:30Z</time>
      </trkpt>
      <trkpt lat="49.23878" lon="-1.61878">
        <ele>6.6</ele>
        <time>2020-06-12T06:32:31Z</time>
      </trkpt>
      <trkpt lat="49.2388" lon="-1.61887">
        <ele>6.6</ele>
        <time>2020-06-12T06:32:32Z</time>
      </trkpt>
      <trkpt lat="49.23884" lon="-1.61896">
        <ele>6.6</ele>
        <time>2020-06-12T06:32:33Z</time>
      </trkpt>
      <trkpt lat="49.23887" lon="-1.61905">
        <ele>6.6</ele>
        <time>2020-06-12T06:32:34Z</time>
      </trkpt>
      <trkpt lat="49.2389" lon="-1.61914">
        <ele>6.6</ele>
        <time>2020-06-12T06:32:35Z</time>
      </trkpt>
      <trkpt lat="49.23892" lon="-1.61923">
        <ele>6.6</ele>
        <time>2020-06-12T06:32:36Z</time>
      </trkpt>
      <trkpt lat="49.23897" lon="-1.61931">
        <ele>6.6</ele>
        <time>2020-06-12T06:32:37Z</time>
      </trkpt>
      <trkpt lat="49.239" lon="-1.61939">
        <ele>6.6</ele>
        <time>2020-06-12T06:32:38Z</time>
      </trkpt>
      <trkpt lat="49.23904" lon="-1.61947">
        <ele>6.6</ele>
        <time>2020-06-12T06:32:39Z</time>
      </trkpt>
      <trkpt lat="49.23907" lon="-1.61956">
        <ele>6.6</ele>
        <time>2020-06-12T06:32:40Z</time>
      </trkpt>
      <trkpt lat="49.23911" lon="-1.61965">
        <ele>6.5</ele>
        <time>2020-06-12T06:32:41Z</time>
      </trkpt>
      <trkpt lat="49.23914" lon="-1.61974">
        <ele>6.5</ele>
        <time>2020-06-12T06:32:42Z</time>
      </trkpt>
      <trkpt lat="49.23918" lon="-1.61982">
        <ele>6.5</ele>
        <time>2020-06-12T06:32:43Z</time>
      </trkpt>
      <trkpt lat="49.23922" lon="-1.6199">
        <ele>6.5</ele>
        <time>2020-06-12T06:32:44Z</time>
      </trkpt>
      <trkpt lat="49.23926" lon="-1.61999">
        <ele>6.5</ele>
        <time>2020-06-12T06:32:45Z</time>
      </trkpt>
      <trkpt lat="49.23931" lon="-1.62008">
        <ele>6.5</ele>
        <time>2020-06-12T06:32:46Z</time>
      </trkpt>
      <trkpt lat="49.23934" lon="-1.62015">
        <ele>6.5</ele>
        <time>2020-06-12T06:32:47Z</time>
      </trkpt>
      <trkpt lat="49.23938" lon="-1.62023">
        <ele>6.6</ele>
        <time>2020-06-12T06:32:48Z</time>
      </trkpt>
      <trkpt lat="49.23943" lon="-1.62032">
        <ele>6.7</ele>
        <time>2020-06-12T06:32:49Z</time>
      </trkpt>
      <trkpt lat="49.23947" lon="-1.62039">
        <ele>6.9</ele>
        <time>2020-06-12T06:32:50Z</time>
      </trkpt>
      <trkpt lat="49.23951" lon="-1.62047">
        <ele>7</ele>
        <time>2020-06-12T06:32:51Z</time>
      </trkpt>
      <trkpt lat="49.23955" lon="-1.62055">
        <ele>7</ele>
        <time>2020-06-12T06:32:52Z</time>
      </trkpt>
      <trkpt lat="49.2396" lon="-1.62063">
        <ele>7</ele>
        <time>2020-06-12T06:32:53Z</time>
      </trkpt>
      <trkpt lat="49.23965" lon="-1.6207">
        <ele>7</ele>
        <time>2020-06-12T06:32:54Z</time>
      </trkpt>
      <trkpt lat="49.23969" lon="-1.62079">
        <ele>7</ele>
        <time>2020-06-12T06:32:55Z</time>
      </trkpt>
      <trkpt lat="49.23974" lon="-1.62086">
        <ele>7.1</ele>
        <time>2020-06-12T06:32:56Z</time>
      </trkpt>
      <trkpt lat="49.23978" lon="-1.62094">
        <ele>7.1</ele>
        <time>2020-06-12T06:32:57Z</time>
      </trkpt>
      <trkpt lat="49.23982" lon="-1.62101">
        <ele>7.1</ele>
        <time>2020-06-12T06:32:58Z</time>
      </trkpt>
      <trkpt lat="49.23987" lon="-1.62108">
        <ele>7.2</ele>
        <time>2020-06-12T06:32:59Z</time>
      </trkpt>
      <trkpt lat="49.23992" lon="-1.62115">
        <ele>7.2</ele>
        <time>2020-06-12T06:33:00Z</time>
      </trkpt>
      <trkpt lat="49.23996" lon="-1.62121">
        <ele>7.2</ele>
        <time>2020-06-12T06:33:01Z</time>
      </trkpt>
      <trkpt lat="49.24001" lon="-1.62127">
        <ele>7.2</ele>
        <time>2020-06-12T06:33:02Z</time>
      </trkpt>
      <trkpt lat="49.24007" lon="-1.62133">
        <ele>7.2</ele>
        <time>2020-06-12T06:33:03Z</time>
      </trkpt>
      <trkpt lat="49.24011" lon="-1.6214">
        <ele>7.2</ele>
        <time>2020-06-12T06:33:04Z</time>
      </trkpt>
      <trkpt lat="49.24016" lon="-1.62146">
        <ele>7.2</ele>
        <time>2020-06-12T06:33:05Z</time>
      </trkpt>
      <trkpt lat="49.24021" lon="-1.62151">
        <ele>7.2</ele>
        <time>2020-06-12T06:33:06Z</time>
      </trkpt>
      <trkpt lat="49.24024" lon="-1.62156">
        <ele>7.3</ele>
        <time>2020-06-12T06:33:07Z</time>
      </trkpt>
      <trkpt lat="49.24028" lon="-1.62163">
        <ele>7.3</ele>
        <time>2020-06-12T06:33:08Z</time>
      </trkpt>
      <trkpt lat="49.24033" lon="-1.6217">
        <ele>7.3</ele>
        <time>2020-06-12T06:33:09Z</time>
      </trkpt>
      <trkpt lat="49.24038" lon="-1.62178">
        <ele>7.3</ele>
        <time>2020-06-12T06:33:10Z</time>
      </trkpt>
      <trkpt lat="49.24045" lon="-1.62184">
        <ele>7.3</ele>
        <time>2020-06-12T06:33:11Z</time>
      </trkpt>
      <trkpt lat="49.24049" lon="-1.62192">
        <ele>7.3</ele>
        <time>2020-06-12T06:33:12Z</time>
      </trkpt>
      <trkpt lat="49.24055" lon="-1.62199">
        <ele>7.3</ele>
        <time>2020-06-12T06:33:13Z</time>
      </trkpt>
      <trkpt lat="49.24059" lon="-1.62205">
        <ele>7.3</ele>
        <time>2020-06-12T06:33:14Z</time>
      </trkpt>
      <trkpt lat="49.24064" lon="-1.62212">
        <ele>7.3</ele>
        <time>2020-06-12T06:33:15Z</time>
      </trkpt>
      <trkpt lat="49.24069" lon="-1.62219">
        <ele>7.3</ele>
        <time>2020-06-12T06:33:16Z</time>
      </trkpt>
      <trkpt lat="49.24073" lon="-1.62226">
        <ele>7.3</ele>
        <time>2020-06-12T06:33:17Z</time>
      </trkpt>
      <trkpt lat="49.24078" lon="-1.62234">
        <ele>7.3</ele>
        <time>2020-06-12T06:33:18Z</time>
      </trkpt>
      <trkpt lat="49.24083" lon="-1.6224">
        <ele>7.3</ele>
        <time>2020-06-12T06:33:19Z</time>
      </trkpt>
      <trkpt lat="49.24087" lon="-1.62247">
        <ele>7.3</ele>
        <time>2020-06-12T06:33:20Z</time>
      </trkpt>
      <trkpt lat="49.24092" lon="-1.62254">
        <ele>7.4</ele>
        <time>2020-06-12T06:33:21Z</time>
      </trkpt>
      <trkpt lat="49.24097" lon="-1.62262">
        <ele>7.4</ele>
        <time>2020-06-12T06:33:22Z</time>
      </trkpt>
      <trkpt lat="49.24101" lon="-1.6227">
        <ele>7.4</ele>
        <time>2020-06-12T06:33:23Z</time>
      </trkpt>
      <trkpt lat="49.24106" lon="-1.62277">
        <ele>7.4</ele>
        <time>2020-06-12T06:33:24Z</time>
      </trkpt>
      <trkpt lat="49.24111" lon="-1.62284">
        <ele>7.4</ele>
        <time>2020-06-12T06:33:25Z</time>
      </trkpt>
      <trkpt lat="49.24116" lon="-1.62291">
        <ele>7.4</ele>
        <time>2020-06-12T06:33:26Z</time>
      </trkpt>
      <trkpt lat="49.24122" lon="-1.62298">
        <ele>7.5</ele>
        <time>2020-06-12T06:33:27Z</time>
      </trkpt>
      <trkpt lat="49.24126" lon="-1.62305">
        <ele>7.5</ele>
        <time>2020-06-12T06:33:28Z</time>
      </trkpt>
      <trkpt lat="49.2413" lon="-1.62311">
        <ele>7.5</ele>
        <time>2020-06-12T06:33:29Z</time>
      </trkpt>
      <trkpt lat="49.24135" lon="-1.62318">
        <ele>7.5</ele>
        <time>2020-06-12T06:33:30Z</time>
      </trkpt>
      <trkpt lat="49.2414" lon="-1.62324">
        <ele>7.6</ele>
        <time>2020-06-12T06:33:31Z</time>
      </trkpt>
      <trkpt lat="49.24144" lon="-1.62331">
        <ele>7.6</ele>
        <time>2020-06-12T06:33:32Z</time>
      </trkpt>
      <trkpt lat="49.24149" lon="-1.62338">
        <ele>7.6</ele>
        <time>2020-06-12T06:33:33Z</time>
      </trkpt>
      <trkpt lat="49.24153" lon="-1.62346">
        <ele>7.6</ele>
        <time>2020-06-12T06:33:34Z</time>
      </trkpt>
      <trkpt lat="49.24158" lon="-1.62352">
        <ele>7.6</ele>
        <time>2020-06-12T06:33:35Z</time>
      </trkpt>
      <trkpt lat="49.24163" lon="-1.62359">
        <ele>7.6</ele>
        <time>2020-06-12T06:33:36Z</time>
      </trkpt>
      <trkpt lat="49.24168" lon="-1.62365">
        <ele>7.5</ele>
        <time>2020-06-12T06:33:37Z</time>
      </trkpt>
      <trkpt lat="49.24172" lon="-1.6237">
        <ele>7.5</ele>
        <time>2020-06-12T06:33:38Z</time>
      </trkpt>
      <trkpt lat="49.24177" lon="-1.62377">
        <ele>7.6</ele>
        <time>2020-06-12T06:33:39Z</time>
      </trkpt>
      <trkpt lat="49.24182" lon="-1.62384">
        <ele>7.6</ele>
        <time>2020-06-12T06:33:40Z</time>
      </trkpt>
      <trkpt lat="49.24187" lon="-1.6239">
        <ele>7.6</ele>
        <time>2020-06-12T06:33:41Z</time>
      </trkpt>
      <trkpt lat="49.24191" lon="-1.62396">
        <ele>7.7</ele>
        <time>2020-06-12T06:33:42Z</time>
      </trkpt>
      <trkpt lat="49.24195" lon="-1.62403">
        <ele>7.7</ele>
        <time>2020-06-12T06:33:43Z</time>
      </trkpt>
      <trkpt lat="49.242" lon="-1.62409">
        <ele>7.7</ele>
        <time>2020-06-12T06:33:44Z</time>
      </trkpt>
      <trkpt lat="49.24204" lon="-1.62416">
        <ele>7.7</ele>
        <time>2020-06-12T06:33:45Z</time>
      </trkpt>
      <trkpt lat="49.24209" lon="-1.62423">
        <ele>7.7</ele>
        <time>2020-06-12T06:33:46Z</time>
      </trkpt>
      <trkpt lat="49.24213" lon="-1.62429">
        <ele>7.8</ele>
        <time>2020-06-12T06:33:47Z</time>
      </trkpt>
      <trkpt lat="49.24218" lon="-1.62435">
        <ele>7.8</ele>
        <time>2020-06-12T06:33:48Z</time>
      </trkpt>
      <trkpt lat="49.24222" lon="-1.6244">
        <ele>7.8</ele>
        <time>2020-06-12T06:33:49Z</time>
      </trkpt>
      <trkpt lat="49.24227" lon="-1.62447">
        <ele>7.8</ele>
        <time>2020-06-12T06:33:50Z</time>
      </trkpt>
      <trkpt lat="49.24231" lon="-1.62453">
        <ele>7.8</ele>
        <time>2020-06-12T06:33:51Z</time>
      </trkpt>
      <trkpt lat="49.24237" lon="-1.6246">
        <ele>7.8</ele>
        <time>2020-06-12T06:33:52Z</time>
      </trkpt>
      <trkpt lat="49.24241" lon="-1.62466">
        <ele>7.8</ele>
        <time>2020-06-12T06:33:53Z</time>
      </trkpt>
      <trkpt lat="49.24246" lon="-1.62471">
        <ele>7.8</ele>
        <time>2020-06-12T06:33:54Z</time>
      </trkpt>
      <trkpt lat="49.24251" lon="-1.62479">
        <ele>7.9</ele>
        <time>2020-06-12T06:33:55Z</time>
      </trkpt>
      <trkpt lat="49.24255" lon="-1.62485">
        <ele>7.9</ele>
        <time>2020-06-12T06:33:56Z</time>
      </trkpt>
      <trkpt lat="49.2426" lon="-1.62492">
        <ele>7.9</ele>
        <time>2020-06-12T06:33:57Z</time>
      </trkpt>
      <trkpt lat="49.24265" lon="-1.62499">
        <ele>8</ele>
        <time>2020-06-12T06:33:58Z</time>
      </trkpt>
      <trkpt lat="49.24268" lon="-1.62505">
        <ele>8</ele>
        <time>2020-06-12T06:33:59Z</time>
      </trkpt>
      <trkpt lat="49.24272" lon="-1.6251">
        <ele>8</ele>
        <time>2020-06-12T06:34:00Z</time>
      </trkpt>
      <trkpt lat="49.24275" lon="-1.62515">
        <ele>8</ele>
        <time>2020-06-12T06:34:01Z</time>
      </trkpt>
      <trkpt lat="49.24279" lon="-1.62522">
        <ele>8</ele>
        <time>2020-06-12T06:34:02Z</time>
      </trkpt>
      <trkpt lat="49.24283" lon="-1.62529">
        <ele>8</ele>
        <time>2020-06-12T06:34:03Z</time>
      </trkpt>
      <trkpt lat="49.24287" lon="-1.62536">
        <ele>8.1</ele>
        <time>2020-06-12T06:34:04Z</time>
      </trkpt>
      <trkpt lat="49.24292" lon="-1.62542">
        <ele>8.1</ele>
        <time>2020-06-12T06:34:05Z</time>
      </trkpt>
      <trkpt lat="49.24297" lon="-1.62548">
        <ele>8.1</ele>
        <time>2020-06-12T06:34:06Z</time>
      </trkpt>
      <trkpt lat="49.24302" lon="-1.62555">
        <ele>8.1</ele>
        <time>2020-06-12T06:34:07Z</time>
      </trkpt>
      <trkpt lat="49.24308" lon="-1.62562">
        <ele>8.1</ele>
        <time>2020-06-12T06:34:08Z</time>
      </trkpt>
      <trkpt lat="49.24313" lon="-1.6257">
        <ele>8.2</ele>
        <time>2020-06-12T06:34:09Z</time>
      </trkpt>
      <trkpt lat="49.24318" lon="-1.62576">
        <ele>8.2</ele>
        <time>2020-06-12T06:34:10Z</time>
      </trkpt>
      <trkpt lat="49.24323" lon="-1.62582">
        <ele>8.2</ele>
        <time>2020-06-12T06:34:11Z</time>
      </trkpt>
      <trkpt lat="49.24328" lon="-1.62589">
        <ele>8.2</ele>
        <time>2020-06-12T06:34:12Z</time>
      </trkpt>
      <trkpt lat="49.24333" lon="-1.62597">
        <ele>8.1</ele>
        <time>2020-06-12T06:34:13Z</time>
      </trkpt>
      <trkpt lat="49.24338" lon="-1.62604">
        <ele>8.1</ele>
        <time>2020-06-12T06:34:14Z</time>
      </trkpt>
      <trkpt lat="49.24342" lon="-1.6261">
        <ele>8.1</ele>
        <time>2020-06-12T06:34:15Z</time>
      </trkpt>
      <trkpt lat="49.24347" lon="-1.62617">
        <ele>8.1</ele>
        <time>2020-06-12T06:34:16Z</time>
      </trkpt>
      <trkpt lat="49.24351" lon="-1.62624">
        <ele>8.1</ele>
        <time>2020-06-12T06:34:17Z</time>
      </trkpt>
      <trkpt lat="49.24356" lon="-1.62632">
        <ele>8.1</ele>
        <time>2020-06-12T06:34:18Z</time>
      </trkpt>
      <trkpt lat="49.2436" lon="-1.62638">
        <ele>8.1</ele>
        <time>2020-06-12T06:34:19Z</time>
      </trkpt>
      <trkpt lat="49.24364" lon="-1.62645">
        <ele>8.1</ele>
        <time>2020-06-12T06:34:20Z</time>
      </trkpt>
      <trkpt lat="49.24368" lon="-1.62652">
        <ele>8.1</ele>
        <time>2020-06-12T06:34:21Z</time>
      </trkpt>
      <trkpt lat="49.24374" lon="-1.6266">
        <ele>8.1</ele>
        <time>2020-06-12T06:34:22Z</time>
      </trkpt>
      <trkpt lat="49.24378" lon="-1.62666">
        <ele>8.1</ele>
        <time>2020-06-12T06:34:23Z</time>
      </trkpt>
      <trkpt lat="49.24382" lon="-1.62671">
        <ele>8.1</ele>
        <time>2020-06-12T06:34:24Z</time>
      </trkpt>
      <trkpt lat="49.24386" lon="-1.62677">
        <ele>8.1</ele>
        <time>2020-06-12T06:34:25Z</time>
      </trkpt>
      <trkpt lat="49.2439" lon="-1.62684">
        <ele>8.1</ele>
        <time>2020-06-12T06:34:26Z</time>
      </trkpt>
      <trkpt lat="49.24395" lon="-1.62691">
        <ele>8.1</ele>
        <time>2020-06-12T06:34:27Z</time>
      </trkpt>
      <trkpt lat="49.244" lon="-1.62698">
        <ele>8</ele>
        <time>2020-06-12T06:34:28Z</time>
      </trkpt>
      <trkpt lat="49.24405" lon="-1.62705">
        <ele>8</ele>
        <time>2020-06-12T06:34:29Z</time>
      </trkpt>
      <trkpt lat="49.24409" lon="-1.62712">
        <ele>8</ele>
        <time>2020-06-12T06:34:30Z</time>
      </trkpt>
      <trkpt lat="49.24414" lon="-1.62719">
        <ele>8</ele>
        <time>2020-06-12T06:34:31Z</time>
      </trkpt>
      <trkpt lat="49.2442" lon="-1.62726">
        <ele>8.1</ele>
        <time>2020-06-12T06:34:32Z</time>
      </trkpt>
      <trkpt lat="49.24425" lon="-1.62734">
        <ele>8.2</ele>
        <time>2020-06-12T06:34:33Z</time>
      </trkpt>
      <trkpt lat="49.2443" lon="-1.62741">
        <ele>8.4</ele>
        <time>2020-06-12T06:34:34Z</time>
      </trkpt>
      <trkpt lat="49.24434" lon="-1.62746">
        <ele>8.4</ele>
        <time>2020-06-12T06:34:35Z</time>
      </trkpt>
      <trkpt lat="49.24439" lon="-1.62752">
        <ele>8.4</ele>
        <time>2020-06-12T06:34:36Z</time>
      </trkpt>
      <trkpt lat="49.24442" lon="-1.62758">
        <ele>8.4</ele>
        <time>2020-06-12T06:34:37Z</time>
      </trkpt>
      <trkpt lat="49.24448" lon="-1.62765">
        <ele>8.4</ele>
        <time>2020-06-12T06:34:38Z</time>
      </trkpt>
      <trkpt lat="49.24452" lon="-1.6277">
        <ele>8.4</ele>
        <time>2020-06-12T06:34:39Z</time>
      </trkpt>
      <trkpt lat="49.24456" lon="-1.62776">
        <ele>8.3</ele>
        <time>2020-06-12T06:34:40Z</time>
      </trkpt>
      <trkpt lat="49.24461" lon="-1.62783">
        <ele>8.3</ele>
        <time>2020-06-12T06:34:41Z</time>
      </trkpt>
      <trkpt lat="49.24465" lon="-1.62786">
        <ele>8.3</ele>
        <time>2020-06-12T06:34:42Z</time>
      </trkpt>
      <trkpt lat="49.24468" lon="-1.62791">
        <ele>8.3</ele>
        <time>2020-06-12T06:34:43Z</time>
      </trkpt>
      <trkpt lat="49.24474" lon="-1.62799">
        <ele>8.3</ele>
        <time>2020-06-12T06:34:44Z</time>
      </trkpt>
      <trkpt lat="49.24478" lon="-1.62805">
        <ele>8.3</ele>
        <time>2020-06-12T06:34:45Z</time>
      </trkpt>
      <trkpt lat="49.24482" lon="-1.62812">
        <ele>8.3</ele>
        <time>2020-06-12T06:34:46Z</time>
      </trkpt>
      <trkpt lat="49.24487" lon="-1.6282">
        <ele>8.2</ele>
        <time>2020-06-12T06:34:47Z</time>
      </trkpt>
      <trkpt lat="49.24492" lon="-1.62827">
        <ele>8.2</ele>
        <time>2020-06-12T06:34:48Z</time>
      </trkpt>
      <trkpt lat="49.24497" lon="-1.62836">
        <ele>8.2</ele>
        <time>2020-06-12T06:34:49Z</time>
      </trkpt>
      <trkpt lat="49.24503" lon="-1.62845">
        <ele>8.1</ele>
        <time>2020-06-12T06:34:50Z</time>
      </trkpt>
      <trkpt lat="49.24508" lon="-1.62854">
        <ele>8.1</ele>
        <time>2020-06-12T06:34:51Z</time>
      </trkpt>
      <trkpt lat="49.24513" lon="-1.62861">
        <ele>8</ele>
        <time>2020-06-12T06:34:52Z</time>
      </trkpt>
      <trkpt lat="49.24518" lon="-1.62869">
        <ele>8</ele>
        <time>2020-06-12T06:34:53Z</time>
      </trkpt>
      <trkpt lat="49.24522" lon="-1.62876">
        <ele>8</ele>
        <time>2020-06-12T06:34:54Z</time>
      </trkpt>
      <trkpt lat="49.24527" lon="-1.62883">
        <ele>8</ele>
        <time>2020-06-12T06:34:55Z</time>
      </trkpt>
      <trkpt lat="49.24532" lon="-1.62891">
        <ele>8</ele>
        <time>2020-06-12T06:34:56Z</time>
      </trkpt>
      <trkpt lat="49.24537" lon="-1.62898">
        <ele>8</ele>
        <time>2020-06-12T06:34:57Z</time>
      </trkpt>
      <trkpt lat="49.24542" lon="-1.62906">
        <ele>7.9</ele>
        <time>2020-06-12T06:34:58Z</time>
      </trkpt>
      <trkpt lat="49.24547" lon="-1.62913">
        <ele>7.9</ele>
        <time>2020-06-12T06:34:59Z</time>
      </trkpt>
      <trkpt lat="49.24551" lon="-1.62919">
        <ele>7.9</ele>
        <time>2020-06-12T06:35:00Z</time>
      </trkpt>
      <trkpt lat="49.24555" lon="-1.62926">
        <ele>7.8</ele>
        <time>2020-06-12T06:35:01Z</time>
      </trkpt>
      <trkpt lat="49.24559" lon="-1.62932">
        <ele>7.8</ele>
        <time>2020-06-12T06:35:02Z</time>
      </trkpt>
      <trkpt lat="49.24563" lon="-1.62938">
        <ele>7.8</ele>
        <time>2020-06-12T06:35:03Z</time>
      </trkpt>
      <trkpt lat="49.24568" lon="-1.62945">
        <ele>7.7</ele>
        <time>2020-06-12T06:35:04Z</time>
      </trkpt>
      <trkpt lat="49.24572" lon="-1.62951">
        <ele>7.7</ele>
        <time>2020-06-12T06:35:05Z</time>
      </trkpt>
      <trkpt lat="49.24577" lon="-1.62959">
        <ele>7.7</ele>
        <time>2020-06-12T06:35:06Z</time>
      </trkpt>
      <trkpt lat="49.24582" lon="-1.62966">
        <ele>7.6</ele>
        <time>2020-06-12T06:35:07Z</time>
      </trkpt>
      <trkpt lat="49.24586" lon="-1.62971">
        <ele>7.6</ele>
        <time>2020-06-12T06:35:08Z</time>
      </trkpt>
      <trkpt lat="49.24591" lon="-1.62977">
        <ele>7.6</ele>
        <time>2020-06-12T06:35:09Z</time>
      </trkpt>
      <trkpt lat="49.24595" lon="-1.62984">
        <ele>7.6</ele>
        <time>2020-06-12T06:35:10Z</time>
      </trkpt>
      <trkpt lat="49.24599" lon="-1.62991">
        <ele>7.5</ele>
        <time>2020-06-12T06:35:11Z</time>
      </trkpt>
      <trkpt lat="49.24604" lon="-1.62998">
        <ele>7.5</ele>
        <time>2020-06-12T06:35:12Z</time>
      </trkpt>
      <trkpt lat="49.24608" lon="-1.63003">
        <ele>7.5</ele>
        <time>2020-06-12T06:35:13Z</time>
      </trkpt>
      <trkpt lat="49.24613" lon="-1.6301">
        <ele>7.4</ele>
        <time>2020-06-12T06:35:14Z</time>
      </trkpt>
      <trkpt lat="49.24619" lon="-1.63018">
        <ele>7.4</ele>
        <time>2020-06-12T06:35:15Z</time>
      </trkpt>
      <trkpt lat="49.24623" lon="-1.63025">
        <ele>7.4</ele>
        <time>2020-06-12T06:35:16Z</time>
      </trkpt>
      <trkpt lat="49.24629" lon="-1.63033">
        <ele>7.3</ele>
        <time>2020-06-12T06:35:17Z</time>
      </trkpt>
      <trkpt lat="49.24634" lon="-1.63041">
        <ele>7.2</ele>
        <time>2020-06-12T06:35:18Z</time>
      </trkpt>
      <trkpt lat="49.24639" lon="-1.63047">
        <ele>7.2</ele>
        <time>2020-06-12T06:35:19Z</time>
      </trkpt>
      <trkpt lat="49.24643" lon="-1.63054">
        <ele>7.2</ele>
        <time>2020-06-12T06:35:20Z</time>
      </trkpt>
      <trkpt lat="49.24648" lon="-1.63061">
        <ele>7.2</ele>
        <time>2020-06-12T06:35:21Z</time>
      </trkpt>
      <trkpt lat="49.24652" lon="-1.63067">
        <ele>7.2</ele>
        <time>2020-06-12T06:35:22Z</time>
      </trkpt>
      <trkpt lat="49.24657" lon="-1.63074">
        <ele>7.2</ele>
        <time>2020-06-12T06:35:23Z</time>
      </trkpt>
      <trkpt lat="49.24662" lon="-1.6308">
        <ele>7.2</ele>
        <time>2020-06-12T06:35:24Z</time>
      </trkpt>
      <trkpt lat="49.24666" lon="-1.63087">
        <ele>7.1</ele>
        <time>2020-06-12T06:35:25Z</time>
      </trkpt>
      <trkpt lat="49.24672" lon="-1.63094">
        <ele>7.1</ele>
        <time>2020-06-12T06:35:26Z</time>
      </trkpt>
      <trkpt lat="49.24677" lon="-1.63102">
        <ele>7</ele>
        <time>2020-06-12T06:35:27Z</time>
      </trkpt>
      <trkpt lat="49.24682" lon="-1.63109">
        <ele>7</ele>
        <time>2020-06-12T06:35:28Z</time>
      </trkpt>
      <trkpt lat="49.24687" lon="-1.63116">
        <ele>7</ele>
        <time>2020-06-12T06:35:29Z</time>
      </trkpt>
      <trkpt lat="49.24691" lon="-1.63122">
        <ele>7</ele>
        <time>2020-06-12T06:35:30Z</time>
      </trkpt>
      <trkpt lat="49.24695" lon="-1.63128">
        <ele>7</ele>
        <time>2020-06-12T06:35:31Z</time>
      </trkpt>
      <trkpt lat="49.247" lon="-1.63135">
        <ele>7</ele>
        <time>2020-06-12T06:35:32Z</time>
      </trkpt>
      <trkpt lat="49.24704" lon="-1.63142">
        <ele>7.1</ele>
        <time>2020-06-12T06:35:33Z</time>
      </trkpt>
      <trkpt lat="49.24708" lon="-1.63149">
        <ele>7.1</ele>
        <time>2020-06-12T06:35:34Z</time>
      </trkpt>
      <trkpt lat="49.24712" lon="-1.63154">
        <ele>7.1</ele>
        <time>2020-06-12T06:35:35Z</time>
      </trkpt>
      <trkpt lat="49.24716" lon="-1.63159">
        <ele>7.1</ele>
        <time>2020-06-12T06:35:36Z</time>
      </trkpt>
      <trkpt lat="49.2472" lon="-1.63165">
        <ele>7.1</ele>
        <time>2020-06-12T06:35:37Z</time>
      </trkpt>
      <trkpt lat="49.24724" lon="-1.63171">
        <ele>7.1</ele>
        <time>2020-06-12T06:35:38Z</time>
      </trkpt>
      <trkpt lat="49.24728" lon="-1.63177">
        <ele>7.1</ele>
        <time>2020-06-12T06:35:39Z</time>
      </trkpt>
      <trkpt lat="49.24732" lon="-1.63183">
        <ele>7.1</ele>
        <time>2020-06-12T06:35:40Z</time>
      </trkpt>
      <trkpt lat="49.24736" lon="-1.63191">
        <ele>7.1</ele>
        <time>2020-06-12T06:35:41Z</time>
      </trkpt>
      <trkpt lat="49.24741" lon="-1.63198">
        <ele>7.1</ele>
        <time>2020-06-12T06:35:42Z</time>
      </trkpt>
      <trkpt lat="49.24747" lon="-1.63206">
        <ele>7.2</ele>
        <time>2020-06-12T06:35:43Z</time>
      </trkpt>
      <trkpt lat="49.24751" lon="-1.63211">
        <ele>7.2</ele>
        <time>2020-06-12T06:35:44Z</time>
      </trkpt>
      <trkpt lat="49.24755" lon="-1.63216">
        <ele>7.2</ele>
        <time>2020-06-12T06:35:45Z</time>
      </trkpt>
      <trkpt lat="49.24759" lon="-1.63224">
        <ele>7.2</ele>
        <time>2020-06-12T06:35:46Z</time>
      </trkpt>
      <trkpt lat="49.24763" lon="-1.63229">
        <ele>7.2</ele>
        <time>2020-06-12T06:35:47Z</time>
      </trkpt>
      <trkpt lat="49.24767" lon="-1.63235">
        <ele>7.2</ele>
        <time>2020-06-12T06:35:48Z</time>
      </trkpt>
      <trkpt lat="49.24771" lon="-1.63242">
        <ele>7.2</ele>
        <time>2020-06-12T06:35:49Z</time>
      </trkpt>
      <trkpt lat="49.24776" lon="-1.63248">
        <ele>7.2</ele>
        <time>2020-06-12T06:35:50Z</time>
      </trkpt>
      <trkpt lat="49.24781" lon="-1.63256">
        <ele>7.3</ele>
        <time>2020-06-12T06:35:51Z</time>
      </trkpt>
      <trkpt lat="49.24786" lon="-1.63261">
        <ele>7.3</ele>
        <time>2020-06-12T06:35:52Z</time>
      </trkpt>
      <trkpt lat="49.2479" lon="-1.63268">
        <ele>7.3</ele>
        <time>2020-06-12T06:35:53Z</time>
      </trkpt>
      <trkpt lat="49.24795" lon="-1.63276">
        <ele>7.2</ele>
        <time>2020-06-12T06:35:54Z</time>
      </trkpt>
      <trkpt lat="49.24801" lon="-1.63282">
        <ele>7.2</ele>
        <time>2020-06-12T06:35:55Z</time>
      </trkpt>
      <trkpt lat="49.24805" lon="-1.63287">
        <ele>7.2</ele>
        <time>2020-06-12T06:35:56Z</time>
      </trkpt>
      <trkpt lat="49.24809" lon="-1.63294">
        <ele>7.2</ele>
        <time>2020-06-12T06:35:57Z</time>
      </trkpt>
      <trkpt lat="49.24812" lon="-1.63301">
        <ele>7.2</ele>
        <time>2020-06-12T06:35:58Z</time>
      </trkpt>
      <trkpt lat="49.24816" lon="-1.63307">
        <ele>7.2</ele>
        <time>2020-06-12T06:35:59Z</time>
      </trkpt>
      <trkpt lat="49.2482" lon="-1.63313">
        <ele>7.3</ele>
        <time>2020-06-12T06:36:00Z</time>
      </trkpt>
      <trkpt lat="49.24825" lon="-1.6332">
        <ele>7.3</ele>
        <time>2020-06-12T06:36:01Z</time>
      </trkpt>
      <trkpt lat="49.2483" lon="-1.63328">
        <ele>7.3</ele>
        <time>2020-06-12T06:36:02Z</time>
      </trkpt>
      <trkpt lat="49.24834" lon="-1.63335">
        <ele>7.4</ele>
        <time>2020-06-12T06:36:03Z</time>
      </trkpt>
      <trkpt lat="49.24839" lon="-1.63339">
        <ele>7.4</ele>
        <time>2020-06-12T06:36:04Z</time>
      </trkpt>
      <trkpt lat="49.24843" lon="-1.63345">
        <ele>7.4</ele>
        <time>2020-06-12T06:36:05Z</time>
      </trkpt>
      <trkpt lat="49.24847" lon="-1.63352">
        <ele>7.5</ele>
        <time>2020-06-12T06:36:06Z</time>
      </trkpt>
      <trkpt lat="49.24852" lon="-1.63359">
        <ele>7.6</ele>
        <time>2020-06-12T06:36:07Z</time>
      </trkpt>
      <trkpt lat="49.24858" lon="-1.63366">
        <ele>7.7</ele>
        <time>2020-06-12T06:36:08Z</time>
      </trkpt>
      <trkpt lat="49.24863" lon="-1.63373">
        <ele>7.9</ele>
        <time>2020-06-12T06:36:09Z</time>
      </trkpt>
      <trkpt lat="49.24867" lon="-1.63379">
        <ele>8</ele>
        <time>2020-06-12T06:36:10Z</time>
      </trkpt>
      <trkpt lat="49.24871" lon="-1.63386">
        <ele>8.2</ele>
        <time>2020-06-12T06:36:11Z</time>
      </trkpt>
      <trkpt lat="49.24875" lon="-1.63392">
        <ele>8.2</ele>
        <time>2020-06-12T06:36:12Z</time>
      </trkpt>
      <trkpt lat="49.24879" lon="-1.63397">
        <ele>8.3</ele>
        <time>2020-06-12T06:36:13Z</time>
      </trkpt>
      <trkpt lat="49.24883" lon="-1.63403">
        <ele>8.3</ele>
        <time>2020-06-12T06:36:14Z</time>
      </trkpt>
      <trkpt lat="49.24888" lon="-1.6341">
        <ele>8.3</ele>
        <time>2020-06-12T06:36:15Z</time>
      </trkpt>
      <trkpt lat="49.24892" lon="-1.63418">
        <ele>8.3</ele>
        <time>2020-06-12T06:36:16Z</time>
      </trkpt>
      <trkpt lat="49.24896" lon="-1.63424">
        <ele>8.3</ele>
        <time>2020-06-12T06:36:17Z</time>
      </trkpt>
      <trkpt lat="49.249" lon="-1.6343">
        <ele>8.4</ele>
        <time>2020-06-12T06:36:18Z</time>
      </trkpt>
      <trkpt lat="49.24904" lon="-1.63438">
        <ele>8.4</ele>
        <time>2020-06-12T06:36:19Z</time>
      </trkpt>
      <trkpt lat="49.24908" lon="-1.63442">
        <ele>8.4</ele>
        <time>2020-06-12T06:36:20Z</time>
      </trkpt>
      <trkpt lat="49.24912" lon="-1.63449">
        <ele>8.5</ele>
        <time>2020-06-12T06:36:21Z</time>
      </trkpt>
      <trkpt lat="49.24917" lon="-1.63455">
        <ele>8.5</ele>
        <time>2020-06-12T06:36:22Z</time>
      </trkpt>
      <trkpt lat="49.24921" lon="-1.6346">
        <ele>8.5</ele>
        <time>2020-06-12T06:36:23Z</time>
      </trkpt>
      <trkpt lat="49.24926" lon="-1.63467">
        <ele>8.5</ele>
        <time>2020-06-12T06:36:24Z</time>
      </trkpt>
      <trkpt lat="49.2493" lon="-1.63474">
        <ele>8.5</ele>
        <time>2020-06-12T06:36:25Z</time>
      </trkpt>
      <trkpt lat="49.24934" lon="-1.63479">
        <ele>8.6</ele>
        <time>2020-06-12T06:36:26Z</time>
      </trkpt>
      <trkpt lat="49.24938" lon="-1.63485">
        <ele>8.6</ele>
        <time>2020-06-12T06:36:27Z</time>
      </trkpt>
      <trkpt lat="49.24943" lon="-1.6349">
        <ele>8.6</ele>
        <time>2020-06-12T06:36:28Z</time>
      </trkpt>
      <trkpt lat="49.24947" lon="-1.63495">
        <ele>8.6</ele>
        <time>2020-06-12T06:36:29Z</time>
      </trkpt>
      <trkpt lat="49.24952" lon="-1.63501">
        <ele>8.6</ele>
        <time>2020-06-12T06:36:30Z</time>
      </trkpt>
      <trkpt lat="49.24956" lon="-1.63507">
        <ele>8.7</ele>
        <time>2020-06-12T06:36:31Z</time>
      </trkpt>
      <trkpt lat="49.24961" lon="-1.63513">
        <ele>8.7</ele>
        <time>2020-06-12T06:36:32Z</time>
      </trkpt>
      <trkpt lat="49.24966" lon="-1.63518">
        <ele>8.7</ele>
        <time>2020-06-12T06:36:33Z</time>
      </trkpt>
      <trkpt lat="49.24969" lon="-1.63522">
        <ele>8.7</ele>
        <time>2020-06-12T06:36:34Z</time>
      </trkpt>
      <trkpt lat="49.24975" lon="-1.63528">
        <ele>8.7</ele>
        <time>2020-06-12T06:36:35Z</time>
      </trkpt>
      <trkpt lat="49.2498" lon="-1.63534">
        <ele>8.7</ele>
        <time>2020-06-12T06:36:36Z</time>
      </trkpt>
      <trkpt lat="49.24984" lon="-1.63539">
        <ele>8.7</ele>
        <time>2020-06-12T06:36:37Z</time>
      </trkpt>
      <trkpt lat="49.24988" lon="-1.63544">
        <ele>8.8</ele>
        <time>2020-06-12T06:36:38Z</time>
      </trkpt>
      <trkpt lat="49.24993" lon="-1.63549">
        <ele>8.8</ele>
        <time>2020-06-12T06:36:39Z</time>
      </trkpt>
      <trkpt lat="49.24997" lon="-1.63554">
        <ele>8.8</ele>
        <time>2020-06-12T06:36:40Z</time>
      </trkpt>
      <trkpt lat="49.25" lon="-1.63559">
        <ele>8.8</ele>
        <time>2020-06-12T06:36:41Z</time>
      </trkpt>
      <trkpt lat="49.25007" lon="-1.63562">
        <ele>8.8</ele>
        <time>2020-06-12T06:36:42Z</time>
      </trkpt>
      <trkpt lat="49.25012" lon="-1.63567">
        <ele>8.8</ele>
        <time>2020-06-12T06:36:43Z</time>
      </trkpt>
      <trkpt lat="49.25018" lon="-1.63573">
        <ele>8.9</ele>
        <time>2020-06-12T06:36:44Z</time>
      </trkpt>
      <trkpt lat="49.25023" lon="-1.63579">
        <ele>8.9</ele>
        <time>2020-06-12T06:36:45Z</time>
      </trkpt>
      <trkpt lat="49.25028" lon="-1.63585">
        <ele>8.9</ele>
        <time>2020-06-12T06:36:46Z</time>
      </trkpt>
      <trkpt lat="49.25032" lon="-1.6359">
        <ele>8.9</ele>
        <time>2020-06-12T06:36:47Z</time>
      </trkpt>
      <trkpt lat="49.25037" lon="-1.63595">
        <ele>8.9</ele>
        <time>2020-06-12T06:36:48Z</time>
      </trkpt>
      <trkpt lat="49.25042" lon="-1.63599">
        <ele>8.9</ele>
        <time>2020-06-12T06:36:49Z</time>
      </trkpt>
      <trkpt lat="49.25047" lon="-1.63603">
        <ele>8.9</ele>
        <time>2020-06-12T06:36:50Z</time>
      </trkpt>
      <trkpt lat="49.25051" lon="-1.63609">
        <ele>8.9</ele>
        <time>2020-06-12T06:36:51Z</time>
      </trkpt>
      <trkpt lat="49.25057" lon="-1.63613">
        <ele>8.9</ele>
        <time>2020-06-12T06:36:52Z</time>
      </trkpt>
      <trkpt lat="49.25062" lon="-1.63617">
        <ele>8.9</ele>
        <time>2020-06-12T06:36:53Z</time>
      </trkpt>
      <trkpt lat="49.25067" lon="-1.63622">
        <ele>8.9</ele>
        <time>2020-06-12T06:36:54Z</time>
      </trkpt>
      <trkpt lat="49.25073" lon="-1.63626">
        <ele>8.9</ele>
        <time>2020-06-12T06:36:55Z</time>
      </trkpt>
      <trkpt lat="49.2508" lon="-1.63629">
        <ele>8.9</ele>
        <time>2020-06-12T06:36:56Z</time>
      </trkpt>
      <trkpt lat="49.25086" lon="-1.63633">
        <ele>9</ele>
        <time>2020-06-12T06:36:57Z</time>
      </trkpt>
      <trkpt lat="49.2509" lon="-1.63638">
        <ele>9</ele>
        <time>2020-06-12T06:36:58Z</time>
      </trkpt>
      <trkpt lat="49.25097" lon="-1.63643">
        <ele>9</ele>
        <time>2020-06-12T06:36:59Z</time>
      </trkpt>
      <trkpt lat="49.25102" lon="-1.63647">
        <ele>9.1</ele>
        <time>2020-06-12T06:37:00Z</time>
      </trkpt>
      <trkpt lat="49.25107" lon="-1.63652">
        <ele>9.1</ele>
        <time>2020-06-12T06:37:01Z</time>
      </trkpt>
      <trkpt lat="49.25112" lon="-1.63656">
        <ele>9.1</ele>
        <time>2020-06-12T06:37:02Z</time>
      </trkpt>
      <trkpt lat="49.25117" lon="-1.6366">
        <ele>9.1</ele>
        <time>2020-06-12T06:37:03Z</time>
      </trkpt>
      <trkpt lat="49.25122" lon="-1.63663">
        <ele>9.2</ele>
        <time>2020-06-12T06:37:04Z</time>
      </trkpt>
      <trkpt lat="49.25128" lon="-1.63667">
        <ele>9.2</ele>
        <time>2020-06-12T06:37:05Z</time>
      </trkpt>
      <trkpt lat="49.25132" lon="-1.6367">
        <ele>9.2</ele>
        <time>2020-06-12T06:37:06Z</time>
      </trkpt>
      <trkpt lat="49.25138" lon="-1.63673">
        <ele>9.2</ele>
        <time>2020-06-12T06:37:07Z</time>
      </trkpt>
      <trkpt lat="49.25143" lon="-1.63676">
        <ele>9.2</ele>
        <time>2020-06-12T06:37:08Z</time>
      </trkpt>
      <trkpt lat="49.25149" lon="-1.63679">
        <ele>9.2</ele>
        <time>2020-06-12T06:37:09Z</time>
      </trkpt>
      <trkpt lat="49.25155" lon="-1.63684">
        <ele>9.2</ele>
        <time>2020-06-12T06:37:10Z</time>
      </trkpt>
      <trkpt lat="49.2516" lon="-1.63687">
        <ele>9.2</ele>
        <time>2020-06-12T06:37:11Z</time>
      </trkpt>
      <trkpt lat="49.25166" lon="-1.6369">
        <ele>9.2</ele>
        <time>2020-06-12T06:37:12Z</time>
      </trkpt>
      <trkpt lat="49.25172" lon="-1.63694">
        <ele>9.2</ele>
        <time>2020-06-12T06:37:13Z</time>
      </trkpt>
      <trkpt lat="49.25178" lon="-1.63697">
        <ele>9.2</ele>
        <time>2020-06-12T06:37:14Z</time>
      </trkpt>
      <trkpt lat="49.25184" lon="-1.637">
        <ele>9.1</ele>
        <time>2020-06-12T06:37:15Z</time>
      </trkpt>
      <trkpt lat="49.25189" lon="-1.63703">
        <ele>9.1</ele>
        <time>2020-06-12T06:37:16Z</time>
      </trkpt>
      <trkpt lat="49.25195" lon="-1.63706">
        <ele>9.1</ele>
        <time>2020-06-12T06:37:17Z</time>
      </trkpt>
      <trkpt lat="49.25201" lon="-1.63709">
        <ele>9.1</ele>
        <time>2020-06-12T06:37:18Z</time>
      </trkpt>
      <trkpt lat="49.25206" lon="-1.63712">
        <ele>9.1</ele>
        <time>2020-06-12T06:37:19Z</time>
      </trkpt>
      <trkpt lat="49.25213" lon="-1.63716">
        <ele>9</ele>
        <time>2020-06-12T06:37:20Z</time>
      </trkpt>
      <trkpt lat="49.2522" lon="-1.63719">
        <ele>9</ele>
        <time>2020-06-12T06:37:21Z</time>
      </trkpt>
      <trkpt lat="49.25227" lon="-1.63722">
        <ele>9</ele>
        <time>2020-06-12T06:37:22Z</time>
      </trkpt>
      <trkpt lat="49.25233" lon="-1.63726">
        <ele>8.9</ele>
        <time>2020-06-12T06:37:23Z</time>
      </trkpt>
      <trkpt lat="49.2524" lon="-1.63728">
        <ele>8.9</ele>
        <time>2020-06-12T06:37:24Z</time>
      </trkpt>
      <trkpt lat="49.25244" lon="-1.63731">
        <ele>8.9</ele>
        <time>2020-06-12T06:37:25Z</time>
      </trkpt>
      <trkpt lat="49.2525" lon="-1.63733">
        <ele>8.9</ele>
        <time>2020-06-12T06:37:26Z</time>
      </trkpt>
      <trkpt lat="49.25256" lon="-1.63735">
        <ele>8.8</ele>
        <time>2020-06-12T06:37:27Z</time>
      </trkpt>
      <trkpt lat="49.25262" lon="-1.63738">
        <ele>8.8</ele>
        <time>2020-06-12T06:37:28Z</time>
      </trkpt>
      <trkpt lat="49.25268" lon="-1.63741">
        <ele>8.8</ele>
        <time>2020-06-12T06:37:29Z</time>
      </trkpt>
      <trkpt lat="49.25274" lon="-1.63744">
        <ele>8.8</ele>
        <time>2020-06-12T06:37:30Z</time>
      </trkpt>
      <trkpt lat="49.25279" lon="-1.63746">
        <ele>8.8</ele>
        <time>2020-06-12T06:37:31Z</time>
      </trkpt>
      <trkpt lat="49.25285" lon="-1.63748">
        <ele>8.7</ele>
        <time>2020-06-12T06:37:32Z</time>
      </trkpt>
      <trkpt lat="49.25291" lon="-1.6375">
        <ele>8.7</ele>
        <time>2020-06-12T06:37:33Z</time>
      </trkpt>
      <trkpt lat="49.25297" lon="-1.63752">
        <ele>8.7</ele>
        <time>2020-06-12T06:37:34Z</time>
      </trkpt>
      <trkpt lat="49.25303" lon="-1.63755">
        <ele>8.6</ele>
        <time>2020-06-12T06:37:35Z</time>
      </trkpt>
      <trkpt lat="49.25309" lon="-1.63758">
        <ele>8.6</ele>
        <time>2020-06-12T06:37:36Z</time>
      </trkpt>
      <trkpt lat="49.25316" lon="-1.63762">
        <ele>8.6</ele>
        <time>2020-06-12T06:37:37Z</time>
      </trkpt>
      <trkpt lat="49.25323" lon="-1.63766">
        <ele>8.5</ele>
        <time>2020-06-12T06:37:38Z</time>
      </trkpt>
      <trkpt lat="49.2533" lon="-1.63768">
        <ele>8.5</ele>
        <time>2020-06-12T06:37:39Z</time>
      </trkpt>
      <trkpt lat="49.25335" lon="-1.63772">
        <ele>8.5</ele>
        <time>2020-06-12T06:37:40Z</time>
      </trkpt>
      <trkpt lat="49.25341" lon="-1.63775">
        <ele>8.5</ele>
        <time>2020-06-12T06:37:41Z</time>
      </trkpt>
      <trkpt lat="49.25347" lon="-1.63778">
        <ele>8.5</ele>
        <time>2020-06-12T06:37:42Z</time>
      </trkpt>
      <trkpt lat="49.25352" lon="-1.63781">
        <ele>8.5</ele>
        <time>2020-06-12T06:37:43Z</time>
      </trkpt>
      <trkpt lat="49.25358" lon="-1.63784">
        <ele>8.4</ele>
        <time>2020-06-12T06:37:44Z</time>
      </trkpt>
      <trkpt lat="49.25365" lon="-1.63787">
        <ele>8.4</ele>
        <time>2020-06-12T06:37:45Z</time>
      </trkpt>
      <trkpt lat="49.25371" lon="-1.6379">
        <ele>8.4</ele>
        <time>2020-06-12T06:37:46Z</time>
      </trkpt>
      <trkpt lat="49.2538" lon="-1.63793">
        <ele>8.4</ele>
        <time>2020-06-12T06:37:47Z</time>
      </trkpt>
      <trkpt lat="49.25387" lon="-1.63797">
        <ele>8.3</ele>
        <time>2020-06-12T06:37:48Z</time>
      </trkpt>
      <trkpt lat="49.2539" lon="-1.63799">
        <ele>8.2</ele>
        <time>2020-06-12T06:37:49Z</time>
      </trkpt>
      <trkpt lat="49.25396" lon="-1.63802">
        <ele>8.2</ele>
        <time>2020-06-12T06:37:50Z</time>
      </trkpt>
      <trkpt lat="49.25403" lon="-1.63804">
        <ele>8.1</ele>
        <time>2020-06-12T06:37:51Z</time>
      </trkpt>
      <trkpt lat="49.2541" lon="-1.63806">
        <ele>8.1</ele>
        <time>2020-06-12T06:37:52Z</time>
      </trkpt>
      <trkpt lat="49.25417" lon="-1.63808">
        <ele>8.1</ele>
        <time>2020-06-12T06:37:53Z</time>
      </trkpt>
      <trkpt lat="49.25424" lon="-1.63811">
        <ele>8.1</ele>
        <time>2020-06-12T06:37:54Z</time>
      </trkpt>
      <trkpt lat="49.25431" lon="-1.63814">
        <ele>8.2</ele>
        <time>2020-06-12T06:37:55Z</time>
      </trkpt>
      <trkpt lat="49.25438" lon="-1.63817">
        <ele>8.2</ele>
        <time>2020-06-12T06:37:56Z</time>
      </trkpt>
      <trkpt lat="49.25444" lon="-1.63819">
        <ele>8.2</ele>
        <time>2020-06-12T06:37:57Z</time>
      </trkpt>
      <trkpt lat="49.2545" lon="-1.63822">
        <ele>8.2</ele>
        <time>2020-06-12T06:37:58Z</time>
      </trkpt>
      <trkpt lat="49.25457" lon="-1.63825">
        <ele>8.2</ele>
        <time>2020-06-12T06:37:59Z</time>
      </trkpt>
      <trkpt lat="49.25463" lon="-1.63829">
        <ele>8.2</ele>
        <time>2020-06-12T06:38:00Z</time>
      </trkpt>
      <trkpt lat="49.25469" lon="-1.63832">
        <ele>8.3</ele>
        <time>2020-06-12T06:38:01Z</time>
      </trkpt>
      <trkpt lat="49.25476" lon="-1.63834">
        <ele>8.3</ele>
        <time>2020-06-12T06:38:02Z</time>
      </trkpt>
      <trkpt lat="49.25482" lon="-1.63837">
        <ele>8.3</ele>
        <time>2020-06-12T06:38:03Z</time>
      </trkpt>
      <trkpt lat="49.25488" lon="-1.6384">
        <ele>8.2</ele>
        <time>2020-06-12T06:38:04Z</time>
      </trkpt>
      <trkpt lat="49.25494" lon="-1.63843">
        <ele>8.2</ele>
        <time>2020-06-12T06:38:05Z</time>
      </trkpt>
      <trkpt lat="49.255" lon="-1.63846">
        <ele>8</ele>
        <time>2020-06-12T06:38:06Z</time>
      </trkpt>
      <trkpt lat="49.25507" lon="-1.63849">
        <ele>7.9</ele>
        <time>2020-06-12T06:38:07Z</time>
      </trkpt>
      <trkpt lat="49.25512" lon="-1.63853">
        <ele>7.8</ele>
        <time>2020-06-12T06:38:08Z</time>
      </trkpt>
      <trkpt lat="49.25518" lon="-1.63857">
        <ele>7.7</ele>
        <time>2020-06-12T06:38:09Z</time>
      </trkpt>
      <trkpt lat="49.25524" lon="-1.6386">
        <ele>7.7</ele>
        <time>2020-06-12T06:38:10Z</time>
      </trkpt>
      <trkpt lat="49.2553" lon="-1.63864">
        <ele>7.7</ele>
        <time>2020-06-12T06:38:11Z</time>
      </trkpt>
      <trkpt lat="49.25535" lon="-1.63867">
        <ele>7.6</ele>
        <time>2020-06-12T06:38:12Z</time>
      </trkpt>
      <trkpt lat="49.25541" lon="-1.63871">
        <ele>7.6</ele>
        <time>2020-06-12T06:38:13Z</time>
      </trkpt>
      <trkpt lat="49.25547" lon="-1.63874">
        <ele>7.6</ele>
        <time>2020-06-12T06:38:14Z</time>
      </trkpt>
      <trkpt lat="49.25553" lon="-1.63878">
        <ele>7.6</ele>
        <time>2020-06-12T06:38:15Z</time>
      </trkpt>
      <trkpt lat="49.25558" lon="-1.63882">
        <ele>7.6</ele>
        <time>2020-06-12T06:38:16Z</time>
      </trkpt>
      <trkpt lat="49.25564" lon="-1.63885">
        <ele>7.6</ele>
        <time>2020-06-12T06:38:17Z</time>
      </trkpt>
      <trkpt lat="49.2557" lon="-1.63889">
        <ele>7.6</ele>
        <time>2020-06-12T06:38:18Z</time>
      </trkpt>
      <trkpt lat="49.25576" lon="-1.63894">
        <ele>7.6</ele>
        <time>2020-06-12T06:38:19Z</time>
      </trkpt>
      <trkpt lat="49.25582" lon="-1.63898">
        <ele>7.6</ele>
        <time>2020-06-12T06:38:20Z</time>
      </trkpt>
      <trkpt lat="49.25588" lon="-1.63902">
        <ele>7.6</ele>
        <time>2020-06-12T06:38:21Z</time>
      </trkpt>
      <trkpt lat="49.25593" lon="-1.63905">
        <ele>7.6</ele>
        <time>2020-06-12T06:38:22Z</time>
      </trkpt>
      <trkpt lat="49.25598" lon="-1.63909">
        <ele>7.6</ele>
        <time>2020-06-12T06:38:23Z</time>
      </trkpt>
      <trkpt lat="49.25603" lon="-1.63913">
        <ele>7.6</ele>
        <time>2020-06-12T06:38:24Z</time>
      </trkpt>
      <trkpt lat="49.25609" lon="-1.63916">
        <ele>7.6</ele>
        <time>2020-06-12T06:38:25Z</time>
      </trkpt>
      <trkpt lat="49.25615" lon="-1.6392">
        <ele>7.6</ele>
        <time>2020-06-12T06:38:26Z</time>
      </trkpt>
      <trkpt lat="49.25621" lon="-1.63923">
        <ele>7.6</ele>
        <time>2020-06-12T06:38:27Z</time>
      </trkpt>
      <trkpt lat="49.25627" lon="-1.63927">
        <ele>7.7</ele>
        <time>2020-06-12T06:38:28Z</time>
      </trkpt>
      <trkpt lat="49.25634" lon="-1.63932">
        <ele>7.7</ele>
        <time>2020-06-12T06:38:29Z</time>
      </trkpt>
      <trkpt lat="49.2564" lon="-1.63937">
        <ele>7.7</ele>
        <time>2020-06-12T06:38:30Z</time>
      </trkpt>
      <trkpt lat="49.25646" lon="-1.6394">
        <ele>7.7</ele>
        <time>2020-06-12T06:38:31Z</time>
      </trkpt>
      <trkpt lat="49.25651" lon="-1.63943">
        <ele>7.7</ele>
        <time>2020-06-12T06:38:32Z</time>
      </trkpt>
      <trkpt lat="49.25656" lon="-1.63946">
        <ele>7.8</ele>
        <time>2020-06-12T06:38:33Z</time>
      </trkpt>
      <trkpt lat="49.25661" lon="-1.63949">
        <ele>7.8</ele>
        <time>2020-06-12T06:38:34Z</time>
      </trkpt>
      <trkpt lat="49.25666" lon="-1.63954">
        <ele>7.8</ele>
        <time>2020-06-12T06:38:35Z</time>
      </trkpt>
      <trkpt lat="49.25672" lon="-1.63957">
        <ele>7.8</ele>
        <time>2020-06-12T06:38:36Z</time>
      </trkpt>
      <trkpt lat="49.25678" lon="-1.63962">
        <ele>7.8</ele>
        <time>2020-06-12T06:38:37Z</time>
      </trkpt>
      <trkpt lat="49.25684" lon="-1.63967">
        <ele>7.9</ele>
        <time>2020-06-12T06:38:38Z</time>
      </trkpt>
      <trkpt lat="49.25689" lon="-1.6397">
        <ele>7.9</ele>
        <time>2020-06-12T06:38:39Z</time>
      </trkpt>
      <trkpt lat="49.25694" lon="-1.63974">
        <ele>7.9</ele>
        <time>2020-06-12T06:38:40Z</time>
      </trkpt>
      <trkpt lat="49.257" lon="-1.63978">
        <ele>8</ele>
        <time>2020-06-12T06:38:41Z</time>
      </trkpt>
      <trkpt lat="49.25706" lon="-1.63982">
        <ele>8</ele>
        <time>2020-06-12T06:38:42Z</time>
      </trkpt>
      <trkpt lat="49.25711" lon="-1.63985">
        <ele>8.1</ele>
        <time>2020-06-12T06:38:43Z</time>
      </trkpt>
      <trkpt lat="49.25716" lon="-1.6399">
        <ele>8.2</ele>
        <time>2020-06-12T06:38:44Z</time>
      </trkpt>
      <trkpt lat="49.25723" lon="-1.63994">
        <ele>8.4</ele>
        <time>2020-06-12T06:38:45Z</time>
      </trkpt>
      <trkpt lat="49.2573" lon="-1.64001">
        <ele>8.2</ele>
        <time>2020-06-12T06:38:46Z</time>
      </trkpt>
      <trkpt lat="49.25736" lon="-1.64006">
        <ele>8.2</ele>
        <time>2020-06-12T06:38:47Z</time>
      </trkpt>
      <trkpt lat="49.25742" lon="-1.6401">
        <ele>8.2</ele>
        <time>2020-06-12T06:38:48Z</time>
      </trkpt>
      <trkpt lat="49.25748" lon="-1.64014">
        <ele>8.2</ele>
        <time>2020-06-12T06:38:49Z</time>
      </trkpt>
      <trkpt lat="49.25753" lon="-1.64017">
        <ele>8.2</ele>
        <time>2020-06-12T06:38:50Z</time>
      </trkpt>
      <trkpt lat="49.25758" lon="-1.64021">
        <ele>8.2</ele>
        <time>2020-06-12T06:38:51Z</time>
      </trkpt>
      <trkpt lat="49.25764" lon="-1.64025">
        <ele>8.2</ele>
        <time>2020-06-12T06:38:52Z</time>
      </trkpt>
      <trkpt lat="49.25769" lon="-1.64027">
        <ele>8.2</ele>
        <time>2020-06-12T06:38:53Z</time>
      </trkpt>
      <trkpt lat="49.25776" lon="-1.64031">
        <ele>8.2</ele>
        <time>2020-06-12T06:38:54Z</time>
      </trkpt>
      <trkpt lat="49.25782" lon="-1.64034">
        <ele>8.2</ele>
        <time>2020-06-12T06:38:55Z</time>
      </trkpt>
      <trkpt lat="49.25787" lon="-1.64037">
        <ele>8.2</ele>
        <time>2020-06-12T06:38:56Z</time>
      </trkpt>
      <trkpt lat="49.25794" lon="-1.64042">
        <ele>8.2</ele>
        <time>2020-06-12T06:38:57Z</time>
      </trkpt>
      <trkpt lat="49.25799" lon="-1.64046">
        <ele>8.2</ele>
        <time>2020-06-12T06:38:58Z</time>
      </trkpt>
      <trkpt lat="49.25804" lon="-1.64051">
        <ele>8.2</ele>
        <time>2020-06-12T06:38:59Z</time>
      </trkpt>
      <trkpt lat="49.25809" lon="-1.64056">
        <ele>8.2</ele>
        <time>2020-06-12T06:39:00Z</time>
      </trkpt>
      <trkpt lat="49.25814" lon="-1.6406">
        <ele>8.2</ele>
        <time>2020-06-12T06:39:01Z</time>
      </trkpt>
      <trkpt lat="49.2582" lon="-1.64065">
        <ele>8.2</ele>
        <time>2020-06-12T06:39:02Z</time>
      </trkpt>
      <trkpt lat="49.25826" lon="-1.6407">
        <ele>8.2</ele>
        <time>2020-06-12T06:39:03Z</time>
      </trkpt>
      <trkpt lat="49.25831" lon="-1.64074">
        <ele>8.2</ele>
        <time>2020-06-12T06:39:04Z</time>
      </trkpt>
      <trkpt lat="49.25836" lon="-1.64079">
        <ele>8.2</ele>
        <time>2020-06-12T06:39:05Z</time>
      </trkpt>
      <trkpt lat="49.25841" lon="-1.64084">
        <ele>8.3</ele>
        <time>2020-06-12T06:39:06Z</time>
      </trkpt>
      <trkpt lat="49.25847" lon="-1.64088">
        <ele>8.3</ele>
        <time>2020-06-12T06:39:07Z</time>
      </trkpt>
      <trkpt lat="49.25854" lon="-1.64094">
        <ele>8.4</ele>
        <time>2020-06-12T06:39:08Z</time>
      </trkpt>
      <trkpt lat="49.25861" lon="-1.64099">
        <ele>8.4</ele>
        <time>2020-06-12T06:39:09Z</time>
      </trkpt>
      <trkpt lat="49.25868" lon="-1.64103">
        <ele>8.4</ele>
        <time>2020-06-12T06:39:10Z</time>
      </trkpt>
      <trkpt lat="49.25873" lon="-1.64107">
        <ele>8.4</ele>
        <time>2020-06-12T06:39:11Z</time>
      </trkpt>
      <trkpt lat="49.25878" lon="-1.64111">
        <ele>8.3</ele>
        <time>2020-06-12T06:39:12Z</time>
      </trkpt>
      <trkpt lat="49.25884" lon="-1.64115">
        <ele>8.3</ele>
        <time>2020-06-12T06:39:13Z</time>
      </trkpt>
      <trkpt lat="49.25889" lon="-1.6412">
        <ele>8.2</ele>
        <time>2020-06-12T06:39:14Z</time>
      </trkpt>
      <trkpt lat="49.25895" lon="-1.64124">
        <ele>8.1</ele>
        <time>2020-06-12T06:39:15Z</time>
      </trkpt>
      <trkpt lat="49.259" lon="-1.64128">
        <ele>8.1</ele>
        <time>2020-06-12T06:39:16Z</time>
      </trkpt>
      <trkpt lat="49.25906" lon="-1.64133">
        <ele>8.1</ele>
        <time>2020-06-12T06:39:17Z</time>
      </trkpt>
      <trkpt lat="49.25912" lon="-1.64139">
        <ele>8.1</ele>
        <time>2020-06-12T06:39:18Z</time>
      </trkpt>
      <trkpt lat="49.25918" lon="-1.64143">
        <ele>8</ele>
        <time>2020-06-12T06:39:19Z</time>
      </trkpt>
      <trkpt lat="49.25923" lon="-1.64148">
        <ele>8</ele>
        <time>2020-06-12T06:39:20Z</time>
      </trkpt>
      <trkpt lat="49.25929" lon="-1.64154">
        <ele>8</ele>
        <time>2020-06-12T06:39:21Z</time>
      </trkpt>
      <trkpt lat="49.25935" lon="-1.64158">
        <ele>8.1</ele>
        <time>2020-06-12T06:39:22Z</time>
      </trkpt>
      <trkpt lat="49.2594" lon="-1.64162">
        <ele>8.1</ele>
        <time>2020-06-12T06:39:23Z</time>
      </trkpt>
      <trkpt lat="49.25946" lon="-1.64167">
        <ele>8.2</ele>
        <time>2020-06-12T06:39:24Z</time>
      </trkpt>
      <trkpt lat="49.25951" lon="-1.64172">
        <ele>8.1</ele>
        <time>2020-06-12T06:39:25Z</time>
      </trkpt>
      <trkpt lat="49.25957" lon="-1.64178">
        <ele>8.1</ele>
        <time>2020-06-12T06:39:26Z</time>
      </trkpt>
      <trkpt lat="49.25962" lon="-1.64183">
        <ele>8.1</ele>
        <time>2020-06-12T06:39:27Z</time>
      </trkpt>
      <trkpt lat="49.25968" lon="-1.64187">
        <ele>8</ele>
        <time>2020-06-12T06:39:28Z</time>
      </trkpt>
      <trkpt lat="49.25973" lon="-1.64193">
        <ele>8</ele>
        <time>2020-06-12T06:39:29Z</time>
      </trkpt>
      <trkpt lat="49.25979" lon="-1.64197">
        <ele>7.9</ele>
        <time>2020-06-12T06:39:30Z</time>
      </trkpt>
      <trkpt lat="49.25985" lon="-1.64202">
        <ele>7.9</ele>
        <time>2020-06-12T06:39:31Z</time>
      </trkpt>
      <trkpt lat="49.25991" lon="-1.64208">
        <ele>7.8</ele>
        <time>2020-06-12T06:39:32Z</time>
      </trkpt>
      <trkpt lat="49.25996" lon="-1.64213">
        <ele>7.8</ele>
        <time>2020-06-12T06:39:33Z</time>
      </trkpt>
      <trkpt lat="49.26002" lon="-1.64218">
        <ele>7.7</ele>
        <time>2020-06-12T06:39:34Z</time>
      </trkpt>
      <trkpt lat="49.26007" lon="-1.64222">
        <ele>7.7</ele>
        <time>2020-06-12T06:39:35Z</time>
      </trkpt>
      <trkpt lat="49.26013" lon="-1.64228">
        <ele>7.7</ele>
        <time>2020-06-12T06:39:36Z</time>
      </trkpt>
      <trkpt lat="49.26019" lon="-1.64235">
        <ele>7.7</ele>
        <time>2020-06-12T06:39:37Z</time>
      </trkpt>
      <trkpt lat="49.26024" lon="-1.6424">
        <ele>7.7</ele>
        <time>2020-06-12T06:39:38Z</time>
      </trkpt>
      <trkpt lat="49.26029" lon="-1.64244">
        <ele>7.7</ele>
        <time>2020-06-12T06:39:39Z</time>
      </trkpt>
      <trkpt lat="49.26036" lon="-1.6425">
        <ele>7.7</ele>
        <time>2020-06-12T06:39:40Z</time>
      </trkpt>
      <trkpt lat="49.26042" lon="-1.64255">
        <ele>7.7</ele>
        <time>2020-06-12T06:39:41Z</time>
      </trkpt>
      <trkpt lat="49.26048" lon="-1.6426">
        <ele>7.6</ele>
        <time>2020-06-12T06:39:42Z</time>
      </trkpt>
      <trkpt lat="49.26055" lon="-1.64264">
        <ele>7.6</ele>
        <time>2020-06-12T06:39:43Z</time>
      </trkpt>
      <trkpt lat="49.26061" lon="-1.6427">
        <ele>7.6</ele>
        <time>2020-06-12T06:39:44Z</time>
      </trkpt>
      <trkpt lat="49.26066" lon="-1.64274">
        <ele>7.5</ele>
        <time>2020-06-12T06:39:45Z</time>
      </trkpt>
      <trkpt lat="49.26072" lon="-1.6428">
        <ele>7.5</ele>
        <time>2020-06-12T06:39:46Z</time>
      </trkpt>
      <trkpt lat="49.26077" lon="-1.64285">
        <ele>7.4</ele>
        <time>2020-06-12T06:39:47Z</time>
      </trkpt>
      <trkpt lat="49.26082" lon="-1.64291">
        <ele>7.4</ele>
        <time>2020-06-12T06:39:48Z</time>
      </trkpt>
      <trkpt lat="49.2609" lon="-1.64295">
        <ele>7.4</ele>
        <time>2020-06-12T06:39:49Z</time>
      </trkpt>
      <trkpt lat="49.26095" lon="-1.64299">
        <ele>7.3</ele>
        <time>2020-06-12T06:39:50Z</time>
      </trkpt>
      <trkpt lat="49.261" lon="-1.64302">
        <ele>7.3</ele>
        <time>2020-06-12T06:39:51Z</time>
      </trkpt>
      <trkpt lat="49.26105" lon="-1.64307">
        <ele>7.3</ele>
        <time>2020-06-12T06:39:52Z</time>
      </trkpt>
      <trkpt lat="49.2611" lon="-1.6431">
        <ele>7.3</ele>
        <time>2020-06-12T06:39:53Z</time>
      </trkpt>
      <trkpt lat="49.26115" lon="-1.64316">
        <ele>7.3</ele>
        <time>2020-06-12T06:39:54Z</time>
      </trkpt>
      <trkpt lat="49.26121" lon="-1.64321">
        <ele>7.4</ele>
        <time>2020-06-12T06:39:55Z</time>
      </trkpt>
      <trkpt lat="49.26125" lon="-1.64327">
        <ele>7.4</ele>
        <time>2020-06-12T06:39:56Z</time>
      </trkpt>
      <trkpt lat="49.26132" lon="-1.6433">
        <ele>7.5</ele>
        <time>2020-06-12T06:39:57Z</time>
      </trkpt>
      <trkpt lat="49.26138" lon="-1.64335">
        <ele>7.3</ele>
        <time>2020-06-12T06:39:58Z</time>
      </trkpt>
      <trkpt lat="49.26144" lon="-1.64339">
        <ele>7.1</ele>
        <time>2020-06-12T06:39:59Z</time>
      </trkpt>
      <trkpt lat="49.26149" lon="-1.64345">
        <ele>7</ele>
        <time>2020-06-12T06:40:00Z</time>
      </trkpt>
      <trkpt lat="49.26154" lon="-1.64351">
        <ele>6.9</ele>
        <time>2020-06-12T06:40:01Z</time>
      </trkpt>
      <trkpt lat="49.2616" lon="-1.64355">
        <ele>6.8</ele>
        <time>2020-06-12T06:40:02Z</time>
      </trkpt>
      <trkpt lat="49.26164" lon="-1.64359">
        <ele>6.8</ele>
        <time>2020-06-12T06:40:03Z</time>
      </trkpt>
      <trkpt lat="49.2617" lon="-1.64364">
        <ele>6.8</ele>
        <time>2020-06-12T06:40:04Z</time>
      </trkpt>
      <trkpt lat="49.26175" lon="-1.64369">
        <ele>6.8</ele>
        <time>2020-06-12T06:40:05Z</time>
      </trkpt>
      <trkpt lat="49.2618" lon="-1.64374">
        <ele>6.9</ele>
        <time>2020-06-12T06:40:06Z</time>
      </trkpt>
      <trkpt lat="49.26185" lon="-1.64378">
        <ele>6.9</ele>
        <time>2020-06-12T06:40:07Z</time>
      </trkpt>
      <trkpt lat="49.2619" lon="-1.64383">
        <ele>6.9</ele>
        <time>2020-06-12T06:40:08Z</time>
      </trkpt>
      <trkpt lat="49.26196" lon="-1.64388">
        <ele>6.9</ele>
        <time>2020-06-12T06:40:09Z</time>
      </trkpt>
      <trkpt lat="49.26201" lon="-1.64392">
        <ele>6.9</ele>
        <time>2020-06-12T06:40:10Z</time>
      </trkpt>
      <trkpt lat="49.26208" lon="-1.64396">
        <ele>7</ele>
        <time>2020-06-12T06:40:11Z</time>
      </trkpt>
      <trkpt lat="49.26214" lon="-1.644">
        <ele>7</ele>
        <time>2020-06-12T06:40:12Z</time>
      </trkpt>
      <trkpt lat="49.26219" lon="-1.64404">
        <ele>7</ele>
        <time>2020-06-12T06:40:13Z</time>
      </trkpt>
      <trkpt lat="49.26224" lon="-1.64409">
        <ele>7.1</ele>
        <time>2020-06-12T06:40:14Z</time>
      </trkpt>
      <trkpt lat="49.26229" lon="-1.64413">
        <ele>7.1</ele>
        <time>2020-06-12T06:40:15Z</time>
      </trkpt>
      <trkpt lat="49.26235" lon="-1.64418">
        <ele>7.2</ele>
        <time>2020-06-12T06:40:16Z</time>
      </trkpt>
      <trkpt lat="49.2624" lon="-1.64423">
        <ele>7.2</ele>
        <time>2020-06-12T06:40:17Z</time>
      </trkpt>
      <trkpt lat="49.26245" lon="-1.64427">
        <ele>7.3</ele>
        <time>2020-06-12T06:40:18Z</time>
      </trkpt>
      <trkpt lat="49.26251" lon="-1.64433">
        <ele>7.3</ele>
        <time>2020-06-12T06:40:19Z</time>
      </trkpt>
      <trkpt lat="49.26256" lon="-1.64436">
        <ele>7.3</ele>
        <time>2020-06-12T06:40:20Z</time>
      </trkpt>
      <trkpt lat="49.26261" lon="-1.6444">
        <ele>7.4</ele>
        <time>2020-06-12T06:40:21Z</time>
      </trkpt>
      <trkpt lat="49.26267" lon="-1.64444">
        <ele>7.4</ele>
        <time>2020-06-12T06:40:22Z</time>
      </trkpt>
      <trkpt lat="49.26272" lon="-1.64449">
        <ele>7.4</ele>
        <time>2020-06-12T06:40:23Z</time>
      </trkpt>
      <trkpt lat="49.26277" lon="-1.64454">
        <ele>7.5</ele>
        <time>2020-06-12T06:40:24Z</time>
      </trkpt>
      <trkpt lat="49.26283" lon="-1.64458">
        <ele>7.5</ele>
        <time>2020-06-12T06:40:25Z</time>
      </trkpt>
      <trkpt lat="49.26288" lon="-1.64462">
        <ele>7.5</ele>
        <time>2020-06-12T06:40:26Z</time>
      </trkpt>
      <trkpt lat="49.26293" lon="-1.64467">
        <ele>7.5</ele>
        <time>2020-06-12T06:40:27Z</time>
      </trkpt>
      <trkpt lat="49.26298" lon="-1.64472">
        <ele>7.5</ele>
        <time>2020-06-12T06:40:28Z</time>
      </trkpt>
      <trkpt lat="49.26303" lon="-1.64477">
        <ele>7.6</ele>
        <time>2020-06-12T06:40:29Z</time>
      </trkpt>
      <trkpt lat="49.26308" lon="-1.64482">
        <ele>7.6</ele>
        <time>2020-06-12T06:40:30Z</time>
      </trkpt>
      <trkpt lat="49.26313" lon="-1.64487">
        <ele>7.6</ele>
        <time>2020-06-12T06:40:31Z</time>
      </trkpt>
      <trkpt lat="49.26319" lon="-1.64492">
        <ele>7.6</ele>
        <time>2020-06-12T06:40:32Z</time>
      </trkpt>
      <trkpt lat="49.26324" lon="-1.64497">
        <ele>7.6</ele>
        <time>2020-06-12T06:40:33Z</time>
      </trkpt>
      <trkpt lat="49.26331" lon="-1.64503">
        <ele>7.6</ele>
        <time>2020-06-12T06:40:34Z</time>
      </trkpt>
      <trkpt lat="49.26338" lon="-1.64507">
        <ele>7.6</ele>
        <time>2020-06-12T06:40:35Z</time>
      </trkpt>
      <trkpt lat="49.26343" lon="-1.64512">
        <ele>7.6</ele>
        <time>2020-06-12T06:40:36Z</time>
      </trkpt>
      <trkpt lat="49.26347" lon="-1.64518">
        <ele>7.6</ele>
        <time>2020-06-12T06:40:37Z</time>
      </trkpt>
      <trkpt lat="49.26353" lon="-1.64522">
        <ele>7.6</ele>
        <time>2020-06-12T06:40:38Z</time>
      </trkpt>
      <trkpt lat="49.26358" lon="-1.64528">
        <ele>7.7</ele>
        <time>2020-06-12T06:40:39Z</time>
      </trkpt>
      <trkpt lat="49.26364" lon="-1.64533">
        <ele>7.7</ele>
        <time>2020-06-12T06:40:40Z</time>
      </trkpt>
      <trkpt lat="49.26371" lon="-1.64537">
        <ele>7.8</ele>
        <time>2020-06-12T06:40:41Z</time>
      </trkpt>
      <trkpt lat="49.26375" lon="-1.6454">
        <ele>7.8</ele>
        <time>2020-06-12T06:40:42Z</time>
      </trkpt>
      <trkpt lat="49.26379" lon="-1.64545">
        <ele>7.9</ele>
        <time>2020-06-12T06:40:43Z</time>
      </trkpt>
      <trkpt lat="49.26384" lon="-1.64549">
        <ele>8</ele>
        <time>2020-06-12T06:40:44Z</time>
      </trkpt>
      <trkpt lat="49.2639" lon="-1.64555">
        <ele>8.2</ele>
        <time>2020-06-12T06:40:45Z</time>
      </trkpt>
      <trkpt lat="49.26396" lon="-1.6456">
        <ele>8.1</ele>
        <time>2020-06-12T06:40:46Z</time>
      </trkpt>
      <trkpt lat="49.26401" lon="-1.64564">
        <ele>8.1</ele>
        <time>2020-06-12T06:40:47Z</time>
      </trkpt>
      <trkpt lat="49.26407" lon="-1.6457">
        <ele>8.1</ele>
        <time>2020-06-12T06:40:48Z</time>
      </trkpt>
      <trkpt lat="49.26412" lon="-1.64575">
        <ele>8</ele>
        <time>2020-06-12T06:40:49Z</time>
      </trkpt>
      <trkpt lat="49.26419" lon="-1.64579">
        <ele>8</ele>
        <time>2020-06-12T06:40:50Z</time>
      </trkpt>
      <trkpt lat="49.26424" lon="-1.64584">
        <ele>8</ele>
        <time>2020-06-12T06:40:51Z</time>
      </trkpt>
      <trkpt lat="49.26429" lon="-1.64588">
        <ele>8</ele>
        <time>2020-06-12T06:40:52Z</time>
      </trkpt>
      <trkpt lat="49.26434" lon="-1.64592">
        <ele>8</ele>
        <time>2020-06-12T06:40:53Z</time>
      </trkpt>
      <trkpt lat="49.2644" lon="-1.64596">
        <ele>8</ele>
        <time>2020-06-12T06:40:54Z</time>
      </trkpt>
      <trkpt lat="49.26445" lon="-1.64601">
        <ele>8</ele>
        <time>2020-06-12T06:40:55Z</time>
      </trkpt>
      <trkpt lat="49.26451" lon="-1.64605">
        <ele>8</ele>
        <time>2020-06-12T06:40:56Z</time>
      </trkpt>
      <trkpt lat="49.26456" lon="-1.6461">
        <ele>7.9</ele>
        <time>2020-06-12T06:40:57Z</time>
      </trkpt>
      <trkpt lat="49.26462" lon="-1.64615">
        <ele>7.9</ele>
        <time>2020-06-12T06:40:58Z</time>
      </trkpt>
      <trkpt lat="49.26468" lon="-1.6462">
        <ele>7.9</ele>
        <time>2020-06-12T06:40:59Z</time>
      </trkpt>
      <trkpt lat="49.26473" lon="-1.64624">
        <ele>7.8</ele>
        <time>2020-06-12T06:41:00Z</time>
      </trkpt>
      <trkpt lat="49.26479" lon="-1.64628">
        <ele>7.8</ele>
        <time>2020-06-12T06:41:01Z</time>
      </trkpt>
      <trkpt lat="49.26484" lon="-1.64633">
        <ele>7.8</ele>
        <time>2020-06-12T06:41:02Z</time>
      </trkpt>
      <trkpt lat="49.2649" lon="-1.64638">
        <ele>7.7</ele>
        <time>2020-06-12T06:41:03Z</time>
      </trkpt>
      <trkpt lat="49.26495" lon="-1.64643">
        <ele>7.7</ele>
        <time>2020-06-12T06:41:04Z</time>
      </trkpt>
      <trkpt lat="49.26501" lon="-1.64647">
        <ele>7.6</ele>
        <time>2020-06-12T06:41:05Z</time>
      </trkpt>
      <trkpt lat="49.26506" lon="-1.64652">
        <ele>7.6</ele>
        <time>2020-06-12T06:41:06Z</time>
      </trkpt>
      <trkpt lat="49.26511" lon="-1.64656">
        <ele>7.6</ele>
        <time>2020-06-12T06:41:07Z</time>
      </trkpt>
      <trkpt lat="49.26517" lon="-1.64661">
        <ele>7.5</ele>
        <time>2020-06-12T06:41:08Z</time>
      </trkpt>
      <trkpt lat="49.26522" lon="-1.64665">
        <ele>7.5</ele>
        <time>2020-06-12T06:41:09Z</time>
      </trkpt>
      <trkpt lat="49.26528" lon="-1.6467">
        <ele>7.4</ele>
        <time>2020-06-12T06:41:10Z</time>
      </trkpt>
      <trkpt lat="49.26534" lon="-1.64675">
        <ele>7.4</ele>
        <time>2020-06-12T06:41:11Z</time>
      </trkpt>
      <trkpt lat="49.2654" lon="-1.6468">
        <ele>7.4</ele>
        <time>2020-06-12T06:41:12Z</time>
      </trkpt>
      <trkpt lat="49.26545" lon="-1.64685">
        <ele>7.5</ele>
        <time>2020-06-12T06:41:13Z</time>
      </trkpt>
      <trkpt lat="49.26551" lon="-1.6469">
        <ele>7.6</ele>
        <time>2020-06-12T06:41:14Z</time>
      </trkpt>
      <trkpt lat="49.26556" lon="-1.64696">
        <ele>7.6</ele>
        <time>2020-06-12T06:41:15Z</time>
      </trkpt>
      <trkpt lat="49.26562" lon="-1.64701">
        <ele>7.5</ele>
        <time>2020-06-12T06:41:16Z</time>
      </trkpt>
      <trkpt lat="49.26566" lon="-1.64703">
        <ele>7.4</ele>
        <time>2020-06-12T06:41:17Z</time>
      </trkpt>
      <trkpt lat="49.26572" lon="-1.64707">
        <ele>7.4</ele>
        <time>2020-06-12T06:41:18Z</time>
      </trkpt>
      <trkpt lat="49.26578" lon="-1.64713">
        <ele>7.3</ele>
        <time>2020-06-12T06:41:19Z</time>
      </trkpt>
      <trkpt lat="49.26583" lon="-1.64718">
        <ele>7.3</ele>
        <time>2020-06-12T06:41:20Z</time>
      </trkpt>
      <trkpt lat="49.26589" lon="-1.64723">
        <ele>7.3</ele>
        <time>2020-06-12T06:41:21Z</time>
      </trkpt>
      <trkpt lat="49.26595" lon="-1.64728">
        <ele>7.2</ele>
        <time>2020-06-12T06:41:22Z</time>
      </trkpt>
      <trkpt lat="49.266" lon="-1.64733">
        <ele>7.2</ele>
        <time>2020-06-12T06:41:23Z</time>
      </trkpt>
      <trkpt lat="49.26605" lon="-1.64738">
        <ele>7.2</ele>
        <time>2020-06-12T06:41:24Z</time>
      </trkpt>
      <trkpt lat="49.26611" lon="-1.64742">
        <ele>7.2</ele>
        <time>2020-06-12T06:41:25Z</time>
      </trkpt>
      <trkpt lat="49.26617" lon="-1.64747">
        <ele>7.2</ele>
        <time>2020-06-12T06:41:26Z</time>
      </trkpt>
      <trkpt lat="49.26622" lon="-1.64752">
        <ele>7.2</ele>
        <time>2020-06-12T06:41:27Z</time>
      </trkpt>
      <trkpt lat="49.26628" lon="-1.64757">
        <ele>7.1</ele>
        <time>2020-06-12T06:41:28Z</time>
      </trkpt>
      <trkpt lat="49.26633" lon="-1.64762">
        <ele>7.1</ele>
        <time>2020-06-12T06:41:29Z</time>
      </trkpt>
      <trkpt lat="49.26639" lon="-1.64766">
        <ele>7.1</ele>
        <time>2020-06-12T06:41:30Z</time>
      </trkpt>
      <trkpt lat="49.26645" lon="-1.64771">
        <ele>7.1</ele>
        <time>2020-06-12T06:41:31Z</time>
      </trkpt>
      <trkpt lat="49.26651" lon="-1.64776">
        <ele>7.2</ele>
        <time>2020-06-12T06:41:32Z</time>
      </trkpt>
      <trkpt lat="49.26657" lon="-1.64781">
        <ele>7.2</ele>
        <time>2020-06-12T06:41:33Z</time>
      </trkpt>
      <trkpt lat="49.26663" lon="-1.64786">
        <ele>7.2</ele>
        <time>2020-06-12T06:41:34Z</time>
      </trkpt>
      <trkpt lat="49.26669" lon="-1.64791">
        <ele>7.2</ele>
        <time>2020-06-12T06:41:35Z</time>
      </trkpt>
      <trkpt lat="49.26674" lon="-1.64796">
        <ele>7.2</ele>
        <time>2020-06-12T06:41:36Z</time>
      </trkpt>
      <trkpt lat="49.2668" lon="-1.64801">
        <ele>7.2</ele>
        <time>2020-06-12T06:41:37Z</time>
      </trkpt>
      <trkpt lat="49.26686" lon="-1.64805">
        <ele>7.3</ele>
        <time>2020-06-12T06:41:38Z</time>
      </trkpt>
      <trkpt lat="49.26691" lon="-1.6481">
        <ele>7.3</ele>
        <time>2020-06-12T06:41:39Z</time>
      </trkpt>
      <trkpt lat="49.26697" lon="-1.64815">
        <ele>7.2</ele>
        <time>2020-06-12T06:41:40Z</time>
      </trkpt>
      <trkpt lat="49.26703" lon="-1.64819">
        <ele>7.1</ele>
        <time>2020-06-12T06:41:41Z</time>
      </trkpt>
      <trkpt lat="49.26708" lon="-1.64824">
        <ele>7.1</ele>
        <time>2020-06-12T06:41:42Z</time>
      </trkpt>
      <trkpt lat="49.26714" lon="-1.64829">
        <ele>7</ele>
        <time>2020-06-12T06:41:43Z</time>
      </trkpt>
      <trkpt lat="49.26719" lon="-1.64833">
        <ele>7</ele>
        <time>2020-06-12T06:41:44Z</time>
      </trkpt>
      <trkpt lat="49.26725" lon="-1.64838">
        <ele>6.9</ele>
        <time>2020-06-12T06:41:45Z</time>
      </trkpt>
      <trkpt lat="49.2673" lon="-1.64842">
        <ele>6.9</ele>
        <time>2020-06-12T06:41:46Z</time>
      </trkpt>
      <trkpt lat="49.26736" lon="-1.64847">
        <ele>6.9</ele>
        <time>2020-06-12T06:41:47Z</time>
      </trkpt>
      <trkpt lat="49.26742" lon="-1.64851">
        <ele>6.9</ele>
        <time>2020-06-12T06:41:48Z</time>
      </trkpt>
      <trkpt lat="49.26747" lon="-1.64856">
        <ele>6.9</ele>
        <time>2020-06-12T06:41:49Z</time>
      </trkpt>
      <trkpt lat="49.26753" lon="-1.6486">
        <ele>6.8</ele>
        <time>2020-06-12T06:41:50Z</time>
      </trkpt>
      <trkpt lat="49.26759" lon="-1.64864">
        <ele>6.8</ele>
        <time>2020-06-12T06:41:51Z</time>
      </trkpt>
      <trkpt lat="49.26766" lon="-1.64868">
        <ele>6.7</ele>
        <time>2020-06-12T06:41:52Z</time>
      </trkpt>
      <trkpt lat="49.26772" lon="-1.64872">
        <ele>6.7</ele>
        <time>2020-06-12T06:41:53Z</time>
      </trkpt>
      <trkpt lat="49.26777" lon="-1.64876">
        <ele>6.7</ele>
        <time>2020-06-12T06:41:54Z</time>
      </trkpt>
      <trkpt lat="49.26783" lon="-1.6488">
        <ele>6.6</ele>
        <time>2020-06-12T06:41:55Z</time>
      </trkpt>
      <trkpt lat="49.26788" lon="-1.64884">
        <ele>6.6</ele>
        <time>2020-06-12T06:41:56Z</time>
      </trkpt>
      <trkpt lat="49.26794" lon="-1.64888">
        <ele>6.6</ele>
        <time>2020-06-12T06:41:57Z</time>
      </trkpt>
      <trkpt lat="49.268" lon="-1.64893">
        <ele>6.7</ele>
        <time>2020-06-12T06:41:58Z</time>
      </trkpt>
      <trkpt lat="49.26807" lon="-1.64899">
        <ele>6.7</ele>
        <time>2020-06-12T06:41:59Z</time>
      </trkpt>
      <trkpt lat="49.26812" lon="-1.64903">
        <ele>6.7</ele>
        <time>2020-06-12T06:42:00Z</time>
      </trkpt>
      <trkpt lat="49.26817" lon="-1.64906">
        <ele>6.8</ele>
        <time>2020-06-12T06:42:01Z</time>
      </trkpt>
      <trkpt lat="49.26822" lon="-1.64911">
        <ele>6.7</ele>
        <time>2020-06-12T06:42:02Z</time>
      </trkpt>
      <trkpt lat="49.26827" lon="-1.64915">
        <ele>6.6</ele>
        <time>2020-06-12T06:42:03Z</time>
      </trkpt>
      <trkpt lat="49.26832" lon="-1.6492">
        <ele>6.5</ele>
        <time>2020-06-12T06:42:04Z</time>
      </trkpt>
      <trkpt lat="49.26839" lon="-1.64924">
        <ele>6.4</ele>
        <time>2020-06-12T06:42:05Z</time>
      </trkpt>
      <trkpt lat="49.26844" lon="-1.64928">
        <ele>6.4</ele>
        <time>2020-06-12T06:42:06Z</time>
      </trkpt>
      <trkpt lat="49.26851" lon="-1.64932">
        <ele>6.3</ele>
        <time>2020-06-12T06:42:07Z</time>
      </trkpt>
      <trkpt lat="49.26856" lon="-1.64936">
        <ele>6.3</ele>
        <time>2020-06-12T06:42:08Z</time>
      </trkpt>
      <trkpt lat="49.26862" lon="-1.6494">
        <ele>6.3</ele>
        <time>2020-06-12T06:42:09Z</time>
      </trkpt>
      <trkpt lat="49.26867" lon="-1.64944">
        <ele>6.3</ele>
        <time>2020-06-12T06:42:10Z</time>
      </trkpt>
      <trkpt lat="49.26873" lon="-1.64947">
        <ele>6.3</ele>
        <time>2020-06-12T06:42:11Z</time>
      </trkpt>
      <trkpt lat="49.26879" lon="-1.64951">
        <ele>6.3</ele>
        <time>2020-06-12T06:42:12Z</time>
      </trkpt>
      <trkpt lat="49.26886" lon="-1.64954">
        <ele>6.3</ele>
        <time>2020-06-12T06:42:13Z</time>
      </trkpt>
      <trkpt lat="49.26892" lon="-1.64958">
        <ele>6.3</ele>
        <time>2020-06-12T06:42:14Z</time>
      </trkpt>
      <trkpt lat="49.26898" lon="-1.64961">
        <ele>6.4</ele>
        <time>2020-06-12T06:42:15Z</time>
      </trkpt>
      <trkpt lat="49.26903" lon="-1.64965">
        <ele>6.4</ele>
        <time>2020-06-12T06:42:16Z</time>
      </trkpt>
      <trkpt lat="49.26908" lon="-1.6497">
        <ele>6.5</ele>
        <time>2020-06-12T06:42:17Z</time>
      </trkpt>
      <trkpt lat="49.26914" lon="-1.64973">
        <ele>6.6</ele>
        <time>2020-06-12T06:42:18Z</time>
      </trkpt>
      <trkpt lat="49.2692" lon="-1.64977">
        <ele>6.6</ele>
        <time>2020-06-12T06:42:19Z</time>
      </trkpt>
      <trkpt lat="49.26926" lon="-1.6498">
        <ele>6.5</ele>
        <time>2020-06-12T06:42:20Z</time>
      </trkpt>
      <trkpt lat="49.26932" lon="-1.64985">
        <ele>6.5</ele>
        <time>2020-06-12T06:42:21Z</time>
      </trkpt>
      <trkpt lat="49.26936" lon="-1.64989">
        <ele>6.5</ele>
        <time>2020-06-12T06:42:22Z</time>
      </trkpt>
      <trkpt lat="49.26942" lon="-1.64993">
        <ele>6.5</ele>
        <time>2020-06-12T06:42:23Z</time>
      </trkpt>
      <trkpt lat="49.26949" lon="-1.64997">
        <ele>6.5</ele>
        <time>2020-06-12T06:42:24Z</time>
      </trkpt>
      <trkpt lat="49.26955" lon="-1.65001">
        <ele>6.5</ele>
        <time>2020-06-12T06:42:25Z</time>
      </trkpt>
      <trkpt lat="49.2696" lon="-1.65005">
        <ele>6.6</ele>
        <time>2020-06-12T06:42:26Z</time>
      </trkpt>
      <trkpt lat="49.26965" lon="-1.65009">
        <ele>6.6</ele>
        <time>2020-06-12T06:42:27Z</time>
      </trkpt>
      <trkpt lat="49.26971" lon="-1.65012">
        <ele>6.6</ele>
        <time>2020-06-12T06:42:28Z</time>
      </trkpt>
      <trkpt lat="49.26976" lon="-1.65017">
        <ele>6.7</ele>
        <time>2020-06-12T06:42:29Z</time>
      </trkpt>
      <trkpt lat="49.26981" lon="-1.6502">
        <ele>6.7</ele>
        <time>2020-06-12T06:42:30Z</time>
      </trkpt>
      <trkpt lat="49.26986" lon="-1.65024">
        <ele>6.7</ele>
        <time>2020-06-12T06:42:31Z</time>
      </trkpt>
      <trkpt lat="49.26992" lon="-1.65027">
        <ele>6.7</ele>
        <time>2020-06-12T06:42:32Z</time>
      </trkpt>
      <trkpt lat="49.26997" lon="-1.65032">
        <ele>6.7</ele>
        <time>2020-06-12T06:42:33Z</time>
      </trkpt>
      <trkpt lat="49.27004" lon="-1.65036">
        <ele>6.7</ele>
        <time>2020-06-12T06:42:34Z</time>
      </trkpt>
      <trkpt lat="49.2701" lon="-1.65041">
        <ele>6.7</ele>
        <time>2020-06-12T06:42:35Z</time>
      </trkpt>
      <trkpt lat="49.27015" lon="-1.65045">
        <ele>6.7</ele>
        <time>2020-06-12T06:42:36Z</time>
      </trkpt>
      <trkpt lat="49.2702" lon="-1.65049">
        <ele>6.7</ele>
        <time>2020-06-12T06:42:37Z</time>
      </trkpt>
      <trkpt lat="49.27026" lon="-1.65054">
        <ele>6.7</ele>
        <time>2020-06-12T06:42:38Z</time>
      </trkpt>
      <trkpt lat="49.27032" lon="-1.65058">
        <ele>6.7</ele>
        <time>2020-06-12T06:42:39Z</time>
      </trkpt>
      <trkpt lat="49.27038" lon="-1.65063">
        <ele>6.7</ele>
        <time>2020-06-12T06:42:40Z</time>
      </trkpt>
      <trkpt lat="49.27044" lon="-1.65068">
        <ele>6.7</ele>
        <time>2020-06-12T06:42:41Z</time>
      </trkpt>
      <trkpt lat="49.2705" lon="-1.65072">
        <ele>6.7</ele>
        <time>2020-06-12T06:42:42Z</time>
      </trkpt>
      <trkpt lat="49.27056" lon="-1.65077">
        <ele>6.8</ele>
        <time>2020-06-12T06:42:43Z</time>
      </trkpt>
      <trkpt lat="49.27061" lon="-1.65081">
        <ele>6.8</ele>
        <time>2020-06-12T06:42:44Z</time>
      </trkpt>
      <trkpt lat="49.27066" lon="-1.65085">
        <ele>6.8</ele>
        <time>2020-06-12T06:42:45Z</time>
      </trkpt>
      <trkpt lat="49.27072" lon="-1.6509">
        <ele>6.9</ele>
        <time>2020-06-12T06:42:46Z</time>
      </trkpt>
      <trkpt lat="49.27077" lon="-1.65095">
        <ele>7</ele>
        <time>2020-06-12T06:42:47Z</time>
      </trkpt>
      <trkpt lat="49.27083" lon="-1.65099">
        <ele>7.1</ele>
        <time>2020-06-12T06:42:48Z</time>
      </trkpt>
      <trkpt lat="49.27088" lon="-1.65104">
        <ele>7.2</ele>
        <time>2020-06-12T06:42:49Z</time>
      </trkpt>
      <trkpt lat="49.27093" lon="-1.65109">
        <ele>7.3</ele>
        <time>2020-06-12T06:42:50Z</time>
      </trkpt>
      <trkpt lat="49.27098" lon="-1.65114">
        <ele>7.2</ele>
        <time>2020-06-12T06:42:51Z</time>
      </trkpt>
      <trkpt lat="49.27103" lon="-1.65119">
        <ele>7.2</ele>
        <time>2020-06-12T06:42:52Z</time>
      </trkpt>
      <trkpt lat="49.27108" lon="-1.65123">
        <ele>7.2</ele>
        <time>2020-06-12T06:42:53Z</time>
      </trkpt>
      <trkpt lat="49.27113" lon="-1.65127">
        <ele>7.2</ele>
        <time>2020-06-12T06:42:54Z</time>
      </trkpt>
      <trkpt lat="49.27118" lon="-1.65132">
        <ele>7.2</ele>
        <time>2020-06-12T06:42:55Z</time>
      </trkpt>
      <trkpt lat="49.27124" lon="-1.65136">
        <ele>7.2</ele>
        <time>2020-06-12T06:42:56Z</time>
      </trkpt>
      <trkpt lat="49.27129" lon="-1.65141">
        <ele>7.2</ele>
        <time>2020-06-12T06:42:57Z</time>
      </trkpt>
      <trkpt lat="49.27134" lon="-1.65145">
        <ele>7.2</ele>
        <time>2020-06-12T06:42:58Z</time>
      </trkpt>
      <trkpt lat="49.27139" lon="-1.65151">
        <ele>7.2</ele>
        <time>2020-06-12T06:42:59Z</time>
      </trkpt>
      <trkpt lat="49.27145" lon="-1.65158">
        <ele>7.2</ele>
        <time>2020-06-12T06:43:00Z</time>
      </trkpt>
      <trkpt lat="49.2715" lon="-1.65163">
        <ele>7.2</ele>
        <time>2020-06-12T06:43:01Z</time>
      </trkpt>
      <trkpt lat="49.27155" lon="-1.65171">
        <ele>7.3</ele>
        <time>2020-06-12T06:43:02Z</time>
      </trkpt>
      <trkpt lat="49.27161" lon="-1.65177">
        <ele>7.3</ele>
        <time>2020-06-12T06:43:03Z</time>
      </trkpt>
      <trkpt lat="49.27167" lon="-1.65183">
        <ele>7.3</ele>
        <time>2020-06-12T06:43:04Z</time>
      </trkpt>
      <trkpt lat="49.27172" lon="-1.65189">
        <ele>7.3</ele>
        <time>2020-06-12T06:43:05Z</time>
      </trkpt>
      <trkpt lat="49.27177" lon="-1.65195">
        <ele>7.3</ele>
        <time>2020-06-12T06:43:06Z</time>
      </trkpt>
      <trkpt lat="49.27182" lon="-1.65201">
        <ele>7.3</ele>
        <time>2020-06-12T06:43:07Z</time>
      </trkpt>
      <trkpt lat="49.27187" lon="-1.65207">
        <ele>7.3</ele>
        <time>2020-06-12T06:43:08Z</time>
      </trkpt>
      <trkpt lat="49.27192" lon="-1.65214">
        <ele>7.3</ele>
        <time>2020-06-12T06:43:09Z</time>
      </trkpt>
      <trkpt lat="49.27197" lon="-1.6522">
        <ele>7.3</ele>
        <time>2020-06-12T06:43:10Z</time>
      </trkpt>
      <trkpt lat="49.27202" lon="-1.65226">
        <ele>7.3</ele>
        <time>2020-06-12T06:43:11Z</time>
      </trkpt>
      <trkpt lat="49.27207" lon="-1.65232">
        <ele>7.3</ele>
        <time>2020-06-12T06:43:12Z</time>
      </trkpt>
      <trkpt lat="49.27212" lon="-1.65237">
        <ele>7.3</ele>
        <time>2020-06-12T06:43:13Z</time>
      </trkpt>
      <trkpt lat="49.27217" lon="-1.65243">
        <ele>7.3</ele>
        <time>2020-06-12T06:43:14Z</time>
      </trkpt>
      <trkpt lat="49.27222" lon="-1.65249">
        <ele>7.4</ele>
        <time>2020-06-12T06:43:15Z</time>
      </trkpt>
      <trkpt lat="49.27228" lon="-1.65255">
        <ele>7.4</ele>
        <time>2020-06-12T06:43:16Z</time>
      </trkpt>
      <trkpt lat="49.27233" lon="-1.65261">
        <ele>7.4</ele>
        <time>2020-06-12T06:43:17Z</time>
      </trkpt>
      <trkpt lat="49.27239" lon="-1.65267">
        <ele>7.4</ele>
        <time>2020-06-12T06:43:18Z</time>
      </trkpt>
      <trkpt lat="49.27244" lon="-1.65272">
        <ele>7.4</ele>
        <time>2020-06-12T06:43:19Z</time>
      </trkpt>
      <trkpt lat="49.27249" lon="-1.65277">
        <ele>7.4</ele>
        <time>2020-06-12T06:43:20Z</time>
      </trkpt>
      <trkpt lat="49.27254" lon="-1.65284">
        <ele>7.4</ele>
        <time>2020-06-12T06:43:21Z</time>
      </trkpt>
      <trkpt lat="49.27259" lon="-1.6529">
        <ele>7.5</ele>
        <time>2020-06-12T06:43:22Z</time>
      </trkpt>
      <trkpt lat="49.27263" lon="-1.65295">
        <ele>7.5</ele>
        <time>2020-06-12T06:43:23Z</time>
      </trkpt>
      <trkpt lat="49.27269" lon="-1.65301">
        <ele>7.7</ele>
        <time>2020-06-12T06:43:24Z</time>
      </trkpt>
      <trkpt lat="49.27275" lon="-1.65307">
        <ele>7.8</ele>
        <time>2020-06-12T06:43:25Z</time>
      </trkpt>
      <trkpt lat="49.2728" lon="-1.65313">
        <ele>8</ele>
        <time>2020-06-12T06:43:26Z</time>
      </trkpt>
      <trkpt lat="49.27284" lon="-1.65319">
        <ele>8</ele>
        <time>2020-06-12T06:43:27Z</time>
      </trkpt>
      <trkpt lat="49.27288" lon="-1.65325">
        <ele>7.9</ele>
        <time>2020-06-12T06:43:28Z</time>
      </trkpt>
      <trkpt lat="49.27293" lon="-1.65333">
        <ele>7.9</ele>
        <time>2020-06-12T06:43:29Z</time>
      </trkpt>
      <trkpt lat="49.27297" lon="-1.65337">
        <ele>7.8</ele>
        <time>2020-06-12T06:43:30Z</time>
      </trkpt>
      <trkpt lat="49.27302" lon="-1.65343">
        <ele>7.8</ele>
        <time>2020-06-12T06:43:31Z</time>
      </trkpt>
      <trkpt lat="49.27307" lon="-1.65348">
        <ele>7.8</ele>
        <time>2020-06-12T06:43:32Z</time>
      </trkpt>
      <trkpt lat="49.27312" lon="-1.6535">
        <ele>7.8</ele>
        <time>2020-06-12T06:43:33Z</time>
      </trkpt>
      <trkpt lat="49.27316" lon="-1.65353">
        <ele>7.8</ele>
        <time>2020-06-12T06:43:34Z</time>
      </trkpt>
      <trkpt lat="49.27321" lon="-1.65358">
        <ele>7.8</ele>
        <time>2020-06-12T06:43:35Z</time>
      </trkpt>
      <trkpt lat="49.27326" lon="-1.65362">
        <ele>7.8</ele>
        <time>2020-06-12T06:43:36Z</time>
      </trkpt>
      <trkpt lat="49.27331" lon="-1.65368">
        <ele>7.9</ele>
        <time>2020-06-12T06:43:37Z</time>
      </trkpt>
      <trkpt lat="49.27337" lon="-1.65375">
        <ele>7.9</ele>
        <time>2020-06-12T06:43:38Z</time>
      </trkpt>
      <trkpt lat="49.27341" lon="-1.65381">
        <ele>7.9</ele>
        <time>2020-06-12T06:43:39Z</time>
      </trkpt>
      <trkpt lat="49.27346" lon="-1.65388">
        <ele>7.9</ele>
        <time>2020-06-12T06:43:40Z</time>
      </trkpt>
      <trkpt lat="49.27351" lon="-1.65392">
        <ele>7.9</ele>
        <time>2020-06-12T06:43:41Z</time>
      </trkpt>
      <trkpt lat="49.27356" lon="-1.65398">
        <ele>7.9</ele>
        <time>2020-06-12T06:43:42Z</time>
      </trkpt>
      <trkpt lat="49.27361" lon="-1.65404">
        <ele>7.9</ele>
        <time>2020-06-12T06:43:43Z</time>
      </trkpt>
      <trkpt lat="49.27366" lon="-1.65411">
        <ele>8</ele>
        <time>2020-06-12T06:43:44Z</time>
      </trkpt>
      <trkpt lat="49.27373" lon="-1.65417">
        <ele>8</ele>
        <time>2020-06-12T06:43:45Z</time>
      </trkpt>
      <trkpt lat="49.27377" lon="-1.65422">
        <ele>8</ele>
        <time>2020-06-12T06:43:46Z</time>
      </trkpt>
      <trkpt lat="49.27382" lon="-1.65428">
        <ele>8</ele>
        <time>2020-06-12T06:43:47Z</time>
      </trkpt>
      <trkpt lat="49.27387" lon="-1.65433">
        <ele>8</ele>
        <time>2020-06-12T06:43:48Z</time>
      </trkpt>
      <trkpt lat="49.27393" lon="-1.65439">
        <ele>8</ele>
        <time>2020-06-12T06:43:49Z</time>
      </trkpt>
      <trkpt lat="49.27398" lon="-1.65443">
        <ele>8</ele>
        <time>2020-06-12T06:43:50Z</time>
      </trkpt>
      <trkpt lat="49.27403" lon="-1.65448">
        <ele>8</ele>
        <time>2020-06-12T06:43:51Z</time>
      </trkpt>
      <trkpt lat="49.27408" lon="-1.65454">
        <ele>8</ele>
        <time>2020-06-12T06:43:52Z</time>
      </trkpt>
      <trkpt lat="49.27414" lon="-1.65459">
        <ele>8</ele>
        <time>2020-06-12T06:43:53Z</time>
      </trkpt>
      <trkpt lat="49.27418" lon="-1.65463">
        <ele>8</ele>
        <time>2020-06-12T06:43:54Z</time>
      </trkpt>
      <trkpt lat="49.27423" lon="-1.65469">
        <ele>8</ele>
        <time>2020-06-12T06:43:55Z</time>
      </trkpt>
      <trkpt lat="49.27429" lon="-1.65476">
        <ele>8</ele>
        <time>2020-06-12T06:43:56Z</time>
      </trkpt>
      <trkpt lat="49.27434" lon="-1.65483">
        <ele>8</ele>
        <time>2020-06-12T06:43:57Z</time>
      </trkpt>
      <trkpt lat="49.27439" lon="-1.65489">
        <ele>7.9</ele>
        <time>2020-06-12T06:43:58Z</time>
      </trkpt>
      <trkpt lat="49.27444" lon="-1.65494">
        <ele>7.9</ele>
        <time>2020-06-12T06:43:59Z</time>
      </trkpt>
      <trkpt lat="49.2745" lon="-1.655">
        <ele>8</ele>
        <time>2020-06-12T06:44:00Z</time>
      </trkpt>
      <trkpt lat="49.27455" lon="-1.65506">
        <ele>8</ele>
        <time>2020-06-12T06:44:01Z</time>
      </trkpt>
      <trkpt lat="49.2746" lon="-1.65511">
        <ele>8</ele>
        <time>2020-06-12T06:44:02Z</time>
      </trkpt>
      <trkpt lat="49.27466" lon="-1.65517">
        <ele>8</ele>
        <time>2020-06-12T06:44:03Z</time>
      </trkpt>
      <trkpt lat="49.27473" lon="-1.65522">
        <ele>8</ele>
        <time>2020-06-12T06:44:04Z</time>
      </trkpt>
      <trkpt lat="49.27478" lon="-1.65528">
        <ele>8</ele>
        <time>2020-06-12T06:44:05Z</time>
      </trkpt>
      <trkpt lat="49.27483" lon="-1.65534">
        <ele>8</ele>
        <time>2020-06-12T06:44:06Z</time>
      </trkpt>
      <trkpt lat="49.27488" lon="-1.6554">
        <ele>7.9</ele>
        <time>2020-06-12T06:44:07Z</time>
      </trkpt>
      <trkpt lat="49.27493" lon="-1.65545">
        <ele>7.9</ele>
        <time>2020-06-12T06:44:08Z</time>
      </trkpt>
      <trkpt lat="49.27499" lon="-1.6555">
        <ele>7.9</ele>
        <time>2020-06-12T06:44:09Z</time>
      </trkpt>
      <trkpt lat="49.27504" lon="-1.65554">
        <ele>7.9</ele>
        <time>2020-06-12T06:44:10Z</time>
      </trkpt>
      <trkpt lat="49.2751" lon="-1.65559">
        <ele>7.8</ele>
        <time>2020-06-12T06:44:11Z</time>
      </trkpt>
      <trkpt lat="49.27516" lon="-1.65564">
        <ele>7.8</ele>
        <time>2020-06-12T06:44:12Z</time>
      </trkpt>
      <trkpt lat="49.27522" lon="-1.65569">
        <ele>7.8</ele>
        <time>2020-06-12T06:44:13Z</time>
      </trkpt>
      <trkpt lat="49.27527" lon="-1.65572">
        <ele>7.8</ele>
        <time>2020-06-12T06:44:14Z</time>
      </trkpt>
      <trkpt lat="49.27533" lon="-1.65576">
        <ele>7.7</ele>
        <time>2020-06-12T06:44:15Z</time>
      </trkpt>
      <trkpt lat="49.27539" lon="-1.6558">
        <ele>7.7</ele>
        <time>2020-06-12T06:44:16Z</time>
      </trkpt>
      <trkpt lat="49.27545" lon="-1.65585">
        <ele>7.7</ele>
        <time>2020-06-12T06:44:17Z</time>
      </trkpt>
      <trkpt lat="49.2755" lon="-1.6559">
        <ele>7.7</ele>
        <time>2020-06-12T06:44:18Z</time>
      </trkpt>
      <trkpt lat="49.27556" lon="-1.65594">
        <ele>7.7</ele>
        <time>2020-06-12T06:44:19Z</time>
      </trkpt>
      <trkpt lat="49.27562" lon="-1.65599">
        <ele>7.6</ele>
        <time>2020-06-12T06:44:20Z</time>
      </trkpt>
      <trkpt lat="49.27568" lon="-1.65603">
        <ele>7.6</ele>
        <time>2020-06-12T06:44:21Z</time>
      </trkpt>
      <trkpt lat="49.27573" lon="-1.65607">
        <ele>7.6</ele>
        <time>2020-06-12T06:44:22Z</time>
      </trkpt>
      <trkpt lat="49.27579" lon="-1.6561">
        <ele>7.6</ele>
        <time>2020-06-12T06:44:23Z</time>
      </trkpt>
      <trkpt lat="49.27585" lon="-1.65613">
        <ele>7.6</ele>
        <time>2020-06-12T06:44:24Z</time>
      </trkpt>
      <trkpt lat="49.27591" lon="-1.65616">
        <ele>7.5</ele>
        <time>2020-06-12T06:44:25Z</time>
      </trkpt>
      <trkpt lat="49.27597" lon="-1.6562">
        <ele>7.5</ele>
        <time>2020-06-12T06:44:26Z</time>
      </trkpt>
      <trkpt lat="49.27603" lon="-1.65624">
        <ele>7.4</ele>
        <time>2020-06-12T06:44:27Z</time>
      </trkpt>
      <trkpt lat="49.27609" lon="-1.65627">
        <ele>7.4</ele>
        <time>2020-06-12T06:44:28Z</time>
      </trkpt>
      <trkpt lat="49.27615" lon="-1.6563">
        <ele>7.3</ele>
        <time>2020-06-12T06:44:29Z</time>
      </trkpt>
      <trkpt lat="49.27621" lon="-1.65633">
        <ele>7.3</ele>
        <time>2020-06-12T06:44:30Z</time>
      </trkpt>
      <trkpt lat="49.27627" lon="-1.65637">
        <ele>7.3</ele>
        <time>2020-06-12T06:44:31Z</time>
      </trkpt>
      <trkpt lat="49.27634" lon="-1.65639">
        <ele>7.2</ele>
        <time>2020-06-12T06:44:32Z</time>
      </trkpt>
      <trkpt lat="49.2764" lon="-1.65642">
        <ele>7.2</ele>
        <time>2020-06-12T06:44:33Z</time>
      </trkpt>
      <trkpt lat="49.27646" lon="-1.65645">
        <ele>7.1</ele>
        <time>2020-06-12T06:44:34Z</time>
      </trkpt>
      <trkpt lat="49.27653" lon="-1.65647">
        <ele>7.1</ele>
        <time>2020-06-12T06:44:35Z</time>
      </trkpt>
      <trkpt lat="49.27659" lon="-1.6565">
        <ele>7.1</ele>
        <time>2020-06-12T06:44:36Z</time>
      </trkpt>
      <trkpt lat="49.27665" lon="-1.65652">
        <ele>7.1</ele>
        <time>2020-06-12T06:44:37Z</time>
      </trkpt>
      <trkpt lat="49.27671" lon="-1.65654">
        <ele>7.1</ele>
        <time>2020-06-12T06:44:38Z</time>
      </trkpt>
      <trkpt lat="49.27677" lon="-1.65656">
        <ele>7.1</ele>
        <time>2020-06-12T06:44:39Z</time>
      </trkpt>
      <trkpt lat="49.27684" lon="-1.65659">
        <ele>7.1</ele>
        <time>2020-06-12T06:44:40Z</time>
      </trkpt>
      <trkpt lat="49.2769" lon="-1.6566">
        <ele>7.1</ele>
        <time>2020-06-12T06:44:41Z</time>
      </trkpt>
      <trkpt lat="49.27697" lon="-1.65662">
        <ele>7</ele>
        <time>2020-06-12T06:44:42Z</time>
      </trkpt>
      <trkpt lat="49.27703" lon="-1.65663">
        <ele>7</ele>
        <time>2020-06-12T06:44:43Z</time>
      </trkpt>
      <trkpt lat="49.27709" lon="-1.65665">
        <ele>7</ele>
        <time>2020-06-12T06:44:44Z</time>
      </trkpt>
      <trkpt lat="49.27715" lon="-1.65667">
        <ele>7</ele>
        <time>2020-06-12T06:44:45Z</time>
      </trkpt>
      <trkpt lat="49.2772" lon="-1.65668">
        <ele>7</ele>
        <time>2020-06-12T06:44:46Z</time>
      </trkpt>
      <trkpt lat="49.27727" lon="-1.65669">
        <ele>6.9</ele>
        <time>2020-06-12T06:44:47Z</time>
      </trkpt>
      <trkpt lat="49.27734" lon="-1.65671">
        <ele>6.9</ele>
        <time>2020-06-12T06:44:48Z</time>
      </trkpt>
      <trkpt lat="49.2774" lon="-1.65673">
        <ele>6.9</ele>
        <time>2020-06-12T06:44:49Z</time>
      </trkpt>
      <trkpt lat="49.27745" lon="-1.65673">
        <ele>6.8</ele>
        <time>2020-06-12T06:44:50Z</time>
      </trkpt>
      <trkpt lat="49.27753" lon="-1.65675">
        <ele>6.8</ele>
        <time>2020-06-12T06:44:51Z</time>
      </trkpt>
      <trkpt lat="49.27759" lon="-1.65676">
        <ele>6.8</ele>
        <time>2020-06-12T06:44:52Z</time>
      </trkpt>
      <trkpt lat="49.27765" lon="-1.65677">
        <ele>6.8</ele>
        <time>2020-06-12T06:44:53Z</time>
      </trkpt>
      <trkpt lat="49.27772" lon="-1.65678">
        <ele>6.7</ele>
        <time>2020-06-12T06:44:54Z</time>
      </trkpt>
      <trkpt lat="49.27778" lon="-1.65679">
        <ele>6.7</ele>
        <time>2020-06-12T06:44:55Z</time>
      </trkpt>
      <trkpt lat="49.27785" lon="-1.6568">
        <ele>6.7</ele>
        <time>2020-06-12T06:44:56Z</time>
      </trkpt>
      <trkpt lat="49.27792" lon="-1.6568">
        <ele>6.7</ele>
        <time>2020-06-12T06:44:57Z</time>
      </trkpt>
      <trkpt lat="49.27797" lon="-1.6568">
        <ele>6.7</ele>
        <time>2020-06-12T06:44:58Z</time>
      </trkpt>
      <trkpt lat="49.27804" lon="-1.65681">
        <ele>6.6</ele>
        <time>2020-06-12T06:44:59Z</time>
      </trkpt>
      <trkpt lat="49.2781" lon="-1.65682">
        <ele>6.6</ele>
        <time>2020-06-12T06:45:00Z</time>
      </trkpt>
      <trkpt lat="49.27817" lon="-1.65682">
        <ele>6.6</ele>
        <time>2020-06-12T06:45:01Z</time>
      </trkpt>
      <trkpt lat="49.27824" lon="-1.65683">
        <ele>6.6</ele>
        <time>2020-06-12T06:45:02Z</time>
      </trkpt>
      <trkpt lat="49.27831" lon="-1.65683">
        <ele>6.6</ele>
        <time>2020-06-12T06:45:03Z</time>
      </trkpt>
      <trkpt lat="49.27836" lon="-1.65683">
        <ele>6.6</ele>
        <time>2020-06-12T06:45:04Z</time>
      </trkpt>
      <trkpt lat="49.27843" lon="-1.65683">
        <ele>6.5</ele>
        <time>2020-06-12T06:45:05Z</time>
      </trkpt>
      <trkpt lat="49.27849" lon="-1.65684">
        <ele>6.5</ele>
        <time>2020-06-12T06:45:06Z</time>
      </trkpt>
      <trkpt lat="49.27855" lon="-1.65685">
        <ele>6.6</ele>
        <time>2020-06-12T06:45:07Z</time>
      </trkpt>
      <trkpt lat="49.27861" lon="-1.65686">
        <ele>6.6</ele>
        <time>2020-06-12T06:45:08Z</time>
      </trkpt>
      <trkpt lat="49.27868" lon="-1.65686">
        <ele>6.6</ele>
        <time>2020-06-12T06:45:09Z</time>
      </trkpt>
      <trkpt lat="49.27875" lon="-1.65686">
        <ele>6.8</ele>
        <time>2020-06-12T06:45:10Z</time>
      </trkpt>
      <trkpt lat="49.27882" lon="-1.65687">
        <ele>6.7</ele>
        <time>2020-06-12T06:45:11Z</time>
      </trkpt>
      <trkpt lat="49.27888" lon="-1.65687">
        <ele>6.6</ele>
        <time>2020-06-12T06:45:12Z</time>
      </trkpt>
      <trkpt lat="49.27895" lon="-1.65687">
        <ele>6.6</ele>
        <time>2020-06-12T06:45:13Z</time>
      </trkpt>
      <trkpt lat="49.27901" lon="-1.65688">
        <ele>6.6</ele>
        <time>2020-06-12T06:45:14Z</time>
      </trkpt>
      <trkpt lat="49.27907" lon="-1.65688">
        <ele>6.6</ele>
        <time>2020-06-12T06:45:15Z</time>
      </trkpt>
      <trkpt lat="49.27914" lon="-1.65689">
        <ele>6.6</ele>
        <time>2020-06-12T06:45:16Z</time>
      </trkpt>
      <trkpt lat="49.27921" lon="-1.65689">
        <ele>6.6</ele>
        <time>2020-06-12T06:45:17Z</time>
      </trkpt>
      <trkpt lat="49.27927" lon="-1.6569">
        <ele>6.6</ele>
        <time>2020-06-12T06:45:18Z</time>
      </trkpt>
      <trkpt lat="49.27933" lon="-1.6569">
        <ele>6.6</ele>
        <time>2020-06-12T06:45:19Z</time>
      </trkpt>
      <trkpt lat="49.27938" lon="-1.65691">
        <ele>6.6</ele>
        <time>2020-06-12T06:45:20Z</time>
      </trkpt>
      <trkpt lat="49.27944" lon="-1.65691">
        <ele>6.6</ele>
        <time>2020-06-12T06:45:21Z</time>
      </trkpt>
      <trkpt lat="49.27949" lon="-1.65691">
        <ele>6.6</ele>
        <time>2020-06-12T06:45:22Z</time>
      </trkpt>
      <trkpt lat="49.27955" lon="-1.65691">
        <ele>6.6</ele>
        <time>2020-06-12T06:45:23Z</time>
      </trkpt>
      <trkpt lat="49.27961" lon="-1.65692">
        <ele>6.6</ele>
        <time>2020-06-12T06:45:24Z</time>
      </trkpt>
      <trkpt lat="49.27967" lon="-1.65693">
        <ele>6.6</ele>
        <time>2020-06-12T06:45:25Z</time>
      </trkpt>
      <trkpt lat="49.27974" lon="-1.65693">
        <ele>6.6</ele>
        <time>2020-06-12T06:45:26Z</time>
      </trkpt>
      <trkpt lat="49.27981" lon="-1.65694">
        <ele>6.6</ele>
        <time>2020-06-12T06:45:27Z</time>
      </trkpt>
      <trkpt lat="49.27987" lon="-1.65693">
        <ele>6.6</ele>
        <time>2020-06-12T06:45:28Z</time>
      </trkpt>
      <trkpt lat="49.27992" lon="-1.65694">
        <ele>6.6</ele>
        <time>2020-06-12T06:45:29Z</time>
      </trkpt>
      <trkpt lat="49.27997" lon="-1.65695">
        <ele>6.7</ele>
        <time>2020-06-12T06:45:30Z</time>
      </trkpt>
      <trkpt lat="49.28002" lon="-1.65696">
        <ele>6.7</ele>
        <time>2020-06-12T06:45:31Z</time>
      </trkpt>
      <trkpt lat="49.28007" lon="-1.65697">
        <ele>6.7</ele>
        <time>2020-06-12T06:45:32Z</time>
      </trkpt>
      <trkpt lat="49.28012" lon="-1.65697">
        <ele>6.7</ele>
        <time>2020-06-12T06:45:33Z</time>
      </trkpt>
      <trkpt lat="49.28018" lon="-1.65698">
        <ele>6.7</ele>
        <time>2020-06-12T06:45:34Z</time>
      </trkpt>
      <trkpt lat="49.28024" lon="-1.65698">
        <ele>6.7</ele>
        <time>2020-06-12T06:45:35Z</time>
      </trkpt>
      <trkpt lat="49.28031" lon="-1.65698">
        <ele>6.7</ele>
        <time>2020-06-12T06:45:36Z</time>
      </trkpt>
      <trkpt lat="49.28037" lon="-1.65698">
        <ele>6.8</ele>
        <time>2020-06-12T06:45:37Z</time>
      </trkpt>
      <trkpt lat="49.28042" lon="-1.65697">
        <ele>6.8</ele>
        <time>2020-06-12T06:45:38Z</time>
      </trkpt>
      <trkpt lat="49.28048" lon="-1.65697">
        <ele>6.8</ele>
        <time>2020-06-12T06:45:39Z</time>
      </trkpt>
      <trkpt lat="49.28053" lon="-1.65697">
        <ele>6.8</ele>
        <time>2020-06-12T06:45:40Z</time>
      </trkpt>
      <trkpt lat="49.28059" lon="-1.65699">
        <ele>6.8</ele>
        <time>2020-06-12T06:45:41Z</time>
      </trkpt>
      <trkpt lat="49.28064" lon="-1.65699">
        <ele>6.8</ele>
        <time>2020-06-12T06:45:42Z</time>
      </trkpt>
      <trkpt lat="49.2807" lon="-1.65701">
        <ele>6.8</ele>
        <time>2020-06-12T06:45:43Z</time>
      </trkpt>
      <trkpt lat="49.28075" lon="-1.65701">
        <ele>6.8</ele>
        <time>2020-06-12T06:45:44Z</time>
      </trkpt>
      <trkpt lat="49.28081" lon="-1.65702">
        <ele>6.8</ele>
        <time>2020-06-12T06:45:45Z</time>
      </trkpt>
      <trkpt lat="49.28087" lon="-1.65702">
        <ele>6.8</ele>
        <time>2020-06-12T06:45:46Z</time>
      </trkpt>
      <trkpt lat="49.28092" lon="-1.65703">
        <ele>6.8</ele>
        <time>2020-06-12T06:45:47Z</time>
      </trkpt>
      <trkpt lat="49.28098" lon="-1.65703">
        <ele>6.9</ele>
        <time>2020-06-12T06:45:48Z</time>
      </trkpt>
      <trkpt lat="49.28103" lon="-1.65702">
        <ele>6.9</ele>
        <time>2020-06-12T06:45:49Z</time>
      </trkpt>
      <trkpt lat="49.28109" lon="-1.65702">
        <ele>6.9</ele>
        <time>2020-06-12T06:45:50Z</time>
      </trkpt>
      <trkpt lat="49.28115" lon="-1.65702">
        <ele>7</ele>
        <time>2020-06-12T06:45:51Z</time>
      </trkpt>
      <trkpt lat="49.28121" lon="-1.65702">
        <ele>7</ele>
        <time>2020-06-12T06:45:52Z</time>
      </trkpt>
      <trkpt lat="49.28126" lon="-1.65701">
        <ele>7.1</ele>
        <time>2020-06-12T06:45:53Z</time>
      </trkpt>
      <trkpt lat="49.28131" lon="-1.65702">
        <ele>7.1</ele>
        <time>2020-06-12T06:45:54Z</time>
      </trkpt>
      <trkpt lat="49.28136" lon="-1.65702">
        <ele>7.1</ele>
        <time>2020-06-12T06:45:55Z</time>
      </trkpt>
      <trkpt lat="49.28143" lon="-1.65703">
        <ele>7.2</ele>
        <time>2020-06-12T06:45:56Z</time>
      </trkpt>
      <trkpt lat="49.28148" lon="-1.65704">
        <ele>7.3</ele>
        <time>2020-06-12T06:45:57Z</time>
      </trkpt>
      <trkpt lat="49.28154" lon="-1.65703">
        <ele>7.3</ele>
        <time>2020-06-12T06:45:58Z</time>
      </trkpt>
      <trkpt lat="49.28159" lon="-1.65702">
        <ele>7.5</ele>
        <time>2020-06-12T06:45:59Z</time>
      </trkpt>
      <trkpt lat="49.28165" lon="-1.65703">
        <ele>7.6</ele>
        <time>2020-06-12T06:46:00Z</time>
      </trkpt>
      <trkpt lat="49.28171" lon="-1.65704">
        <ele>7.7</ele>
        <time>2020-06-12T06:46:01Z</time>
      </trkpt>
      <trkpt lat="49.28177" lon="-1.65706">
        <ele>7.7</ele>
        <time>2020-06-12T06:46:02Z</time>
      </trkpt>
      <trkpt lat="49.28182" lon="-1.65707">
        <ele>7.8</ele>
        <time>2020-06-12T06:46:03Z</time>
      </trkpt>
      <trkpt lat="49.28188" lon="-1.65709">
        <ele>7.8</ele>
        <time>2020-06-12T06:46:04Z</time>
      </trkpt>
      <trkpt lat="49.28193" lon="-1.65709">
        <ele>7.9</ele>
        <time>2020-06-12T06:46:05Z</time>
      </trkpt>
      <trkpt lat="49.28199" lon="-1.65711">
        <ele>7.9</ele>
        <time>2020-06-12T06:46:06Z</time>
      </trkpt>
      <trkpt lat="49.28204" lon="-1.65712">
        <ele>7.9</ele>
        <time>2020-06-12T06:46:07Z</time>
      </trkpt>
      <trkpt lat="49.2821" lon="-1.65714">
        <ele>7.9</ele>
        <time>2020-06-12T06:46:08Z</time>
      </trkpt>
      <trkpt lat="49.28216" lon="-1.65715">
        <ele>7.9</ele>
        <time>2020-06-12T06:46:09Z</time>
      </trkpt>
      <trkpt lat="49.28221" lon="-1.65718">
        <ele>7.9</ele>
        <time>2020-06-12T06:46:10Z</time>
      </trkpt>
      <trkpt lat="49.28226" lon="-1.6572">
        <ele>8</ele>
        <time>2020-06-12T06:46:11Z</time>
      </trkpt>
      <trkpt lat="49.28231" lon="-1.65723">
        <ele>8.1</ele>
        <time>2020-06-12T06:46:12Z</time>
      </trkpt>
      <trkpt lat="49.28236" lon="-1.65725">
        <ele>8.1</ele>
        <time>2020-06-12T06:46:13Z</time>
      </trkpt>
      <trkpt lat="49.28241" lon="-1.65727">
        <ele>8.1</ele>
        <time>2020-06-12T06:46:14Z</time>
      </trkpt>
      <trkpt lat="49.28246" lon="-1.65729">
        <ele>8.1</ele>
        <time>2020-06-12T06:46:15Z</time>
      </trkpt>
      <trkpt lat="49.28251" lon="-1.65731">
        <ele>8.1</ele>
        <time>2020-06-12T06:46:16Z</time>
      </trkpt>
      <trkpt lat="49.28256" lon="-1.65733">
        <ele>8.1</ele>
        <time>2020-06-12T06:46:17Z</time>
      </trkpt>
      <trkpt lat="49.28262" lon="-1.65735">
        <ele>8.2</ele>
        <time>2020-06-12T06:46:18Z</time>
      </trkpt>
      <trkpt lat="49.28267" lon="-1.65736">
        <ele>8.2</ele>
        <time>2020-06-12T06:46:19Z</time>
      </trkpt>
      <trkpt lat="49.28272" lon="-1.65738">
        <ele>8.2</ele>
        <time>2020-06-12T06:46:20Z</time>
      </trkpt>
      <trkpt lat="49.28277" lon="-1.65741">
        <ele>8.3</ele>
        <time>2020-06-12T06:46:21Z</time>
      </trkpt>
      <trkpt lat="49.28283" lon="-1.65744">
        <ele>8.3</ele>
        <time>2020-06-12T06:46:22Z</time>
      </trkpt>
      <trkpt lat="49.28287" lon="-1.65748">
        <ele>8.3</ele>
        <time>2020-06-12T06:46:23Z</time>
      </trkpt>
      <trkpt lat="49.28292" lon="-1.65751">
        <ele>8.3</ele>
        <time>2020-06-12T06:46:24Z</time>
      </trkpt>
      <trkpt lat="49.28299" lon="-1.65754">
        <ele>8.4</ele>
        <time>2020-06-12T06:46:25Z</time>
      </trkpt>
      <trkpt lat="49.28303" lon="-1.65758">
        <ele>8.4</ele>
        <time>2020-06-12T06:46:26Z</time>
      </trkpt>
      <trkpt lat="49.28307" lon="-1.65761">
        <ele>8.4</ele>
        <time>2020-06-12T06:46:27Z</time>
      </trkpt>
      <trkpt lat="49.28312" lon="-1.65764">
        <ele>8.5</ele>
        <time>2020-06-12T06:46:28Z</time>
      </trkpt>
      <trkpt lat="49.28317" lon="-1.65767">
        <ele>8.5</ele>
        <time>2020-06-12T06:46:29Z</time>
      </trkpt>
      <trkpt lat="49.28322" lon="-1.6577">
        <ele>8.5</ele>
        <time>2020-06-12T06:46:30Z</time>
      </trkpt>
      <trkpt lat="49.28326" lon="-1.65774">
        <ele>8.5</ele>
        <time>2020-06-12T06:46:31Z</time>
      </trkpt>
      <trkpt lat="49.28332" lon="-1.65777">
        <ele>8.5</ele>
        <time>2020-06-12T06:46:32Z</time>
      </trkpt>
      <trkpt lat="49.28337" lon="-1.65781">
        <ele>8.5</ele>
        <time>2020-06-12T06:46:33Z</time>
      </trkpt>
      <trkpt lat="49.28342" lon="-1.65785">
        <ele>8.5</ele>
        <time>2020-06-12T06:46:34Z</time>
      </trkpt>
      <trkpt lat="49.28346" lon="-1.6579">
        <ele>8.5</ele>
        <time>2020-06-12T06:46:35Z</time>
      </trkpt>
      <trkpt lat="49.28351" lon="-1.65794">
        <ele>8.5</ele>
        <time>2020-06-12T06:46:36Z</time>
      </trkpt>
      <trkpt lat="49.28356" lon="-1.65798">
        <ele>8.5</ele>
        <time>2020-06-12T06:46:37Z</time>
      </trkpt>
      <trkpt lat="49.28361" lon="-1.65805">
        <ele>8.5</ele>
        <time>2020-06-12T06:46:38Z</time>
      </trkpt>
      <trkpt lat="49.28365" lon="-1.65809">
        <ele>8.5</ele>
        <time>2020-06-12T06:46:39Z</time>
      </trkpt>
      <trkpt lat="49.28369" lon="-1.65814">
        <ele>8.5</ele>
        <time>2020-06-12T06:46:40Z</time>
      </trkpt>
      <trkpt lat="49.28374" lon="-1.65821">
        <ele>8.5</ele>
        <time>2020-06-12T06:46:41Z</time>
      </trkpt>
      <trkpt lat="49.28378" lon="-1.65826">
        <ele>8.5</ele>
        <time>2020-06-12T06:46:42Z</time>
      </trkpt>
      <trkpt lat="49.28383" lon="-1.65831">
        <ele>8.5</ele>
        <time>2020-06-12T06:46:43Z</time>
      </trkpt>
      <trkpt lat="49.28387" lon="-1.65837">
        <ele>8.6</ele>
        <time>2020-06-12T06:46:44Z</time>
      </trkpt>
      <trkpt lat="49.28391" lon="-1.65843">
        <ele>8.6</ele>
        <time>2020-06-12T06:46:45Z</time>
      </trkpt>
      <trkpt lat="49.28395" lon="-1.65848">
        <ele>8.6</ele>
        <time>2020-06-12T06:46:46Z</time>
      </trkpt>
      <trkpt lat="49.28399" lon="-1.65855">
        <ele>8.7</ele>
        <time>2020-06-12T06:46:47Z</time>
      </trkpt>
      <trkpt lat="49.28402" lon="-1.6586">
        <ele>8.7</ele>
        <time>2020-06-12T06:46:48Z</time>
      </trkpt>
      <trkpt lat="49.28406" lon="-1.65866">
        <ele>8.7</ele>
        <time>2020-06-12T06:46:49Z</time>
      </trkpt>
      <trkpt lat="49.28409" lon="-1.6587">
        <ele>8.7</ele>
        <time>2020-06-12T06:46:50Z</time>
      </trkpt>
      <trkpt lat="49.28413" lon="-1.65876">
        <ele>8.7</ele>
        <time>2020-06-12T06:46:51Z</time>
      </trkpt>
      <trkpt lat="49.28416" lon="-1.65881">
        <ele>8.7</ele>
        <time>2020-06-12T06:46:52Z</time>
      </trkpt>
      <trkpt lat="49.28419" lon="-1.65886">
        <ele>8.7</ele>
        <time>2020-06-12T06:46:53Z</time>
      </trkpt>
      <trkpt lat="49.28421" lon="-1.65892">
        <ele>8.7</ele>
        <time>2020-06-12T06:46:54Z</time>
      </trkpt>
      <trkpt lat="49.28423" lon="-1.65897">
        <ele>8.7</ele>
        <time>2020-06-12T06:46:55Z</time>
      </trkpt>
      <trkpt lat="49.28426" lon="-1.65902">
        <ele>8.7</ele>
        <time>2020-06-12T06:46:56Z</time>
      </trkpt>
      <trkpt lat="49.2843" lon="-1.65906">
        <ele>8.7</ele>
        <time>2020-06-12T06:46:57Z</time>
      </trkpt>
      <trkpt lat="49.28433" lon="-1.65911">
        <ele>8.7</ele>
        <time>2020-06-12T06:46:58Z</time>
      </trkpt>
      <trkpt lat="49.28436" lon="-1.65915">
        <ele>8.7</ele>
        <time>2020-06-12T06:46:59Z</time>
      </trkpt>
      <trkpt lat="49.28438" lon="-1.65921">
        <ele>8.8</ele>
        <time>2020-06-12T06:47:00Z</time>
      </trkpt>
      <trkpt lat="49.28441" lon="-1.65925">
        <ele>8.8</ele>
        <time>2020-06-12T06:47:01Z</time>
      </trkpt>
      <trkpt lat="49.28444" lon="-1.65931">
        <ele>8.8</ele>
        <time>2020-06-12T06:47:02Z</time>
      </trkpt>
      <trkpt lat="49.28447" lon="-1.65938">
        <ele>8.8</ele>
        <time>2020-06-12T06:47:03Z</time>
      </trkpt>
      <trkpt lat="49.28451" lon="-1.65943">
        <ele>8.8</ele>
        <time>2020-06-12T06:47:04Z</time>
      </trkpt>
      <trkpt lat="49.28454" lon="-1.65949">
        <ele>8.9</ele>
        <time>2020-06-12T06:47:05Z</time>
      </trkpt>
      <trkpt lat="49.28457" lon="-1.65955">
        <ele>8.9</ele>
        <time>2020-06-12T06:47:06Z</time>
      </trkpt>
      <trkpt lat="49.2846" lon="-1.65963">
        <ele>8.9</ele>
        <time>2020-06-12T06:47:07Z</time>
      </trkpt>
      <trkpt lat="49.28463" lon="-1.65969">
        <ele>8.9</ele>
        <time>2020-06-12T06:47:08Z</time>
      </trkpt>
      <trkpt lat="49.28466" lon="-1.65976">
        <ele>8.9</ele>
        <time>2020-06-12T06:47:09Z</time>
      </trkpt>
      <trkpt lat="49.28469" lon="-1.65982">
        <ele>8.9</ele>
        <time>2020-06-12T06:47:10Z</time>
      </trkpt>
      <trkpt lat="49.28472" lon="-1.65988">
        <ele>8.9</ele>
        <time>2020-06-12T06:47:11Z</time>
      </trkpt>
      <trkpt lat="49.28475" lon="-1.65994">
        <ele>8.9</ele>
        <time>2020-06-12T06:47:12Z</time>
      </trkpt>
      <trkpt lat="49.28478" lon="-1.66001">
        <ele>9</ele>
        <time>2020-06-12T06:47:13Z</time>
      </trkpt>
      <trkpt lat="49.28481" lon="-1.66008">
        <ele>9</ele>
        <time>2020-06-12T06:47:14Z</time>
      </trkpt>
      <trkpt lat="49.28484" lon="-1.66017">
        <ele>9</ele>
        <time>2020-06-12T06:47:15Z</time>
      </trkpt>
      <trkpt lat="49.28487" lon="-1.66025">
        <ele>9</ele>
        <time>2020-06-12T06:47:16Z</time>
      </trkpt>
      <trkpt lat="49.28489" lon="-1.66033">
        <ele>9.1</ele>
        <time>2020-06-12T06:47:17Z</time>
      </trkpt>
      <trkpt lat="49.28492" lon="-1.66042">
        <ele>9.1</ele>
        <time>2020-06-12T06:47:18Z</time>
      </trkpt>
      <trkpt lat="49.28495" lon="-1.6605">
        <ele>9.1</ele>
        <time>2020-06-12T06:47:19Z</time>
      </trkpt>
      <trkpt lat="49.28498" lon="-1.66058">
        <ele>9.2</ele>
        <time>2020-06-12T06:47:20Z</time>
      </trkpt>
      <trkpt lat="49.28501" lon="-1.66067">
        <ele>9.2</ele>
        <time>2020-06-12T06:47:21Z</time>
      </trkpt>
      <trkpt lat="49.28506" lon="-1.66073">
        <ele>9.2</ele>
        <time>2020-06-12T06:47:22Z</time>
      </trkpt>
      <trkpt lat="49.28509" lon="-1.66081">
        <ele>9.2</ele>
        <time>2020-06-12T06:47:23Z</time>
      </trkpt>
      <trkpt lat="49.28512" lon="-1.66088">
        <ele>9.3</ele>
        <time>2020-06-12T06:47:24Z</time>
      </trkpt>
      <trkpt lat="49.28514" lon="-1.66096">
        <ele>9.3</ele>
        <time>2020-06-12T06:47:25Z</time>
      </trkpt>
      <trkpt lat="49.28517" lon="-1.66104">
        <ele>9.3</ele>
        <time>2020-06-12T06:47:26Z</time>
      </trkpt>
      <trkpt lat="49.2852" lon="-1.66112">
        <ele>9.4</ele>
        <time>2020-06-12T06:47:27Z</time>
      </trkpt>
      <trkpt lat="49.28522" lon="-1.6612">
        <ele>9.4</ele>
        <time>2020-06-12T06:47:28Z</time>
      </trkpt>
      <trkpt lat="49.28525" lon="-1.66129">
        <ele>9.4</ele>
        <time>2020-06-12T06:47:29Z</time>
      </trkpt>
      <trkpt lat="49.28527" lon="-1.66137">
        <ele>9.4</ele>
        <time>2020-06-12T06:47:30Z</time>
      </trkpt>
      <trkpt lat="49.28529" lon="-1.66144">
        <ele>9.4</ele>
        <time>2020-06-12T06:47:31Z</time>
      </trkpt>
      <trkpt lat="49.28532" lon="-1.66151">
        <ele>9.4</ele>
        <time>2020-06-12T06:47:32Z</time>
      </trkpt>
      <trkpt lat="49.28535" lon="-1.66157">
        <ele>9.4</ele>
        <time>2020-06-12T06:47:33Z</time>
      </trkpt>
      <trkpt lat="49.28539" lon="-1.66165">
        <ele>9.5</ele>
        <time>2020-06-12T06:47:34Z</time>
      </trkpt>
      <trkpt lat="49.28541" lon="-1.66173">
        <ele>9.5</ele>
        <time>2020-06-12T06:47:35Z</time>
      </trkpt>
      <trkpt lat="49.28544" lon="-1.6618">
        <ele>9.5</ele>
        <time>2020-06-12T06:47:36Z</time>
      </trkpt>
      <trkpt lat="49.28547" lon="-1.66188">
        <ele>9.6</ele>
        <time>2020-06-12T06:47:37Z</time>
      </trkpt>
      <trkpt lat="49.2855" lon="-1.66197">
        <ele>9.6</ele>
        <time>2020-06-12T06:47:38Z</time>
      </trkpt>
      <trkpt lat="49.28554" lon="-1.66205">
        <ele>9.6</ele>
        <time>2020-06-12T06:47:39Z</time>
      </trkpt>
      <trkpt lat="49.28557" lon="-1.66212">
        <ele>9.6</ele>
        <time>2020-06-12T06:47:40Z</time>
      </trkpt>
      <trkpt lat="49.2856" lon="-1.66219">
        <ele>9.6</ele>
        <time>2020-06-12T06:47:41Z</time>
      </trkpt>
      <trkpt lat="49.28563" lon="-1.66226">
        <ele>9.6</ele>
        <time>2020-06-12T06:47:42Z</time>
      </trkpt>
      <trkpt lat="49.28566" lon="-1.66232">
        <ele>9.7</ele>
        <time>2020-06-12T06:47:43Z</time>
      </trkpt>
      <trkpt lat="49.28569" lon="-1.66239">
        <ele>9.7</ele>
        <time>2020-06-12T06:47:44Z</time>
      </trkpt>
      <trkpt lat="49.28574" lon="-1.66248">
        <ele>9.7</ele>
        <time>2020-06-12T06:47:45Z</time>
      </trkpt>
      <trkpt lat="49.28577" lon="-1.66254">
        <ele>9.7</ele>
        <time>2020-06-12T06:47:46Z</time>
      </trkpt>
      <trkpt lat="49.28581" lon="-1.6626">
        <ele>9.7</ele>
        <time>2020-06-12T06:47:47Z</time>
      </trkpt>
      <trkpt lat="49.28584" lon="-1.66267">
        <ele>9.7</ele>
        <time>2020-06-12T06:47:48Z</time>
      </trkpt>
      <trkpt lat="49.28589" lon="-1.66273">
        <ele>9.8</ele>
        <time>2020-06-12T06:47:49Z</time>
      </trkpt>
      <trkpt lat="49.28593" lon="-1.66278">
        <ele>9.8</ele>
        <time>2020-06-12T06:47:50Z</time>
      </trkpt>
      <trkpt lat="49.28598" lon="-1.66284">
        <ele>9.8</ele>
        <time>2020-06-12T06:47:51Z</time>
      </trkpt>
      <trkpt lat="49.28603" lon="-1.6629">
        <ele>9.8</ele>
        <time>2020-06-12T06:47:52Z</time>
      </trkpt>
      <trkpt lat="49.28607" lon="-1.66296">
        <ele>9.8</ele>
        <time>2020-06-12T06:47:53Z</time>
      </trkpt>
      <trkpt lat="49.28611" lon="-1.66301">
        <ele>9.9</ele>
        <time>2020-06-12T06:47:54Z</time>
      </trkpt>
      <trkpt lat="49.28615" lon="-1.66307">
        <ele>9.9</ele>
        <time>2020-06-12T06:47:55Z</time>
      </trkpt>
      <trkpt lat="49.2862" lon="-1.66313">
        <ele>9.9</ele>
        <time>2020-06-12T06:47:56Z</time>
      </trkpt>
      <trkpt lat="49.28624" lon="-1.66318">
        <ele>9.8</ele>
        <time>2020-06-12T06:47:57Z</time>
      </trkpt>
      <trkpt lat="49.28629" lon="-1.66324">
        <ele>9.7</ele>
        <time>2020-06-12T06:47:58Z</time>
      </trkpt>
      <trkpt lat="49.28634" lon="-1.6633">
        <ele>9.6</ele>
        <time>2020-06-12T06:47:59Z</time>
      </trkpt>
      <trkpt lat="49.28639" lon="-1.66336">
        <ele>9.5</ele>
        <time>2020-06-12T06:48:00Z</time>
      </trkpt>
      <trkpt lat="49.28643" lon="-1.66342">
        <ele>9.5</ele>
        <time>2020-06-12T06:48:01Z</time>
      </trkpt>
      <trkpt lat="49.28648" lon="-1.66348">
        <ele>9.5</ele>
        <time>2020-06-12T06:48:02Z</time>
      </trkpt>
      <trkpt lat="49.28653" lon="-1.66354">
        <ele>9.4</ele>
        <time>2020-06-12T06:48:03Z</time>
      </trkpt>
      <trkpt lat="49.28657" lon="-1.66358">
        <ele>9.4</ele>
        <time>2020-06-12T06:48:04Z</time>
      </trkpt>
      <trkpt lat="49.28661" lon="-1.66363">
        <ele>9.4</ele>
        <time>2020-06-12T06:48:05Z</time>
      </trkpt>
      <trkpt lat="49.28666" lon="-1.66366">
        <ele>9.4</ele>
        <time>2020-06-12T06:48:06Z</time>
      </trkpt>
      <trkpt lat="49.2867" lon="-1.66368">
        <ele>9.3</ele>
        <time>2020-06-12T06:48:07Z</time>
      </trkpt>
      <trkpt lat="49.28677" lon="-1.66373">
        <ele>9.3</ele>
        <time>2020-06-12T06:48:08Z</time>
      </trkpt>
      <trkpt lat="49.28684" lon="-1.66378">
        <ele>9.2</ele>
        <time>2020-06-12T06:48:09Z</time>
      </trkpt>
      <trkpt lat="49.2869" lon="-1.66383">
        <ele>9.1</ele>
        <time>2020-06-12T06:48:10Z</time>
      </trkpt>
      <trkpt lat="49.28696" lon="-1.66387">
        <ele>9</ele>
        <time>2020-06-12T06:48:11Z</time>
      </trkpt>
      <trkpt lat="49.28702" lon="-1.66391">
        <ele>9</ele>
        <time>2020-06-12T06:48:12Z</time>
      </trkpt>
      <trkpt lat="49.28709" lon="-1.66395">
        <ele>8.9</ele>
        <time>2020-06-12T06:48:13Z</time>
      </trkpt>
      <trkpt lat="49.28715" lon="-1.66399">
        <ele>8.9</ele>
        <time>2020-06-12T06:48:14Z</time>
      </trkpt>
      <trkpt lat="49.28722" lon="-1.66404">
        <ele>8.8</ele>
        <time>2020-06-12T06:48:15Z</time>
      </trkpt>
      <trkpt lat="49.28728" lon="-1.66408">
        <ele>8.7</ele>
        <time>2020-06-12T06:48:16Z</time>
      </trkpt>
      <trkpt lat="49.28732" lon="-1.66412">
        <ele>8.7</ele>
        <time>2020-06-12T06:48:17Z</time>
      </trkpt>
      <trkpt lat="49.28739" lon="-1.66415">
        <ele>8.6</ele>
        <time>2020-06-12T06:48:18Z</time>
      </trkpt>
      <trkpt lat="49.28743" lon="-1.66419">
        <ele>8.5</ele>
        <time>2020-06-12T06:48:19Z</time>
      </trkpt>
      <trkpt lat="49.28749" lon="-1.66422">
        <ele>8.4</ele>
        <time>2020-06-12T06:48:20Z</time>
      </trkpt>
      <trkpt lat="49.28755" lon="-1.66424">
        <ele>8.3</ele>
        <time>2020-06-12T06:48:21Z</time>
      </trkpt>
      <trkpt lat="49.28761" lon="-1.66425">
        <ele>8.3</ele>
        <time>2020-06-12T06:48:22Z</time>
      </trkpt>
      <trkpt lat="49.28768" lon="-1.66427">
        <ele>8.2</ele>
        <time>2020-06-12T06:48:23Z</time>
      </trkpt>
      <trkpt lat="49.28775" lon="-1.6643">
        <ele>8.2</ele>
        <time>2020-06-12T06:48:24Z</time>
      </trkpt>
      <trkpt lat="49.28783" lon="-1.66433">
        <ele>8.1</ele>
        <time>2020-06-12T06:48:25Z</time>
      </trkpt>
      <trkpt lat="49.28789" lon="-1.66436">
        <ele>8</ele>
        <time>2020-06-12T06:48:26Z</time>
      </trkpt>
      <trkpt lat="49.28795" lon="-1.66439">
        <ele>7.9</ele>
        <time>2020-06-12T06:48:27Z</time>
      </trkpt>
      <trkpt lat="49.28802" lon="-1.66442">
        <ele>7.9</ele>
        <time>2020-06-12T06:48:28Z</time>
      </trkpt>
      <trkpt lat="49.28809" lon="-1.66444">
        <ele>7.8</ele>
        <time>2020-06-12T06:48:29Z</time>
      </trkpt>
      <trkpt lat="49.28816" lon="-1.66447">
        <ele>7.7</ele>
        <time>2020-06-12T06:48:30Z</time>
      </trkpt>
      <trkpt lat="49.28822" lon="-1.66449">
        <ele>7.6</ele>
        <time>2020-06-12T06:48:31Z</time>
      </trkpt>
      <trkpt lat="49.28827" lon="-1.66451">
        <ele>7.5</ele>
        <time>2020-06-12T06:48:32Z</time>
      </trkpt>
      <trkpt lat="49.28833" lon="-1.66453">
        <ele>7.4</ele>
        <time>2020-06-12T06:48:33Z</time>
      </trkpt>
      <trkpt lat="49.28839" lon="-1.66454">
        <ele>7.4</ele>
        <time>2020-06-12T06:48:34Z</time>
      </trkpt>
      <trkpt lat="49.28845" lon="-1.66456">
        <ele>7.3</ele>
        <time>2020-06-12T06:48:35Z</time>
      </trkpt>
      <trkpt lat="49.28851" lon="-1.66458">
        <ele>7.3</ele>
        <time>2020-06-12T06:48:36Z</time>
      </trkpt>
      <trkpt lat="49.28857" lon="-1.6646">
        <ele>7.3</ele>
        <time>2020-06-12T06:48:37Z</time>
      </trkpt>
      <trkpt lat="49.28864" lon="-1.66462">
        <ele>7.2</ele>
        <time>2020-06-12T06:48:38Z</time>
      </trkpt>
      <trkpt lat="49.2887" lon="-1.66464">
        <ele>7.2</ele>
        <time>2020-06-12T06:48:39Z</time>
      </trkpt>
      <trkpt lat="49.28877" lon="-1.66467">
        <ele>7.2</ele>
        <time>2020-06-12T06:48:40Z</time>
      </trkpt>
      <trkpt lat="49.28883" lon="-1.6647">
        <ele>7.1</ele>
        <time>2020-06-12T06:48:41Z</time>
      </trkpt>
      <trkpt lat="49.2889" lon="-1.66471">
        <ele>7.1</ele>
        <time>2020-06-12T06:48:42Z</time>
      </trkpt>
      <trkpt lat="49.28896" lon="-1.66472">
        <ele>7.1</ele>
        <time>2020-06-12T06:48:43Z</time>
      </trkpt>
      <trkpt lat="49.28902" lon="-1.66474">
        <ele>7.1</ele>
        <time>2020-06-12T06:48:44Z</time>
      </trkpt>
      <trkpt lat="49.28908" lon="-1.66476">
        <ele>7</ele>
        <time>2020-06-12T06:48:45Z</time>
      </trkpt>
      <trkpt lat="49.28914" lon="-1.6648">
        <ele>7</ele>
        <time>2020-06-12T06:48:46Z</time>
      </trkpt>
      <trkpt lat="49.2892" lon="-1.66483">
        <ele>6.9</ele>
        <time>2020-06-12T06:48:47Z</time>
      </trkpt>
      <trkpt lat="49.28926" lon="-1.66486">
        <ele>6.9</ele>
        <time>2020-06-12T06:48:48Z</time>
      </trkpt>
      <trkpt lat="49.28932" lon="-1.66489">
        <ele>6.9</ele>
        <time>2020-06-12T06:48:49Z</time>
      </trkpt>
      <trkpt lat="49.28937" lon="-1.66491">
        <ele>6.8</ele>
        <time>2020-06-12T06:48:50Z</time>
      </trkpt>
      <trkpt lat="49.28943" lon="-1.66492">
        <ele>6.8</ele>
        <time>2020-06-12T06:48:51Z</time>
      </trkpt>
      <trkpt lat="49.28949" lon="-1.66495">
        <ele>6.8</ele>
        <time>2020-06-12T06:48:52Z</time>
      </trkpt>
      <trkpt lat="49.28952" lon="-1.66495">
        <ele>6.8</ele>
        <time>2020-06-12T06:48:53Z</time>
      </trkpt>
      <trkpt lat="49.28959" lon="-1.66497">
        <ele>6.7</ele>
        <time>2020-06-12T06:48:54Z</time>
      </trkpt>
      <trkpt lat="49.28965" lon="-1.66499">
        <ele>6.7</ele>
        <time>2020-06-12T06:48:55Z</time>
      </trkpt>
      <trkpt lat="49.28971" lon="-1.665">
        <ele>6.7</ele>
        <time>2020-06-12T06:48:56Z</time>
      </trkpt>
      <trkpt lat="49.28977" lon="-1.66502">
        <ele>6.7</ele>
        <time>2020-06-12T06:48:57Z</time>
      </trkpt>
      <trkpt lat="49.28983" lon="-1.66504">
        <ele>6.7</ele>
        <time>2020-06-12T06:48:58Z</time>
      </trkpt>
      <trkpt lat="49.28988" lon="-1.66506">
        <ele>6.7</ele>
        <time>2020-06-12T06:48:59Z</time>
      </trkpt>
      <trkpt lat="49.28994" lon="-1.66509">
        <ele>6.8</ele>
        <time>2020-06-12T06:49:00Z</time>
      </trkpt>
      <trkpt lat="49.28998" lon="-1.6651">
        <ele>6.8</ele>
        <time>2020-06-12T06:49:01Z</time>
      </trkpt>
      <trkpt lat="49.29004" lon="-1.66512">
        <ele>6.8</ele>
        <time>2020-06-12T06:49:02Z</time>
      </trkpt>
      <trkpt lat="49.2901" lon="-1.66514">
        <ele>6.8</ele>
        <time>2020-06-12T06:49:03Z</time>
      </trkpt>
      <trkpt lat="49.29015" lon="-1.66516">
        <ele>6.8</ele>
        <time>2020-06-12T06:49:04Z</time>
      </trkpt>
      <trkpt lat="49.2902" lon="-1.66518">
        <ele>6.7</ele>
        <time>2020-06-12T06:49:05Z</time>
      </trkpt>
      <trkpt lat="49.29026" lon="-1.66521">
        <ele>6.7</ele>
        <time>2020-06-12T06:49:06Z</time>
      </trkpt>
      <trkpt lat="49.2903" lon="-1.66523">
        <ele>6.6</ele>
        <time>2020-06-12T06:49:07Z</time>
      </trkpt>
      <trkpt lat="49.29035" lon="-1.66525">
        <ele>6.6</ele>
        <time>2020-06-12T06:49:08Z</time>
      </trkpt>
      <trkpt lat="49.2904" lon="-1.66528">
        <ele>6.5</ele>
        <time>2020-06-12T06:49:09Z</time>
      </trkpt>
      <trkpt lat="49.29045" lon="-1.66529">
        <ele>6.5</ele>
        <time>2020-06-12T06:49:10Z</time>
      </trkpt>
      <trkpt lat="49.2905" lon="-1.66531">
        <ele>6.5</ele>
        <time>2020-06-12T06:49:11Z</time>
      </trkpt>
      <trkpt lat="49.29056" lon="-1.66534">
        <ele>6.5</ele>
        <time>2020-06-12T06:49:12Z</time>
      </trkpt>
      <trkpt lat="49.29062" lon="-1.66537">
        <ele>6.5</ele>
        <time>2020-06-12T06:49:13Z</time>
      </trkpt>
      <trkpt lat="49.29068" lon="-1.66539">
        <ele>6.5</ele>
        <time>2020-06-12T06:49:14Z</time>
      </trkpt>
      <trkpt lat="49.29073" lon="-1.66541">
        <ele>6.5</ele>
        <time>2020-06-12T06:49:15Z</time>
      </trkpt>
      <trkpt lat="49.29079" lon="-1.66544">
        <ele>6.5</ele>
        <time>2020-06-12T06:49:16Z</time>
      </trkpt>
      <trkpt lat="49.29085" lon="-1.66548">
        <ele>6.6</ele>
        <time>2020-06-12T06:49:17Z</time>
      </trkpt>
      <trkpt lat="49.29089" lon="-1.66549">
        <ele>6.6</ele>
        <time>2020-06-12T06:49:18Z</time>
      </trkpt>
      <trkpt lat="49.29094" lon="-1.66552">
        <ele>6.6</ele>
        <time>2020-06-12T06:49:19Z</time>
      </trkpt>
      <trkpt lat="49.291" lon="-1.66555">
        <ele>6.6</ele>
        <time>2020-06-12T06:49:20Z</time>
      </trkpt>
      <trkpt lat="49.29106" lon="-1.66557">
        <ele>6.6</ele>
        <time>2020-06-12T06:49:21Z</time>
      </trkpt>
      <trkpt lat="49.29112" lon="-1.66559">
        <ele>6.6</ele>
        <time>2020-06-12T06:49:22Z</time>
      </trkpt>
      <trkpt lat="49.29117" lon="-1.66561">
        <ele>6.6</ele>
        <time>2020-06-12T06:49:23Z</time>
      </trkpt>
      <trkpt lat="49.29122" lon="-1.66564">
        <ele>6.6</ele>
        <time>2020-06-12T06:49:24Z</time>
      </trkpt>
      <trkpt lat="49.29127" lon="-1.66567">
        <ele>6.6</ele>
        <time>2020-06-12T06:49:25Z</time>
      </trkpt>
      <trkpt lat="49.29132" lon="-1.66569">
        <ele>6.6</ele>
        <time>2020-06-12T06:49:26Z</time>
      </trkpt>
      <trkpt lat="49.29137" lon="-1.66571">
        <ele>6.6</ele>
        <time>2020-06-12T06:49:27Z</time>
      </trkpt>
      <trkpt lat="49.29143" lon="-1.66574">
        <ele>6.6</ele>
        <time>2020-06-12T06:49:28Z</time>
      </trkpt>
      <trkpt lat="49.29148" lon="-1.66576">
        <ele>6.7</ele>
        <time>2020-06-12T06:49:29Z</time>
      </trkpt>
      <trkpt lat="49.29152" lon="-1.66579">
        <ele>6.7</ele>
        <time>2020-06-12T06:49:30Z</time>
      </trkpt>
      <trkpt lat="49.29157" lon="-1.66582">
        <ele>6.7</ele>
        <time>2020-06-12T06:49:31Z</time>
      </trkpt>
      <trkpt lat="49.29161" lon="-1.66585">
        <ele>6.7</ele>
        <time>2020-06-12T06:49:32Z</time>
      </trkpt>
      <trkpt lat="49.29166" lon="-1.66589">
        <ele>6.7</ele>
        <time>2020-06-12T06:49:33Z</time>
      </trkpt>
      <trkpt lat="49.29171" lon="-1.66595">
        <ele>6.6</ele>
        <time>2020-06-12T06:49:34Z</time>
      </trkpt>
      <trkpt lat="49.29175" lon="-1.66598">
        <ele>6.6</ele>
        <time>2020-06-12T06:49:35Z</time>
      </trkpt>
      <trkpt lat="49.2918" lon="-1.66602">
        <ele>6.6</ele>
        <time>2020-06-12T06:49:36Z</time>
      </trkpt>
      <trkpt lat="49.29184" lon="-1.66605">
        <ele>6.6</ele>
        <time>2020-06-12T06:49:37Z</time>
      </trkpt>
      <trkpt lat="49.29188" lon="-1.66607">
        <ele>6.7</ele>
        <time>2020-06-12T06:49:38Z</time>
      </trkpt>
      <trkpt lat="49.29191" lon="-1.66609">
        <ele>6.7</ele>
        <time>2020-06-12T06:49:39Z</time>
      </trkpt>
      <trkpt lat="49.29195" lon="-1.66612">
        <ele>6.7</ele>
        <time>2020-06-12T06:49:40Z</time>
      </trkpt>
      <trkpt lat="49.29198" lon="-1.66614">
        <ele>6.6</ele>
        <time>2020-06-12T06:49:41Z</time>
      </trkpt>
      <trkpt lat="49.29201" lon="-1.66617">
        <ele>6.5</ele>
        <time>2020-06-12T06:49:42Z</time>
      </trkpt>
      <trkpt lat="49.29203" lon="-1.6662">
        <ele>6.3</ele>
        <time>2020-06-12T06:49:43Z</time>
      </trkpt>
      <trkpt lat="49.29206" lon="-1.66622">
        <ele>6.3</ele>
        <time>2020-06-12T06:49:44Z</time>
      </trkpt>
      <trkpt lat="49.29208" lon="-1.66625">
        <ele>6.3</ele>
        <time>2020-06-12T06:49:45Z</time>
      </trkpt>
      <trkpt lat="49.29211" lon="-1.66628">
        <ele>6.3</ele>
        <time>2020-06-12T06:49:46Z</time>
      </trkpt>
      <trkpt lat="49.29215" lon="-1.66631">
        <ele>6.3</ele>
        <time>2020-06-12T06:49:47Z</time>
      </trkpt>
      <trkpt lat="49.29217" lon="-1.66633">
        <ele>6.3</ele>
        <time>2020-06-12T06:49:48Z</time>
      </trkpt>
      <trkpt lat="49.2922" lon="-1.66632">
        <ele>6.3</ele>
        <time>2020-06-12T06:49:49Z</time>
      </trkpt>
      <trkpt lat="49.29222" lon="-1.66632">
        <ele>6.3</ele>
        <time>2020-06-12T06:49:50Z</time>
      </trkpt>
      <trkpt lat="49.29225" lon="-1.66631">
        <ele>6.3</ele>
        <time>2020-06-12T06:49:51Z</time>
      </trkpt>
      <trkpt lat="49.29229" lon="-1.66631">
        <ele>6.3</ele>
        <time>2020-06-12T06:49:52Z</time>
      </trkpt>
      <trkpt lat="49.29231" lon="-1.66632">
        <ele>6.3</ele>
        <time>2020-06-12T06:49:53Z</time>
      </trkpt>
      <trkpt lat="49.29234" lon="-1.66634">
        <ele>6.3</ele>
        <time>2020-06-12T06:49:54Z</time>
      </trkpt>
      <trkpt lat="49.29236" lon="-1.66637">
        <ele>6.3</ele>
        <time>2020-06-12T06:49:55Z</time>
      </trkpt>
      <trkpt lat="49.29237" lon="-1.66637">
        <ele>6.3</ele>
        <time>2020-06-12T06:49:56Z</time>
      </trkpt>
      <trkpt lat="49.29237" lon="-1.6664">
        <ele>6.3</ele>
        <time>2020-06-12T06:49:57Z</time>
      </trkpt>
      <trkpt lat="49.29238" lon="-1.66641">
        <ele>6.3</ele>
        <time>2020-06-12T06:49:58Z</time>
      </trkpt>
      <trkpt lat="49.29238" lon="-1.6664">
        <ele>6.3</ele>
        <time>2020-06-12T06:49:59Z</time>
      </trkpt>
      <trkpt lat="49.29238" lon="-1.66641">
        <ele>6.3</ele>
        <time>2020-06-12T06:50:00Z</time>
      </trkpt>
      <trkpt lat="49.29237" lon="-1.66641">
        <ele>6.3</ele>
        <time>2020-06-12T06:50:01Z</time>
      </trkpt>
      <trkpt lat="49.29237" lon="-1.66641">
        <ele>6.3</ele>
        <time>2020-06-12T06:50:02Z</time>
      </trkpt>
      <trkpt lat="49.29237" lon="-1.6664">
        <ele>6.3</ele>
        <time>2020-06-12T06:50:03Z</time>
      </trkpt>
      <trkpt lat="49.29237" lon="-1.6664">
        <ele>6.3</ele>
        <time>2020-06-12T06:50:04Z</time>
      </trkpt>
      <trkpt lat="49.29237" lon="-1.66639">
        <ele>6.3</ele>
        <time>2020-06-12T06:50:05Z</time>
      </trkpt>
      <trkpt lat="49.29238" lon="-1.66639">
        <ele>6.3</ele>
        <time>2020-06-12T06:50:06Z</time>
      </trkpt>
      <trkpt lat="49.29238" lon="-1.66636">
        <ele>6.2</ele>
        <time>2020-06-12T06:50:07Z</time>
      </trkpt>
      <trkpt lat="49.29239" lon="-1.66634">
        <ele>6.2</ele>
        <time>2020-06-12T06:50:08Z</time>
      </trkpt>
      <trkpt lat="49.2924" lon="-1.66638">
        <ele>6.2</ele>
        <time>2020-06-12T06:50:09Z</time>
      </trkpt>
      <trkpt lat="49.29241" lon="-1.66642">
        <ele>6.2</ele>
        <time>2020-06-12T06:50:10Z</time>
      </trkpt>
      <trkpt lat="49.29241" lon="-1.66646">
        <ele>6.2</ele>
        <time>2020-06-12T06:57:06Z</time>
      </trkpt>
      <trkpt lat="49.29241" lon="-1.66651">
        <ele>6.2</ele>
        <time>2020-06-12T06:57:07Z</time>
      </trkpt>
      <trkpt lat="49.29244" lon="-1.66653">
        <ele>6.2</ele>
        <time>2020-06-12T06:57:08Z</time>
      </trkpt>
      <trkpt lat="49.29246" lon="-1.66655">
        <ele>6.3</ele>
        <time>2020-06-12T06:57:09Z</time>
      </trkpt>
      <trkpt lat="49.2925" lon="-1.66659">
        <ele>6.3</ele>
        <time>2020-06-12T06:57:10Z</time>
      </trkpt>
      <trkpt lat="49.29252" lon="-1.66662">
        <ele>6.3</ele>
        <time>2020-06-12T06:57:11Z</time>
      </trkpt>
      <trkpt lat="49.29255" lon="-1.66665">
        <ele>6.3</ele>
        <time>2020-06-12T06:57:12Z</time>
      </trkpt>
      <trkpt lat="49.29259" lon="-1.66669">
        <ele>6.3</ele>
        <time>2020-06-12T06:57:13Z</time>
      </trkpt>
      <trkpt lat="49.29262" lon="-1.66674">
        <ele>6.3</ele>
        <time>2020-06-12T06:57:14Z</time>
      </trkpt>
      <trkpt lat="49.29266" lon="-1.6668">
        <ele>6.3</ele>
        <time>2020-06-12T06:57:15Z</time>
      </trkpt>
      <trkpt lat="49.2927" lon="-1.66686">
        <ele>6.3</ele>
        <time>2020-06-12T06:57:16Z</time>
      </trkpt>
      <trkpt lat="49.29275" lon="-1.66691">
        <ele>6.3</ele>
        <time>2020-06-12T06:57:17Z</time>
      </trkpt>
      <trkpt lat="49.29279" lon="-1.66696">
        <ele>6.3</ele>
        <time>2020-06-12T06:57:18Z</time>
      </trkpt>
      <trkpt lat="49.29283" lon="-1.66701">
        <ele>6.3</ele>
        <time>2020-06-12T06:57:19Z</time>
      </trkpt>
      <trkpt lat="49.29288" lon="-1.66707">
        <ele>6.3</ele>
        <time>2020-06-12T06:57:20Z</time>
      </trkpt>
      <trkpt lat="49.29293" lon="-1.66712">
        <ele>6.3</ele>
        <time>2020-06-12T06:57:21Z</time>
      </trkpt>
      <trkpt lat="49.29298" lon="-1.66718">
        <ele>6.4</ele>
        <time>2020-06-12T06:57:22Z</time>
      </trkpt>
      <trkpt lat="49.29303" lon="-1.66724">
        <ele>6.4</ele>
        <time>2020-06-12T06:57:23Z</time>
      </trkpt>
      <trkpt lat="49.29309" lon="-1.66729">
        <ele>6.5</ele>
        <time>2020-06-12T06:57:24Z</time>
      </trkpt>
      <trkpt lat="49.29314" lon="-1.66735">
        <ele>6.5</ele>
        <time>2020-06-12T06:57:25Z</time>
      </trkpt>
      <trkpt lat="49.29319" lon="-1.66742">
        <ele>6.5</ele>
        <time>2020-06-12T06:57:26Z</time>
      </trkpt>
      <trkpt lat="49.29324" lon="-1.66748">
        <ele>6.6</ele>
        <time>2020-06-12T06:57:27Z</time>
      </trkpt>
      <trkpt lat="49.29329" lon="-1.66754">
        <ele>6.6</ele>
        <time>2020-06-12T06:57:28Z</time>
      </trkpt>
      <trkpt lat="49.29334" lon="-1.66761">
        <ele>6.6</ele>
        <time>2020-06-12T06:57:29Z</time>
      </trkpt>
      <trkpt lat="49.29339" lon="-1.66766">
        <ele>6.7</ele>
        <time>2020-06-12T06:57:30Z</time>
      </trkpt>
      <trkpt lat="49.29344" lon="-1.66773">
        <ele>6.7</ele>
        <time>2020-06-12T06:57:31Z</time>
      </trkpt>
      <trkpt lat="49.29349" lon="-1.66779">
        <ele>6.7</ele>
        <time>2020-06-12T06:57:32Z</time>
      </trkpt>
      <trkpt lat="49.29354" lon="-1.66784">
        <ele>6.7</ele>
        <time>2020-06-12T06:57:33Z</time>
      </trkpt>
      <trkpt lat="49.29358" lon="-1.66788">
        <ele>6.8</ele>
        <time>2020-06-12T06:57:34Z</time>
      </trkpt>
      <trkpt lat="49.29364" lon="-1.66794">
        <ele>6.8</ele>
        <time>2020-06-12T06:57:35Z</time>
      </trkpt>
      <trkpt lat="49.29368" lon="-1.66799">
        <ele>6.8</ele>
        <time>2020-06-12T06:57:36Z</time>
      </trkpt>
      <trkpt lat="49.29373" lon="-1.66806">
        <ele>6.9</ele>
        <time>2020-06-12T06:57:37Z</time>
      </trkpt>
      <trkpt lat="49.29378" lon="-1.66812">
        <ele>6.9</ele>
        <time>2020-06-12T06:57:38Z</time>
      </trkpt>
      <trkpt lat="49.29383" lon="-1.66819">
        <ele>7</ele>
        <time>2020-06-12T06:57:39Z</time>
      </trkpt>
      <trkpt lat="49.29388" lon="-1.66823">
        <ele>7</ele>
        <time>2020-06-12T06:57:40Z</time>
      </trkpt>
      <trkpt lat="49.29394" lon="-1.66828">
        <ele>7.1</ele>
        <time>2020-06-12T06:57:41Z</time>
      </trkpt>
      <trkpt lat="49.29399" lon="-1.66833">
        <ele>7.1</ele>
        <time>2020-06-12T06:57:42Z</time>
      </trkpt>
      <trkpt lat="49.29405" lon="-1.66838">
        <ele>7.1</ele>
        <time>2020-06-12T06:57:43Z</time>
      </trkpt>
      <trkpt lat="49.29411" lon="-1.66842">
        <ele>7.1</ele>
        <time>2020-06-12T06:57:44Z</time>
      </trkpt>
      <trkpt lat="49.29416" lon="-1.66847">
        <ele>7</ele>
        <time>2020-06-12T06:57:45Z</time>
      </trkpt>
      <trkpt lat="49.29422" lon="-1.66852">
        <ele>7</ele>
        <time>2020-06-12T06:57:46Z</time>
      </trkpt>
      <trkpt lat="49.29428" lon="-1.66858">
        <ele>7</ele>
        <time>2020-06-12T06:57:47Z</time>
      </trkpt>
      <trkpt lat="49.29434" lon="-1.66863">
        <ele>7</ele>
        <time>2020-06-12T06:57:48Z</time>
      </trkpt>
      <trkpt lat="49.29439" lon="-1.66869">
        <ele>6.9</ele>
        <time>2020-06-12T06:57:49Z</time>
      </trkpt>
      <trkpt lat="49.29445" lon="-1.66873">
        <ele>6.9</ele>
        <time>2020-06-12T06:57:50Z</time>
      </trkpt>
      <trkpt lat="49.2945" lon="-1.66878">
        <ele>6.8</ele>
        <time>2020-06-12T06:57:51Z</time>
      </trkpt>
      <trkpt lat="49.29455" lon="-1.66882">
        <ele>6.8</ele>
        <time>2020-06-12T06:57:52Z</time>
      </trkpt>
      <trkpt lat="49.29461" lon="-1.66887">
        <ele>6.8</ele>
        <time>2020-06-12T06:57:53Z</time>
      </trkpt>
      <trkpt lat="49.29466" lon="-1.66892">
        <ele>6.8</ele>
        <time>2020-06-12T06:57:54Z</time>
      </trkpt>
      <trkpt lat="49.29472" lon="-1.66897">
        <ele>6.8</ele>
        <time>2020-06-12T06:57:55Z</time>
      </trkpt>
      <trkpt lat="49.29477" lon="-1.66901">
        <ele>6.7</ele>
        <time>2020-06-12T06:57:56Z</time>
      </trkpt>
      <trkpt lat="49.29482" lon="-1.66906">
        <ele>6.7</ele>
        <time>2020-06-12T06:57:57Z</time>
      </trkpt>
      <trkpt lat="49.29487" lon="-1.6691">
        <ele>6.7</ele>
        <time>2020-06-12T06:57:58Z</time>
      </trkpt>
      <trkpt lat="49.29492" lon="-1.66914">
        <ele>6.7</ele>
        <time>2020-06-12T06:57:59Z</time>
      </trkpt>
      <trkpt lat="49.29498" lon="-1.6692">
        <ele>6.7</ele>
        <time>2020-06-12T06:58:00Z</time>
      </trkpt>
      <trkpt lat="49.29503" lon="-1.66925">
        <ele>6.7</ele>
        <time>2020-06-12T06:58:01Z</time>
      </trkpt>
      <trkpt lat="49.29509" lon="-1.6693">
        <ele>6.7</ele>
        <time>2020-06-12T06:58:02Z</time>
      </trkpt>
      <trkpt lat="49.29514" lon="-1.66935">
        <ele>6.7</ele>
        <time>2020-06-12T06:58:03Z</time>
      </trkpt>
      <trkpt lat="49.29519" lon="-1.6694">
        <ele>6.7</ele>
        <time>2020-06-12T06:58:04Z</time>
      </trkpt>
      <trkpt lat="49.29524" lon="-1.66945">
        <ele>6.6</ele>
        <time>2020-06-12T06:58:05Z</time>
      </trkpt>
      <trkpt lat="49.29529" lon="-1.6695">
        <ele>6.6</ele>
        <time>2020-06-12T06:58:06Z</time>
      </trkpt>
      <trkpt lat="49.29534" lon="-1.66955">
        <ele>6.6</ele>
        <time>2020-06-12T06:58:07Z</time>
      </trkpt>
      <trkpt lat="49.2954" lon="-1.6696">
        <ele>6.6</ele>
        <time>2020-06-12T06:58:08Z</time>
      </trkpt>
      <trkpt lat="49.29546" lon="-1.66965">
        <ele>6.5</ele>
        <time>2020-06-12T06:58:09Z</time>
      </trkpt>
      <trkpt lat="49.29552" lon="-1.6697">
        <ele>6.5</ele>
        <time>2020-06-12T06:58:10Z</time>
      </trkpt>
      <trkpt lat="49.29558" lon="-1.66976">
        <ele>6.5</ele>
        <time>2020-06-12T06:58:11Z</time>
      </trkpt>
      <trkpt lat="49.29563" lon="-1.66981">
        <ele>6.6</ele>
        <time>2020-06-12T06:58:12Z</time>
      </trkpt>
      <trkpt lat="49.29569" lon="-1.66985">
        <ele>6.6</ele>
        <time>2020-06-12T06:58:13Z</time>
      </trkpt>
      <trkpt lat="49.29575" lon="-1.66991">
        <ele>6.7</ele>
        <time>2020-06-12T06:58:14Z</time>
      </trkpt>
      <trkpt lat="49.29581" lon="-1.66996">
        <ele>6.7</ele>
        <time>2020-06-12T06:58:15Z</time>
      </trkpt>
      <trkpt lat="49.29586" lon="-1.67001">
        <ele>6.7</ele>
        <time>2020-06-12T06:58:16Z</time>
      </trkpt>
      <trkpt lat="49.29593" lon="-1.67005">
        <ele>6.7</ele>
        <time>2020-06-12T06:58:17Z</time>
      </trkpt>
      <trkpt lat="49.29598" lon="-1.6701">
        <ele>6.7</ele>
        <time>2020-06-12T06:58:18Z</time>
      </trkpt>
      <trkpt lat="49.29604" lon="-1.67014">
        <ele>6.6</ele>
        <time>2020-06-12T06:58:19Z</time>
      </trkpt>
      <trkpt lat="49.29609" lon="-1.67019">
        <ele>6.6</ele>
        <time>2020-06-12T06:58:20Z</time>
      </trkpt>
      <trkpt lat="49.29615" lon="-1.67025">
        <ele>6.6</ele>
        <time>2020-06-12T06:58:21Z</time>
      </trkpt>
      <trkpt lat="49.2962" lon="-1.6703">
        <ele>6.6</ele>
        <time>2020-06-12T06:58:22Z</time>
      </trkpt>
      <trkpt lat="49.29626" lon="-1.67035">
        <ele>6.5</ele>
        <time>2020-06-12T06:58:23Z</time>
      </trkpt>
      <trkpt lat="49.29632" lon="-1.67041">
        <ele>6.5</ele>
        <time>2020-06-12T06:58:24Z</time>
      </trkpt>
      <trkpt lat="49.29637" lon="-1.67046">
        <ele>6.5</ele>
        <time>2020-06-12T06:58:25Z</time>
      </trkpt>
      <trkpt lat="49.29642" lon="-1.67052">
        <ele>6.4</ele>
        <time>2020-06-12T06:58:26Z</time>
      </trkpt>
      <trkpt lat="49.29648" lon="-1.67057">
        <ele>6.4</ele>
        <time>2020-06-12T06:58:27Z</time>
      </trkpt>
      <trkpt lat="49.29653" lon="-1.67063">
        <ele>6.4</ele>
        <time>2020-06-12T06:58:28Z</time>
      </trkpt>
      <trkpt lat="49.29659" lon="-1.67068">
        <ele>6.3</ele>
        <time>2020-06-12T06:58:29Z</time>
      </trkpt>
      <trkpt lat="49.29665" lon="-1.67073">
        <ele>6.3</ele>
        <time>2020-06-12T06:58:30Z</time>
      </trkpt>
      <trkpt lat="49.2967" lon="-1.67078">
        <ele>6.2</ele>
        <time>2020-06-12T06:58:31Z</time>
      </trkpt>
      <trkpt lat="49.29676" lon="-1.67083">
        <ele>6.2</ele>
        <time>2020-06-12T06:58:32Z</time>
      </trkpt>
      <trkpt lat="49.29682" lon="-1.67088">
        <ele>6.2</ele>
        <time>2020-06-12T06:58:33Z</time>
      </trkpt>
      <trkpt lat="49.29688" lon="-1.67094">
        <ele>6.1</ele>
        <time>2020-06-12T06:58:34Z</time>
      </trkpt>
      <trkpt lat="49.29694" lon="-1.67099">
        <ele>6.1</ele>
        <time>2020-06-12T06:58:35Z</time>
      </trkpt>
      <trkpt lat="49.29699" lon="-1.67105">
        <ele>6.1</ele>
        <time>2020-06-12T06:58:36Z</time>
      </trkpt>
      <trkpt lat="49.29706" lon="-1.6711">
        <ele>6</ele>
        <time>2020-06-12T06:58:37Z</time>
      </trkpt>
      <trkpt lat="49.29712" lon="-1.67116">
        <ele>6</ele>
        <time>2020-06-12T06:58:38Z</time>
      </trkpt>
      <trkpt lat="49.29717" lon="-1.67121">
        <ele>6</ele>
        <time>2020-06-12T06:58:39Z</time>
      </trkpt>
      <trkpt lat="49.29723" lon="-1.67127">
        <ele>5.9</ele>
        <time>2020-06-12T06:58:40Z</time>
      </trkpt>
      <trkpt lat="49.29729" lon="-1.67132">
        <ele>5.9</ele>
        <time>2020-06-12T06:58:41Z</time>
      </trkpt>
      <trkpt lat="49.29736" lon="-1.67139">
        <ele>5.9</ele>
        <time>2020-06-12T06:58:42Z</time>
      </trkpt>
      <trkpt lat="49.29741" lon="-1.67145">
        <ele>6</ele>
        <time>2020-06-12T06:58:43Z</time>
      </trkpt>
      <trkpt lat="49.29747" lon="-1.6715">
        <ele>6.1</ele>
        <time>2020-06-12T06:58:44Z</time>
      </trkpt>
      <trkpt lat="49.29752" lon="-1.67156">
        <ele>6.3</ele>
        <time>2020-06-12T06:58:45Z</time>
      </trkpt>
      <trkpt lat="49.29758" lon="-1.67162">
        <ele>6.4</ele>
        <time>2020-06-12T06:58:46Z</time>
      </trkpt>
      <trkpt lat="49.29764" lon="-1.67168">
        <ele>6.4</ele>
        <time>2020-06-12T06:58:47Z</time>
      </trkpt>
      <trkpt lat="49.2977" lon="-1.67174">
        <ele>6.4</ele>
        <time>2020-06-12T06:58:48Z</time>
      </trkpt>
      <trkpt lat="49.29776" lon="-1.67179">
        <ele>6.4</ele>
        <time>2020-06-12T06:58:49Z</time>
      </trkpt>
      <trkpt lat="49.29781" lon="-1.67183">
        <ele>6.4</ele>
        <time>2020-06-12T06:58:50Z</time>
      </trkpt>
      <trkpt lat="49.29787" lon="-1.67188">
        <ele>6.4</ele>
        <time>2020-06-12T06:58:51Z</time>
      </trkpt>
      <trkpt lat="49.29793" lon="-1.67192">
        <ele>6.4</ele>
        <time>2020-06-12T06:58:52Z</time>
      </trkpt>
      <trkpt lat="49.29798" lon="-1.67196">
        <ele>6.4</ele>
        <time>2020-06-12T06:58:53Z</time>
      </trkpt>
      <trkpt lat="49.29804" lon="-1.67201">
        <ele>6.4</ele>
        <time>2020-06-12T06:58:54Z</time>
      </trkpt>
      <trkpt lat="49.2981" lon="-1.67205">
        <ele>6.4</ele>
        <time>2020-06-12T06:58:55Z</time>
      </trkpt>
      <trkpt lat="49.29815" lon="-1.6721">
        <ele>6.4</ele>
        <time>2020-06-12T06:58:56Z</time>
      </trkpt>
      <trkpt lat="49.2982" lon="-1.67214">
        <ele>6.4</ele>
        <time>2020-06-12T06:58:57Z</time>
      </trkpt>
      <trkpt lat="49.29827" lon="-1.6722">
        <ele>6.4</ele>
        <time>2020-06-12T06:58:58Z</time>
      </trkpt>
      <trkpt lat="49.29833" lon="-1.67226">
        <ele>6.4</ele>
        <time>2020-06-12T06:58:59Z</time>
      </trkpt>
      <trkpt lat="49.29839" lon="-1.67231">
        <ele>6.4</ele>
        <time>2020-06-12T06:59:00Z</time>
      </trkpt>
      <trkpt lat="49.29845" lon="-1.67236">
        <ele>6.5</ele>
        <time>2020-06-12T06:59:01Z</time>
      </trkpt>
      <trkpt lat="49.2985" lon="-1.67241">
        <ele>6.5</ele>
        <time>2020-06-12T06:59:02Z</time>
      </trkpt>
      <trkpt lat="49.29857" lon="-1.67246">
        <ele>6.5</ele>
        <time>2020-06-12T06:59:03Z</time>
      </trkpt>
      <trkpt lat="49.29862" lon="-1.67251">
        <ele>6.5</ele>
        <time>2020-06-12T06:59:04Z</time>
      </trkpt>
      <trkpt lat="49.29868" lon="-1.67256">
        <ele>6.5</ele>
        <time>2020-06-12T06:59:05Z</time>
      </trkpt>
      <trkpt lat="49.29873" lon="-1.67261">
        <ele>6.5</ele>
        <time>2020-06-12T06:59:06Z</time>
      </trkpt>
      <trkpt lat="49.29877" lon="-1.67267">
        <ele>6.5</ele>
        <time>2020-06-12T06:59:07Z</time>
      </trkpt>
      <trkpt lat="49.29882" lon="-1.67271">
        <ele>6.6</ele>
        <time>2020-06-12T06:59:08Z</time>
      </trkpt>
      <trkpt lat="49.29886" lon="-1.67276">
        <ele>6.7</ele>
        <time>2020-06-12T06:59:09Z</time>
      </trkpt>
      <trkpt lat="49.29891" lon="-1.67282">
        <ele>6.8</ele>
        <time>2020-06-12T06:59:10Z</time>
      </trkpt>
      <trkpt lat="49.29897" lon="-1.67287">
        <ele>7</ele>
        <time>2020-06-12T06:59:11Z</time>
      </trkpt>
      <trkpt lat="49.29902" lon="-1.6729">
        <ele>7.1</ele>
        <time>2020-06-12T06:59:12Z</time>
      </trkpt>
      <trkpt lat="49.29906" lon="-1.67295">
        <ele>7</ele>
        <time>2020-06-12T06:59:13Z</time>
      </trkpt>
      <trkpt lat="49.29911" lon="-1.67299">
        <ele>6.9</ele>
        <time>2020-06-12T06:59:14Z</time>
      </trkpt>
      <trkpt lat="49.29917" lon="-1.67303">
        <ele>6.9</ele>
        <time>2020-06-12T06:59:15Z</time>
      </trkpt>
      <trkpt lat="49.29923" lon="-1.67307">
        <ele>6.9</ele>
        <time>2020-06-12T06:59:16Z</time>
      </trkpt>
      <trkpt lat="49.29929" lon="-1.67312">
        <ele>6.9</ele>
        <time>2020-06-12T06:59:17Z</time>
      </trkpt>
      <trkpt lat="49.29934" lon="-1.67315">
        <ele>6.9</ele>
        <time>2020-06-12T06:59:18Z</time>
      </trkpt>
      <trkpt lat="49.2994" lon="-1.67319">
        <ele>7</ele>
        <time>2020-06-12T06:59:19Z</time>
      </trkpt>
      <trkpt lat="49.29945" lon="-1.67323">
        <ele>7</ele>
        <time>2020-06-12T06:59:20Z</time>
      </trkpt>
      <trkpt lat="49.29951" lon="-1.67328">
        <ele>7</ele>
        <time>2020-06-12T06:59:21Z</time>
      </trkpt>
      <trkpt lat="49.29958" lon="-1.67334">
        <ele>7.1</ele>
        <time>2020-06-12T06:59:22Z</time>
      </trkpt>
      <trkpt lat="49.29964" lon="-1.67339">
        <ele>7.1</ele>
        <time>2020-06-12T06:59:23Z</time>
      </trkpt>
      <trkpt lat="49.29968" lon="-1.67343">
        <ele>7.1</ele>
        <time>2020-06-12T06:59:24Z</time>
      </trkpt>
      <trkpt lat="49.29973" lon="-1.67347">
        <ele>7.1</ele>
        <time>2020-06-12T06:59:25Z</time>
      </trkpt>
      <trkpt lat="49.29978" lon="-1.67352">
        <ele>7.1</ele>
        <time>2020-06-12T06:59:26Z</time>
      </trkpt>
      <trkpt lat="49.29983" lon="-1.67356">
        <ele>7.1</ele>
        <time>2020-06-12T06:59:27Z</time>
      </trkpt>
      <trkpt lat="49.29988" lon="-1.6736">
        <ele>7.1</ele>
        <time>2020-06-12T06:59:28Z</time>
      </trkpt>
      <trkpt lat="49.29994" lon="-1.67364">
        <ele>7.2</ele>
        <time>2020-06-12T06:59:29Z</time>
      </trkpt>
      <trkpt lat="49.29998" lon="-1.67368">
        <ele>7.2</ele>
        <time>2020-06-12T06:59:30Z</time>
      </trkpt>
      <trkpt lat="49.30003" lon="-1.67371">
        <ele>7.3</ele>
        <time>2020-06-12T06:59:31Z</time>
      </trkpt>
      <trkpt lat="49.30008" lon="-1.67374">
        <ele>7.4</ele>
        <time>2020-06-12T06:59:32Z</time>
      </trkpt>
      <trkpt lat="49.30014" lon="-1.67377">
        <ele>7.5</ele>
        <time>2020-06-12T06:59:33Z</time>
      </trkpt>
      <trkpt lat="49.3002" lon="-1.67381">
        <ele>7.7</ele>
        <time>2020-06-12T06:59:34Z</time>
      </trkpt>
      <trkpt lat="49.30026" lon="-1.67384">
        <ele>7.8</ele>
        <time>2020-06-12T06:59:35Z</time>
      </trkpt>
      <trkpt lat="49.30033" lon="-1.67388">
        <ele>7.8</ele>
        <time>2020-06-12T06:59:36Z</time>
      </trkpt>
      <trkpt lat="49.30039" lon="-1.67391">
        <ele>7.8</ele>
        <time>2020-06-12T06:59:37Z</time>
      </trkpt>
      <trkpt lat="49.30045" lon="-1.67395">
        <ele>7.9</ele>
        <time>2020-06-12T06:59:38Z</time>
      </trkpt>
      <trkpt lat="49.3005" lon="-1.67399">
        <ele>7.9</ele>
        <time>2020-06-12T06:59:39Z</time>
      </trkpt>
      <trkpt lat="49.30055" lon="-1.67403">
        <ele>7.9</ele>
        <time>2020-06-12T06:59:40Z</time>
      </trkpt>
      <trkpt lat="49.3006" lon="-1.67407">
        <ele>7.9</ele>
        <time>2020-06-12T06:59:41Z</time>
      </trkpt>
      <trkpt lat="49.30064" lon="-1.6741">
        <ele>7.9</ele>
        <time>2020-06-12T06:59:42Z</time>
      </trkpt>
      <trkpt lat="49.30069" lon="-1.67413">
        <ele>7.9</ele>
        <time>2020-06-12T06:59:43Z</time>
      </trkpt>
      <trkpt lat="49.30074" lon="-1.67416">
        <ele>7.9</ele>
        <time>2020-06-12T06:59:44Z</time>
      </trkpt>
      <trkpt lat="49.30078" lon="-1.67419">
        <ele>7.9</ele>
        <time>2020-06-12T06:59:45Z</time>
      </trkpt>
      <trkpt lat="49.30082" lon="-1.6742">
        <ele>7.9</ele>
        <time>2020-06-12T06:59:46Z</time>
      </trkpt>
      <trkpt lat="49.30087" lon="-1.67423">
        <ele>7.9</ele>
        <time>2020-06-12T06:59:47Z</time>
      </trkpt>
      <trkpt lat="49.30093" lon="-1.67426">
        <ele>8</ele>
        <time>2020-06-12T06:59:48Z</time>
      </trkpt>
      <trkpt lat="49.30099" lon="-1.67428">
        <ele>8</ele>
        <time>2020-06-12T06:59:49Z</time>
      </trkpt>
      <trkpt lat="49.30105" lon="-1.67431">
        <ele>8</ele>
        <time>2020-06-12T06:59:50Z</time>
      </trkpt>
      <trkpt lat="49.30111" lon="-1.67434">
        <ele>8</ele>
        <time>2020-06-12T06:59:51Z</time>
      </trkpt>
      <trkpt lat="49.30117" lon="-1.67437">
        <ele>8</ele>
        <time>2020-06-12T06:59:52Z</time>
      </trkpt>
      <trkpt lat="49.30123" lon="-1.6744">
        <ele>8</ele>
        <time>2020-06-12T06:59:53Z</time>
      </trkpt>
      <trkpt lat="49.30129" lon="-1.67444">
        <ele>8</ele>
        <time>2020-06-12T06:59:54Z</time>
      </trkpt>
      <trkpt lat="49.30135" lon="-1.67447">
        <ele>8.1</ele>
        <time>2020-06-12T06:59:55Z</time>
      </trkpt>
      <trkpt lat="49.30141" lon="-1.67449">
        <ele>8.2</ele>
        <time>2020-06-12T06:59:56Z</time>
      </trkpt>
      <trkpt lat="49.30147" lon="-1.67452">
        <ele>8.3</ele>
        <time>2020-06-12T06:59:57Z</time>
      </trkpt>
      <trkpt lat="49.30152" lon="-1.67454">
        <ele>8.4</ele>
        <time>2020-06-12T06:59:58Z</time>
      </trkpt>
      <trkpt lat="49.30159" lon="-1.67458">
        <ele>8.4</ele>
        <time>2020-06-12T06:59:59Z</time>
      </trkpt>
      <trkpt lat="49.30164" lon="-1.6746">
        <ele>8.4</ele>
        <time>2020-06-12T07:00:00Z</time>
      </trkpt>
      <trkpt lat="49.3017" lon="-1.67463">
        <ele>8.4</ele>
        <time>2020-06-12T07:00:01Z</time>
      </trkpt>
      <trkpt lat="49.30176" lon="-1.67464">
        <ele>8.4</ele>
        <time>2020-06-12T07:00:02Z</time>
      </trkpt>
      <trkpt lat="49.30182" lon="-1.67466">
        <ele>8.4</ele>
        <time>2020-06-12T07:00:03Z</time>
      </trkpt>
      <trkpt lat="49.30188" lon="-1.67468">
        <ele>8.4</ele>
        <time>2020-06-12T07:00:04Z</time>
      </trkpt>
      <trkpt lat="49.30193" lon="-1.6747">
        <ele>8.4</ele>
        <time>2020-06-12T07:00:05Z</time>
      </trkpt>
      <trkpt lat="49.302" lon="-1.67471">
        <ele>8.4</ele>
        <time>2020-06-12T07:00:06Z</time>
      </trkpt>
      <trkpt lat="49.30207" lon="-1.67473">
        <ele>8.3</ele>
        <time>2020-06-12T07:00:07Z</time>
      </trkpt>
      <trkpt lat="49.30214" lon="-1.67475">
        <ele>8.3</ele>
        <time>2020-06-12T07:00:08Z</time>
      </trkpt>
      <trkpt lat="49.30221" lon="-1.67477">
        <ele>8.4</ele>
        <time>2020-06-12T07:00:09Z</time>
      </trkpt>
      <trkpt lat="49.30227" lon="-1.6748">
        <ele>8.5</ele>
        <time>2020-06-12T07:00:10Z</time>
      </trkpt>
      <trkpt lat="49.30235" lon="-1.67482">
        <ele>8.5</ele>
        <time>2020-06-12T07:00:11Z</time>
      </trkpt>
      <trkpt lat="49.3024" lon="-1.67485">
        <ele>8.6</ele>
        <time>2020-06-12T07:00:12Z</time>
      </trkpt>
      <trkpt lat="49.30245" lon="-1.67486">
        <ele>8.6</ele>
        <time>2020-06-12T07:00:13Z</time>
      </trkpt>
      <trkpt lat="49.3025" lon="-1.67488">
        <ele>8.6</ele>
        <time>2020-06-12T07:00:14Z</time>
      </trkpt>
      <trkpt lat="49.30257" lon="-1.6749">
        <ele>8.6</ele>
        <time>2020-06-12T07:00:15Z</time>
      </trkpt>
      <trkpt lat="49.30263" lon="-1.67492">
        <ele>8.6</ele>
        <time>2020-06-12T07:00:16Z</time>
      </trkpt>
      <trkpt lat="49.30269" lon="-1.67495">
        <ele>8.7</ele>
        <time>2020-06-12T07:00:17Z</time>
      </trkpt>
      <trkpt lat="49.30274" lon="-1.67498">
        <ele>8.7</ele>
        <time>2020-06-12T07:00:18Z</time>
      </trkpt>
      <trkpt lat="49.30279" lon="-1.67501">
        <ele>8.7</ele>
        <time>2020-06-12T07:00:19Z</time>
      </trkpt>
      <trkpt lat="49.30285" lon="-1.67504">
        <ele>8.7</ele>
        <time>2020-06-12T07:00:20Z</time>
      </trkpt>
      <trkpt lat="49.30291" lon="-1.67507">
        <ele>8.8</ele>
        <time>2020-06-12T07:00:21Z</time>
      </trkpt>
      <trkpt lat="49.30296" lon="-1.6751">
        <ele>8.8</ele>
        <time>2020-06-12T07:00:22Z</time>
      </trkpt>
      <trkpt lat="49.30302" lon="-1.67512">
        <ele>8.8</ele>
        <time>2020-06-12T07:00:23Z</time>
      </trkpt>
      <trkpt lat="49.30308" lon="-1.67515">
        <ele>8.8</ele>
        <time>2020-06-12T07:00:24Z</time>
      </trkpt>
      <trkpt lat="49.30314" lon="-1.67517">
        <ele>8.9</ele>
        <time>2020-06-12T07:00:25Z</time>
      </trkpt>
      <trkpt lat="49.30321" lon="-1.6752">
        <ele>8.9</ele>
        <time>2020-06-12T07:00:26Z</time>
      </trkpt>
      <trkpt lat="49.30326" lon="-1.67522">
        <ele>8.9</ele>
        <time>2020-06-12T07:00:27Z</time>
      </trkpt>
      <trkpt lat="49.30332" lon="-1.67524">
        <ele>8.9</ele>
        <time>2020-06-12T07:00:28Z</time>
      </trkpt>
      <trkpt lat="49.30338" lon="-1.67526">
        <ele>8.9</ele>
        <time>2020-06-12T07:00:29Z</time>
      </trkpt>
      <trkpt lat="49.30344" lon="-1.67528">
        <ele>9</ele>
        <time>2020-06-12T07:00:30Z</time>
      </trkpt>
      <trkpt lat="49.3035" lon="-1.6753">
        <ele>9</ele>
        <time>2020-06-12T07:00:31Z</time>
      </trkpt>
      <trkpt lat="49.30356" lon="-1.67533">
        <ele>9.1</ele>
        <time>2020-06-12T07:00:32Z</time>
      </trkpt>
      <trkpt lat="49.30362" lon="-1.67536">
        <ele>9.2</ele>
        <time>2020-06-12T07:00:33Z</time>
      </trkpt>
      <trkpt lat="49.30367" lon="-1.67538">
        <ele>9.2</ele>
        <time>2020-06-12T07:00:34Z</time>
      </trkpt>
      <trkpt lat="49.30373" lon="-1.6754">
        <ele>9.2</ele>
        <time>2020-06-12T07:00:35Z</time>
      </trkpt>
      <trkpt lat="49.30379" lon="-1.67543">
        <ele>9.3</ele>
        <time>2020-06-12T07:00:36Z</time>
      </trkpt>
      <trkpt lat="49.30385" lon="-1.67545">
        <ele>9.3</ele>
        <time>2020-06-12T07:00:37Z</time>
      </trkpt>
      <trkpt lat="49.30391" lon="-1.67546">
        <ele>9.4</ele>
        <time>2020-06-12T07:00:38Z</time>
      </trkpt>
      <trkpt lat="49.30397" lon="-1.67548">
        <ele>9.4</ele>
        <time>2020-06-12T07:00:39Z</time>
      </trkpt>
      <trkpt lat="49.30403" lon="-1.67551">
        <ele>9.4</ele>
        <time>2020-06-12T07:00:40Z</time>
      </trkpt>
      <trkpt lat="49.3041" lon="-1.67554">
        <ele>9.4</ele>
        <time>2020-06-12T07:00:41Z</time>
      </trkpt>
      <trkpt lat="49.30416" lon="-1.67556">
        <ele>9.4</ele>
        <time>2020-06-12T07:00:42Z</time>
      </trkpt>
      <trkpt lat="49.30422" lon="-1.67559">
        <ele>9.5</ele>
        <time>2020-06-12T07:00:43Z</time>
      </trkpt>
      <trkpt lat="49.30428" lon="-1.67562">
        <ele>9.5</ele>
        <time>2020-06-12T07:00:44Z</time>
      </trkpt>
      <trkpt lat="49.30434" lon="-1.67565">
        <ele>9.5</ele>
        <time>2020-06-12T07:00:45Z</time>
      </trkpt>
      <trkpt lat="49.3044" lon="-1.67568">
        <ele>9.5</ele>
        <time>2020-06-12T07:00:46Z</time>
      </trkpt>
      <trkpt lat="49.30445" lon="-1.67571">
        <ele>9.6</ele>
        <time>2020-06-12T07:00:47Z</time>
      </trkpt>
      <trkpt lat="49.3045" lon="-1.67574">
        <ele>9.6</ele>
        <time>2020-06-12T07:00:48Z</time>
      </trkpt>
      <trkpt lat="49.30456" lon="-1.67577">
        <ele>9.6</ele>
        <time>2020-06-12T07:00:49Z</time>
      </trkpt>
      <trkpt lat="49.30461" lon="-1.6758">
        <ele>9.6</ele>
        <time>2020-06-12T07:00:50Z</time>
      </trkpt>
      <trkpt lat="49.30467" lon="-1.67582">
        <ele>9.6</ele>
        <time>2020-06-12T07:00:51Z</time>
      </trkpt>
      <trkpt lat="49.30472" lon="-1.67584">
        <ele>9.6</ele>
        <time>2020-06-12T07:00:52Z</time>
      </trkpt>
      <trkpt lat="49.30478" lon="-1.67586">
        <ele>9.6</ele>
        <time>2020-06-12T07:00:53Z</time>
      </trkpt>
      <trkpt lat="49.30484" lon="-1.67588">
        <ele>9.7</ele>
        <time>2020-06-12T07:00:54Z</time>
      </trkpt>
      <trkpt lat="49.3049" lon="-1.67591">
        <ele>9.7</ele>
        <time>2020-06-12T07:00:55Z</time>
      </trkpt>
      <trkpt lat="49.30496" lon="-1.67594">
        <ele>9.8</ele>
        <time>2020-06-12T07:00:56Z</time>
      </trkpt>
      <trkpt lat="49.30502" lon="-1.67598">
        <ele>9.8</ele>
        <time>2020-06-12T07:00:57Z</time>
      </trkpt>
      <trkpt lat="49.30507" lon="-1.67601">
        <ele>9.9</ele>
        <time>2020-06-12T07:00:58Z</time>
      </trkpt>
      <trkpt lat="49.30512" lon="-1.67605">
        <ele>9.9</ele>
        <time>2020-06-12T07:00:59Z</time>
      </trkpt>
      <trkpt lat="49.30518" lon="-1.67609">
        <ele>10</ele>
        <time>2020-06-12T07:01:00Z</time>
      </trkpt>
      <trkpt lat="49.30524" lon="-1.67612">
        <ele>10</ele>
        <time>2020-06-12T07:01:01Z</time>
      </trkpt>
      <trkpt lat="49.30528" lon="-1.67615">
        <ele>10.1</ele>
        <time>2020-06-12T07:01:02Z</time>
      </trkpt>
      <trkpt lat="49.30533" lon="-1.67618">
        <ele>10.1</ele>
        <time>2020-06-12T07:01:03Z</time>
      </trkpt>
      <trkpt lat="49.30539" lon="-1.67622">
        <ele>10.2</ele>
        <time>2020-06-12T07:01:04Z</time>
      </trkpt>
      <trkpt lat="49.30545" lon="-1.67626">
        <ele>10.2</ele>
        <time>2020-06-12T07:01:05Z</time>
      </trkpt>
      <trkpt lat="49.3055" lon="-1.67628">
        <ele>10.2</ele>
        <time>2020-06-12T07:01:06Z</time>
      </trkpt>
      <trkpt lat="49.30554" lon="-1.67631">
        <ele>10.2</ele>
        <time>2020-06-12T07:01:07Z</time>
      </trkpt>
      <trkpt lat="49.3056" lon="-1.67634">
        <ele>10.2</ele>
        <time>2020-06-12T07:01:08Z</time>
      </trkpt>
      <trkpt lat="49.30566" lon="-1.67637">
        <ele>10.2</ele>
        <time>2020-06-12T07:01:09Z</time>
      </trkpt>
      <trkpt lat="49.30571" lon="-1.67639">
        <ele>10.3</ele>
        <time>2020-06-12T07:01:10Z</time>
      </trkpt>
      <trkpt lat="49.30576" lon="-1.67643">
        <ele>10.3</ele>
        <time>2020-06-12T07:01:11Z</time>
      </trkpt>
      <trkpt lat="49.30582" lon="-1.67647">
        <ele>10.3</ele>
        <time>2020-06-12T07:01:12Z</time>
      </trkpt>
      <trkpt lat="49.30588" lon="-1.67651">
        <ele>10.4</ele>
        <time>2020-06-12T07:01:13Z</time>
      </trkpt>
      <trkpt lat="49.30593" lon="-1.67654">
        <ele>10.4</ele>
        <time>2020-06-12T07:01:14Z</time>
      </trkpt>
      <trkpt lat="49.30599" lon="-1.67658">
        <ele>10.5</ele>
        <time>2020-06-12T07:01:15Z</time>
      </trkpt>
      <trkpt lat="49.30604" lon="-1.6766">
        <ele>10.5</ele>
        <time>2020-06-12T07:01:16Z</time>
      </trkpt>
      <trkpt lat="49.30609" lon="-1.67662">
        <ele>10.6</ele>
        <time>2020-06-12T07:01:17Z</time>
      </trkpt>
      <trkpt lat="49.30616" lon="-1.67666">
        <ele>10.8</ele>
        <time>2020-06-12T07:01:18Z</time>
      </trkpt>
      <trkpt lat="49.30623" lon="-1.67669">
        <ele>10.7</ele>
        <time>2020-06-12T07:01:19Z</time>
      </trkpt>
      <trkpt lat="49.30628" lon="-1.67671">
        <ele>10.7</ele>
        <time>2020-06-12T07:01:20Z</time>
      </trkpt>
      <trkpt lat="49.30634" lon="-1.67673">
        <ele>10.6</ele>
        <time>2020-06-12T07:01:21Z</time>
      </trkpt>
      <trkpt lat="49.30641" lon="-1.67675">
        <ele>10.6</ele>
        <time>2020-06-12T07:01:22Z</time>
      </trkpt>
      <trkpt lat="49.30647" lon="-1.67678">
        <ele>10.6</ele>
        <time>2020-06-12T07:01:23Z</time>
      </trkpt>
      <trkpt lat="49.30652" lon="-1.67681">
        <ele>10.6</ele>
        <time>2020-06-12T07:01:24Z</time>
      </trkpt>
      <trkpt lat="49.30657" lon="-1.67684">
        <ele>10.6</ele>
        <time>2020-06-12T07:01:25Z</time>
      </trkpt>
      <trkpt lat="49.30662" lon="-1.67687">
        <ele>10.7</ele>
        <time>2020-06-12T07:01:26Z</time>
      </trkpt>
      <trkpt lat="49.30668" lon="-1.67691">
        <ele>10.7</ele>
        <time>2020-06-12T07:01:27Z</time>
      </trkpt>
      <trkpt lat="49.30674" lon="-1.67695">
        <ele>10.7</ele>
        <time>2020-06-12T07:01:28Z</time>
      </trkpt>
      <trkpt lat="49.30678" lon="-1.67697">
        <ele>10.7</ele>
        <time>2020-06-12T07:01:29Z</time>
      </trkpt>
      <trkpt lat="49.30683" lon="-1.677">
        <ele>10.8</ele>
        <time>2020-06-12T07:01:30Z</time>
      </trkpt>
      <trkpt lat="49.30688" lon="-1.67703">
        <ele>10.8</ele>
        <time>2020-06-12T07:01:31Z</time>
      </trkpt>
      <trkpt lat="49.30693" lon="-1.67706">
        <ele>10.8</ele>
        <time>2020-06-12T07:01:32Z</time>
      </trkpt>
      <trkpt lat="49.307" lon="-1.6771">
        <ele>10.9</ele>
        <time>2020-06-12T07:01:33Z</time>
      </trkpt>
      <trkpt lat="49.30707" lon="-1.67714">
        <ele>10.9</ele>
        <time>2020-06-12T07:01:34Z</time>
      </trkpt>
      <trkpt lat="49.30712" lon="-1.67716">
        <ele>11</ele>
        <time>2020-06-12T07:01:35Z</time>
      </trkpt>
      <trkpt lat="49.30718" lon="-1.67719">
        <ele>11</ele>
        <time>2020-06-12T07:01:36Z</time>
      </trkpt>
      <trkpt lat="49.30723" lon="-1.67721">
        <ele>11</ele>
        <time>2020-06-12T07:01:37Z</time>
      </trkpt>
      <trkpt lat="49.30729" lon="-1.67723">
        <ele>11.1</ele>
        <time>2020-06-12T07:01:38Z</time>
      </trkpt>
      <trkpt lat="49.30734" lon="-1.67726">
        <ele>11.1</ele>
        <time>2020-06-12T07:01:39Z</time>
      </trkpt>
      <trkpt lat="49.30741" lon="-1.67729">
        <ele>11.2</ele>
        <time>2020-06-12T07:01:40Z</time>
      </trkpt>
      <trkpt lat="49.30747" lon="-1.67733">
        <ele>11.2</ele>
        <time>2020-06-12T07:01:41Z</time>
      </trkpt>
      <trkpt lat="49.30752" lon="-1.67735">
        <ele>11.2</ele>
        <time>2020-06-12T07:01:42Z</time>
      </trkpt>
      <trkpt lat="49.30758" lon="-1.67739">
        <ele>11.2</ele>
        <time>2020-06-12T07:01:43Z</time>
      </trkpt>
      <trkpt lat="49.30764" lon="-1.67742">
        <ele>11.3</ele>
        <time>2020-06-12T07:01:44Z</time>
      </trkpt>
      <trkpt lat="49.3077" lon="-1.67745">
        <ele>11.3</ele>
        <time>2020-06-12T07:01:45Z</time>
      </trkpt>
      <trkpt lat="49.30775" lon="-1.67748">
        <ele>11.3</ele>
        <time>2020-06-12T07:01:46Z</time>
      </trkpt>
      <trkpt lat="49.30781" lon="-1.67751">
        <ele>11.3</ele>
        <time>2020-06-12T07:01:47Z</time>
      </trkpt>
      <trkpt lat="49.30786" lon="-1.67754">
        <ele>11.3</ele>
        <time>2020-06-12T07:01:48Z</time>
      </trkpt>
      <trkpt lat="49.30792" lon="-1.67757">
        <ele>11.4</ele>
        <time>2020-06-12T07:01:49Z</time>
      </trkpt>
      <trkpt lat="49.30797" lon="-1.67761">
        <ele>11.4</ele>
        <time>2020-06-12T07:01:50Z</time>
      </trkpt>
      <trkpt lat="49.30804" lon="-1.67764">
        <ele>11.4</ele>
        <time>2020-06-12T07:01:51Z</time>
      </trkpt>
      <trkpt lat="49.3081" lon="-1.67768">
        <ele>11.5</ele>
        <time>2020-06-12T07:01:52Z</time>
      </trkpt>
      <trkpt lat="49.30815" lon="-1.67771">
        <ele>11.5</ele>
        <time>2020-06-12T07:01:53Z</time>
      </trkpt>
      <trkpt lat="49.30821" lon="-1.67774">
        <ele>11.6</ele>
        <time>2020-06-12T07:01:54Z</time>
      </trkpt>
      <trkpt lat="49.30826" lon="-1.67777">
        <ele>11.6</ele>
        <time>2020-06-12T07:01:55Z</time>
      </trkpt>
      <trkpt lat="49.30832" lon="-1.67781">
        <ele>11.7</ele>
        <time>2020-06-12T07:01:56Z</time>
      </trkpt>
      <trkpt lat="49.30839" lon="-1.67784">
        <ele>11.7</ele>
        <time>2020-06-12T07:01:57Z</time>
      </trkpt>
      <trkpt lat="49.30845" lon="-1.67787">
        <ele>11.8</ele>
        <time>2020-06-12T07:01:58Z</time>
      </trkpt>
      <trkpt lat="49.30851" lon="-1.6779">
        <ele>11.8</ele>
        <time>2020-06-12T07:01:59Z</time>
      </trkpt>
      <trkpt lat="49.30857" lon="-1.67793">
        <ele>11.9</ele>
        <time>2020-06-12T07:02:00Z</time>
      </trkpt>
      <trkpt lat="49.30864" lon="-1.67796">
        <ele>11.9</ele>
        <time>2020-06-12T07:02:01Z</time>
      </trkpt>
      <trkpt lat="49.3087" lon="-1.67801">
        <ele>12</ele>
        <time>2020-06-12T07:02:02Z</time>
      </trkpt>
      <trkpt lat="49.30876" lon="-1.67804">
        <ele>12</ele>
        <time>2020-06-12T07:02:03Z</time>
      </trkpt>
      <trkpt lat="49.30883" lon="-1.67808">
        <ele>12</ele>
        <time>2020-06-12T07:02:04Z</time>
      </trkpt>
      <trkpt lat="49.30889" lon="-1.67811">
        <ele>12.1</ele>
        <time>2020-06-12T07:02:05Z</time>
      </trkpt>
      <trkpt lat="49.30895" lon="-1.67813">
        <ele>12.2</ele>
        <time>2020-06-12T07:02:06Z</time>
      </trkpt>
      <trkpt lat="49.309" lon="-1.67815">
        <ele>12.2</ele>
        <time>2020-06-12T07:02:07Z</time>
      </trkpt>
      <trkpt lat="49.30905" lon="-1.67818">
        <ele>12.3</ele>
        <time>2020-06-12T07:02:08Z</time>
      </trkpt>
      <trkpt lat="49.30911" lon="-1.6782">
        <ele>12.4</ele>
        <time>2020-06-12T07:02:09Z</time>
      </trkpt>
      <trkpt lat="49.30917" lon="-1.67822">
        <ele>12.5</ele>
        <time>2020-06-12T07:02:10Z</time>
      </trkpt>
      <trkpt lat="49.30922" lon="-1.67824">
        <ele>12.6</ele>
        <time>2020-06-12T07:02:11Z</time>
      </trkpt>
      <trkpt lat="49.30927" lon="-1.67827">
        <ele>12.7</ele>
        <time>2020-06-12T07:02:12Z</time>
      </trkpt>
      <trkpt lat="49.30933" lon="-1.6783">
        <ele>12.8</ele>
        <time>2020-06-12T07:02:13Z</time>
      </trkpt>
      <trkpt lat="49.3094" lon="-1.67834">
        <ele>12.8</ele>
        <time>2020-06-12T07:02:14Z</time>
      </trkpt>
      <trkpt lat="49.30945" lon="-1.67837">
        <ele>12.8</ele>
        <time>2020-06-12T07:02:15Z</time>
      </trkpt>
      <trkpt lat="49.30952" lon="-1.67841">
        <ele>12.8</ele>
        <time>2020-06-12T07:02:16Z</time>
      </trkpt>
      <trkpt lat="49.30957" lon="-1.67844">
        <ele>12.8</ele>
        <time>2020-06-12T07:02:17Z</time>
      </trkpt>
      <trkpt lat="49.30962" lon="-1.67848">
        <ele>12.9</ele>
        <time>2020-06-12T07:02:18Z</time>
      </trkpt>
      <trkpt lat="49.30967" lon="-1.67851">
        <ele>12.9</ele>
        <time>2020-06-12T07:02:19Z</time>
      </trkpt>
      <trkpt lat="49.30972" lon="-1.67853">
        <ele>12.9</ele>
        <time>2020-06-12T07:02:20Z</time>
      </trkpt>
      <trkpt lat="49.30977" lon="-1.67856">
        <ele>12.9</ele>
        <time>2020-06-12T07:02:21Z</time>
      </trkpt>
      <trkpt lat="49.30984" lon="-1.67861">
        <ele>12.9</ele>
        <time>2020-06-12T07:02:22Z</time>
      </trkpt>
      <trkpt lat="49.30989" lon="-1.67864">
        <ele>12.9</ele>
        <time>2020-06-12T07:02:23Z</time>
      </trkpt>
      <trkpt lat="49.30996" lon="-1.67868">
        <ele>12.9</ele>
        <time>2020-06-12T07:02:24Z</time>
      </trkpt>
      <trkpt lat="49.31002" lon="-1.67872">
        <ele>12.9</ele>
        <time>2020-06-12T07:02:25Z</time>
      </trkpt>
      <trkpt lat="49.31008" lon="-1.67876">
        <ele>12.9</ele>
        <time>2020-06-12T07:02:26Z</time>
      </trkpt>
      <trkpt lat="49.31013" lon="-1.67879">
        <ele>12.9</ele>
        <time>2020-06-12T07:02:27Z</time>
      </trkpt>
      <trkpt lat="49.31019" lon="-1.67882">
        <ele>12.9</ele>
        <time>2020-06-12T07:02:28Z</time>
      </trkpt>
      <trkpt lat="49.31025" lon="-1.67884">
        <ele>12.9</ele>
        <time>2020-06-12T07:02:29Z</time>
      </trkpt>
      <trkpt lat="49.31031" lon="-1.67887">
        <ele>13</ele>
        <time>2020-06-12T07:02:30Z</time>
      </trkpt>
      <trkpt lat="49.31037" lon="-1.6789">
        <ele>13.1</ele>
        <time>2020-06-12T07:02:31Z</time>
      </trkpt>
      <trkpt lat="49.31043" lon="-1.67893">
        <ele>13.1</ele>
        <time>2020-06-12T07:02:32Z</time>
      </trkpt>
      <trkpt lat="49.31049" lon="-1.67895">
        <ele>13.1</ele>
        <time>2020-06-12T07:02:33Z</time>
      </trkpt>
      <trkpt lat="49.31056" lon="-1.67898">
        <ele>13.1</ele>
        <time>2020-06-12T07:02:34Z</time>
      </trkpt>
      <trkpt lat="49.31062" lon="-1.67902">
        <ele>13.1</ele>
        <time>2020-06-12T07:02:35Z</time>
      </trkpt>
      <trkpt lat="49.31068" lon="-1.67906">
        <ele>13.1</ele>
        <time>2020-06-12T07:02:36Z</time>
      </trkpt>
      <trkpt lat="49.31075" lon="-1.6791">
        <ele>13.1</ele>
        <time>2020-06-12T07:02:37Z</time>
      </trkpt>
      <trkpt lat="49.3108" lon="-1.67914">
        <ele>13.1</ele>
        <time>2020-06-12T07:02:38Z</time>
      </trkpt>
      <trkpt lat="49.31086" lon="-1.67918">
        <ele>13.1</ele>
        <time>2020-06-12T07:02:39Z</time>
      </trkpt>
      <trkpt lat="49.31091" lon="-1.67921">
        <ele>13.1</ele>
        <time>2020-06-12T07:02:40Z</time>
      </trkpt>
      <trkpt lat="49.31096" lon="-1.67924">
        <ele>13.2</ele>
        <time>2020-06-12T07:02:41Z</time>
      </trkpt>
      <trkpt lat="49.31103" lon="-1.67928">
        <ele>13.2</ele>
        <time>2020-06-12T07:02:42Z</time>
      </trkpt>
      <trkpt lat="49.31107" lon="-1.67932">
        <ele>13.2</ele>
        <time>2020-06-12T07:02:43Z</time>
      </trkpt>
      <trkpt lat="49.31112" lon="-1.67936">
        <ele>13.2</ele>
        <time>2020-06-12T07:02:44Z</time>
      </trkpt>
      <trkpt lat="49.31117" lon="-1.67939">
        <ele>13.3</ele>
        <time>2020-06-12T07:02:45Z</time>
      </trkpt>
      <trkpt lat="49.31121" lon="-1.67942">
        <ele>13.3</ele>
        <time>2020-06-12T07:02:46Z</time>
      </trkpt>
      <trkpt lat="49.31126" lon="-1.67945">
        <ele>13.3</ele>
        <time>2020-06-12T07:02:47Z</time>
      </trkpt>
      <trkpt lat="49.31131" lon="-1.67948">
        <ele>13.3</ele>
        <time>2020-06-12T07:02:48Z</time>
      </trkpt>
      <trkpt lat="49.31137" lon="-1.67951">
        <ele>13.4</ele>
        <time>2020-06-12T07:02:49Z</time>
      </trkpt>
      <trkpt lat="49.31143" lon="-1.67954">
        <ele>13.4</ele>
        <time>2020-06-12T07:02:50Z</time>
      </trkpt>
      <trkpt lat="49.31149" lon="-1.67957">
        <ele>13.4</ele>
        <time>2020-06-12T07:02:51Z</time>
      </trkpt>
      <trkpt lat="49.31155" lon="-1.6796">
        <ele>13.4</ele>
        <time>2020-06-12T07:02:52Z</time>
      </trkpt>
      <trkpt lat="49.31162" lon="-1.67964">
        <ele>13.5</ele>
        <time>2020-06-12T07:02:53Z</time>
      </trkpt>
      <trkpt lat="49.31167" lon="-1.67966">
        <ele>13.5</ele>
        <time>2020-06-12T07:02:54Z</time>
      </trkpt>
      <trkpt lat="49.31173" lon="-1.67969">
        <ele>13.5</ele>
        <time>2020-06-12T07:02:55Z</time>
      </trkpt>
      <trkpt lat="49.31178" lon="-1.67972">
        <ele>13.5</ele>
        <time>2020-06-12T07:02:56Z</time>
      </trkpt>
      <trkpt lat="49.31185" lon="-1.67974">
        <ele>13.5</ele>
        <time>2020-06-12T07:02:57Z</time>
      </trkpt>
      <trkpt lat="49.3119" lon="-1.67975">
        <ele>13.6</ele>
        <time>2020-06-12T07:02:58Z</time>
      </trkpt>
      <trkpt lat="49.31198" lon="-1.67978">
        <ele>13.6</ele>
        <time>2020-06-12T07:02:59Z</time>
      </trkpt>
      <trkpt lat="49.31203" lon="-1.6798">
        <ele>13.6</ele>
        <time>2020-06-12T07:03:00Z</time>
      </trkpt>
      <trkpt lat="49.31211" lon="-1.67981">
        <ele>13.6</ele>
        <time>2020-06-12T07:03:01Z</time>
      </trkpt>
      <trkpt lat="49.31218" lon="-1.67984">
        <ele>13.7</ele>
        <time>2020-06-12T07:03:02Z</time>
      </trkpt>
      <trkpt lat="49.31224" lon="-1.67987">
        <ele>13.7</ele>
        <time>2020-06-12T07:03:03Z</time>
      </trkpt>
      <trkpt lat="49.3123" lon="-1.67991">
        <ele>13.7</ele>
        <time>2020-06-12T07:03:04Z</time>
      </trkpt>
      <trkpt lat="49.31235" lon="-1.67994">
        <ele>13.7</ele>
        <time>2020-06-12T07:03:05Z</time>
      </trkpt>
      <trkpt lat="49.3124" lon="-1.67998">
        <ele>13.8</ele>
        <time>2020-06-12T07:03:06Z</time>
      </trkpt>
      <trkpt lat="49.31246" lon="-1.68001">
        <ele>13.9</ele>
        <time>2020-06-12T07:03:07Z</time>
      </trkpt>
      <trkpt lat="49.31251" lon="-1.68004">
        <ele>14</ele>
        <time>2020-06-12T07:03:08Z</time>
      </trkpt>
      <trkpt lat="49.31257" lon="-1.68007">
        <ele>14.1</ele>
        <time>2020-06-12T07:03:09Z</time>
      </trkpt>
      <trkpt lat="49.31262" lon="-1.6801">
        <ele>14.2</ele>
        <time>2020-06-12T07:03:10Z</time>
      </trkpt>
      <trkpt lat="49.31267" lon="-1.68012">
        <ele>14.1</ele>
        <time>2020-06-12T07:03:11Z</time>
      </trkpt>
      <trkpt lat="49.31272" lon="-1.68015">
        <ele>14.1</ele>
        <time>2020-06-12T07:03:12Z</time>
      </trkpt>
      <trkpt lat="49.31277" lon="-1.68018">
        <ele>14.1</ele>
        <time>2020-06-12T07:03:13Z</time>
      </trkpt>
      <trkpt lat="49.31282" lon="-1.68021">
        <ele>14.1</ele>
        <time>2020-06-12T07:03:14Z</time>
      </trkpt>
      <trkpt lat="49.31287" lon="-1.68024">
        <ele>14</ele>
        <time>2020-06-12T07:03:15Z</time>
      </trkpt>
      <trkpt lat="49.31292" lon="-1.68027">
        <ele>14</ele>
        <time>2020-06-12T07:03:16Z</time>
      </trkpt>
      <trkpt lat="49.31298" lon="-1.68029">
        <ele>14</ele>
        <time>2020-06-12T07:03:17Z</time>
      </trkpt>
      <trkpt lat="49.31303" lon="-1.68031">
        <ele>14</ele>
        <time>2020-06-12T07:03:18Z</time>
      </trkpt>
      <trkpt lat="49.31308" lon="-1.68034">
        <ele>14</ele>
        <time>2020-06-12T07:03:19Z</time>
      </trkpt>
      <trkpt lat="49.31314" lon="-1.68037">
        <ele>14</ele>
        <time>2020-06-12T07:03:20Z</time>
      </trkpt>
      <trkpt lat="49.3132" lon="-1.6804">
        <ele>14.1</ele>
        <time>2020-06-12T07:03:21Z</time>
      </trkpt>
      <trkpt lat="49.31327" lon="-1.68044">
        <ele>14.1</ele>
        <time>2020-06-12T07:03:22Z</time>
      </trkpt>
      <trkpt lat="49.31332" lon="-1.68046">
        <ele>14.1</ele>
        <time>2020-06-12T07:03:23Z</time>
      </trkpt>
      <trkpt lat="49.31337" lon="-1.68048">
        <ele>14.1</ele>
        <time>2020-06-12T07:03:24Z</time>
      </trkpt>
      <trkpt lat="49.31343" lon="-1.68051">
        <ele>14.2</ele>
        <time>2020-06-12T07:03:25Z</time>
      </trkpt>
      <trkpt lat="49.31349" lon="-1.68054">
        <ele>14.2</ele>
        <time>2020-06-12T07:03:26Z</time>
      </trkpt>
      <trkpt lat="49.31355" lon="-1.68056">
        <ele>14.3</ele>
        <time>2020-06-12T07:03:27Z</time>
      </trkpt>
      <trkpt lat="49.3136" lon="-1.68058">
        <ele>14.3</ele>
        <time>2020-06-12T07:03:28Z</time>
      </trkpt>
      <trkpt lat="49.31368" lon="-1.68063">
        <ele>14.4</ele>
        <time>2020-06-12T07:03:29Z</time>
      </trkpt>
      <trkpt lat="49.31375" lon="-1.68065">
        <ele>14.4</ele>
        <time>2020-06-12T07:03:30Z</time>
      </trkpt>
      <trkpt lat="49.31382" lon="-1.68067">
        <ele>14.5</ele>
        <time>2020-06-12T07:03:31Z</time>
      </trkpt>
      <trkpt lat="49.31388" lon="-1.68069">
        <ele>14.6</ele>
        <time>2020-06-12T07:03:32Z</time>
      </trkpt>
      <trkpt lat="49.31394" lon="-1.68071">
        <ele>14.6</ele>
        <time>2020-06-12T07:03:33Z</time>
      </trkpt>
      <trkpt lat="49.314" lon="-1.68073">
        <ele>14.7</ele>
        <time>2020-06-12T07:03:34Z</time>
      </trkpt>
      <trkpt lat="49.31406" lon="-1.68075">
        <ele>14.7</ele>
        <time>2020-06-12T07:03:35Z</time>
      </trkpt>
      <trkpt lat="49.31412" lon="-1.68077">
        <ele>14.7</ele>
        <time>2020-06-12T07:03:36Z</time>
      </trkpt>
      <trkpt lat="49.31418" lon="-1.68078">
        <ele>14.8</ele>
        <time>2020-06-12T07:03:37Z</time>
      </trkpt>
      <trkpt lat="49.31424" lon="-1.68079">
        <ele>14.8</ele>
        <time>2020-06-12T07:03:38Z</time>
      </trkpt>
      <trkpt lat="49.3143" lon="-1.68081">
        <ele>14.8</ele>
        <time>2020-06-12T07:03:39Z</time>
      </trkpt>
      <trkpt lat="49.31436" lon="-1.68083">
        <ele>14.8</ele>
        <time>2020-06-12T07:03:40Z</time>
      </trkpt>
      <trkpt lat="49.31443" lon="-1.68084">
        <ele>14.8</ele>
        <time>2020-06-12T07:03:41Z</time>
      </trkpt>
      <trkpt lat="49.31449" lon="-1.68086">
        <ele>14.8</ele>
        <time>2020-06-12T07:03:42Z</time>
      </trkpt>
      <trkpt lat="49.31455" lon="-1.68087">
        <ele>14.8</ele>
        <time>2020-06-12T07:03:43Z</time>
      </trkpt>
      <trkpt lat="49.31461" lon="-1.68089">
        <ele>14.8</ele>
        <time>2020-06-12T07:03:44Z</time>
      </trkpt>
      <trkpt lat="49.31468" lon="-1.6809">
        <ele>14.8</ele>
        <time>2020-06-12T07:03:45Z</time>
      </trkpt>
      <trkpt lat="49.31474" lon="-1.68091">
        <ele>14.9</ele>
        <time>2020-06-12T07:03:46Z</time>
      </trkpt>
      <trkpt lat="49.31479" lon="-1.68092">
        <ele>15</ele>
        <time>2020-06-12T07:03:47Z</time>
      </trkpt>
      <trkpt lat="49.31485" lon="-1.68093">
        <ele>15.1</ele>
        <time>2020-06-12T07:03:48Z</time>
      </trkpt>
      <trkpt lat="49.31491" lon="-1.68094">
        <ele>15.1</ele>
        <time>2020-06-12T07:03:49Z</time>
      </trkpt>
      <trkpt lat="49.31497" lon="-1.68095">
        <ele>15.1</ele>
        <time>2020-06-12T07:03:50Z</time>
      </trkpt>
      <trkpt lat="49.31503" lon="-1.68095">
        <ele>15</ele>
        <time>2020-06-12T07:03:51Z</time>
      </trkpt>
      <trkpt lat="49.31509" lon="-1.68096">
        <ele>15</ele>
        <time>2020-06-12T07:03:52Z</time>
      </trkpt>
      <trkpt lat="49.31515" lon="-1.68097">
        <ele>15</ele>
        <time>2020-06-12T07:03:53Z</time>
      </trkpt>
      <trkpt lat="49.31521" lon="-1.68098">
        <ele>15</ele>
        <time>2020-06-12T07:03:54Z</time>
      </trkpt>
      <trkpt lat="49.31526" lon="-1.68098">
        <ele>15.1</ele>
        <time>2020-06-12T07:03:55Z</time>
      </trkpt>
      <trkpt lat="49.31531" lon="-1.68098">
        <ele>15.1</ele>
        <time>2020-06-12T07:03:56Z</time>
      </trkpt>
      <trkpt lat="49.31536" lon="-1.68098">
        <ele>15.1</ele>
        <time>2020-06-12T07:03:57Z</time>
      </trkpt>
      <trkpt lat="49.31542" lon="-1.68098">
        <ele>15.1</ele>
        <time>2020-06-12T07:03:58Z</time>
      </trkpt>
      <trkpt lat="49.31547" lon="-1.68097">
        <ele>15.2</ele>
        <time>2020-06-12T07:03:59Z</time>
      </trkpt>
      <trkpt lat="49.31552" lon="-1.68097">
        <ele>15.2</ele>
        <time>2020-06-12T07:04:00Z</time>
      </trkpt>
      <trkpt lat="49.31558" lon="-1.68097">
        <ele>15.2</ele>
        <time>2020-06-12T07:04:01Z</time>
      </trkpt>
      <trkpt lat="49.31563" lon="-1.68097">
        <ele>15.2</ele>
        <time>2020-06-12T07:04:02Z</time>
      </trkpt>
      <trkpt lat="49.31568" lon="-1.68097">
        <ele>15.3</ele>
        <time>2020-06-12T07:04:03Z</time>
      </trkpt>
      <trkpt lat="49.31573" lon="-1.68096">
        <ele>15.3</ele>
        <time>2020-06-12T07:04:04Z</time>
      </trkpt>
      <trkpt lat="49.31579" lon="-1.68096">
        <ele>15.3</ele>
        <time>2020-06-12T07:04:05Z</time>
      </trkpt>
      <trkpt lat="49.31585" lon="-1.68095">
        <ele>15.4</ele>
        <time>2020-06-12T07:04:06Z</time>
      </trkpt>
      <trkpt lat="49.31591" lon="-1.68093">
        <ele>15.4</ele>
        <time>2020-06-12T07:04:07Z</time>
      </trkpt>
      <trkpt lat="49.31597" lon="-1.68092">
        <ele>15.5</ele>
        <time>2020-06-12T07:04:08Z</time>
      </trkpt>
      <trkpt lat="49.31605" lon="-1.68091">
        <ele>15.5</ele>
        <time>2020-06-12T07:04:09Z</time>
      </trkpt>
      <trkpt lat="49.31611" lon="-1.6809">
        <ele>15.5</ele>
        <time>2020-06-12T07:04:10Z</time>
      </trkpt>
      <trkpt lat="49.31618" lon="-1.6809">
        <ele>15.5</ele>
        <time>2020-06-12T07:04:11Z</time>
      </trkpt>
      <trkpt lat="49.31624" lon="-1.68089">
        <ele>15.6</ele>
        <time>2020-06-12T07:04:12Z</time>
      </trkpt>
      <trkpt lat="49.31629" lon="-1.68088">
        <ele>15.6</ele>
        <time>2020-06-12T07:04:13Z</time>
      </trkpt>
      <trkpt lat="49.31635" lon="-1.68088">
        <ele>15.6</ele>
        <time>2020-06-12T07:04:14Z</time>
      </trkpt>
      <trkpt lat="49.3164" lon="-1.68087">
        <ele>15.6</ele>
        <time>2020-06-12T07:04:15Z</time>
      </trkpt>
      <trkpt lat="49.31646" lon="-1.68085">
        <ele>15.6</ele>
        <time>2020-06-12T07:04:16Z</time>
      </trkpt>
      <trkpt lat="49.31652" lon="-1.68084">
        <ele>15.6</ele>
        <time>2020-06-12T07:04:17Z</time>
      </trkpt>
      <trkpt lat="49.31658" lon="-1.68083">
        <ele>15.7</ele>
        <time>2020-06-12T07:04:18Z</time>
      </trkpt>
      <trkpt lat="49.31664" lon="-1.68082">
        <ele>15.7</ele>
        <time>2020-06-12T07:04:19Z</time>
      </trkpt>
      <trkpt lat="49.3167" lon="-1.68081">
        <ele>15.7</ele>
        <time>2020-06-12T07:04:20Z</time>
      </trkpt>
      <trkpt lat="49.31677" lon="-1.68079">
        <ele>15.7</ele>
        <time>2020-06-12T07:04:21Z</time>
      </trkpt>
      <trkpt lat="49.31682" lon="-1.68078">
        <ele>15.7</ele>
        <time>2020-06-12T07:04:22Z</time>
      </trkpt>
      <trkpt lat="49.31688" lon="-1.68077">
        <ele>15.7</ele>
        <time>2020-06-12T07:04:23Z</time>
      </trkpt>
      <trkpt lat="49.31694" lon="-1.68075">
        <ele>15.6</ele>
        <time>2020-06-12T07:04:24Z</time>
      </trkpt>
      <trkpt lat="49.317" lon="-1.68073">
        <ele>15.6</ele>
        <time>2020-06-12T07:04:25Z</time>
      </trkpt>
      <trkpt lat="49.31706" lon="-1.68071">
        <ele>15.6</ele>
        <time>2020-06-12T07:04:26Z</time>
      </trkpt>
      <trkpt lat="49.31712" lon="-1.68069">
        <ele>15.6</ele>
        <time>2020-06-12T07:04:27Z</time>
      </trkpt>
      <trkpt lat="49.31719" lon="-1.68068">
        <ele>15.6</ele>
        <time>2020-06-12T07:04:28Z</time>
      </trkpt>
      <trkpt lat="49.31724" lon="-1.68067">
        <ele>15.6</ele>
        <time>2020-06-12T07:04:29Z</time>
      </trkpt>
      <trkpt lat="49.31729" lon="-1.68065">
        <ele>15.6</ele>
        <time>2020-06-12T07:04:30Z</time>
      </trkpt>
      <trkpt lat="49.31735" lon="-1.68064">
        <ele>15.6</ele>
        <time>2020-06-12T07:04:31Z</time>
      </trkpt>
      <trkpt lat="49.31742" lon="-1.68062">
        <ele>15.6</ele>
        <time>2020-06-12T07:04:32Z</time>
      </trkpt>
      <trkpt lat="49.31748" lon="-1.6806">
        <ele>15.6</ele>
        <time>2020-06-12T07:04:33Z</time>
      </trkpt>
      <trkpt lat="49.31754" lon="-1.68058">
        <ele>15.6</ele>
        <time>2020-06-12T07:04:34Z</time>
      </trkpt>
      <trkpt lat="49.31761" lon="-1.68055">
        <ele>15.5</ele>
        <time>2020-06-12T07:04:35Z</time>
      </trkpt>
      <trkpt lat="49.31767" lon="-1.68052">
        <ele>15.5</ele>
        <time>2020-06-12T07:04:36Z</time>
      </trkpt>
      <trkpt lat="49.31774" lon="-1.6805">
        <ele>15.4</ele>
        <time>2020-06-12T07:04:37Z</time>
      </trkpt>
      <trkpt lat="49.31781" lon="-1.68048">
        <ele>15.3</ele>
        <time>2020-06-12T07:04:38Z</time>
      </trkpt>
      <trkpt lat="49.31786" lon="-1.68045">
        <ele>15.3</ele>
        <time>2020-06-12T07:04:39Z</time>
      </trkpt>
      <trkpt lat="49.31792" lon="-1.68044">
        <ele>15.2</ele>
        <time>2020-06-12T07:04:40Z</time>
      </trkpt>
      <trkpt lat="49.31797" lon="-1.68042">
        <ele>15.2</ele>
        <time>2020-06-12T07:04:41Z</time>
      </trkpt>
      <trkpt lat="49.31804" lon="-1.68039">
        <ele>15.2</ele>
        <time>2020-06-12T07:04:42Z</time>
      </trkpt>
      <trkpt lat="49.3181" lon="-1.68037">
        <ele>15.1</ele>
        <time>2020-06-12T07:04:43Z</time>
      </trkpt>
      <trkpt lat="49.31817" lon="-1.68034">
        <ele>15.1</ele>
        <time>2020-06-12T07:04:44Z</time>
      </trkpt>
      <trkpt lat="49.31823" lon="-1.68032">
        <ele>15.1</ele>
        <time>2020-06-12T07:04:45Z</time>
      </trkpt>
      <trkpt lat="49.31829" lon="-1.6803">
        <ele>15.1</ele>
        <time>2020-06-12T07:04:46Z</time>
      </trkpt>
      <trkpt lat="49.31835" lon="-1.68029">
        <ele>15.1</ele>
        <time>2020-06-12T07:04:47Z</time>
      </trkpt>
      <trkpt lat="49.31842" lon="-1.68027">
        <ele>15.1</ele>
        <time>2020-06-12T07:04:48Z</time>
      </trkpt>
      <trkpt lat="49.31848" lon="-1.68024">
        <ele>15.1</ele>
        <time>2020-06-12T07:04:49Z</time>
      </trkpt>
      <trkpt lat="49.31855" lon="-1.68023">
        <ele>15.1</ele>
        <time>2020-06-12T07:04:50Z</time>
      </trkpt>
      <trkpt lat="49.31861" lon="-1.68021">
        <ele>15.1</ele>
        <time>2020-06-12T07:04:51Z</time>
      </trkpt>
      <trkpt lat="49.31867" lon="-1.68019">
        <ele>15.1</ele>
        <time>2020-06-12T07:04:52Z</time>
      </trkpt>
      <trkpt lat="49.31873" lon="-1.68017">
        <ele>15</ele>
        <time>2020-06-12T07:04:53Z</time>
      </trkpt>
      <trkpt lat="49.3188" lon="-1.68015">
        <ele>15</ele>
        <time>2020-06-12T07:04:54Z</time>
      </trkpt>
      <trkpt lat="49.31885" lon="-1.68013">
        <ele>15</ele>
        <time>2020-06-12T07:04:55Z</time>
      </trkpt>
      <trkpt lat="49.31891" lon="-1.68011">
        <ele>14.9</ele>
        <time>2020-06-12T07:04:56Z</time>
      </trkpt>
      <trkpt lat="49.31897" lon="-1.68009">
        <ele>14.9</ele>
        <time>2020-06-12T07:04:57Z</time>
      </trkpt>
      <trkpt lat="49.31903" lon="-1.68007">
        <ele>14.8</ele>
        <time>2020-06-12T07:04:58Z</time>
      </trkpt>
      <trkpt lat="49.31908" lon="-1.68005">
        <ele>14.8</ele>
        <time>2020-06-12T07:04:59Z</time>
      </trkpt>
      <trkpt lat="49.31913" lon="-1.68002">
        <ele>14.8</ele>
        <time>2020-06-12T07:05:00Z</time>
      </trkpt>
      <trkpt lat="49.31919" lon="-1.68">
        <ele>14.7</ele>
        <time>2020-06-12T07:05:01Z</time>
      </trkpt>
      <trkpt lat="49.31925" lon="-1.67997">
        <ele>14.7</ele>
        <time>2020-06-12T07:05:02Z</time>
      </trkpt>
      <trkpt lat="49.31931" lon="-1.67995">
        <ele>14.7</ele>
        <time>2020-06-12T07:05:03Z</time>
      </trkpt>
      <trkpt lat="49.31937" lon="-1.67993">
        <ele>14.6</ele>
        <time>2020-06-12T07:05:04Z</time>
      </trkpt>
      <trkpt lat="49.31945" lon="-1.6799">
        <ele>14.6</ele>
        <time>2020-06-12T07:05:05Z</time>
      </trkpt>
      <trkpt lat="49.31951" lon="-1.67988">
        <ele>14.5</ele>
        <time>2020-06-12T07:05:06Z</time>
      </trkpt>
      <trkpt lat="49.31957" lon="-1.67986">
        <ele>14.5</ele>
        <time>2020-06-12T07:05:07Z</time>
      </trkpt>
      <trkpt lat="49.31963" lon="-1.67984">
        <ele>14.4</ele>
        <time>2020-06-12T07:05:08Z</time>
      </trkpt>
      <trkpt lat="49.3197" lon="-1.67982">
        <ele>14.4</ele>
        <time>2020-06-12T07:05:09Z</time>
      </trkpt>
      <trkpt lat="49.31976" lon="-1.6798">
        <ele>14.4</ele>
        <time>2020-06-12T07:05:10Z</time>
      </trkpt>
      <trkpt lat="49.31983" lon="-1.67978">
        <ele>14.3</ele>
        <time>2020-06-12T07:05:11Z</time>
      </trkpt>
      <trkpt lat="49.31989" lon="-1.67976">
        <ele>14.3</ele>
        <time>2020-06-12T07:05:12Z</time>
      </trkpt>
      <trkpt lat="49.31995" lon="-1.67974">
        <ele>14.3</ele>
        <time>2020-06-12T07:05:13Z</time>
      </trkpt>
      <trkpt lat="49.32002" lon="-1.67972">
        <ele>14.2</ele>
        <time>2020-06-12T07:05:14Z</time>
      </trkpt>
      <trkpt lat="49.32007" lon="-1.6797">
        <ele>14.2</ele>
        <time>2020-06-12T07:05:15Z</time>
      </trkpt>
      <trkpt lat="49.32014" lon="-1.67968">
        <ele>14.1</ele>
        <time>2020-06-12T07:05:16Z</time>
      </trkpt>
      <trkpt lat="49.32019" lon="-1.67966">
        <ele>14.1</ele>
        <time>2020-06-12T07:05:17Z</time>
      </trkpt>
      <trkpt lat="49.32026" lon="-1.67963">
        <ele>14.1</ele>
        <time>2020-06-12T07:05:18Z</time>
      </trkpt>
      <trkpt lat="49.32032" lon="-1.67961">
        <ele>14.1</ele>
        <time>2020-06-12T07:05:19Z</time>
      </trkpt>
      <trkpt lat="49.32039" lon="-1.67959">
        <ele>14.1</ele>
        <time>2020-06-12T07:05:20Z</time>
      </trkpt>
      <trkpt lat="49.32045" lon="-1.67957">
        <ele>14.1</ele>
        <time>2020-06-12T07:05:21Z</time>
      </trkpt>
      <trkpt lat="49.32052" lon="-1.67954">
        <ele>14</ele>
        <time>2020-06-12T07:05:22Z</time>
      </trkpt>
      <trkpt lat="49.32058" lon="-1.67952">
        <ele>13.9</ele>
        <time>2020-06-12T07:05:23Z</time>
      </trkpt>
      <trkpt lat="49.32065" lon="-1.67949">
        <ele>13.9</ele>
        <time>2020-06-12T07:05:24Z</time>
      </trkpt>
      <trkpt lat="49.32072" lon="-1.67948">
        <ele>13.8</ele>
        <time>2020-06-12T07:05:25Z</time>
      </trkpt>
      <trkpt lat="49.32078" lon="-1.67946">
        <ele>13.8</ele>
        <time>2020-06-12T07:05:26Z</time>
      </trkpt>
      <trkpt lat="49.32085" lon="-1.67944">
        <ele>13.7</ele>
        <time>2020-06-12T07:05:27Z</time>
      </trkpt>
      <trkpt lat="49.32092" lon="-1.67942">
        <ele>13.7</ele>
        <time>2020-06-12T07:05:28Z</time>
      </trkpt>
      <trkpt lat="49.32098" lon="-1.67941">
        <ele>13.6</ele>
        <time>2020-06-12T07:05:29Z</time>
      </trkpt>
      <trkpt lat="49.32104" lon="-1.67939">
        <ele>13.6</ele>
        <time>2020-06-12T07:05:30Z</time>
      </trkpt>
      <trkpt lat="49.32111" lon="-1.67938">
        <ele>13.6</ele>
        <time>2020-06-12T07:05:31Z</time>
      </trkpt>
      <trkpt lat="49.32117" lon="-1.67936">
        <ele>13.6</ele>
        <time>2020-06-12T07:05:32Z</time>
      </trkpt>
      <trkpt lat="49.32123" lon="-1.67934">
        <ele>13.6</ele>
        <time>2020-06-12T07:05:33Z</time>
      </trkpt>
      <trkpt lat="49.3213" lon="-1.67931">
        <ele>13.6</ele>
        <time>2020-06-12T07:05:34Z</time>
      </trkpt>
      <trkpt lat="49.32137" lon="-1.67929">
        <ele>13.5</ele>
        <time>2020-06-12T07:05:35Z</time>
      </trkpt>
      <trkpt lat="49.32143" lon="-1.67927">
        <ele>13.5</ele>
        <time>2020-06-12T07:05:36Z</time>
      </trkpt>
      <trkpt lat="49.3215" lon="-1.67924">
        <ele>13.5</ele>
        <time>2020-06-12T07:05:37Z</time>
      </trkpt>
      <trkpt lat="49.32157" lon="-1.67921">
        <ele>13.5</ele>
        <time>2020-06-12T07:05:38Z</time>
      </trkpt>
      <trkpt lat="49.32163" lon="-1.67918">
        <ele>13.5</ele>
        <time>2020-06-12T07:05:39Z</time>
      </trkpt>
      <trkpt lat="49.3217" lon="-1.67916">
        <ele>13.5</ele>
        <time>2020-06-12T07:05:40Z</time>
      </trkpt>
      <trkpt lat="49.32176" lon="-1.67914">
        <ele>13.5</ele>
        <time>2020-06-12T07:05:41Z</time>
      </trkpt>
      <trkpt lat="49.32183" lon="-1.67912">
        <ele>13.5</ele>
        <time>2020-06-12T07:05:42Z</time>
      </trkpt>
      <trkpt lat="49.32189" lon="-1.67909">
        <ele>13.5</ele>
        <time>2020-06-12T07:05:43Z</time>
      </trkpt>
      <trkpt lat="49.32195" lon="-1.67906">
        <ele>13.5</ele>
        <time>2020-06-12T07:05:44Z</time>
      </trkpt>
      <trkpt lat="49.32202" lon="-1.67904">
        <ele>13.4</ele>
        <time>2020-06-12T07:05:45Z</time>
      </trkpt>
      <trkpt lat="49.32208" lon="-1.67903">
        <ele>13.3</ele>
        <time>2020-06-12T07:05:46Z</time>
      </trkpt>
      <trkpt lat="49.32214" lon="-1.67901">
        <ele>13.2</ele>
        <time>2020-06-12T07:05:47Z</time>
      </trkpt>
      <trkpt lat="49.32221" lon="-1.67899">
        <ele>13.2</ele>
        <time>2020-06-12T07:05:48Z</time>
      </trkpt>
      <trkpt lat="49.32227" lon="-1.67897">
        <ele>13.1</ele>
        <time>2020-06-12T07:05:49Z</time>
      </trkpt>
      <trkpt lat="49.32234" lon="-1.67896">
        <ele>13.1</ele>
        <time>2020-06-12T07:05:50Z</time>
      </trkpt>
      <trkpt lat="49.32241" lon="-1.67894">
        <ele>13</ele>
        <time>2020-06-12T07:05:51Z</time>
      </trkpt>
      <trkpt lat="49.32248" lon="-1.67892">
        <ele>13</ele>
        <time>2020-06-12T07:05:52Z</time>
      </trkpt>
      <trkpt lat="49.32255" lon="-1.6789">
        <ele>13</ele>
        <time>2020-06-12T07:05:53Z</time>
      </trkpt>
      <trkpt lat="49.32261" lon="-1.67887">
        <ele>13</ele>
        <time>2020-06-12T07:05:54Z</time>
      </trkpt>
      <trkpt lat="49.32268" lon="-1.67884">
        <ele>13</ele>
        <time>2020-06-12T07:05:55Z</time>
      </trkpt>
      <trkpt lat="49.32274" lon="-1.67882">
        <ele>13</ele>
        <time>2020-06-12T07:05:56Z</time>
      </trkpt>
      <trkpt lat="49.3228" lon="-1.6788">
        <ele>12.9</ele>
        <time>2020-06-12T07:05:57Z</time>
      </trkpt>
      <trkpt lat="49.32287" lon="-1.67877">
        <ele>12.9</ele>
        <time>2020-06-12T07:05:58Z</time>
      </trkpt>
      <trkpt lat="49.32294" lon="-1.67875">
        <ele>12.8</ele>
        <time>2020-06-12T07:05:59Z</time>
      </trkpt>
      <trkpt lat="49.323" lon="-1.67873">
        <ele>12.8</ele>
        <time>2020-06-12T07:06:00Z</time>
      </trkpt>
      <trkpt lat="49.32306" lon="-1.67871">
        <ele>12.8</ele>
        <time>2020-06-12T07:06:01Z</time>
      </trkpt>
      <trkpt lat="49.32313" lon="-1.67869">
        <ele>12.8</ele>
        <time>2020-06-12T07:06:02Z</time>
      </trkpt>
      <trkpt lat="49.3232" lon="-1.67867">
        <ele>12.8</ele>
        <time>2020-06-12T07:06:03Z</time>
      </trkpt>
      <trkpt lat="49.32327" lon="-1.67865">
        <ele>12.7</ele>
        <time>2020-06-12T07:06:04Z</time>
      </trkpt>
      <trkpt lat="49.32334" lon="-1.67864">
        <ele>12.7</ele>
        <time>2020-06-12T07:06:05Z</time>
      </trkpt>
      <trkpt lat="49.3234" lon="-1.67862">
        <ele>12.7</ele>
        <time>2020-06-12T07:06:06Z</time>
      </trkpt>
      <trkpt lat="49.32347" lon="-1.6786">
        <ele>12.7</ele>
        <time>2020-06-12T07:06:07Z</time>
      </trkpt>
      <trkpt lat="49.32354" lon="-1.67858">
        <ele>12.6</ele>
        <time>2020-06-12T07:06:08Z</time>
      </trkpt>
      <trkpt lat="49.32361" lon="-1.67855">
        <ele>12.6</ele>
        <time>2020-06-12T07:06:09Z</time>
      </trkpt>
      <trkpt lat="49.32368" lon="-1.67854">
        <ele>12.6</ele>
        <time>2020-06-12T07:06:10Z</time>
      </trkpt>
      <trkpt lat="49.32374" lon="-1.67852">
        <ele>12.6</ele>
        <time>2020-06-12T07:06:11Z</time>
      </trkpt>
      <trkpt lat="49.32381" lon="-1.67851">
        <ele>12.6</ele>
        <time>2020-06-12T07:06:12Z</time>
      </trkpt>
      <trkpt lat="49.32388" lon="-1.6785">
        <ele>12.4</ele>
        <time>2020-06-12T07:06:13Z</time>
      </trkpt>
      <trkpt lat="49.32394" lon="-1.67848">
        <ele>12.3</ele>
        <time>2020-06-12T07:06:14Z</time>
      </trkpt>
      <trkpt lat="49.32401" lon="-1.67846">
        <ele>12.1</ele>
        <time>2020-06-12T07:06:15Z</time>
      </trkpt>
      <trkpt lat="49.32407" lon="-1.67845">
        <ele>12.1</ele>
        <time>2020-06-12T07:06:16Z</time>
      </trkpt>
      <trkpt lat="49.32413" lon="-1.67844">
        <ele>12</ele>
        <time>2020-06-12T07:06:17Z</time>
      </trkpt>
      <trkpt lat="49.32419" lon="-1.67842">
        <ele>12</ele>
        <time>2020-06-12T07:06:18Z</time>
      </trkpt>
      <trkpt lat="49.32426" lon="-1.67841">
        <ele>11.9</ele>
        <time>2020-06-12T07:06:19Z</time>
      </trkpt>
      <trkpt lat="49.32432" lon="-1.6784">
        <ele>11.9</ele>
        <time>2020-06-12T07:06:20Z</time>
      </trkpt>
      <trkpt lat="49.32439" lon="-1.67838">
        <ele>11.9</ele>
        <time>2020-06-12T07:06:21Z</time>
      </trkpt>
      <trkpt lat="49.32445" lon="-1.67837">
        <ele>11.8</ele>
        <time>2020-06-12T07:06:22Z</time>
      </trkpt>
      <trkpt lat="49.32451" lon="-1.67836">
        <ele>11.8</ele>
        <time>2020-06-12T07:06:23Z</time>
      </trkpt>
      <trkpt lat="49.32458" lon="-1.67835">
        <ele>11.8</ele>
        <time>2020-06-12T07:06:24Z</time>
      </trkpt>
      <trkpt lat="49.32465" lon="-1.67835">
        <ele>11.7</ele>
        <time>2020-06-12T07:06:25Z</time>
      </trkpt>
      <trkpt lat="49.32472" lon="-1.67835">
        <ele>11.7</ele>
        <time>2020-06-12T07:06:26Z</time>
      </trkpt>
      <trkpt lat="49.32479" lon="-1.67835">
        <ele>11.6</ele>
        <time>2020-06-12T07:06:27Z</time>
      </trkpt>
      <trkpt lat="49.32486" lon="-1.67835">
        <ele>11.6</ele>
        <time>2020-06-12T07:06:28Z</time>
      </trkpt>
      <trkpt lat="49.32493" lon="-1.67834">
        <ele>11.5</ele>
        <time>2020-06-12T07:06:29Z</time>
      </trkpt>
      <trkpt lat="49.32501" lon="-1.67834">
        <ele>11.4</ele>
        <time>2020-06-12T07:06:30Z</time>
      </trkpt>
      <trkpt lat="49.32509" lon="-1.67833">
        <ele>11.3</ele>
        <time>2020-06-12T07:06:31Z</time>
      </trkpt>
      <trkpt lat="49.32517" lon="-1.67832">
        <ele>11.2</ele>
        <time>2020-06-12T07:06:32Z</time>
      </trkpt>
      <trkpt lat="49.32525" lon="-1.67832">
        <ele>11.2</ele>
        <time>2020-06-12T07:06:33Z</time>
      </trkpt>
      <trkpt lat="49.32532" lon="-1.67832">
        <ele>11.1</ele>
        <time>2020-06-12T07:06:34Z</time>
      </trkpt>
      <trkpt lat="49.32539" lon="-1.67831">
        <ele>11.1</ele>
        <time>2020-06-12T07:06:35Z</time>
      </trkpt>
      <trkpt lat="49.32547" lon="-1.67832">
        <ele>11</ele>
        <time>2020-06-12T07:06:36Z</time>
      </trkpt>
      <trkpt lat="49.32556" lon="-1.67832">
        <ele>10.9</ele>
        <time>2020-06-12T07:06:37Z</time>
      </trkpt>
      <trkpt lat="49.32564" lon="-1.67832">
        <ele>10.8</ele>
        <time>2020-06-12T07:06:38Z</time>
      </trkpt>
      <trkpt lat="49.32572" lon="-1.67832">
        <ele>10.7</ele>
        <time>2020-06-12T07:06:39Z</time>
      </trkpt>
      <trkpt lat="49.3258" lon="-1.67831">
        <ele>10.7</ele>
        <time>2020-06-12T07:06:40Z</time>
      </trkpt>
      <trkpt lat="49.32587" lon="-1.67832">
        <ele>10.6</ele>
        <time>2020-06-12T07:06:41Z</time>
      </trkpt>
      <trkpt lat="49.32595" lon="-1.67833">
        <ele>10.5</ele>
        <time>2020-06-12T07:06:42Z</time>
      </trkpt>
      <trkpt lat="49.32603" lon="-1.67833">
        <ele>10.4</ele>
        <time>2020-06-12T07:06:43Z</time>
      </trkpt>
      <trkpt lat="49.32611" lon="-1.67835">
        <ele>10.2</ele>
        <time>2020-06-12T07:06:44Z</time>
      </trkpt>
      <trkpt lat="49.32619" lon="-1.67835">
        <ele>10.1</ele>
        <time>2020-06-12T07:06:45Z</time>
      </trkpt>
      <trkpt lat="49.32627" lon="-1.67836">
        <ele>9.9</ele>
        <time>2020-06-12T07:06:46Z</time>
      </trkpt>
      <trkpt lat="49.32635" lon="-1.67837">
        <ele>9.8</ele>
        <time>2020-06-12T07:06:47Z</time>
      </trkpt>
      <trkpt lat="49.32643" lon="-1.67838">
        <ele>9.7</ele>
        <time>2020-06-12T07:06:48Z</time>
      </trkpt>
      <trkpt lat="49.32652" lon="-1.67838">
        <ele>9.6</ele>
        <time>2020-06-12T07:06:49Z</time>
      </trkpt>
      <trkpt lat="49.3266" lon="-1.67839">
        <ele>9.5</ele>
        <time>2020-06-12T07:06:50Z</time>
      </trkpt>
      <trkpt lat="49.32667" lon="-1.6784">
        <ele>9.4</ele>
        <time>2020-06-12T07:06:51Z</time>
      </trkpt>
      <trkpt lat="49.32674" lon="-1.67842">
        <ele>9.4</ele>
        <time>2020-06-12T07:06:52Z</time>
      </trkpt>
      <trkpt lat="49.32681" lon="-1.67844">
        <ele>9.3</ele>
        <time>2020-06-12T07:06:53Z</time>
      </trkpt>
      <trkpt lat="49.32689" lon="-1.67844">
        <ele>9.2</ele>
        <time>2020-06-12T07:06:54Z</time>
      </trkpt>
      <trkpt lat="49.32696" lon="-1.67845">
        <ele>9.2</ele>
        <time>2020-06-12T07:06:55Z</time>
      </trkpt>
      <trkpt lat="49.32704" lon="-1.67847">
        <ele>9.2</ele>
        <time>2020-06-12T07:06:56Z</time>
      </trkpt>
      <trkpt lat="49.32711" lon="-1.67847">
        <ele>9.1</ele>
        <time>2020-06-12T07:06:57Z</time>
      </trkpt>
      <trkpt lat="49.32719" lon="-1.67848">
        <ele>9</ele>
        <time>2020-06-12T07:06:58Z</time>
      </trkpt>
      <trkpt lat="49.32726" lon="-1.6785">
        <ele>8.8</ele>
        <time>2020-06-12T07:06:59Z</time>
      </trkpt>
      <trkpt lat="49.32733" lon="-1.67851">
        <ele>8.6</ele>
        <time>2020-06-12T07:07:00Z</time>
      </trkpt>
      <trkpt lat="49.32741" lon="-1.67852">
        <ele>8.4</ele>
        <time>2020-06-12T07:07:01Z</time>
      </trkpt>
      <trkpt lat="49.32749" lon="-1.67854">
        <ele>8.3</ele>
        <time>2020-06-12T07:07:02Z</time>
      </trkpt>
      <trkpt lat="49.32756" lon="-1.67855">
        <ele>8.3</ele>
        <time>2020-06-12T07:07:03Z</time>
      </trkpt>
      <trkpt lat="49.32766" lon="-1.67854">
        <ele>8.2</ele>
        <time>2020-06-12T07:07:04Z</time>
      </trkpt>
      <trkpt lat="49.32774" lon="-1.67855">
        <ele>8</ele>
        <time>2020-06-12T07:07:05Z</time>
      </trkpt>
      <trkpt lat="49.32781" lon="-1.67857">
        <ele>7.9</ele>
        <time>2020-06-12T07:07:06Z</time>
      </trkpt>
      <trkpt lat="49.32789" lon="-1.67859">
        <ele>7.8</ele>
        <time>2020-06-12T07:07:07Z</time>
      </trkpt>
      <trkpt lat="49.32797" lon="-1.67861">
        <ele>7.7</ele>
        <time>2020-06-12T07:07:08Z</time>
      </trkpt>
      <trkpt lat="49.32805" lon="-1.67863">
        <ele>7.5</ele>
        <time>2020-06-12T07:07:09Z</time>
      </trkpt>
      <trkpt lat="49.32812" lon="-1.67865">
        <ele>7.4</ele>
        <time>2020-06-12T07:07:10Z</time>
      </trkpt>
      <trkpt lat="49.32821" lon="-1.67867">
        <ele>7.3</ele>
        <time>2020-06-12T07:07:11Z</time>
      </trkpt>
      <trkpt lat="49.32828" lon="-1.67868">
        <ele>7.2</ele>
        <time>2020-06-12T07:07:12Z</time>
      </trkpt>
      <trkpt lat="49.32837" lon="-1.67869">
        <ele>7.1</ele>
        <time>2020-06-12T07:07:13Z</time>
      </trkpt>
      <trkpt lat="49.32845" lon="-1.67871">
        <ele>7.1</ele>
        <time>2020-06-12T07:07:14Z</time>
      </trkpt>
      <trkpt lat="49.32853" lon="-1.67871">
        <ele>7</ele>
        <time>2020-06-12T07:07:15Z</time>
      </trkpt>
      <trkpt lat="49.3286" lon="-1.67872">
        <ele>6.9</ele>
        <time>2020-06-12T07:07:16Z</time>
      </trkpt>
      <trkpt lat="49.32868" lon="-1.67872">
        <ele>6.9</ele>
        <time>2020-06-12T07:07:17Z</time>
      </trkpt>
      <trkpt lat="49.32875" lon="-1.67874">
        <ele>6.8</ele>
        <time>2020-06-12T07:07:18Z</time>
      </trkpt>
      <trkpt lat="49.32883" lon="-1.67874">
        <ele>6.7</ele>
        <time>2020-06-12T07:07:19Z</time>
      </trkpt>
      <trkpt lat="49.3289" lon="-1.67876">
        <ele>6.7</ele>
        <time>2020-06-12T07:07:20Z</time>
      </trkpt>
      <trkpt lat="49.32898" lon="-1.67876">
        <ele>6.6</ele>
        <time>2020-06-12T07:07:21Z</time>
      </trkpt>
      <trkpt lat="49.32905" lon="-1.67878">
        <ele>6.6</ele>
        <time>2020-06-12T07:07:22Z</time>
      </trkpt>
      <trkpt lat="49.32912" lon="-1.67879">
        <ele>6.6</ele>
        <time>2020-06-12T07:07:23Z</time>
      </trkpt>
      <trkpt lat="49.32919" lon="-1.6788">
        <ele>6.6</ele>
        <time>2020-06-12T07:07:24Z</time>
      </trkpt>
      <trkpt lat="49.32927" lon="-1.67881">
        <ele>6.6</ele>
        <time>2020-06-12T07:07:25Z</time>
      </trkpt>
      <trkpt lat="49.32934" lon="-1.67882">
        <ele>6.6</ele>
        <time>2020-06-12T07:07:26Z</time>
      </trkpt>
      <trkpt lat="49.32942" lon="-1.67883">
        <ele>6.6</ele>
        <time>2020-06-12T07:07:27Z</time>
      </trkpt>
      <trkpt lat="49.3295" lon="-1.67884">
        <ele>6.6</ele>
        <time>2020-06-12T07:07:28Z</time>
      </trkpt>
      <trkpt lat="49.32958" lon="-1.67885">
        <ele>6.6</ele>
        <time>2020-06-12T07:07:29Z</time>
      </trkpt>
      <trkpt lat="49.32966" lon="-1.67886">
        <ele>6.6</ele>
        <time>2020-06-12T07:07:30Z</time>
      </trkpt>
      <trkpt lat="49.32974" lon="-1.67887">
        <ele>6.6</ele>
        <time>2020-06-12T07:07:31Z</time>
      </trkpt>
      <trkpt lat="49.32982" lon="-1.67887">
        <ele>6.7</ele>
        <time>2020-06-12T07:07:32Z</time>
      </trkpt>
      <trkpt lat="49.3299" lon="-1.67888">
        <ele>6.7</ele>
        <time>2020-06-12T07:07:33Z</time>
      </trkpt>
      <trkpt lat="49.32997" lon="-1.67889">
        <ele>6.7</ele>
        <time>2020-06-12T07:07:34Z</time>
      </trkpt>
      <trkpt lat="49.33004" lon="-1.67888">
        <ele>6.9</ele>
        <time>2020-06-12T07:07:35Z</time>
      </trkpt>
      <trkpt lat="49.33012" lon="-1.6789">
        <ele>7</ele>
        <time>2020-06-12T07:07:36Z</time>
      </trkpt>
      <trkpt lat="49.33019" lon="-1.67891">
        <ele>7.1</ele>
        <time>2020-06-12T07:07:37Z</time>
      </trkpt>
      <trkpt lat="49.33027" lon="-1.67892">
        <ele>7.1</ele>
        <time>2020-06-12T07:07:38Z</time>
      </trkpt>
      <trkpt lat="49.33034" lon="-1.67893">
        <ele>7.2</ele>
        <time>2020-06-12T07:07:39Z</time>
      </trkpt>
      <trkpt lat="49.33041" lon="-1.67894">
        <ele>7.2</ele>
        <time>2020-06-12T07:07:40Z</time>
      </trkpt>
      <trkpt lat="49.33048" lon="-1.67895">
        <ele>7.3</ele>
        <time>2020-06-12T07:07:41Z</time>
      </trkpt>
      <trkpt lat="49.33055" lon="-1.67896">
        <ele>7.3</ele>
        <time>2020-06-12T07:07:42Z</time>
      </trkpt>
      <trkpt lat="49.33061" lon="-1.67897">
        <ele>7.4</ele>
        <time>2020-06-12T07:07:43Z</time>
      </trkpt>
      <trkpt lat="49.33069" lon="-1.67899">
        <ele>7.5</ele>
        <time>2020-06-12T07:07:44Z</time>
      </trkpt>
      <trkpt lat="49.33076" lon="-1.679">
        <ele>7.6</ele>
        <time>2020-06-12T07:07:45Z</time>
      </trkpt>
      <trkpt lat="49.33083" lon="-1.67901">
        <ele>7.7</ele>
        <time>2020-06-12T07:07:46Z</time>
      </trkpt>
      <trkpt lat="49.3309" lon="-1.67903">
        <ele>7.8</ele>
        <time>2020-06-12T07:07:47Z</time>
      </trkpt>
      <trkpt lat="49.33096" lon="-1.67904">
        <ele>7.9</ele>
        <time>2020-06-12T07:07:48Z</time>
      </trkpt>
      <trkpt lat="49.33103" lon="-1.67905">
        <ele>8.1</ele>
        <time>2020-06-12T07:07:49Z</time>
      </trkpt>
      <trkpt lat="49.33109" lon="-1.67906">
        <ele>8.2</ele>
        <time>2020-06-12T07:07:50Z</time>
      </trkpt>
      <trkpt lat="49.33116" lon="-1.67907">
        <ele>8.4</ele>
        <time>2020-06-12T07:07:51Z</time>
      </trkpt>
      <trkpt lat="49.33122" lon="-1.67907">
        <ele>8.5</ele>
        <time>2020-06-12T07:07:52Z</time>
      </trkpt>
      <trkpt lat="49.33128" lon="-1.67908">
        <ele>8.7</ele>
        <time>2020-06-12T07:07:53Z</time>
      </trkpt>
      <trkpt lat="49.33133" lon="-1.67909">
        <ele>8.9</ele>
        <time>2020-06-12T07:07:54Z</time>
      </trkpt>
      <trkpt lat="49.33138" lon="-1.67911">
        <ele>9</ele>
        <time>2020-06-12T07:07:55Z</time>
      </trkpt>
      <trkpt lat="49.33144" lon="-1.67912">
        <ele>9.1</ele>
        <time>2020-06-12T07:07:56Z</time>
      </trkpt>
      <trkpt lat="49.3315" lon="-1.67912">
        <ele>9.3</ele>
        <time>2020-06-12T07:07:57Z</time>
      </trkpt>
      <trkpt lat="49.33155" lon="-1.67913">
        <ele>9.5</ele>
        <time>2020-06-12T07:07:58Z</time>
      </trkpt>
      <trkpt lat="49.33162" lon="-1.67914">
        <ele>9.6</ele>
        <time>2020-06-12T07:07:59Z</time>
      </trkpt>
      <trkpt lat="49.33168" lon="-1.67913">
        <ele>9.8</ele>
        <time>2020-06-12T07:08:00Z</time>
      </trkpt>
      <trkpt lat="49.33173" lon="-1.67913">
        <ele>9.9</ele>
        <time>2020-06-12T07:08:01Z</time>
      </trkpt>
      <trkpt lat="49.33179" lon="-1.67914">
        <ele>10.1</ele>
        <time>2020-06-12T07:08:02Z</time>
      </trkpt>
      <trkpt lat="49.33184" lon="-1.67916">
        <ele>10.2</ele>
        <time>2020-06-12T07:08:03Z</time>
      </trkpt>
      <trkpt lat="49.33189" lon="-1.67918">
        <ele>10.3</ele>
        <time>2020-06-12T07:08:04Z</time>
      </trkpt>
      <trkpt lat="49.33195" lon="-1.67919">
        <ele>10.4</ele>
        <time>2020-06-12T07:08:05Z</time>
      </trkpt>
      <trkpt lat="49.332" lon="-1.6792">
        <ele>10.6</ele>
        <time>2020-06-12T07:08:06Z</time>
      </trkpt>
      <trkpt lat="49.33205" lon="-1.67921">
        <ele>10.7</ele>
        <time>2020-06-12T07:08:07Z</time>
      </trkpt>
      <trkpt lat="49.33211" lon="-1.67921">
        <ele>10.9</ele>
        <time>2020-06-12T07:08:08Z</time>
      </trkpt>
      <trkpt lat="49.33216" lon="-1.67921">
        <ele>11.1</ele>
        <time>2020-06-12T07:08:09Z</time>
      </trkpt>
      <trkpt lat="49.33222" lon="-1.67922">
        <ele>11.3</ele>
        <time>2020-06-12T07:08:10Z</time>
      </trkpt>
      <trkpt lat="49.33227" lon="-1.67922">
        <ele>11.4</ele>
        <time>2020-06-12T07:08:11Z</time>
      </trkpt>
      <trkpt lat="49.33232" lon="-1.67922">
        <ele>11.6</ele>
        <time>2020-06-12T07:08:12Z</time>
      </trkpt>
      <trkpt lat="49.33237" lon="-1.67923">
        <ele>11.7</ele>
        <time>2020-06-12T07:08:13Z</time>
      </trkpt>
      <trkpt lat="49.33242" lon="-1.67923">
        <ele>11.8</ele>
        <time>2020-06-12T07:08:14Z</time>
      </trkpt>
      <trkpt lat="49.33247" lon="-1.67924">
        <ele>11.8</ele>
        <time>2020-06-12T07:08:15Z</time>
      </trkpt>
      <trkpt lat="49.33252" lon="-1.67924">
        <ele>11.9</ele>
        <time>2020-06-12T07:08:16Z</time>
      </trkpt>
      <trkpt lat="49.33258" lon="-1.67924">
        <ele>11.9</ele>
        <time>2020-06-12T07:08:17Z</time>
      </trkpt>
      <trkpt lat="49.33263" lon="-1.67924">
        <ele>12</ele>
        <time>2020-06-12T07:08:18Z</time>
      </trkpt>
      <trkpt lat="49.33267" lon="-1.67924">
        <ele>12.1</ele>
        <time>2020-06-12T07:08:19Z</time>
      </trkpt>
      <trkpt lat="49.33272" lon="-1.67925">
        <ele>12.1</ele>
        <time>2020-06-12T07:08:20Z</time>
      </trkpt>
      <trkpt lat="49.33276" lon="-1.67926">
        <ele>12.2</ele>
        <time>2020-06-12T07:08:21Z</time>
      </trkpt>
      <trkpt lat="49.33281" lon="-1.67926">
        <ele>12.3</ele>
        <time>2020-06-12T07:08:22Z</time>
      </trkpt>
      <trkpt lat="49.33287" lon="-1.67927">
        <ele>12.4</ele>
        <time>2020-06-12T07:08:23Z</time>
      </trkpt>
      <trkpt lat="49.33292" lon="-1.67927">
        <ele>12.4</ele>
        <time>2020-06-12T07:08:24Z</time>
      </trkpt>
      <trkpt lat="49.33298" lon="-1.67928">
        <ele>12.5</ele>
        <time>2020-06-12T07:08:25Z</time>
      </trkpt>
      <trkpt lat="49.33303" lon="-1.67929">
        <ele>12.6</ele>
        <time>2020-06-12T07:08:26Z</time>
      </trkpt>
      <trkpt lat="49.33308" lon="-1.6793">
        <ele>12.7</ele>
        <time>2020-06-12T07:08:27Z</time>
      </trkpt>
      <trkpt lat="49.33313" lon="-1.67931">
        <ele>12.8</ele>
        <time>2020-06-12T07:08:28Z</time>
      </trkpt>
      <trkpt lat="49.33318" lon="-1.67931">
        <ele>12.9</ele>
        <time>2020-06-12T07:08:29Z</time>
      </trkpt>
      <trkpt lat="49.33324" lon="-1.67933">
        <ele>13</ele>
        <time>2020-06-12T07:08:30Z</time>
      </trkpt>
      <trkpt lat="49.3333" lon="-1.67933">
        <ele>13.1</ele>
        <time>2020-06-12T07:08:31Z</time>
      </trkpt>
      <trkpt lat="49.33335" lon="-1.67934">
        <ele>13.3</ele>
        <time>2020-06-12T07:08:32Z</time>
      </trkpt>
      <trkpt lat="49.3334" lon="-1.67934">
        <ele>13.4</ele>
        <time>2020-06-12T07:08:33Z</time>
      </trkpt>
      <trkpt lat="49.33346" lon="-1.67934">
        <ele>13.5</ele>
        <time>2020-06-12T07:08:34Z</time>
      </trkpt>
      <trkpt lat="49.33351" lon="-1.67934">
        <ele>13.5</ele>
        <time>2020-06-12T07:08:35Z</time>
      </trkpt>
      <trkpt lat="49.33355" lon="-1.67935">
        <ele>13.6</ele>
        <time>2020-06-12T07:08:36Z</time>
      </trkpt>
      <trkpt lat="49.33361" lon="-1.67935">
        <ele>13.7</ele>
        <time>2020-06-12T07:08:37Z</time>
      </trkpt>
      <trkpt lat="49.33367" lon="-1.67936">
        <ele>13.7</ele>
        <time>2020-06-12T07:08:38Z</time>
      </trkpt>
      <trkpt lat="49.33373" lon="-1.67938">
        <ele>13.7</ele>
        <time>2020-06-12T07:08:39Z</time>
      </trkpt>
      <trkpt lat="49.33378" lon="-1.6794">
        <ele>13.7</ele>
        <time>2020-06-12T07:08:40Z</time>
      </trkpt>
      <trkpt lat="49.33383" lon="-1.67941">
        <ele>13.8</ele>
        <time>2020-06-12T07:08:41Z</time>
      </trkpt>
      <trkpt lat="49.33388" lon="-1.67943">
        <ele>13.9</ele>
        <time>2020-06-12T07:08:42Z</time>
      </trkpt>
      <trkpt lat="49.33393" lon="-1.67943">
        <ele>14</ele>
        <time>2020-06-12T07:08:43Z</time>
      </trkpt>
      <trkpt lat="49.33398" lon="-1.67942">
        <ele>14</ele>
        <time>2020-06-12T07:08:44Z</time>
      </trkpt>
      <trkpt lat="49.33402" lon="-1.67943">
        <ele>14.1</ele>
        <time>2020-06-12T07:08:45Z</time>
      </trkpt>
      <trkpt lat="49.33407" lon="-1.67942">
        <ele>14.1</ele>
        <time>2020-06-12T07:08:46Z</time>
      </trkpt>
      <trkpt lat="49.33411" lon="-1.67939">
        <ele>14.3</ele>
        <time>2020-06-12T07:08:47Z</time>
      </trkpt>
      <trkpt lat="49.33415" lon="-1.67934">
        <ele>14.4</ele>
        <time>2020-06-12T07:08:48Z</time>
      </trkpt>
      <trkpt lat="49.33418" lon="-1.6793">
        <ele>14.5</ele>
        <time>2020-06-12T07:08:49Z</time>
      </trkpt>
      <trkpt lat="49.33421" lon="-1.67924">
        <ele>14.6</ele>
        <time>2020-06-12T07:08:50Z</time>
      </trkpt>
      <trkpt lat="49.33425" lon="-1.67921">
        <ele>14.7</ele>
        <time>2020-06-12T07:08:51Z</time>
      </trkpt>
      <trkpt lat="49.33428" lon="-1.67918">
        <ele>14.7</ele>
        <time>2020-06-12T07:08:52Z</time>
      </trkpt>
      <trkpt lat="49.33431" lon="-1.67918">
        <ele>14.8</ele>
        <time>2020-06-12T07:08:53Z</time>
      </trkpt>
      <trkpt lat="49.33435" lon="-1.67917">
        <ele>14.8</ele>
        <time>2020-06-12T07:08:54Z</time>
      </trkpt>
      <trkpt lat="49.33438" lon="-1.67918">
        <ele>14.9</ele>
        <time>2020-06-12T07:08:55Z</time>
      </trkpt>
      <trkpt lat="49.33441" lon="-1.67919">
        <ele>14.9</ele>
        <time>2020-06-12T07:08:56Z</time>
      </trkpt>
      <trkpt lat="49.33444" lon="-1.6792">
        <ele>14.9</ele>
        <time>2020-06-12T07:08:57Z</time>
      </trkpt>
      <trkpt lat="49.33447" lon="-1.67922">
        <ele>14.9</ele>
        <time>2020-06-12T07:08:58Z</time>
      </trkpt>
      <trkpt lat="49.33451" lon="-1.67925">
        <ele>14.9</ele>
        <time>2020-06-12T07:08:59Z</time>
      </trkpt>
      <trkpt lat="49.33455" lon="-1.67928">
        <ele>14.9</ele>
        <time>2020-06-12T07:09:00Z</time>
      </trkpt>
      <trkpt lat="49.33458" lon="-1.67932">
        <ele>14.9</ele>
        <time>2020-06-12T07:09:01Z</time>
      </trkpt>
      <trkpt lat="49.33461" lon="-1.67937">
        <ele>14.9</ele>
        <time>2020-06-12T07:09:02Z</time>
      </trkpt>
      <trkpt lat="49.33464" lon="-1.67942">
        <ele>14.8</ele>
        <time>2020-06-12T07:09:03Z</time>
      </trkpt>
      <trkpt lat="49.33468" lon="-1.67947">
        <ele>14.8</ele>
        <time>2020-06-12T07:09:04Z</time>
      </trkpt>
      <trkpt lat="49.33472" lon="-1.67951">
        <ele>14.8</ele>
        <time>2020-06-12T07:09:05Z</time>
      </trkpt>
      <trkpt lat="49.33475" lon="-1.67954">
        <ele>14.7</ele>
        <time>2020-06-12T07:09:06Z</time>
      </trkpt>
      <trkpt lat="49.33481" lon="-1.67957">
        <ele>14.6</ele>
        <time>2020-06-12T07:09:07Z</time>
      </trkpt>
      <trkpt lat="49.33486" lon="-1.67958">
        <ele>14.5</ele>
        <time>2020-06-12T07:09:08Z</time>
      </trkpt>
      <trkpt lat="49.3349" lon="-1.67959">
        <ele>14.4</ele>
        <time>2020-06-12T07:09:09Z</time>
      </trkpt>
      <trkpt lat="49.33495" lon="-1.6796">
        <ele>14.3</ele>
        <time>2020-06-12T07:09:10Z</time>
      </trkpt>
      <trkpt lat="49.335" lon="-1.67961">
        <ele>14.1</ele>
        <time>2020-06-12T07:09:11Z</time>
      </trkpt>
      <trkpt lat="49.33507" lon="-1.6796">
        <ele>13.9</ele>
        <time>2020-06-12T07:09:12Z</time>
      </trkpt>
      <trkpt lat="49.33513" lon="-1.6796">
        <ele>13.8</ele>
        <time>2020-06-12T07:09:13Z</time>
      </trkpt>
      <trkpt lat="49.33519" lon="-1.67961">
        <ele>13.6</ele>
        <time>2020-06-12T07:09:14Z</time>
      </trkpt>
      <trkpt lat="49.33525" lon="-1.67963">
        <ele>13.5</ele>
        <time>2020-06-12T07:09:15Z</time>
      </trkpt>
      <trkpt lat="49.33531" lon="-1.67964">
        <ele>13.3</ele>
        <time>2020-06-12T07:09:16Z</time>
      </trkpt>
      <trkpt lat="49.33537" lon="-1.67965">
        <ele>13.2</ele>
        <time>2020-06-12T07:09:17Z</time>
      </trkpt>
      <trkpt lat="49.33543" lon="-1.67965">
        <ele>13.1</ele>
        <time>2020-06-12T07:09:18Z</time>
      </trkpt>
      <trkpt lat="49.33549" lon="-1.67966">
        <ele>13</ele>
        <time>2020-06-12T07:09:19Z</time>
      </trkpt>
      <trkpt lat="49.33554" lon="-1.67967">
        <ele>12.9</ele>
        <time>2020-06-12T07:09:20Z</time>
      </trkpt>
      <trkpt lat="49.33559" lon="-1.67968">
        <ele>12.9</ele>
        <time>2020-06-12T07:09:21Z</time>
      </trkpt>
      <trkpt lat="49.33565" lon="-1.67968">
        <ele>12.8</ele>
        <time>2020-06-12T07:09:22Z</time>
      </trkpt>
      <trkpt lat="49.33571" lon="-1.67968">
        <ele>12.8</ele>
        <time>2020-06-12T07:09:23Z</time>
      </trkpt>
      <trkpt lat="49.33577" lon="-1.6797">
        <ele>12.8</ele>
        <time>2020-06-12T07:09:24Z</time>
      </trkpt>
      <trkpt lat="49.33584" lon="-1.67971">
        <ele>12.8</ele>
        <time>2020-06-12T07:09:25Z</time>
      </trkpt>
      <trkpt lat="49.3359" lon="-1.67972">
        <ele>12.8</ele>
        <time>2020-06-12T07:09:26Z</time>
      </trkpt>
      <trkpt lat="49.33596" lon="-1.67973">
        <ele>12.9</ele>
        <time>2020-06-12T07:09:27Z</time>
      </trkpt>
      <trkpt lat="49.33602" lon="-1.67974">
        <ele>13</ele>
        <time>2020-06-12T07:09:28Z</time>
      </trkpt>
      <trkpt lat="49.33611" lon="-1.67975">
        <ele>13.1</ele>
        <time>2020-06-12T07:09:29Z</time>
      </trkpt>
      <trkpt lat="49.33617" lon="-1.67975">
        <ele>13.3</ele>
        <time>2020-06-12T07:09:30Z</time>
      </trkpt>
      <trkpt lat="49.33622" lon="-1.67975">
        <ele>13.4</ele>
        <time>2020-06-12T07:09:31Z</time>
      </trkpt>
      <trkpt lat="49.33627" lon="-1.67975">
        <ele>13.4</ele>
        <time>2020-06-12T07:09:32Z</time>
      </trkpt>
      <trkpt lat="49.33634" lon="-1.67977">
        <ele>13.6</ele>
        <time>2020-06-12T07:09:33Z</time>
      </trkpt>
      <trkpt lat="49.33641" lon="-1.67977">
        <ele>13.7</ele>
        <time>2020-06-12T07:09:34Z</time>
      </trkpt>
      <trkpt lat="49.33647" lon="-1.67977">
        <ele>13.8</ele>
        <time>2020-06-12T07:09:35Z</time>
      </trkpt>
      <trkpt lat="49.33654" lon="-1.67977">
        <ele>14</ele>
        <time>2020-06-12T07:09:36Z</time>
      </trkpt>
      <trkpt lat="49.3366" lon="-1.67977">
        <ele>14.1</ele>
        <time>2020-06-12T07:09:37Z</time>
      </trkpt>
      <trkpt lat="49.33666" lon="-1.67978">
        <ele>14.2</ele>
        <time>2020-06-12T07:09:38Z</time>
      </trkpt>
      <trkpt lat="49.33672" lon="-1.67978">
        <ele>14.4</ele>
        <time>2020-06-12T07:09:39Z</time>
      </trkpt>
      <trkpt lat="49.33678" lon="-1.67979">
        <ele>14.5</ele>
        <time>2020-06-12T07:09:40Z</time>
      </trkpt>
      <trkpt lat="49.33685" lon="-1.6798">
        <ele>14.6</ele>
        <time>2020-06-12T07:09:41Z</time>
      </trkpt>
      <trkpt lat="49.33691" lon="-1.67981">
        <ele>14.7</ele>
        <time>2020-06-12T07:09:42Z</time>
      </trkpt>
      <trkpt lat="49.33698" lon="-1.67982">
        <ele>14.9</ele>
        <time>2020-06-12T07:09:43Z</time>
      </trkpt>
      <trkpt lat="49.33704" lon="-1.67983">
        <ele>15</ele>
        <time>2020-06-12T07:09:44Z</time>
      </trkpt>
      <trkpt lat="49.3371" lon="-1.67983">
        <ele>15.1</ele>
        <time>2020-06-12T07:09:45Z</time>
      </trkpt>
      <trkpt lat="49.33718" lon="-1.67984">
        <ele>15.3</ele>
        <time>2020-06-12T07:09:46Z</time>
      </trkpt>
      <trkpt lat="49.33723" lon="-1.67984">
        <ele>15.4</ele>
        <time>2020-06-12T07:09:47Z</time>
      </trkpt>
      <trkpt lat="49.33729" lon="-1.67985">
        <ele>15.5</ele>
        <time>2020-06-12T07:09:48Z</time>
      </trkpt>
      <trkpt lat="49.33734" lon="-1.67985">
        <ele>15.6</ele>
        <time>2020-06-12T07:09:49Z</time>
      </trkpt>
      <trkpt lat="49.3374" lon="-1.67986">
        <ele>15.7</ele>
        <time>2020-06-12T07:09:50Z</time>
      </trkpt>
      <trkpt lat="49.33747" lon="-1.67986">
        <ele>15.8</ele>
        <time>2020-06-12T07:09:51Z</time>
      </trkpt>
      <trkpt lat="49.33753" lon="-1.67986">
        <ele>16</ele>
        <time>2020-06-12T07:09:52Z</time>
      </trkpt>
      <trkpt lat="49.33758" lon="-1.67986">
        <ele>16.1</ele>
        <time>2020-06-12T07:09:53Z</time>
      </trkpt>
      <trkpt lat="49.33764" lon="-1.67986">
        <ele>16.2</ele>
        <time>2020-06-12T07:09:54Z</time>
      </trkpt>
      <trkpt lat="49.33769" lon="-1.67986">
        <ele>16.3</ele>
        <time>2020-06-12T07:09:55Z</time>
      </trkpt>
      <trkpt lat="49.33775" lon="-1.67985">
        <ele>16.4</ele>
        <time>2020-06-12T07:09:56Z</time>
      </trkpt>
      <trkpt lat="49.3378" lon="-1.67984">
        <ele>16.5</ele>
        <time>2020-06-12T07:09:57Z</time>
      </trkpt>
      <trkpt lat="49.33785" lon="-1.67984">
        <ele>16.6</ele>
        <time>2020-06-12T07:09:58Z</time>
      </trkpt>
      <trkpt lat="49.33791" lon="-1.67983">
        <ele>16.7</ele>
        <time>2020-06-12T07:09:59Z</time>
      </trkpt>
      <trkpt lat="49.33797" lon="-1.67983">
        <ele>16.7</ele>
        <time>2020-06-12T07:10:00Z</time>
      </trkpt>
      <trkpt lat="49.33803" lon="-1.67982">
        <ele>16.8</ele>
        <time>2020-06-12T07:10:01Z</time>
      </trkpt>
      <trkpt lat="49.33808" lon="-1.67982">
        <ele>16.9</ele>
        <time>2020-06-12T07:10:02Z</time>
      </trkpt>
      <trkpt lat="49.33814" lon="-1.6798">
        <ele>16.9</ele>
        <time>2020-06-12T07:10:03Z</time>
      </trkpt>
      <trkpt lat="49.33819" lon="-1.67979">
        <ele>17</ele>
        <time>2020-06-12T07:10:04Z</time>
      </trkpt>
      <trkpt lat="49.33826" lon="-1.67979">
        <ele>17.1</ele>
        <time>2020-06-12T07:10:05Z</time>
      </trkpt>
      <trkpt lat="49.33831" lon="-1.67978">
        <ele>17.2</ele>
        <time>2020-06-12T07:10:06Z</time>
      </trkpt>
      <trkpt lat="49.33837" lon="-1.67976">
        <ele>17.3</ele>
        <time>2020-06-12T07:10:07Z</time>
      </trkpt>
      <trkpt lat="49.33843" lon="-1.67974">
        <ele>17.5</ele>
        <time>2020-06-12T07:10:08Z</time>
      </trkpt>
      <trkpt lat="49.33848" lon="-1.67973">
        <ele>17.6</ele>
        <time>2020-06-12T07:10:09Z</time>
      </trkpt>
      <trkpt lat="49.33853" lon="-1.67971">
        <ele>17.8</ele>
        <time>2020-06-12T07:10:10Z</time>
      </trkpt>
      <trkpt lat="49.33858" lon="-1.6797">
        <ele>17.9</ele>
        <time>2020-06-12T07:10:11Z</time>
      </trkpt>
      <trkpt lat="49.33863" lon="-1.67968">
        <ele>18.1</ele>
        <time>2020-06-12T07:10:12Z</time>
      </trkpt>
      <trkpt lat="49.33867" lon="-1.67966">
        <ele>18.3</ele>
        <time>2020-06-12T07:10:13Z</time>
      </trkpt>
      <trkpt lat="49.33873" lon="-1.67965">
        <ele>18.5</ele>
        <time>2020-06-12T07:10:14Z</time>
      </trkpt>
      <trkpt lat="49.33878" lon="-1.67963">
        <ele>18.7</ele>
        <time>2020-06-12T07:10:15Z</time>
      </trkpt>
      <trkpt lat="49.33884" lon="-1.67961">
        <ele>19.1</ele>
        <time>2020-06-12T07:10:16Z</time>
      </trkpt>
      <trkpt lat="49.33891" lon="-1.67958">
        <ele>19.2</ele>
        <time>2020-06-12T07:10:17Z</time>
      </trkpt>
      <trkpt lat="49.33896" lon="-1.67958">
        <ele>19</ele>
        <time>2020-06-12T07:10:18Z</time>
      </trkpt>
      <trkpt lat="49.33901" lon="-1.67956">
        <ele>18.8</ele>
        <time>2020-06-12T07:10:19Z</time>
      </trkpt>
      <trkpt lat="49.33909" lon="-1.67957">
        <ele>18.5</ele>
        <time>2020-06-12T07:10:20Z</time>
      </trkpt>
      <trkpt lat="49.33914" lon="-1.67955">
        <ele>18.3</ele>
        <time>2020-06-12T07:10:21Z</time>
      </trkpt>
      <trkpt lat="49.3392" lon="-1.67953">
        <ele>18.2</ele>
        <time>2020-06-12T07:10:22Z</time>
      </trkpt>
      <trkpt lat="49.33925" lon="-1.67952">
        <ele>18.1</ele>
        <time>2020-06-12T07:10:23Z</time>
      </trkpt>
      <trkpt lat="49.3393" lon="-1.67951">
        <ele>18.1</ele>
        <time>2020-06-12T07:10:24Z</time>
      </trkpt>
      <trkpt lat="49.33935" lon="-1.67949">
        <ele>18.1</ele>
        <time>2020-06-12T07:10:25Z</time>
      </trkpt>
      <trkpt lat="49.33941" lon="-1.67946">
        <ele>18.1</ele>
        <time>2020-06-12T07:10:26Z</time>
      </trkpt>
      <trkpt lat="49.33946" lon="-1.67944">
        <ele>18.1</ele>
        <time>2020-06-12T07:10:27Z</time>
      </trkpt>
      <trkpt lat="49.33951" lon="-1.67943">
        <ele>18.1</ele>
        <time>2020-06-12T07:10:28Z</time>
      </trkpt>
      <trkpt lat="49.33956" lon="-1.67941">
        <ele>18.2</ele>
        <time>2020-06-12T07:10:29Z</time>
      </trkpt>
      <trkpt lat="49.33961" lon="-1.67939">
        <ele>18.2</ele>
        <time>2020-06-12T07:10:30Z</time>
      </trkpt>
      <trkpt lat="49.33965" lon="-1.67937">
        <ele>18.2</ele>
        <time>2020-06-12T07:10:31Z</time>
      </trkpt>
      <trkpt lat="49.3397" lon="-1.67936">
        <ele>18.2</ele>
        <time>2020-06-12T07:10:32Z</time>
      </trkpt>
      <trkpt lat="49.33975" lon="-1.67934">
        <ele>18.2</ele>
        <time>2020-06-12T07:10:33Z</time>
      </trkpt>
      <trkpt lat="49.33981" lon="-1.67932">
        <ele>18.2</ele>
        <time>2020-06-12T07:10:34Z</time>
      </trkpt>
      <trkpt lat="49.33986" lon="-1.6793">
        <ele>18.2</ele>
        <time>2020-06-12T07:10:35Z</time>
      </trkpt>
      <trkpt lat="49.33991" lon="-1.67928">
        <ele>18.2</ele>
        <time>2020-06-12T07:10:36Z</time>
      </trkpt>
      <trkpt lat="49.33996" lon="-1.67926">
        <ele>18.2</ele>
        <time>2020-06-12T07:10:37Z</time>
      </trkpt>
      <trkpt lat="49.34002" lon="-1.67923">
        <ele>18.2</ele>
        <time>2020-06-12T07:10:38Z</time>
      </trkpt>
      <trkpt lat="49.34007" lon="-1.67921">
        <ele>18.2</ele>
        <time>2020-06-12T07:10:39Z</time>
      </trkpt>
      <trkpt lat="49.34012" lon="-1.67918">
        <ele>18.2</ele>
        <time>2020-06-12T07:10:40Z</time>
      </trkpt>
      <trkpt lat="49.34017" lon="-1.67916">
        <ele>18.2</ele>
        <time>2020-06-12T07:10:41Z</time>
      </trkpt>
      <trkpt lat="49.34022" lon="-1.67913">
        <ele>18.2</ele>
        <time>2020-06-12T07:10:42Z</time>
      </trkpt>
      <trkpt lat="49.34027" lon="-1.67909">
        <ele>18.3</ele>
        <time>2020-06-12T07:10:43Z</time>
      </trkpt>
      <trkpt lat="49.34031" lon="-1.67907">
        <ele>18.3</ele>
        <time>2020-06-12T07:10:44Z</time>
      </trkpt>
      <trkpt lat="49.34036" lon="-1.67904">
        <ele>18.3</ele>
        <time>2020-06-12T07:10:45Z</time>
      </trkpt>
      <trkpt lat="49.3404" lon="-1.67899">
        <ele>18.3</ele>
        <time>2020-06-12T07:10:46Z</time>
      </trkpt>
      <trkpt lat="49.34046" lon="-1.67894">
        <ele>18.4</ele>
        <time>2020-06-12T07:10:47Z</time>
      </trkpt>
      <trkpt lat="49.34051" lon="-1.67892">
        <ele>18.4</ele>
        <time>2020-06-12T07:10:48Z</time>
      </trkpt>
      <trkpt lat="49.34056" lon="-1.67889">
        <ele>18.4</ele>
        <time>2020-06-12T07:10:49Z</time>
      </trkpt>
      <trkpt lat="49.34061" lon="-1.67886">
        <ele>18.4</ele>
        <time>2020-06-12T07:10:50Z</time>
      </trkpt>
      <trkpt lat="49.34067" lon="-1.67883">
        <ele>18.5</ele>
        <time>2020-06-12T07:10:51Z</time>
      </trkpt>
      <trkpt lat="49.34072" lon="-1.6788">
        <ele>18.5</ele>
        <time>2020-06-12T07:10:52Z</time>
      </trkpt>
      <trkpt lat="49.34077" lon="-1.67877">
        <ele>18.5</ele>
        <time>2020-06-12T07:10:53Z</time>
      </trkpt>
      <trkpt lat="49.34082" lon="-1.67874">
        <ele>18.5</ele>
        <time>2020-06-12T07:10:54Z</time>
      </trkpt>
      <trkpt lat="49.34087" lon="-1.67872">
        <ele>18.6</ele>
        <time>2020-06-12T07:10:55Z</time>
      </trkpt>
      <trkpt lat="49.34091" lon="-1.67867">
        <ele>18.6</ele>
        <time>2020-06-12T07:10:56Z</time>
      </trkpt>
      <trkpt lat="49.34096" lon="-1.67864">
        <ele>18.7</ele>
        <time>2020-06-12T07:10:57Z</time>
      </trkpt>
      <trkpt lat="49.34101" lon="-1.6786">
        <ele>18.7</ele>
        <time>2020-06-12T07:10:58Z</time>
      </trkpt>
      <trkpt lat="49.34106" lon="-1.67857">
        <ele>18.8</ele>
        <time>2020-06-12T07:10:59Z</time>
      </trkpt>
      <trkpt lat="49.34111" lon="-1.67854">
        <ele>18.8</ele>
        <time>2020-06-12T07:11:00Z</time>
      </trkpt>
      <trkpt lat="49.34115" lon="-1.6785">
        <ele>18.8</ele>
        <time>2020-06-12T07:11:01Z</time>
      </trkpt>
      <trkpt lat="49.3412" lon="-1.67847">
        <ele>18.8</ele>
        <time>2020-06-12T07:11:02Z</time>
      </trkpt>
      <trkpt lat="49.34125" lon="-1.67845">
        <ele>18.8</ele>
        <time>2020-06-12T07:11:03Z</time>
      </trkpt>
      <trkpt lat="49.34131" lon="-1.67841">
        <ele>18.9</ele>
        <time>2020-06-12T07:11:04Z</time>
      </trkpt>
      <trkpt lat="49.34136" lon="-1.67838">
        <ele>18.9</ele>
        <time>2020-06-12T07:11:05Z</time>
      </trkpt>
      <trkpt lat="49.34141" lon="-1.67834">
        <ele>18.9</ele>
        <time>2020-06-12T07:11:06Z</time>
      </trkpt>
      <trkpt lat="49.34146" lon="-1.6783">
        <ele>18.9</ele>
        <time>2020-06-12T07:11:07Z</time>
      </trkpt>
      <trkpt lat="49.34151" lon="-1.67826">
        <ele>18.9</ele>
        <time>2020-06-12T07:11:08Z</time>
      </trkpt>
      <trkpt lat="49.34155" lon="-1.67822">
        <ele>19</ele>
        <time>2020-06-12T07:11:09Z</time>
      </trkpt>
      <trkpt lat="49.3416" lon="-1.67819">
        <ele>19</ele>
        <time>2020-06-12T07:11:10Z</time>
      </trkpt>
      <trkpt lat="49.34165" lon="-1.67815">
        <ele>19</ele>
        <time>2020-06-12T07:11:11Z</time>
      </trkpt>
      <trkpt lat="49.3417" lon="-1.67811">
        <ele>19.1</ele>
        <time>2020-06-12T07:11:12Z</time>
      </trkpt>
      <trkpt lat="49.34175" lon="-1.67806">
        <ele>19.1</ele>
        <time>2020-06-12T07:11:13Z</time>
      </trkpt>
      <trkpt lat="49.3418" lon="-1.67802">
        <ele>19.1</ele>
        <time>2020-06-12T07:11:14Z</time>
      </trkpt>
      <trkpt lat="49.34185" lon="-1.67797">
        <ele>19.2</ele>
        <time>2020-06-12T07:11:15Z</time>
      </trkpt>
      <trkpt lat="49.3419" lon="-1.67793">
        <ele>19.2</ele>
        <time>2020-06-12T07:11:16Z</time>
      </trkpt>
      <trkpt lat="49.34195" lon="-1.67789">
        <ele>19.2</ele>
        <time>2020-06-12T07:11:17Z</time>
      </trkpt>
      <trkpt lat="49.342" lon="-1.67785">
        <ele>19.2</ele>
        <time>2020-06-12T07:11:18Z</time>
      </trkpt>
      <trkpt lat="49.34203" lon="-1.6778">
        <ele>19.2</ele>
        <time>2020-06-12T07:11:19Z</time>
      </trkpt>
      <trkpt lat="49.34208" lon="-1.67777">
        <ele>19.2</ele>
        <time>2020-06-12T07:11:20Z</time>
      </trkpt>
      <trkpt lat="49.34212" lon="-1.67773">
        <ele>19.2</ele>
        <time>2020-06-12T07:11:21Z</time>
      </trkpt>
      <trkpt lat="49.34217" lon="-1.67767">
        <ele>19.3</ele>
        <time>2020-06-12T07:11:22Z</time>
      </trkpt>
      <trkpt lat="49.34222" lon="-1.67762">
        <ele>19.3</ele>
        <time>2020-06-12T07:11:23Z</time>
      </trkpt>
      <trkpt lat="49.34228" lon="-1.67756">
        <ele>19.3</ele>
        <time>2020-06-12T07:11:24Z</time>
      </trkpt>
      <trkpt lat="49.34232" lon="-1.67751">
        <ele>19.4</ele>
        <time>2020-06-12T07:11:25Z</time>
      </trkpt>
      <trkpt lat="49.34237" lon="-1.67746">
        <ele>19.4</ele>
        <time>2020-06-12T07:11:26Z</time>
      </trkpt>
      <trkpt lat="49.34242" lon="-1.6774">
        <ele>19.5</ele>
        <time>2020-06-12T07:11:27Z</time>
      </trkpt>
      <trkpt lat="49.34247" lon="-1.67735">
        <ele>19.5</ele>
        <time>2020-06-12T07:11:28Z</time>
      </trkpt>
      <trkpt lat="49.34252" lon="-1.6773">
        <ele>19.6</ele>
        <time>2020-06-12T07:11:29Z</time>
      </trkpt>
      <trkpt lat="49.34256" lon="-1.67724">
        <ele>19.6</ele>
        <time>2020-06-12T07:11:30Z</time>
      </trkpt>
      <trkpt lat="49.34261" lon="-1.67719">
        <ele>19.7</ele>
        <time>2020-06-12T07:11:31Z</time>
      </trkpt>
      <trkpt lat="49.34265" lon="-1.67714">
        <ele>19.7</ele>
        <time>2020-06-12T07:11:32Z</time>
      </trkpt>
      <trkpt lat="49.34269" lon="-1.67709">
        <ele>19.8</ele>
        <time>2020-06-12T07:11:33Z</time>
      </trkpt>
      <trkpt lat="49.34273" lon="-1.67704">
        <ele>19.9</ele>
        <time>2020-06-12T07:11:34Z</time>
      </trkpt>
      <trkpt lat="49.34278" lon="-1.67698">
        <ele>20</ele>
        <time>2020-06-12T07:11:35Z</time>
      </trkpt>
      <trkpt lat="49.34283" lon="-1.67692">
        <ele>20</ele>
        <time>2020-06-12T07:11:36Z</time>
      </trkpt>
      <trkpt lat="49.34287" lon="-1.67686">
        <ele>20.1</ele>
        <time>2020-06-12T07:11:37Z</time>
      </trkpt>
      <trkpt lat="49.3429" lon="-1.6768">
        <ele>20.2</ele>
        <time>2020-06-12T07:11:38Z</time>
      </trkpt>
      <trkpt lat="49.34295" lon="-1.67674">
        <ele>20.3</ele>
        <time>2020-06-12T07:11:39Z</time>
      </trkpt>
      <trkpt lat="49.34301" lon="-1.67669">
        <ele>20.4</ele>
        <time>2020-06-12T07:11:40Z</time>
      </trkpt>
      <trkpt lat="49.34306" lon="-1.67665">
        <ele>20.5</ele>
        <time>2020-06-12T07:11:41Z</time>
      </trkpt>
      <trkpt lat="49.3431" lon="-1.67659">
        <ele>20.6</ele>
        <time>2020-06-12T07:11:42Z</time>
      </trkpt>
      <trkpt lat="49.34315" lon="-1.67654">
        <ele>20.7</ele>
        <time>2020-06-12T07:11:43Z</time>
      </trkpt>
      <trkpt lat="49.3432" lon="-1.67648">
        <ele>20.8</ele>
        <time>2020-06-12T07:11:44Z</time>
      </trkpt>
      <trkpt lat="49.34324" lon="-1.67643">
        <ele>20.9</ele>
        <time>2020-06-12T07:11:45Z</time>
      </trkpt>
      <trkpt lat="49.34328" lon="-1.67637">
        <ele>21</ele>
        <time>2020-06-12T07:11:46Z</time>
      </trkpt>
      <trkpt lat="49.34333" lon="-1.67631">
        <ele>21</ele>
        <time>2020-06-12T07:11:47Z</time>
      </trkpt>
      <trkpt lat="49.34337" lon="-1.67626">
        <ele>21.1</ele>
        <time>2020-06-12T07:11:48Z</time>
      </trkpt>
      <trkpt lat="49.34341" lon="-1.67622">
        <ele>21.3</ele>
        <time>2020-06-12T07:11:49Z</time>
      </trkpt>
      <trkpt lat="49.34346" lon="-1.67617">
        <ele>21.4</ele>
        <time>2020-06-12T07:11:50Z</time>
      </trkpt>
      <trkpt lat="49.3435" lon="-1.67612">
        <ele>21.5</ele>
        <time>2020-06-12T07:11:51Z</time>
      </trkpt>
      <trkpt lat="49.34353" lon="-1.67607">
        <ele>21.7</ele>
        <time>2020-06-12T07:11:52Z</time>
      </trkpt>
      <trkpt lat="49.34357" lon="-1.67604">
        <ele>21.8</ele>
        <time>2020-06-12T07:11:53Z</time>
      </trkpt>
      <trkpt lat="49.3436" lon="-1.67599">
        <ele>21.9</ele>
        <time>2020-06-12T07:11:54Z</time>
      </trkpt>
      <trkpt lat="49.34364" lon="-1.67594">
        <ele>22.1</ele>
        <time>2020-06-12T07:11:55Z</time>
      </trkpt>
      <trkpt lat="49.34369" lon="-1.67588">
        <ele>22.3</ele>
        <time>2020-06-12T07:11:56Z</time>
      </trkpt>
      <trkpt lat="49.34373" lon="-1.67582">
        <ele>22.4</ele>
        <time>2020-06-12T07:11:57Z</time>
      </trkpt>
      <trkpt lat="49.34376" lon="-1.67578">
        <ele>22.5</ele>
        <time>2020-06-12T07:11:58Z</time>
      </trkpt>
      <trkpt lat="49.3438" lon="-1.67574">
        <ele>22.7</ele>
        <time>2020-06-12T07:11:59Z</time>
      </trkpt>
      <trkpt lat="49.34385" lon="-1.67569">
        <ele>23</ele>
        <time>2020-06-12T07:12:00Z</time>
      </trkpt>
      <trkpt lat="49.34389" lon="-1.67564">
        <ele>23.2</ele>
        <time>2020-06-12T07:12:01Z</time>
      </trkpt>
      <trkpt lat="49.34393" lon="-1.6756">
        <ele>23.5</ele>
        <time>2020-06-12T07:12:02Z</time>
      </trkpt>
      <trkpt lat="49.34396" lon="-1.67555">
        <ele>23.8</ele>
        <time>2020-06-12T07:12:03Z</time>
      </trkpt>
      <trkpt lat="49.34401" lon="-1.6755">
        <ele>24.1</ele>
        <time>2020-06-12T07:12:04Z</time>
      </trkpt>
      <trkpt lat="49.34405" lon="-1.67543">
        <ele>24.5</ele>
        <time>2020-06-12T07:12:05Z</time>
      </trkpt>
      <trkpt lat="49.34408" lon="-1.67538">
        <ele>24.8</ele>
        <time>2020-06-12T07:12:06Z</time>
      </trkpt>
      <trkpt lat="49.34412" lon="-1.67534">
        <ele>25.1</ele>
        <time>2020-06-12T07:12:07Z</time>
      </trkpt>
      <trkpt lat="49.34415" lon="-1.6753">
        <ele>25.3</ele>
        <time>2020-06-12T07:12:08Z</time>
      </trkpt>
      <trkpt lat="49.34419" lon="-1.67529">
        <ele>25.6</ele>
        <time>2020-06-12T07:12:09Z</time>
      </trkpt>
      <trkpt lat="49.34422" lon="-1.67526">
        <ele>25.5</ele>
        <time>2020-06-12T07:12:10Z</time>
      </trkpt>
      <trkpt lat="49.34426" lon="-1.67522">
        <ele>25.3</ele>
        <time>2020-06-12T07:12:11Z</time>
      </trkpt>
      <trkpt lat="49.3443" lon="-1.67519">
        <ele>25.1</ele>
        <time>2020-06-12T07:12:12Z</time>
      </trkpt>
      <trkpt lat="49.34434" lon="-1.67514">
        <ele>24.9</ele>
        <time>2020-06-12T07:12:13Z</time>
      </trkpt>
      <trkpt lat="49.34437" lon="-1.6751">
        <ele>24.7</ele>
        <time>2020-06-12T07:12:14Z</time>
      </trkpt>
      <trkpt lat="49.34441" lon="-1.67506">
        <ele>24.5</ele>
        <time>2020-06-12T07:12:15Z</time>
      </trkpt>
      <trkpt lat="49.34445" lon="-1.67502">
        <ele>24.3</ele>
        <time>2020-06-12T07:12:16Z</time>
      </trkpt>
      <trkpt lat="49.34449" lon="-1.67499">
        <ele>24.2</ele>
        <time>2020-06-12T07:12:17Z</time>
      </trkpt>
      <trkpt lat="49.34452" lon="-1.67495">
        <ele>24.2</ele>
        <time>2020-06-12T07:12:18Z</time>
      </trkpt>
      <trkpt lat="49.34455" lon="-1.67491">
        <ele>24.2</ele>
        <time>2020-06-12T07:12:19Z</time>
      </trkpt>
      <trkpt lat="49.34459" lon="-1.67486">
        <ele>24.3</ele>
        <time>2020-06-12T07:12:20Z</time>
      </trkpt>
      <trkpt lat="49.34463" lon="-1.67481">
        <ele>24.3</ele>
        <time>2020-06-12T07:12:21Z</time>
      </trkpt>
      <trkpt lat="49.34467" lon="-1.67476">
        <ele>24.5</ele>
        <time>2020-06-12T07:12:22Z</time>
      </trkpt>
      <trkpt lat="49.34471" lon="-1.67471">
        <ele>24.6</ele>
        <time>2020-06-12T07:12:23Z</time>
      </trkpt>
      <trkpt lat="49.34475" lon="-1.67468">
        <ele>24.7</ele>
        <time>2020-06-12T07:12:24Z</time>
      </trkpt>
      <trkpt lat="49.34479" lon="-1.67464">
        <ele>24.8</ele>
        <time>2020-06-12T07:12:25Z</time>
      </trkpt>
      <trkpt lat="49.34483" lon="-1.67459">
        <ele>25</ele>
        <time>2020-06-12T07:12:26Z</time>
      </trkpt>
      <trkpt lat="49.34485" lon="-1.67455">
        <ele>25.1</ele>
        <time>2020-06-12T07:12:27Z</time>
      </trkpt>
      <trkpt lat="49.34488" lon="-1.67451">
        <ele>25.3</ele>
        <time>2020-06-12T07:12:28Z</time>
      </trkpt>
      <trkpt lat="49.34492" lon="-1.67446">
        <ele>25.4</ele>
        <time>2020-06-12T07:12:29Z</time>
      </trkpt>
      <trkpt lat="49.34495" lon="-1.67442">
        <ele>25.6</ele>
        <time>2020-06-12T07:12:30Z</time>
      </trkpt>
      <trkpt lat="49.34499" lon="-1.67438">
        <ele>25.7</ele>
        <time>2020-06-12T07:12:31Z</time>
      </trkpt>
      <trkpt lat="49.34503" lon="-1.67434">
        <ele>25.9</ele>
        <time>2020-06-12T07:12:32Z</time>
      </trkpt>
      <trkpt lat="49.34505" lon="-1.67429">
        <ele>26</ele>
        <time>2020-06-12T07:12:33Z</time>
      </trkpt>
      <trkpt lat="49.3451" lon="-1.67426">
        <ele>26.1</ele>
        <time>2020-06-12T07:12:34Z</time>
      </trkpt>
      <trkpt lat="49.34513" lon="-1.67423">
        <ele>26.3</ele>
        <time>2020-06-12T07:12:35Z</time>
      </trkpt>
      <trkpt lat="49.34517" lon="-1.67419">
        <ele>26.4</ele>
        <time>2020-06-12T07:12:36Z</time>
      </trkpt>
      <trkpt lat="49.3452" lon="-1.67415">
        <ele>26.5</ele>
        <time>2020-06-12T07:12:37Z</time>
      </trkpt>
      <trkpt lat="49.34524" lon="-1.67411">
        <ele>26.7</ele>
        <time>2020-06-12T07:12:38Z</time>
      </trkpt>
      <trkpt lat="49.34527" lon="-1.67407">
        <ele>26.8</ele>
        <time>2020-06-12T07:12:39Z</time>
      </trkpt>
      <trkpt lat="49.3453" lon="-1.67403">
        <ele>26.9</ele>
        <time>2020-06-12T07:12:40Z</time>
      </trkpt>
      <trkpt lat="49.34533" lon="-1.674">
        <ele>27</ele>
        <time>2020-06-12T07:12:41Z</time>
      </trkpt>
      <trkpt lat="49.34537" lon="-1.67395">
        <ele>27.2</ele>
        <time>2020-06-12T07:12:42Z</time>
      </trkpt>
      <trkpt lat="49.3454" lon="-1.67391">
        <ele>27.3</ele>
        <time>2020-06-12T07:12:43Z</time>
      </trkpt>
      <trkpt lat="49.34543" lon="-1.67386">
        <ele>27.4</ele>
        <time>2020-06-12T07:12:44Z</time>
      </trkpt>
      <trkpt lat="49.34546" lon="-1.67381">
        <ele>27.5</ele>
        <time>2020-06-12T07:12:45Z</time>
      </trkpt>
      <trkpt lat="49.34549" lon="-1.67378">
        <ele>27.6</ele>
        <time>2020-06-12T07:12:46Z</time>
      </trkpt>
      <trkpt lat="49.34554" lon="-1.67375">
        <ele>27.8</ele>
        <time>2020-06-12T07:12:47Z</time>
      </trkpt>
      <trkpt lat="49.34558" lon="-1.67369">
        <ele>28</ele>
        <time>2020-06-12T07:12:48Z</time>
      </trkpt>
      <trkpt lat="49.34562" lon="-1.67365">
        <ele>28.2</ele>
        <time>2020-06-12T07:12:49Z</time>
      </trkpt>
      <trkpt lat="49.34566" lon="-1.67361">
        <ele>28.3</ele>
        <time>2020-06-12T07:12:50Z</time>
      </trkpt>
      <trkpt lat="49.34569" lon="-1.67357">
        <ele>28.5</ele>
        <time>2020-06-12T07:12:51Z</time>
      </trkpt>
      <trkpt lat="49.34573" lon="-1.67353">
        <ele>28.6</ele>
        <time>2020-06-12T07:12:52Z</time>
      </trkpt>
      <trkpt lat="49.34576" lon="-1.67349">
        <ele>28.8</ele>
        <time>2020-06-12T07:12:53Z</time>
      </trkpt>
      <trkpt lat="49.34581" lon="-1.67345">
        <ele>29</ele>
        <time>2020-06-12T07:12:54Z</time>
      </trkpt>
      <trkpt lat="49.34585" lon="-1.67341">
        <ele>29.1</ele>
        <time>2020-06-12T07:12:55Z</time>
      </trkpt>
      <trkpt lat="49.34588" lon="-1.67337">
        <ele>29.2</ele>
        <time>2020-06-12T07:12:56Z</time>
      </trkpt>
      <trkpt lat="49.34591" lon="-1.67333">
        <ele>29.3</ele>
        <time>2020-06-12T07:12:57Z</time>
      </trkpt>
      <trkpt lat="49.34595" lon="-1.67329">
        <ele>29.5</ele>
        <time>2020-06-12T07:12:58Z</time>
      </trkpt>
      <trkpt lat="49.34597" lon="-1.67325">
        <ele>29.5</ele>
        <time>2020-06-12T07:12:59Z</time>
      </trkpt>
      <trkpt lat="49.34601" lon="-1.67321">
        <ele>29.7</ele>
        <time>2020-06-12T07:13:00Z</time>
      </trkpt>
      <trkpt lat="49.34603" lon="-1.67317">
        <ele>29.7</ele>
        <time>2020-06-12T07:13:01Z</time>
      </trkpt>
      <trkpt lat="49.34607" lon="-1.67314">
        <ele>29.8</ele>
        <time>2020-06-12T07:13:02Z</time>
      </trkpt>
      <trkpt lat="49.34611" lon="-1.6731">
        <ele>29.9</ele>
        <time>2020-06-12T07:13:03Z</time>
      </trkpt>
      <trkpt lat="49.34614" lon="-1.67307">
        <ele>30.1</ele>
        <time>2020-06-12T07:13:04Z</time>
      </trkpt>
      <trkpt lat="49.34617" lon="-1.67303">
        <ele>30.2</ele>
        <time>2020-06-12T07:13:05Z</time>
      </trkpt>
      <trkpt lat="49.34621" lon="-1.67299">
        <ele>30.3</ele>
        <time>2020-06-12T07:13:06Z</time>
      </trkpt>
      <trkpt lat="49.34624" lon="-1.67295">
        <ele>30.4</ele>
        <time>2020-06-12T07:13:07Z</time>
      </trkpt>
      <trkpt lat="49.34627" lon="-1.6729">
        <ele>30.5</ele>
        <time>2020-06-12T07:13:08Z</time>
      </trkpt>
      <trkpt lat="49.3463" lon="-1.67286">
        <ele>30.6</ele>
        <time>2020-06-12T07:13:09Z</time>
      </trkpt>
      <trkpt lat="49.34634" lon="-1.67283">
        <ele>30.7</ele>
        <time>2020-06-12T07:13:10Z</time>
      </trkpt>
      <trkpt lat="49.34638" lon="-1.6728">
        <ele>30.9</ele>
        <time>2020-06-12T07:13:11Z</time>
      </trkpt>
      <trkpt lat="49.34641" lon="-1.67276">
        <ele>31</ele>
        <time>2020-06-12T07:13:12Z</time>
      </trkpt>
      <trkpt lat="49.34645" lon="-1.67272">
        <ele>31.2</ele>
        <time>2020-06-12T07:13:13Z</time>
      </trkpt>
      <trkpt lat="49.3465" lon="-1.67269">
        <ele>31.3</ele>
        <time>2020-06-12T07:13:14Z</time>
      </trkpt>
      <trkpt lat="49.34653" lon="-1.67265">
        <ele>31.4</ele>
        <time>2020-06-12T07:13:15Z</time>
      </trkpt>
      <trkpt lat="49.34656" lon="-1.67262">
        <ele>31.5</ele>
        <time>2020-06-12T07:13:16Z</time>
      </trkpt>
      <trkpt lat="49.34659" lon="-1.67259">
        <ele>31.6</ele>
        <time>2020-06-12T07:13:17Z</time>
      </trkpt>
      <trkpt lat="49.34662" lon="-1.67255">
        <ele>31.8</ele>
        <time>2020-06-12T07:13:18Z</time>
      </trkpt>
      <trkpt lat="49.34666" lon="-1.67252">
        <ele>31.9</ele>
        <time>2020-06-12T07:13:19Z</time>
      </trkpt>
      <trkpt lat="49.3467" lon="-1.67248">
        <ele>32.1</ele>
        <time>2020-06-12T07:13:20Z</time>
      </trkpt>
      <trkpt lat="49.34674" lon="-1.67246">
        <ele>32.2</ele>
        <time>2020-06-12T07:13:21Z</time>
      </trkpt>
      <trkpt lat="49.34678" lon="-1.67243">
        <ele>32.3</ele>
        <time>2020-06-12T07:13:22Z</time>
      </trkpt>
      <trkpt lat="49.34682" lon="-1.6724">
        <ele>32.4</ele>
        <time>2020-06-12T07:13:23Z</time>
      </trkpt>
      <trkpt lat="49.34685" lon="-1.67237">
        <ele>32.5</ele>
        <time>2020-06-12T07:13:24Z</time>
      </trkpt>
      <trkpt lat="49.34689" lon="-1.67234">
        <ele>32.6</ele>
        <time>2020-06-12T07:13:25Z</time>
      </trkpt>
      <trkpt lat="49.34692" lon="-1.6723">
        <ele>32.7</ele>
        <time>2020-06-12T07:13:26Z</time>
      </trkpt>
      <trkpt lat="49.34697" lon="-1.67226">
        <ele>32.9</ele>
        <time>2020-06-12T07:13:27Z</time>
      </trkpt>
      <trkpt lat="49.34701" lon="-1.67223">
        <ele>33</ele>
        <time>2020-06-12T07:13:28Z</time>
      </trkpt>
      <trkpt lat="49.34704" lon="-1.67219">
        <ele>33.1</ele>
        <time>2020-06-12T07:13:29Z</time>
      </trkpt>
      <trkpt lat="49.34707" lon="-1.67216">
        <ele>33.2</ele>
        <time>2020-06-12T07:13:30Z</time>
      </trkpt>
      <trkpt lat="49.3471" lon="-1.67214">
        <ele>33.3</ele>
        <time>2020-06-12T07:13:31Z</time>
      </trkpt>
      <trkpt lat="49.34715" lon="-1.67211">
        <ele>33.4</ele>
        <time>2020-06-12T07:13:32Z</time>
      </trkpt>
      <trkpt lat="49.3472" lon="-1.67208">
        <ele>33.5</ele>
        <time>2020-06-12T07:13:33Z</time>
      </trkpt>
      <trkpt lat="49.34724" lon="-1.67206">
        <ele>33.6</ele>
        <time>2020-06-12T07:13:34Z</time>
      </trkpt>
      <trkpt lat="49.34728" lon="-1.67204">
        <ele>33.7</ele>
        <time>2020-06-12T07:13:35Z</time>
      </trkpt>
      <trkpt lat="49.34732" lon="-1.67201">
        <ele>33.8</ele>
        <time>2020-06-12T07:13:36Z</time>
      </trkpt>
      <trkpt lat="49.34737" lon="-1.67199">
        <ele>33.9</ele>
        <time>2020-06-12T07:13:37Z</time>
      </trkpt>
      <trkpt lat="49.34741" lon="-1.67198">
        <ele>34</ele>
        <time>2020-06-12T07:13:38Z</time>
      </trkpt>
      <trkpt lat="49.34745" lon="-1.67196">
        <ele>34.2</ele>
        <time>2020-06-12T07:13:39Z</time>
      </trkpt>
      <trkpt lat="49.34749" lon="-1.67193">
        <ele>34.3</ele>
        <time>2020-06-12T07:13:40Z</time>
      </trkpt>
      <trkpt lat="49.34752" lon="-1.6719">
        <ele>34.4</ele>
        <time>2020-06-12T07:13:41Z</time>
      </trkpt>
      <trkpt lat="49.34757" lon="-1.67187">
        <ele>34.6</ele>
        <time>2020-06-12T07:13:42Z</time>
      </trkpt>
      <trkpt lat="49.34761" lon="-1.67187">
        <ele>34.7</ele>
        <time>2020-06-12T07:13:43Z</time>
      </trkpt>
      <trkpt lat="49.34765" lon="-1.67186">
        <ele>34.8</ele>
        <time>2020-06-12T07:13:44Z</time>
      </trkpt>
      <trkpt lat="49.34768" lon="-1.67184">
        <ele>35</ele>
        <time>2020-06-12T07:13:45Z</time>
      </trkpt>
      <trkpt lat="49.34772" lon="-1.67182">
        <ele>35.1</ele>
        <time>2020-06-12T07:13:46Z</time>
      </trkpt>
      <trkpt lat="49.34776" lon="-1.67178">
        <ele>35.3</ele>
        <time>2020-06-12T07:13:47Z</time>
      </trkpt>
      <trkpt lat="49.3478" lon="-1.67176">
        <ele>35.4</ele>
        <time>2020-06-12T07:13:48Z</time>
      </trkpt>
      <trkpt lat="49.34783" lon="-1.67176">
        <ele>35.4</ele>
        <time>2020-06-12T07:13:49Z</time>
      </trkpt>
      <trkpt lat="49.34787" lon="-1.67175">
        <ele>35.5</ele>
        <time>2020-06-12T07:13:50Z</time>
      </trkpt>
      <trkpt lat="49.34792" lon="-1.67174">
        <ele>35.6</ele>
        <time>2020-06-12T07:13:51Z</time>
      </trkpt>
      <trkpt lat="49.34796" lon="-1.67172">
        <ele>35.7</ele>
        <time>2020-06-12T07:13:52Z</time>
      </trkpt>
      <trkpt lat="49.34799" lon="-1.67171">
        <ele>35.8</ele>
        <time>2020-06-12T07:13:53Z</time>
      </trkpt>
      <trkpt lat="49.34804" lon="-1.6717">
        <ele>35.9</ele>
        <time>2020-06-12T07:13:54Z</time>
      </trkpt>
      <trkpt lat="49.34808" lon="-1.6717">
        <ele>36</ele>
        <time>2020-06-12T07:13:55Z</time>
      </trkpt>
      <trkpt lat="49.34812" lon="-1.67169">
        <ele>36</ele>
        <time>2020-06-12T07:13:56Z</time>
      </trkpt>
      <trkpt lat="49.34816" lon="-1.67167">
        <ele>36.1</ele>
        <time>2020-06-12T07:13:57Z</time>
      </trkpt>
      <trkpt lat="49.3482" lon="-1.67166">
        <ele>36.2</ele>
        <time>2020-06-12T07:13:58Z</time>
      </trkpt>
      <trkpt lat="49.34824" lon="-1.67164">
        <ele>36.3</ele>
        <time>2020-06-12T07:13:59Z</time>
      </trkpt>
      <trkpt lat="49.34828" lon="-1.67163">
        <ele>36.4</ele>
        <time>2020-06-12T07:14:00Z</time>
      </trkpt>
      <trkpt lat="49.34832" lon="-1.67161">
        <ele>36.4</ele>
        <time>2020-06-12T07:14:01Z</time>
      </trkpt>
      <trkpt lat="49.34837" lon="-1.6716">
        <ele>36.5</ele>
        <time>2020-06-12T07:14:02Z</time>
      </trkpt>
      <trkpt lat="49.34841" lon="-1.6716">
        <ele>36.6</ele>
        <time>2020-06-12T07:14:03Z</time>
      </trkpt>
      <trkpt lat="49.34844" lon="-1.6716">
        <ele>36.6</ele>
        <time>2020-06-12T07:14:04Z</time>
      </trkpt>
      <trkpt lat="49.34848" lon="-1.67159">
        <ele>36.7</ele>
        <time>2020-06-12T07:14:05Z</time>
      </trkpt>
      <trkpt lat="49.34852" lon="-1.67158">
        <ele>36.8</ele>
        <time>2020-06-12T07:14:06Z</time>
      </trkpt>
      <trkpt lat="49.34857" lon="-1.67157">
        <ele>37</ele>
        <time>2020-06-12T07:14:07Z</time>
      </trkpt>
      <trkpt lat="49.34861" lon="-1.67157">
        <ele>37.1</ele>
        <time>2020-06-12T07:14:08Z</time>
      </trkpt>
      <trkpt lat="49.34866" lon="-1.67157">
        <ele>37.2</ele>
        <time>2020-06-12T07:14:09Z</time>
      </trkpt>
      <trkpt lat="49.3487" lon="-1.67156">
        <ele>37.3</ele>
        <time>2020-06-12T07:14:10Z</time>
      </trkpt>
      <trkpt lat="49.34876" lon="-1.67156">
        <ele>37.4</ele>
        <time>2020-06-12T07:14:11Z</time>
      </trkpt>
      <trkpt lat="49.34881" lon="-1.67154">
        <ele>37.5</ele>
        <time>2020-06-12T07:14:12Z</time>
      </trkpt>
      <trkpt lat="49.34886" lon="-1.67154">
        <ele>37.6</ele>
        <time>2020-06-12T07:14:13Z</time>
      </trkpt>
      <trkpt lat="49.3489" lon="-1.67154">
        <ele>37.7</ele>
        <time>2020-06-12T07:14:14Z</time>
      </trkpt>
      <trkpt lat="49.34895" lon="-1.67153">
        <ele>37.9</ele>
        <time>2020-06-12T07:14:15Z</time>
      </trkpt>
      <trkpt lat="49.349" lon="-1.67154">
        <ele>37.9</ele>
        <time>2020-06-12T07:14:16Z</time>
      </trkpt>
      <trkpt lat="49.34905" lon="-1.67154">
        <ele>38</ele>
        <time>2020-06-12T07:14:17Z</time>
      </trkpt>
      <trkpt lat="49.3491" lon="-1.67154">
        <ele>38.1</ele>
        <time>2020-06-12T07:14:18Z</time>
      </trkpt>
      <trkpt lat="49.34915" lon="-1.67154">
        <ele>38.2</ele>
        <time>2020-06-12T07:14:19Z</time>
      </trkpt>
      <trkpt lat="49.34919" lon="-1.67154">
        <ele>38.3</ele>
        <time>2020-06-12T07:14:20Z</time>
      </trkpt>
      <trkpt lat="49.34924" lon="-1.67153">
        <ele>38.3</ele>
        <time>2020-06-12T07:14:21Z</time>
      </trkpt>
      <trkpt lat="49.34929" lon="-1.67154">
        <ele>38.4</ele>
        <time>2020-06-12T07:14:22Z</time>
      </trkpt>
      <trkpt lat="49.34934" lon="-1.67153">
        <ele>38.4</ele>
        <time>2020-06-12T07:14:23Z</time>
      </trkpt>
      <trkpt lat="49.3494" lon="-1.67153">
        <ele>38.5</ele>
        <time>2020-06-12T07:14:24Z</time>
      </trkpt>
      <trkpt lat="49.34946" lon="-1.67154">
        <ele>38.6</ele>
        <time>2020-06-12T07:14:25Z</time>
      </trkpt>
      <trkpt lat="49.34951" lon="-1.67155">
        <ele>38.6</ele>
        <time>2020-06-12T07:14:26Z</time>
      </trkpt>
      <trkpt lat="49.34955" lon="-1.67156">
        <ele>38.7</ele>
        <time>2020-06-12T07:14:27Z</time>
      </trkpt>
      <trkpt lat="49.3496" lon="-1.67157">
        <ele>38.8</ele>
        <time>2020-06-12T07:14:28Z</time>
      </trkpt>
      <trkpt lat="49.34965" lon="-1.67158">
        <ele>38.8</ele>
        <time>2020-06-12T07:14:29Z</time>
      </trkpt>
      <trkpt lat="49.34969" lon="-1.6716">
        <ele>38.9</ele>
        <time>2020-06-12T07:14:30Z</time>
      </trkpt>
      <trkpt lat="49.34975" lon="-1.67161">
        <ele>39</ele>
        <time>2020-06-12T07:14:31Z</time>
      </trkpt>
      <trkpt lat="49.3498" lon="-1.67162">
        <ele>39.1</ele>
        <time>2020-06-12T07:14:32Z</time>
      </trkpt>
      <trkpt lat="49.34985" lon="-1.67163">
        <ele>39.1</ele>
        <time>2020-06-12T07:14:33Z</time>
      </trkpt>
      <trkpt lat="49.34991" lon="-1.67165">
        <ele>39.2</ele>
        <time>2020-06-12T07:14:34Z</time>
      </trkpt>
      <trkpt lat="49.34996" lon="-1.67166">
        <ele>39.3</ele>
        <time>2020-06-12T07:14:35Z</time>
      </trkpt>
      <trkpt lat="49.35001" lon="-1.67166">
        <ele>39.3</ele>
        <time>2020-06-12T07:14:36Z</time>
      </trkpt>
      <trkpt lat="49.35006" lon="-1.67167">
        <ele>39.4</ele>
        <time>2020-06-12T07:14:37Z</time>
      </trkpt>
      <trkpt lat="49.3501" lon="-1.67169">
        <ele>39.4</ele>
        <time>2020-06-12T07:14:38Z</time>
      </trkpt>
      <trkpt lat="49.35015" lon="-1.67172">
        <ele>39.5</ele>
        <time>2020-06-12T07:14:39Z</time>
      </trkpt>
      <trkpt lat="49.3502" lon="-1.67173">
        <ele>39.5</ele>
        <time>2020-06-12T07:14:40Z</time>
      </trkpt>
      <trkpt lat="49.35025" lon="-1.67175">
        <ele>39.6</ele>
        <time>2020-06-12T07:14:41Z</time>
      </trkpt>
      <trkpt lat="49.3503" lon="-1.67175">
        <ele>39.6</ele>
        <time>2020-06-12T07:14:42Z</time>
      </trkpt>
      <trkpt lat="49.35034" lon="-1.67177">
        <ele>39.6</ele>
        <time>2020-06-12T07:14:43Z</time>
      </trkpt>
      <trkpt lat="49.35039" lon="-1.67178">
        <ele>39.7</ele>
        <time>2020-06-12T07:14:44Z</time>
      </trkpt>
      <trkpt lat="49.35043" lon="-1.67182">
        <ele>39.7</ele>
        <time>2020-06-12T07:14:45Z</time>
      </trkpt>
      <trkpt lat="49.35048" lon="-1.67184">
        <ele>39.8</ele>
        <time>2020-06-12T07:14:46Z</time>
      </trkpt>
      <trkpt lat="49.35052" lon="-1.67187">
        <ele>39.8</ele>
        <time>2020-06-12T07:14:47Z</time>
      </trkpt>
      <trkpt lat="49.35057" lon="-1.67189">
        <ele>39.8</ele>
        <time>2020-06-12T07:14:48Z</time>
      </trkpt>
      <trkpt lat="49.35062" lon="-1.67191">
        <ele>39.8</ele>
        <time>2020-06-12T07:14:49Z</time>
      </trkpt>
      <trkpt lat="49.35067" lon="-1.67192">
        <ele>39.9</ele>
        <time>2020-06-12T07:14:50Z</time>
      </trkpt>
      <trkpt lat="49.35073" lon="-1.67195">
        <ele>39.9</ele>
        <time>2020-06-12T07:14:51Z</time>
      </trkpt>
      <trkpt lat="49.35077" lon="-1.67198">
        <ele>39.9</ele>
        <time>2020-06-12T07:14:52Z</time>
      </trkpt>
      <trkpt lat="49.35082" lon="-1.67202">
        <ele>40</ele>
        <time>2020-06-12T07:14:53Z</time>
      </trkpt>
      <trkpt lat="49.35088" lon="-1.67204">
        <ele>40</ele>
        <time>2020-06-12T07:14:54Z</time>
      </trkpt>
      <trkpt lat="49.35092" lon="-1.67208">
        <ele>40</ele>
        <time>2020-06-12T07:14:55Z</time>
      </trkpt>
      <trkpt lat="49.35098" lon="-1.6721">
        <ele>40.1</ele>
        <time>2020-06-12T07:14:56Z</time>
      </trkpt>
      <trkpt lat="49.35103" lon="-1.67213">
        <ele>40.1</ele>
        <time>2020-06-12T07:14:57Z</time>
      </trkpt>
      <trkpt lat="49.35107" lon="-1.67216">
        <ele>40.2</ele>
        <time>2020-06-12T07:14:58Z</time>
      </trkpt>
      <trkpt lat="49.35112" lon="-1.67219">
        <ele>40.3</ele>
        <time>2020-06-12T07:14:59Z</time>
      </trkpt>
      <trkpt lat="49.35117" lon="-1.67222">
        <ele>40.4</ele>
        <time>2020-06-12T07:15:00Z</time>
      </trkpt>
      <trkpt lat="49.35123" lon="-1.67226">
        <ele>40.6</ele>
        <time>2020-06-12T07:15:01Z</time>
      </trkpt>
      <trkpt lat="49.35128" lon="-1.6723">
        <ele>40.8</ele>
        <time>2020-06-12T07:15:02Z</time>
      </trkpt>
      <trkpt lat="49.35133" lon="-1.67233">
        <ele>40.4</ele>
        <time>2020-06-12T07:15:03Z</time>
      </trkpt>
      <trkpt lat="49.35138" lon="-1.67237">
        <ele>40.2</ele>
        <time>2020-06-12T07:15:04Z</time>
      </trkpt>
      <trkpt lat="49.35143" lon="-1.67241">
        <ele>40.1</ele>
        <time>2020-06-12T07:15:05Z</time>
      </trkpt>
      <trkpt lat="49.35149" lon="-1.67244">
        <ele>39.9</ele>
        <time>2020-06-12T07:15:06Z</time>
      </trkpt>
      <trkpt lat="49.35154" lon="-1.67247">
        <ele>39.9</ele>
        <time>2020-06-12T07:15:07Z</time>
      </trkpt>
      <trkpt lat="49.35158" lon="-1.67251">
        <ele>39.8</ele>
        <time>2020-06-12T07:15:08Z</time>
      </trkpt>
      <trkpt lat="49.35162" lon="-1.67254">
        <ele>39.8</ele>
        <time>2020-06-12T07:15:09Z</time>
      </trkpt>
      <trkpt lat="49.35166" lon="-1.67259">
        <ele>39.8</ele>
        <time>2020-06-12T07:15:10Z</time>
      </trkpt>
      <trkpt lat="49.35171" lon="-1.67264">
        <ele>39.8</ele>
        <time>2020-06-12T07:15:11Z</time>
      </trkpt>
      <trkpt lat="49.35176" lon="-1.6727">
        <ele>39.8</ele>
        <time>2020-06-12T07:15:12Z</time>
      </trkpt>
      <trkpt lat="49.35181" lon="-1.67276">
        <ele>39.8</ele>
        <time>2020-06-12T07:15:13Z</time>
      </trkpt>
      <trkpt lat="49.35186" lon="-1.6728">
        <ele>39.8</ele>
        <time>2020-06-12T07:15:14Z</time>
      </trkpt>
      <trkpt lat="49.3519" lon="-1.67286">
        <ele>39.8</ele>
        <time>2020-06-12T07:15:15Z</time>
      </trkpt>
      <trkpt lat="49.35195" lon="-1.67292">
        <ele>39.8</ele>
        <time>2020-06-12T07:15:16Z</time>
      </trkpt>
      <trkpt lat="49.35199" lon="-1.67297">
        <ele>39.8</ele>
        <time>2020-06-12T07:15:17Z</time>
      </trkpt>
      <trkpt lat="49.35204" lon="-1.67303">
        <ele>39.8</ele>
        <time>2020-06-12T07:15:18Z</time>
      </trkpt>
      <trkpt lat="49.35208" lon="-1.67308">
        <ele>39.8</ele>
        <time>2020-06-12T07:15:19Z</time>
      </trkpt>
      <trkpt lat="49.35213" lon="-1.67314">
        <ele>39.8</ele>
        <time>2020-06-12T07:15:20Z</time>
      </trkpt>
      <trkpt lat="49.35217" lon="-1.6732">
        <ele>39.9</ele>
        <time>2020-06-12T07:15:21Z</time>
      </trkpt>
      <trkpt lat="49.35222" lon="-1.67327">
        <ele>40</ele>
        <time>2020-06-12T07:15:22Z</time>
      </trkpt>
      <trkpt lat="49.35226" lon="-1.67334">
        <ele>40.2</ele>
        <time>2020-06-12T07:15:23Z</time>
      </trkpt>
      <trkpt lat="49.35231" lon="-1.67338">
        <ele>40.3</ele>
        <time>2020-06-12T07:15:24Z</time>
      </trkpt>
      <trkpt lat="49.35236" lon="-1.67345">
        <ele>40.3</ele>
        <time>2020-06-12T07:15:25Z</time>
      </trkpt>
      <trkpt lat="49.3524" lon="-1.67352">
        <ele>40.3</ele>
        <time>2020-06-12T07:15:26Z</time>
      </trkpt>
      <trkpt lat="49.35244" lon="-1.67359">
        <ele>40.3</ele>
        <time>2020-06-12T07:15:27Z</time>
      </trkpt>
      <trkpt lat="49.35249" lon="-1.67366">
        <ele>40.3</ele>
        <time>2020-06-12T07:15:28Z</time>
      </trkpt>
      <trkpt lat="49.35254" lon="-1.67371">
        <ele>40.3</ele>
        <time>2020-06-12T07:15:29Z</time>
      </trkpt>
      <trkpt lat="49.3526" lon="-1.67377">
        <ele>40.3</ele>
        <time>2020-06-12T07:15:30Z</time>
      </trkpt>
      <trkpt lat="49.35266" lon="-1.67384">
        <ele>40.3</ele>
        <time>2020-06-12T07:15:31Z</time>
      </trkpt>
      <trkpt lat="49.35272" lon="-1.67391">
        <ele>40.4</ele>
        <time>2020-06-12T07:15:32Z</time>
      </trkpt>
      <trkpt lat="49.35277" lon="-1.67399">
        <ele>39.8</ele>
        <time>2020-06-12T07:15:33Z</time>
      </trkpt>
      <trkpt lat="49.35282" lon="-1.67408">
        <ele>39.7</ele>
        <time>2020-06-12T07:15:34Z</time>
      </trkpt>
      <trkpt lat="49.35286" lon="-1.67416">
        <ele>39.5</ele>
        <time>2020-06-12T07:15:35Z</time>
      </trkpt>
      <trkpt lat="49.35289" lon="-1.67423">
        <ele>39.5</ele>
        <time>2020-06-12T07:15:36Z</time>
      </trkpt>
      <trkpt lat="49.35293" lon="-1.67432">
        <ele>39.4</ele>
        <time>2020-06-12T07:15:37Z</time>
      </trkpt>
      <trkpt lat="49.35297" lon="-1.67439">
        <ele>39.4</ele>
        <time>2020-06-12T07:15:38Z</time>
      </trkpt>
      <trkpt lat="49.35301" lon="-1.67446">
        <ele>39.5</ele>
        <time>2020-06-12T07:15:39Z</time>
      </trkpt>
      <trkpt lat="49.35306" lon="-1.67455">
        <ele>39.5</ele>
        <time>2020-06-12T07:15:40Z</time>
      </trkpt>
      <trkpt lat="49.35311" lon="-1.67463">
        <ele>39.5</ele>
        <time>2020-06-12T07:15:41Z</time>
      </trkpt>
      <trkpt lat="49.35315" lon="-1.6747">
        <ele>39.5</ele>
        <time>2020-06-12T07:15:42Z</time>
      </trkpt>
      <trkpt lat="49.35319" lon="-1.67477">
        <ele>39.5</ele>
        <time>2020-06-12T07:15:43Z</time>
      </trkpt>
      <trkpt lat="49.35323" lon="-1.67486">
        <ele>39.6</ele>
        <time>2020-06-12T07:15:44Z</time>
      </trkpt>
      <trkpt lat="49.35327" lon="-1.67494">
        <ele>39.7</ele>
        <time>2020-06-12T07:15:45Z</time>
      </trkpt>
      <trkpt lat="49.3533" lon="-1.67503">
        <ele>39.9</ele>
        <time>2020-06-12T07:15:46Z</time>
      </trkpt>
      <trkpt lat="49.35334" lon="-1.67511">
        <ele>40.1</ele>
        <time>2020-06-12T07:15:47Z</time>
      </trkpt>
      <trkpt lat="49.35338" lon="-1.6752">
        <ele>40.3</ele>
        <time>2020-06-12T07:15:48Z</time>
      </trkpt>
      <trkpt lat="49.35341" lon="-1.67528">
        <ele>40.1</ele>
        <time>2020-06-12T07:15:49Z</time>
      </trkpt>
      <trkpt lat="49.35345" lon="-1.67536">
        <ele>40</ele>
        <time>2020-06-12T07:15:50Z</time>
      </trkpt>
      <trkpt lat="49.35347" lon="-1.67543">
        <ele>39.8</ele>
        <time>2020-06-12T07:15:51Z</time>
      </trkpt>
      <trkpt lat="49.3535" lon="-1.67551">
        <ele>39.7</ele>
        <time>2020-06-12T07:15:52Z</time>
      </trkpt>
      <trkpt lat="49.35354" lon="-1.6756">
        <ele>39.6</ele>
        <time>2020-06-12T07:15:53Z</time>
      </trkpt>
      <trkpt lat="49.35358" lon="-1.67571">
        <ele>39.6</ele>
        <time>2020-06-12T07:15:54Z</time>
      </trkpt>
      <trkpt lat="49.35362" lon="-1.67581">
        <ele>39.6</ele>
        <time>2020-06-12T07:15:55Z</time>
      </trkpt>
      <trkpt lat="49.35365" lon="-1.67591">
        <ele>39.7</ele>
        <time>2020-06-12T07:15:56Z</time>
      </trkpt>
      <trkpt lat="49.35368" lon="-1.676">
        <ele>39.7</ele>
        <time>2020-06-12T07:15:57Z</time>
      </trkpt>
      <trkpt lat="49.35371" lon="-1.67609">
        <ele>39.7</ele>
        <time>2020-06-12T07:15:58Z</time>
      </trkpt>
      <trkpt lat="49.35373" lon="-1.67617">
        <ele>39.8</ele>
        <time>2020-06-12T07:15:59Z</time>
      </trkpt>
      <trkpt lat="49.35376" lon="-1.67627">
        <ele>39.8</ele>
        <time>2020-06-12T07:16:00Z</time>
      </trkpt>
      <trkpt lat="49.3538" lon="-1.67637">
        <ele>40</ele>
        <time>2020-06-12T07:16:01Z</time>
      </trkpt>
      <trkpt lat="49.35383" lon="-1.67646">
        <ele>40.1</ele>
        <time>2020-06-12T07:16:02Z</time>
      </trkpt>
      <trkpt lat="49.35386" lon="-1.67655">
        <ele>40.3</ele>
        <time>2020-06-12T07:16:03Z</time>
      </trkpt>
      <trkpt lat="49.3539" lon="-1.67665">
        <ele>40.5</ele>
        <time>2020-06-12T07:16:04Z</time>
      </trkpt>
      <trkpt lat="49.35393" lon="-1.67675">
        <ele>40.3</ele>
        <time>2020-06-12T07:16:05Z</time>
      </trkpt>
      <trkpt lat="49.35397" lon="-1.67685">
        <ele>40.1</ele>
        <time>2020-06-12T07:16:06Z</time>
      </trkpt>
      <trkpt lat="49.354" lon="-1.67694">
        <ele>39.8</ele>
        <time>2020-06-12T07:16:07Z</time>
      </trkpt>
      <trkpt lat="49.35403" lon="-1.67704">
        <ele>39.7</ele>
        <time>2020-06-12T07:16:08Z</time>
      </trkpt>
      <trkpt lat="49.35407" lon="-1.67713">
        <ele>39.6</ele>
        <time>2020-06-12T07:16:09Z</time>
      </trkpt>
      <trkpt lat="49.3541" lon="-1.67723">
        <ele>39.6</ele>
        <time>2020-06-12T07:16:10Z</time>
      </trkpt>
      <trkpt lat="49.35414" lon="-1.67732">
        <ele>39.6</ele>
        <time>2020-06-12T07:16:11Z</time>
      </trkpt>
      <trkpt lat="49.35417" lon="-1.67742">
        <ele>39.7</ele>
        <time>2020-06-12T07:16:12Z</time>
      </trkpt>
      <trkpt lat="49.35421" lon="-1.67751">
        <ele>39.7</ele>
        <time>2020-06-12T07:16:13Z</time>
      </trkpt>
      <trkpt lat="49.35425" lon="-1.6776">
        <ele>39.8</ele>
        <time>2020-06-12T07:16:14Z</time>
      </trkpt>
      <trkpt lat="49.35429" lon="-1.6777">
        <ele>39.8</ele>
        <time>2020-06-12T07:16:15Z</time>
      </trkpt>
      <trkpt lat="49.35432" lon="-1.67779">
        <ele>39.9</ele>
        <time>2020-06-12T07:16:16Z</time>
      </trkpt>
      <trkpt lat="49.35435" lon="-1.67787">
        <ele>39.9</ele>
        <time>2020-06-12T07:16:17Z</time>
      </trkpt>
      <trkpt lat="49.35438" lon="-1.67797">
        <ele>39.9</ele>
        <time>2020-06-12T07:16:18Z</time>
      </trkpt>
      <trkpt lat="49.35441" lon="-1.67806">
        <ele>39.9</ele>
        <time>2020-06-12T07:16:19Z</time>
      </trkpt>
      <trkpt lat="49.35444" lon="-1.67816">
        <ele>40</ele>
        <time>2020-06-12T07:16:20Z</time>
      </trkpt>
      <trkpt lat="49.35448" lon="-1.67825">
        <ele>40</ele>
        <time>2020-06-12T07:16:21Z</time>
      </trkpt>
      <trkpt lat="49.3545" lon="-1.67835">
        <ele>40</ele>
        <time>2020-06-12T07:16:22Z</time>
      </trkpt>
      <trkpt lat="49.35454" lon="-1.67843">
        <ele>40</ele>
        <time>2020-06-12T07:16:23Z</time>
      </trkpt>
      <trkpt lat="49.35457" lon="-1.67852">
        <ele>40.1</ele>
        <time>2020-06-12T07:16:24Z</time>
      </trkpt>
      <trkpt lat="49.3546" lon="-1.6786">
        <ele>40.1</ele>
        <time>2020-06-12T07:16:25Z</time>
      </trkpt>
      <trkpt lat="49.35463" lon="-1.67869">
        <ele>40.1</ele>
        <time>2020-06-12T07:16:26Z</time>
      </trkpt>
      <trkpt lat="49.35466" lon="-1.67878">
        <ele>40.1</ele>
        <time>2020-06-12T07:16:27Z</time>
      </trkpt>
      <trkpt lat="49.3547" lon="-1.67887">
        <ele>40</ele>
        <time>2020-06-12T07:16:28Z</time>
      </trkpt>
      <trkpt lat="49.35473" lon="-1.67895">
        <ele>40</ele>
        <time>2020-06-12T07:16:29Z</time>
      </trkpt>
      <trkpt lat="49.35477" lon="-1.67905">
        <ele>39.9</ele>
        <time>2020-06-12T07:16:30Z</time>
      </trkpt>
      <trkpt lat="49.3548" lon="-1.67914">
        <ele>39.9</ele>
        <time>2020-06-12T07:16:31Z</time>
      </trkpt>
      <trkpt lat="49.35484" lon="-1.67923">
        <ele>39.9</ele>
        <time>2020-06-12T07:16:32Z</time>
      </trkpt>
      <trkpt lat="49.35486" lon="-1.67932">
        <ele>39.9</ele>
        <time>2020-06-12T07:16:33Z</time>
      </trkpt>
      <trkpt lat="49.3549" lon="-1.67939">
        <ele>39.9</ele>
        <time>2020-06-12T07:16:34Z</time>
      </trkpt>
      <trkpt lat="49.35493" lon="-1.67947">
        <ele>39.9</ele>
        <time>2020-06-12T07:16:35Z</time>
      </trkpt>
      <trkpt lat="49.35497" lon="-1.67955">
        <ele>39.9</ele>
        <time>2020-06-12T07:16:36Z</time>
      </trkpt>
      <trkpt lat="49.355" lon="-1.67963">
        <ele>39.9</ele>
        <time>2020-06-12T07:16:37Z</time>
      </trkpt>
      <trkpt lat="49.35503" lon="-1.67972">
        <ele>39.9</ele>
        <time>2020-06-12T07:16:38Z</time>
      </trkpt>
      <trkpt lat="49.35506" lon="-1.67981">
        <ele>39.9</ele>
        <time>2020-06-12T07:16:39Z</time>
      </trkpt>
      <trkpt lat="49.3551" lon="-1.67989">
        <ele>39.9</ele>
        <time>2020-06-12T07:16:40Z</time>
      </trkpt>
      <trkpt lat="49.35514" lon="-1.67996">
        <ele>40</ele>
        <time>2020-06-12T07:16:41Z</time>
      </trkpt>
      <trkpt lat="49.35519" lon="-1.68005">
        <ele>40.1</ele>
        <time>2020-06-12T07:16:42Z</time>
      </trkpt>
      <trkpt lat="49.35523" lon="-1.68013">
        <ele>39.9</ele>
        <time>2020-06-12T07:16:43Z</time>
      </trkpt>
      <trkpt lat="49.35527" lon="-1.68022">
        <ele>39.7</ele>
        <time>2020-06-12T07:16:44Z</time>
      </trkpt>
      <trkpt lat="49.35531" lon="-1.68031">
        <ele>39.6</ele>
        <time>2020-06-12T07:16:45Z</time>
      </trkpt>
      <trkpt lat="49.35536" lon="-1.68039">
        <ele>39.5</ele>
        <time>2020-06-12T07:16:46Z</time>
      </trkpt>
      <trkpt lat="49.3554" lon="-1.68047">
        <ele>39.4</ele>
        <time>2020-06-12T07:16:47Z</time>
      </trkpt>
      <trkpt lat="49.35544" lon="-1.68055">
        <ele>39.3</ele>
        <time>2020-06-12T07:16:48Z</time>
      </trkpt>
      <trkpt lat="49.35548" lon="-1.68063">
        <ele>39.2</ele>
        <time>2020-06-12T07:16:49Z</time>
      </trkpt>
      <trkpt lat="49.35552" lon="-1.68071">
        <ele>39.1</ele>
        <time>2020-06-12T07:16:50Z</time>
      </trkpt>
      <trkpt lat="49.35556" lon="-1.6808">
        <ele>38.9</ele>
        <time>2020-06-12T07:16:51Z</time>
      </trkpt>
      <trkpt lat="49.3556" lon="-1.68089">
        <ele>38.8</ele>
        <time>2020-06-12T07:16:52Z</time>
      </trkpt>
      <trkpt lat="49.35564" lon="-1.68097">
        <ele>38.6</ele>
        <time>2020-06-12T07:16:53Z</time>
      </trkpt>
      <trkpt lat="49.35569" lon="-1.68106">
        <ele>38.5</ele>
        <time>2020-06-12T07:16:54Z</time>
      </trkpt>
      <trkpt lat="49.35572" lon="-1.68116">
        <ele>38.3</ele>
        <time>2020-06-12T07:16:55Z</time>
      </trkpt>
      <trkpt lat="49.35576" lon="-1.68124">
        <ele>38.2</ele>
        <time>2020-06-12T07:16:56Z</time>
      </trkpt>
      <trkpt lat="49.3558" lon="-1.68132">
        <ele>38.1</ele>
        <time>2020-06-12T07:16:57Z</time>
      </trkpt>
      <trkpt lat="49.35585" lon="-1.6814">
        <ele>38</ele>
        <time>2020-06-12T07:16:58Z</time>
      </trkpt>
      <trkpt lat="49.35589" lon="-1.68148">
        <ele>37.9</ele>
        <time>2020-06-12T07:16:59Z</time>
      </trkpt>
      <trkpt lat="49.35593" lon="-1.68158">
        <ele>37.7</ele>
        <time>2020-06-12T07:17:00Z</time>
      </trkpt>
      <trkpt lat="49.35598" lon="-1.68168">
        <ele>37.6</ele>
        <time>2020-06-12T07:17:01Z</time>
      </trkpt>
      <trkpt lat="49.35602" lon="-1.68178">
        <ele>37.5</ele>
        <time>2020-06-12T07:17:02Z</time>
      </trkpt>
      <trkpt lat="49.35607" lon="-1.68188">
        <ele>37.3</ele>
        <time>2020-06-12T07:17:03Z</time>
      </trkpt>
      <trkpt lat="49.35612" lon="-1.68196">
        <ele>37.2</ele>
        <time>2020-06-12T07:17:04Z</time>
      </trkpt>
      <trkpt lat="49.35616" lon="-1.68205">
        <ele>37.1</ele>
        <time>2020-06-12T07:17:05Z</time>
      </trkpt>
      <trkpt lat="49.35621" lon="-1.68215">
        <ele>37</ele>
        <time>2020-06-12T07:17:06Z</time>
      </trkpt>
      <trkpt lat="49.35625" lon="-1.68225">
        <ele>37</ele>
        <time>2020-06-12T07:17:07Z</time>
      </trkpt>
      <trkpt lat="49.3563" lon="-1.68234">
        <ele>37</ele>
        <time>2020-06-12T07:17:08Z</time>
      </trkpt>
      <trkpt lat="49.35635" lon="-1.68244">
        <ele>36.5</ele>
        <time>2020-06-12T07:17:09Z</time>
      </trkpt>
      <trkpt lat="49.35639" lon="-1.68254">
        <ele>36.2</ele>
        <time>2020-06-12T07:17:10Z</time>
      </trkpt>
      <trkpt lat="49.35643" lon="-1.68264">
        <ele>36</ele>
        <time>2020-06-12T07:17:11Z</time>
      </trkpt>
      <trkpt lat="49.35648" lon="-1.68274">
        <ele>35.8</ele>
        <time>2020-06-12T07:17:12Z</time>
      </trkpt>
      <trkpt lat="49.35653" lon="-1.68284">
        <ele>35.7</ele>
        <time>2020-06-12T07:17:13Z</time>
      </trkpt>
      <trkpt lat="49.35658" lon="-1.68294">
        <ele>35.5</ele>
        <time>2020-06-12T07:17:14Z</time>
      </trkpt>
      <trkpt lat="49.35663" lon="-1.68303">
        <ele>35.4</ele>
        <time>2020-06-12T07:17:15Z</time>
      </trkpt>
      <trkpt lat="49.35667" lon="-1.68314">
        <ele>35.3</ele>
        <time>2020-06-12T07:17:16Z</time>
      </trkpt>
      <trkpt lat="49.35672" lon="-1.68325">
        <ele>35.2</ele>
        <time>2020-06-12T07:17:17Z</time>
      </trkpt>
      <trkpt lat="49.35678" lon="-1.68333">
        <ele>35.1</ele>
        <time>2020-06-12T07:17:18Z</time>
      </trkpt>
      <trkpt lat="49.35683" lon="-1.68344">
        <ele>35</ele>
        <time>2020-06-12T07:17:19Z</time>
      </trkpt>
      <trkpt lat="49.35688" lon="-1.68354">
        <ele>34.9</ele>
        <time>2020-06-12T07:17:20Z</time>
      </trkpt>
      <trkpt lat="49.35693" lon="-1.68365">
        <ele>34.8</ele>
        <time>2020-06-12T07:17:21Z</time>
      </trkpt>
      <trkpt lat="49.35698" lon="-1.68375">
        <ele>34.7</ele>
        <time>2020-06-12T07:17:22Z</time>
      </trkpt>
      <trkpt lat="49.35702" lon="-1.68386">
        <ele>34.6</ele>
        <time>2020-06-12T07:17:23Z</time>
      </trkpt>
      <trkpt lat="49.35706" lon="-1.68396">
        <ele>34.5</ele>
        <time>2020-06-12T07:17:24Z</time>
      </trkpt>
      <trkpt lat="49.35711" lon="-1.68405">
        <ele>34.5</ele>
        <time>2020-06-12T07:17:25Z</time>
      </trkpt>
      <trkpt lat="49.35717" lon="-1.68415">
        <ele>34.3</ele>
        <time>2020-06-12T07:17:26Z</time>
      </trkpt>
      <trkpt lat="49.35721" lon="-1.68425">
        <ele>34.2</ele>
        <time>2020-06-12T07:17:27Z</time>
      </trkpt>
      <trkpt lat="49.35726" lon="-1.68436">
        <ele>34.1</ele>
        <time>2020-06-12T07:17:28Z</time>
      </trkpt>
      <trkpt lat="49.35731" lon="-1.68446">
        <ele>34</ele>
        <time>2020-06-12T07:17:29Z</time>
      </trkpt>
      <trkpt lat="49.35736" lon="-1.68457">
        <ele>33.8</ele>
        <time>2020-06-12T07:17:30Z</time>
      </trkpt>
      <trkpt lat="49.3574" lon="-1.68467">
        <ele>33.7</ele>
        <time>2020-06-12T07:17:31Z</time>
      </trkpt>
      <trkpt lat="49.35745" lon="-1.68476">
        <ele>33.6</ele>
        <time>2020-06-12T07:17:32Z</time>
      </trkpt>
      <trkpt lat="49.35749" lon="-1.68485">
        <ele>33.6</ele>
        <time>2020-06-12T07:17:33Z</time>
      </trkpt>
      <trkpt lat="49.35754" lon="-1.68494">
        <ele>33.5</ele>
        <time>2020-06-12T07:17:34Z</time>
      </trkpt>
      <trkpt lat="49.35758" lon="-1.68505">
        <ele>33.4</ele>
        <time>2020-06-12T07:17:35Z</time>
      </trkpt>
      <trkpt lat="49.35763" lon="-1.68513">
        <ele>33.4</ele>
        <time>2020-06-12T07:17:36Z</time>
      </trkpt>
      <trkpt lat="49.35767" lon="-1.68521">
        <ele>33.4</ele>
        <time>2020-06-12T07:17:37Z</time>
      </trkpt>
      <trkpt lat="49.35772" lon="-1.6853">
        <ele>33.3</ele>
        <time>2020-06-12T07:17:38Z</time>
      </trkpt>
      <trkpt lat="49.35776" lon="-1.68539">
        <ele>33.2</ele>
        <time>2020-06-12T07:17:39Z</time>
      </trkpt>
      <trkpt lat="49.35781" lon="-1.68549">
        <ele>33.1</ele>
        <time>2020-06-12T07:17:40Z</time>
      </trkpt>
      <trkpt lat="49.35785" lon="-1.68559">
        <ele>33.1</ele>
        <time>2020-06-12T07:17:41Z</time>
      </trkpt>
      <trkpt lat="49.3579" lon="-1.68568">
        <ele>33.1</ele>
        <time>2020-06-12T07:17:42Z</time>
      </trkpt>
      <trkpt lat="49.35794" lon="-1.68576">
        <ele>33.1</ele>
        <time>2020-06-12T07:17:43Z</time>
      </trkpt>
      <trkpt lat="49.35799" lon="-1.68587">
        <ele>33</ele>
        <time>2020-06-12T07:17:44Z</time>
      </trkpt>
      <trkpt lat="49.35804" lon="-1.68596">
        <ele>33</ele>
        <time>2020-06-12T07:17:45Z</time>
      </trkpt>
      <trkpt lat="49.35809" lon="-1.68607">
        <ele>33</ele>
        <time>2020-06-12T07:17:46Z</time>
      </trkpt>
      <trkpt lat="49.35813" lon="-1.68617">
        <ele>32.9</ele>
        <time>2020-06-12T07:17:47Z</time>
      </trkpt>
      <trkpt lat="49.35818" lon="-1.68626">
        <ele>32.8</ele>
        <time>2020-06-12T07:17:48Z</time>
      </trkpt>
      <trkpt lat="49.35823" lon="-1.68634">
        <ele>32.8</ele>
        <time>2020-06-12T07:17:49Z</time>
      </trkpt>
      <trkpt lat="49.35828" lon="-1.68641">
        <ele>32.7</ele>
        <time>2020-06-12T07:17:50Z</time>
      </trkpt>
      <trkpt lat="49.35833" lon="-1.68651">
        <ele>32.6</ele>
        <time>2020-06-12T07:17:51Z</time>
      </trkpt>
      <trkpt lat="49.35838" lon="-1.6866">
        <ele>32.5</ele>
        <time>2020-06-12T07:17:52Z</time>
      </trkpt>
      <trkpt lat="49.35843" lon="-1.68669">
        <ele>32.4</ele>
        <time>2020-06-12T07:17:53Z</time>
      </trkpt>
      <trkpt lat="49.35848" lon="-1.68678">
        <ele>32.4</ele>
        <time>2020-06-12T07:17:54Z</time>
      </trkpt>
      <trkpt lat="49.35852" lon="-1.68686">
        <ele>32.3</ele>
        <time>2020-06-12T07:17:55Z</time>
      </trkpt>
      <trkpt lat="49.35857" lon="-1.68695">
        <ele>32.3</ele>
        <time>2020-06-12T07:17:56Z</time>
      </trkpt>
      <trkpt lat="49.35862" lon="-1.68704">
        <ele>32.2</ele>
        <time>2020-06-12T07:17:57Z</time>
      </trkpt>
      <trkpt lat="49.35867" lon="-1.68712">
        <ele>32.2</ele>
        <time>2020-06-12T07:17:58Z</time>
      </trkpt>
      <trkpt lat="49.35871" lon="-1.68721">
        <ele>32.1</ele>
        <time>2020-06-12T07:17:59Z</time>
      </trkpt>
      <trkpt lat="49.35876" lon="-1.68729">
        <ele>32.1</ele>
        <time>2020-06-12T07:18:00Z</time>
      </trkpt>
      <trkpt lat="49.35881" lon="-1.68737">
        <ele>32.2</ele>
        <time>2020-06-12T07:18:01Z</time>
      </trkpt>
      <trkpt lat="49.35885" lon="-1.68746">
        <ele>32.3</ele>
        <time>2020-06-12T07:18:02Z</time>
      </trkpt>
      <trkpt lat="49.35889" lon="-1.68756">
        <ele>32.5</ele>
        <time>2020-06-12T07:18:03Z</time>
      </trkpt>
      <trkpt lat="49.35894" lon="-1.68763">
        <ele>32.7</ele>
        <time>2020-06-12T07:18:04Z</time>
      </trkpt>
      <trkpt lat="49.35898" lon="-1.68772">
        <ele>33</ele>
        <time>2020-06-12T07:18:05Z</time>
      </trkpt>
      <trkpt lat="49.35903" lon="-1.6878">
        <ele>33.3</ele>
        <time>2020-06-12T07:18:06Z</time>
      </trkpt>
      <trkpt lat="49.35907" lon="-1.68789">
        <ele>33.5</ele>
        <time>2020-06-12T07:18:07Z</time>
      </trkpt>
      <trkpt lat="49.35911" lon="-1.68796">
        <ele>33.6</ele>
        <time>2020-06-12T07:18:08Z</time>
      </trkpt>
      <trkpt lat="49.35916" lon="-1.68805">
        <ele>33.6</ele>
        <time>2020-06-12T07:18:09Z</time>
      </trkpt>
      <trkpt lat="49.3592" lon="-1.68814">
        <ele>33.5</ele>
        <time>2020-06-12T07:18:10Z</time>
      </trkpt>
      <trkpt lat="49.35925" lon="-1.68821">
        <ele>33.5</ele>
        <time>2020-06-12T07:18:11Z</time>
      </trkpt>
      <trkpt lat="49.35929" lon="-1.6883">
        <ele>33.4</ele>
        <time>2020-06-12T07:18:12Z</time>
      </trkpt>
      <trkpt lat="49.35934" lon="-1.68837">
        <ele>33.4</ele>
        <time>2020-06-12T07:18:13Z</time>
      </trkpt>
      <trkpt lat="49.35937" lon="-1.68847">
        <ele>33.4</ele>
        <time>2020-06-12T07:18:14Z</time>
      </trkpt>
      <trkpt lat="49.35942" lon="-1.68856">
        <ele>33.4</ele>
        <time>2020-06-12T07:18:15Z</time>
      </trkpt>
      <trkpt lat="49.35946" lon="-1.68864">
        <ele>33.4</ele>
        <time>2020-06-12T07:18:16Z</time>
      </trkpt>
      <trkpt lat="49.35951" lon="-1.68871">
        <ele>33.5</ele>
        <time>2020-06-12T07:18:17Z</time>
      </trkpt>
      <trkpt lat="49.35956" lon="-1.68878">
        <ele>33.6</ele>
        <time>2020-06-12T07:18:18Z</time>
      </trkpt>
      <trkpt lat="49.3596" lon="-1.68886">
        <ele>33.7</ele>
        <time>2020-06-12T07:18:19Z</time>
      </trkpt>
      <trkpt lat="49.35964" lon="-1.68893">
        <ele>33.7</ele>
        <time>2020-06-12T07:18:20Z</time>
      </trkpt>
      <trkpt lat="49.35967" lon="-1.68899">
        <ele>33.8</ele>
        <time>2020-06-12T07:18:21Z</time>
      </trkpt>
      <trkpt lat="49.35971" lon="-1.68907">
        <ele>33.8</ele>
        <time>2020-06-12T07:18:22Z</time>
      </trkpt>
      <trkpt lat="49.35975" lon="-1.68914">
        <ele>33.9</ele>
        <time>2020-06-12T07:18:23Z</time>
      </trkpt>
      <trkpt lat="49.35979" lon="-1.68922">
        <ele>33.9</ele>
        <time>2020-06-12T07:18:24Z</time>
      </trkpt>
      <trkpt lat="49.35983" lon="-1.68931">
        <ele>34</ele>
        <time>2020-06-12T07:18:25Z</time>
      </trkpt>
      <trkpt lat="49.35987" lon="-1.68938">
        <ele>34</ele>
        <time>2020-06-12T07:18:26Z</time>
      </trkpt>
      <trkpt lat="49.35991" lon="-1.68945">
        <ele>34.1</ele>
        <time>2020-06-12T07:18:27Z</time>
      </trkpt>
      <trkpt lat="49.35995" lon="-1.68953">
        <ele>34.2</ele>
        <time>2020-06-12T07:18:28Z</time>
      </trkpt>
      <trkpt lat="49.35999" lon="-1.68961">
        <ele>34.2</ele>
        <time>2020-06-12T07:18:29Z</time>
      </trkpt>
      <trkpt lat="49.36002" lon="-1.68968">
        <ele>34.3</ele>
        <time>2020-06-12T07:18:30Z</time>
      </trkpt>
      <trkpt lat="49.36005" lon="-1.68975">
        <ele>34.4</ele>
        <time>2020-06-12T07:18:31Z</time>
      </trkpt>
      <trkpt lat="49.36009" lon="-1.68983">
        <ele>34.5</ele>
        <time>2020-06-12T07:18:32Z</time>
      </trkpt>
      <trkpt lat="49.36012" lon="-1.68989">
        <ele>34.6</ele>
        <time>2020-06-12T07:18:33Z</time>
      </trkpt>
      <trkpt lat="49.36015" lon="-1.68998">
        <ele>34.7</ele>
        <time>2020-06-12T07:18:34Z</time>
      </trkpt>
      <trkpt lat="49.36019" lon="-1.69007">
        <ele>34.9</ele>
        <time>2020-06-12T07:18:35Z</time>
      </trkpt>
      <trkpt lat="49.36022" lon="-1.69014">
        <ele>35</ele>
        <time>2020-06-12T07:18:36Z</time>
      </trkpt>
      <trkpt lat="49.36026" lon="-1.69021">
        <ele>35.1</ele>
        <time>2020-06-12T07:18:37Z</time>
      </trkpt>
      <trkpt lat="49.36028" lon="-1.69028">
        <ele>35.2</ele>
        <time>2020-06-12T07:18:38Z</time>
      </trkpt>
      <trkpt lat="49.36032" lon="-1.69036">
        <ele>35.3</ele>
        <time>2020-06-12T07:18:39Z</time>
      </trkpt>
      <trkpt lat="49.36035" lon="-1.69043">
        <ele>35.4</ele>
        <time>2020-06-12T07:18:40Z</time>
      </trkpt>
      <trkpt lat="49.36038" lon="-1.69051">
        <ele>35.5</ele>
        <time>2020-06-12T07:18:41Z</time>
      </trkpt>
      <trkpt lat="49.3604" lon="-1.69058">
        <ele>35.6</ele>
        <time>2020-06-12T07:18:42Z</time>
      </trkpt>
      <trkpt lat="49.36042" lon="-1.69066">
        <ele>35.7</ele>
        <time>2020-06-12T07:18:43Z</time>
      </trkpt>
      <trkpt lat="49.36046" lon="-1.69074">
        <ele>35.9</ele>
        <time>2020-06-12T07:18:44Z</time>
      </trkpt>
      <trkpt lat="49.36048" lon="-1.69083">
        <ele>36</ele>
        <time>2020-06-12T07:18:45Z</time>
      </trkpt>
      <trkpt lat="49.36051" lon="-1.69091">
        <ele>36.1</ele>
        <time>2020-06-12T07:18:46Z</time>
      </trkpt>
      <trkpt lat="49.36053" lon="-1.69099">
        <ele>36.2</ele>
        <time>2020-06-12T07:18:47Z</time>
      </trkpt>
      <trkpt lat="49.36055" lon="-1.69106">
        <ele>36.3</ele>
        <time>2020-06-12T07:18:48Z</time>
      </trkpt>
      <trkpt lat="49.36057" lon="-1.69115">
        <ele>36.4</ele>
        <time>2020-06-12T07:18:49Z</time>
      </trkpt>
      <trkpt lat="49.36059" lon="-1.69123">
        <ele>36.5</ele>
        <time>2020-06-12T07:18:50Z</time>
      </trkpt>
      <trkpt lat="49.36062" lon="-1.69132">
        <ele>36.6</ele>
        <time>2020-06-12T07:18:51Z</time>
      </trkpt>
      <trkpt lat="49.36063" lon="-1.69139">
        <ele>36.7</ele>
        <time>2020-06-12T07:18:52Z</time>
      </trkpt>
      <trkpt lat="49.36065" lon="-1.69147">
        <ele>36.8</ele>
        <time>2020-06-12T07:18:53Z</time>
      </trkpt>
      <trkpt lat="49.36067" lon="-1.69156">
        <ele>36.9</ele>
        <time>2020-06-12T07:18:54Z</time>
      </trkpt>
      <trkpt lat="49.3607" lon="-1.69165">
        <ele>37</ele>
        <time>2020-06-12T07:18:55Z</time>
      </trkpt>
      <trkpt lat="49.36072" lon="-1.69174">
        <ele>37.2</ele>
        <time>2020-06-12T07:18:56Z</time>
      </trkpt>
      <trkpt lat="49.36073" lon="-1.69182">
        <ele>37.3</ele>
        <time>2020-06-12T07:18:57Z</time>
      </trkpt>
      <trkpt lat="49.36075" lon="-1.6919">
        <ele>37.4</ele>
        <time>2020-06-12T07:18:58Z</time>
      </trkpt>
      <trkpt lat="49.36077" lon="-1.69197">
        <ele>37.5</ele>
        <time>2020-06-12T07:18:59Z</time>
      </trkpt>
      <trkpt lat="49.36079" lon="-1.69204">
        <ele>37.6</ele>
        <time>2020-06-12T07:19:00Z</time>
      </trkpt>
      <trkpt lat="49.3608" lon="-1.69213">
        <ele>37.7</ele>
        <time>2020-06-12T07:19:01Z</time>
      </trkpt>
      <trkpt lat="49.36081" lon="-1.69221">
        <ele>37.8</ele>
        <time>2020-06-12T07:19:02Z</time>
      </trkpt>
      <trkpt lat="49.36083" lon="-1.69229">
        <ele>37.9</ele>
        <time>2020-06-12T07:19:03Z</time>
      </trkpt>
      <trkpt lat="49.36085" lon="-1.69237">
        <ele>38.1</ele>
        <time>2020-06-12T07:19:04Z</time>
      </trkpt>
      <trkpt lat="49.36087" lon="-1.69246">
        <ele>38.2</ele>
        <time>2020-06-12T07:19:05Z</time>
      </trkpt>
      <trkpt lat="49.36088" lon="-1.69254">
        <ele>38.3</ele>
        <time>2020-06-12T07:19:06Z</time>
      </trkpt>
      <trkpt lat="49.36089" lon="-1.69263">
        <ele>38.5</ele>
        <time>2020-06-12T07:19:07Z</time>
      </trkpt>
      <trkpt lat="49.36091" lon="-1.6927">
        <ele>38.6</ele>
        <time>2020-06-12T07:19:08Z</time>
      </trkpt>
      <trkpt lat="49.36092" lon="-1.69278">
        <ele>38.8</ele>
        <time>2020-06-12T07:19:09Z</time>
      </trkpt>
      <trkpt lat="49.36093" lon="-1.69286">
        <ele>39</ele>
        <time>2020-06-12T07:19:10Z</time>
      </trkpt>
      <trkpt lat="49.36094" lon="-1.69295">
        <ele>39.2</ele>
        <time>2020-06-12T07:19:11Z</time>
      </trkpt>
      <trkpt lat="49.36096" lon="-1.69302">
        <ele>39.3</ele>
        <time>2020-06-12T07:19:12Z</time>
      </trkpt>
      <trkpt lat="49.36098" lon="-1.69309">
        <ele>39.5</ele>
        <time>2020-06-12T07:19:13Z</time>
      </trkpt>
      <trkpt lat="49.361" lon="-1.69318">
        <ele>39.6</ele>
        <time>2020-06-12T07:19:14Z</time>
      </trkpt>
      <trkpt lat="49.36102" lon="-1.69325">
        <ele>39.8</ele>
        <time>2020-06-12T07:19:15Z</time>
      </trkpt>
      <trkpt lat="49.36104" lon="-1.69334">
        <ele>39.9</ele>
        <time>2020-06-12T07:19:16Z</time>
      </trkpt>
      <trkpt lat="49.36106" lon="-1.69342">
        <ele>40</ele>
        <time>2020-06-12T07:19:17Z</time>
      </trkpt>
      <trkpt lat="49.36107" lon="-1.6935">
        <ele>40.2</ele>
        <time>2020-06-12T07:19:18Z</time>
      </trkpt>
      <trkpt lat="49.36109" lon="-1.69359">
        <ele>40.3</ele>
        <time>2020-06-12T07:19:19Z</time>
      </trkpt>
      <trkpt lat="49.3611" lon="-1.69367">
        <ele>40.4</ele>
        <time>2020-06-12T07:19:20Z</time>
      </trkpt>
      <trkpt lat="49.36112" lon="-1.69376">
        <ele>40.6</ele>
        <time>2020-06-12T07:19:21Z</time>
      </trkpt>
      <trkpt lat="49.36113" lon="-1.69383">
        <ele>40.7</ele>
        <time>2020-06-12T07:19:22Z</time>
      </trkpt>
      <trkpt lat="49.36115" lon="-1.6939">
        <ele>40.8</ele>
        <time>2020-06-12T07:19:23Z</time>
      </trkpt>
      <trkpt lat="49.36116" lon="-1.69398">
        <ele>41</ele>
        <time>2020-06-12T07:19:24Z</time>
      </trkpt>
      <trkpt lat="49.36118" lon="-1.69406">
        <ele>41.1</ele>
        <time>2020-06-12T07:19:25Z</time>
      </trkpt>
      <trkpt lat="49.36119" lon="-1.69414">
        <ele>41.2</ele>
        <time>2020-06-12T07:19:26Z</time>
      </trkpt>
      <trkpt lat="49.3612" lon="-1.69423">
        <ele>41.3</ele>
        <time>2020-06-12T07:19:27Z</time>
      </trkpt>
      <trkpt lat="49.36122" lon="-1.69431">
        <ele>41.4</ele>
        <time>2020-06-12T07:19:28Z</time>
      </trkpt>
      <trkpt lat="49.36124" lon="-1.69439">
        <ele>41.5</ele>
        <time>2020-06-12T07:19:29Z</time>
      </trkpt>
      <trkpt lat="49.36126" lon="-1.69447">
        <ele>41.6</ele>
        <time>2020-06-12T07:19:30Z</time>
      </trkpt>
      <trkpt lat="49.36128" lon="-1.69455">
        <ele>41.7</ele>
        <time>2020-06-12T07:19:31Z</time>
      </trkpt>
      <trkpt lat="49.36129" lon="-1.69463">
        <ele>41.7</ele>
        <time>2020-06-12T07:19:32Z</time>
      </trkpt>
      <trkpt lat="49.3613" lon="-1.6947">
        <ele>41.8</ele>
        <time>2020-06-12T07:19:33Z</time>
      </trkpt>
      <trkpt lat="49.36132" lon="-1.69478">
        <ele>42</ele>
        <time>2020-06-12T07:19:34Z</time>
      </trkpt>
      <trkpt lat="49.36133" lon="-1.69486">
        <ele>42.1</ele>
        <time>2020-06-12T07:19:35Z</time>
      </trkpt>
      <trkpt lat="49.36135" lon="-1.69495">
        <ele>42.4</ele>
        <time>2020-06-12T07:19:36Z</time>
      </trkpt>
      <trkpt lat="49.36136" lon="-1.69502">
        <ele>42.6</ele>
        <time>2020-06-12T07:19:37Z</time>
      </trkpt>
      <trkpt lat="49.36138" lon="-1.6951">
        <ele>42.9</ele>
        <time>2020-06-12T07:19:38Z</time>
      </trkpt>
      <trkpt lat="49.3614" lon="-1.69518">
        <ele>43.2</ele>
        <time>2020-06-12T07:19:39Z</time>
      </trkpt>
      <trkpt lat="49.36141" lon="-1.69526">
        <ele>43.5</ele>
        <time>2020-06-12T07:19:40Z</time>
      </trkpt>
      <trkpt lat="49.36144" lon="-1.69533">
        <ele>43.8</ele>
        <time>2020-06-12T07:19:41Z</time>
      </trkpt>
      <trkpt lat="49.36146" lon="-1.6954">
        <ele>44</ele>
        <time>2020-06-12T07:19:42Z</time>
      </trkpt>
      <trkpt lat="49.36147" lon="-1.69547">
        <ele>44.1</ele>
        <time>2020-06-12T07:19:43Z</time>
      </trkpt>
      <trkpt lat="49.36149" lon="-1.69554">
        <ele>44.2</ele>
        <time>2020-06-12T07:19:44Z</time>
      </trkpt>
      <trkpt lat="49.3615" lon="-1.69561">
        <ele>44.3</ele>
        <time>2020-06-12T07:19:45Z</time>
      </trkpt>
      <trkpt lat="49.36152" lon="-1.69568">
        <ele>44.4</ele>
        <time>2020-06-12T07:19:46Z</time>
      </trkpt>
      <trkpt lat="49.36155" lon="-1.69572">
        <ele>44.5</ele>
        <time>2020-06-12T07:19:47Z</time>
      </trkpt>
      <trkpt lat="49.36158" lon="-1.69575">
        <ele>44.6</ele>
        <time>2020-06-12T07:19:48Z</time>
      </trkpt>
      <trkpt lat="49.36162" lon="-1.6958">
        <ele>44.5</ele>
        <time>2020-06-12T07:19:49Z</time>
      </trkpt>
      <trkpt lat="49.36166" lon="-1.69585">
        <ele>44.4</ele>
        <time>2020-06-12T07:19:50Z</time>
      </trkpt>
      <trkpt lat="49.36169" lon="-1.69591">
        <ele>44.2</ele>
        <time>2020-06-12T07:19:51Z</time>
      </trkpt>
      <trkpt lat="49.36171" lon="-1.69598">
        <ele>44.2</ele>
        <time>2020-06-12T07:19:52Z</time>
      </trkpt>
      <trkpt lat="49.36171" lon="-1.69606">
        <ele>44.3</ele>
        <time>2020-06-12T07:19:53Z</time>
      </trkpt>
      <trkpt lat="49.36171" lon="-1.6961">
        <ele>44.4</ele>
        <time>2020-06-12T07:19:54Z</time>
      </trkpt>
      <trkpt lat="49.3617" lon="-1.69618">
        <ele>44.7</ele>
        <time>2020-06-12T07:19:55Z</time>
      </trkpt>
      <trkpt lat="49.36168" lon="-1.69625">
        <ele>45</ele>
        <time>2020-06-12T07:19:56Z</time>
      </trkpt>
      <trkpt lat="49.36166" lon="-1.69634">
        <ele>45.3</ele>
        <time>2020-06-12T07:19:57Z</time>
      </trkpt>
      <trkpt lat="49.36165" lon="-1.69641">
        <ele>45.6</ele>
        <time>2020-06-12T07:19:58Z</time>
      </trkpt>
      <trkpt lat="49.36166" lon="-1.69649">
        <ele>45.8</ele>
        <time>2020-06-12T07:19:59Z</time>
      </trkpt>
      <trkpt lat="49.36168" lon="-1.69656">
        <ele>46.1</ele>
        <time>2020-06-12T07:20:00Z</time>
      </trkpt>
      <trkpt lat="49.3617" lon="-1.69664">
        <ele>46.1</ele>
        <time>2020-06-12T07:20:01Z</time>
      </trkpt>
      <trkpt lat="49.36171" lon="-1.69671">
        <ele>46</ele>
        <time>2020-06-12T07:20:02Z</time>
      </trkpt>
      <trkpt lat="49.36172" lon="-1.69678">
        <ele>46</ele>
        <time>2020-06-12T07:20:03Z</time>
      </trkpt>
      <trkpt lat="49.36173" lon="-1.69686">
        <ele>45.9</ele>
        <time>2020-06-12T07:20:04Z</time>
      </trkpt>
      <trkpt lat="49.36174" lon="-1.69694">
        <ele>45.8</ele>
        <time>2020-06-12T07:20:05Z</time>
      </trkpt>
      <trkpt lat="49.36174" lon="-1.69704">
        <ele>45.8</ele>
        <time>2020-06-12T07:20:06Z</time>
      </trkpt>
      <trkpt lat="49.36176" lon="-1.69712">
        <ele>45.8</ele>
        <time>2020-06-12T07:20:07Z</time>
      </trkpt>
      <trkpt lat="49.36178" lon="-1.69719">
        <ele>45.8</ele>
        <time>2020-06-12T07:20:08Z</time>
      </trkpt>
      <trkpt lat="49.3618" lon="-1.69726">
        <ele>45.9</ele>
        <time>2020-06-12T07:20:09Z</time>
      </trkpt>
      <trkpt lat="49.36181" lon="-1.69733">
        <ele>45.9</ele>
        <time>2020-06-12T07:20:10Z</time>
      </trkpt>
      <trkpt lat="49.36183" lon="-1.69741">
        <ele>46</ele>
        <time>2020-06-12T07:20:11Z</time>
      </trkpt>
      <trkpt lat="49.36185" lon="-1.69749">
        <ele>46</ele>
        <time>2020-06-12T07:20:12Z</time>
      </trkpt>
      <trkpt lat="49.36186" lon="-1.69758">
        <ele>46.1</ele>
        <time>2020-06-12T07:20:13Z</time>
      </trkpt>
      <trkpt lat="49.36188" lon="-1.69767">
        <ele>46.2</ele>
        <time>2020-06-12T07:20:14Z</time>
      </trkpt>
      <trkpt lat="49.36189" lon="-1.69774">
        <ele>46.2</ele>
        <time>2020-06-12T07:20:15Z</time>
      </trkpt>
      <trkpt lat="49.36191" lon="-1.69782">
        <ele>46.3</ele>
        <time>2020-06-12T07:20:16Z</time>
      </trkpt>
      <trkpt lat="49.36193" lon="-1.6979">
        <ele>46.4</ele>
        <time>2020-06-12T07:20:17Z</time>
      </trkpt>
      <trkpt lat="49.36194" lon="-1.69798">
        <ele>46.5</ele>
        <time>2020-06-12T07:20:18Z</time>
      </trkpt>
      <trkpt lat="49.36196" lon="-1.69806">
        <ele>46.6</ele>
        <time>2020-06-12T07:20:19Z</time>
      </trkpt>
      <trkpt lat="49.36198" lon="-1.69814">
        <ele>46.6</ele>
        <time>2020-06-12T07:20:20Z</time>
      </trkpt>
      <trkpt lat="49.362" lon="-1.69822">
        <ele>46.7</ele>
        <time>2020-06-12T07:20:21Z</time>
      </trkpt>
      <trkpt lat="49.36202" lon="-1.6983">
        <ele>46.7</ele>
        <time>2020-06-12T07:20:22Z</time>
      </trkpt>
      <trkpt lat="49.36203" lon="-1.69837">
        <ele>46.8</ele>
        <time>2020-06-12T07:20:23Z</time>
      </trkpt>
      <trkpt lat="49.36205" lon="-1.69845">
        <ele>46.9</ele>
        <time>2020-06-12T07:20:24Z</time>
      </trkpt>
      <trkpt lat="49.36207" lon="-1.69853">
        <ele>46.9</ele>
        <time>2020-06-12T07:20:25Z</time>
      </trkpt>
      <trkpt lat="49.36208" lon="-1.69864">
        <ele>47</ele>
        <time>2020-06-12T07:20:26Z</time>
      </trkpt>
      <trkpt lat="49.3621" lon="-1.69873">
        <ele>47.1</ele>
        <time>2020-06-12T07:20:27Z</time>
      </trkpt>
      <trkpt lat="49.36212" lon="-1.69882">
        <ele>47.1</ele>
        <time>2020-06-12T07:20:28Z</time>
      </trkpt>
      <trkpt lat="49.36213" lon="-1.6989">
        <ele>47.2</ele>
        <time>2020-06-12T07:20:29Z</time>
      </trkpt>
      <trkpt lat="49.36215" lon="-1.69898">
        <ele>47.2</ele>
        <time>2020-06-12T07:20:30Z</time>
      </trkpt>
      <trkpt lat="49.36216" lon="-1.69907">
        <ele>47.3</ele>
        <time>2020-06-12T07:20:31Z</time>
      </trkpt>
      <trkpt lat="49.36216" lon="-1.69916">
        <ele>47.4</ele>
        <time>2020-06-12T07:20:32Z</time>
      </trkpt>
      <trkpt lat="49.36217" lon="-1.69925">
        <ele>47.4</ele>
        <time>2020-06-12T07:20:33Z</time>
      </trkpt>
      <trkpt lat="49.36219" lon="-1.69933">
        <ele>47.5</ele>
        <time>2020-06-12T07:20:34Z</time>
      </trkpt>
      <trkpt lat="49.36221" lon="-1.69941">
        <ele>47.5</ele>
        <time>2020-06-12T07:20:35Z</time>
      </trkpt>
      <trkpt lat="49.36223" lon="-1.69949">
        <ele>47.5</ele>
        <time>2020-06-12T07:20:36Z</time>
      </trkpt>
      <trkpt lat="49.36225" lon="-1.69958">
        <ele>47.6</ele>
        <time>2020-06-12T07:20:37Z</time>
      </trkpt>
      <trkpt lat="49.36228" lon="-1.69967">
        <ele>47.6</ele>
        <time>2020-06-12T07:20:38Z</time>
      </trkpt>
      <trkpt lat="49.3623" lon="-1.69976">
        <ele>47.7</ele>
        <time>2020-06-12T07:20:39Z</time>
      </trkpt>
      <trkpt lat="49.36232" lon="-1.69985">
        <ele>47.7</ele>
        <time>2020-06-12T07:20:40Z</time>
      </trkpt>
      <trkpt lat="49.36234" lon="-1.69994">
        <ele>47.7</ele>
        <time>2020-06-12T07:20:41Z</time>
      </trkpt>
      <trkpt lat="49.36236" lon="-1.70003">
        <ele>47.8</ele>
        <time>2020-06-12T07:20:42Z</time>
      </trkpt>
      <trkpt lat="49.36237" lon="-1.70013">
        <ele>47.9</ele>
        <time>2020-06-12T07:20:43Z</time>
      </trkpt>
      <trkpt lat="49.36239" lon="-1.70022">
        <ele>48</ele>
        <time>2020-06-12T07:20:44Z</time>
      </trkpt>
      <trkpt lat="49.3624" lon="-1.70031">
        <ele>48.2</ele>
        <time>2020-06-12T07:20:45Z</time>
      </trkpt>
      <trkpt lat="49.36241" lon="-1.70039">
        <ele>48.4</ele>
        <time>2020-06-12T07:20:46Z</time>
      </trkpt>
      <trkpt lat="49.36242" lon="-1.70049">
        <ele>48.6</ele>
        <time>2020-06-12T07:20:47Z</time>
      </trkpt>
      <trkpt lat="49.36244" lon="-1.70059">
        <ele>48.9</ele>
        <time>2020-06-12T07:20:48Z</time>
      </trkpt>
      <trkpt lat="49.36245" lon="-1.70069">
        <ele>48.8</ele>
        <time>2020-06-12T07:20:49Z</time>
      </trkpt>
      <trkpt lat="49.36246" lon="-1.70079">
        <ele>48.5</ele>
        <time>2020-06-12T07:20:50Z</time>
      </trkpt>
      <trkpt lat="49.36248" lon="-1.70087">
        <ele>48.4</ele>
        <time>2020-06-12T07:20:51Z</time>
      </trkpt>
      <trkpt lat="49.36249" lon="-1.70098">
        <ele>48.2</ele>
        <time>2020-06-12T07:20:52Z</time>
      </trkpt>
      <trkpt lat="49.36251" lon="-1.70107">
        <ele>48.2</ele>
        <time>2020-06-12T07:20:53Z</time>
      </trkpt>
      <trkpt lat="49.36252" lon="-1.70117">
        <ele>48.1</ele>
        <time>2020-06-12T07:20:54Z</time>
      </trkpt>
      <trkpt lat="49.36253" lon="-1.70126">
        <ele>48.1</ele>
        <time>2020-06-12T07:20:55Z</time>
      </trkpt>
      <trkpt lat="49.36254" lon="-1.70134">
        <ele>48.2</ele>
        <time>2020-06-12T07:20:56Z</time>
      </trkpt>
      <trkpt lat="49.36255" lon="-1.70143">
        <ele>48.2</ele>
        <time>2020-06-12T07:20:57Z</time>
      </trkpt>
      <trkpt lat="49.36256" lon="-1.70152">
        <ele>48.2</ele>
        <time>2020-06-12T07:20:58Z</time>
      </trkpt>
      <trkpt lat="49.36256" lon="-1.70161">
        <ele>48.3</ele>
        <time>2020-06-12T07:20:59Z</time>
      </trkpt>
      <trkpt lat="49.36257" lon="-1.70169">
        <ele>48.4</ele>
        <time>2020-06-12T07:21:00Z</time>
      </trkpt>
      <trkpt lat="49.36258" lon="-1.70177">
        <ele>48.4</ele>
        <time>2020-06-12T07:21:01Z</time>
      </trkpt>
      <trkpt lat="49.36259" lon="-1.70185">
        <ele>48.4</ele>
        <time>2020-06-12T07:21:02Z</time>
      </trkpt>
      <trkpt lat="49.36259" lon="-1.70194">
        <ele>48.5</ele>
        <time>2020-06-12T07:21:03Z</time>
      </trkpt>
      <trkpt lat="49.3626" lon="-1.70205">
        <ele>48.5</ele>
        <time>2020-06-12T07:21:04Z</time>
      </trkpt>
      <trkpt lat="49.36261" lon="-1.70215">
        <ele>48.6</ele>
        <time>2020-06-12T07:21:05Z</time>
      </trkpt>
      <trkpt lat="49.36262" lon="-1.70224">
        <ele>48.7</ele>
        <time>2020-06-12T07:21:06Z</time>
      </trkpt>
      <trkpt lat="49.36263" lon="-1.70232">
        <ele>48.7</ele>
        <time>2020-06-12T07:21:07Z</time>
      </trkpt>
      <trkpt lat="49.36264" lon="-1.70241">
        <ele>48.8</ele>
        <time>2020-06-12T07:21:08Z</time>
      </trkpt>
      <trkpt lat="49.36265" lon="-1.70249">
        <ele>48.9</ele>
        <time>2020-06-12T07:21:09Z</time>
      </trkpt>
      <trkpt lat="49.36267" lon="-1.70257">
        <ele>49</ele>
        <time>2020-06-12T07:21:10Z</time>
      </trkpt>
      <trkpt lat="49.36269" lon="-1.70266">
        <ele>49</ele>
        <time>2020-06-12T07:21:11Z</time>
      </trkpt>
      <trkpt lat="49.3627" lon="-1.70275">
        <ele>49.1</ele>
        <time>2020-06-12T07:21:12Z</time>
      </trkpt>
      <trkpt lat="49.36272" lon="-1.70285">
        <ele>49.2</ele>
        <time>2020-06-12T07:21:13Z</time>
      </trkpt>
      <trkpt lat="49.36274" lon="-1.70294">
        <ele>49.3</ele>
        <time>2020-06-12T07:21:14Z</time>
      </trkpt>
      <trkpt lat="49.36276" lon="-1.70305">
        <ele>49.4</ele>
        <time>2020-06-12T07:21:15Z</time>
      </trkpt>
      <trkpt lat="49.36277" lon="-1.70313">
        <ele>49.4</ele>
        <time>2020-06-12T07:21:16Z</time>
      </trkpt>
      <trkpt lat="49.36278" lon="-1.70322">
        <ele>49.4</ele>
        <time>2020-06-12T07:21:17Z</time>
      </trkpt>
      <trkpt lat="49.3628" lon="-1.7033">
        <ele>49.5</ele>
        <time>2020-06-12T07:21:18Z</time>
      </trkpt>
      <trkpt lat="49.36281" lon="-1.70338">
        <ele>49.5</ele>
        <time>2020-06-12T07:21:19Z</time>
      </trkpt>
      <trkpt lat="49.36282" lon="-1.7035">
        <ele>49.5</ele>
        <time>2020-06-12T07:21:20Z</time>
      </trkpt>
      <trkpt lat="49.36283" lon="-1.70359">
        <ele>49.5</ele>
        <time>2020-06-12T07:21:21Z</time>
      </trkpt>
      <trkpt lat="49.36285" lon="-1.70366">
        <ele>49.5</ele>
        <time>2020-06-12T07:21:22Z</time>
      </trkpt>
      <trkpt lat="49.36288" lon="-1.70375">
        <ele>49.5</ele>
        <time>2020-06-12T07:21:23Z</time>
      </trkpt>
      <trkpt lat="49.36289" lon="-1.70385">
        <ele>49.5</ele>
        <time>2020-06-12T07:21:24Z</time>
      </trkpt>
      <trkpt lat="49.36291" lon="-1.70395">
        <ele>49.6</ele>
        <time>2020-06-12T07:21:25Z</time>
      </trkpt>
      <trkpt lat="49.36293" lon="-1.70405">
        <ele>49.6</ele>
        <time>2020-06-12T07:21:26Z</time>
      </trkpt>
      <trkpt lat="49.36295" lon="-1.70414">
        <ele>49.6</ele>
        <time>2020-06-12T07:21:27Z</time>
      </trkpt>
      <trkpt lat="49.36298" lon="-1.70423">
        <ele>49.6</ele>
        <time>2020-06-12T07:21:28Z</time>
      </trkpt>
      <trkpt lat="49.363" lon="-1.70431">
        <ele>49.6</ele>
        <time>2020-06-12T07:21:29Z</time>
      </trkpt>
      <trkpt lat="49.36301" lon="-1.7044">
        <ele>49.7</ele>
        <time>2020-06-12T07:21:30Z</time>
      </trkpt>
      <trkpt lat="49.36303" lon="-1.70449">
        <ele>49.7</ele>
        <time>2020-06-12T07:21:31Z</time>
      </trkpt>
      <trkpt lat="49.36304" lon="-1.70458">
        <ele>49.8</ele>
        <time>2020-06-12T07:21:32Z</time>
      </trkpt>
      <trkpt lat="49.36305" lon="-1.70466">
        <ele>49.8</ele>
        <time>2020-06-12T07:21:33Z</time>
      </trkpt>
      <trkpt lat="49.36307" lon="-1.70475">
        <ele>49.8</ele>
        <time>2020-06-12T07:21:34Z</time>
      </trkpt>
      <trkpt lat="49.36309" lon="-1.70483">
        <ele>49.9</ele>
        <time>2020-06-12T07:21:35Z</time>
      </trkpt>
      <trkpt lat="49.36311" lon="-1.70491">
        <ele>49.9</ele>
        <time>2020-06-12T07:21:36Z</time>
      </trkpt>
      <trkpt lat="49.36314" lon="-1.705">
        <ele>50</ele>
        <time>2020-06-12T07:21:37Z</time>
      </trkpt>
      <trkpt lat="49.36316" lon="-1.7051">
        <ele>50</ele>
        <time>2020-06-12T07:21:38Z</time>
      </trkpt>
      <trkpt lat="49.36318" lon="-1.70519">
        <ele>50</ele>
        <time>2020-06-12T07:21:39Z</time>
      </trkpt>
      <trkpt lat="49.3632" lon="-1.70527">
        <ele>50.1</ele>
        <time>2020-06-12T07:21:40Z</time>
      </trkpt>
      <trkpt lat="49.36321" lon="-1.70537">
        <ele>50.2</ele>
        <time>2020-06-12T07:21:41Z</time>
      </trkpt>
      <trkpt lat="49.36323" lon="-1.70546">
        <ele>50.2</ele>
        <time>2020-06-12T07:21:42Z</time>
      </trkpt>
      <trkpt lat="49.36324" lon="-1.70554">
        <ele>50.3</ele>
        <time>2020-06-12T07:21:43Z</time>
      </trkpt>
      <trkpt lat="49.36326" lon="-1.70561">
        <ele>50.3</ele>
        <time>2020-06-12T07:21:44Z</time>
      </trkpt>
      <trkpt lat="49.36328" lon="-1.70569">
        <ele>50.4</ele>
        <time>2020-06-12T07:21:45Z</time>
      </trkpt>
      <trkpt lat="49.3633" lon="-1.70576">
        <ele>50.4</ele>
        <time>2020-06-12T07:21:46Z</time>
      </trkpt>
      <trkpt lat="49.36332" lon="-1.70585">
        <ele>50.5</ele>
        <time>2020-06-12T07:21:47Z</time>
      </trkpt>
      <trkpt lat="49.36335" lon="-1.70595">
        <ele>50.5</ele>
        <time>2020-06-12T07:21:48Z</time>
      </trkpt>
      <trkpt lat="49.36337" lon="-1.70604">
        <ele>50.5</ele>
        <time>2020-06-12T07:21:49Z</time>
      </trkpt>
      <trkpt lat="49.36339" lon="-1.70612">
        <ele>50.5</ele>
        <time>2020-06-12T07:21:50Z</time>
      </trkpt>
      <trkpt lat="49.36342" lon="-1.70621">
        <ele>50.5</ele>
        <time>2020-06-12T07:21:51Z</time>
      </trkpt>
      <trkpt lat="49.36344" lon="-1.70632">
        <ele>50.5</ele>
        <time>2020-06-12T07:21:52Z</time>
      </trkpt>
      <trkpt lat="49.36346" lon="-1.70642">
        <ele>50.4</ele>
        <time>2020-06-12T07:21:53Z</time>
      </trkpt>
      <trkpt lat="49.36348" lon="-1.70649">
        <ele>50.4</ele>
        <time>2020-06-12T07:21:54Z</time>
      </trkpt>
      <trkpt lat="49.3635" lon="-1.70658">
        <ele>50.3</ele>
        <time>2020-06-12T07:21:55Z</time>
      </trkpt>
      <trkpt lat="49.36353" lon="-1.70665">
        <ele>50.3</ele>
        <time>2020-06-12T07:21:56Z</time>
      </trkpt>
      <trkpt lat="49.36354" lon="-1.70675">
        <ele>50.3</ele>
        <time>2020-06-12T07:21:57Z</time>
      </trkpt>
      <trkpt lat="49.36355" lon="-1.70684">
        <ele>50.2</ele>
        <time>2020-06-12T07:21:58Z</time>
      </trkpt>
      <trkpt lat="49.36357" lon="-1.70693">
        <ele>50.2</ele>
        <time>2020-06-12T07:21:59Z</time>
      </trkpt>
      <trkpt lat="49.36359" lon="-1.70702">
        <ele>50.2</ele>
        <time>2020-06-12T07:22:00Z</time>
      </trkpt>
      <trkpt lat="49.36361" lon="-1.70712">
        <ele>50.1</ele>
        <time>2020-06-12T07:22:01Z</time>
      </trkpt>
      <trkpt lat="49.36363" lon="-1.70722">
        <ele>50.1</ele>
        <time>2020-06-12T07:22:02Z</time>
      </trkpt>
      <trkpt lat="49.36365" lon="-1.70732">
        <ele>50.1</ele>
        <time>2020-06-12T07:22:03Z</time>
      </trkpt>
      <trkpt lat="49.36367" lon="-1.70742">
        <ele>50.1</ele>
        <time>2020-06-12T07:22:04Z</time>
      </trkpt>
      <trkpt lat="49.3637" lon="-1.7075">
        <ele>50.1</ele>
        <time>2020-06-12T07:22:05Z</time>
      </trkpt>
      <trkpt lat="49.36372" lon="-1.70758">
        <ele>50</ele>
        <time>2020-06-12T07:22:06Z</time>
      </trkpt>
      <trkpt lat="49.36374" lon="-1.70766">
        <ele>50</ele>
        <time>2020-06-12T07:22:07Z</time>
      </trkpt>
      <trkpt lat="49.36376" lon="-1.70775">
        <ele>50.1</ele>
        <time>2020-06-12T07:22:08Z</time>
      </trkpt>
      <trkpt lat="49.36379" lon="-1.70785">
        <ele>50.2</ele>
        <time>2020-06-12T07:22:09Z</time>
      </trkpt>
      <trkpt lat="49.36381" lon="-1.70793">
        <ele>50.3</ele>
        <time>2020-06-12T07:22:10Z</time>
      </trkpt>
      <trkpt lat="49.36383" lon="-1.70802">
        <ele>50.5</ele>
        <time>2020-06-12T07:22:11Z</time>
      </trkpt>
      <trkpt lat="49.36385" lon="-1.70812">
        <ele>50.4</ele>
        <time>2020-06-12T07:22:12Z</time>
      </trkpt>
      <trkpt lat="49.36386" lon="-1.70821">
        <ele>50.1</ele>
        <time>2020-06-12T07:22:13Z</time>
      </trkpt>
      <trkpt lat="49.36388" lon="-1.70829">
        <ele>49.8</ele>
        <time>2020-06-12T07:22:14Z</time>
      </trkpt>
      <trkpt lat="49.3639" lon="-1.70839">
        <ele>49.6</ele>
        <time>2020-06-12T07:22:15Z</time>
      </trkpt>
      <trkpt lat="49.36392" lon="-1.70849">
        <ele>49.5</ele>
        <time>2020-06-12T07:22:16Z</time>
      </trkpt>
      <trkpt lat="49.36395" lon="-1.70858">
        <ele>49.4</ele>
        <time>2020-06-12T07:22:17Z</time>
      </trkpt>
      <trkpt lat="49.36396" lon="-1.70867">
        <ele>49.4</ele>
        <time>2020-06-12T07:22:18Z</time>
      </trkpt>
      <trkpt lat="49.36399" lon="-1.70875">
        <ele>49.4</ele>
        <time>2020-06-12T07:22:19Z</time>
      </trkpt>
      <trkpt lat="49.36402" lon="-1.70883">
        <ele>49.4</ele>
        <time>2020-06-12T07:22:20Z</time>
      </trkpt>
      <trkpt lat="49.36403" lon="-1.70891">
        <ele>49.4</ele>
        <time>2020-06-12T07:22:21Z</time>
      </trkpt>
      <trkpt lat="49.36405" lon="-1.709">
        <ele>49.4</ele>
        <time>2020-06-12T07:22:22Z</time>
      </trkpt>
      <trkpt lat="49.36407" lon="-1.7091">
        <ele>49.3</ele>
        <time>2020-06-12T07:22:23Z</time>
      </trkpt>
      <trkpt lat="49.36409" lon="-1.7092">
        <ele>49.3</ele>
        <time>2020-06-12T07:22:24Z</time>
      </trkpt>
      <trkpt lat="49.36411" lon="-1.70929">
        <ele>49.3</ele>
        <time>2020-06-12T07:22:25Z</time>
      </trkpt>
      <trkpt lat="49.36414" lon="-1.70939">
        <ele>49.3</ele>
        <time>2020-06-12T07:22:26Z</time>
      </trkpt>
      <trkpt lat="49.36415" lon="-1.70948">
        <ele>49.3</ele>
        <time>2020-06-12T07:22:27Z</time>
      </trkpt>
      <trkpt lat="49.36417" lon="-1.70958">
        <ele>49.3</ele>
        <time>2020-06-12T07:22:28Z</time>
      </trkpt>
      <trkpt lat="49.36419" lon="-1.70968">
        <ele>49.3</ele>
        <time>2020-06-12T07:22:29Z</time>
      </trkpt>
      <trkpt lat="49.36421" lon="-1.70976">
        <ele>49.3</ele>
        <time>2020-06-12T07:22:30Z</time>
      </trkpt>
      <trkpt lat="49.36424" lon="-1.70984">
        <ele>49.3</ele>
        <time>2020-06-12T07:22:31Z</time>
      </trkpt>
      <trkpt lat="49.36427" lon="-1.70991">
        <ele>49.3</ele>
        <time>2020-06-12T07:22:32Z</time>
      </trkpt>
      <trkpt lat="49.3643" lon="-1.70999">
        <ele>49.3</ele>
        <time>2020-06-12T07:22:33Z</time>
      </trkpt>
      <trkpt lat="49.36433" lon="-1.71008">
        <ele>49.3</ele>
        <time>2020-06-12T07:22:34Z</time>
      </trkpt>
      <trkpt lat="49.36436" lon="-1.71015">
        <ele>49.2</ele>
        <time>2020-06-12T07:22:35Z</time>
      </trkpt>
      <trkpt lat="49.36439" lon="-1.71025">
        <ele>49.2</ele>
        <time>2020-06-12T07:22:36Z</time>
      </trkpt>
      <trkpt lat="49.36443" lon="-1.71036">
        <ele>49.2</ele>
        <time>2020-06-12T07:22:37Z</time>
      </trkpt>
      <trkpt lat="49.36446" lon="-1.71045">
        <ele>49.2</ele>
        <time>2020-06-12T07:22:38Z</time>
      </trkpt>
      <trkpt lat="49.36448" lon="-1.71054">
        <ele>49.2</ele>
        <time>2020-06-12T07:22:39Z</time>
      </trkpt>
      <trkpt lat="49.36451" lon="-1.71062">
        <ele>49.1</ele>
        <time>2020-06-12T07:22:40Z</time>
      </trkpt>
      <trkpt lat="49.36453" lon="-1.71071">
        <ele>49.1</ele>
        <time>2020-06-12T07:22:41Z</time>
      </trkpt>
      <trkpt lat="49.36457" lon="-1.71081">
        <ele>49.1</ele>
        <time>2020-06-12T07:22:42Z</time>
      </trkpt>
      <trkpt lat="49.3646" lon="-1.71091">
        <ele>49.1</ele>
        <time>2020-06-12T07:22:43Z</time>
      </trkpt>
      <trkpt lat="49.36462" lon="-1.71099">
        <ele>49.1</ele>
        <time>2020-06-12T07:22:44Z</time>
      </trkpt>
      <trkpt lat="49.36464" lon="-1.71107">
        <ele>49.1</ele>
        <time>2020-06-12T07:22:45Z</time>
      </trkpt>
      <trkpt lat="49.36466" lon="-1.71116">
        <ele>49.1</ele>
        <time>2020-06-12T07:22:46Z</time>
      </trkpt>
      <trkpt lat="49.36469" lon="-1.71124">
        <ele>49.1</ele>
        <time>2020-06-12T07:22:47Z</time>
      </trkpt>
      <trkpt lat="49.36471" lon="-1.71133">
        <ele>49.1</ele>
        <time>2020-06-12T07:22:48Z</time>
      </trkpt>
      <trkpt lat="49.36473" lon="-1.71143">
        <ele>49</ele>
        <time>2020-06-12T07:22:49Z</time>
      </trkpt>
      <trkpt lat="49.36476" lon="-1.71153">
        <ele>49</ele>
        <time>2020-06-12T07:22:50Z</time>
      </trkpt>
      <trkpt lat="49.36478" lon="-1.71164">
        <ele>49</ele>
        <time>2020-06-12T07:22:51Z</time>
      </trkpt>
      <trkpt lat="49.36481" lon="-1.71173">
        <ele>49</ele>
        <time>2020-06-12T07:22:52Z</time>
      </trkpt>
      <trkpt lat="49.36484" lon="-1.71183">
        <ele>49</ele>
        <time>2020-06-12T07:22:53Z</time>
      </trkpt>
      <trkpt lat="49.36487" lon="-1.71193">
        <ele>49.1</ele>
        <time>2020-06-12T07:22:54Z</time>
      </trkpt>
      <trkpt lat="49.36489" lon="-1.71201">
        <ele>49.2</ele>
        <time>2020-06-12T07:22:55Z</time>
      </trkpt>
      <trkpt lat="49.36493" lon="-1.7121">
        <ele>49.4</ele>
        <time>2020-06-12T07:22:56Z</time>
      </trkpt>
      <trkpt lat="49.36496" lon="-1.71219">
        <ele>49.7</ele>
        <time>2020-06-12T07:22:57Z</time>
      </trkpt>
      <trkpt lat="49.36499" lon="-1.71227">
        <ele>49.9</ele>
        <time>2020-06-12T07:22:58Z</time>
      </trkpt>
      <trkpt lat="49.36502" lon="-1.71237">
        <ele>50</ele>
        <time>2020-06-12T07:22:59Z</time>
      </trkpt>
      <trkpt lat="49.36505" lon="-1.71246">
        <ele>49.9</ele>
        <time>2020-06-12T07:23:00Z</time>
      </trkpt>
      <trkpt lat="49.36508" lon="-1.71256">
        <ele>49.7</ele>
        <time>2020-06-12T07:23:01Z</time>
      </trkpt>
      <trkpt lat="49.36512" lon="-1.71264">
        <ele>49.6</ele>
        <time>2020-06-12T07:23:02Z</time>
      </trkpt>
      <trkpt lat="49.36515" lon="-1.71274">
        <ele>49.4</ele>
        <time>2020-06-12T07:23:03Z</time>
      </trkpt>
      <trkpt lat="49.36517" lon="-1.71283">
        <ele>49.4</ele>
        <time>2020-06-12T07:23:04Z</time>
      </trkpt>
      <trkpt lat="49.3652" lon="-1.71292">
        <ele>49.4</ele>
        <time>2020-06-12T07:23:05Z</time>
      </trkpt>
      <trkpt lat="49.36523" lon="-1.71301">
        <ele>49.4</ele>
        <time>2020-06-12T07:23:06Z</time>
      </trkpt>
      <trkpt lat="49.36525" lon="-1.7131">
        <ele>49.4</ele>
        <time>2020-06-12T07:23:07Z</time>
      </trkpt>
      <trkpt lat="49.36528" lon="-1.71318">
        <ele>49.4</ele>
        <time>2020-06-12T07:23:08Z</time>
      </trkpt>
      <trkpt lat="49.3653" lon="-1.71327">
        <ele>49.5</ele>
        <time>2020-06-12T07:23:09Z</time>
      </trkpt>
      <trkpt lat="49.36532" lon="-1.71336">
        <ele>49.6</ele>
        <time>2020-06-12T07:23:10Z</time>
      </trkpt>
      <trkpt lat="49.36535" lon="-1.71345">
        <ele>49.7</ele>
        <time>2020-06-12T07:23:11Z</time>
      </trkpt>
      <trkpt lat="49.36538" lon="-1.71354">
        <ele>49.8</ele>
        <time>2020-06-12T07:23:12Z</time>
      </trkpt>
      <trkpt lat="49.3654" lon="-1.71363">
        <ele>49.9</ele>
        <time>2020-06-12T07:23:13Z</time>
      </trkpt>
      <trkpt lat="49.36542" lon="-1.71373">
        <ele>50</ele>
        <time>2020-06-12T07:23:14Z</time>
      </trkpt>
      <trkpt lat="49.36545" lon="-1.71382">
        <ele>50.1</ele>
        <time>2020-06-12T07:23:15Z</time>
      </trkpt>
      <trkpt lat="49.36547" lon="-1.71391">
        <ele>50.1</ele>
        <time>2020-06-12T07:23:16Z</time>
      </trkpt>
      <trkpt lat="49.3655" lon="-1.714">
        <ele>50.2</ele>
        <time>2020-06-12T07:23:17Z</time>
      </trkpt>
      <trkpt lat="49.36553" lon="-1.71408">
        <ele>50.3</ele>
        <time>2020-06-12T07:23:18Z</time>
      </trkpt>
      <trkpt lat="49.36555" lon="-1.71418">
        <ele>50.3</ele>
        <time>2020-06-12T07:23:19Z</time>
      </trkpt>
      <trkpt lat="49.36557" lon="-1.71426">
        <ele>50.4</ele>
        <time>2020-06-12T07:23:20Z</time>
      </trkpt>
      <trkpt lat="49.3656" lon="-1.71435">
        <ele>50.4</ele>
        <time>2020-06-12T07:23:21Z</time>
      </trkpt>
      <trkpt lat="49.36563" lon="-1.71445">
        <ele>50.5</ele>
        <time>2020-06-12T07:23:22Z</time>
      </trkpt>
      <trkpt lat="49.36565" lon="-1.71453">
        <ele>50.6</ele>
        <time>2020-06-12T07:23:23Z</time>
      </trkpt>
      <trkpt lat="49.36567" lon="-1.71461">
        <ele>50.6</ele>
        <time>2020-06-12T07:23:24Z</time>
      </trkpt>
      <trkpt lat="49.36569" lon="-1.71469">
        <ele>50.7</ele>
        <time>2020-06-12T07:23:25Z</time>
      </trkpt>
      <trkpt lat="49.36571" lon="-1.71477">
        <ele>50.8</ele>
        <time>2020-06-12T07:23:26Z</time>
      </trkpt>
      <trkpt lat="49.36574" lon="-1.71486">
        <ele>50.9</ele>
        <time>2020-06-12T07:23:27Z</time>
      </trkpt>
      <trkpt lat="49.36576" lon="-1.71496">
        <ele>51</ele>
        <time>2020-06-12T07:23:28Z</time>
      </trkpt>
      <trkpt lat="49.36579" lon="-1.71505">
        <ele>51.1</ele>
        <time>2020-06-12T07:23:29Z</time>
      </trkpt>
      <trkpt lat="49.36581" lon="-1.71514">
        <ele>51.3</ele>
        <time>2020-06-12T07:23:30Z</time>
      </trkpt>
      <trkpt lat="49.36584" lon="-1.7152">
        <ele>51.3</ele>
        <time>2020-06-12T07:23:31Z</time>
      </trkpt>
      <trkpt lat="49.36586" lon="-1.7153">
        <ele>51.5</ele>
        <time>2020-06-12T07:23:32Z</time>
      </trkpt>
      <trkpt lat="49.36588" lon="-1.7154">
        <ele>51.6</ele>
        <time>2020-06-12T07:23:33Z</time>
      </trkpt>
      <trkpt lat="49.3659" lon="-1.71547">
        <ele>51.7</ele>
        <time>2020-06-12T07:23:34Z</time>
      </trkpt>
      <trkpt lat="49.36593" lon="-1.71559">
        <ele>51.8</ele>
        <time>2020-06-12T07:23:35Z</time>
      </trkpt>
      <trkpt lat="49.36596" lon="-1.71567">
        <ele>51.9</ele>
        <time>2020-06-12T07:23:36Z</time>
      </trkpt>
      <trkpt lat="49.36598" lon="-1.71574">
        <ele>52</ele>
        <time>2020-06-12T07:23:37Z</time>
      </trkpt>
      <trkpt lat="49.36601" lon="-1.71583">
        <ele>52.2</ele>
        <time>2020-06-12T07:23:38Z</time>
      </trkpt>
      <trkpt lat="49.36603" lon="-1.7159">
        <ele>52.3</ele>
        <time>2020-06-12T07:23:39Z</time>
      </trkpt>
      <trkpt lat="49.36606" lon="-1.71597">
        <ele>52.4</ele>
        <time>2020-06-12T07:23:40Z</time>
      </trkpt>
      <trkpt lat="49.36609" lon="-1.71606">
        <ele>52.6</ele>
        <time>2020-06-12T07:23:41Z</time>
      </trkpt>
      <trkpt lat="49.36611" lon="-1.71614">
        <ele>52.8</ele>
        <time>2020-06-12T07:23:42Z</time>
      </trkpt>
      <trkpt lat="49.36613" lon="-1.71623">
        <ele>53</ele>
        <time>2020-06-12T07:23:43Z</time>
      </trkpt>
      <trkpt lat="49.36616" lon="-1.71631">
        <ele>53.2</ele>
        <time>2020-06-12T07:23:44Z</time>
      </trkpt>
      <trkpt lat="49.36618" lon="-1.71638">
        <ele>53.3</ele>
        <time>2020-06-12T07:23:45Z</time>
      </trkpt>
      <trkpt lat="49.3662" lon="-1.71647">
        <ele>53.5</ele>
        <time>2020-06-12T07:23:46Z</time>
      </trkpt>
      <trkpt lat="49.36622" lon="-1.71654">
        <ele>53.7</ele>
        <time>2020-06-12T07:23:47Z</time>
      </trkpt>
      <trkpt lat="49.36624" lon="-1.71662">
        <ele>53.9</ele>
        <time>2020-06-12T07:23:48Z</time>
      </trkpt>
      <trkpt lat="49.36625" lon="-1.7167">
        <ele>54</ele>
        <time>2020-06-12T07:23:49Z</time>
      </trkpt>
      <trkpt lat="49.36627" lon="-1.71679">
        <ele>54.1</ele>
        <time>2020-06-12T07:23:50Z</time>
      </trkpt>
      <trkpt lat="49.3663" lon="-1.71688">
        <ele>54.3</ele>
        <time>2020-06-12T07:23:51Z</time>
      </trkpt>
      <trkpt lat="49.36632" lon="-1.71697">
        <ele>54.4</ele>
        <time>2020-06-12T07:23:52Z</time>
      </trkpt>
      <trkpt lat="49.36634" lon="-1.71705">
        <ele>54.5</ele>
        <time>2020-06-12T07:23:53Z</time>
      </trkpt>
      <trkpt lat="49.36636" lon="-1.71711">
        <ele>54.6</ele>
        <time>2020-06-12T07:23:54Z</time>
      </trkpt>
      <trkpt lat="49.36638" lon="-1.71719">
        <ele>54.7</ele>
        <time>2020-06-12T07:23:55Z</time>
      </trkpt>
      <trkpt lat="49.3664" lon="-1.71726">
        <ele>54.8</ele>
        <time>2020-06-12T07:23:56Z</time>
      </trkpt>
      <trkpt lat="49.36641" lon="-1.71735">
        <ele>55</ele>
        <time>2020-06-12T07:23:57Z</time>
      </trkpt>
      <trkpt lat="49.36642" lon="-1.71743">
        <ele>55.1</ele>
        <time>2020-06-12T07:23:58Z</time>
      </trkpt>
      <trkpt lat="49.36644" lon="-1.71751">
        <ele>55.3</ele>
        <time>2020-06-12T07:23:59Z</time>
      </trkpt>
      <trkpt lat="49.36646" lon="-1.7176">
        <ele>55.4</ele>
        <time>2020-06-12T07:24:00Z</time>
      </trkpt>
      <trkpt lat="49.36648" lon="-1.71767">
        <ele>55.6</ele>
        <time>2020-06-12T07:24:01Z</time>
      </trkpt>
      <trkpt lat="49.3665" lon="-1.71775">
        <ele>55.7</ele>
        <time>2020-06-12T07:24:02Z</time>
      </trkpt>
      <trkpt lat="49.36652" lon="-1.71783">
        <ele>55.9</ele>
        <time>2020-06-12T07:24:03Z</time>
      </trkpt>
      <trkpt lat="49.36654" lon="-1.71792">
        <ele>56.1</ele>
        <time>2020-06-12T07:24:04Z</time>
      </trkpt>
      <trkpt lat="49.36655" lon="-1.71799">
        <ele>56.2</ele>
        <time>2020-06-12T07:24:05Z</time>
      </trkpt>
      <trkpt lat="49.36657" lon="-1.71807">
        <ele>56.4</ele>
        <time>2020-06-12T07:24:06Z</time>
      </trkpt>
      <trkpt lat="49.36659" lon="-1.71815">
        <ele>56.7</ele>
        <time>2020-06-12T07:24:07Z</time>
      </trkpt>
      <trkpt lat="49.36661" lon="-1.7182">
        <ele>56.8</ele>
        <time>2020-06-12T07:24:08Z</time>
      </trkpt>
      <trkpt lat="49.36663" lon="-1.71827">
        <ele>57.1</ele>
        <time>2020-06-12T07:24:09Z</time>
      </trkpt>
      <trkpt lat="49.36665" lon="-1.71834">
        <ele>57.3</ele>
        <time>2020-06-12T07:24:10Z</time>
      </trkpt>
      <trkpt lat="49.36666" lon="-1.71842">
        <ele>57.6</ele>
        <time>2020-06-12T07:24:11Z</time>
      </trkpt>
      <trkpt lat="49.36667" lon="-1.71849">
        <ele>57.8</ele>
        <time>2020-06-12T07:24:12Z</time>
      </trkpt>
      <trkpt lat="49.3667" lon="-1.71855">
        <ele>58.2</ele>
        <time>2020-06-12T07:24:13Z</time>
      </trkpt>
      <trkpt lat="49.36671" lon="-1.71862">
        <ele>58.4</ele>
        <time>2020-06-12T07:24:14Z</time>
      </trkpt>
      <trkpt lat="49.36673" lon="-1.71868">
        <ele>58.5</ele>
        <time>2020-06-12T07:24:15Z</time>
      </trkpt>
      <trkpt lat="49.36673" lon="-1.71875">
        <ele>58.6</ele>
        <time>2020-06-12T07:24:16Z</time>
      </trkpt>
      <trkpt lat="49.36673" lon="-1.71883">
        <ele>58.7</ele>
        <time>2020-06-12T07:24:17Z</time>
      </trkpt>
      <trkpt lat="49.36675" lon="-1.7189">
        <ele>58.9</ele>
        <time>2020-06-12T07:24:18Z</time>
      </trkpt>
      <trkpt lat="49.36677" lon="-1.71897">
        <ele>59</ele>
        <time>2020-06-12T07:24:19Z</time>
      </trkpt>
      <trkpt lat="49.36678" lon="-1.71904">
        <ele>59.1</ele>
        <time>2020-06-12T07:24:20Z</time>
      </trkpt>
      <trkpt lat="49.3668" lon="-1.71911">
        <ele>59.3</ele>
        <time>2020-06-12T07:24:21Z</time>
      </trkpt>
      <trkpt lat="49.36681" lon="-1.71918">
        <ele>59.4</ele>
        <time>2020-06-12T07:24:22Z</time>
      </trkpt>
      <trkpt lat="49.36683" lon="-1.71925">
        <ele>59.6</ele>
        <time>2020-06-12T07:24:23Z</time>
      </trkpt>
      <trkpt lat="49.36684" lon="-1.71934">
        <ele>59.8</ele>
        <time>2020-06-12T07:24:24Z</time>
      </trkpt>
      <trkpt lat="49.36685" lon="-1.71941">
        <ele>60</ele>
        <time>2020-06-12T07:24:25Z</time>
      </trkpt>
      <trkpt lat="49.36687" lon="-1.71948">
        <ele>60.1</ele>
        <time>2020-06-12T07:24:26Z</time>
      </trkpt>
      <trkpt lat="49.36688" lon="-1.71957">
        <ele>60.1</ele>
        <time>2020-06-12T07:24:27Z</time>
      </trkpt>
      <trkpt lat="49.36689" lon="-1.71965">
        <ele>60.1</ele>
        <time>2020-06-12T07:24:28Z</time>
      </trkpt>
      <trkpt lat="49.36691" lon="-1.71971">
        <ele>60</ele>
        <time>2020-06-12T07:24:29Z</time>
      </trkpt>
      <trkpt lat="49.36692" lon="-1.71978">
        <ele>60.1</ele>
        <time>2020-06-12T07:24:30Z</time>
      </trkpt>
      <trkpt lat="49.36694" lon="-1.71985">
        <ele>60.1</ele>
        <time>2020-06-12T07:24:31Z</time>
      </trkpt>
      <trkpt lat="49.36696" lon="-1.71992">
        <ele>60.1</ele>
        <time>2020-06-12T07:24:32Z</time>
      </trkpt>
      <trkpt lat="49.36699" lon="-1.71999">
        <ele>60.2</ele>
        <time>2020-06-12T07:24:33Z</time>
      </trkpt>
      <trkpt lat="49.36701" lon="-1.72006">
        <ele>60.3</ele>
        <time>2020-06-12T07:24:34Z</time>
      </trkpt>
      <trkpt lat="49.36703" lon="-1.72013">
        <ele>60.4</ele>
        <time>2020-06-12T07:24:35Z</time>
      </trkpt>
      <trkpt lat="49.36705" lon="-1.7202">
        <ele>60.6</ele>
        <time>2020-06-12T07:24:36Z</time>
      </trkpt>
      <trkpt lat="49.36707" lon="-1.72028">
        <ele>60.7</ele>
        <time>2020-06-12T07:24:37Z</time>
      </trkpt>
      <trkpt lat="49.36708" lon="-1.72035">
        <ele>60.9</ele>
        <time>2020-06-12T07:24:38Z</time>
      </trkpt>
      <trkpt lat="49.3671" lon="-1.72042">
        <ele>61</ele>
        <time>2020-06-12T07:24:39Z</time>
      </trkpt>
      <trkpt lat="49.36711" lon="-1.72049">
        <ele>61.1</ele>
        <time>2020-06-12T07:24:40Z</time>
      </trkpt>
      <trkpt lat="49.36713" lon="-1.72055">
        <ele>61.2</ele>
        <time>2020-06-12T07:24:41Z</time>
      </trkpt>
      <trkpt lat="49.36715" lon="-1.72062">
        <ele>61.3</ele>
        <time>2020-06-12T07:24:42Z</time>
      </trkpt>
      <trkpt lat="49.36717" lon="-1.72068">
        <ele>61.4</ele>
        <time>2020-06-12T07:24:43Z</time>
      </trkpt>
      <trkpt lat="49.36719" lon="-1.72075">
        <ele>61.4</ele>
        <time>2020-06-12T07:24:44Z</time>
      </trkpt>
      <trkpt lat="49.36721" lon="-1.72081">
        <ele>61.5</ele>
        <time>2020-06-12T07:24:45Z</time>
      </trkpt>
      <trkpt lat="49.36724" lon="-1.72086">
        <ele>61.6</ele>
        <time>2020-06-12T07:24:46Z</time>
      </trkpt>
      <trkpt lat="49.36727" lon="-1.72091">
        <ele>61.6</ele>
        <time>2020-06-12T07:24:47Z</time>
      </trkpt>
      <trkpt lat="49.36729" lon="-1.72099">
        <ele>61.7</ele>
        <time>2020-06-12T07:24:48Z</time>
      </trkpt>
      <trkpt lat="49.36732" lon="-1.72105">
        <ele>61.7</ele>
        <time>2020-06-12T07:24:49Z</time>
      </trkpt>
      <trkpt lat="49.36735" lon="-1.72112">
        <ele>61.8</ele>
        <time>2020-06-12T07:24:50Z</time>
      </trkpt>
      <trkpt lat="49.36737" lon="-1.72119">
        <ele>61.8</ele>
        <time>2020-06-12T07:24:51Z</time>
      </trkpt>
      <trkpt lat="49.3674" lon="-1.72125">
        <ele>61.9</ele>
        <time>2020-06-12T07:24:52Z</time>
      </trkpt>
      <trkpt lat="49.36743" lon="-1.72133">
        <ele>61.9</ele>
        <time>2020-06-12T07:24:53Z</time>
      </trkpt>
      <trkpt lat="49.36746" lon="-1.7214">
        <ele>62</ele>
        <time>2020-06-12T07:24:54Z</time>
      </trkpt>
      <trkpt lat="49.36748" lon="-1.72145">
        <ele>62</ele>
        <time>2020-06-12T07:24:55Z</time>
      </trkpt>
      <trkpt lat="49.36751" lon="-1.72153">
        <ele>62</ele>
        <time>2020-06-12T07:24:56Z</time>
      </trkpt>
      <trkpt lat="49.36754" lon="-1.72158">
        <ele>62.1</ele>
        <time>2020-06-12T07:24:57Z</time>
      </trkpt>
      <trkpt lat="49.36757" lon="-1.72166">
        <ele>62.1</ele>
        <time>2020-06-12T07:24:58Z</time>
      </trkpt>
      <trkpt lat="49.36759" lon="-1.72172">
        <ele>62.1</ele>
        <time>2020-06-12T07:24:59Z</time>
      </trkpt>
      <trkpt lat="49.36762" lon="-1.72178">
        <ele>62.2</ele>
        <time>2020-06-12T07:25:00Z</time>
      </trkpt>
      <trkpt lat="49.36766" lon="-1.72184">
        <ele>62.3</ele>
        <time>2020-06-12T07:25:01Z</time>
      </trkpt>
      <trkpt lat="49.36769" lon="-1.72189">
        <ele>62.3</ele>
        <time>2020-06-12T07:25:02Z</time>
      </trkpt>
      <trkpt lat="49.36772" lon="-1.72196">
        <ele>62.4</ele>
        <time>2020-06-12T07:25:03Z</time>
      </trkpt>
      <trkpt lat="49.36776" lon="-1.72203">
        <ele>62.4</ele>
        <time>2020-06-12T07:25:04Z</time>
      </trkpt>
      <trkpt lat="49.36779" lon="-1.72208">
        <ele>62.5</ele>
        <time>2020-06-12T07:25:05Z</time>
      </trkpt>
      <trkpt lat="49.36783" lon="-1.72214">
        <ele>62.6</ele>
        <time>2020-06-12T07:25:06Z</time>
      </trkpt>
      <trkpt lat="49.36787" lon="-1.72221">
        <ele>62.5</ele>
        <time>2020-06-12T07:25:07Z</time>
      </trkpt>
      <trkpt lat="49.3679" lon="-1.72228">
        <ele>62.4</ele>
        <time>2020-06-12T07:25:08Z</time>
      </trkpt>
      <trkpt lat="49.36794" lon="-1.72235">
        <ele>62.3</ele>
        <time>2020-06-12T07:25:09Z</time>
      </trkpt>
      <trkpt lat="49.36798" lon="-1.72241">
        <ele>62.2</ele>
        <time>2020-06-12T07:25:10Z</time>
      </trkpt>
      <trkpt lat="49.36802" lon="-1.7225">
        <ele>62.1</ele>
        <time>2020-06-12T07:25:11Z</time>
      </trkpt>
      <trkpt lat="49.36806" lon="-1.72256">
        <ele>62.1</ele>
        <time>2020-06-12T07:25:12Z</time>
      </trkpt>
      <trkpt lat="49.36811" lon="-1.72263">
        <ele>62.1</ele>
        <time>2020-06-12T07:25:13Z</time>
      </trkpt>
      <trkpt lat="49.36815" lon="-1.72269">
        <ele>62.2</ele>
        <time>2020-06-12T07:25:14Z</time>
      </trkpt>
      <trkpt lat="49.36819" lon="-1.72275">
        <ele>62.2</ele>
        <time>2020-06-12T07:25:15Z</time>
      </trkpt>
      <trkpt lat="49.36823" lon="-1.72282">
        <ele>62.3</ele>
        <time>2020-06-12T07:25:16Z</time>
      </trkpt>
      <trkpt lat="49.36827" lon="-1.72289">
        <ele>62.3</ele>
        <time>2020-06-12T07:25:17Z</time>
      </trkpt>
      <trkpt lat="49.36831" lon="-1.72295">
        <ele>62.4</ele>
        <time>2020-06-12T07:25:18Z</time>
      </trkpt>
      <trkpt lat="49.36835" lon="-1.723">
        <ele>62.4</ele>
        <time>2020-06-12T07:25:19Z</time>
      </trkpt>
      <trkpt lat="49.3684" lon="-1.72307">
        <ele>62.5</ele>
        <time>2020-06-12T07:25:20Z</time>
      </trkpt>
      <trkpt lat="49.36844" lon="-1.72313">
        <ele>62.6</ele>
        <time>2020-06-12T07:25:21Z</time>
      </trkpt>
      <trkpt lat="49.36848" lon="-1.7232">
        <ele>62.7</ele>
        <time>2020-06-12T07:25:22Z</time>
      </trkpt>
      <trkpt lat="49.36853" lon="-1.72327">
        <ele>62.8</ele>
        <time>2020-06-12T07:25:23Z</time>
      </trkpt>
      <trkpt lat="49.36857" lon="-1.72334">
        <ele>62.5</ele>
        <time>2020-06-12T07:25:24Z</time>
      </trkpt>
      <trkpt lat="49.36861" lon="-1.72342">
        <ele>62.4</ele>
        <time>2020-06-12T07:25:25Z</time>
      </trkpt>
      <trkpt lat="49.36865" lon="-1.72347">
        <ele>62.3</ele>
        <time>2020-06-12T07:25:26Z</time>
      </trkpt>
      <trkpt lat="49.36869" lon="-1.72354">
        <ele>62.2</ele>
        <time>2020-06-12T07:25:27Z</time>
      </trkpt>
      <trkpt lat="49.36874" lon="-1.72361">
        <ele>62.2</ele>
        <time>2020-06-12T07:25:28Z</time>
      </trkpt>
      <trkpt lat="49.36878" lon="-1.72367">
        <ele>62.2</ele>
        <time>2020-06-12T07:25:29Z</time>
      </trkpt>
      <trkpt lat="49.36882" lon="-1.72374">
        <ele>62.2</ele>
        <time>2020-06-12T07:25:30Z</time>
      </trkpt>
      <trkpt lat="49.36887" lon="-1.72381">
        <ele>62.2</ele>
        <time>2020-06-12T07:25:31Z</time>
      </trkpt>
      <trkpt lat="49.36892" lon="-1.72389">
        <ele>62.1</ele>
        <time>2020-06-12T07:25:32Z</time>
      </trkpt>
      <trkpt lat="49.36896" lon="-1.72395">
        <ele>62.1</ele>
        <time>2020-06-12T07:25:33Z</time>
      </trkpt>
      <trkpt lat="49.369" lon="-1.72401">
        <ele>62.1</ele>
        <time>2020-06-12T07:25:34Z</time>
      </trkpt>
      <trkpt lat="49.36903" lon="-1.72406">
        <ele>62.1</ele>
        <time>2020-06-12T07:25:35Z</time>
      </trkpt>
      <trkpt lat="49.36907" lon="-1.72412">
        <ele>62.1</ele>
        <time>2020-06-12T07:25:36Z</time>
      </trkpt>
      <trkpt lat="49.36912" lon="-1.72418">
        <ele>62</ele>
        <time>2020-06-12T07:25:37Z</time>
      </trkpt>
      <trkpt lat="49.36916" lon="-1.72425">
        <ele>62</ele>
        <time>2020-06-12T07:25:38Z</time>
      </trkpt>
      <trkpt lat="49.3692" lon="-1.72432">
        <ele>62</ele>
        <time>2020-06-12T07:25:39Z</time>
      </trkpt>
      <trkpt lat="49.36925" lon="-1.72439">
        <ele>62</ele>
        <time>2020-06-12T07:25:40Z</time>
      </trkpt>
      <trkpt lat="49.36929" lon="-1.72446">
        <ele>62</ele>
        <time>2020-06-12T07:25:41Z</time>
      </trkpt>
      <trkpt lat="49.36934" lon="-1.72453">
        <ele>62</ele>
        <time>2020-06-12T07:25:42Z</time>
      </trkpt>
      <trkpt lat="49.36938" lon="-1.7246">
        <ele>62</ele>
        <time>2020-06-12T07:25:43Z</time>
      </trkpt>
      <trkpt lat="49.36944" lon="-1.72467">
        <ele>62</ele>
        <time>2020-06-12T07:25:44Z</time>
      </trkpt>
      <trkpt lat="49.36948" lon="-1.72474">
        <ele>62</ele>
        <time>2020-06-12T07:25:45Z</time>
      </trkpt>
      <trkpt lat="49.36954" lon="-1.7248">
        <ele>62</ele>
        <time>2020-06-12T07:25:46Z</time>
      </trkpt>
      <trkpt lat="49.36959" lon="-1.72487">
        <ele>62</ele>
        <time>2020-06-12T07:25:47Z</time>
      </trkpt>
      <trkpt lat="49.36964" lon="-1.72493">
        <ele>62</ele>
        <time>2020-06-12T07:25:48Z</time>
      </trkpt>
      <trkpt lat="49.36968" lon="-1.72499">
        <ele>62</ele>
        <time>2020-06-12T07:25:49Z</time>
      </trkpt>
      <trkpt lat="49.36972" lon="-1.72505">
        <ele>62</ele>
        <time>2020-06-12T07:25:50Z</time>
      </trkpt>
      <trkpt lat="49.36976" lon="-1.7251">
        <ele>62</ele>
        <time>2020-06-12T07:25:51Z</time>
      </trkpt>
      <trkpt lat="49.36981" lon="-1.72516">
        <ele>62</ele>
        <time>2020-06-12T07:25:52Z</time>
      </trkpt>
      <trkpt lat="49.36985" lon="-1.72524">
        <ele>62</ele>
        <time>2020-06-12T07:25:53Z</time>
      </trkpt>
      <trkpt lat="49.36989" lon="-1.72532">
        <ele>62</ele>
        <time>2020-06-12T07:25:54Z</time>
      </trkpt>
      <trkpt lat="49.36992" lon="-1.72538">
        <ele>61.9</ele>
        <time>2020-06-12T07:25:55Z</time>
      </trkpt>
      <trkpt lat="49.36996" lon="-1.72546">
        <ele>61.9</ele>
        <time>2020-06-12T07:25:56Z</time>
      </trkpt>
      <trkpt lat="49.37" lon="-1.72555">
        <ele>61.9</ele>
        <time>2020-06-12T07:25:57Z</time>
      </trkpt>
      <trkpt lat="49.37004" lon="-1.72563">
        <ele>61.8</ele>
        <time>2020-06-12T07:25:58Z</time>
      </trkpt>
      <trkpt lat="49.37008" lon="-1.72571">
        <ele>61.8</ele>
        <time>2020-06-12T07:25:59Z</time>
      </trkpt>
      <trkpt lat="49.37012" lon="-1.7258">
        <ele>61.7</ele>
        <time>2020-06-12T07:26:00Z</time>
      </trkpt>
      <trkpt lat="49.37016" lon="-1.72588">
        <ele>61.7</ele>
        <time>2020-06-12T07:26:01Z</time>
      </trkpt>
      <trkpt lat="49.37019" lon="-1.72595">
        <ele>61.7</ele>
        <time>2020-06-12T07:26:02Z</time>
      </trkpt>
      <trkpt lat="49.37023" lon="-1.72602">
        <ele>61.6</ele>
        <time>2020-06-12T07:26:03Z</time>
      </trkpt>
      <trkpt lat="49.37027" lon="-1.7261">
        <ele>61.6</ele>
        <time>2020-06-12T07:26:04Z</time>
      </trkpt>
      <trkpt lat="49.37031" lon="-1.72619">
        <ele>61.6</ele>
        <time>2020-06-12T07:26:05Z</time>
      </trkpt>
      <trkpt lat="49.37035" lon="-1.72627">
        <ele>61.6</ele>
        <time>2020-06-12T07:26:06Z</time>
      </trkpt>
      <trkpt lat="49.37039" lon="-1.72635">
        <ele>61.6</ele>
        <time>2020-06-12T07:26:07Z</time>
      </trkpt>
      <trkpt lat="49.37043" lon="-1.72643">
        <ele>61.6</ele>
        <time>2020-06-12T07:26:08Z</time>
      </trkpt>
      <trkpt lat="49.37046" lon="-1.72651">
        <ele>61.6</ele>
        <time>2020-06-12T07:26:09Z</time>
      </trkpt>
      <trkpt lat="49.3705" lon="-1.72659">
        <ele>61.6</ele>
        <time>2020-06-12T07:26:10Z</time>
      </trkpt>
      <trkpt lat="49.37053" lon="-1.72666">
        <ele>61.6</ele>
        <time>2020-06-12T07:26:11Z</time>
      </trkpt>
      <trkpt lat="49.37057" lon="-1.72675">
        <ele>61.7</ele>
        <time>2020-06-12T07:26:12Z</time>
      </trkpt>
      <trkpt lat="49.37061" lon="-1.72682">
        <ele>61.7</ele>
        <time>2020-06-12T07:26:13Z</time>
      </trkpt>
      <trkpt lat="49.37065" lon="-1.72689">
        <ele>61.7</ele>
        <time>2020-06-12T07:26:14Z</time>
      </trkpt>
      <trkpt lat="49.37068" lon="-1.72698">
        <ele>61.6</ele>
        <time>2020-06-12T07:26:15Z</time>
      </trkpt>
      <trkpt lat="49.37073" lon="-1.72708">
        <ele>61.6</ele>
        <time>2020-06-12T07:26:16Z</time>
      </trkpt>
      <trkpt lat="49.37076" lon="-1.72717">
        <ele>61.5</ele>
        <time>2020-06-12T07:26:17Z</time>
      </trkpt>
      <trkpt lat="49.3708" lon="-1.72724">
        <ele>61.5</ele>
        <time>2020-06-12T07:26:18Z</time>
      </trkpt>
      <trkpt lat="49.37084" lon="-1.72733">
        <ele>61.4</ele>
        <time>2020-06-12T07:26:19Z</time>
      </trkpt>
      <trkpt lat="49.37087" lon="-1.72741">
        <ele>61.4</ele>
        <time>2020-06-12T07:26:20Z</time>
      </trkpt>
      <trkpt lat="49.37092" lon="-1.72749">
        <ele>61.4</ele>
        <time>2020-06-12T07:26:21Z</time>
      </trkpt>
      <trkpt lat="49.37097" lon="-1.72759">
        <ele>61.3</ele>
        <time>2020-06-12T07:26:22Z</time>
      </trkpt>
      <trkpt lat="49.37101" lon="-1.72768">
        <ele>61.3</ele>
        <time>2020-06-12T07:26:23Z</time>
      </trkpt>
      <trkpt lat="49.37105" lon="-1.72776">
        <ele>61.3</ele>
        <time>2020-06-12T07:26:24Z</time>
      </trkpt>
      <trkpt lat="49.37109" lon="-1.72785">
        <ele>61.4</ele>
        <time>2020-06-12T07:26:25Z</time>
      </trkpt>
      <trkpt lat="49.37113" lon="-1.72793">
        <ele>61.4</ele>
        <time>2020-06-12T07:26:26Z</time>
      </trkpt>
      <trkpt lat="49.37117" lon="-1.72801">
        <ele>61.4</ele>
        <time>2020-06-12T07:26:27Z</time>
      </trkpt>
      <trkpt lat="49.3712" lon="-1.72809">
        <ele>61.4</ele>
        <time>2020-06-12T07:26:28Z</time>
      </trkpt>
      <trkpt lat="49.37124" lon="-1.72818">
        <ele>61.5</ele>
        <time>2020-06-12T07:26:29Z</time>
      </trkpt>
      <trkpt lat="49.37129" lon="-1.72827">
        <ele>61.6</ele>
        <time>2020-06-12T07:26:30Z</time>
      </trkpt>
      <trkpt lat="49.37133" lon="-1.72836">
        <ele>61.7</ele>
        <time>2020-06-12T07:26:31Z</time>
      </trkpt>
      <trkpt lat="49.37136" lon="-1.72845">
        <ele>61.8</ele>
        <time>2020-06-12T07:26:32Z</time>
      </trkpt>
      <trkpt lat="49.3714" lon="-1.72852">
        <ele>62</ele>
        <time>2020-06-12T07:26:33Z</time>
      </trkpt>
      <trkpt lat="49.37143" lon="-1.72859">
        <ele>62.1</ele>
        <time>2020-06-12T07:26:34Z</time>
      </trkpt>
      <trkpt lat="49.37147" lon="-1.72866">
        <ele>62.2</ele>
        <time>2020-06-12T07:26:35Z</time>
      </trkpt>
      <trkpt lat="49.37151" lon="-1.72874">
        <ele>61.9</ele>
        <time>2020-06-12T07:26:36Z</time>
      </trkpt>
      <trkpt lat="49.37155" lon="-1.72881">
        <ele>61.8</ele>
        <time>2020-06-12T07:26:37Z</time>
      </trkpt>
      <trkpt lat="49.3716" lon="-1.72889">
        <ele>61.7</ele>
        <time>2020-06-12T07:26:38Z</time>
      </trkpt>
      <trkpt lat="49.37163" lon="-1.72897">
        <ele>61.7</ele>
        <time>2020-06-12T07:26:39Z</time>
      </trkpt>
      <trkpt lat="49.37168" lon="-1.72906">
        <ele>61.7</ele>
        <time>2020-06-12T07:26:40Z</time>
      </trkpt>
      <trkpt lat="49.37172" lon="-1.72915">
        <ele>61.7</ele>
        <time>2020-06-12T07:26:41Z</time>
      </trkpt>
      <trkpt lat="49.37177" lon="-1.72923">
        <ele>61.7</ele>
        <time>2020-06-12T07:26:42Z</time>
      </trkpt>
      <trkpt lat="49.3718" lon="-1.7293">
        <ele>61.8</ele>
        <time>2020-06-12T07:26:43Z</time>
      </trkpt>
      <trkpt lat="49.37185" lon="-1.72938">
        <ele>61.8</ele>
        <time>2020-06-12T07:26:44Z</time>
      </trkpt>
      <trkpt lat="49.37189" lon="-1.72946">
        <ele>61.8</ele>
        <time>2020-06-12T07:26:45Z</time>
      </trkpt>
      <trkpt lat="49.37193" lon="-1.72954">
        <ele>61.9</ele>
        <time>2020-06-12T07:26:46Z</time>
      </trkpt>
      <trkpt lat="49.37198" lon="-1.72961">
        <ele>61.9</ele>
        <time>2020-06-12T07:26:47Z</time>
      </trkpt>
      <trkpt lat="49.37202" lon="-1.72969">
        <ele>61.9</ele>
        <time>2020-06-12T07:26:48Z</time>
      </trkpt>
      <trkpt lat="49.37206" lon="-1.72976">
        <ele>62</ele>
        <time>2020-06-12T07:26:49Z</time>
      </trkpt>
      <trkpt lat="49.37211" lon="-1.72983">
        <ele>62</ele>
        <time>2020-06-12T07:26:50Z</time>
      </trkpt>
      <trkpt lat="49.37215" lon="-1.72991">
        <ele>62.1</ele>
        <time>2020-06-12T07:26:51Z</time>
      </trkpt>
      <trkpt lat="49.3722" lon="-1.72998">
        <ele>62.1</ele>
        <time>2020-06-12T07:26:52Z</time>
      </trkpt>
      <trkpt lat="49.37225" lon="-1.73005">
        <ele>62.1</ele>
        <time>2020-06-12T07:26:53Z</time>
      </trkpt>
      <trkpt lat="49.3723" lon="-1.73013">
        <ele>62.1</ele>
        <time>2020-06-12T07:26:54Z</time>
      </trkpt>
      <trkpt lat="49.37234" lon="-1.7302">
        <ele>62.1</ele>
        <time>2020-06-12T07:26:55Z</time>
      </trkpt>
      <trkpt lat="49.37239" lon="-1.73027">
        <ele>62.1</ele>
        <time>2020-06-12T07:26:56Z</time>
      </trkpt>
      <trkpt lat="49.37244" lon="-1.73034">
        <ele>62.1</ele>
        <time>2020-06-12T07:26:57Z</time>
      </trkpt>
      <trkpt lat="49.37249" lon="-1.73042">
        <ele>62.1</ele>
        <time>2020-06-12T07:26:58Z</time>
      </trkpt>
      <trkpt lat="49.37254" lon="-1.73049">
        <ele>62</ele>
        <time>2020-06-12T07:26:59Z</time>
      </trkpt>
      <trkpt lat="49.37259" lon="-1.73056">
        <ele>62</ele>
        <time>2020-06-12T07:27:00Z</time>
      </trkpt>
      <trkpt lat="49.37264" lon="-1.73064">
        <ele>62</ele>
        <time>2020-06-12T07:27:01Z</time>
      </trkpt>
      <trkpt lat="49.37269" lon="-1.73071">
        <ele>62</ele>
        <time>2020-06-12T07:27:02Z</time>
      </trkpt>
      <trkpt lat="49.37273" lon="-1.73078">
        <ele>62.1</ele>
        <time>2020-06-12T07:27:03Z</time>
      </trkpt>
      <trkpt lat="49.37278" lon="-1.73085">
        <ele>62.1</ele>
        <time>2020-06-12T07:27:04Z</time>
      </trkpt>
      <trkpt lat="49.37283" lon="-1.73092">
        <ele>62.1</ele>
        <time>2020-06-12T07:27:05Z</time>
      </trkpt>
      <trkpt lat="49.37287" lon="-1.73098">
        <ele>62.1</ele>
        <time>2020-06-12T07:27:06Z</time>
      </trkpt>
      <trkpt lat="49.37292" lon="-1.73105">
        <ele>62.1</ele>
        <time>2020-06-12T07:27:07Z</time>
      </trkpt>
      <trkpt lat="49.37296" lon="-1.73112">
        <ele>62.1</ele>
        <time>2020-06-12T07:27:08Z</time>
      </trkpt>
      <trkpt lat="49.37301" lon="-1.73119">
        <ele>62.1</ele>
        <time>2020-06-12T07:27:09Z</time>
      </trkpt>
      <trkpt lat="49.37305" lon="-1.73126">
        <ele>62.1</ele>
        <time>2020-06-12T07:27:10Z</time>
      </trkpt>
      <trkpt lat="49.37309" lon="-1.73134">
        <ele>62.1</ele>
        <time>2020-06-12T07:27:11Z</time>
      </trkpt>
      <trkpt lat="49.37314" lon="-1.7314">
        <ele>62.2</ele>
        <time>2020-06-12T07:27:12Z</time>
      </trkpt>
      <trkpt lat="49.37318" lon="-1.73147">
        <ele>62.2</ele>
        <time>2020-06-12T07:27:13Z</time>
      </trkpt>
      <trkpt lat="49.37323" lon="-1.73154">
        <ele>62.2</ele>
        <time>2020-06-12T07:27:14Z</time>
      </trkpt>
      <trkpt lat="49.37328" lon="-1.73162">
        <ele>62.3</ele>
        <time>2020-06-12T07:27:15Z</time>
      </trkpt>
      <trkpt lat="49.37332" lon="-1.7317">
        <ele>62.4</ele>
        <time>2020-06-12T07:27:16Z</time>
      </trkpt>
      <trkpt lat="49.37337" lon="-1.73176">
        <ele>62.3</ele>
        <time>2020-06-12T07:27:17Z</time>
      </trkpt>
      <trkpt lat="49.37342" lon="-1.73183">
        <ele>62.2</ele>
        <time>2020-06-12T07:27:18Z</time>
      </trkpt>
      <trkpt lat="49.37347" lon="-1.7319">
        <ele>62</ele>
        <time>2020-06-12T07:27:19Z</time>
      </trkpt>
      <trkpt lat="49.37352" lon="-1.73197">
        <ele>61.8</ele>
        <time>2020-06-12T07:27:20Z</time>
      </trkpt>
      <trkpt lat="49.37357" lon="-1.73204">
        <ele>61.6</ele>
        <time>2020-06-12T07:27:21Z</time>
      </trkpt>
      <trkpt lat="49.37363" lon="-1.73212">
        <ele>61.5</ele>
        <time>2020-06-12T07:27:22Z</time>
      </trkpt>
      <trkpt lat="49.37368" lon="-1.7322">
        <ele>61.4</ele>
        <time>2020-06-12T07:27:23Z</time>
      </trkpt>
      <trkpt lat="49.37373" lon="-1.73227">
        <ele>61.3</ele>
        <time>2020-06-12T07:27:24Z</time>
      </trkpt>
      <trkpt lat="49.37378" lon="-1.73234">
        <ele>61.2</ele>
        <time>2020-06-12T07:27:25Z</time>
      </trkpt>
      <trkpt lat="49.37384" lon="-1.73242">
        <ele>61.1</ele>
        <time>2020-06-12T07:27:26Z</time>
      </trkpt>
      <trkpt lat="49.37389" lon="-1.73248">
        <ele>61</ele>
        <time>2020-06-12T07:27:27Z</time>
      </trkpt>
      <trkpt lat="49.37394" lon="-1.73254">
        <ele>60.9</ele>
        <time>2020-06-12T07:27:28Z</time>
      </trkpt>
      <trkpt lat="49.37399" lon="-1.73262">
        <ele>60.8</ele>
        <time>2020-06-12T07:27:29Z</time>
      </trkpt>
      <trkpt lat="49.37403" lon="-1.73271">
        <ele>60.7</ele>
        <time>2020-06-12T07:27:30Z</time>
      </trkpt>
      <trkpt lat="49.37408" lon="-1.73279">
        <ele>60.5</ele>
        <time>2020-06-12T07:27:31Z</time>
      </trkpt>
      <trkpt lat="49.37414" lon="-1.73286">
        <ele>60.4</ele>
        <time>2020-06-12T07:27:32Z</time>
      </trkpt>
      <trkpt lat="49.37419" lon="-1.73294">
        <ele>60.3</ele>
        <time>2020-06-12T07:27:33Z</time>
      </trkpt>
      <trkpt lat="49.37424" lon="-1.73302">
        <ele>60.1</ele>
        <time>2020-06-12T07:27:34Z</time>
      </trkpt>
      <trkpt lat="49.37429" lon="-1.73311">
        <ele>60</ele>
        <time>2020-06-12T07:27:35Z</time>
      </trkpt>
      <trkpt lat="49.37434" lon="-1.73319">
        <ele>59.8</ele>
        <time>2020-06-12T07:27:36Z</time>
      </trkpt>
      <trkpt lat="49.37438" lon="-1.73327">
        <ele>59.6</ele>
        <time>2020-06-12T07:27:37Z</time>
      </trkpt>
      <trkpt lat="49.37443" lon="-1.73335">
        <ele>59.5</ele>
        <time>2020-06-12T07:27:38Z</time>
      </trkpt>
      <trkpt lat="49.37449" lon="-1.73343">
        <ele>59.4</ele>
        <time>2020-06-12T07:27:39Z</time>
      </trkpt>
      <trkpt lat="49.37453" lon="-1.73352">
        <ele>59.2</ele>
        <time>2020-06-12T07:27:40Z</time>
      </trkpt>
      <trkpt lat="49.3746" lon="-1.73359">
        <ele>59.1</ele>
        <time>2020-06-12T07:27:41Z</time>
      </trkpt>
      <trkpt lat="49.37466" lon="-1.73367">
        <ele>59</ele>
        <time>2020-06-12T07:27:42Z</time>
      </trkpt>
      <trkpt lat="49.37471" lon="-1.73375">
        <ele>59</ele>
        <time>2020-06-12T07:27:43Z</time>
      </trkpt>
      <trkpt lat="49.37476" lon="-1.73383">
        <ele>58.9</ele>
        <time>2020-06-12T07:27:44Z</time>
      </trkpt>
      <trkpt lat="49.37481" lon="-1.7339">
        <ele>58.8</ele>
        <time>2020-06-12T07:27:45Z</time>
      </trkpt>
      <trkpt lat="49.37487" lon="-1.73398">
        <ele>58.7</ele>
        <time>2020-06-12T07:27:46Z</time>
      </trkpt>
      <trkpt lat="49.37492" lon="-1.73406">
        <ele>58.6</ele>
        <time>2020-06-12T07:27:47Z</time>
      </trkpt>
      <trkpt lat="49.37496" lon="-1.73414">
        <ele>58.5</ele>
        <time>2020-06-12T07:27:48Z</time>
      </trkpt>
      <trkpt lat="49.37501" lon="-1.73422">
        <ele>58.4</ele>
        <time>2020-06-12T07:27:49Z</time>
      </trkpt>
      <trkpt lat="49.37506" lon="-1.73429">
        <ele>58.3</ele>
        <time>2020-06-12T07:27:50Z</time>
      </trkpt>
      <trkpt lat="49.37511" lon="-1.73438">
        <ele>58.2</ele>
        <time>2020-06-12T07:27:51Z</time>
      </trkpt>
      <trkpt lat="49.37516" lon="-1.73446">
        <ele>58.1</ele>
        <time>2020-06-12T07:27:52Z</time>
      </trkpt>
      <trkpt lat="49.37521" lon="-1.73455">
        <ele>58</ele>
        <time>2020-06-12T07:27:53Z</time>
      </trkpt>
      <trkpt lat="49.37526" lon="-1.73462">
        <ele>57.8</ele>
        <time>2020-06-12T07:27:54Z</time>
      </trkpt>
      <trkpt lat="49.37532" lon="-1.73469">
        <ele>57.7</ele>
        <time>2020-06-12T07:27:55Z</time>
      </trkpt>
      <trkpt lat="49.37537" lon="-1.73477">
        <ele>57.6</ele>
        <time>2020-06-12T07:27:56Z</time>
      </trkpt>
      <trkpt lat="49.37542" lon="-1.73486">
        <ele>57.6</ele>
        <time>2020-06-12T07:27:57Z</time>
      </trkpt>
      <trkpt lat="49.37547" lon="-1.73494">
        <ele>57.5</ele>
        <time>2020-06-12T07:27:58Z</time>
      </trkpt>
      <trkpt lat="49.37552" lon="-1.73503">
        <ele>57.3</ele>
        <time>2020-06-12T07:27:59Z</time>
      </trkpt>
      <trkpt lat="49.37557" lon="-1.73511">
        <ele>57.2</ele>
        <time>2020-06-12T07:28:00Z</time>
      </trkpt>
      <trkpt lat="49.37561" lon="-1.73519">
        <ele>57.1</ele>
        <time>2020-06-12T07:28:01Z</time>
      </trkpt>
      <trkpt lat="49.37565" lon="-1.73528">
        <ele>57</ele>
        <time>2020-06-12T07:28:02Z</time>
      </trkpt>
      <trkpt lat="49.3757" lon="-1.73537">
        <ele>56.8</ele>
        <time>2020-06-12T07:28:03Z</time>
      </trkpt>
      <trkpt lat="49.37575" lon="-1.73546">
        <ele>56.7</ele>
        <time>2020-06-12T07:28:04Z</time>
      </trkpt>
      <trkpt lat="49.3758" lon="-1.73554">
        <ele>56.6</ele>
        <time>2020-06-12T07:28:05Z</time>
      </trkpt>
      <trkpt lat="49.37586" lon="-1.73563">
        <ele>56.6</ele>
        <time>2020-06-12T07:28:06Z</time>
      </trkpt>
      <trkpt lat="49.3759" lon="-1.73571">
        <ele>56.5</ele>
        <time>2020-06-12T07:28:07Z</time>
      </trkpt>
      <trkpt lat="49.37595" lon="-1.73581">
        <ele>56.3</ele>
        <time>2020-06-12T07:28:08Z</time>
      </trkpt>
      <trkpt lat="49.37599" lon="-1.7359">
        <ele>56.2</ele>
        <time>2020-06-12T07:28:09Z</time>
      </trkpt>
      <trkpt lat="49.37604" lon="-1.73598">
        <ele>56.1</ele>
        <time>2020-06-12T07:28:10Z</time>
      </trkpt>
      <trkpt lat="49.37608" lon="-1.73608">
        <ele>56.1</ele>
        <time>2020-06-12T07:28:11Z</time>
      </trkpt>
      <trkpt lat="49.37612" lon="-1.73617">
        <ele>56</ele>
        <time>2020-06-12T07:28:12Z</time>
      </trkpt>
      <trkpt lat="49.37618" lon="-1.73625">
        <ele>56</ele>
        <time>2020-06-12T07:28:13Z</time>
      </trkpt>
      <trkpt lat="49.37623" lon="-1.73633">
        <ele>55.9</ele>
        <time>2020-06-12T07:28:14Z</time>
      </trkpt>
      <trkpt lat="49.37627" lon="-1.73643">
        <ele>55.8</ele>
        <time>2020-06-12T07:28:15Z</time>
      </trkpt>
      <trkpt lat="49.37632" lon="-1.73652">
        <ele>55.7</ele>
        <time>2020-06-12T07:28:16Z</time>
      </trkpt>
      <trkpt lat="49.37636" lon="-1.73661">
        <ele>55.6</ele>
        <time>2020-06-12T07:28:17Z</time>
      </trkpt>
      <trkpt lat="49.37641" lon="-1.73669">
        <ele>55.5</ele>
        <time>2020-06-12T07:28:18Z</time>
      </trkpt>
      <trkpt lat="49.37645" lon="-1.73678">
        <ele>55.3</ele>
        <time>2020-06-12T07:28:19Z</time>
      </trkpt>
      <trkpt lat="49.37649" lon="-1.73687">
        <ele>55.2</ele>
        <time>2020-06-12T07:28:20Z</time>
      </trkpt>
      <trkpt lat="49.37654" lon="-1.73697">
        <ele>55.1</ele>
        <time>2020-06-12T07:28:21Z</time>
      </trkpt>
      <trkpt lat="49.37658" lon="-1.73705">
        <ele>55</ele>
        <time>2020-06-12T07:28:22Z</time>
      </trkpt>
      <trkpt lat="49.37662" lon="-1.73713">
        <ele>54.9</ele>
        <time>2020-06-12T07:28:23Z</time>
      </trkpt>
      <trkpt lat="49.37666" lon="-1.73721">
        <ele>54.8</ele>
        <time>2020-06-12T07:28:24Z</time>
      </trkpt>
      <trkpt lat="49.37669" lon="-1.7373">
        <ele>54.7</ele>
        <time>2020-06-12T07:28:25Z</time>
      </trkpt>
      <trkpt lat="49.37673" lon="-1.73738">
        <ele>54.7</ele>
        <time>2020-06-12T07:28:26Z</time>
      </trkpt>
      <trkpt lat="49.37678" lon="-1.73747">
        <ele>54.6</ele>
        <time>2020-06-12T07:28:27Z</time>
      </trkpt>
      <trkpt lat="49.37681" lon="-1.73754">
        <ele>54.5</ele>
        <time>2020-06-12T07:28:28Z</time>
      </trkpt>
      <trkpt lat="49.37683" lon="-1.73762">
        <ele>54.5</ele>
        <time>2020-06-12T07:28:29Z</time>
      </trkpt>
      <trkpt lat="49.37686" lon="-1.73771">
        <ele>54.4</ele>
        <time>2020-06-12T07:28:30Z</time>
      </trkpt>
      <trkpt lat="49.37689" lon="-1.73778">
        <ele>54.3</ele>
        <time>2020-06-12T07:28:31Z</time>
      </trkpt>
      <trkpt lat="49.37692" lon="-1.73785">
        <ele>54.2</ele>
        <time>2020-06-12T07:28:32Z</time>
      </trkpt>
      <trkpt lat="49.37695" lon="-1.73793">
        <ele>54.2</ele>
        <time>2020-06-12T07:28:33Z</time>
      </trkpt>
      <trkpt lat="49.37699" lon="-1.73802">
        <ele>54.1</ele>
        <time>2020-06-12T07:28:34Z</time>
      </trkpt>
      <trkpt lat="49.37701" lon="-1.7381">
        <ele>54</ele>
        <time>2020-06-12T07:28:35Z</time>
      </trkpt>
      <trkpt lat="49.37704" lon="-1.73817">
        <ele>53.9</ele>
        <time>2020-06-12T07:28:36Z</time>
      </trkpt>
      <trkpt lat="49.37707" lon="-1.73825">
        <ele>53.9</ele>
        <time>2020-06-12T07:28:37Z</time>
      </trkpt>
      <trkpt lat="49.3771" lon="-1.73832">
        <ele>53.8</ele>
        <time>2020-06-12T07:28:38Z</time>
      </trkpt>
      <trkpt lat="49.37712" lon="-1.7384">
        <ele>53.7</ele>
        <time>2020-06-12T07:28:39Z</time>
      </trkpt>
      <trkpt lat="49.37715" lon="-1.73847">
        <ele>53.6</ele>
        <time>2020-06-12T07:28:40Z</time>
      </trkpt>
      <trkpt lat="49.37718" lon="-1.73855">
        <ele>53.6</ele>
        <time>2020-06-12T07:28:41Z</time>
      </trkpt>
      <trkpt lat="49.37721" lon="-1.73862">
        <ele>53.5</ele>
        <time>2020-06-12T07:28:42Z</time>
      </trkpt>
      <trkpt lat="49.37723" lon="-1.7387">
        <ele>53.4</ele>
        <time>2020-06-12T07:28:43Z</time>
      </trkpt>
      <trkpt lat="49.37725" lon="-1.73877">
        <ele>53.4</ele>
        <time>2020-06-12T07:28:44Z</time>
      </trkpt>
      <trkpt lat="49.37727" lon="-1.73886">
        <ele>53.3</ele>
        <time>2020-06-12T07:28:45Z</time>
      </trkpt>
      <trkpt lat="49.37729" lon="-1.73895">
        <ele>53.2</ele>
        <time>2020-06-12T07:28:46Z</time>
      </trkpt>
      <trkpt lat="49.37732" lon="-1.73904">
        <ele>53.2</ele>
        <time>2020-06-12T07:28:47Z</time>
      </trkpt>
      <trkpt lat="49.37736" lon="-1.73913">
        <ele>53.1</ele>
        <time>2020-06-12T07:28:48Z</time>
      </trkpt>
      <trkpt lat="49.37739" lon="-1.73922">
        <ele>53.1</ele>
        <time>2020-06-12T07:28:49Z</time>
      </trkpt>
      <trkpt lat="49.37743" lon="-1.7393">
        <ele>53.1</ele>
        <time>2020-06-12T07:28:50Z</time>
      </trkpt>
      <trkpt lat="49.37746" lon="-1.73939">
        <ele>53.1</ele>
        <time>2020-06-12T07:28:51Z</time>
      </trkpt>
      <trkpt lat="49.37748" lon="-1.73948">
        <ele>53</ele>
        <time>2020-06-12T07:28:52Z</time>
      </trkpt>
      <trkpt lat="49.37751" lon="-1.73958">
        <ele>53</ele>
        <time>2020-06-12T07:28:53Z</time>
      </trkpt>
      <trkpt lat="49.37754" lon="-1.73967">
        <ele>52.9</ele>
        <time>2020-06-12T07:28:54Z</time>
      </trkpt>
      <trkpt lat="49.37757" lon="-1.73976">
        <ele>52.8</ele>
        <time>2020-06-12T07:28:55Z</time>
      </trkpt>
      <trkpt lat="49.37762" lon="-1.73986">
        <ele>52.7</ele>
        <time>2020-06-12T07:28:56Z</time>
      </trkpt>
      <trkpt lat="49.37765" lon="-1.73995">
        <ele>52.6</ele>
        <time>2020-06-12T07:28:57Z</time>
      </trkpt>
      <trkpt lat="49.37767" lon="-1.74004">
        <ele>52.6</ele>
        <time>2020-06-12T07:28:58Z</time>
      </trkpt>
      <trkpt lat="49.3777" lon="-1.74013">
        <ele>52.5</ele>
        <time>2020-06-12T07:28:59Z</time>
      </trkpt>
      <trkpt lat="49.37771" lon="-1.74024">
        <ele>52.4</ele>
        <time>2020-06-12T07:29:00Z</time>
      </trkpt>
      <trkpt lat="49.37774" lon="-1.74034">
        <ele>52.4</ele>
        <time>2020-06-12T07:29:01Z</time>
      </trkpt>
      <trkpt lat="49.37777" lon="-1.74044">
        <ele>52.4</ele>
        <time>2020-06-12T07:29:02Z</time>
      </trkpt>
      <trkpt lat="49.3778" lon="-1.74053">
        <ele>52.4</ele>
        <time>2020-06-12T07:29:03Z</time>
      </trkpt>
      <trkpt lat="49.37783" lon="-1.74062">
        <ele>52</ele>
        <time>2020-06-12T07:29:04Z</time>
      </trkpt>
      <trkpt lat="49.37786" lon="-1.7407">
        <ele>51.7</ele>
        <time>2020-06-12T07:29:05Z</time>
      </trkpt>
      <trkpt lat="49.3779" lon="-1.7408">
        <ele>51.5</ele>
        <time>2020-06-12T07:29:06Z</time>
      </trkpt>
      <trkpt lat="49.37793" lon="-1.74089">
        <ele>51.2</ele>
        <time>2020-06-12T07:29:07Z</time>
      </trkpt>
      <trkpt lat="49.37796" lon="-1.74098">
        <ele>51.1</ele>
        <time>2020-06-12T07:29:08Z</time>
      </trkpt>
      <trkpt lat="49.378" lon="-1.74107">
        <ele>50.9</ele>
        <time>2020-06-12T07:29:09Z</time>
      </trkpt>
      <trkpt lat="49.37803" lon="-1.74116">
        <ele>50.8</ele>
        <time>2020-06-12T07:29:10Z</time>
      </trkpt>
      <trkpt lat="49.37807" lon="-1.74124">
        <ele>50.7</ele>
        <time>2020-06-12T07:29:11Z</time>
      </trkpt>
      <trkpt lat="49.3781" lon="-1.74133">
        <ele>50.6</ele>
        <time>2020-06-12T07:29:12Z</time>
      </trkpt>
      <trkpt lat="49.37814" lon="-1.74142">
        <ele>50.6</ele>
        <time>2020-06-12T07:29:13Z</time>
      </trkpt>
      <trkpt lat="49.37818" lon="-1.7415">
        <ele>50.6</ele>
        <time>2020-06-12T07:29:14Z</time>
      </trkpt>
      <trkpt lat="49.37821" lon="-1.74158">
        <ele>50.5</ele>
        <time>2020-06-12T07:29:15Z</time>
      </trkpt>
      <trkpt lat="49.37825" lon="-1.74166">
        <ele>50.5</ele>
        <time>2020-06-12T07:29:16Z</time>
      </trkpt>
      <trkpt lat="49.37828" lon="-1.74173">
        <ele>50.5</ele>
        <time>2020-06-12T07:29:17Z</time>
      </trkpt>
      <trkpt lat="49.37832" lon="-1.74179">
        <ele>50.5</ele>
        <time>2020-06-12T07:29:18Z</time>
      </trkpt>
      <trkpt lat="49.37835" lon="-1.74185">
        <ele>50.5</ele>
        <time>2020-06-12T07:29:19Z</time>
      </trkpt>
      <trkpt lat="49.3784" lon="-1.74192">
        <ele>50.6</ele>
        <time>2020-06-12T07:29:20Z</time>
      </trkpt>
      <trkpt lat="49.37844" lon="-1.74198">
        <ele>50.6</ele>
        <time>2020-06-12T07:29:21Z</time>
      </trkpt>
      <trkpt lat="49.37849" lon="-1.74206">
        <ele>50.7</ele>
        <time>2020-06-12T07:29:22Z</time>
      </trkpt>
      <trkpt lat="49.37853" lon="-1.74213">
        <ele>50.8</ele>
        <time>2020-06-12T07:29:23Z</time>
      </trkpt>
      <trkpt lat="49.37856" lon="-1.74221">
        <ele>50.9</ele>
        <time>2020-06-12T07:29:24Z</time>
      </trkpt>
      <trkpt lat="49.37858" lon="-1.74228">
        <ele>50.9</ele>
        <time>2020-06-12T07:29:25Z</time>
      </trkpt>
      <trkpt lat="49.37857" lon="-1.74235">
        <ele>51</ele>
        <time>2020-06-12T07:29:26Z</time>
      </trkpt>
      <trkpt lat="49.37855" lon="-1.74242">
        <ele>51</ele>
        <time>2020-06-12T07:29:27Z</time>
      </trkpt>
      <trkpt lat="49.37851" lon="-1.74248">
        <ele>51</ele>
        <time>2020-06-12T07:29:28Z</time>
      </trkpt>
      <trkpt lat="49.37845" lon="-1.74254">
        <ele>51</ele>
        <time>2020-06-12T07:29:29Z</time>
      </trkpt>
      <trkpt lat="49.3784" lon="-1.74255">
        <ele>51</ele>
        <time>2020-06-12T07:29:30Z</time>
      </trkpt>
      <trkpt lat="49.37836" lon="-1.74258">
        <ele>51</ele>
        <time>2020-06-12T07:29:31Z</time>
      </trkpt>
      <trkpt lat="49.37831" lon="-1.74261">
        <ele>50.9</ele>
        <time>2020-06-12T07:29:32Z</time>
      </trkpt>
      <trkpt lat="49.37826" lon="-1.74265">
        <ele>50.8</ele>
        <time>2020-06-12T07:29:33Z</time>
      </trkpt>
      <trkpt lat="49.37822" lon="-1.7427">
        <ele>50.7</ele>
        <time>2020-06-12T07:29:34Z</time>
      </trkpt>
      <trkpt lat="49.37818" lon="-1.74276">
        <ele>50.6</ele>
        <time>2020-06-12T07:29:35Z</time>
      </trkpt>
      <trkpt lat="49.37815" lon="-1.74284">
        <ele>50.5</ele>
        <time>2020-06-12T07:29:36Z</time>
      </trkpt>
      <trkpt lat="49.37814" lon="-1.74291">
        <ele>50.5</ele>
        <time>2020-06-12T07:29:37Z</time>
      </trkpt>
      <trkpt lat="49.37814" lon="-1.74298">
        <ele>50.5</ele>
        <time>2020-06-12T07:29:38Z</time>
      </trkpt>
      <trkpt lat="49.37814" lon="-1.74306">
        <ele>50.5</ele>
        <time>2020-06-12T07:29:39Z</time>
      </trkpt>
      <trkpt lat="49.37815" lon="-1.74316">
        <ele>50.5</ele>
        <time>2020-06-12T07:29:40Z</time>
      </trkpt>
      <trkpt lat="49.37816" lon="-1.74325">
        <ele>50.5</ele>
        <time>2020-06-12T07:29:41Z</time>
      </trkpt>
      <trkpt lat="49.37817" lon="-1.74333">
        <ele>50.5</ele>
        <time>2020-06-12T07:29:42Z</time>
      </trkpt>
      <trkpt lat="49.37818" lon="-1.74341">
        <ele>50.5</ele>
        <time>2020-06-12T07:29:43Z</time>
      </trkpt>
      <trkpt lat="49.3782" lon="-1.74349">
        <ele>50.5</ele>
        <time>2020-06-12T07:29:44Z</time>
      </trkpt>
      <trkpt lat="49.37822" lon="-1.74357">
        <ele>50.5</ele>
        <time>2020-06-12T07:29:45Z</time>
      </trkpt>
      <trkpt lat="49.37825" lon="-1.74366">
        <ele>50.5</ele>
        <time>2020-06-12T07:29:46Z</time>
      </trkpt>
      <trkpt lat="49.37827" lon="-1.74375">
        <ele>50.5</ele>
        <time>2020-06-12T07:29:47Z</time>
      </trkpt>
      <trkpt lat="49.3783" lon="-1.74384">
        <ele>50.5</ele>
        <time>2020-06-12T07:29:48Z</time>
      </trkpt>
      <trkpt lat="49.37831" lon="-1.74392">
        <ele>50.4</ele>
        <time>2020-06-12T07:29:49Z</time>
      </trkpt>
      <trkpt lat="49.37833" lon="-1.744">
        <ele>50.4</ele>
        <time>2020-06-12T07:29:50Z</time>
      </trkpt>
      <trkpt lat="49.37835" lon="-1.74408">
        <ele>50.4</ele>
        <time>2020-06-12T07:29:51Z</time>
      </trkpt>
      <trkpt lat="49.37837" lon="-1.74419">
        <ele>50.4</ele>
        <time>2020-06-12T07:29:52Z</time>
      </trkpt>
      <trkpt lat="49.37839" lon="-1.74428">
        <ele>50.4</ele>
        <time>2020-06-12T07:29:53Z</time>
      </trkpt>
      <trkpt lat="49.37841" lon="-1.74438">
        <ele>50.4</ele>
        <time>2020-06-12T07:29:54Z</time>
      </trkpt>
      <trkpt lat="49.37842" lon="-1.74447">
        <ele>50.4</ele>
        <time>2020-06-12T07:29:55Z</time>
      </trkpt>
      <trkpt lat="49.37843" lon="-1.74458">
        <ele>50.4</ele>
        <time>2020-06-12T07:29:56Z</time>
      </trkpt>
      <trkpt lat="49.37844" lon="-1.74468">
        <ele>50.5</ele>
        <time>2020-06-12T07:29:57Z</time>
      </trkpt>
      <trkpt lat="49.37845" lon="-1.74477">
        <ele>50.6</ele>
        <time>2020-06-12T07:29:58Z</time>
      </trkpt>
      <trkpt lat="49.37846" lon="-1.74486">
        <ele>50.6</ele>
        <time>2020-06-12T07:29:59Z</time>
      </trkpt>
      <trkpt lat="49.37848" lon="-1.74497">
        <ele>50.6</ele>
        <time>2020-06-12T07:30:00Z</time>
      </trkpt>
      <trkpt lat="49.37849" lon="-1.74508">
        <ele>50.5</ele>
        <time>2020-06-12T07:30:01Z</time>
      </trkpt>
      <trkpt lat="49.3785" lon="-1.74518">
        <ele>50.4</ele>
        <time>2020-06-12T07:30:02Z</time>
      </trkpt>
      <trkpt lat="49.37851" lon="-1.74527">
        <ele>50.3</ele>
        <time>2020-06-12T07:30:03Z</time>
      </trkpt>
      <trkpt lat="49.37852" lon="-1.74538">
        <ele>50.2</ele>
        <time>2020-06-12T07:30:04Z</time>
      </trkpt>
      <trkpt lat="49.37854" lon="-1.74549">
        <ele>50.1</ele>
        <time>2020-06-12T07:30:05Z</time>
      </trkpt>
      <trkpt lat="49.37857" lon="-1.74559">
        <ele>50.1</ele>
        <time>2020-06-12T07:30:06Z</time>
      </trkpt>
      <trkpt lat="49.3786" lon="-1.74569">
        <ele>50</ele>
        <time>2020-06-12T07:30:07Z</time>
      </trkpt>
      <trkpt lat="49.37862" lon="-1.74579">
        <ele>50</ele>
        <time>2020-06-12T07:30:08Z</time>
      </trkpt>
      <trkpt lat="49.37865" lon="-1.74588">
        <ele>50</ele>
        <time>2020-06-12T07:30:09Z</time>
      </trkpt>
      <trkpt lat="49.37868" lon="-1.74597">
        <ele>50</ele>
        <time>2020-06-12T07:30:10Z</time>
      </trkpt>
      <trkpt lat="49.37871" lon="-1.74605">
        <ele>50</ele>
        <time>2020-06-12T07:30:11Z</time>
      </trkpt>
      <trkpt lat="49.37874" lon="-1.74615">
        <ele>50</ele>
        <time>2020-06-12T07:30:12Z</time>
      </trkpt>
      <trkpt lat="49.37876" lon="-1.74623">
        <ele>50</ele>
        <time>2020-06-12T07:30:13Z</time>
      </trkpt>
      <trkpt lat="49.3788" lon="-1.74631">
        <ele>49.9</ele>
        <time>2020-06-12T07:30:14Z</time>
      </trkpt>
      <trkpt lat="49.37883" lon="-1.74638">
        <ele>49.8</ele>
        <time>2020-06-12T07:30:15Z</time>
      </trkpt>
      <trkpt lat="49.37887" lon="-1.74646">
        <ele>49.7</ele>
        <time>2020-06-12T07:30:16Z</time>
      </trkpt>
      <trkpt lat="49.37891" lon="-1.74655">
        <ele>49.6</ele>
        <time>2020-06-12T07:30:17Z</time>
      </trkpt>
      <trkpt lat="49.37895" lon="-1.74664">
        <ele>49.6</ele>
        <time>2020-06-12T07:30:18Z</time>
      </trkpt>
      <trkpt lat="49.37899" lon="-1.74672">
        <ele>49.5</ele>
        <time>2020-06-12T07:30:19Z</time>
      </trkpt>
      <trkpt lat="49.37902" lon="-1.7468">
        <ele>49.4</ele>
        <time>2020-06-12T07:30:20Z</time>
      </trkpt>
      <trkpt lat="49.37906" lon="-1.74687">
        <ele>49.4</ele>
        <time>2020-06-12T07:30:21Z</time>
      </trkpt>
      <trkpt lat="49.3791" lon="-1.74695">
        <ele>49.3</ele>
        <time>2020-06-12T07:30:22Z</time>
      </trkpt>
      <trkpt lat="49.37913" lon="-1.74703">
        <ele>49.3</ele>
        <time>2020-06-12T07:30:23Z</time>
      </trkpt>
      <trkpt lat="49.37916" lon="-1.7471">
        <ele>49.3</ele>
        <time>2020-06-12T07:30:24Z</time>
      </trkpt>
      <trkpt lat="49.3792" lon="-1.74718">
        <ele>49.2</ele>
        <time>2020-06-12T07:30:25Z</time>
      </trkpt>
      <trkpt lat="49.37923" lon="-1.74726">
        <ele>49.2</ele>
        <time>2020-06-12T07:30:26Z</time>
      </trkpt>
      <trkpt lat="49.37928" lon="-1.74732">
        <ele>49.2</ele>
        <time>2020-06-12T07:30:27Z</time>
      </trkpt>
      <trkpt lat="49.37932" lon="-1.7474">
        <ele>49.2</ele>
        <time>2020-06-12T07:30:28Z</time>
      </trkpt>
      <trkpt lat="49.37935" lon="-1.74747">
        <ele>49.1</ele>
        <time>2020-06-12T07:30:29Z</time>
      </trkpt>
      <trkpt lat="49.37938" lon="-1.74753">
        <ele>49</ele>
        <time>2020-06-12T07:30:30Z</time>
      </trkpt>
      <trkpt lat="49.37941" lon="-1.74758">
        <ele>49</ele>
        <time>2020-06-12T07:30:31Z</time>
      </trkpt>
      <trkpt lat="49.37944" lon="-1.74764">
        <ele>48.9</ele>
        <time>2020-06-12T07:30:32Z</time>
      </trkpt>
      <trkpt lat="49.37948" lon="-1.74771">
        <ele>48.8</ele>
        <time>2020-06-12T07:30:33Z</time>
      </trkpt>
      <trkpt lat="49.37953" lon="-1.74777">
        <ele>48.8</ele>
        <time>2020-06-12T07:30:34Z</time>
      </trkpt>
      <trkpt lat="49.37958" lon="-1.74785">
        <ele>48.6</ele>
        <time>2020-06-12T07:30:35Z</time>
      </trkpt>
      <trkpt lat="49.37962" lon="-1.74792">
        <ele>48.5</ele>
        <time>2020-06-12T07:30:36Z</time>
      </trkpt>
      <trkpt lat="49.37965" lon="-1.74799">
        <ele>48.4</ele>
        <time>2020-06-12T07:30:37Z</time>
      </trkpt>
      <trkpt lat="49.37968" lon="-1.74805">
        <ele>48.2</ele>
        <time>2020-06-12T07:30:38Z</time>
      </trkpt>
      <trkpt lat="49.37971" lon="-1.74812">
        <ele>48.1</ele>
        <time>2020-06-12T07:30:39Z</time>
      </trkpt>
      <trkpt lat="49.37975" lon="-1.7482">
        <ele>47.9</ele>
        <time>2020-06-12T07:30:40Z</time>
      </trkpt>
      <trkpt lat="49.37978" lon="-1.74827">
        <ele>47.8</ele>
        <time>2020-06-12T07:30:41Z</time>
      </trkpt>
      <trkpt lat="49.37983" lon="-1.74835">
        <ele>47.6</ele>
        <time>2020-06-12T07:30:42Z</time>
      </trkpt>
      <trkpt lat="49.37987" lon="-1.74841">
        <ele>47.3</ele>
        <time>2020-06-12T07:30:43Z</time>
      </trkpt>
      <trkpt lat="49.37992" lon="-1.7485">
        <ele>46.9</ele>
        <time>2020-06-12T07:30:44Z</time>
      </trkpt>
      <trkpt lat="49.37997" lon="-1.74858">
        <ele>46.6</ele>
        <time>2020-06-12T07:30:45Z</time>
      </trkpt>
      <trkpt lat="49.38001" lon="-1.74868">
        <ele>46.2</ele>
        <time>2020-06-12T07:30:46Z</time>
      </trkpt>
      <trkpt lat="49.38006" lon="-1.74877">
        <ele>45.7</ele>
        <time>2020-06-12T07:30:47Z</time>
      </trkpt>
      <trkpt lat="49.3801" lon="-1.74886">
        <ele>45.3</ele>
        <time>2020-06-12T07:30:48Z</time>
      </trkpt>
      <trkpt lat="49.38015" lon="-1.74894">
        <ele>44.9</ele>
        <time>2020-06-12T07:30:49Z</time>
      </trkpt>
      <trkpt lat="49.38019" lon="-1.74904">
        <ele>44.5</ele>
        <time>2020-06-12T07:30:50Z</time>
      </trkpt>
      <trkpt lat="49.38024" lon="-1.74913">
        <ele>44.1</ele>
        <time>2020-06-12T07:30:51Z</time>
      </trkpt>
      <trkpt lat="49.3803" lon="-1.74922">
        <ele>43.7</ele>
        <time>2020-06-12T07:30:52Z</time>
      </trkpt>
      <trkpt lat="49.38034" lon="-1.74932">
        <ele>43.3</ele>
        <time>2020-06-12T07:30:53Z</time>
      </trkpt>
      <trkpt lat="49.38039" lon="-1.74941">
        <ele>43</ele>
        <time>2020-06-12T07:30:54Z</time>
      </trkpt>
      <trkpt lat="49.38044" lon="-1.74951">
        <ele>42.6</ele>
        <time>2020-06-12T07:30:55Z</time>
      </trkpt>
      <trkpt lat="49.38049" lon="-1.7496">
        <ele>42.2</ele>
        <time>2020-06-12T07:30:56Z</time>
      </trkpt>
      <trkpt lat="49.38053" lon="-1.74969">
        <ele>41.5</ele>
        <time>2020-06-12T07:30:57Z</time>
      </trkpt>
      <trkpt lat="49.38057" lon="-1.74979">
        <ele>41</ele>
        <time>2020-06-12T07:30:58Z</time>
      </trkpt>
      <trkpt lat="49.3806" lon="-1.74989">
        <ele>40.7</ele>
        <time>2020-06-12T07:30:59Z</time>
      </trkpt>
      <trkpt lat="49.38064" lon="-1.74998">
        <ele>40.3</ele>
        <time>2020-06-12T07:31:00Z</time>
      </trkpt>
      <trkpt lat="49.38067" lon="-1.75008">
        <ele>39.9</ele>
        <time>2020-06-12T07:31:01Z</time>
      </trkpt>
      <trkpt lat="49.3807" lon="-1.75018">
        <ele>39.6</ele>
        <time>2020-06-12T07:31:02Z</time>
      </trkpt>
      <trkpt lat="49.38073" lon="-1.75028">
        <ele>39.3</ele>
        <time>2020-06-12T07:31:03Z</time>
      </trkpt>
      <trkpt lat="49.38076" lon="-1.75038">
        <ele>39.1</ele>
        <time>2020-06-12T07:31:04Z</time>
      </trkpt>
      <trkpt lat="49.38079" lon="-1.75047">
        <ele>38.9</ele>
        <time>2020-06-12T07:31:05Z</time>
      </trkpt>
      <trkpt lat="49.38081" lon="-1.75057">
        <ele>38.8</ele>
        <time>2020-06-12T07:31:06Z</time>
      </trkpt>
      <trkpt lat="49.38083" lon="-1.75067">
        <ele>38.6</ele>
        <time>2020-06-12T07:31:07Z</time>
      </trkpt>
      <trkpt lat="49.38086" lon="-1.75077">
        <ele>38.6</ele>
        <time>2020-06-12T07:31:08Z</time>
      </trkpt>
      <trkpt lat="49.38089" lon="-1.75086">
        <ele>38.2</ele>
        <time>2020-06-12T07:31:09Z</time>
      </trkpt>
      <trkpt lat="49.38092" lon="-1.75095">
        <ele>37.9</ele>
        <time>2020-06-12T07:31:10Z</time>
      </trkpt>
      <trkpt lat="49.38095" lon="-1.75104">
        <ele>37.6</ele>
        <time>2020-06-12T07:31:11Z</time>
      </trkpt>
      <trkpt lat="49.38096" lon="-1.75112">
        <ele>37.3</ele>
        <time>2020-06-12T07:31:12Z</time>
      </trkpt>
      <trkpt lat="49.38098" lon="-1.75121">
        <ele>37</ele>
        <time>2020-06-12T07:31:13Z</time>
      </trkpt>
      <trkpt lat="49.381" lon="-1.7513">
        <ele>36.6</ele>
        <time>2020-06-12T07:31:14Z</time>
      </trkpt>
      <trkpt lat="49.38102" lon="-1.7514">
        <ele>36.3</ele>
        <time>2020-06-12T07:31:15Z</time>
      </trkpt>
      <trkpt lat="49.38104" lon="-1.75149">
        <ele>36</ele>
        <time>2020-06-12T07:31:16Z</time>
      </trkpt>
      <trkpt lat="49.38106" lon="-1.75157">
        <ele>35.6</ele>
        <time>2020-06-12T07:31:17Z</time>
      </trkpt>
      <trkpt lat="49.38106" lon="-1.75166">
        <ele>35.4</ele>
        <time>2020-06-12T07:31:18Z</time>
      </trkpt>
      <trkpt lat="49.38106" lon="-1.75173">
        <ele>35.3</ele>
        <time>2020-06-12T07:31:19Z</time>
      </trkpt>
      <trkpt lat="49.38107" lon="-1.7518">
        <ele>35.2</ele>
        <time>2020-06-12T07:31:20Z</time>
      </trkpt>
      <trkpt lat="49.38108" lon="-1.75187">
        <ele>35</ele>
        <time>2020-06-12T07:31:21Z</time>
      </trkpt>
      <trkpt lat="49.38109" lon="-1.75194">
        <ele>34.8</ele>
        <time>2020-06-12T07:31:22Z</time>
      </trkpt>
      <trkpt lat="49.3811" lon="-1.75201">
        <ele>34.7</ele>
        <time>2020-06-12T07:31:23Z</time>
      </trkpt>
      <trkpt lat="49.38113" lon="-1.75206">
        <ele>34.5</ele>
        <time>2020-06-12T07:31:24Z</time>
      </trkpt>
      <trkpt lat="49.38114" lon="-1.75211">
        <ele>34.4</ele>
        <time>2020-06-12T07:31:25Z</time>
      </trkpt>
      <trkpt lat="49.38116" lon="-1.75215">
        <ele>34.3</ele>
        <time>2020-06-12T07:31:26Z</time>
      </trkpt>
      <trkpt lat="49.38119" lon="-1.75219">
        <ele>34.2</ele>
        <time>2020-06-12T07:31:27Z</time>
      </trkpt>
      <trkpt lat="49.38121" lon="-1.75224">
        <ele>34</ele>
        <time>2020-06-12T07:31:28Z</time>
      </trkpt>
      <trkpt lat="49.38124" lon="-1.75229">
        <ele>33.9</ele>
        <time>2020-06-12T07:31:29Z</time>
      </trkpt>
      <trkpt lat="49.38126" lon="-1.75235">
        <ele>33.8</ele>
        <time>2020-06-12T07:31:30Z</time>
      </trkpt>
      <trkpt lat="49.38128" lon="-1.75239">
        <ele>33.7</ele>
        <time>2020-06-12T07:31:31Z</time>
      </trkpt>
      <trkpt lat="49.38129" lon="-1.75242">
        <ele>33.6</ele>
        <time>2020-06-12T07:31:32Z</time>
      </trkpt>
      <trkpt lat="49.3813" lon="-1.75244">
        <ele>33.6</ele>
        <time>2020-06-12T07:31:33Z</time>
      </trkpt>
      <trkpt lat="49.38132" lon="-1.75243">
        <ele>33.5</ele>
        <time>2020-06-12T07:31:34Z</time>
      </trkpt>
      <trkpt lat="49.38133" lon="-1.75243">
        <ele>33.5</ele>
        <time>2020-06-12T07:31:35Z</time>
      </trkpt>
      <trkpt lat="49.38134" lon="-1.75242">
        <ele>33.3</ele>
        <time>2020-06-12T07:31:36Z</time>
      </trkpt>
      <trkpt lat="49.38137" lon="-1.75241">
        <ele>33.4</ele>
        <time>2020-06-12T07:31:37Z</time>
      </trkpt>
      <trkpt lat="49.38138" lon="-1.75241">
        <ele>33.4</ele>
        <time>2020-06-12T07:31:38Z</time>
      </trkpt>
      <trkpt lat="49.38141" lon="-1.75238">
        <ele>33.4</ele>
        <time>2020-06-12T07:31:39Z</time>
      </trkpt>
      <trkpt lat="49.38144" lon="-1.7524">
        <ele>33.4</ele>
        <time>2020-06-12T07:31:40Z</time>
      </trkpt>
      <trkpt lat="49.38145" lon="-1.75245">
        <ele>33.4</ele>
        <time>2020-06-12T07:31:41Z</time>
      </trkpt>
      <trkpt lat="49.38147" lon="-1.7525">
        <ele>33.3</ele>
        <time>2020-06-12T07:31:42Z</time>
      </trkpt>
      <trkpt lat="49.38149" lon="-1.75256">
        <ele>33.2</ele>
        <time>2020-06-12T07:31:43Z</time>
      </trkpt>
      <trkpt lat="49.3815" lon="-1.75261">
        <ele>33.2</ele>
        <time>2020-06-12T07:31:44Z</time>
      </trkpt>
      <trkpt lat="49.38152" lon="-1.75265">
        <ele>33.2</ele>
        <time>2020-06-12T07:31:45Z</time>
      </trkpt>
      <trkpt lat="49.38154" lon="-1.7527">
        <ele>33.1</ele>
        <time>2020-06-12T07:31:46Z</time>
      </trkpt>
      <trkpt lat="49.38156" lon="-1.75274">
        <ele>33</ele>
        <time>2020-06-12T07:31:47Z</time>
      </trkpt>
      <trkpt lat="49.38157" lon="-1.7528">
        <ele>33</ele>
        <time>2020-06-12T07:31:48Z</time>
      </trkpt>
      <trkpt lat="49.38158" lon="-1.75285">
        <ele>32.9</ele>
        <time>2020-06-12T07:31:49Z</time>
      </trkpt>
      <trkpt lat="49.3816" lon="-1.7529">
        <ele>32.8</ele>
        <time>2020-06-12T07:31:50Z</time>
      </trkpt>
      <trkpt lat="49.38163" lon="-1.75296">
        <ele>32.8</ele>
        <time>2020-06-12T07:31:51Z</time>
      </trkpt>
      <trkpt lat="49.38162" lon="-1.753">
        <ele>32.7</ele>
        <time>2020-06-12T07:31:52Z</time>
      </trkpt>
      <trkpt lat="49.38161" lon="-1.75305">
        <ele>32.7</ele>
        <time>2020-06-12T07:31:53Z</time>
      </trkpt>
      <trkpt lat="49.38159" lon="-1.75309">
        <ele>32.7</ele>
        <time>2020-06-12T07:31:54Z</time>
      </trkpt>
      <trkpt lat="49.38159" lon="-1.75311">
        <ele>32.6</ele>
        <time>2020-06-12T07:31:55Z</time>
      </trkpt>
      <trkpt lat="49.38159" lon="-1.75315">
        <ele>32.6</ele>
        <time>2020-06-12T07:31:56Z</time>
      </trkpt>
      <trkpt lat="49.38158" lon="-1.75321">
        <ele>32.4</ele>
        <time>2020-06-12T07:31:57Z</time>
      </trkpt>
      <trkpt lat="49.38157" lon="-1.75323">
        <ele>32.4</ele>
        <time>2020-06-12T07:31:58Z</time>
      </trkpt>
      <trkpt lat="49.38158" lon="-1.75327">
        <ele>32.4</ele>
        <time>2020-06-12T07:31:59Z</time>
      </trkpt>
      <trkpt lat="49.3816" lon="-1.7533">
        <ele>32.4</ele>
        <time>2020-06-12T07:32:00Z</time>
      </trkpt>
      <trkpt lat="49.38161" lon="-1.75335">
        <ele>32.3</ele>
        <time>2020-06-12T07:32:01Z</time>
      </trkpt>
      <trkpt lat="49.38161" lon="-1.75336">
        <ele>32.3</ele>
        <time>2020-06-12T07:32:02Z</time>
      </trkpt>
      <trkpt lat="49.38162" lon="-1.75338">
        <ele>32.3</ele>
        <time>2020-06-12T07:32:03Z</time>
      </trkpt>
      <trkpt lat="49.38162" lon="-1.75339">
        <ele>32.3</ele>
        <time>2020-06-12T07:32:04Z</time>
      </trkpt>
      <trkpt lat="49.38162" lon="-1.75339">
        <ele>32.3</ele>
        <time>2020-06-12T07:32:05Z</time>
      </trkpt>
      <trkpt lat="49.38162" lon="-1.7534">
        <ele>32.3</ele>
        <time>2020-06-12T07:32:06Z</time>
      </trkpt>
      <trkpt lat="49.38162" lon="-1.7534">
        <ele>32.3</ele>
        <time>2020-06-12T07:32:07Z</time>
      </trkpt>
      <trkpt lat="49.38162" lon="-1.75341">
        <ele>32.3</ele>
        <time>2020-06-12T07:32:08Z</time>
      </trkpt>
      <trkpt lat="49.38161" lon="-1.75342">
        <ele>32.3</ele>
        <time>2020-06-12T07:32:09Z</time>
      </trkpt>
      <trkpt lat="49.3816" lon="-1.75342">
        <ele>32.3</ele>
        <time>2020-06-12T07:32:10Z</time>
      </trkpt>
      <trkpt lat="49.38159" lon="-1.75343">
        <ele>32.3</ele>
        <time>2020-06-12T07:32:11Z</time>
      </trkpt>
      <trkpt lat="49.38159" lon="-1.75344">
        <ele>32.3</ele>
        <time>2020-06-12T07:32:12Z</time>
      </trkpt>
      <trkpt lat="49.38159" lon="-1.75344">
        <ele>32.3</ele>
        <time>2020-06-12T07:32:13Z</time>
      </trkpt>
      <trkpt lat="49.38159" lon="-1.75343">
        <ele>32.2</ele>
        <time>2020-06-12T07:32:14Z</time>
      </trkpt>
      <trkpt lat="49.38159" lon="-1.75343">
        <ele>32.2</ele>
        <time>2020-06-12T07:32:15Z</time>
      </trkpt>
      <trkpt lat="49.38159" lon="-1.75343">
        <ele>32.2</ele>
        <time>2020-06-12T07:32:16Z</time>
      </trkpt>
      <trkpt lat="49.38159" lon="-1.75344">
        <ele>32.2</ele>
        <time>2020-06-12T07:32:17Z</time>
      </trkpt>
      <trkpt lat="49.38159" lon="-1.75344">
        <ele>32.2</ele>
        <time>2020-06-12T07:32:18Z</time>
      </trkpt>
      <trkpt lat="49.38159" lon="-1.75344">
        <ele>32.2</ele>
        <time>2020-06-12T07:32:19Z</time>
      </trkpt>
      <trkpt lat="49.38159" lon="-1.75344">
        <ele>32.2</ele>
        <time>2020-06-12T07:32:20Z</time>
      </trkpt>
      <trkpt lat="49.38159" lon="-1.75345">
        <ele>32.2</ele>
        <time>2020-06-12T07:32:21Z</time>
      </trkpt>
      <trkpt lat="49.38159" lon="-1.75345">
        <ele>32.2</ele>
        <time>2020-06-12T07:32:22Z</time>
      </trkpt>
      <trkpt lat="49.38159" lon="-1.75345">
        <ele>32.2</ele>
        <time>2020-06-12T07:32:23Z</time>
      </trkpt>
      <trkpt lat="49.38176" lon="-1.75338">
        <ele>32</ele>
        <time>2020-06-12T07:36:22Z</time>
      </trkpt>
      <trkpt lat="49.38175" lon="-1.75336">
        <ele>32</ele>
        <time>2020-06-12T07:36:23Z</time>
      </trkpt>
      <trkpt lat="49.38174" lon="-1.75335">
        <ele>32</ele>
        <time>2020-06-12T07:36:24Z</time>
      </trkpt>
      <trkpt lat="49.38173" lon="-1.75334">
        <ele>32</ele>
        <time>2020-06-12T07:36:25Z</time>
      </trkpt>
      <trkpt lat="49.38172" lon="-1.75332">
        <ele>32.1</ele>
        <time>2020-06-12T07:36:26Z</time>
      </trkpt>
      <trkpt lat="49.38172" lon="-1.75331">
        <ele>32.1</ele>
        <time>2020-06-12T07:36:27Z</time>
      </trkpt>
      <trkpt lat="49.38171" lon="-1.75331">
        <ele>32.1</ele>
        <time>2020-06-12T07:36:28Z</time>
      </trkpt>
      <trkpt lat="49.38171" lon="-1.7533">
        <ele>32.1</ele>
        <time>2020-06-12T07:36:29Z</time>
      </trkpt>
      <trkpt lat="49.3817" lon="-1.75328">
        <ele>32.2</ele>
        <time>2020-06-12T07:36:30Z</time>
      </trkpt>
      <trkpt lat="49.38169" lon="-1.75326">
        <ele>32.2</ele>
        <time>2020-06-12T07:36:31Z</time>
      </trkpt>
      <trkpt lat="49.38169" lon="-1.75325">
        <ele>32.2</ele>
        <time>2020-06-12T07:36:32Z</time>
      </trkpt>
      <trkpt lat="49.38168" lon="-1.75323">
        <ele>32.2</ele>
        <time>2020-06-12T07:36:33Z</time>
      </trkpt>
      <trkpt lat="49.38168" lon="-1.75322">
        <ele>32.3</ele>
        <time>2020-06-12T07:36:34Z</time>
      </trkpt>
      <trkpt lat="49.38167" lon="-1.7532">
        <ele>32.3</ele>
        <time>2020-06-12T07:36:35Z</time>
      </trkpt>
      <trkpt lat="49.38168" lon="-1.75318">
        <ele>32.3</ele>
        <time>2020-06-12T07:36:36Z</time>
      </trkpt>
      <trkpt lat="49.38168" lon="-1.75314">
        <ele>32.4</ele>
        <time>2020-06-12T07:36:37Z</time>
      </trkpt>
      <trkpt lat="49.38168" lon="-1.75312">
        <ele>32.4</ele>
        <time>2020-06-12T07:36:38Z</time>
      </trkpt>
      <trkpt lat="49.38168" lon="-1.7531">
        <ele>32.5</ele>
        <time>2020-06-12T07:36:39Z</time>
      </trkpt>
      <trkpt lat="49.38169" lon="-1.75309">
        <ele>32.5</ele>
        <time>2020-06-12T07:36:40Z</time>
      </trkpt>
      <trkpt lat="49.38169" lon="-1.75308">
        <ele>32.5</ele>
        <time>2020-06-12T07:36:41Z</time>
      </trkpt>
      <trkpt lat="49.3817" lon="-1.75306">
        <ele>32.5</ele>
        <time>2020-06-12T07:36:42Z</time>
      </trkpt>
      <trkpt lat="49.38171" lon="-1.75305">
        <ele>32.6</ele>
        <time>2020-06-12T07:36:43Z</time>
      </trkpt>
      <trkpt lat="49.38171" lon="-1.75304">
        <ele>32.6</ele>
        <time>2020-06-12T07:36:44Z</time>
      </trkpt>
      <trkpt lat="49.38171" lon="-1.75303">
        <ele>32.6</ele>
        <time>2020-06-12T07:36:45Z</time>
      </trkpt>
      <trkpt lat="49.38172" lon="-1.75303">
        <ele>32.6</ele>
        <time>2020-06-12T07:36:46Z</time>
      </trkpt>
      <trkpt lat="49.38172" lon="-1.75302">
        <ele>32.6</ele>
        <time>2020-06-12T07:36:47Z</time>
      </trkpt>
      <trkpt lat="49.38172" lon="-1.75301">
        <ele>32.7</ele>
        <time>2020-06-12T07:36:48Z</time>
      </trkpt>
      <trkpt lat="49.38172" lon="-1.753">
        <ele>32.7</ele>
        <time>2020-06-12T07:36:49Z</time>
      </trkpt>
      <trkpt lat="49.38172" lon="-1.75298">
        <ele>32.7</ele>
        <time>2020-06-12T07:36:50Z</time>
      </trkpt>
      <trkpt lat="49.38172" lon="-1.75297">
        <ele>32.7</ele>
        <time>2020-06-12T07:36:51Z</time>
      </trkpt>
      <trkpt lat="49.38171" lon="-1.75294">
        <ele>32.7</ele>
        <time>2020-06-12T07:36:52Z</time>
      </trkpt>
      <trkpt lat="49.38171" lon="-1.75292">
        <ele>32.7</ele>
        <time>2020-06-12T07:36:53Z</time>
      </trkpt>
      <trkpt lat="49.3817" lon="-1.7529">
        <ele>32.8</ele>
        <time>2020-06-12T07:36:54Z</time>
      </trkpt>
      <trkpt lat="49.3817" lon="-1.75288">
        <ele>32.8</ele>
        <time>2020-06-12T07:36:55Z</time>
      </trkpt>
      <trkpt lat="49.38169" lon="-1.75286">
        <ele>32.8</ele>
        <time>2020-06-12T07:36:56Z</time>
      </trkpt>
      <trkpt lat="49.38169" lon="-1.75285">
        <ele>32.8</ele>
        <time>2020-06-12T07:36:57Z</time>
      </trkpt>
      <trkpt lat="49.38168" lon="-1.75285">
        <ele>32.8</ele>
        <time>2020-06-12T07:36:58Z</time>
      </trkpt>
      <trkpt lat="49.38169" lon="-1.75283">
        <ele>32.8</ele>
        <time>2020-06-12T07:36:59Z</time>
      </trkpt>
      <trkpt lat="49.38168" lon="-1.75282">
        <ele>32.9</ele>
        <time>2020-06-12T07:37:00Z</time>
      </trkpt>
      <trkpt lat="49.38168" lon="-1.75282">
        <ele>32.9</ele>
        <time>2020-06-12T07:37:01Z</time>
      </trkpt>
      <trkpt lat="49.38168" lon="-1.75281">
        <ele>32.9</ele>
        <time>2020-06-12T07:37:02Z</time>
      </trkpt>
      <trkpt lat="49.38168" lon="-1.7528">
        <ele>32.9</ele>
        <time>2020-06-12T07:37:03Z</time>
      </trkpt>
      <trkpt lat="49.38167" lon="-1.7528">
        <ele>32.9</ele>
        <time>2020-06-12T07:37:04Z</time>
      </trkpt>
      <trkpt lat="49.38167" lon="-1.7528">
        <ele>32.9</ele>
        <time>2020-06-12T07:37:05Z</time>
      </trkpt>
      <trkpt lat="49.38167" lon="-1.7528">
        <ele>32.9</ele>
        <time>2020-06-12T07:37:06Z</time>
      </trkpt>
      <trkpt lat="49.38166" lon="-1.7528">
        <ele>32.9</ele>
        <time>2020-06-12T07:37:07Z</time>
      </trkpt>
      <trkpt lat="49.38166" lon="-1.7528">
        <ele>32.9</ele>
        <time>2020-06-12T07:37:08Z</time>
      </trkpt>
      <trkpt lat="49.38166" lon="-1.7528">
        <ele>32.9</ele>
        <time>2020-06-12T07:37:09Z</time>
      </trkpt>
      <trkpt lat="49.38166" lon="-1.7528">
        <ele>32.9</ele>
        <time>2020-06-12T07:37:10Z</time>
      </trkpt>
      <trkpt lat="49.38166" lon="-1.7528">
        <ele>32.9</ele>
        <time>2020-06-12T07:37:11Z</time>
      </trkpt>
      <trkpt lat="49.38166" lon="-1.7528">
        <ele>32.9</ele>
        <time>2020-06-12T07:37:12Z</time>
      </trkpt>
      <trkpt lat="49.38166" lon="-1.7528">
        <ele>32.9</ele>
        <time>2020-06-12T07:37:13Z</time>
      </trkpt>
      <trkpt lat="49.38177" lon="-1.75253">
        <ele>33.2</ele>
        <time>2020-06-12T07:41:35Z</time>
      </trkpt>
      <trkpt lat="49.38177" lon="-1.75252">
        <ele>33.2</ele>
        <time>2020-06-12T07:41:36Z</time>
      </trkpt>
      <trkpt lat="49.38176" lon="-1.7525">
        <ele>33.2</ele>
        <time>2020-06-12T07:41:37Z</time>
      </trkpt>
      <trkpt lat="49.38176" lon="-1.75249">
        <ele>33.2</ele>
        <time>2020-06-12T07:41:38Z</time>
      </trkpt>
      <trkpt lat="49.38174" lon="-1.75248">
        <ele>33.3</ele>
        <time>2020-06-12T07:41:39Z</time>
      </trkpt>
      <trkpt lat="49.38171" lon="-1.75246">
        <ele>33.3</ele>
        <time>2020-06-12T07:41:40Z</time>
      </trkpt>
      <trkpt lat="49.3817" lon="-1.75245">
        <ele>33.3</ele>
        <time>2020-06-12T07:41:41Z</time>
      </trkpt>
      <trkpt lat="49.38168" lon="-1.75243">
        <ele>33.3</ele>
        <time>2020-06-12T07:41:42Z</time>
      </trkpt>
      <trkpt lat="49.38167" lon="-1.75242">
        <ele>32.6</ele>
        <time>2020-06-12T07:41:43Z</time>
      </trkpt>
      <trkpt lat="49.38166" lon="-1.7524">
        <ele>32.5</ele>
        <time>2020-06-12T07:41:44Z</time>
      </trkpt>
      <trkpt lat="49.38166" lon="-1.75238">
        <ele>32.4</ele>
        <time>2020-06-12T07:41:45Z</time>
      </trkpt>
      <trkpt lat="49.38166" lon="-1.75237">
        <ele>32.4</ele>
        <time>2020-06-12T07:41:46Z</time>
      </trkpt>
      <trkpt lat="49.38166" lon="-1.75235">
        <ele>32.3</ele>
        <time>2020-06-12T07:41:47Z</time>
      </trkpt>
      <trkpt lat="49.38165" lon="-1.75234">
        <ele>32.2</ele>
        <time>2020-06-12T07:41:48Z</time>
      </trkpt>
      <trkpt lat="49.38165" lon="-1.75233">
        <ele>32.2</ele>
        <time>2020-06-12T07:41:49Z</time>
      </trkpt>
      <trkpt lat="49.3817" lon="-1.75232">
        <ele>31.9</ele>
        <time>2020-06-12T07:41:50Z</time>
      </trkpt>
      <trkpt lat="49.38171" lon="-1.75232">
        <ele>31.8</ele>
        <time>2020-06-12T07:41:51Z</time>
      </trkpt>
      <trkpt lat="49.38175" lon="-1.75231">
        <ele>31.5</ele>
        <time>2020-06-12T07:41:52Z</time>
      </trkpt>
      <trkpt lat="49.38179" lon="-1.75229">
        <ele>31.3</ele>
        <time>2020-06-12T07:41:53Z</time>
      </trkpt>
      <trkpt lat="49.38183" lon="-1.75227">
        <ele>31</ele>
        <time>2020-06-12T07:41:54Z</time>
      </trkpt>
      <trkpt lat="49.38187" lon="-1.75224">
        <ele>30.6</ele>
        <time>2020-06-12T07:41:55Z</time>
      </trkpt>
      <trkpt lat="49.38192" lon="-1.75222">
        <ele>30.3</ele>
        <time>2020-06-12T07:41:56Z</time>
      </trkpt>
      <trkpt lat="49.38197" lon="-1.75218">
        <ele>29.9</ele>
        <time>2020-06-12T07:41:57Z</time>
      </trkpt>
      <trkpt lat="49.38202" lon="-1.75214">
        <ele>29.5</ele>
        <time>2020-06-12T07:41:58Z</time>
      </trkpt>
      <trkpt lat="49.38208" lon="-1.75209">
        <ele>29.1</ele>
        <time>2020-06-12T07:41:59Z</time>
      </trkpt>
      <trkpt lat="49.38213" lon="-1.75203">
        <ele>28.6</ele>
        <time>2020-06-12T07:42:00Z</time>
      </trkpt>
      <trkpt lat="49.38219" lon="-1.75199">
        <ele>28.1</ele>
        <time>2020-06-12T07:42:01Z</time>
      </trkpt>
      <trkpt lat="49.38226" lon="-1.75193">
        <ele>27.6</ele>
        <time>2020-06-12T07:42:02Z</time>
      </trkpt>
      <trkpt lat="49.38232" lon="-1.75186">
        <ele>27.1</ele>
        <time>2020-06-12T07:42:03Z</time>
      </trkpt>
      <trkpt lat="49.38238" lon="-1.7518">
        <ele>25.9</ele>
        <time>2020-06-12T07:42:04Z</time>
      </trkpt>
      <trkpt lat="49.38245" lon="-1.75174">
        <ele>25.9</ele>
        <time>2020-06-12T07:42:05Z</time>
      </trkpt>
      <trkpt lat="49.38252" lon="-1.7517">
        <ele>25.7</ele>
        <time>2020-06-12T07:42:06Z</time>
      </trkpt>
      <trkpt lat="49.38259" lon="-1.75168">
        <ele>25.1</ele>
        <time>2020-06-12T07:42:07Z</time>
      </trkpt>
      <trkpt lat="49.38268" lon="-1.75169">
        <ele>24.4</ele>
        <time>2020-06-12T07:42:08Z</time>
      </trkpt>
      <trkpt lat="49.38277" lon="-1.75168">
        <ele>23.7</ele>
        <time>2020-06-12T07:42:09Z</time>
      </trkpt>
      <trkpt lat="49.38286" lon="-1.75166">
        <ele>23</ele>
        <time>2020-06-12T07:42:10Z</time>
      </trkpt>
      <trkpt lat="49.38294" lon="-1.75167">
        <ele>22.3</ele>
        <time>2020-06-12T07:42:11Z</time>
      </trkpt>
      <trkpt lat="49.38301" lon="-1.75167">
        <ele>21.6</ele>
        <time>2020-06-12T07:42:12Z</time>
      </trkpt>
      <trkpt lat="49.38309" lon="-1.75166">
        <ele>21</ele>
        <time>2020-06-12T07:42:13Z</time>
      </trkpt>
      <trkpt lat="49.38318" lon="-1.75165">
        <ele>20.2</ele>
        <time>2020-06-12T07:42:14Z</time>
      </trkpt>
      <trkpt lat="49.38326" lon="-1.75164">
        <ele>19.5</ele>
        <time>2020-06-12T07:42:15Z</time>
      </trkpt>
      <trkpt lat="49.38335" lon="-1.75163">
        <ele>18.8</ele>
        <time>2020-06-12T07:42:16Z</time>
      </trkpt>
      <trkpt lat="49.38344" lon="-1.75163">
        <ele>18.3</ele>
        <time>2020-06-12T07:42:17Z</time>
      </trkpt>
      <trkpt lat="49.38352" lon="-1.75163">
        <ele>17.8</ele>
        <time>2020-06-12T07:42:18Z</time>
      </trkpt>
      <trkpt lat="49.38359" lon="-1.75163">
        <ele>17.3</ele>
        <time>2020-06-12T07:42:19Z</time>
      </trkpt>
      <trkpt lat="49.38368" lon="-1.75163">
        <ele>16.7</ele>
        <time>2020-06-12T07:42:20Z</time>
      </trkpt>
      <trkpt lat="49.38376" lon="-1.75163">
        <ele>16.2</ele>
        <time>2020-06-12T07:42:21Z</time>
      </trkpt>
      <trkpt lat="49.38383" lon="-1.75164">
        <ele>15.7</ele>
        <time>2020-06-12T07:42:22Z</time>
      </trkpt>
      <trkpt lat="49.3839" lon="-1.75166">
        <ele>15.3</ele>
        <time>2020-06-12T07:42:23Z</time>
      </trkpt>
      <trkpt lat="49.38398" lon="-1.75168">
        <ele>14.8</ele>
        <time>2020-06-12T07:42:24Z</time>
      </trkpt>
      <trkpt lat="49.38405" lon="-1.75169">
        <ele>14.4</ele>
        <time>2020-06-12T07:42:25Z</time>
      </trkpt>
      <trkpt lat="49.38412" lon="-1.7517">
        <ele>14</ele>
        <time>2020-06-12T07:42:26Z</time>
      </trkpt>
      <trkpt lat="49.3842" lon="-1.75172">
        <ele>13.6</ele>
        <time>2020-06-12T07:42:27Z</time>
      </trkpt>
      <trkpt lat="49.38427" lon="-1.75174">
        <ele>13.3</ele>
        <time>2020-06-12T07:42:28Z</time>
      </trkpt>
      <trkpt lat="49.38433" lon="-1.75177">
        <ele>13</ele>
        <time>2020-06-12T07:42:29Z</time>
      </trkpt>
      <trkpt lat="49.3844" lon="-1.75179">
        <ele>12.7</ele>
        <time>2020-06-12T07:42:30Z</time>
      </trkpt>
      <trkpt lat="49.38446" lon="-1.75182">
        <ele>12.5</ele>
        <time>2020-06-12T07:42:31Z</time>
      </trkpt>
      <trkpt lat="49.38452" lon="-1.75184">
        <ele>12.4</ele>
        <time>2020-06-12T07:42:32Z</time>
      </trkpt>
      <trkpt lat="49.38459" lon="-1.75182">
        <ele>12.3</ele>
        <time>2020-06-12T07:42:33Z</time>
      </trkpt>
      <trkpt lat="49.38466" lon="-1.75178">
        <ele>12</ele>
        <time>2020-06-12T07:42:34Z</time>
      </trkpt>
      <trkpt lat="49.3847" lon="-1.75173">
        <ele>11.8</ele>
        <time>2020-06-12T07:42:35Z</time>
      </trkpt>
      <trkpt lat="49.38475" lon="-1.75165">
        <ele>11.5</ele>
        <time>2020-06-12T07:42:36Z</time>
      </trkpt>
      <trkpt lat="49.38479" lon="-1.75157">
        <ele>11.2</ele>
        <time>2020-06-12T07:42:37Z</time>
      </trkpt>
      <trkpt lat="49.38483" lon="-1.75149">
        <ele>11</ele>
        <time>2020-06-12T07:42:38Z</time>
      </trkpt>
      <trkpt lat="49.38488" lon="-1.7514">
        <ele>10.8</ele>
        <time>2020-06-12T07:42:39Z</time>
      </trkpt>
      <trkpt lat="49.38493" lon="-1.75133">
        <ele>10.6</ele>
        <time>2020-06-12T07:42:40Z</time>
      </trkpt>
      <trkpt lat="49.38499" lon="-1.75127">
        <ele>10.5</ele>
        <time>2020-06-12T07:42:41Z</time>
      </trkpt>
      <trkpt lat="49.38504" lon="-1.75121">
        <ele>10.4</ele>
        <time>2020-06-12T07:42:42Z</time>
      </trkpt>
      <trkpt lat="49.38509" lon="-1.75114">
        <ele>10.3</ele>
        <time>2020-06-12T07:42:43Z</time>
      </trkpt>
      <trkpt lat="49.38513" lon="-1.75107">
        <ele>10.3</ele>
        <time>2020-06-12T07:42:44Z</time>
      </trkpt>
      <trkpt lat="49.38517" lon="-1.75099">
        <ele>10.4</ele>
        <time>2020-06-12T07:42:45Z</time>
      </trkpt>
      <trkpt lat="49.38522" lon="-1.75091">
        <ele>10.6</ele>
        <time>2020-06-12T07:42:46Z</time>
      </trkpt>
      <trkpt lat="49.38526" lon="-1.75083">
        <ele>10.8</ele>
        <time>2020-06-12T07:42:47Z</time>
      </trkpt>
      <trkpt lat="49.38529" lon="-1.75076">
        <ele>11.1</ele>
        <time>2020-06-12T07:42:48Z</time>
      </trkpt>
      <trkpt lat="49.38533" lon="-1.7507">
        <ele>11.4</ele>
        <time>2020-06-12T07:42:49Z</time>
      </trkpt>
      <trkpt lat="49.38536" lon="-1.75062">
        <ele>11.8</ele>
        <time>2020-06-12T07:42:50Z</time>
      </trkpt>
      <trkpt lat="49.38539" lon="-1.75055">
        <ele>12.2</ele>
        <time>2020-06-12T07:42:51Z</time>
      </trkpt>
      <trkpt lat="49.38542" lon="-1.75049">
        <ele>12.6</ele>
        <time>2020-06-12T07:42:52Z</time>
      </trkpt>
      <trkpt lat="49.38544" lon="-1.75044">
        <ele>13</ele>
        <time>2020-06-12T07:42:53Z</time>
      </trkpt>
      <trkpt lat="49.38546" lon="-1.7504">
        <ele>13.3</ele>
        <time>2020-06-12T07:42:54Z</time>
      </trkpt>
      <trkpt lat="49.38548" lon="-1.75035">
        <ele>13.7</ele>
        <time>2020-06-12T07:42:55Z</time>
      </trkpt>
      <trkpt lat="49.38549" lon="-1.75034">
        <ele>13.8</ele>
        <time>2020-06-12T07:42:56Z</time>
      </trkpt>
      <trkpt lat="49.3855" lon="-1.75032">
        <ele>14.3</ele>
        <time>2020-06-12T07:42:57Z</time>
      </trkpt>
      <trkpt lat="49.3855" lon="-1.75032">
        <ele>14.3</ele>
        <time>2020-06-12T07:42:58Z</time>
      </trkpt>
      <trkpt lat="49.3855" lon="-1.75029">
        <ele>14.3</ele>
        <time>2020-06-12T07:42:59Z</time>
      </trkpt>
      <trkpt lat="49.38551" lon="-1.75029">
        <ele>14.3</ele>
        <time>2020-06-12T07:43:00Z</time>
      </trkpt>
      <trkpt lat="49.38551" lon="-1.75028">
        <ele>14.4</ele>
        <time>2020-06-12T07:43:01Z</time>
      </trkpt>
      <trkpt lat="49.38552" lon="-1.75027">
        <ele>14.4</ele>
        <time>2020-06-12T07:43:02Z</time>
      </trkpt>
      <trkpt lat="49.38553" lon="-1.75025">
        <ele>14.4</ele>
        <time>2020-06-12T07:43:03Z</time>
      </trkpt>
      <trkpt lat="49.38554" lon="-1.75025">
        <ele>14.4</ele>
        <time>2020-06-12T07:43:04Z</time>
      </trkpt>
      <trkpt lat="49.38556" lon="-1.75028">
        <ele>14.4</ele>
        <time>2020-06-12T07:43:05Z</time>
      </trkpt>
      <trkpt lat="49.38559" lon="-1.75031">
        <ele>14.3</ele>
        <time>2020-06-12T07:43:06Z</time>
      </trkpt>
      <trkpt lat="49.3856" lon="-1.75032">
        <ele>14.3</ele>
        <time>2020-06-12T07:43:07Z</time>
      </trkpt>
      <trkpt lat="49.38564" lon="-1.75035">
        <ele>14.2</ele>
        <time>2020-06-12T07:43:08Z</time>
      </trkpt>
      <trkpt lat="49.38565" lon="-1.75036">
        <ele>14.2</ele>
        <time>2020-06-12T07:43:09Z</time>
      </trkpt>
      <trkpt lat="49.38568" lon="-1.75039">
        <ele>14.1</ele>
        <time>2020-06-12T07:43:10Z</time>
      </trkpt>
      <trkpt lat="49.38572" lon="-1.75043">
        <ele>14</ele>
        <time>2020-06-12T07:43:11Z</time>
      </trkpt>
      <trkpt lat="49.38575" lon="-1.75046">
        <ele>13.9</ele>
        <time>2020-06-12T07:43:12Z</time>
      </trkpt>
      <trkpt lat="49.38579" lon="-1.75051">
        <ele>13.8</ele>
        <time>2020-06-12T07:43:13Z</time>
      </trkpt>
      <trkpt lat="49.38583" lon="-1.75056">
        <ele>13.7</ele>
        <time>2020-06-12T07:43:14Z</time>
      </trkpt>
      <trkpt lat="49.38587" lon="-1.75061">
        <ele>13.6</ele>
        <time>2020-06-12T07:43:15Z</time>
      </trkpt>
      <trkpt lat="49.38592" lon="-1.75066">
        <ele>13.5</ele>
        <time>2020-06-12T07:43:16Z</time>
      </trkpt>
      <trkpt lat="49.38597" lon="-1.75071">
        <ele>13.4</ele>
        <time>2020-06-12T07:43:17Z</time>
      </trkpt>
      <trkpt lat="49.386" lon="-1.75076">
        <ele>13.3</ele>
        <time>2020-06-12T07:43:18Z</time>
      </trkpt>
      <trkpt lat="49.38605" lon="-1.75082">
        <ele>13.2</ele>
        <time>2020-06-12T07:43:19Z</time>
      </trkpt>
      <trkpt lat="49.3861" lon="-1.75088">
        <ele>13.1</ele>
        <time>2020-06-12T07:43:20Z</time>
      </trkpt>
      <trkpt lat="49.38615" lon="-1.75093">
        <ele>13.1</ele>
        <time>2020-06-12T07:43:21Z</time>
      </trkpt>
      <trkpt lat="49.38621" lon="-1.75099">
        <ele>13</ele>
        <time>2020-06-12T07:43:22Z</time>
      </trkpt>
      <trkpt lat="49.38626" lon="-1.75106">
        <ele>13</ele>
        <time>2020-06-12T07:43:23Z</time>
      </trkpt>
      <trkpt lat="49.38631" lon="-1.75111">
        <ele>12.9</ele>
        <time>2020-06-12T07:43:24Z</time>
      </trkpt>
      <trkpt lat="49.38636" lon="-1.75117">
        <ele>12.8</ele>
        <time>2020-06-12T07:43:25Z</time>
      </trkpt>
      <trkpt lat="49.38642" lon="-1.75123">
        <ele>12.8</ele>
        <time>2020-06-12T07:43:26Z</time>
      </trkpt>
      <trkpt lat="49.38647" lon="-1.7513">
        <ele>12.8</ele>
        <time>2020-06-12T07:43:27Z</time>
      </trkpt>
      <trkpt lat="49.38653" lon="-1.75138">
        <ele>12.8</ele>
        <time>2020-06-12T07:43:28Z</time>
      </trkpt>
      <trkpt lat="49.38658" lon="-1.75144">
        <ele>12.9</ele>
        <time>2020-06-12T07:43:29Z</time>
      </trkpt>
      <trkpt lat="49.38664" lon="-1.7515">
        <ele>13.1</ele>
        <time>2020-06-12T07:43:30Z</time>
      </trkpt>
      <trkpt lat="49.38668" lon="-1.75157">
        <ele>13.2</ele>
        <time>2020-06-12T07:43:31Z</time>
      </trkpt>
      <trkpt lat="49.38674" lon="-1.75164">
        <ele>13.4</ele>
        <time>2020-06-12T07:43:32Z</time>
      </trkpt>
      <trkpt lat="49.38679" lon="-1.75173">
        <ele>13.4</ele>
        <time>2020-06-12T07:43:33Z</time>
      </trkpt>
      <trkpt lat="49.38684" lon="-1.75181">
        <ele>13.4</ele>
        <time>2020-06-12T07:43:34Z</time>
      </trkpt>
      <trkpt lat="49.3869" lon="-1.75188">
        <ele>13.4</ele>
        <time>2020-06-12T07:43:35Z</time>
      </trkpt>
      <trkpt lat="49.38695" lon="-1.75196">
        <ele>13.4</ele>
        <time>2020-06-12T07:43:36Z</time>
      </trkpt>
      <trkpt lat="49.38699" lon="-1.75202">
        <ele>13.4</ele>
        <time>2020-06-12T07:43:37Z</time>
      </trkpt>
      <trkpt lat="49.38703" lon="-1.75209">
        <ele>13.4</ele>
        <time>2020-06-12T07:43:38Z</time>
      </trkpt>
      <trkpt lat="49.38707" lon="-1.75216">
        <ele>13.5</ele>
        <time>2020-06-12T07:43:39Z</time>
      </trkpt>
      <trkpt lat="49.38711" lon="-1.75222">
        <ele>13.6</ele>
        <time>2020-06-12T07:43:40Z</time>
      </trkpt>
      <trkpt lat="49.38715" lon="-1.75229">
        <ele>13.7</ele>
        <time>2020-06-12T07:43:41Z</time>
      </trkpt>
      <trkpt lat="49.38719" lon="-1.75236">
        <ele>13.8</ele>
        <time>2020-06-12T07:43:42Z</time>
      </trkpt>
      <trkpt lat="49.38723" lon="-1.75243">
        <ele>14</ele>
        <time>2020-06-12T07:43:43Z</time>
      </trkpt>
      <trkpt lat="49.38727" lon="-1.75248">
        <ele>14.2</ele>
        <time>2020-06-12T07:43:44Z</time>
      </trkpt>
      <trkpt lat="49.38732" lon="-1.75254">
        <ele>14.4</ele>
        <time>2020-06-12T07:43:45Z</time>
      </trkpt>
      <trkpt lat="49.38736" lon="-1.75261">
        <ele>14.7</ele>
        <time>2020-06-12T07:43:46Z</time>
      </trkpt>
      <trkpt lat="49.3874" lon="-1.75268">
        <ele>15.1</ele>
        <time>2020-06-12T07:43:47Z</time>
      </trkpt>
      <trkpt lat="49.38742" lon="-1.75274">
        <ele>15.3</ele>
        <time>2020-06-12T07:43:48Z</time>
      </trkpt>
      <trkpt lat="49.38746" lon="-1.7528">
        <ele>15.6</ele>
        <time>2020-06-12T07:43:49Z</time>
      </trkpt>
      <trkpt lat="49.3875" lon="-1.75286">
        <ele>15.9</ele>
        <time>2020-06-12T07:43:50Z</time>
      </trkpt>
      <trkpt lat="49.38753" lon="-1.75291">
        <ele>16.1</ele>
        <time>2020-06-12T07:43:51Z</time>
      </trkpt>
      <trkpt lat="49.38758" lon="-1.75297">
        <ele>16.4</ele>
        <time>2020-06-12T07:43:52Z</time>
      </trkpt>
      <trkpt lat="49.38761" lon="-1.75302">
        <ele>16.7</ele>
        <time>2020-06-12T07:43:53Z</time>
      </trkpt>
      <trkpt lat="49.38764" lon="-1.75309">
        <ele>17</ele>
        <time>2020-06-12T07:43:54Z</time>
      </trkpt>
      <trkpt lat="49.38768" lon="-1.75315">
        <ele>17.3</ele>
        <time>2020-06-12T07:43:55Z</time>
      </trkpt>
      <trkpt lat="49.38771" lon="-1.7532">
        <ele>17.9</ele>
        <time>2020-06-12T07:43:56Z</time>
      </trkpt>
      <trkpt lat="49.38774" lon="-1.75326">
        <ele>18.3</ele>
        <time>2020-06-12T07:43:57Z</time>
      </trkpt>
      <trkpt lat="49.38775" lon="-1.7533">
        <ele>18.5</ele>
        <time>2020-06-12T07:43:58Z</time>
      </trkpt>
      <trkpt lat="49.38779" lon="-1.75337">
        <ele>19</ele>
        <time>2020-06-12T07:43:59Z</time>
      </trkpt>
      <trkpt lat="49.38781" lon="-1.75341">
        <ele>19.3</ele>
        <time>2020-06-12T07:44:00Z</time>
      </trkpt>
      <trkpt lat="49.38783" lon="-1.75345">
        <ele>19.5</ele>
        <time>2020-06-12T07:44:01Z</time>
      </trkpt>
      <trkpt lat="49.38784" lon="-1.75349">
        <ele>19.7</ele>
        <time>2020-06-12T07:44:02Z</time>
      </trkpt>
      <trkpt lat="49.38787" lon="-1.75352">
        <ele>20</ele>
        <time>2020-06-12T07:44:03Z</time>
      </trkpt>
      <trkpt lat="49.38788" lon="-1.75356">
        <ele>20.2</ele>
        <time>2020-06-12T07:44:04Z</time>
      </trkpt>
      <trkpt lat="49.38791" lon="-1.75361">
        <ele>20.5</ele>
        <time>2020-06-12T07:44:05Z</time>
      </trkpt>
      <trkpt lat="49.38793" lon="-1.75366">
        <ele>20.8</ele>
        <time>2020-06-12T07:44:06Z</time>
      </trkpt>
      <trkpt lat="49.38795" lon="-1.75371">
        <ele>21.1</ele>
        <time>2020-06-12T07:44:07Z</time>
      </trkpt>
      <trkpt lat="49.38798" lon="-1.75376">
        <ele>21.4</ele>
        <time>2020-06-12T07:44:08Z</time>
      </trkpt>
      <trkpt lat="49.388" lon="-1.7538">
        <ele>21.7</ele>
        <time>2020-06-12T07:44:09Z</time>
      </trkpt>
      <trkpt lat="49.38802" lon="-1.75385">
        <ele>22</ele>
        <time>2020-06-12T07:44:10Z</time>
      </trkpt>
      <trkpt lat="49.38803" lon="-1.75389">
        <ele>22.3</ele>
        <time>2020-06-12T07:44:11Z</time>
      </trkpt>
      <trkpt lat="49.38806" lon="-1.75393">
        <ele>22.6</ele>
        <time>2020-06-12T07:44:12Z</time>
      </trkpt>
      <trkpt lat="49.38807" lon="-1.75395">
        <ele>22.7</ele>
        <time>2020-06-12T07:44:13Z</time>
      </trkpt>
      <trkpt lat="49.38809" lon="-1.75398">
        <ele>22.9</ele>
        <time>2020-06-12T07:44:14Z</time>
      </trkpt>
      <trkpt lat="49.38812" lon="-1.75402">
        <ele>23.3</ele>
        <time>2020-06-12T07:44:15Z</time>
      </trkpt>
      <trkpt lat="49.38814" lon="-1.75405">
        <ele>23.5</ele>
        <time>2020-06-12T07:44:16Z</time>
      </trkpt>
      <trkpt lat="49.38816" lon="-1.7541">
        <ele>23.8</ele>
        <time>2020-06-12T07:44:17Z</time>
      </trkpt>
      <trkpt lat="49.38818" lon="-1.75414">
        <ele>24.1</ele>
        <time>2020-06-12T07:44:18Z</time>
      </trkpt>
      <trkpt lat="49.38819" lon="-1.75416">
        <ele>24.2</ele>
        <time>2020-06-12T07:44:19Z</time>
      </trkpt>
      <trkpt lat="49.38821" lon="-1.75419">
        <ele>24.4</ele>
        <time>2020-06-12T07:44:20Z</time>
      </trkpt>
      <trkpt lat="49.38822" lon="-1.75423">
        <ele>24.7</ele>
        <time>2020-06-12T07:44:21Z</time>
      </trkpt>
      <trkpt lat="49.38824" lon="-1.75427">
        <ele>24.8</ele>
        <time>2020-06-12T07:44:22Z</time>
      </trkpt>
      <trkpt lat="49.38824" lon="-1.75429">
        <ele>24.8</ele>
        <time>2020-06-12T07:44:23Z</time>
      </trkpt>
      <trkpt lat="49.38826" lon="-1.75433">
        <ele>24.9</ele>
        <time>2020-06-12T07:44:24Z</time>
      </trkpt>
      <trkpt lat="49.38827" lon="-1.75437">
        <ele>25</ele>
        <time>2020-06-12T07:44:25Z</time>
      </trkpt>
      <trkpt lat="49.38829" lon="-1.75443">
        <ele>25.1</ele>
        <time>2020-06-12T07:44:26Z</time>
      </trkpt>
      <trkpt lat="49.3883" lon="-1.75445">
        <ele>25.2</ele>
        <time>2020-06-12T07:44:27Z</time>
      </trkpt>
      <trkpt lat="49.38832" lon="-1.7545">
        <ele>25.3</ele>
        <time>2020-06-12T07:44:28Z</time>
      </trkpt>
      <trkpt lat="49.38833" lon="-1.75454">
        <ele>25.5</ele>
        <time>2020-06-12T07:44:29Z</time>
      </trkpt>
      <trkpt lat="49.38835" lon="-1.75458">
        <ele>25.7</ele>
        <time>2020-06-12T07:44:30Z</time>
      </trkpt>
      <trkpt lat="49.38836" lon="-1.75461">
        <ele>25.9</ele>
        <time>2020-06-12T07:44:31Z</time>
      </trkpt>
      <trkpt lat="49.38838" lon="-1.75466">
        <ele>26.2</ele>
        <time>2020-06-12T07:44:32Z</time>
      </trkpt>
      <trkpt lat="49.38839" lon="-1.75471">
        <ele>26.4</ele>
        <time>2020-06-12T07:44:33Z</time>
      </trkpt>
      <trkpt lat="49.38841" lon="-1.75475">
        <ele>26.7</ele>
        <time>2020-06-12T07:44:34Z</time>
      </trkpt>
      <trkpt lat="49.38842" lon="-1.75476">
        <ele>26.7</ele>
        <time>2020-06-12T07:44:35Z</time>
      </trkpt>
      <trkpt lat="49.38843" lon="-1.75481">
        <ele>27</ele>
        <time>2020-06-12T07:44:36Z</time>
      </trkpt>
      <trkpt lat="49.38844" lon="-1.75482">
        <ele>27.1</ele>
        <time>2020-06-12T07:44:37Z</time>
      </trkpt>
      <trkpt lat="49.38846" lon="-1.75486">
        <ele>27.3</ele>
        <time>2020-06-12T07:44:38Z</time>
      </trkpt>
      <trkpt lat="49.38848" lon="-1.75491">
        <ele>27.6</ele>
        <time>2020-06-12T07:44:39Z</time>
      </trkpt>
      <trkpt lat="49.38848" lon="-1.75493">
        <ele>27.7</ele>
        <time>2020-06-12T07:44:40Z</time>
      </trkpt>
      <trkpt lat="49.38849" lon="-1.75497">
        <ele>27.9</ele>
        <time>2020-06-12T07:44:41Z</time>
      </trkpt>
      <trkpt lat="49.3885" lon="-1.75501">
        <ele>28.1</ele>
        <time>2020-06-12T07:44:42Z</time>
      </trkpt>
      <trkpt lat="49.38851" lon="-1.75505">
        <ele>28.3</ele>
        <time>2020-06-12T07:44:43Z</time>
      </trkpt>
      <trkpt lat="49.38852" lon="-1.75507">
        <ele>28.4</ele>
        <time>2020-06-12T07:44:44Z</time>
      </trkpt>
      <trkpt lat="49.38853" lon="-1.75511">
        <ele>28.6</ele>
        <time>2020-06-12T07:44:45Z</time>
      </trkpt>
      <trkpt lat="49.38855" lon="-1.75515">
        <ele>28.9</ele>
        <time>2020-06-12T07:44:46Z</time>
      </trkpt>
      <trkpt lat="49.38856" lon="-1.7552">
        <ele>29.1</ele>
        <time>2020-06-12T07:44:47Z</time>
      </trkpt>
      <trkpt lat="49.38857" lon="-1.75524">
        <ele>29.3</ele>
        <time>2020-06-12T07:44:48Z</time>
      </trkpt>
      <trkpt lat="49.38858" lon="-1.75526">
        <ele>29.4</ele>
        <time>2020-06-12T07:44:49Z</time>
      </trkpt>
      <trkpt lat="49.3886" lon="-1.7553">
        <ele>29.6</ele>
        <time>2020-06-12T07:44:50Z</time>
      </trkpt>
      <trkpt lat="49.38862" lon="-1.75534">
        <ele>29.9</ele>
        <time>2020-06-12T07:44:51Z</time>
      </trkpt>
      <trkpt lat="49.38863" lon="-1.75536">
        <ele>30</ele>
        <time>2020-06-12T07:44:52Z</time>
      </trkpt>
      <trkpt lat="49.38865" lon="-1.75539">
        <ele>30.2</ele>
        <time>2020-06-12T07:44:53Z</time>
      </trkpt>
      <trkpt lat="49.38867" lon="-1.75543">
        <ele>30.5</ele>
        <time>2020-06-12T07:44:54Z</time>
      </trkpt>
      <trkpt lat="49.38869" lon="-1.75547">
        <ele>30.7</ele>
        <time>2020-06-12T07:44:55Z</time>
      </trkpt>
      <trkpt lat="49.3887" lon="-1.75549">
        <ele>30.9</ele>
        <time>2020-06-12T07:44:56Z</time>
      </trkpt>
      <trkpt lat="49.38872" lon="-1.75553">
        <ele>31.1</ele>
        <time>2020-06-12T07:44:57Z</time>
      </trkpt>
      <trkpt lat="49.38873" lon="-1.75557">
        <ele>31.4</ele>
        <time>2020-06-12T07:44:58Z</time>
      </trkpt>
      <trkpt lat="49.38875" lon="-1.75561">
        <ele>31.7</ele>
        <time>2020-06-12T07:44:59Z</time>
      </trkpt>
      <trkpt lat="49.38876" lon="-1.75565">
        <ele>31.9</ele>
        <time>2020-06-12T07:45:00Z</time>
      </trkpt>
      <trkpt lat="49.38877" lon="-1.7557">
        <ele>32.2</ele>
        <time>2020-06-12T07:45:01Z</time>
      </trkpt>
      <trkpt lat="49.38877" lon="-1.75572">
        <ele>32.3</ele>
        <time>2020-06-12T07:45:02Z</time>
      </trkpt>
      <trkpt lat="49.38879" lon="-1.75577">
        <ele>32.6</ele>
        <time>2020-06-12T07:45:03Z</time>
      </trkpt>
      <trkpt lat="49.38879" lon="-1.75579">
        <ele>32.7</ele>
        <time>2020-06-12T07:45:04Z</time>
      </trkpt>
      <trkpt lat="49.38881" lon="-1.75584">
        <ele>33</ele>
        <time>2020-06-12T07:45:05Z</time>
      </trkpt>
      <trkpt lat="49.38881" lon="-1.75586">
        <ele>33.1</ele>
        <time>2020-06-12T07:45:06Z</time>
      </trkpt>
      <trkpt lat="49.38883" lon="-1.75589">
        <ele>33.3</ele>
        <time>2020-06-12T07:45:07Z</time>
      </trkpt>
      <trkpt lat="49.38885" lon="-1.75594">
        <ele>33.5</ele>
        <time>2020-06-12T07:45:08Z</time>
      </trkpt>
      <trkpt lat="49.38885" lon="-1.75599">
        <ele>33.8</ele>
        <time>2020-06-12T07:45:09Z</time>
      </trkpt>
      <trkpt lat="49.38886" lon="-1.756">
        <ele>33.8</ele>
        <time>2020-06-12T07:45:10Z</time>
      </trkpt>
      <trkpt lat="49.38887" lon="-1.75604">
        <ele>34.1</ele>
        <time>2020-06-12T07:45:11Z</time>
      </trkpt>
      <trkpt lat="49.38889" lon="-1.75609">
        <ele>34.3</ele>
        <time>2020-06-12T07:45:12Z</time>
      </trkpt>
      <trkpt lat="49.3889" lon="-1.75611">
        <ele>34.4</ele>
        <time>2020-06-12T07:45:13Z</time>
      </trkpt>
      <trkpt lat="49.38892" lon="-1.75617">
        <ele>34.7</ele>
        <time>2020-06-12T07:45:14Z</time>
      </trkpt>
      <trkpt lat="49.38893" lon="-1.75619">
        <ele>34.8</ele>
        <time>2020-06-12T07:45:15Z</time>
      </trkpt>
      <trkpt lat="49.38895" lon="-1.75624">
        <ele>35.1</ele>
        <time>2020-06-12T07:45:16Z</time>
      </trkpt>
      <trkpt lat="49.38895" lon="-1.75626">
        <ele>35.2</ele>
        <time>2020-06-12T07:45:17Z</time>
      </trkpt>
      <trkpt lat="49.38897" lon="-1.75632">
        <ele>35.4</ele>
        <time>2020-06-12T07:45:18Z</time>
      </trkpt>
      <trkpt lat="49.38897" lon="-1.75633">
        <ele>35.5</ele>
        <time>2020-06-12T07:45:19Z</time>
      </trkpt>
      <trkpt lat="49.38899" lon="-1.75639">
        <ele>35.8</ele>
        <time>2020-06-12T07:45:20Z</time>
      </trkpt>
      <trkpt lat="49.389" lon="-1.75641">
        <ele>35.9</ele>
        <time>2020-06-12T07:45:21Z</time>
      </trkpt>
      <trkpt lat="49.38902" lon="-1.75646">
        <ele>36.1</ele>
        <time>2020-06-12T07:45:22Z</time>
      </trkpt>
      <trkpt lat="49.38903" lon="-1.75647">
        <ele>36.2</ele>
        <time>2020-06-12T07:45:23Z</time>
      </trkpt>
      <trkpt lat="49.38905" lon="-1.75652">
        <ele>36.5</ele>
        <time>2020-06-12T07:45:24Z</time>
      </trkpt>
      <trkpt lat="49.38905" lon="-1.75654">
        <ele>36.6</ele>
        <time>2020-06-12T07:45:25Z</time>
      </trkpt>
      <trkpt lat="49.38907" lon="-1.7566">
        <ele>36.9</ele>
        <time>2020-06-12T07:45:26Z</time>
      </trkpt>
      <trkpt lat="49.38908" lon="-1.75662">
        <ele>37</ele>
        <time>2020-06-12T07:45:27Z</time>
      </trkpt>
      <trkpt lat="49.3891" lon="-1.75667">
        <ele>37.2</ele>
        <time>2020-06-12T07:45:28Z</time>
      </trkpt>
      <trkpt lat="49.38911" lon="-1.75672">
        <ele>37.4</ele>
        <time>2020-06-12T07:45:29Z</time>
      </trkpt>
      <trkpt lat="49.38912" lon="-1.75674">
        <ele>37.5</ele>
        <time>2020-06-12T07:45:30Z</time>
      </trkpt>
      <trkpt lat="49.38913" lon="-1.75678">
        <ele>37.7</ele>
        <time>2020-06-12T07:45:31Z</time>
      </trkpt>
      <trkpt lat="49.38915" lon="-1.75682">
        <ele>37.9</ele>
        <time>2020-06-12T07:45:32Z</time>
      </trkpt>
      <trkpt lat="49.38916" lon="-1.75688">
        <ele>38.1</ele>
        <time>2020-06-12T07:45:33Z</time>
      </trkpt>
      <trkpt lat="49.38917" lon="-1.7569">
        <ele>38.2</ele>
        <time>2020-06-12T07:45:34Z</time>
      </trkpt>
      <trkpt lat="49.38918" lon="-1.75694">
        <ele>38.4</ele>
        <time>2020-06-12T07:45:35Z</time>
      </trkpt>
      <trkpt lat="49.38919" lon="-1.75697">
        <ele>38.6</ele>
        <time>2020-06-12T07:45:36Z</time>
      </trkpt>
      <trkpt lat="49.38921" lon="-1.75701">
        <ele>38.8</ele>
        <time>2020-06-12T07:45:37Z</time>
      </trkpt>
      <trkpt lat="49.38923" lon="-1.75706">
        <ele>39</ele>
        <time>2020-06-12T07:45:38Z</time>
      </trkpt>
      <trkpt lat="49.38923" lon="-1.75707">
        <ele>39.1</ele>
        <time>2020-06-12T07:45:39Z</time>
      </trkpt>
      <trkpt lat="49.38925" lon="-1.75712">
        <ele>39.3</ele>
        <time>2020-06-12T07:45:40Z</time>
      </trkpt>
      <trkpt lat="49.38925" lon="-1.75714">
        <ele>39.4</ele>
        <time>2020-06-12T07:45:41Z</time>
      </trkpt>
      <trkpt lat="49.38927" lon="-1.75719">
        <ele>39.7</ele>
        <time>2020-06-12T07:45:42Z</time>
      </trkpt>
      <trkpt lat="49.38927" lon="-1.75721">
        <ele>39.8</ele>
        <time>2020-06-12T07:45:43Z</time>
      </trkpt>
      <trkpt lat="49.38929" lon="-1.75725">
        <ele>40</ele>
        <time>2020-06-12T07:45:44Z</time>
      </trkpt>
      <trkpt lat="49.38929" lon="-1.75727">
        <ele>40.1</ele>
        <time>2020-06-12T07:45:45Z</time>
      </trkpt>
      <trkpt lat="49.38931" lon="-1.75731">
        <ele>40.3</ele>
        <time>2020-06-12T07:45:46Z</time>
      </trkpt>
      <trkpt lat="49.38932" lon="-1.75735">
        <ele>40.5</ele>
        <time>2020-06-12T07:45:47Z</time>
      </trkpt>
      <trkpt lat="49.38934" lon="-1.75739">
        <ele>40.7</ele>
        <time>2020-06-12T07:45:48Z</time>
      </trkpt>
      <trkpt lat="49.38934" lon="-1.7574">
        <ele>40.8</ele>
        <time>2020-06-12T07:45:49Z</time>
      </trkpt>
      <trkpt lat="49.38936" lon="-1.75744">
        <ele>41</ele>
        <time>2020-06-12T07:45:50Z</time>
      </trkpt>
      <trkpt lat="49.38937" lon="-1.75749">
        <ele>41.2</ele>
        <time>2020-06-12T07:45:51Z</time>
      </trkpt>
      <trkpt lat="49.38938" lon="-1.75751">
        <ele>41.3</ele>
        <time>2020-06-12T07:45:52Z</time>
      </trkpt>
      <trkpt lat="49.38939" lon="-1.75754">
        <ele>41.5</ele>
        <time>2020-06-12T07:45:53Z</time>
      </trkpt>
      <trkpt lat="49.38941" lon="-1.75758">
        <ele>41.7</ele>
        <time>2020-06-12T07:45:54Z</time>
      </trkpt>
      <trkpt lat="49.38942" lon="-1.75762">
        <ele>41.9</ele>
        <time>2020-06-12T07:45:55Z</time>
      </trkpt>
      <trkpt lat="49.38945" lon="-1.75767">
        <ele>42.2</ele>
        <time>2020-06-12T07:45:56Z</time>
      </trkpt>
      <trkpt lat="49.38947" lon="-1.75772">
        <ele>42.4</ele>
        <time>2020-06-12T07:45:57Z</time>
      </trkpt>
      <trkpt lat="49.38947" lon="-1.75774">
        <ele>42.5</ele>
        <time>2020-06-12T07:45:58Z</time>
      </trkpt>
      <trkpt lat="49.38948" lon="-1.75778">
        <ele>42.7</ele>
        <time>2020-06-12T07:45:59Z</time>
      </trkpt>
      <trkpt lat="49.3895" lon="-1.75782">
        <ele>42.9</ele>
        <time>2020-06-12T07:46:00Z</time>
      </trkpt>
      <trkpt lat="49.38951" lon="-1.75786">
        <ele>43.1</ele>
        <time>2020-06-12T07:46:01Z</time>
      </trkpt>
      <trkpt lat="49.38953" lon="-1.75791">
        <ele>43.4</ele>
        <time>2020-06-12T07:46:02Z</time>
      </trkpt>
      <trkpt lat="49.38953" lon="-1.75792">
        <ele>43.4</ele>
        <time>2020-06-12T07:46:03Z</time>
      </trkpt>
      <trkpt lat="49.38955" lon="-1.75796">
        <ele>43.6</ele>
        <time>2020-06-12T07:46:04Z</time>
      </trkpt>
      <trkpt lat="49.38957" lon="-1.758">
        <ele>43.8</ele>
        <time>2020-06-12T07:46:05Z</time>
      </trkpt>
      <trkpt lat="49.38957" lon="-1.75802">
        <ele>43.9</ele>
        <time>2020-06-12T07:46:06Z</time>
      </trkpt>
      <trkpt lat="49.38958" lon="-1.75806">
        <ele>44.1</ele>
        <time>2020-06-12T07:46:07Z</time>
      </trkpt>
      <trkpt lat="49.3896" lon="-1.75809">
        <ele>44.3</ele>
        <time>2020-06-12T07:46:08Z</time>
      </trkpt>
      <trkpt lat="49.38962" lon="-1.75813">
        <ele>44.5</ele>
        <time>2020-06-12T07:46:09Z</time>
      </trkpt>
      <trkpt lat="49.38963" lon="-1.75817">
        <ele>44.7</ele>
        <time>2020-06-12T07:46:10Z</time>
      </trkpt>
      <trkpt lat="49.38964" lon="-1.75821">
        <ele>44.9</ele>
        <time>2020-06-12T07:46:11Z</time>
      </trkpt>
      <trkpt lat="49.38966" lon="-1.75826">
        <ele>45.1</ele>
        <time>2020-06-12T07:46:12Z</time>
      </trkpt>
      <trkpt lat="49.38966" lon="-1.75828">
        <ele>45.2</ele>
        <time>2020-06-12T07:46:13Z</time>
      </trkpt>
      <trkpt lat="49.38968" lon="-1.75833">
        <ele>45.4</ele>
        <time>2020-06-12T07:46:14Z</time>
      </trkpt>
      <trkpt lat="49.38969" lon="-1.75835">
        <ele>45.5</ele>
        <time>2020-06-12T07:46:15Z</time>
      </trkpt>
      <trkpt lat="49.3897" lon="-1.75839">
        <ele>45.7</ele>
        <time>2020-06-12T07:46:16Z</time>
      </trkpt>
      <trkpt lat="49.38972" lon="-1.75844">
        <ele>45.9</ele>
        <time>2020-06-12T07:46:17Z</time>
      </trkpt>
      <trkpt lat="49.38972" lon="-1.75845">
        <ele>46</ele>
        <time>2020-06-12T07:46:18Z</time>
      </trkpt>
      <trkpt lat="49.38973" lon="-1.75849">
        <ele>46.2</ele>
        <time>2020-06-12T07:46:19Z</time>
      </trkpt>
      <trkpt lat="49.38975" lon="-1.75854">
        <ele>46.4</ele>
        <time>2020-06-12T07:46:20Z</time>
      </trkpt>
      <trkpt lat="49.38976" lon="-1.75856">
        <ele>46.5</ele>
        <time>2020-06-12T07:46:21Z</time>
      </trkpt>
      <trkpt lat="49.38978" lon="-1.75862">
        <ele>46.8</ele>
        <time>2020-06-12T07:46:22Z</time>
      </trkpt>
      <trkpt lat="49.38979" lon="-1.75864">
        <ele>46.9</ele>
        <time>2020-06-12T07:46:23Z</time>
      </trkpt>
      <trkpt lat="49.3898" lon="-1.75868">
        <ele>47.1</ele>
        <time>2020-06-12T07:46:24Z</time>
      </trkpt>
      <trkpt lat="49.38981" lon="-1.75873">
        <ele>47.3</ele>
        <time>2020-06-12T07:46:25Z</time>
      </trkpt>
      <trkpt lat="49.38981" lon="-1.75875">
        <ele>47.4</ele>
        <time>2020-06-12T07:46:26Z</time>
      </trkpt>
      <trkpt lat="49.38982" lon="-1.75879">
        <ele>47.5</ele>
        <time>2020-06-12T07:46:27Z</time>
      </trkpt>
      <trkpt lat="49.38983" lon="-1.75884">
        <ele>47.8</ele>
        <time>2020-06-12T07:46:28Z</time>
      </trkpt>
      <trkpt lat="49.38984" lon="-1.75886">
        <ele>47.8</ele>
        <time>2020-06-12T07:46:29Z</time>
      </trkpt>
      <trkpt lat="49.38985" lon="-1.75891">
        <ele>48</ele>
        <time>2020-06-12T07:46:30Z</time>
      </trkpt>
      <trkpt lat="49.38986" lon="-1.75893">
        <ele>48.1</ele>
        <time>2020-06-12T07:46:31Z</time>
      </trkpt>
      <trkpt lat="49.38987" lon="-1.75898">
        <ele>48.3</ele>
        <time>2020-06-12T07:46:32Z</time>
      </trkpt>
      <trkpt lat="49.38987" lon="-1.75902">
        <ele>48.5</ele>
        <time>2020-06-12T07:46:33Z</time>
      </trkpt>
      <trkpt lat="49.38989" lon="-1.75907">
        <ele>48.7</ele>
        <time>2020-06-12T07:46:34Z</time>
      </trkpt>
      <trkpt lat="49.3899" lon="-1.75911">
        <ele>48.9</ele>
        <time>2020-06-12T07:46:35Z</time>
      </trkpt>
      <trkpt lat="49.38991" lon="-1.75916">
        <ele>49</ele>
        <time>2020-06-12T07:46:36Z</time>
      </trkpt>
      <trkpt lat="49.38992" lon="-1.7592">
        <ele>49.2</ele>
        <time>2020-06-12T07:46:37Z</time>
      </trkpt>
      <trkpt lat="49.38993" lon="-1.75924">
        <ele>49.4</ele>
        <time>2020-06-12T07:46:38Z</time>
      </trkpt>
      <trkpt lat="49.38994" lon="-1.75929">
        <ele>49.5</ele>
        <time>2020-06-12T07:46:39Z</time>
      </trkpt>
      <trkpt lat="49.38995" lon="-1.75933">
        <ele>49.7</ele>
        <time>2020-06-12T07:46:40Z</time>
      </trkpt>
      <trkpt lat="49.38996" lon="-1.75938">
        <ele>49.9</ele>
        <time>2020-06-12T07:46:41Z</time>
      </trkpt>
      <trkpt lat="49.38998" lon="-1.75943">
        <ele>50.1</ele>
        <time>2020-06-12T07:46:42Z</time>
      </trkpt>
      <trkpt lat="49.38999" lon="-1.75945">
        <ele>50.2</ele>
        <time>2020-06-12T07:46:43Z</time>
      </trkpt>
      <trkpt lat="49.39" lon="-1.75949">
        <ele>50.3</ele>
        <time>2020-06-12T07:46:44Z</time>
      </trkpt>
      <trkpt lat="49.39001" lon="-1.75953">
        <ele>50.5</ele>
        <time>2020-06-12T07:46:45Z</time>
      </trkpt>
      <trkpt lat="49.39002" lon="-1.75957">
        <ele>50.7</ele>
        <time>2020-06-12T07:46:46Z</time>
      </trkpt>
      <trkpt lat="49.39003" lon="-1.75962">
        <ele>50.9</ele>
        <time>2020-06-12T07:46:47Z</time>
      </trkpt>
      <trkpt lat="49.39004" lon="-1.75966">
        <ele>51</ele>
        <time>2020-06-12T07:46:48Z</time>
      </trkpt>
      <trkpt lat="49.39005" lon="-1.75971">
        <ele>51.2</ele>
        <time>2020-06-12T07:46:49Z</time>
      </trkpt>
      <trkpt lat="49.39006" lon="-1.75975">
        <ele>51.4</ele>
        <time>2020-06-12T07:46:50Z</time>
      </trkpt>
      <trkpt lat="49.39007" lon="-1.75979">
        <ele>51.5</ele>
        <time>2020-06-12T07:46:51Z</time>
      </trkpt>
      <trkpt lat="49.39008" lon="-1.75983">
        <ele>51.7</ele>
        <time>2020-06-12T07:46:52Z</time>
      </trkpt>
      <trkpt lat="49.3901" lon="-1.75989">
        <ele>51.9</ele>
        <time>2020-06-12T07:46:53Z</time>
      </trkpt>
      <trkpt lat="49.3901" lon="-1.75991">
        <ele>52</ele>
        <time>2020-06-12T07:46:54Z</time>
      </trkpt>
      <trkpt lat="49.39012" lon="-1.75996">
        <ele>52.2</ele>
        <time>2020-06-12T07:46:55Z</time>
      </trkpt>
      <trkpt lat="49.39012" lon="-1.75998">
        <ele>52.3</ele>
        <time>2020-06-12T07:46:56Z</time>
      </trkpt>
      <trkpt lat="49.39013" lon="-1.76005">
        <ele>52.5</ele>
        <time>2020-06-12T07:46:57Z</time>
      </trkpt>
      <trkpt lat="49.39013" lon="-1.76007">
        <ele>52.6</ele>
        <time>2020-06-12T07:46:58Z</time>
      </trkpt>
      <trkpt lat="49.39014" lon="-1.76013">
        <ele>52.8</ele>
        <time>2020-06-12T07:46:59Z</time>
      </trkpt>
      <trkpt lat="49.39014" lon="-1.76015">
        <ele>52.8</ele>
        <time>2020-06-12T07:47:00Z</time>
      </trkpt>
      <trkpt lat="49.39014" lon="-1.76019">
        <ele>53</ele>
        <time>2020-06-12T07:47:01Z</time>
      </trkpt>
      <trkpt lat="49.39015" lon="-1.76023">
        <ele>53.1</ele>
        <time>2020-06-12T07:47:02Z</time>
      </trkpt>
      <trkpt lat="49.39016" lon="-1.76028">
        <ele>53.3</ele>
        <time>2020-06-12T07:47:03Z</time>
      </trkpt>
      <trkpt lat="49.39017" lon="-1.76033">
        <ele>53.4</ele>
        <time>2020-06-12T07:47:04Z</time>
      </trkpt>
      <trkpt lat="49.39018" lon="-1.76039">
        <ele>53.6</ele>
        <time>2020-06-12T07:47:05Z</time>
      </trkpt>
      <trkpt lat="49.39018" lon="-1.76041">
        <ele>53.7</ele>
        <time>2020-06-12T07:47:06Z</time>
      </trkpt>
      <trkpt lat="49.39019" lon="-1.76046">
        <ele>53.9</ele>
        <time>2020-06-12T07:47:07Z</time>
      </trkpt>
      <trkpt lat="49.3902" lon="-1.76051">
        <ele>54</ele>
        <time>2020-06-12T07:47:08Z</time>
      </trkpt>
      <trkpt lat="49.39021" lon="-1.76056">
        <ele>54.2</ele>
        <time>2020-06-12T07:47:09Z</time>
      </trkpt>
      <trkpt lat="49.39021" lon="-1.76062">
        <ele>54.4</ele>
        <time>2020-06-12T07:47:10Z</time>
      </trkpt>
      <trkpt lat="49.39022" lon="-1.76066">
        <ele>54.5</ele>
        <time>2020-06-12T07:47:11Z</time>
      </trkpt>
      <trkpt lat="49.39023" lon="-1.76072">
        <ele>54.7</ele>
        <time>2020-06-12T07:47:12Z</time>
      </trkpt>
      <trkpt lat="49.39023" lon="-1.76074">
        <ele>54.7</ele>
        <time>2020-06-12T07:47:13Z</time>
      </trkpt>
      <trkpt lat="49.39024" lon="-1.76079">
        <ele>54.9</ele>
        <time>2020-06-12T07:47:14Z</time>
      </trkpt>
      <trkpt lat="49.39025" lon="-1.76083">
        <ele>55</ele>
        <time>2020-06-12T07:47:15Z</time>
      </trkpt>
      <trkpt lat="49.39025" lon="-1.76087">
        <ele>55.1</ele>
        <time>2020-06-12T07:47:16Z</time>
      </trkpt>
      <trkpt lat="49.39026" lon="-1.76092">
        <ele>55.3</ele>
        <time>2020-06-12T07:47:17Z</time>
      </trkpt>
      <trkpt lat="49.39027" lon="-1.76097">
        <ele>55.4</ele>
        <time>2020-06-12T07:47:18Z</time>
      </trkpt>
      <trkpt lat="49.39028" lon="-1.76102">
        <ele>55.6</ele>
        <time>2020-06-12T07:47:19Z</time>
      </trkpt>
      <trkpt lat="49.39029" lon="-1.76106">
        <ele>55.7</ele>
        <time>2020-06-12T07:47:20Z</time>
      </trkpt>
      <trkpt lat="49.3903" lon="-1.76111">
        <ele>55.9</ele>
        <time>2020-06-12T07:47:21Z</time>
      </trkpt>
      <trkpt lat="49.39031" lon="-1.76116">
        <ele>56.1</ele>
        <time>2020-06-12T07:47:22Z</time>
      </trkpt>
      <trkpt lat="49.39031" lon="-1.76121">
        <ele>56.2</ele>
        <time>2020-06-12T07:47:23Z</time>
      </trkpt>
      <trkpt lat="49.39032" lon="-1.76126">
        <ele>56.4</ele>
        <time>2020-06-12T07:47:24Z</time>
      </trkpt>
      <trkpt lat="49.39033" lon="-1.76131">
        <ele>56.6</ele>
        <time>2020-06-12T07:47:25Z</time>
      </trkpt>
      <trkpt lat="49.39035" lon="-1.76136">
        <ele>57</ele>
        <time>2020-06-12T07:47:26Z</time>
      </trkpt>
      <trkpt lat="49.39036" lon="-1.76141">
        <ele>57.3</ele>
        <time>2020-06-12T07:47:27Z</time>
      </trkpt>
      <trkpt lat="49.39036" lon="-1.76146">
        <ele>57.5</ele>
        <time>2020-06-12T07:47:28Z</time>
      </trkpt>
      <trkpt lat="49.39037" lon="-1.76152">
        <ele>57.7</ele>
        <time>2020-06-12T07:47:29Z</time>
      </trkpt>
      <trkpt lat="49.39037" lon="-1.76157">
        <ele>57.8</ele>
        <time>2020-06-12T07:47:30Z</time>
      </trkpt>
      <trkpt lat="49.39038" lon="-1.76162">
        <ele>57.9</ele>
        <time>2020-06-12T07:47:31Z</time>
      </trkpt>
      <trkpt lat="49.3904" lon="-1.76167">
        <ele>58</ele>
        <time>2020-06-12T07:47:32Z</time>
      </trkpt>
      <trkpt lat="49.39041" lon="-1.76173">
        <ele>58.1</ele>
        <time>2020-06-12T07:47:33Z</time>
      </trkpt>
      <trkpt lat="49.39042" lon="-1.76178">
        <ele>58.3</ele>
        <time>2020-06-12T07:47:34Z</time>
      </trkpt>
      <trkpt lat="49.39042" lon="-1.76184">
        <ele>58.4</ele>
        <time>2020-06-12T07:47:35Z</time>
      </trkpt>
      <trkpt lat="49.39043" lon="-1.7619">
        <ele>58.5</ele>
        <time>2020-06-12T07:47:36Z</time>
      </trkpt>
      <trkpt lat="49.39044" lon="-1.76196">
        <ele>58.6</ele>
        <time>2020-06-12T07:47:37Z</time>
      </trkpt>
      <trkpt lat="49.39045" lon="-1.76202">
        <ele>58.8</ele>
        <time>2020-06-12T07:47:38Z</time>
      </trkpt>
      <trkpt lat="49.39046" lon="-1.76209">
        <ele>58.9</ele>
        <time>2020-06-12T07:47:39Z</time>
      </trkpt>
      <trkpt lat="49.39048" lon="-1.76215">
        <ele>59.1</ele>
        <time>2020-06-12T07:47:40Z</time>
      </trkpt>
      <trkpt lat="49.39049" lon="-1.76221">
        <ele>59.2</ele>
        <time>2020-06-12T07:47:41Z</time>
      </trkpt>
      <trkpt lat="49.3905" lon="-1.76228">
        <ele>59.3</ele>
        <time>2020-06-12T07:47:42Z</time>
      </trkpt>
      <trkpt lat="49.39051" lon="-1.76234">
        <ele>59.5</ele>
        <time>2020-06-12T07:47:43Z</time>
      </trkpt>
      <trkpt lat="49.39052" lon="-1.76241">
        <ele>59.6</ele>
        <time>2020-06-12T07:47:44Z</time>
      </trkpt>
      <trkpt lat="49.39053" lon="-1.76248">
        <ele>59.8</ele>
        <time>2020-06-12T07:47:45Z</time>
      </trkpt>
      <trkpt lat="49.39054" lon="-1.76254">
        <ele>60</ele>
        <time>2020-06-12T07:47:46Z</time>
      </trkpt>
      <trkpt lat="49.39054" lon="-1.76261">
        <ele>60.1</ele>
        <time>2020-06-12T07:47:47Z</time>
      </trkpt>
      <trkpt lat="49.39055" lon="-1.76267">
        <ele>60.3</ele>
        <time>2020-06-12T07:47:48Z</time>
      </trkpt>
      <trkpt lat="49.39057" lon="-1.76275">
        <ele>60.4</ele>
        <time>2020-06-12T07:47:49Z</time>
      </trkpt>
      <trkpt lat="49.39058" lon="-1.76281">
        <ele>60.6</ele>
        <time>2020-06-12T07:47:50Z</time>
      </trkpt>
      <trkpt lat="49.39059" lon="-1.76288">
        <ele>60.7</ele>
        <time>2020-06-12T07:47:51Z</time>
      </trkpt>
      <trkpt lat="49.3906" lon="-1.76295">
        <ele>60.8</ele>
        <time>2020-06-12T07:47:52Z</time>
      </trkpt>
      <trkpt lat="49.39061" lon="-1.76303">
        <ele>61</ele>
        <time>2020-06-12T07:47:53Z</time>
      </trkpt>
      <trkpt lat="49.39062" lon="-1.7631">
        <ele>61.1</ele>
        <time>2020-06-12T07:47:54Z</time>
      </trkpt>
      <trkpt lat="49.39063" lon="-1.76317">
        <ele>61.2</ele>
        <time>2020-06-12T07:47:55Z</time>
      </trkpt>
      <trkpt lat="49.39064" lon="-1.76323">
        <ele>61.4</ele>
        <time>2020-06-12T07:47:56Z</time>
      </trkpt>
      <trkpt lat="49.39065" lon="-1.76331">
        <ele>61.5</ele>
        <time>2020-06-12T07:47:57Z</time>
      </trkpt>
      <trkpt lat="49.39065" lon="-1.7634">
        <ele>61.7</ele>
        <time>2020-06-12T07:47:58Z</time>
      </trkpt>
      <trkpt lat="49.39067" lon="-1.76347">
        <ele>61.8</ele>
        <time>2020-06-12T07:47:59Z</time>
      </trkpt>
      <trkpt lat="49.39068" lon="-1.76354">
        <ele>61.9</ele>
        <time>2020-06-12T07:48:00Z</time>
      </trkpt>
      <trkpt lat="49.39069" lon="-1.76361">
        <ele>62</ele>
        <time>2020-06-12T07:48:01Z</time>
      </trkpt>
      <trkpt lat="49.3907" lon="-1.76369">
        <ele>62.1</ele>
        <time>2020-06-12T07:48:02Z</time>
      </trkpt>
      <trkpt lat="49.39071" lon="-1.76376">
        <ele>62.2</ele>
        <time>2020-06-12T07:48:03Z</time>
      </trkpt>
      <trkpt lat="49.39072" lon="-1.76383">
        <ele>62.3</ele>
        <time>2020-06-12T07:48:04Z</time>
      </trkpt>
      <trkpt lat="49.39073" lon="-1.7639">
        <ele>62.4</ele>
        <time>2020-06-12T07:48:05Z</time>
      </trkpt>
      <trkpt lat="49.39074" lon="-1.76397">
        <ele>62.5</ele>
        <time>2020-06-12T07:48:06Z</time>
      </trkpt>
      <trkpt lat="49.39075" lon="-1.76406">
        <ele>62.7</ele>
        <time>2020-06-12T07:48:07Z</time>
      </trkpt>
      <trkpt lat="49.39075" lon="-1.76414">
        <ele>62.8</ele>
        <time>2020-06-12T07:48:08Z</time>
      </trkpt>
      <trkpt lat="49.39076" lon="-1.76422">
        <ele>62.9</ele>
        <time>2020-06-12T07:48:09Z</time>
      </trkpt>
      <trkpt lat="49.39078" lon="-1.76429">
        <ele>63</ele>
        <time>2020-06-12T07:48:10Z</time>
      </trkpt>
      <trkpt lat="49.39079" lon="-1.76437">
        <ele>63.1</ele>
        <time>2020-06-12T07:48:11Z</time>
      </trkpt>
      <trkpt lat="49.3908" lon="-1.76444">
        <ele>63.2</ele>
        <time>2020-06-12T07:48:12Z</time>
      </trkpt>
      <trkpt lat="49.39081" lon="-1.76452">
        <ele>63.3</ele>
        <time>2020-06-12T07:48:13Z</time>
      </trkpt>
      <trkpt lat="49.39082" lon="-1.7646">
        <ele>63.5</ele>
        <time>2020-06-12T07:48:14Z</time>
      </trkpt>
      <trkpt lat="49.39083" lon="-1.76467">
        <ele>63.6</ele>
        <time>2020-06-12T07:48:15Z</time>
      </trkpt>
      <trkpt lat="49.39083" lon="-1.76475">
        <ele>63.7</ele>
        <time>2020-06-12T07:48:16Z</time>
      </trkpt>
      <trkpt lat="49.39084" lon="-1.76482">
        <ele>63.7</ele>
        <time>2020-06-12T07:48:17Z</time>
      </trkpt>
      <trkpt lat="49.39085" lon="-1.7649">
        <ele>63.8</ele>
        <time>2020-06-12T07:48:18Z</time>
      </trkpt>
      <trkpt lat="49.39086" lon="-1.76497">
        <ele>63.9</ele>
        <time>2020-06-12T07:48:19Z</time>
      </trkpt>
      <trkpt lat="49.39087" lon="-1.76505">
        <ele>64</ele>
        <time>2020-06-12T07:48:20Z</time>
      </trkpt>
      <trkpt lat="49.39088" lon="-1.76513">
        <ele>64.1</ele>
        <time>2020-06-12T07:48:21Z</time>
      </trkpt>
      <trkpt lat="49.39089" lon="-1.76521">
        <ele>64.2</ele>
        <time>2020-06-12T07:48:22Z</time>
      </trkpt>
      <trkpt lat="49.3909" lon="-1.76528">
        <ele>64.3</ele>
        <time>2020-06-12T07:48:23Z</time>
      </trkpt>
      <trkpt lat="49.39091" lon="-1.76536">
        <ele>64.4</ele>
        <time>2020-06-12T07:48:24Z</time>
      </trkpt>
      <trkpt lat="49.39092" lon="-1.76543">
        <ele>64.5</ele>
        <time>2020-06-12T07:48:25Z</time>
      </trkpt>
      <trkpt lat="49.39093" lon="-1.76551">
        <ele>64.6</ele>
        <time>2020-06-12T07:48:26Z</time>
      </trkpt>
      <trkpt lat="49.39094" lon="-1.76559">
        <ele>64.7</ele>
        <time>2020-06-12T07:48:27Z</time>
      </trkpt>
      <trkpt lat="49.39094" lon="-1.76566">
        <ele>64.8</ele>
        <time>2020-06-12T07:48:28Z</time>
      </trkpt>
      <trkpt lat="49.39095" lon="-1.76573">
        <ele>64.9</ele>
        <time>2020-06-12T07:48:29Z</time>
      </trkpt>
      <trkpt lat="49.39096" lon="-1.7658">
        <ele>65.1</ele>
        <time>2020-06-12T07:48:30Z</time>
      </trkpt>
      <trkpt lat="49.39098" lon="-1.76588">
        <ele>65.2</ele>
        <time>2020-06-12T07:48:31Z</time>
      </trkpt>
      <trkpt lat="49.39099" lon="-1.76597">
        <ele>65.3</ele>
        <time>2020-06-12T07:48:32Z</time>
      </trkpt>
      <trkpt lat="49.391" lon="-1.76606">
        <ele>65.5</ele>
        <time>2020-06-12T07:48:33Z</time>
      </trkpt>
      <trkpt lat="49.39101" lon="-1.76614">
        <ele>65.6</ele>
        <time>2020-06-12T07:48:34Z</time>
      </trkpt>
      <trkpt lat="49.39102" lon="-1.76622">
        <ele>65.7</ele>
        <time>2020-06-12T07:48:35Z</time>
      </trkpt>
      <trkpt lat="49.39103" lon="-1.7663">
        <ele>65.8</ele>
        <time>2020-06-12T07:48:36Z</time>
      </trkpt>
      <trkpt lat="49.39104" lon="-1.76638">
        <ele>66</ele>
        <time>2020-06-12T07:48:37Z</time>
      </trkpt>
      <trkpt lat="49.39106" lon="-1.76645">
        <ele>66.1</ele>
        <time>2020-06-12T07:48:38Z</time>
      </trkpt>
      <trkpt lat="49.39107" lon="-1.76652">
        <ele>66.2</ele>
        <time>2020-06-12T07:48:39Z</time>
      </trkpt>
      <trkpt lat="49.39108" lon="-1.76659">
        <ele>66.2</ele>
        <time>2020-06-12T07:48:40Z</time>
      </trkpt>
      <trkpt lat="49.3911" lon="-1.76666">
        <ele>66.3</ele>
        <time>2020-06-12T07:48:41Z</time>
      </trkpt>
      <trkpt lat="49.3911" lon="-1.76673">
        <ele>66.4</ele>
        <time>2020-06-12T07:48:42Z</time>
      </trkpt>
      <trkpt lat="49.39111" lon="-1.7668">
        <ele>66.5</ele>
        <time>2020-06-12T07:48:43Z</time>
      </trkpt>
      <trkpt lat="49.39112" lon="-1.76687">
        <ele>66.6</ele>
        <time>2020-06-12T07:48:44Z</time>
      </trkpt>
      <trkpt lat="49.39114" lon="-1.76694">
        <ele>66.7</ele>
        <time>2020-06-12T07:48:45Z</time>
      </trkpt>
      <trkpt lat="49.39115" lon="-1.76701">
        <ele>66.8</ele>
        <time>2020-06-12T07:48:46Z</time>
      </trkpt>
      <trkpt lat="49.39116" lon="-1.76708">
        <ele>66.9</ele>
        <time>2020-06-12T07:48:47Z</time>
      </trkpt>
      <trkpt lat="49.39118" lon="-1.76715">
        <ele>67</ele>
        <time>2020-06-12T07:48:48Z</time>
      </trkpt>
      <trkpt lat="49.39119" lon="-1.76723">
        <ele>67.2</ele>
        <time>2020-06-12T07:48:49Z</time>
      </trkpt>
      <trkpt lat="49.39121" lon="-1.7673">
        <ele>67.3</ele>
        <time>2020-06-12T07:48:50Z</time>
      </trkpt>
      <trkpt lat="49.39122" lon="-1.76737">
        <ele>67.4</ele>
        <time>2020-06-12T07:48:51Z</time>
      </trkpt>
      <trkpt lat="49.39123" lon="-1.76744">
        <ele>67.6</ele>
        <time>2020-06-12T07:48:52Z</time>
      </trkpt>
      <trkpt lat="49.39125" lon="-1.76751">
        <ele>67.7</ele>
        <time>2020-06-12T07:48:53Z</time>
      </trkpt>
      <trkpt lat="49.39126" lon="-1.76758">
        <ele>67.9</ele>
        <time>2020-06-12T07:48:54Z</time>
      </trkpt>
      <trkpt lat="49.39128" lon="-1.76767">
        <ele>68</ele>
        <time>2020-06-12T07:48:55Z</time>
      </trkpt>
      <trkpt lat="49.39129" lon="-1.76775">
        <ele>68.2</ele>
        <time>2020-06-12T07:48:56Z</time>
      </trkpt>
      <trkpt lat="49.3913" lon="-1.76783">
        <ele>68.6</ele>
        <time>2020-06-12T07:48:57Z</time>
      </trkpt>
      <trkpt lat="49.39132" lon="-1.76792">
        <ele>68.9</ele>
        <time>2020-06-12T07:48:58Z</time>
      </trkpt>
      <trkpt lat="49.39134" lon="-1.768">
        <ele>69.1</ele>
        <time>2020-06-12T07:48:59Z</time>
      </trkpt>
      <trkpt lat="49.39135" lon="-1.76807">
        <ele>69.2</ele>
        <time>2020-06-12T07:49:00Z</time>
      </trkpt>
      <trkpt lat="49.39137" lon="-1.76814">
        <ele>69.3</ele>
        <time>2020-06-12T07:49:01Z</time>
      </trkpt>
      <trkpt lat="49.39139" lon="-1.76821">
        <ele>69.4</ele>
        <time>2020-06-12T07:49:02Z</time>
      </trkpt>
      <trkpt lat="49.39141" lon="-1.76829">
        <ele>69.5</ele>
        <time>2020-06-12T07:49:03Z</time>
      </trkpt>
      <trkpt lat="49.39143" lon="-1.76838">
        <ele>69.7</ele>
        <time>2020-06-12T07:49:04Z</time>
      </trkpt>
      <trkpt lat="49.39144" lon="-1.76845">
        <ele>69.8</ele>
        <time>2020-06-12T07:49:05Z</time>
      </trkpt>
      <trkpt lat="49.39146" lon="-1.76853">
        <ele>70</ele>
        <time>2020-06-12T07:49:06Z</time>
      </trkpt>
      <trkpt lat="49.39149" lon="-1.76861">
        <ele>70.1</ele>
        <time>2020-06-12T07:49:07Z</time>
      </trkpt>
      <trkpt lat="49.39151" lon="-1.76868">
        <ele>70.2</ele>
        <time>2020-06-12T07:49:08Z</time>
      </trkpt>
      <trkpt lat="49.39153" lon="-1.76876">
        <ele>70.4</ele>
        <time>2020-06-12T07:49:09Z</time>
      </trkpt>
      <trkpt lat="49.39155" lon="-1.76883">
        <ele>70.5</ele>
        <time>2020-06-12T07:49:10Z</time>
      </trkpt>
      <trkpt lat="49.39157" lon="-1.7689">
        <ele>70.6</ele>
        <time>2020-06-12T07:49:11Z</time>
      </trkpt>
      <trkpt lat="49.39159" lon="-1.76898">
        <ele>70.7</ele>
        <time>2020-06-12T07:49:12Z</time>
      </trkpt>
      <trkpt lat="49.39162" lon="-1.76905">
        <ele>70.9</ele>
        <time>2020-06-12T07:49:13Z</time>
      </trkpt>
      <trkpt lat="49.39164" lon="-1.76912">
        <ele>71</ele>
        <time>2020-06-12T07:49:14Z</time>
      </trkpt>
      <trkpt lat="49.39166" lon="-1.76919">
        <ele>71.1</ele>
        <time>2020-06-12T07:49:15Z</time>
      </trkpt>
      <trkpt lat="49.39168" lon="-1.76926">
        <ele>71.2</ele>
        <time>2020-06-12T07:49:16Z</time>
      </trkpt>
      <trkpt lat="49.3917" lon="-1.76933">
        <ele>71.4</ele>
        <time>2020-06-12T07:49:17Z</time>
      </trkpt>
      <trkpt lat="49.39172" lon="-1.7694">
        <ele>71.5</ele>
        <time>2020-06-12T07:49:18Z</time>
      </trkpt>
      <trkpt lat="49.39174" lon="-1.76946">
        <ele>71.6</ele>
        <time>2020-06-12T07:49:19Z</time>
      </trkpt>
      <trkpt lat="49.39177" lon="-1.76953">
        <ele>71.7</ele>
        <time>2020-06-12T07:49:20Z</time>
      </trkpt>
      <trkpt lat="49.39179" lon="-1.76959">
        <ele>71.8</ele>
        <time>2020-06-12T07:49:21Z</time>
      </trkpt>
      <trkpt lat="49.3918" lon="-1.76965">
        <ele>71.9</ele>
        <time>2020-06-12T07:49:22Z</time>
      </trkpt>
      <trkpt lat="49.39183" lon="-1.76973">
        <ele>72</ele>
        <time>2020-06-12T07:49:23Z</time>
      </trkpt>
      <trkpt lat="49.39185" lon="-1.7698">
        <ele>72.1</ele>
        <time>2020-06-12T07:49:24Z</time>
      </trkpt>
      <trkpt lat="49.39187" lon="-1.76986">
        <ele>72.2</ele>
        <time>2020-06-12T07:49:25Z</time>
      </trkpt>
      <trkpt lat="49.39189" lon="-1.76993">
        <ele>72.3</ele>
        <time>2020-06-12T07:49:26Z</time>
      </trkpt>
      <trkpt lat="49.39191" lon="-1.77001">
        <ele>72.4</ele>
        <time>2020-06-12T07:49:27Z</time>
      </trkpt>
      <trkpt lat="49.39195" lon="-1.77009">
        <ele>72.5</ele>
        <time>2020-06-12T07:49:28Z</time>
      </trkpt>
      <trkpt lat="49.39197" lon="-1.77015">
        <ele>72.7</ele>
        <time>2020-06-12T07:49:29Z</time>
      </trkpt>
      <trkpt lat="49.39199" lon="-1.77021">
        <ele>72.8</ele>
        <time>2020-06-12T07:49:30Z</time>
      </trkpt>
      <trkpt lat="49.39201" lon="-1.77028">
        <ele>72.9</ele>
        <time>2020-06-12T07:49:31Z</time>
      </trkpt>
      <trkpt lat="49.39204" lon="-1.77034">
        <ele>73.1</ele>
        <time>2020-06-12T07:49:32Z</time>
      </trkpt>
      <trkpt lat="49.39206" lon="-1.7704">
        <ele>73.2</ele>
        <time>2020-06-12T07:49:33Z</time>
      </trkpt>
      <trkpt lat="49.39208" lon="-1.77047">
        <ele>73.3</ele>
        <time>2020-06-12T07:49:34Z</time>
      </trkpt>
      <trkpt lat="49.39211" lon="-1.77054">
        <ele>73.5</ele>
        <time>2020-06-12T07:49:35Z</time>
      </trkpt>
      <trkpt lat="49.39213" lon="-1.77061">
        <ele>73.6</ele>
        <time>2020-06-12T07:49:36Z</time>
      </trkpt>
      <trkpt lat="49.39216" lon="-1.77068">
        <ele>73.8</ele>
        <time>2020-06-12T07:49:37Z</time>
      </trkpt>
      <trkpt lat="49.39218" lon="-1.77075">
        <ele>73.9</ele>
        <time>2020-06-12T07:49:38Z</time>
      </trkpt>
      <trkpt lat="49.3922" lon="-1.77081">
        <ele>74</ele>
        <time>2020-06-12T07:49:39Z</time>
      </trkpt>
      <trkpt lat="49.39222" lon="-1.77086">
        <ele>74</ele>
        <time>2020-06-12T07:49:40Z</time>
      </trkpt>
      <trkpt lat="49.39225" lon="-1.77093">
        <ele>74.1</ele>
        <time>2020-06-12T07:49:41Z</time>
      </trkpt>
      <trkpt lat="49.39227" lon="-1.77101">
        <ele>74.2</ele>
        <time>2020-06-12T07:49:42Z</time>
      </trkpt>
      <trkpt lat="49.39229" lon="-1.77108">
        <ele>74.3</ele>
        <time>2020-06-12T07:49:43Z</time>
      </trkpt>
      <trkpt lat="49.39232" lon="-1.77114">
        <ele>74.4</ele>
        <time>2020-06-12T07:49:44Z</time>
      </trkpt>
      <trkpt lat="49.39233" lon="-1.7712">
        <ele>74.5</ele>
        <time>2020-06-12T07:49:45Z</time>
      </trkpt>
      <trkpt lat="49.39235" lon="-1.77127">
        <ele>74.5</ele>
        <time>2020-06-12T07:49:46Z</time>
      </trkpt>
      <trkpt lat="49.39238" lon="-1.77135">
        <ele>74.6</ele>
        <time>2020-06-12T07:49:47Z</time>
      </trkpt>
      <trkpt lat="49.3924" lon="-1.77141">
        <ele>74.7</ele>
        <time>2020-06-12T07:49:48Z</time>
      </trkpt>
      <trkpt lat="49.39242" lon="-1.77148">
        <ele>74.8</ele>
        <time>2020-06-12T07:49:49Z</time>
      </trkpt>
      <trkpt lat="49.39245" lon="-1.77155">
        <ele>74.9</ele>
        <time>2020-06-12T07:49:50Z</time>
      </trkpt>
      <trkpt lat="49.39247" lon="-1.77162">
        <ele>75</ele>
        <time>2020-06-12T07:49:51Z</time>
      </trkpt>
      <trkpt lat="49.3925" lon="-1.77169">
        <ele>75.2</ele>
        <time>2020-06-12T07:49:52Z</time>
      </trkpt>
      <trkpt lat="49.39252" lon="-1.77176">
        <ele>75.3</ele>
        <time>2020-06-12T07:49:53Z</time>
      </trkpt>
      <trkpt lat="49.39254" lon="-1.77183">
        <ele>75.4</ele>
        <time>2020-06-12T07:49:54Z</time>
      </trkpt>
      <trkpt lat="49.39257" lon="-1.7719">
        <ele>75.5</ele>
        <time>2020-06-12T07:49:55Z</time>
      </trkpt>
      <trkpt lat="49.3926" lon="-1.77198">
        <ele>75.6</ele>
        <time>2020-06-12T07:49:56Z</time>
      </trkpt>
      <trkpt lat="49.39263" lon="-1.77204">
        <ele>75.7</ele>
        <time>2020-06-12T07:49:57Z</time>
      </trkpt>
      <trkpt lat="49.39265" lon="-1.7721">
        <ele>75.8</ele>
        <time>2020-06-12T07:49:58Z</time>
      </trkpt>
      <trkpt lat="49.39268" lon="-1.77219">
        <ele>75.9</ele>
        <time>2020-06-12T07:49:59Z</time>
      </trkpt>
      <trkpt lat="49.39271" lon="-1.77226">
        <ele>76</ele>
        <time>2020-06-12T07:50:00Z</time>
      </trkpt>
      <trkpt lat="49.39273" lon="-1.77233">
        <ele>76.1</ele>
        <time>2020-06-12T07:50:01Z</time>
      </trkpt>
      <trkpt lat="49.39276" lon="-1.7724">
        <ele>76.2</ele>
        <time>2020-06-12T07:50:02Z</time>
      </trkpt>
      <trkpt lat="49.39278" lon="-1.77247">
        <ele>76.3</ele>
        <time>2020-06-12T07:50:03Z</time>
      </trkpt>
      <trkpt lat="49.3928" lon="-1.77253">
        <ele>76.3</ele>
        <time>2020-06-12T07:50:04Z</time>
      </trkpt>
      <trkpt lat="49.39283" lon="-1.7726">
        <ele>76.4</ele>
        <time>2020-06-12T07:50:05Z</time>
      </trkpt>
      <trkpt lat="49.39286" lon="-1.77266">
        <ele>76.6</ele>
        <time>2020-06-12T07:50:06Z</time>
      </trkpt>
      <trkpt lat="49.39288" lon="-1.77272">
        <ele>76.7</ele>
        <time>2020-06-12T07:50:07Z</time>
      </trkpt>
      <trkpt lat="49.39291" lon="-1.7728">
        <ele>76.8</ele>
        <time>2020-06-12T07:50:08Z</time>
      </trkpt>
      <trkpt lat="49.39293" lon="-1.77287">
        <ele>76.9</ele>
        <time>2020-06-12T07:50:09Z</time>
      </trkpt>
      <trkpt lat="49.39295" lon="-1.77294">
        <ele>77.1</ele>
        <time>2020-06-12T07:50:10Z</time>
      </trkpt>
      <trkpt lat="49.39298" lon="-1.77301">
        <ele>77.2</ele>
        <time>2020-06-12T07:50:11Z</time>
      </trkpt>
      <trkpt lat="49.39301" lon="-1.77308">
        <ele>77.3</ele>
        <time>2020-06-12T07:50:12Z</time>
      </trkpt>
      <trkpt lat="49.39303" lon="-1.77314">
        <ele>77.4</ele>
        <time>2020-06-12T07:50:13Z</time>
      </trkpt>
      <trkpt lat="49.39305" lon="-1.7732">
        <ele>77.6</ele>
        <time>2020-06-12T07:50:14Z</time>
      </trkpt>
      <trkpt lat="49.39308" lon="-1.77326">
        <ele>77.7</ele>
        <time>2020-06-12T07:50:15Z</time>
      </trkpt>
      <trkpt lat="49.39311" lon="-1.77333">
        <ele>77.8</ele>
        <time>2020-06-12T07:50:16Z</time>
      </trkpt>
      <trkpt lat="49.39313" lon="-1.7734">
        <ele>77.9</ele>
        <time>2020-06-12T07:50:17Z</time>
      </trkpt>
      <trkpt lat="49.39316" lon="-1.77347">
        <ele>78</ele>
        <time>2020-06-12T07:50:18Z</time>
      </trkpt>
      <trkpt lat="49.39319" lon="-1.77353">
        <ele>78.1</ele>
        <time>2020-06-12T07:50:19Z</time>
      </trkpt>
      <trkpt lat="49.39321" lon="-1.7736">
        <ele>78.2</ele>
        <time>2020-06-12T07:50:20Z</time>
      </trkpt>
      <trkpt lat="49.39324" lon="-1.77366">
        <ele>78.3</ele>
        <time>2020-06-12T07:50:21Z</time>
      </trkpt>
      <trkpt lat="49.39326" lon="-1.77373">
        <ele>78.4</ele>
        <time>2020-06-12T07:50:22Z</time>
      </trkpt>
      <trkpt lat="49.39328" lon="-1.77379">
        <ele>78.5</ele>
        <time>2020-06-12T07:50:23Z</time>
      </trkpt>
      <trkpt lat="49.3933" lon="-1.77385">
        <ele>78.6</ele>
        <time>2020-06-12T07:50:24Z</time>
      </trkpt>
      <trkpt lat="49.39333" lon="-1.77395">
        <ele>78.7</ele>
        <time>2020-06-12T07:50:25Z</time>
      </trkpt>
      <trkpt lat="49.39335" lon="-1.77401">
        <ele>78.8</ele>
        <time>2020-06-12T07:50:26Z</time>
      </trkpt>
      <trkpt lat="49.39338" lon="-1.77408">
        <ele>78.9</ele>
        <time>2020-06-12T07:50:27Z</time>
      </trkpt>
      <trkpt lat="49.3934" lon="-1.77415">
        <ele>79</ele>
        <time>2020-06-12T07:50:28Z</time>
      </trkpt>
      <trkpt lat="49.39344" lon="-1.77424">
        <ele>79.2</ele>
        <time>2020-06-12T07:50:29Z</time>
      </trkpt>
      <trkpt lat="49.39346" lon="-1.77431">
        <ele>79.2</ele>
        <time>2020-06-12T07:50:30Z</time>
      </trkpt>
      <trkpt lat="49.39348" lon="-1.77438">
        <ele>79.3</ele>
        <time>2020-06-12T07:50:31Z</time>
      </trkpt>
      <trkpt lat="49.39351" lon="-1.77445">
        <ele>79.4</ele>
        <time>2020-06-12T07:50:32Z</time>
      </trkpt>
      <trkpt lat="49.39354" lon="-1.77452">
        <ele>79.5</ele>
        <time>2020-06-12T07:50:33Z</time>
      </trkpt>
      <trkpt lat="49.39356" lon="-1.77459">
        <ele>79.6</ele>
        <time>2020-06-12T07:50:34Z</time>
      </trkpt>
      <trkpt lat="49.39359" lon="-1.77466">
        <ele>79.7</ele>
        <time>2020-06-12T07:50:35Z</time>
      </trkpt>
      <trkpt lat="49.39361" lon="-1.77472">
        <ele>79.8</ele>
        <time>2020-06-12T07:50:36Z</time>
      </trkpt>
      <trkpt lat="49.39364" lon="-1.77479">
        <ele>79.9</ele>
        <time>2020-06-12T07:50:37Z</time>
      </trkpt>
      <trkpt lat="49.39366" lon="-1.77485">
        <ele>80</ele>
        <time>2020-06-12T07:50:38Z</time>
      </trkpt>
      <trkpt lat="49.39369" lon="-1.77491">
        <ele>80</ele>
        <time>2020-06-12T07:50:39Z</time>
      </trkpt>
      <trkpt lat="49.39372" lon="-1.77499">
        <ele>80.2</ele>
        <time>2020-06-12T07:50:40Z</time>
      </trkpt>
      <trkpt lat="49.39374" lon="-1.77505">
        <ele>80.3</ele>
        <time>2020-06-12T07:50:41Z</time>
      </trkpt>
      <trkpt lat="49.39377" lon="-1.77512">
        <ele>80.4</ele>
        <time>2020-06-12T07:50:42Z</time>
      </trkpt>
      <trkpt lat="49.3938" lon="-1.77519">
        <ele>80.5</ele>
        <time>2020-06-12T07:50:43Z</time>
      </trkpt>
      <trkpt lat="49.39383" lon="-1.77525">
        <ele>80.7</ele>
        <time>2020-06-12T07:50:44Z</time>
      </trkpt>
      <trkpt lat="49.39385" lon="-1.77531">
        <ele>80.8</ele>
        <time>2020-06-12T07:50:45Z</time>
      </trkpt>
      <trkpt lat="49.39388" lon="-1.77538">
        <ele>80.9</ele>
        <time>2020-06-12T07:50:46Z</time>
      </trkpt>
      <trkpt lat="49.39391" lon="-1.77544">
        <ele>81</ele>
        <time>2020-06-12T07:50:47Z</time>
      </trkpt>
      <trkpt lat="49.39395" lon="-1.7755">
        <ele>81.1</ele>
        <time>2020-06-12T07:50:48Z</time>
      </trkpt>
      <trkpt lat="49.39398" lon="-1.77554">
        <ele>81.2</ele>
        <time>2020-06-12T07:50:49Z</time>
      </trkpt>
      <trkpt lat="49.39402" lon="-1.77558">
        <ele>81.4</ele>
        <time>2020-06-12T07:50:50Z</time>
      </trkpt>
      <trkpt lat="49.39406" lon="-1.77562">
        <ele>81.5</ele>
        <time>2020-06-12T07:50:51Z</time>
      </trkpt>
      <trkpt lat="49.3941" lon="-1.77567">
        <ele>81.7</ele>
        <time>2020-06-12T07:50:52Z</time>
      </trkpt>
      <trkpt lat="49.39414" lon="-1.77571">
        <ele>81.9</ele>
        <time>2020-06-12T07:50:53Z</time>
      </trkpt>
      <trkpt lat="49.39418" lon="-1.77573">
        <ele>82.4</ele>
        <time>2020-06-12T07:50:54Z</time>
      </trkpt>
      <trkpt lat="49.39422" lon="-1.77576">
        <ele>82.4</ele>
        <time>2020-06-12T07:50:55Z</time>
      </trkpt>
      <trkpt lat="49.39426" lon="-1.77578">
        <ele>82.4</ele>
        <time>2020-06-12T07:50:56Z</time>
      </trkpt>
      <trkpt lat="49.39431" lon="-1.7758">
        <ele>82.4</ele>
        <time>2020-06-12T07:50:57Z</time>
      </trkpt>
      <trkpt lat="49.39435" lon="-1.77581">
        <ele>82.4</ele>
        <time>2020-06-12T07:50:58Z</time>
      </trkpt>
      <trkpt lat="49.3944" lon="-1.77582">
        <ele>82.4</ele>
        <time>2020-06-12T07:50:59Z</time>
      </trkpt>
      <trkpt lat="49.39444" lon="-1.77583">
        <ele>82.4</ele>
        <time>2020-06-12T07:51:00Z</time>
      </trkpt>
      <trkpt lat="49.39449" lon="-1.77584">
        <ele>82.4</ele>
        <time>2020-06-12T07:51:01Z</time>
      </trkpt>
      <trkpt lat="49.39454" lon="-1.77585">
        <ele>82.4</ele>
        <time>2020-06-12T07:51:02Z</time>
      </trkpt>
      <trkpt lat="49.39459" lon="-1.77586">
        <ele>82.4</ele>
        <time>2020-06-12T07:51:03Z</time>
      </trkpt>
      <trkpt lat="49.39465" lon="-1.77587">
        <ele>82.4</ele>
        <time>2020-06-12T07:51:04Z</time>
      </trkpt>
      <trkpt lat="49.3947" lon="-1.77589">
        <ele>82.3</ele>
        <time>2020-06-12T07:51:05Z</time>
      </trkpt>
      <trkpt lat="49.39476" lon="-1.77589">
        <ele>82.3</ele>
        <time>2020-06-12T07:51:06Z</time>
      </trkpt>
      <trkpt lat="49.39481" lon="-1.7759">
        <ele>82.2</ele>
        <time>2020-06-12T07:51:07Z</time>
      </trkpt>
      <trkpt lat="49.39485" lon="-1.77591">
        <ele>82.1</ele>
        <time>2020-06-12T07:51:08Z</time>
      </trkpt>
      <trkpt lat="49.39491" lon="-1.77591">
        <ele>82.1</ele>
        <time>2020-06-12T07:51:09Z</time>
      </trkpt>
      <trkpt lat="49.39496" lon="-1.77592">
        <ele>82</ele>
        <time>2020-06-12T07:51:10Z</time>
      </trkpt>
      <trkpt lat="49.39502" lon="-1.77593">
        <ele>81.9</ele>
        <time>2020-06-12T07:51:11Z</time>
      </trkpt>
      <trkpt lat="49.39508" lon="-1.77594">
        <ele>81.7</ele>
        <time>2020-06-12T07:51:12Z</time>
      </trkpt>
      <trkpt lat="49.39514" lon="-1.77595">
        <ele>81.6</ele>
        <time>2020-06-12T07:51:13Z</time>
      </trkpt>
      <trkpt lat="49.3952" lon="-1.77595">
        <ele>81.4</ele>
        <time>2020-06-12T07:51:14Z</time>
      </trkpt>
      <trkpt lat="49.39525" lon="-1.77596">
        <ele>81.3</ele>
        <time>2020-06-12T07:51:15Z</time>
      </trkpt>
      <trkpt lat="49.39531" lon="-1.77597">
        <ele>81.2</ele>
        <time>2020-06-12T07:51:16Z</time>
      </trkpt>
      <trkpt lat="49.39537" lon="-1.77599">
        <ele>81.1</ele>
        <time>2020-06-12T07:51:17Z</time>
      </trkpt>
      <trkpt lat="49.39543" lon="-1.776">
        <ele>81</ele>
        <time>2020-06-12T07:51:18Z</time>
      </trkpt>
      <trkpt lat="49.39548" lon="-1.77601">
        <ele>80.9</ele>
        <time>2020-06-12T07:51:19Z</time>
      </trkpt>
      <trkpt lat="49.39554" lon="-1.77603">
        <ele>80.9</ele>
        <time>2020-06-12T07:51:20Z</time>
      </trkpt>
      <trkpt lat="49.39559" lon="-1.77605">
        <ele>80.9</ele>
        <time>2020-06-12T07:51:21Z</time>
      </trkpt>
      <trkpt lat="49.39564" lon="-1.77606">
        <ele>80.8</ele>
        <time>2020-06-12T07:51:22Z</time>
      </trkpt>
      <trkpt lat="49.39569" lon="-1.77608">
        <ele>80.8</ele>
        <time>2020-06-12T07:51:23Z</time>
      </trkpt>
      <trkpt lat="49.39573" lon="-1.7761">
        <ele>80.8</ele>
        <time>2020-06-12T07:51:24Z</time>
      </trkpt>
      <trkpt lat="49.39577" lon="-1.77612">
        <ele>80.8</ele>
        <time>2020-06-12T07:51:25Z</time>
      </trkpt>
      <trkpt lat="49.39581" lon="-1.77614">
        <ele>80.8</ele>
        <time>2020-06-12T07:51:26Z</time>
      </trkpt>
      <trkpt lat="49.39584" lon="-1.77616">
        <ele>80.8</ele>
        <time>2020-06-12T07:51:27Z</time>
      </trkpt>
      <trkpt lat="49.39587" lon="-1.77617">
        <ele>80.8</ele>
        <time>2020-06-12T07:51:28Z</time>
      </trkpt>
      <trkpt lat="49.3959" lon="-1.77619">
        <ele>80.8</ele>
        <time>2020-06-12T07:51:29Z</time>
      </trkpt>
      <trkpt lat="49.39591" lon="-1.7762">
        <ele>80.8</ele>
        <time>2020-06-12T07:51:30Z</time>
      </trkpt>
      <trkpt lat="49.39591" lon="-1.7762">
        <ele>80.8</ele>
        <time>2020-06-12T07:51:31Z</time>
      </trkpt>
      <trkpt lat="49.39592" lon="-1.7762">
        <ele>80.7</ele>
        <time>2020-06-12T07:51:32Z</time>
      </trkpt>
      <trkpt lat="49.39593" lon="-1.7762">
        <ele>80.7</ele>
        <time>2020-06-12T07:51:33Z</time>
      </trkpt>
      <trkpt lat="49.39594" lon="-1.77621">
        <ele>80.7</ele>
        <time>2020-06-12T07:51:34Z</time>
      </trkpt>
      <trkpt lat="49.39595" lon="-1.77621">
        <ele>80.7</ele>
        <time>2020-06-12T07:51:35Z</time>
      </trkpt>
      <trkpt lat="49.39595" lon="-1.77621">
        <ele>80.7</ele>
        <time>2020-06-12T07:51:36Z</time>
      </trkpt>
      <trkpt lat="49.39595" lon="-1.7762">
        <ele>80.7</ele>
        <time>2020-06-12T07:51:37Z</time>
      </trkpt>
      <trkpt lat="49.39595" lon="-1.7762">
        <ele>80.7</ele>
        <time>2020-06-12T07:51:38Z</time>
      </trkpt>
      <trkpt lat="49.39596" lon="-1.7762">
        <ele>80.7</ele>
        <time>2020-06-12T07:51:39Z</time>
      </trkpt>
      <trkpt lat="49.39596" lon="-1.77621">
        <ele>80.7</ele>
        <time>2020-06-12T07:51:40Z</time>
      </trkpt>
      <trkpt lat="49.39596" lon="-1.77621">
        <ele>80.7</ele>
        <time>2020-06-12T07:51:41Z</time>
      </trkpt>
      <trkpt lat="49.39596" lon="-1.77621">
        <ele>80.7</ele>
        <time>2020-06-12T07:51:42Z</time>
      </trkpt>
      <trkpt lat="49.39596" lon="-1.77621">
        <ele>80.7</ele>
        <time>2020-06-12T07:51:43Z</time>
      </trkpt>
      <trkpt lat="49.39596" lon="-1.77621">
        <ele>80.7</ele>
        <time>2020-06-12T07:51:44Z</time>
      </trkpt>
      <trkpt lat="49.39596" lon="-1.77622">
        <ele>80.7</ele>
        <time>2020-06-12T07:51:45Z</time>
      </trkpt>
      <trkpt lat="49.39596" lon="-1.77621">
        <ele>80.7</ele>
        <time>2020-06-12T07:51:46Z</time>
      </trkpt>
      <trkpt lat="49.39596" lon="-1.77622">
        <ele>80.7</ele>
        <time>2020-06-12T07:51:47Z</time>
      </trkpt>
      <trkpt lat="49.39595" lon="-1.77622">
        <ele>80.7</ele>
        <time>2020-06-12T07:51:48Z</time>
      </trkpt>
      <trkpt lat="49.39595" lon="-1.77622">
        <ele>80.7</ele>
        <time>2020-06-12T07:51:49Z</time>
      </trkpt>
      <trkpt lat="49.39595" lon="-1.77622">
        <ele>80.7</ele>
        <time>2020-06-12T07:51:50Z</time>
      </trkpt>
      <trkpt lat="49.39595" lon="-1.77622">
        <ele>80.7</ele>
        <time>2020-06-12T07:51:51Z</time>
      </trkpt>
      <trkpt lat="49.39594" lon="-1.77622">
        <ele>80.7</ele>
        <time>2020-06-12T07:51:52Z</time>
      </trkpt>
      <trkpt lat="49.39594" lon="-1.77622">
        <ele>80.7</ele>
        <time>2020-06-12T07:51:53Z</time>
      </trkpt>
      <trkpt lat="49.39593" lon="-1.77622">
        <ele>80.7</ele>
        <time>2020-06-12T07:51:54Z</time>
      </trkpt>
      <trkpt lat="49.39594" lon="-1.77621">
        <ele>80.7</ele>
        <time>2020-06-12T07:51:55Z</time>
      </trkpt>
      <trkpt lat="49.39594" lon="-1.77621">
        <ele>80.7</ele>
        <time>2020-06-12T07:51:56Z</time>
      </trkpt>
      <trkpt lat="49.39594" lon="-1.77622">
        <ele>80.7</ele>
        <time>2020-06-12T07:51:57Z</time>
      </trkpt>
      <trkpt lat="49.39594" lon="-1.77622">
        <ele>80.7</ele>
        <time>2020-06-12T07:51:58Z</time>
      </trkpt>
      <trkpt lat="49.39595" lon="-1.77624">
        <ele>80.7</ele>
        <time>2020-06-12T07:51:59Z</time>
      </trkpt>
      <trkpt lat="49.39595" lon="-1.77625">
        <ele>80.7</ele>
        <time>2020-06-12T07:52:00Z</time>
      </trkpt>
      <trkpt lat="49.39596" lon="-1.77626">
        <ele>80.7</ele>
        <time>2020-06-12T07:52:01Z</time>
      </trkpt>
      <trkpt lat="49.39596" lon="-1.77627">
        <ele>80.7</ele>
        <time>2020-06-12T07:52:02Z</time>
      </trkpt>
      <trkpt lat="49.39598" lon="-1.77629">
        <ele>80.7</ele>
        <time>2020-06-12T07:52:03Z</time>
      </trkpt>
      <trkpt lat="49.39601" lon="-1.77631">
        <ele>80.7</ele>
        <time>2020-06-12T07:52:04Z</time>
      </trkpt>
      <trkpt lat="49.39602" lon="-1.77632">
        <ele>80.7</ele>
        <time>2020-06-12T07:52:05Z</time>
      </trkpt>
      <trkpt lat="49.39606" lon="-1.77637">
        <ele>80.7</ele>
        <time>2020-06-12T07:52:06Z</time>
      </trkpt>
      <trkpt lat="49.39611" lon="-1.77642">
        <ele>80.6</ele>
        <time>2020-06-12T07:52:07Z</time>
      </trkpt>
      <trkpt lat="49.39616" lon="-1.77647">
        <ele>80.6</ele>
        <time>2020-06-12T07:52:08Z</time>
      </trkpt>
      <trkpt lat="49.39622" lon="-1.77653">
        <ele>80.6</ele>
        <time>2020-06-12T07:52:09Z</time>
      </trkpt>
      <trkpt lat="49.39628" lon="-1.77658">
        <ele>80.7</ele>
        <time>2020-06-12T07:52:10Z</time>
      </trkpt>
      <trkpt lat="49.39632" lon="-1.77662">
        <ele>80.7</ele>
        <time>2020-06-12T07:52:11Z</time>
      </trkpt>
      <trkpt lat="49.39637" lon="-1.77667">
        <ele>80.7</ele>
        <time>2020-06-12T07:52:12Z</time>
      </trkpt>
      <trkpt lat="49.39642" lon="-1.77671">
        <ele>80.8</ele>
        <time>2020-06-12T07:52:13Z</time>
      </trkpt>
      <trkpt lat="49.39647" lon="-1.77674">
        <ele>80.8</ele>
        <time>2020-06-12T07:52:14Z</time>
      </trkpt>
      <trkpt lat="49.39651" lon="-1.77678">
        <ele>80.9</ele>
        <time>2020-06-12T07:52:15Z</time>
      </trkpt>
      <trkpt lat="49.39656" lon="-1.77681">
        <ele>80.9</ele>
        <time>2020-06-12T07:52:16Z</time>
      </trkpt>
      <trkpt lat="49.3966" lon="-1.77684">
        <ele>81</ele>
        <time>2020-06-12T07:52:17Z</time>
      </trkpt>
      <trkpt lat="49.39664" lon="-1.77687">
        <ele>81</ele>
        <time>2020-06-12T07:52:18Z</time>
      </trkpt>
      <trkpt lat="49.39668" lon="-1.77692">
        <ele>81</ele>
        <time>2020-06-12T07:52:19Z</time>
      </trkpt>
      <trkpt lat="49.39672" lon="-1.77695">
        <ele>81.1</ele>
        <time>2020-06-12T07:52:20Z</time>
      </trkpt>
      <trkpt lat="49.39675" lon="-1.77698">
        <ele>81.1</ele>
        <time>2020-06-12T07:52:21Z</time>
      </trkpt>
      <trkpt lat="49.39679" lon="-1.77701">
        <ele>81.1</ele>
        <time>2020-06-12T07:52:22Z</time>
      </trkpt>
      <trkpt lat="49.39682" lon="-1.77705">
        <ele>81.2</ele>
        <time>2020-06-12T07:52:23Z</time>
      </trkpt>
      <trkpt lat="49.39686" lon="-1.77708">
        <ele>81.2</ele>
        <time>2020-06-12T07:52:24Z</time>
      </trkpt>
      <trkpt lat="49.39689" lon="-1.77712">
        <ele>81.2</ele>
        <time>2020-06-12T07:52:25Z</time>
      </trkpt>
      <trkpt lat="49.39692" lon="-1.77715">
        <ele>81.2</ele>
        <time>2020-06-12T07:52:26Z</time>
      </trkpt>
      <trkpt lat="49.39696" lon="-1.77719">
        <ele>81.3</ele>
        <time>2020-06-12T07:52:27Z</time>
      </trkpt>
      <trkpt lat="49.397" lon="-1.77723">
        <ele>81.3</ele>
        <time>2020-06-12T07:52:28Z</time>
      </trkpt>
      <trkpt lat="49.39704" lon="-1.77725">
        <ele>81.3</ele>
        <time>2020-06-12T07:52:29Z</time>
      </trkpt>
      <trkpt lat="49.39708" lon="-1.77727">
        <ele>81.3</ele>
        <time>2020-06-12T07:52:30Z</time>
      </trkpt>
      <trkpt lat="49.39711" lon="-1.7773">
        <ele>81.3</ele>
        <time>2020-06-12T07:52:31Z</time>
      </trkpt>
      <trkpt lat="49.39714" lon="-1.77733">
        <ele>81.4</ele>
        <time>2020-06-12T07:52:32Z</time>
      </trkpt>
      <trkpt lat="49.39716" lon="-1.77736">
        <ele>81.4</ele>
        <time>2020-06-12T07:52:33Z</time>
      </trkpt>
      <trkpt lat="49.39719" lon="-1.77739">
        <ele>81.4</ele>
        <time>2020-06-12T07:52:34Z</time>
      </trkpt>
      <trkpt lat="49.39721" lon="-1.7774">
        <ele>81.4</ele>
        <time>2020-06-12T07:52:35Z</time>
      </trkpt>
      <trkpt lat="49.39724" lon="-1.77743">
        <ele>81.4</ele>
        <time>2020-06-12T07:52:36Z</time>
      </trkpt>
      <trkpt lat="49.39727" lon="-1.77745">
        <ele>81.4</ele>
        <time>2020-06-12T07:52:37Z</time>
      </trkpt>
      <trkpt lat="49.39729" lon="-1.77747">
        <ele>81.4</ele>
        <time>2020-06-12T07:52:38Z</time>
      </trkpt>
      <trkpt lat="49.39732" lon="-1.77749">
        <ele>81.4</ele>
        <time>2020-06-12T07:52:39Z</time>
      </trkpt>
      <trkpt lat="49.39735" lon="-1.77751">
        <ele>81.5</ele>
        <time>2020-06-12T07:52:40Z</time>
      </trkpt>
      <trkpt lat="49.39737" lon="-1.77754">
        <ele>81.5</ele>
        <time>2020-06-12T07:52:41Z</time>
      </trkpt>
      <trkpt lat="49.39739" lon="-1.77757">
        <ele>81.5</ele>
        <time>2020-06-12T07:52:42Z</time>
      </trkpt>
      <trkpt lat="49.39741" lon="-1.77761">
        <ele>81.5</ele>
        <time>2020-06-12T07:52:43Z</time>
      </trkpt>
      <trkpt lat="49.39743" lon="-1.77765">
        <ele>81.5</ele>
        <time>2020-06-12T07:52:44Z</time>
      </trkpt>
      <trkpt lat="49.39746" lon="-1.77767">
        <ele>81.4</ele>
        <time>2020-06-12T07:52:45Z</time>
      </trkpt>
      <trkpt lat="49.39748" lon="-1.77769">
        <ele>81.4</ele>
        <time>2020-06-12T07:52:46Z</time>
      </trkpt>
      <trkpt lat="49.39751" lon="-1.77771">
        <ele>81.4</ele>
        <time>2020-06-12T07:52:47Z</time>
      </trkpt>
      <trkpt lat="49.39754" lon="-1.77772">
        <ele>81.4</ele>
        <time>2020-06-12T07:52:48Z</time>
      </trkpt>
      <trkpt lat="49.39757" lon="-1.77775">
        <ele>81.4</ele>
        <time>2020-06-12T07:52:49Z</time>
      </trkpt>
      <trkpt lat="49.3976" lon="-1.77777">
        <ele>81.4</ele>
        <time>2020-06-12T07:52:50Z</time>
      </trkpt>
      <trkpt lat="49.39763" lon="-1.7778">
        <ele>81.4</ele>
        <time>2020-06-12T07:52:51Z</time>
      </trkpt>
      <trkpt lat="49.39767" lon="-1.77782">
        <ele>81.4</ele>
        <time>2020-06-12T07:52:52Z</time>
      </trkpt>
      <trkpt lat="49.3977" lon="-1.77785">
        <ele>81.4</ele>
        <time>2020-06-12T07:52:53Z</time>
      </trkpt>
      <trkpt lat="49.39772" lon="-1.77787">
        <ele>81.4</ele>
        <time>2020-06-12T07:52:54Z</time>
      </trkpt>
      <trkpt lat="49.39775" lon="-1.7779">
        <ele>81.4</ele>
        <time>2020-06-12T07:52:55Z</time>
      </trkpt>
      <trkpt lat="49.39778" lon="-1.77793">
        <ele>81.4</ele>
        <time>2020-06-12T07:52:56Z</time>
      </trkpt>
      <trkpt lat="49.39781" lon="-1.77795">
        <ele>81.4</ele>
        <time>2020-06-12T07:52:57Z</time>
      </trkpt>
      <trkpt lat="49.39784" lon="-1.77798">
        <ele>81.5</ele>
        <time>2020-06-12T07:52:58Z</time>
      </trkpt>
      <trkpt lat="49.39787" lon="-1.778">
        <ele>81.5</ele>
        <time>2020-06-12T07:52:59Z</time>
      </trkpt>
      <trkpt lat="49.39791" lon="-1.77802">
        <ele>81.5</ele>
        <time>2020-06-12T07:53:00Z</time>
      </trkpt>
      <trkpt lat="49.39795" lon="-1.77806">
        <ele>81.5</ele>
        <time>2020-06-12T07:53:01Z</time>
      </trkpt>
      <trkpt lat="49.39799" lon="-1.77809">
        <ele>81.5</ele>
        <time>2020-06-12T07:53:02Z</time>
      </trkpt>
      <trkpt lat="49.39803" lon="-1.77813">
        <ele>81.5</ele>
        <time>2020-06-12T07:53:03Z</time>
      </trkpt>
      <trkpt lat="49.39807" lon="-1.77815">
        <ele>81.5</ele>
        <time>2020-06-12T07:53:04Z</time>
      </trkpt>
      <trkpt lat="49.39811" lon="-1.77818">
        <ele>81.5</ele>
        <time>2020-06-12T07:53:05Z</time>
      </trkpt>
      <trkpt lat="49.39816" lon="-1.77821">
        <ele>81.5</ele>
        <time>2020-06-12T07:53:06Z</time>
      </trkpt>
      <trkpt lat="49.3982" lon="-1.77824">
        <ele>81.5</ele>
        <time>2020-06-12T07:53:07Z</time>
      </trkpt>
      <trkpt lat="49.39825" lon="-1.77826">
        <ele>81.6</ele>
        <time>2020-06-12T07:53:08Z</time>
      </trkpt>
      <trkpt lat="49.39829" lon="-1.77829">
        <ele>81.7</ele>
        <time>2020-06-12T07:53:09Z</time>
      </trkpt>
      <trkpt lat="49.39834" lon="-1.77832">
        <ele>81.8</ele>
        <time>2020-06-12T07:53:10Z</time>
      </trkpt>
      <trkpt lat="49.39838" lon="-1.77835">
        <ele>81.9</ele>
        <time>2020-06-12T07:53:11Z</time>
      </trkpt>
      <trkpt lat="49.39842" lon="-1.77837">
        <ele>82</ele>
        <time>2020-06-12T07:53:12Z</time>
      </trkpt>
      <trkpt lat="49.39847" lon="-1.77839">
        <ele>82</ele>
        <time>2020-06-12T07:53:13Z</time>
      </trkpt>
      <trkpt lat="49.39852" lon="-1.77842">
        <ele>82.1</ele>
        <time>2020-06-12T07:53:14Z</time>
      </trkpt>
      <trkpt lat="49.39856" lon="-1.77844">
        <ele>82.2</ele>
        <time>2020-06-12T07:53:15Z</time>
      </trkpt>
      <trkpt lat="49.3986" lon="-1.77846">
        <ele>82.3</ele>
        <time>2020-06-12T07:53:16Z</time>
      </trkpt>
      <trkpt lat="49.39864" lon="-1.77848">
        <ele>82.4</ele>
        <time>2020-06-12T07:53:17Z</time>
      </trkpt>
      <trkpt lat="49.39869" lon="-1.7785">
        <ele>82.5</ele>
        <time>2020-06-12T07:53:18Z</time>
      </trkpt>
      <trkpt lat="49.39873" lon="-1.77853">
        <ele>82.6</ele>
        <time>2020-06-12T07:53:19Z</time>
      </trkpt>
      <trkpt lat="49.39877" lon="-1.77855">
        <ele>82.7</ele>
        <time>2020-06-12T07:53:20Z</time>
      </trkpt>
      <trkpt lat="49.39881" lon="-1.77856">
        <ele>82.8</ele>
        <time>2020-06-12T07:53:21Z</time>
      </trkpt>
      <trkpt lat="49.39885" lon="-1.77859">
        <ele>82.9</ele>
        <time>2020-06-12T07:53:22Z</time>
      </trkpt>
      <trkpt lat="49.3989" lon="-1.77861">
        <ele>83</ele>
        <time>2020-06-12T07:53:23Z</time>
      </trkpt>
      <trkpt lat="49.39894" lon="-1.77863">
        <ele>83.1</ele>
        <time>2020-06-12T07:53:24Z</time>
      </trkpt>
      <trkpt lat="49.39899" lon="-1.77865">
        <ele>83.3</ele>
        <time>2020-06-12T07:53:25Z</time>
      </trkpt>
      <trkpt lat="49.39903" lon="-1.77867">
        <ele>83.4</ele>
        <time>2020-06-12T07:53:26Z</time>
      </trkpt>
      <trkpt lat="49.39908" lon="-1.77869">
        <ele>83.5</ele>
        <time>2020-06-12T07:53:27Z</time>
      </trkpt>
      <trkpt lat="49.39911" lon="-1.77871">
        <ele>83.7</ele>
        <time>2020-06-12T07:53:28Z</time>
      </trkpt>
      <trkpt lat="49.39915" lon="-1.77872">
        <ele>83.8</ele>
        <time>2020-06-12T07:53:29Z</time>
      </trkpt>
      <trkpt lat="49.39918" lon="-1.77874">
        <ele>83.9</ele>
        <time>2020-06-12T07:53:30Z</time>
      </trkpt>
      <trkpt lat="49.39922" lon="-1.77875">
        <ele>84</ele>
        <time>2020-06-12T07:53:31Z</time>
      </trkpt>
      <trkpt lat="49.39925" lon="-1.77876">
        <ele>84.2</ele>
        <time>2020-06-12T07:53:32Z</time>
      </trkpt>
      <trkpt lat="49.39929" lon="-1.77878">
        <ele>84.3</ele>
        <time>2020-06-12T07:53:33Z</time>
      </trkpt>
      <trkpt lat="49.39933" lon="-1.7788">
        <ele>84.4</ele>
        <time>2020-06-12T07:53:34Z</time>
      </trkpt>
      <trkpt lat="49.39937" lon="-1.77882">
        <ele>84.5</ele>
        <time>2020-06-12T07:53:35Z</time>
      </trkpt>
      <trkpt lat="49.3994" lon="-1.77884">
        <ele>84.6</ele>
        <time>2020-06-12T07:53:36Z</time>
      </trkpt>
      <trkpt lat="49.39944" lon="-1.77886">
        <ele>84.7</ele>
        <time>2020-06-12T07:53:37Z</time>
      </trkpt>
      <trkpt lat="49.39948" lon="-1.77889">
        <ele>84.8</ele>
        <time>2020-06-12T07:53:38Z</time>
      </trkpt>
      <trkpt lat="49.39952" lon="-1.77892">
        <ele>85</ele>
        <time>2020-06-12T07:53:39Z</time>
      </trkpt>
      <trkpt lat="49.39957" lon="-1.77894">
        <ele>85.1</ele>
        <time>2020-06-12T07:53:40Z</time>
      </trkpt>
      <trkpt lat="49.39962" lon="-1.77896">
        <ele>85.2</ele>
        <time>2020-06-12T07:53:41Z</time>
      </trkpt>
      <trkpt lat="49.39966" lon="-1.77899">
        <ele>85.3</ele>
        <time>2020-06-12T07:53:42Z</time>
      </trkpt>
      <trkpt lat="49.3997" lon="-1.77902">
        <ele>85.3</ele>
        <time>2020-06-12T07:53:43Z</time>
      </trkpt>
      <trkpt lat="49.39975" lon="-1.77905">
        <ele>85.4</ele>
        <time>2020-06-12T07:53:44Z</time>
      </trkpt>
      <trkpt lat="49.3998" lon="-1.77907">
        <ele>85.4</ele>
        <time>2020-06-12T07:53:45Z</time>
      </trkpt>
      <trkpt lat="49.39985" lon="-1.77909">
        <ele>85.5</ele>
        <time>2020-06-12T07:53:46Z</time>
      </trkpt>
      <trkpt lat="49.39991" lon="-1.77911">
        <ele>85.6</ele>
        <time>2020-06-12T07:53:47Z</time>
      </trkpt>
      <trkpt lat="49.39994" lon="-1.77913">
        <ele>85.6</ele>
        <time>2020-06-12T07:53:48Z</time>
      </trkpt>
      <trkpt lat="49.39998" lon="-1.77915">
        <ele>85.6</ele>
        <time>2020-06-12T07:53:49Z</time>
      </trkpt>
      <trkpt lat="49.40002" lon="-1.77917">
        <ele>85.7</ele>
        <time>2020-06-12T07:53:50Z</time>
      </trkpt>
      <trkpt lat="49.40006" lon="-1.7792">
        <ele>85.7</ele>
        <time>2020-06-12T07:53:51Z</time>
      </trkpt>
      <trkpt lat="49.4001" lon="-1.77921">
        <ele>85.7</ele>
        <time>2020-06-12T07:53:52Z</time>
      </trkpt>
      <trkpt lat="49.40015" lon="-1.77923">
        <ele>85.7</ele>
        <time>2020-06-12T07:53:53Z</time>
      </trkpt>
      <trkpt lat="49.4002" lon="-1.77924">
        <ele>85.7</ele>
        <time>2020-06-12T07:53:54Z</time>
      </trkpt>
      <trkpt lat="49.40024" lon="-1.77926">
        <ele>85.7</ele>
        <time>2020-06-12T07:53:55Z</time>
      </trkpt>
      <trkpt lat="49.40028" lon="-1.77927">
        <ele>85.7</ele>
        <time>2020-06-12T07:53:56Z</time>
      </trkpt>
      <trkpt lat="49.40032" lon="-1.77928">
        <ele>85.7</ele>
        <time>2020-06-12T07:53:57Z</time>
      </trkpt>
      <trkpt lat="49.40037" lon="-1.7793">
        <ele>85.8</ele>
        <time>2020-06-12T07:53:58Z</time>
      </trkpt>
      <trkpt lat="49.40042" lon="-1.77931">
        <ele>85.8</ele>
        <time>2020-06-12T07:53:59Z</time>
      </trkpt>
      <trkpt lat="49.40047" lon="-1.77933">
        <ele>85.8</ele>
        <time>2020-06-12T07:54:00Z</time>
      </trkpt>
      <trkpt lat="49.40053" lon="-1.77934">
        <ele>85.8</ele>
        <time>2020-06-12T07:54:01Z</time>
      </trkpt>
      <trkpt lat="49.40058" lon="-1.77935">
        <ele>85.8</ele>
        <time>2020-06-12T07:54:02Z</time>
      </trkpt>
      <trkpt lat="49.40062" lon="-1.77936">
        <ele>85.8</ele>
        <time>2020-06-12T07:54:03Z</time>
      </trkpt>
      <trkpt lat="49.40067" lon="-1.77937">
        <ele>85.8</ele>
        <time>2020-06-12T07:54:04Z</time>
      </trkpt>
      <trkpt lat="49.40071" lon="-1.77938">
        <ele>85.8</ele>
        <time>2020-06-12T07:54:05Z</time>
      </trkpt>
      <trkpt lat="49.40075" lon="-1.77939">
        <ele>85.8</ele>
        <time>2020-06-12T07:54:06Z</time>
      </trkpt>
      <trkpt lat="49.40079" lon="-1.77941">
        <ele>85.8</ele>
        <time>2020-06-12T07:54:07Z</time>
      </trkpt>
      <trkpt lat="49.40084" lon="-1.77942">
        <ele>85.8</ele>
        <time>2020-06-12T07:54:08Z</time>
      </trkpt>
      <trkpt lat="49.40088" lon="-1.77943">
        <ele>85.9</ele>
        <time>2020-06-12T07:54:09Z</time>
      </trkpt>
      <trkpt lat="49.40092" lon="-1.77944">
        <ele>85.9</ele>
        <time>2020-06-12T07:54:10Z</time>
      </trkpt>
      <trkpt lat="49.40096" lon="-1.77945">
        <ele>86</ele>
        <time>2020-06-12T07:54:11Z</time>
      </trkpt>
      <trkpt lat="49.40101" lon="-1.77948">
        <ele>86</ele>
        <time>2020-06-12T07:54:12Z</time>
      </trkpt>
      <trkpt lat="49.40105" lon="-1.7795">
        <ele>86.1</ele>
        <time>2020-06-12T07:54:13Z</time>
      </trkpt>
      <trkpt lat="49.40109" lon="-1.77951">
        <ele>86.2</ele>
        <time>2020-06-12T07:54:14Z</time>
      </trkpt>
      <trkpt lat="49.40113" lon="-1.77953">
        <ele>86.2</ele>
        <time>2020-06-12T07:54:15Z</time>
      </trkpt>
      <trkpt lat="49.40117" lon="-1.77954">
        <ele>86.3</ele>
        <time>2020-06-12T07:54:16Z</time>
      </trkpt>
      <trkpt lat="49.40122" lon="-1.77955">
        <ele>86.3</ele>
        <time>2020-06-12T07:54:17Z</time>
      </trkpt>
      <trkpt lat="49.40126" lon="-1.77957">
        <ele>86.3</ele>
        <time>2020-06-12T07:54:18Z</time>
      </trkpt>
      <trkpt lat="49.40129" lon="-1.77959">
        <ele>86.4</ele>
        <time>2020-06-12T07:54:19Z</time>
      </trkpt>
      <trkpt lat="49.40133" lon="-1.7796">
        <ele>86.4</ele>
        <time>2020-06-12T07:54:20Z</time>
      </trkpt>
      <trkpt lat="49.40136" lon="-1.77961">
        <ele>86.4</ele>
        <time>2020-06-12T07:54:21Z</time>
      </trkpt>
      <trkpt lat="49.4014" lon="-1.77962">
        <ele>86.5</ele>
        <time>2020-06-12T07:54:22Z</time>
      </trkpt>
      <trkpt lat="49.40143" lon="-1.77963">
        <ele>86.5</ele>
        <time>2020-06-12T07:54:23Z</time>
      </trkpt>
      <trkpt lat="49.40148" lon="-1.77965">
        <ele>86.6</ele>
        <time>2020-06-12T07:54:24Z</time>
      </trkpt>
      <trkpt lat="49.40152" lon="-1.77966">
        <ele>86.6</ele>
        <time>2020-06-12T07:54:25Z</time>
      </trkpt>
      <trkpt lat="49.40156" lon="-1.77967">
        <ele>86.7</ele>
        <time>2020-06-12T07:54:26Z</time>
      </trkpt>
      <trkpt lat="49.40161" lon="-1.77968">
        <ele>86.7</ele>
        <time>2020-06-12T07:54:27Z</time>
      </trkpt>
      <trkpt lat="49.40165" lon="-1.77969">
        <ele>86.8</ele>
        <time>2020-06-12T07:54:28Z</time>
      </trkpt>
      <trkpt lat="49.40169" lon="-1.77971">
        <ele>86.8</ele>
        <time>2020-06-12T07:54:29Z</time>
      </trkpt>
      <trkpt lat="49.40173" lon="-1.77973">
        <ele>86.8</ele>
        <time>2020-06-12T07:54:30Z</time>
      </trkpt>
      <trkpt lat="49.40177" lon="-1.77975">
        <ele>86.9</ele>
        <time>2020-06-12T07:54:31Z</time>
      </trkpt>
      <trkpt lat="49.40181" lon="-1.77977">
        <ele>86.9</ele>
        <time>2020-06-12T07:54:32Z</time>
      </trkpt>
      <trkpt lat="49.40184" lon="-1.77979">
        <ele>86.9</ele>
        <time>2020-06-12T07:54:33Z</time>
      </trkpt>
      <trkpt lat="49.40187" lon="-1.77981">
        <ele>87</ele>
        <time>2020-06-12T07:54:34Z</time>
      </trkpt>
      <trkpt lat="49.4019" lon="-1.77982">
        <ele>87</ele>
        <time>2020-06-12T07:54:35Z</time>
      </trkpt>
      <trkpt lat="49.40193" lon="-1.77984">
        <ele>87</ele>
        <time>2020-06-12T07:54:36Z</time>
      </trkpt>
      <trkpt lat="49.40197" lon="-1.77986">
        <ele>87</ele>
        <time>2020-06-12T07:54:37Z</time>
      </trkpt>
      <trkpt lat="49.402" lon="-1.77989">
        <ele>87</ele>
        <time>2020-06-12T07:54:38Z</time>
      </trkpt>
      <trkpt lat="49.40203" lon="-1.77992">
        <ele>87</ele>
        <time>2020-06-12T07:54:39Z</time>
      </trkpt>
      <trkpt lat="49.40206" lon="-1.77994">
        <ele>87</ele>
        <time>2020-06-12T07:54:40Z</time>
      </trkpt>
      <trkpt lat="49.40209" lon="-1.77995">
        <ele>87</ele>
        <time>2020-06-12T07:54:41Z</time>
      </trkpt>
      <trkpt lat="49.40212" lon="-1.77996">
        <ele>86.9</ele>
        <time>2020-06-12T07:54:42Z</time>
      </trkpt>
      <trkpt lat="49.40215" lon="-1.77996">
        <ele>86.9</ele>
        <time>2020-06-12T07:54:43Z</time>
      </trkpt>
      <trkpt lat="49.40219" lon="-1.77997">
        <ele>86.9</ele>
        <time>2020-06-12T07:54:44Z</time>
      </trkpt>
      <trkpt lat="49.40222" lon="-1.77999">
        <ele>86.9</ele>
        <time>2020-06-12T07:54:45Z</time>
      </trkpt>
      <trkpt lat="49.40226" lon="-1.78">
        <ele>86.8</ele>
        <time>2020-06-12T07:54:46Z</time>
      </trkpt>
      <trkpt lat="49.40229" lon="-1.78">
        <ele>86.8</ele>
        <time>2020-06-12T07:54:47Z</time>
      </trkpt>
      <trkpt lat="49.40233" lon="-1.78001">
        <ele>86.8</ele>
        <time>2020-06-12T07:54:48Z</time>
      </trkpt>
      <trkpt lat="49.40237" lon="-1.78003">
        <ele>86.7</ele>
        <time>2020-06-12T07:54:49Z</time>
      </trkpt>
      <trkpt lat="49.40241" lon="-1.78004">
        <ele>86.7</ele>
        <time>2020-06-12T07:54:50Z</time>
      </trkpt>
      <trkpt lat="49.40245" lon="-1.78005">
        <ele>86.7</ele>
        <time>2020-06-12T07:54:51Z</time>
      </trkpt>
      <trkpt lat="49.40247" lon="-1.78006">
        <ele>86.7</ele>
        <time>2020-06-12T07:54:52Z</time>
      </trkpt>
      <trkpt lat="49.40251" lon="-1.78007">
        <ele>86.6</ele>
        <time>2020-06-12T07:54:53Z</time>
      </trkpt>
      <trkpt lat="49.40253" lon="-1.78008">
        <ele>86.6</ele>
        <time>2020-06-12T07:54:54Z</time>
      </trkpt>
      <trkpt lat="49.40256" lon="-1.78009">
        <ele>86.6</ele>
        <time>2020-06-12T07:54:55Z</time>
      </trkpt>
      <trkpt lat="49.40259" lon="-1.7801">
        <ele>86.5</ele>
        <time>2020-06-12T07:54:56Z</time>
      </trkpt>
      <trkpt lat="49.40262" lon="-1.78011">
        <ele>86.5</ele>
        <time>2020-06-12T07:54:57Z</time>
      </trkpt>
      <trkpt lat="49.40265" lon="-1.78012">
        <ele>86.5</ele>
        <time>2020-06-12T07:54:58Z</time>
      </trkpt>
      <trkpt lat="49.40268" lon="-1.78014">
        <ele>86.4</ele>
        <time>2020-06-12T07:54:59Z</time>
      </trkpt>
      <trkpt lat="49.40272" lon="-1.78016">
        <ele>86.3</ele>
        <time>2020-06-12T07:55:00Z</time>
      </trkpt>
      <trkpt lat="49.40276" lon="-1.78017">
        <ele>86.3</ele>
        <time>2020-06-12T07:55:01Z</time>
      </trkpt>
      <trkpt lat="49.4028" lon="-1.78016">
        <ele>86.2</ele>
        <time>2020-06-12T07:55:02Z</time>
      </trkpt>
      <trkpt lat="49.40284" lon="-1.78015">
        <ele>86.1</ele>
        <time>2020-06-12T07:55:03Z</time>
      </trkpt>
      <trkpt lat="49.40287" lon="-1.78013">
        <ele>85.9</ele>
        <time>2020-06-12T07:55:04Z</time>
      </trkpt>
      <trkpt lat="49.40291" lon="-1.7801">
        <ele>85.8</ele>
        <time>2020-06-12T07:55:05Z</time>
      </trkpt>
      <trkpt lat="49.40293" lon="-1.78008">
        <ele>85.7</ele>
        <time>2020-06-12T07:55:06Z</time>
      </trkpt>
      <trkpt lat="49.40296" lon="-1.78006">
        <ele>85.7</ele>
        <time>2020-06-12T07:55:07Z</time>
      </trkpt>
      <trkpt lat="49.40299" lon="-1.78002">
        <ele>85.6</ele>
        <time>2020-06-12T07:55:08Z</time>
      </trkpt>
      <trkpt lat="49.403" lon="-1.78001">
        <ele>85.6</ele>
        <time>2020-06-12T07:55:09Z</time>
      </trkpt>
      <trkpt lat="49.40302" lon="-1.77999">
        <ele>85.5</ele>
        <time>2020-06-12T07:55:10Z</time>
      </trkpt>
      <trkpt lat="49.40303" lon="-1.77999">
        <ele>85.5</ele>
        <time>2020-06-12T07:55:11Z</time>
      </trkpt>
      <trkpt lat="49.40305" lon="-1.77998">
        <ele>85.4</ele>
        <time>2020-06-12T07:55:12Z</time>
      </trkpt>
      <trkpt lat="49.40307" lon="-1.77998">
        <ele>85.4</ele>
        <time>2020-06-12T07:55:13Z</time>
      </trkpt>
      <trkpt lat="49.40309" lon="-1.77998">
        <ele>85.4</ele>
        <time>2020-06-12T07:55:14Z</time>
      </trkpt>
      <trkpt lat="49.40311" lon="-1.77997">
        <ele>85.4</ele>
        <time>2020-06-12T07:55:15Z</time>
      </trkpt>
      <trkpt lat="49.40312" lon="-1.77998">
        <ele>85.4</ele>
        <time>2020-06-12T07:55:16Z</time>
      </trkpt>
      <trkpt lat="49.40314" lon="-1.77997">
        <ele>85.4</ele>
        <time>2020-06-12T07:55:17Z</time>
      </trkpt>
      <trkpt lat="49.40316" lon="-1.77997">
        <ele>85.4</ele>
        <time>2020-06-12T07:55:18Z</time>
      </trkpt>
      <trkpt lat="49.40317" lon="-1.77997">
        <ele>85.4</ele>
        <time>2020-06-12T07:55:19Z</time>
      </trkpt>
      <trkpt lat="49.4032" lon="-1.77997">
        <ele>85.4</ele>
        <time>2020-06-12T07:55:20Z</time>
      </trkpt>
      <trkpt lat="49.40321" lon="-1.77997">
        <ele>85.4</ele>
        <time>2020-06-12T07:55:21Z</time>
      </trkpt>
      <trkpt lat="49.40323" lon="-1.77997">
        <ele>85.3</ele>
        <time>2020-06-12T07:55:22Z</time>
      </trkpt>
      <trkpt lat="49.40325" lon="-1.77996">
        <ele>85.3</ele>
        <time>2020-06-12T07:55:23Z</time>
      </trkpt>
      <trkpt lat="49.40327" lon="-1.77996">
        <ele>85.3</ele>
        <time>2020-06-12T07:55:24Z</time>
      </trkpt>
      <trkpt lat="49.40328" lon="-1.77996">
        <ele>85.3</ele>
        <time>2020-06-12T07:55:25Z</time>
      </trkpt>
      <trkpt lat="49.40329" lon="-1.77996">
        <ele>85.3</ele>
        <time>2020-06-12T07:55:26Z</time>
      </trkpt>
      <trkpt lat="49.40331" lon="-1.77995">
        <ele>85.3</ele>
        <time>2020-06-12T07:55:27Z</time>
      </trkpt>
      <trkpt lat="49.40333" lon="-1.77995">
        <ele>85.3</ele>
        <time>2020-06-12T07:55:28Z</time>
      </trkpt>
      <trkpt lat="49.40334" lon="-1.77996">
        <ele>85.3</ele>
        <time>2020-06-12T07:55:29Z</time>
      </trkpt>
      <trkpt lat="49.40335" lon="-1.77998">
        <ele>85.3</ele>
        <time>2020-06-12T07:55:30Z</time>
      </trkpt>
      <trkpt lat="49.40336" lon="-1.77999">
        <ele>85.3</ele>
        <time>2020-06-12T07:55:31Z</time>
      </trkpt>
      <trkpt lat="49.40337" lon="-1.78001">
        <ele>85.2</ele>
        <time>2020-06-12T07:55:32Z</time>
      </trkpt>
      <trkpt lat="49.40338" lon="-1.78005">
        <ele>85.2</ele>
        <time>2020-06-12T07:55:33Z</time>
      </trkpt>
      <trkpt lat="49.40339" lon="-1.78007">
        <ele>85.2</ele>
        <time>2020-06-12T07:55:34Z</time>
      </trkpt>
      <trkpt lat="49.40341" lon="-1.78011">
        <ele>85.2</ele>
        <time>2020-06-12T07:55:35Z</time>
      </trkpt>
      <trkpt lat="49.40343" lon="-1.78014">
        <ele>85.1</ele>
        <time>2020-06-12T07:55:36Z</time>
      </trkpt>
      <trkpt lat="49.40343" lon="-1.78015">
        <ele>85.1</ele>
        <time>2020-06-12T07:55:37Z</time>
      </trkpt>
      <trkpt lat="49.40345" lon="-1.78016">
        <ele>85.1</ele>
        <time>2020-06-12T07:55:38Z</time>
      </trkpt>
      <trkpt lat="49.40346" lon="-1.78017">
        <ele>85.1</ele>
        <time>2020-06-12T07:55:39Z</time>
      </trkpt>
      <trkpt lat="49.40347" lon="-1.78017">
        <ele>85.1</ele>
        <time>2020-06-12T07:55:40Z</time>
      </trkpt>
      <trkpt lat="49.40348" lon="-1.78019">
        <ele>85.1</ele>
        <time>2020-06-12T07:55:41Z</time>
      </trkpt>
      <trkpt lat="49.4035" lon="-1.78018">
        <ele>85</ele>
        <time>2020-06-12T07:55:42Z</time>
      </trkpt>
      <trkpt lat="49.4035" lon="-1.78017">
        <ele>85</ele>
        <time>2020-06-12T07:55:43Z</time>
      </trkpt>
      <trkpt lat="49.40351" lon="-1.78017">
        <ele>85</ele>
        <time>2020-06-12T07:55:44Z</time>
      </trkpt>
      <trkpt lat="49.40352" lon="-1.78015">
        <ele>85</ele>
        <time>2020-06-12T07:55:45Z</time>
      </trkpt>
      <trkpt lat="49.40352" lon="-1.78016">
        <ele>85</ele>
        <time>2020-06-12T07:55:46Z</time>
      </trkpt>
      <trkpt lat="49.40353" lon="-1.78015">
        <ele>85</ele>
        <time>2020-06-12T07:55:47Z</time>
      </trkpt>
      <trkpt lat="49.40355" lon="-1.78013">
        <ele>85</ele>
        <time>2020-06-12T07:55:48Z</time>
      </trkpt>
      <trkpt lat="49.40356" lon="-1.78012">
        <ele>85</ele>
        <time>2020-06-12T07:55:49Z</time>
      </trkpt>
      <trkpt lat="49.40356" lon="-1.78012">
        <ele>85</ele>
        <time>2020-06-12T07:55:50Z</time>
      </trkpt>
      <trkpt lat="49.40357" lon="-1.78011">
        <ele>84.9</ele>
        <time>2020-06-12T07:55:51Z</time>
      </trkpt>
      <trkpt lat="49.40357" lon="-1.78012">
        <ele>84.9</ele>
        <time>2020-06-12T07:55:52Z</time>
      </trkpt>
      <trkpt lat="49.40357" lon="-1.78011">
        <ele>84.9</ele>
        <time>2020-06-12T07:55:53Z</time>
      </trkpt>
      <trkpt lat="49.40357" lon="-1.78011">
        <ele>84.9</ele>
        <time>2020-06-12T07:55:54Z</time>
      </trkpt>
      <trkpt lat="49.40357" lon="-1.78011">
        <ele>84.9</ele>
        <time>2020-06-12T07:55:55Z</time>
      </trkpt>
      <trkpt lat="49.40356" lon="-1.78011">
        <ele>84.9</ele>
        <time>2020-06-12T07:55:56Z</time>
      </trkpt>
      <trkpt lat="49.40356" lon="-1.78012">
        <ele>84.9</ele>
        <time>2020-06-12T07:55:57Z</time>
      </trkpt>
      <trkpt lat="49.40356" lon="-1.78012">
        <ele>84.9</ele>
        <time>2020-06-12T07:55:58Z</time>
      </trkpt>
      <trkpt lat="49.40356" lon="-1.78012">
        <ele>84.9</ele>
        <time>2020-06-12T07:55:59Z</time>
      </trkpt>
      <trkpt lat="49.40356" lon="-1.78012">
        <ele>84.9</ele>
        <time>2020-06-12T07:56:00Z</time>
      </trkpt>
      <trkpt lat="49.40357" lon="-1.78012">
        <ele>84.9</ele>
        <time>2020-06-12T07:56:01Z</time>
      </trkpt>
      <trkpt lat="49.40357" lon="-1.78011">
        <ele>84.9</ele>
        <time>2020-06-12T07:56:02Z</time>
      </trkpt>
      <trkpt lat="49.40357" lon="-1.78011">
        <ele>84.9</ele>
        <time>2020-06-12T07:56:03Z</time>
      </trkpt>
      <trkpt lat="49.40356" lon="-1.78012">
        <ele>84.9</ele>
        <time>2020-06-12T07:56:04Z</time>
      </trkpt>
      <trkpt lat="49.40356" lon="-1.78012">
        <ele>84.9</ele>
        <time>2020-06-12T07:56:05Z</time>
      </trkpt>
      <trkpt lat="49.40356" lon="-1.78012">
        <ele>84.9</ele>
        <time>2020-06-12T07:56:06Z</time>
      </trkpt>
      <trkpt lat="49.40356" lon="-1.78012">
        <ele>84.9</ele>
        <time>2020-06-12T07:56:07Z</time>
      </trkpt>
      <trkpt lat="49.40348" lon="-1.78022">
        <ele>84.7</ele>
        <time>2020-06-12T07:58:11Z</time>
      </trkpt>
      <trkpt lat="49.40347" lon="-1.78023">
        <ele>84.7</ele>
        <time>2020-06-12T07:58:12Z</time>
      </trkpt>
      <trkpt lat="49.40345" lon="-1.78024">
        <ele>84.7</ele>
        <time>2020-06-12T07:58:13Z</time>
      </trkpt>
      <trkpt lat="49.40345" lon="-1.78025">
        <ele>84.7</ele>
        <time>2020-06-12T07:58:14Z</time>
      </trkpt>
      <trkpt lat="49.40345" lon="-1.78026">
        <ele>84.7</ele>
        <time>2020-06-12T07:58:15Z</time>
      </trkpt>
      <trkpt lat="49.40344" lon="-1.78027">
        <ele>84.7</ele>
        <time>2020-06-12T07:58:16Z</time>
      </trkpt>
      <trkpt lat="49.40344" lon="-1.78028">
        <ele>84.7</ele>
        <time>2020-06-12T07:58:17Z</time>
      </trkpt>
      <trkpt lat="49.40344" lon="-1.78028">
        <ele>84.7</ele>
        <time>2020-06-12T07:58:18Z</time>
      </trkpt>
      <trkpt lat="49.40344" lon="-1.78028">
        <ele>84.7</ele>
        <time>2020-06-12T07:58:19Z</time>
      </trkpt>
      <trkpt lat="49.40345" lon="-1.78027">
        <ele>84.7</ele>
        <time>2020-06-12T07:58:20Z</time>
      </trkpt>
      <trkpt lat="49.40346" lon="-1.78026">
        <ele>84.7</ele>
        <time>2020-06-12T07:58:21Z</time>
      </trkpt>
      <trkpt lat="49.40347" lon="-1.78026">
        <ele>84.6</ele>
        <time>2020-06-12T07:58:22Z</time>
      </trkpt>
      <trkpt lat="49.40347" lon="-1.78026">
        <ele>84.6</ele>
        <time>2020-06-12T07:58:23Z</time>
      </trkpt>
      <trkpt lat="49.40347" lon="-1.78025">
        <ele>84.6</ele>
        <time>2020-06-12T07:58:24Z</time>
      </trkpt>
      <trkpt lat="49.40347" lon="-1.78025">
        <ele>84.6</ele>
        <time>2020-06-12T07:58:25Z</time>
      </trkpt>
      <trkpt lat="49.40347" lon="-1.78025">
        <ele>84.6</ele>
        <time>2020-06-12T07:58:26Z</time>
      </trkpt>
      <trkpt lat="49.40347" lon="-1.78025">
        <ele>84.6</ele>
        <time>2020-06-12T07:58:27Z</time>
      </trkpt>
      <trkpt lat="49.40347" lon="-1.78025">
        <ele>84.6</ele>
        <time>2020-06-12T07:58:28Z</time>
      </trkpt>
      <trkpt lat="49.40347" lon="-1.78025">
        <ele>84.6</ele>
        <time>2020-06-12T07:58:29Z</time>
      </trkpt>
      <trkpt lat="49.40347" lon="-1.78025">
        <ele>84.6</ele>
        <time>2020-06-12T07:58:30Z</time>
      </trkpt>
      <trkpt lat="49.40347" lon="-1.78025">
        <ele>84.6</ele>
        <time>2020-06-12T07:58:31Z</time>
      </trkpt>
      <trkpt lat="49.40347" lon="-1.78025">
        <ele>84.6</ele>
        <time>2020-06-12T07:58:32Z</time>
      </trkpt>
    </trkseg>
  </trk>
</gpx>